<?xml version="1.0" encoding="UTF-8" standalone="no" ?>
<gpx xmlns="http://www.topografix.com/GPX/1/1" xmlns:xsi="http://www.w3.org/2001/XMLSchema-instance" xsi:schemaLocation="http://www.topografix.com/GPX/1/1 http://www.topografix.com/GPX/1/1/gpx.xsd" version="1.1" creator="VisuGPX - https://www.visugpx.com">
  <metadata>
    <name>2018-10-28 Bike ride-Chatillon-Limas v39k</name>
    <desc><![CDATA[2018-10-28 Bike ride-Chatillon-Limas v39k]]></desc>
  </metadata>
  <wpt lat="45.92453" lon="4.7371">
    <ele>174</ele>
    <name><![CDATA[2018-10-28 09:57 (Start)]]></name>
  </wpt>
  <wpt lat="45.92459" lon="4.73709">
    <ele>174</ele>
    <name><![CDATA[2018-10-28 09:57 (End)]]></name>
  </wpt>
  <trk>
    <name><![CDATA[2018-10-28 09:57]]></name>
    <trkseg>
      <trkpt lat="45.92453" lon="4.7371">
        <ele>174</ele>
        <time>2018-10-28T08:57:18.629Z</time>
      </trkpt>
      <trkpt lat="45.92453" lon="4.73711">
        <ele>174</ele>
        <time>2018-10-28T08:57:26Z</time>
      </trkpt>
      <trkpt lat="45.92453" lon="4.73711">
        <ele>174</ele>
        <time>2018-10-28T08:57:27Z</time>
      </trkpt>
      <trkpt lat="45.92454" lon="4.73713">
        <ele>174</ele>
        <time>2018-10-28T08:57:36Z</time>
      </trkpt>
      <trkpt lat="45.92454" lon="4.73714">
        <ele>174</ele>
        <time>2018-10-28T08:57:37Z</time>
      </trkpt>
      <trkpt lat="45.92463" lon="4.73709">
        <ele>174</ele>
        <time>2018-10-28T08:57:43Z</time>
      </trkpt>
      <trkpt lat="45.92464" lon="4.73707">
        <ele>174</ele>
        <time>2018-10-28T08:57:44Z</time>
      </trkpt>
      <trkpt lat="45.92465" lon="4.73698">
        <ele>174</ele>
        <time>2018-10-28T08:57:47Z</time>
      </trkpt>
      <trkpt lat="45.92465" lon="4.73694">
        <ele>174</ele>
        <time>2018-10-28T08:57:48Z</time>
      </trkpt>
      <trkpt lat="45.92466" lon="4.73681">
        <ele>174</ele>
        <time>2018-10-28T08:57:51Z</time>
      </trkpt>
      <trkpt lat="45.92467" lon="4.73677">
        <ele>174</ele>
        <time>2018-10-28T08:57:52Z</time>
      </trkpt>
      <trkpt lat="45.92467" lon="4.73668">
        <ele>174</ele>
        <time>2018-10-28T08:57:54Z</time>
      </trkpt>
      <trkpt lat="45.92468" lon="4.73663">
        <ele>174</ele>
        <time>2018-10-28T08:57:55Z</time>
      </trkpt>
      <trkpt lat="45.92469" lon="4.73655">
        <ele>174</ele>
        <time>2018-10-28T08:57:56Z</time>
      </trkpt>
      <trkpt lat="45.9247" lon="4.73649">
        <ele>174</ele>
        <time>2018-10-28T08:57:57Z</time>
      </trkpt>
      <trkpt lat="45.9247" lon="4.73643">
        <ele>174</ele>
        <time>2018-10-28T08:57:58Z</time>
      </trkpt>
      <trkpt lat="45.92471" lon="4.73635">
        <ele>174</ele>
        <time>2018-10-28T08:57:59Z</time>
      </trkpt>
      <trkpt lat="45.92471" lon="4.73629">
        <ele>174</ele>
        <time>2018-10-28T08:58:00Z</time>
      </trkpt>
      <trkpt lat="45.92471" lon="4.73622">
        <ele>174</ele>
        <time>2018-10-28T08:58:01Z</time>
      </trkpt>
      <trkpt lat="45.92471" lon="4.7361">
        <ele>174</ele>
        <time>2018-10-28T08:58:03Z</time>
      </trkpt>
      <trkpt lat="45.92471" lon="4.73604">
        <ele>174</ele>
        <time>2018-10-28T08:58:04Z</time>
      </trkpt>
      <trkpt lat="45.92471" lon="4.73593">
        <ele>174</ele>
        <time>2018-10-28T08:58:06Z</time>
      </trkpt>
      <trkpt lat="45.92471" lon="4.73586">
        <ele>174</ele>
        <time>2018-10-28T08:58:07Z</time>
      </trkpt>
      <trkpt lat="45.9247" lon="4.73574">
        <ele>173</ele>
        <time>2018-10-28T08:58:09Z</time>
      </trkpt>
      <trkpt lat="45.9247" lon="4.73568">
        <ele>173</ele>
        <time>2018-10-28T08:58:10Z</time>
      </trkpt>
      <trkpt lat="45.92469" lon="4.73556">
        <ele>173</ele>
        <time>2018-10-28T08:58:13Z</time>
      </trkpt>
      <trkpt lat="45.92468" lon="4.73552">
        <ele>173</ele>
        <time>2018-10-28T08:58:14Z</time>
      </trkpt>
      <trkpt lat="45.92465" lon="4.73546">
        <ele>173</ele>
        <time>2018-10-28T08:58:16Z</time>
      </trkpt>
      <trkpt lat="45.92458" lon="4.73541">
        <ele>173</ele>
        <time>2018-10-28T08:58:17Z</time>
      </trkpt>
      <trkpt lat="45.92454" lon="4.73541">
        <ele>173</ele>
        <time>2018-10-28T08:58:18Z</time>
      </trkpt>
      <trkpt lat="45.92449" lon="4.73542">
        <ele>174</ele>
        <time>2018-10-28T08:58:19Z</time>
      </trkpt>
      <trkpt lat="45.92442" lon="4.73548">
        <ele>174</ele>
        <time>2018-10-28T08:58:20Z</time>
      </trkpt>
      <trkpt lat="45.92439" lon="4.7355">
        <ele>174</ele>
        <time>2018-10-28T08:58:21Z</time>
      </trkpt>
      <trkpt lat="45.92434" lon="4.73552">
        <ele>174</ele>
        <time>2018-10-28T08:58:22Z</time>
      </trkpt>
      <trkpt lat="45.92429" lon="4.73555">
        <ele>174</ele>
        <time>2018-10-28T08:58:23Z</time>
      </trkpt>
      <trkpt lat="45.92425" lon="4.73557">
        <ele>174</ele>
        <time>2018-10-28T08:58:24Z</time>
      </trkpt>
      <trkpt lat="45.9242" lon="4.73559">
        <ele>174</ele>
        <time>2018-10-28T08:58:25Z</time>
      </trkpt>
      <trkpt lat="45.92416" lon="4.73561">
        <ele>173</ele>
        <time>2018-10-28T08:58:26Z</time>
      </trkpt>
      <trkpt lat="45.92411" lon="4.73564">
        <ele>173</ele>
        <time>2018-10-28T08:58:27Z</time>
      </trkpt>
      <trkpt lat="45.92403" lon="4.73569">
        <ele>173</ele>
        <time>2018-10-28T08:58:29Z</time>
      </trkpt>
      <trkpt lat="45.92399" lon="4.73572">
        <ele>173</ele>
        <time>2018-10-28T08:58:30Z</time>
      </trkpt>
      <trkpt lat="45.92394" lon="4.73575">
        <ele>173</ele>
        <time>2018-10-28T08:58:31Z</time>
      </trkpt>
      <trkpt lat="45.92389" lon="4.73576">
        <ele>173</ele>
        <time>2018-10-28T08:58:32Z</time>
      </trkpt>
      <trkpt lat="45.92384" lon="4.73579">
        <ele>173</ele>
        <time>2018-10-28T08:58:33Z</time>
      </trkpt>
      <trkpt lat="45.9238" lon="4.73582">
        <ele>173</ele>
        <time>2018-10-28T08:58:34Z</time>
      </trkpt>
      <trkpt lat="45.92376" lon="4.73583">
        <ele>173</ele>
        <time>2018-10-28T08:58:35Z</time>
      </trkpt>
      <trkpt lat="45.92371" lon="4.73586">
        <ele>173</ele>
        <time>2018-10-28T08:58:36Z</time>
      </trkpt>
      <trkpt lat="45.92366" lon="4.73589">
        <ele>173</ele>
        <time>2018-10-28T08:58:37Z</time>
      </trkpt>
      <trkpt lat="45.92361" lon="4.73592">
        <ele>173</ele>
        <time>2018-10-28T08:58:38Z</time>
      </trkpt>
      <trkpt lat="45.92357" lon="4.73595">
        <ele>173</ele>
        <time>2018-10-28T08:58:39Z</time>
      </trkpt>
      <trkpt lat="45.92351" lon="4.73597">
        <ele>173</ele>
        <time>2018-10-28T08:58:40Z</time>
      </trkpt>
      <trkpt lat="45.92343" lon="4.736">
        <ele>173</ele>
        <time>2018-10-28T08:58:42Z</time>
      </trkpt>
      <trkpt lat="45.92339" lon="4.73602">
        <ele>173</ele>
        <time>2018-10-28T08:58:43Z</time>
      </trkpt>
      <trkpt lat="45.92334" lon="4.73604">
        <ele>173</ele>
        <time>2018-10-28T08:58:44Z</time>
      </trkpt>
      <trkpt lat="45.9233" lon="4.73607">
        <ele>172</ele>
        <time>2018-10-28T08:58:45Z</time>
      </trkpt>
      <trkpt lat="45.92325" lon="4.7361">
        <ele>172</ele>
        <time>2018-10-28T08:58:46Z</time>
      </trkpt>
      <trkpt lat="45.9232" lon="4.73612">
        <ele>172</ele>
        <time>2018-10-28T08:58:47Z</time>
      </trkpt>
      <trkpt lat="45.92315" lon="4.73615">
        <ele>172</ele>
        <time>2018-10-28T08:58:48Z</time>
      </trkpt>
      <trkpt lat="45.92309" lon="4.73618">
        <ele>172</ele>
        <time>2018-10-28T08:58:49Z</time>
      </trkpt>
      <trkpt lat="45.92304" lon="4.73622">
        <ele>172</ele>
        <time>2018-10-28T08:58:50Z</time>
      </trkpt>
      <trkpt lat="45.92298" lon="4.73625">
        <ele>172</ele>
        <time>2018-10-28T08:58:51Z</time>
      </trkpt>
      <trkpt lat="45.92293" lon="4.73628">
        <ele>172</ele>
        <time>2018-10-28T08:58:52Z</time>
      </trkpt>
      <trkpt lat="45.92287" lon="4.73631">
        <ele>172</ele>
        <time>2018-10-28T08:58:53Z</time>
      </trkpt>
      <trkpt lat="45.92282" lon="4.73634">
        <ele>172</ele>
        <time>2018-10-28T08:58:54Z</time>
      </trkpt>
      <trkpt lat="45.92276" lon="4.73637">
        <ele>172</ele>
        <time>2018-10-28T08:58:55Z</time>
      </trkpt>
      <trkpt lat="45.92271" lon="4.73641">
        <ele>172</ele>
        <time>2018-10-28T08:58:56Z</time>
      </trkpt>
      <trkpt lat="45.92265" lon="4.73644">
        <ele>172</ele>
        <time>2018-10-28T08:58:57Z</time>
      </trkpt>
      <trkpt lat="45.9226" lon="4.73647">
        <ele>171</ele>
        <time>2018-10-28T08:58:58Z</time>
      </trkpt>
      <trkpt lat="45.92254" lon="4.7365">
        <ele>171</ele>
        <time>2018-10-28T08:58:59Z</time>
      </trkpt>
      <trkpt lat="45.92249" lon="4.73653">
        <ele>171</ele>
        <time>2018-10-28T08:59:00Z</time>
      </trkpt>
      <trkpt lat="45.92245" lon="4.73656">
        <ele>171</ele>
        <time>2018-10-28T08:59:01Z</time>
      </trkpt>
      <trkpt lat="45.9224" lon="4.7366">
        <ele>171</ele>
        <time>2018-10-28T08:59:02Z</time>
      </trkpt>
      <trkpt lat="45.92235" lon="4.73663">
        <ele>171</ele>
        <time>2018-10-28T08:59:03Z</time>
      </trkpt>
      <trkpt lat="45.9223" lon="4.73667">
        <ele>171</ele>
        <time>2018-10-28T08:59:04Z</time>
      </trkpt>
      <trkpt lat="45.92224" lon="4.73671">
        <ele>171</ele>
        <time>2018-10-28T08:59:05Z</time>
      </trkpt>
      <trkpt lat="45.92218" lon="4.73674">
        <ele>171</ele>
        <time>2018-10-28T08:59:06Z</time>
      </trkpt>
      <trkpt lat="45.92212" lon="4.73677">
        <ele>171</ele>
        <time>2018-10-28T08:59:07Z</time>
      </trkpt>
      <trkpt lat="45.92206" lon="4.7368">
        <ele>171</ele>
        <time>2018-10-28T08:59:08Z</time>
      </trkpt>
      <trkpt lat="45.922" lon="4.73683">
        <ele>171</ele>
        <time>2018-10-28T08:59:09Z</time>
      </trkpt>
      <trkpt lat="45.92193" lon="4.73686">
        <ele>171</ele>
        <time>2018-10-28T08:59:10Z</time>
      </trkpt>
      <trkpt lat="45.92187" lon="4.7369">
        <ele>171</ele>
        <time>2018-10-28T08:59:11Z</time>
      </trkpt>
      <trkpt lat="45.92181" lon="4.73693">
        <ele>171</ele>
        <time>2018-10-28T08:59:12Z</time>
      </trkpt>
      <trkpt lat="45.92175" lon="4.73697">
        <ele>171</ele>
        <time>2018-10-28T08:59:13Z</time>
      </trkpt>
      <trkpt lat="45.9217" lon="4.737">
        <ele>171</ele>
        <time>2018-10-28T08:59:14Z</time>
      </trkpt>
      <trkpt lat="45.92162" lon="4.73703">
        <ele>171</ele>
        <time>2018-10-28T08:59:15Z</time>
      </trkpt>
      <trkpt lat="45.92157" lon="4.73706">
        <ele>171</ele>
        <time>2018-10-28T08:59:16Z</time>
      </trkpt>
      <trkpt lat="45.9215" lon="4.73709">
        <ele>171</ele>
        <time>2018-10-28T08:59:17Z</time>
      </trkpt>
      <trkpt lat="45.92143" lon="4.73712">
        <ele>171</ele>
        <time>2018-10-28T08:59:18Z</time>
      </trkpt>
      <trkpt lat="45.92136" lon="4.73715">
        <ele>171</ele>
        <time>2018-10-28T08:59:19Z</time>
      </trkpt>
      <trkpt lat="45.92129" lon="4.73717">
        <ele>171</ele>
        <time>2018-10-28T08:59:20Z</time>
      </trkpt>
      <trkpt lat="45.92123" lon="4.7372">
        <ele>171</ele>
        <time>2018-10-28T08:59:21Z</time>
      </trkpt>
      <trkpt lat="45.92116" lon="4.73722">
        <ele>171</ele>
        <time>2018-10-28T08:59:22Z</time>
      </trkpt>
      <trkpt lat="45.9211" lon="4.73723">
        <ele>171</ele>
        <time>2018-10-28T08:59:23Z</time>
      </trkpt>
      <trkpt lat="45.92104" lon="4.73725">
        <ele>171</ele>
        <time>2018-10-28T08:59:24Z</time>
      </trkpt>
      <trkpt lat="45.92097" lon="4.73727">
        <ele>171</ele>
        <time>2018-10-28T08:59:25Z</time>
      </trkpt>
      <trkpt lat="45.92091" lon="4.73729">
        <ele>171</ele>
        <time>2018-10-28T08:59:26Z</time>
      </trkpt>
      <trkpt lat="45.92084" lon="4.73729">
        <ele>171</ele>
        <time>2018-10-28T08:59:27Z</time>
      </trkpt>
      <trkpt lat="45.92078" lon="4.73729">
        <ele>171</ele>
        <time>2018-10-28T08:59:28Z</time>
      </trkpt>
      <trkpt lat="45.92072" lon="4.73729">
        <ele>171</ele>
        <time>2018-10-28T08:59:29Z</time>
      </trkpt>
      <trkpt lat="45.92065" lon="4.73729">
        <ele>171</ele>
        <time>2018-10-28T08:59:30Z</time>
      </trkpt>
      <trkpt lat="45.92058" lon="4.73729">
        <ele>171</ele>
        <time>2018-10-28T08:59:31Z</time>
      </trkpt>
      <trkpt lat="45.92052" lon="4.73729">
        <ele>171</ele>
        <time>2018-10-28T08:59:32Z</time>
      </trkpt>
      <trkpt lat="45.92045" lon="4.73728">
        <ele>171</ele>
        <time>2018-10-28T08:59:33Z</time>
      </trkpt>
      <trkpt lat="45.92038" lon="4.73729">
        <ele>171</ele>
        <time>2018-10-28T08:59:34Z</time>
      </trkpt>
      <trkpt lat="45.92032" lon="4.73729">
        <ele>171</ele>
        <time>2018-10-28T08:59:35Z</time>
      </trkpt>
      <trkpt lat="45.92025" lon="4.73728">
        <ele>171</ele>
        <time>2018-10-28T08:59:36Z</time>
      </trkpt>
      <trkpt lat="45.92017" lon="4.73728">
        <ele>171</ele>
        <time>2018-10-28T08:59:37Z</time>
      </trkpt>
      <trkpt lat="45.9201" lon="4.73729">
        <ele>171</ele>
        <time>2018-10-28T08:59:38Z</time>
      </trkpt>
      <trkpt lat="45.92003" lon="4.73728">
        <ele>171</ele>
        <time>2018-10-28T08:59:39Z</time>
      </trkpt>
      <trkpt lat="45.91997" lon="4.73729">
        <ele>171</ele>
        <time>2018-10-28T08:59:40Z</time>
      </trkpt>
      <trkpt lat="45.9199" lon="4.73728">
        <ele>171</ele>
        <time>2018-10-28T08:59:41Z</time>
      </trkpt>
      <trkpt lat="45.91984" lon="4.73727">
        <ele>171</ele>
        <time>2018-10-28T08:59:42Z</time>
      </trkpt>
      <trkpt lat="45.91978" lon="4.73728">
        <ele>171</ele>
        <time>2018-10-28T08:59:43Z</time>
      </trkpt>
      <trkpt lat="45.91971" lon="4.73728">
        <ele>171</ele>
        <time>2018-10-28T08:59:44Z</time>
      </trkpt>
      <trkpt lat="45.91965" lon="4.73728">
        <ele>171</ele>
        <time>2018-10-28T08:59:45Z</time>
      </trkpt>
      <trkpt lat="45.91958" lon="4.73728">
        <ele>170</ele>
        <time>2018-10-28T08:59:46Z</time>
      </trkpt>
      <trkpt lat="45.91951" lon="4.73728">
        <ele>170</ele>
        <time>2018-10-28T08:59:47Z</time>
      </trkpt>
      <trkpt lat="45.91944" lon="4.73728">
        <ele>170</ele>
        <time>2018-10-28T08:59:48Z</time>
      </trkpt>
      <trkpt lat="45.91938" lon="4.73728">
        <ele>170</ele>
        <time>2018-10-28T08:59:49Z</time>
      </trkpt>
      <trkpt lat="45.9193" lon="4.73729">
        <ele>170</ele>
        <time>2018-10-28T08:59:50Z</time>
      </trkpt>
      <trkpt lat="45.91923" lon="4.73729">
        <ele>170</ele>
        <time>2018-10-28T08:59:51Z</time>
      </trkpt>
      <trkpt lat="45.91916" lon="4.73728">
        <ele>171</ele>
        <time>2018-10-28T08:59:52Z</time>
      </trkpt>
      <trkpt lat="45.91909" lon="4.73728">
        <ele>171</ele>
        <time>2018-10-28T08:59:53Z</time>
      </trkpt>
      <trkpt lat="45.91902" lon="4.73727">
        <ele>171</ele>
        <time>2018-10-28T08:59:54Z</time>
      </trkpt>
      <trkpt lat="45.91894" lon="4.73728">
        <ele>171</ele>
        <time>2018-10-28T08:59:55Z</time>
      </trkpt>
      <trkpt lat="45.91887" lon="4.73728">
        <ele>171</ele>
        <time>2018-10-28T08:59:56Z</time>
      </trkpt>
      <trkpt lat="45.9188" lon="4.73729">
        <ele>171</ele>
        <time>2018-10-28T08:59:57Z</time>
      </trkpt>
      <trkpt lat="45.91873" lon="4.73729">
        <ele>171</ele>
        <time>2018-10-28T08:59:58Z</time>
      </trkpt>
      <trkpt lat="45.91866" lon="4.73729">
        <ele>171</ele>
        <time>2018-10-28T08:59:59Z</time>
      </trkpt>
      <trkpt lat="45.91859" lon="4.7373">
        <ele>171</ele>
        <time>2018-10-28T09:00:00Z</time>
      </trkpt>
      <trkpt lat="45.91852" lon="4.7373">
        <ele>171</ele>
        <time>2018-10-28T09:00:01Z</time>
      </trkpt>
      <trkpt lat="45.91845" lon="4.7373">
        <ele>172</ele>
        <time>2018-10-28T09:00:02Z</time>
      </trkpt>
      <trkpt lat="45.91839" lon="4.7373">
        <ele>172</ele>
        <time>2018-10-28T09:00:03Z</time>
      </trkpt>
      <trkpt lat="45.91833" lon="4.73729">
        <ele>172</ele>
        <time>2018-10-28T09:00:04Z</time>
      </trkpt>
      <trkpt lat="45.91825" lon="4.73728">
        <ele>172</ele>
        <time>2018-10-28T09:00:05Z</time>
      </trkpt>
      <trkpt lat="45.91819" lon="4.73729">
        <ele>172</ele>
        <time>2018-10-28T09:00:06Z</time>
      </trkpt>
      <trkpt lat="45.91813" lon="4.73729">
        <ele>172</ele>
        <time>2018-10-28T09:00:07Z</time>
      </trkpt>
      <trkpt lat="45.91807" lon="4.7373">
        <ele>172</ele>
        <time>2018-10-28T09:00:08Z</time>
      </trkpt>
      <trkpt lat="45.91801" lon="4.73731">
        <ele>172</ele>
        <time>2018-10-28T09:00:09Z</time>
      </trkpt>
      <trkpt lat="45.91794" lon="4.73731">
        <ele>172</ele>
        <time>2018-10-28T09:00:10Z</time>
      </trkpt>
      <trkpt lat="45.91787" lon="4.73731">
        <ele>173</ele>
        <time>2018-10-28T09:00:11Z</time>
      </trkpt>
      <trkpt lat="45.9178" lon="4.73732">
        <ele>173</ele>
        <time>2018-10-28T09:00:12Z</time>
      </trkpt>
      <trkpt lat="45.91773" lon="4.73732">
        <ele>173</ele>
        <time>2018-10-28T09:00:13Z</time>
      </trkpt>
      <trkpt lat="45.91765" lon="4.73731">
        <ele>173</ele>
        <time>2018-10-28T09:00:14Z</time>
      </trkpt>
      <trkpt lat="45.91759" lon="4.73731">
        <ele>173</ele>
        <time>2018-10-28T09:00:15Z</time>
      </trkpt>
      <trkpt lat="45.91752" lon="4.73732">
        <ele>173</ele>
        <time>2018-10-28T09:00:16Z</time>
      </trkpt>
      <trkpt lat="45.91745" lon="4.73733">
        <ele>173</ele>
        <time>2018-10-28T09:00:17Z</time>
      </trkpt>
      <trkpt lat="45.91738" lon="4.73732">
        <ele>173</ele>
        <time>2018-10-28T09:00:18Z</time>
      </trkpt>
      <trkpt lat="45.91731" lon="4.73732">
        <ele>173</ele>
        <time>2018-10-28T09:00:19Z</time>
      </trkpt>
      <trkpt lat="45.91723" lon="4.73732">
        <ele>173</ele>
        <time>2018-10-28T09:00:20Z</time>
      </trkpt>
      <trkpt lat="45.91718" lon="4.73733">
        <ele>173</ele>
        <time>2018-10-28T09:00:21Z</time>
      </trkpt>
      <trkpt lat="45.91711" lon="4.73733">
        <ele>173</ele>
        <time>2018-10-28T09:00:22Z</time>
      </trkpt>
      <trkpt lat="45.91704" lon="4.73732">
        <ele>172</ele>
        <time>2018-10-28T09:00:23Z</time>
      </trkpt>
      <trkpt lat="45.91697" lon="4.73733">
        <ele>172</ele>
        <time>2018-10-28T09:00:24Z</time>
      </trkpt>
      <trkpt lat="45.91691" lon="4.73734">
        <ele>172</ele>
        <time>2018-10-28T09:00:25Z</time>
      </trkpt>
      <trkpt lat="45.91685" lon="4.73733">
        <ele>172</ele>
        <time>2018-10-28T09:00:26Z</time>
      </trkpt>
      <trkpt lat="45.91678" lon="4.73733">
        <ele>172</ele>
        <time>2018-10-28T09:00:27Z</time>
      </trkpt>
      <trkpt lat="45.91672" lon="4.73734">
        <ele>172</ele>
        <time>2018-10-28T09:00:28Z</time>
      </trkpt>
      <trkpt lat="45.91666" lon="4.73735">
        <ele>172</ele>
        <time>2018-10-28T09:00:29Z</time>
      </trkpt>
      <trkpt lat="45.9166" lon="4.73735">
        <ele>172</ele>
        <time>2018-10-28T09:00:30Z</time>
      </trkpt>
      <trkpt lat="45.91654" lon="4.73734">
        <ele>172</ele>
        <time>2018-10-28T09:00:31Z</time>
      </trkpt>
      <trkpt lat="45.91647" lon="4.73734">
        <ele>172</ele>
        <time>2018-10-28T09:00:32Z</time>
      </trkpt>
      <trkpt lat="45.91641" lon="4.73734">
        <ele>172</ele>
        <time>2018-10-28T09:00:33Z</time>
      </trkpt>
      <trkpt lat="45.91634" lon="4.73734">
        <ele>172</ele>
        <time>2018-10-28T09:00:34Z</time>
      </trkpt>
      <trkpt lat="45.91628" lon="4.73733">
        <ele>172</ele>
        <time>2018-10-28T09:00:35Z</time>
      </trkpt>
      <trkpt lat="45.91622" lon="4.73733">
        <ele>173</ele>
        <time>2018-10-28T09:00:36Z</time>
      </trkpt>
      <trkpt lat="45.91615" lon="4.73733">
        <ele>173</ele>
        <time>2018-10-28T09:00:37Z</time>
      </trkpt>
      <trkpt lat="45.91609" lon="4.73734">
        <ele>173</ele>
        <time>2018-10-28T09:00:38Z</time>
      </trkpt>
      <trkpt lat="45.91602" lon="4.73734">
        <ele>173</ele>
        <time>2018-10-28T09:00:39Z</time>
      </trkpt>
      <trkpt lat="45.91596" lon="4.73734">
        <ele>173</ele>
        <time>2018-10-28T09:00:40Z</time>
      </trkpt>
      <trkpt lat="45.91589" lon="4.73735">
        <ele>173</ele>
        <time>2018-10-28T09:00:41Z</time>
      </trkpt>
      <trkpt lat="45.91583" lon="4.73734">
        <ele>173</ele>
        <time>2018-10-28T09:00:42Z</time>
      </trkpt>
      <trkpt lat="45.91576" lon="4.73734">
        <ele>173</ele>
        <time>2018-10-28T09:00:43Z</time>
      </trkpt>
      <trkpt lat="45.91569" lon="4.73734">
        <ele>173</ele>
        <time>2018-10-28T09:00:44Z</time>
      </trkpt>
      <trkpt lat="45.91563" lon="4.73736">
        <ele>173</ele>
        <time>2018-10-28T09:00:45Z</time>
      </trkpt>
      <trkpt lat="45.91557" lon="4.73735">
        <ele>174</ele>
        <time>2018-10-28T09:00:46Z</time>
      </trkpt>
      <trkpt lat="45.9155" lon="4.73736">
        <ele>174</ele>
        <time>2018-10-28T09:00:47Z</time>
      </trkpt>
      <trkpt lat="45.91544" lon="4.73735">
        <ele>174</ele>
        <time>2018-10-28T09:00:48Z</time>
      </trkpt>
      <trkpt lat="45.91538" lon="4.73736">
        <ele>174</ele>
        <time>2018-10-28T09:00:49Z</time>
      </trkpt>
      <trkpt lat="45.91531" lon="4.73736">
        <ele>174</ele>
        <time>2018-10-28T09:00:50Z</time>
      </trkpt>
      <trkpt lat="45.91524" lon="4.73736">
        <ele>174</ele>
        <time>2018-10-28T09:00:51Z</time>
      </trkpt>
      <trkpt lat="45.91518" lon="4.73736">
        <ele>174</ele>
        <time>2018-10-28T09:00:52Z</time>
      </trkpt>
      <trkpt lat="45.91511" lon="4.73735">
        <ele>174</ele>
        <time>2018-10-28T09:00:53Z</time>
      </trkpt>
      <trkpt lat="45.91503" lon="4.73736">
        <ele>174</ele>
        <time>2018-10-28T09:00:54Z</time>
      </trkpt>
      <trkpt lat="45.91496" lon="4.73735">
        <ele>174</ele>
        <time>2018-10-28T09:00:55Z</time>
      </trkpt>
      <trkpt lat="45.9149" lon="4.73735">
        <ele>174</ele>
        <time>2018-10-28T09:00:56Z</time>
      </trkpt>
      <trkpt lat="45.91483" lon="4.73736">
        <ele>174</ele>
        <time>2018-10-28T09:00:57Z</time>
      </trkpt>
      <trkpt lat="45.91477" lon="4.73736">
        <ele>174</ele>
        <time>2018-10-28T09:00:58Z</time>
      </trkpt>
      <trkpt lat="45.9147" lon="4.73736">
        <ele>174</ele>
        <time>2018-10-28T09:00:59Z</time>
      </trkpt>
      <trkpt lat="45.91463" lon="4.73737">
        <ele>174</ele>
        <time>2018-10-28T09:01:00Z</time>
      </trkpt>
      <trkpt lat="45.91457" lon="4.73737">
        <ele>173</ele>
        <time>2018-10-28T09:01:01Z</time>
      </trkpt>
      <trkpt lat="45.9145" lon="4.73738">
        <ele>173</ele>
        <time>2018-10-28T09:01:02Z</time>
      </trkpt>
      <trkpt lat="45.91444" lon="4.73738">
        <ele>173</ele>
        <time>2018-10-28T09:01:03Z</time>
      </trkpt>
      <trkpt lat="45.91436" lon="4.73738">
        <ele>173</ele>
        <time>2018-10-28T09:01:04Z</time>
      </trkpt>
      <trkpt lat="45.9143" lon="4.73739">
        <ele>173</ele>
        <time>2018-10-28T09:01:05Z</time>
      </trkpt>
      <trkpt lat="45.91423" lon="4.7374">
        <ele>173</ele>
        <time>2018-10-28T09:01:06Z</time>
      </trkpt>
      <trkpt lat="45.91416" lon="4.73738">
        <ele>172</ele>
        <time>2018-10-28T09:01:07Z</time>
      </trkpt>
      <trkpt lat="45.91409" lon="4.73738">
        <ele>173</ele>
        <time>2018-10-28T09:01:08Z</time>
      </trkpt>
      <trkpt lat="45.91403" lon="4.73738">
        <ele>173</ele>
        <time>2018-10-28T09:01:09Z</time>
      </trkpt>
      <trkpt lat="45.91396" lon="4.73738">
        <ele>173</ele>
        <time>2018-10-28T09:01:10Z</time>
      </trkpt>
      <trkpt lat="45.91388" lon="4.73738">
        <ele>173</ele>
        <time>2018-10-28T09:01:11Z</time>
      </trkpt>
      <trkpt lat="45.91381" lon="4.73737">
        <ele>173</ele>
        <time>2018-10-28T09:01:12Z</time>
      </trkpt>
      <trkpt lat="45.91374" lon="4.73738">
        <ele>173</ele>
        <time>2018-10-28T09:01:13Z</time>
      </trkpt>
      <trkpt lat="45.91368" lon="4.73738">
        <ele>173</ele>
        <time>2018-10-28T09:01:14Z</time>
      </trkpt>
      <trkpt lat="45.91361" lon="4.73738">
        <ele>173</ele>
        <time>2018-10-28T09:01:15Z</time>
      </trkpt>
      <trkpt lat="45.91355" lon="4.73738">
        <ele>173</ele>
        <time>2018-10-28T09:01:16Z</time>
      </trkpt>
      <trkpt lat="45.91349" lon="4.73739">
        <ele>173</ele>
        <time>2018-10-28T09:01:17Z</time>
      </trkpt>
      <trkpt lat="45.91343" lon="4.73739">
        <ele>173</ele>
        <time>2018-10-28T09:01:18Z</time>
      </trkpt>
      <trkpt lat="45.91338" lon="4.73739">
        <ele>173</ele>
        <time>2018-10-28T09:01:19Z</time>
      </trkpt>
      <trkpt lat="45.91332" lon="4.7374">
        <ele>173</ele>
        <time>2018-10-28T09:01:20Z</time>
      </trkpt>
      <trkpt lat="45.91326" lon="4.7374">
        <ele>173</ele>
        <time>2018-10-28T09:01:21Z</time>
      </trkpt>
      <trkpt lat="45.9132" lon="4.7374">
        <ele>174</ele>
        <time>2018-10-28T09:01:22Z</time>
      </trkpt>
      <trkpt lat="45.91314" lon="4.7374">
        <ele>174</ele>
        <time>2018-10-28T09:01:23Z</time>
      </trkpt>
      <trkpt lat="45.91307" lon="4.73741">
        <ele>174</ele>
        <time>2018-10-28T09:01:24Z</time>
      </trkpt>
      <trkpt lat="45.91301" lon="4.73741">
        <ele>174</ele>
        <time>2018-10-28T09:01:25Z</time>
      </trkpt>
      <trkpt lat="45.91294" lon="4.73742">
        <ele>174</ele>
        <time>2018-10-28T09:01:26Z</time>
      </trkpt>
      <trkpt lat="45.91287" lon="4.73742">
        <ele>174</ele>
        <time>2018-10-28T09:01:27Z</time>
      </trkpt>
      <trkpt lat="45.91281" lon="4.73742">
        <ele>174</ele>
        <time>2018-10-28T09:01:28Z</time>
      </trkpt>
      <trkpt lat="45.91274" lon="4.73741">
        <ele>174</ele>
        <time>2018-10-28T09:01:29Z</time>
      </trkpt>
      <trkpt lat="45.91267" lon="4.7374">
        <ele>174</ele>
        <time>2018-10-28T09:01:30Z</time>
      </trkpt>
      <trkpt lat="45.9126" lon="4.7374">
        <ele>175</ele>
        <time>2018-10-28T09:01:31Z</time>
      </trkpt>
      <trkpt lat="45.91253" lon="4.7374">
        <ele>175</ele>
        <time>2018-10-28T09:01:32Z</time>
      </trkpt>
      <trkpt lat="45.91247" lon="4.7374">
        <ele>175</ele>
        <time>2018-10-28T09:01:33Z</time>
      </trkpt>
      <trkpt lat="45.91239" lon="4.7374">
        <ele>175</ele>
        <time>2018-10-28T09:01:34Z</time>
      </trkpt>
      <trkpt lat="45.91232" lon="4.73739">
        <ele>175</ele>
        <time>2018-10-28T09:01:35Z</time>
      </trkpt>
      <trkpt lat="45.91226" lon="4.73739">
        <ele>175</ele>
        <time>2018-10-28T09:01:36Z</time>
      </trkpt>
      <trkpt lat="45.91219" lon="4.73739">
        <ele>175</ele>
        <time>2018-10-28T09:01:37Z</time>
      </trkpt>
      <trkpt lat="45.91213" lon="4.73739">
        <ele>175</ele>
        <time>2018-10-28T09:01:38Z</time>
      </trkpt>
      <trkpt lat="45.91205" lon="4.73739">
        <ele>175</ele>
        <time>2018-10-28T09:01:39Z</time>
      </trkpt>
      <trkpt lat="45.91199" lon="4.73738">
        <ele>175</ele>
        <time>2018-10-28T09:01:40Z</time>
      </trkpt>
      <trkpt lat="45.91192" lon="4.73736">
        <ele>175</ele>
        <time>2018-10-28T09:01:41Z</time>
      </trkpt>
      <trkpt lat="45.91186" lon="4.73736">
        <ele>175</ele>
        <time>2018-10-28T09:01:42Z</time>
      </trkpt>
      <trkpt lat="45.9118" lon="4.73734">
        <ele>175</ele>
        <time>2018-10-28T09:01:43Z</time>
      </trkpt>
      <trkpt lat="45.91175" lon="4.73734">
        <ele>175</ele>
        <time>2018-10-28T09:01:44Z</time>
      </trkpt>
      <trkpt lat="45.9117" lon="4.73732">
        <ele>175</ele>
        <time>2018-10-28T09:01:45Z</time>
      </trkpt>
      <trkpt lat="45.91165" lon="4.7373">
        <ele>175</ele>
        <time>2018-10-28T09:01:46Z</time>
      </trkpt>
      <trkpt lat="45.91159" lon="4.73729">
        <ele>175</ele>
        <time>2018-10-28T09:01:47Z</time>
      </trkpt>
      <trkpt lat="45.91154" lon="4.73727">
        <ele>175</ele>
        <time>2018-10-28T09:01:48Z</time>
      </trkpt>
      <trkpt lat="45.9115" lon="4.73723">
        <ele>175</ele>
        <time>2018-10-28T09:01:49Z</time>
      </trkpt>
      <trkpt lat="45.91148" lon="4.73718">
        <ele>174</ele>
        <time>2018-10-28T09:01:50Z</time>
      </trkpt>
      <trkpt lat="45.91145" lon="4.73712">
        <ele>174</ele>
        <time>2018-10-28T09:01:51Z</time>
      </trkpt>
      <trkpt lat="45.91143" lon="4.73705">
        <ele>174</ele>
        <time>2018-10-28T09:01:52Z</time>
      </trkpt>
      <trkpt lat="45.9114" lon="4.73699">
        <ele>174</ele>
        <time>2018-10-28T09:01:53Z</time>
      </trkpt>
      <trkpt lat="45.91136" lon="4.73692">
        <ele>174</ele>
        <time>2018-10-28T09:01:54Z</time>
      </trkpt>
      <trkpt lat="45.91133" lon="4.73684">
        <ele>174</ele>
        <time>2018-10-28T09:01:55Z</time>
      </trkpt>
      <trkpt lat="45.9113" lon="4.73677">
        <ele>174</ele>
        <time>2018-10-28T09:01:56Z</time>
      </trkpt>
      <trkpt lat="45.91126" lon="4.73671">
        <ele>174</ele>
        <time>2018-10-28T09:01:57Z</time>
      </trkpt>
      <trkpt lat="45.91123" lon="4.73665">
        <ele>174</ele>
        <time>2018-10-28T09:01:58Z</time>
      </trkpt>
      <trkpt lat="45.9112" lon="4.73657">
        <ele>174</ele>
        <time>2018-10-28T09:01:59Z</time>
      </trkpt>
      <trkpt lat="45.91117" lon="4.7365">
        <ele>174</ele>
        <time>2018-10-28T09:02:00Z</time>
      </trkpt>
      <trkpt lat="45.91115" lon="4.73643">
        <ele>174</ele>
        <time>2018-10-28T09:02:01Z</time>
      </trkpt>
      <trkpt lat="45.91112" lon="4.73636">
        <ele>174</ele>
        <time>2018-10-28T09:02:02Z</time>
      </trkpt>
      <trkpt lat="45.91109" lon="4.7363">
        <ele>174</ele>
        <time>2018-10-28T09:02:03Z</time>
      </trkpt>
      <trkpt lat="45.91107" lon="4.73622">
        <ele>174</ele>
        <time>2018-10-28T09:02:04Z</time>
      </trkpt>
      <trkpt lat="45.91104" lon="4.73615">
        <ele>174</ele>
        <time>2018-10-28T09:02:05Z</time>
      </trkpt>
      <trkpt lat="45.91101" lon="4.73608">
        <ele>174</ele>
        <time>2018-10-28T09:02:06Z</time>
      </trkpt>
      <trkpt lat="45.91098" lon="4.73601">
        <ele>174</ele>
        <time>2018-10-28T09:02:07Z</time>
      </trkpt>
      <trkpt lat="45.91095" lon="4.73594">
        <ele>174</ele>
        <time>2018-10-28T09:02:08Z</time>
      </trkpt>
      <trkpt lat="45.91092" lon="4.73587">
        <ele>174</ele>
        <time>2018-10-28T09:02:09Z</time>
      </trkpt>
      <trkpt lat="45.91089" lon="4.73579">
        <ele>174</ele>
        <time>2018-10-28T09:02:10Z</time>
      </trkpt>
      <trkpt lat="45.91086" lon="4.73572">
        <ele>174</ele>
        <time>2018-10-28T09:02:11Z</time>
      </trkpt>
      <trkpt lat="45.91083" lon="4.73564">
        <ele>174</ele>
        <time>2018-10-28T09:02:12Z</time>
      </trkpt>
      <trkpt lat="45.91079" lon="4.73557">
        <ele>174</ele>
        <time>2018-10-28T09:02:13Z</time>
      </trkpt>
      <trkpt lat="45.91076" lon="4.7355">
        <ele>174</ele>
        <time>2018-10-28T09:02:14Z</time>
      </trkpt>
      <trkpt lat="45.91072" lon="4.73543">
        <ele>174</ele>
        <time>2018-10-28T09:02:15Z</time>
      </trkpt>
      <trkpt lat="45.91069" lon="4.73536">
        <ele>175</ele>
        <time>2018-10-28T09:02:16Z</time>
      </trkpt>
      <trkpt lat="45.91066" lon="4.73529">
        <ele>175</ele>
        <time>2018-10-28T09:02:17Z</time>
      </trkpt>
      <trkpt lat="45.91062" lon="4.73522">
        <ele>175</ele>
        <time>2018-10-28T09:02:18Z</time>
      </trkpt>
      <trkpt lat="45.91059" lon="4.73514">
        <ele>175</ele>
        <time>2018-10-28T09:02:19Z</time>
      </trkpt>
      <trkpt lat="45.91056" lon="4.73507">
        <ele>175</ele>
        <time>2018-10-28T09:02:20Z</time>
      </trkpt>
      <trkpt lat="45.91053" lon="4.73499">
        <ele>175</ele>
        <time>2018-10-28T09:02:21Z</time>
      </trkpt>
      <trkpt lat="45.91049" lon="4.73491">
        <ele>175</ele>
        <time>2018-10-28T09:02:22Z</time>
      </trkpt>
      <trkpt lat="45.91046" lon="4.73484">
        <ele>175</ele>
        <time>2018-10-28T09:02:23Z</time>
      </trkpt>
      <trkpt lat="45.91043" lon="4.73478">
        <ele>175</ele>
        <time>2018-10-28T09:02:24Z</time>
      </trkpt>
      <trkpt lat="45.9104" lon="4.73471">
        <ele>175</ele>
        <time>2018-10-28T09:02:25Z</time>
      </trkpt>
      <trkpt lat="45.91038" lon="4.73465">
        <ele>175</ele>
        <time>2018-10-28T09:02:26Z</time>
      </trkpt>
      <trkpt lat="45.91038" lon="4.73457">
        <ele>175</ele>
        <time>2018-10-28T09:02:27Z</time>
      </trkpt>
      <trkpt lat="45.91037" lon="4.73451">
        <ele>175</ele>
        <time>2018-10-28T09:02:28Z</time>
      </trkpt>
      <trkpt lat="45.91038" lon="4.73444">
        <ele>175</ele>
        <time>2018-10-28T09:02:29Z</time>
      </trkpt>
      <trkpt lat="45.91038" lon="4.73437">
        <ele>175</ele>
        <time>2018-10-28T09:02:30Z</time>
      </trkpt>
      <trkpt lat="45.91038" lon="4.73431">
        <ele>175</ele>
        <time>2018-10-28T09:02:31Z</time>
      </trkpt>
      <trkpt lat="45.91034" lon="4.73419">
        <ele>175</ele>
        <time>2018-10-28T09:02:33Z</time>
      </trkpt>
      <trkpt lat="45.91029" lon="4.73414">
        <ele>174</ele>
        <time>2018-10-28T09:02:34Z</time>
      </trkpt>
      <trkpt lat="45.91024" lon="4.73411">
        <ele>174</ele>
        <time>2018-10-28T09:02:35Z</time>
      </trkpt>
      <trkpt lat="45.91018" lon="4.73412">
        <ele>174</ele>
        <time>2018-10-28T09:02:36Z</time>
      </trkpt>
      <trkpt lat="45.91011" lon="4.73414">
        <ele>175</ele>
        <time>2018-10-28T09:02:37Z</time>
      </trkpt>
      <trkpt lat="45.91007" lon="4.73418">
        <ele>175</ele>
        <time>2018-10-28T09:02:38Z</time>
      </trkpt>
      <trkpt lat="45.91002" lon="4.73423">
        <ele>175</ele>
        <time>2018-10-28T09:02:39Z</time>
      </trkpt>
      <trkpt lat="45.90998" lon="4.73428">
        <ele>175</ele>
        <time>2018-10-28T09:02:40Z</time>
      </trkpt>
      <trkpt lat="45.90993" lon="4.73435">
        <ele>175</ele>
        <time>2018-10-28T09:02:41Z</time>
      </trkpt>
      <trkpt lat="45.90987" lon="4.73438">
        <ele>175</ele>
        <time>2018-10-28T09:02:42Z</time>
      </trkpt>
      <trkpt lat="45.90982" lon="4.7344">
        <ele>175</ele>
        <time>2018-10-28T09:02:43Z</time>
      </trkpt>
      <trkpt lat="45.90975" lon="4.73444">
        <ele>175</ele>
        <time>2018-10-28T09:02:44Z</time>
      </trkpt>
      <trkpt lat="45.90969" lon="4.73448">
        <ele>175</ele>
        <time>2018-10-28T09:02:45Z</time>
      </trkpt>
      <trkpt lat="45.90963" lon="4.73452">
        <ele>175</ele>
        <time>2018-10-28T09:02:46Z</time>
      </trkpt>
      <trkpt lat="45.90957" lon="4.73455">
        <ele>175</ele>
        <time>2018-10-28T09:02:47Z</time>
      </trkpt>
      <trkpt lat="45.90951" lon="4.73457">
        <ele>175</ele>
        <time>2018-10-28T09:02:48Z</time>
      </trkpt>
      <trkpt lat="45.90946" lon="4.7346">
        <ele>175</ele>
        <time>2018-10-28T09:02:49Z</time>
      </trkpt>
      <trkpt lat="45.9094" lon="4.73463">
        <ele>175</ele>
        <time>2018-10-28T09:02:50Z</time>
      </trkpt>
      <trkpt lat="45.90933" lon="4.73465">
        <ele>175</ele>
        <time>2018-10-28T09:02:51Z</time>
      </trkpt>
      <trkpt lat="45.90927" lon="4.73467">
        <ele>175</ele>
        <time>2018-10-28T09:02:52Z</time>
      </trkpt>
      <trkpt lat="45.90921" lon="4.7347">
        <ele>175</ele>
        <time>2018-10-28T09:02:53Z</time>
      </trkpt>
      <trkpt lat="45.90915" lon="4.73472">
        <ele>175</ele>
        <time>2018-10-28T09:02:54Z</time>
      </trkpt>
      <trkpt lat="45.90909" lon="4.73475">
        <ele>175</ele>
        <time>2018-10-28T09:02:55Z</time>
      </trkpt>
      <trkpt lat="45.90903" lon="4.73478">
        <ele>175</ele>
        <time>2018-10-28T09:02:56Z</time>
      </trkpt>
      <trkpt lat="45.90896" lon="4.73481">
        <ele>175</ele>
        <time>2018-10-28T09:02:57Z</time>
      </trkpt>
      <trkpt lat="45.90891" lon="4.73483">
        <ele>175</ele>
        <time>2018-10-28T09:02:58Z</time>
      </trkpt>
      <trkpt lat="45.90885" lon="4.73486">
        <ele>175</ele>
        <time>2018-10-28T09:02:59Z</time>
      </trkpt>
      <trkpt lat="45.90878" lon="4.73489">
        <ele>175</ele>
        <time>2018-10-28T09:03:00Z</time>
      </trkpt>
      <trkpt lat="45.90872" lon="4.73492">
        <ele>175</ele>
        <time>2018-10-28T09:03:01Z</time>
      </trkpt>
      <trkpt lat="45.90866" lon="4.73496">
        <ele>175</ele>
        <time>2018-10-28T09:03:02Z</time>
      </trkpt>
      <trkpt lat="45.9086" lon="4.73498">
        <ele>175</ele>
        <time>2018-10-28T09:03:03Z</time>
      </trkpt>
      <trkpt lat="45.90854" lon="4.73501">
        <ele>174</ele>
        <time>2018-10-28T09:03:04Z</time>
      </trkpt>
      <trkpt lat="45.90848" lon="4.73503">
        <ele>174</ele>
        <time>2018-10-28T09:03:05Z</time>
      </trkpt>
      <trkpt lat="45.90842" lon="4.73507">
        <ele>174</ele>
        <time>2018-10-28T09:03:06Z</time>
      </trkpt>
      <trkpt lat="45.90836" lon="4.73509">
        <ele>174</ele>
        <time>2018-10-28T09:03:07Z</time>
      </trkpt>
      <trkpt lat="45.9083" lon="4.73512">
        <ele>175</ele>
        <time>2018-10-28T09:03:08Z</time>
      </trkpt>
      <trkpt lat="45.90823" lon="4.73514">
        <ele>175</ele>
        <time>2018-10-28T09:03:09Z</time>
      </trkpt>
      <trkpt lat="45.90817" lon="4.73517">
        <ele>175</ele>
        <time>2018-10-28T09:03:10Z</time>
      </trkpt>
      <trkpt lat="45.90811" lon="4.7352">
        <ele>175</ele>
        <time>2018-10-28T09:03:11Z</time>
      </trkpt>
      <trkpt lat="45.90804" lon="4.73524">
        <ele>175</ele>
        <time>2018-10-28T09:03:12Z</time>
      </trkpt>
      <trkpt lat="45.90798" lon="4.73527">
        <ele>175</ele>
        <time>2018-10-28T09:03:13Z</time>
      </trkpt>
      <trkpt lat="45.90792" lon="4.73529">
        <ele>176</ele>
        <time>2018-10-28T09:03:14Z</time>
      </trkpt>
      <trkpt lat="45.90785" lon="4.73531">
        <ele>176</ele>
        <time>2018-10-28T09:03:15Z</time>
      </trkpt>
      <trkpt lat="45.90779" lon="4.73533">
        <ele>176</ele>
        <time>2018-10-28T09:03:16Z</time>
      </trkpt>
      <trkpt lat="45.90773" lon="4.73535">
        <ele>176</ele>
        <time>2018-10-28T09:03:17Z</time>
      </trkpt>
      <trkpt lat="45.90767" lon="4.73539">
        <ele>176</ele>
        <time>2018-10-28T09:03:18Z</time>
      </trkpt>
      <trkpt lat="45.90761" lon="4.73541">
        <ele>176</ele>
        <time>2018-10-28T09:03:19Z</time>
      </trkpt>
      <trkpt lat="45.90755" lon="4.73543">
        <ele>176</ele>
        <time>2018-10-28T09:03:20Z</time>
      </trkpt>
      <trkpt lat="45.9075" lon="4.73545">
        <ele>177</ele>
        <time>2018-10-28T09:03:21Z</time>
      </trkpt>
      <trkpt lat="45.90745" lon="4.73547">
        <ele>178</ele>
        <time>2018-10-28T09:03:22Z</time>
      </trkpt>
      <trkpt lat="45.90739" lon="4.73549">
        <ele>178</ele>
        <time>2018-10-28T09:03:23Z</time>
      </trkpt>
      <trkpt lat="45.90733" lon="4.73551">
        <ele>178</ele>
        <time>2018-10-28T09:03:24Z</time>
      </trkpt>
      <trkpt lat="45.90727" lon="4.73552">
        <ele>178</ele>
        <time>2018-10-28T09:03:25Z</time>
      </trkpt>
      <trkpt lat="45.90722" lon="4.73553">
        <ele>178</ele>
        <time>2018-10-28T09:03:26Z</time>
      </trkpt>
      <trkpt lat="45.90717" lon="4.73555">
        <ele>178</ele>
        <time>2018-10-28T09:03:27Z</time>
      </trkpt>
      <trkpt lat="45.90712" lon="4.73558">
        <ele>178</ele>
        <time>2018-10-28T09:03:28Z</time>
      </trkpt>
      <trkpt lat="45.90707" lon="4.7356">
        <ele>178</ele>
        <time>2018-10-28T09:03:29Z</time>
      </trkpt>
      <trkpt lat="45.90702" lon="4.73563">
        <ele>178</ele>
        <time>2018-10-28T09:03:30Z</time>
      </trkpt>
      <trkpt lat="45.90697" lon="4.73564">
        <ele>178</ele>
        <time>2018-10-28T09:03:31Z</time>
      </trkpt>
      <trkpt lat="45.90691" lon="4.73567">
        <ele>178</ele>
        <time>2018-10-28T09:03:32Z</time>
      </trkpt>
      <trkpt lat="45.90687" lon="4.7357">
        <ele>178</ele>
        <time>2018-10-28T09:03:33Z</time>
      </trkpt>
      <trkpt lat="45.90682" lon="4.73572">
        <ele>179</ele>
        <time>2018-10-28T09:03:34Z</time>
      </trkpt>
      <trkpt lat="45.90673" lon="4.73576">
        <ele>179</ele>
        <time>2018-10-28T09:03:36Z</time>
      </trkpt>
      <trkpt lat="45.90669" lon="4.73578">
        <ele>179</ele>
        <time>2018-10-28T09:03:37Z</time>
      </trkpt>
      <trkpt lat="45.90664" lon="4.73579">
        <ele>180</ele>
        <time>2018-10-28T09:03:38Z</time>
      </trkpt>
      <trkpt lat="45.90659" lon="4.73581">
        <ele>179</ele>
        <time>2018-10-28T09:03:39Z</time>
      </trkpt>
      <trkpt lat="45.90651" lon="4.73585">
        <ele>181</ele>
        <time>2018-10-28T09:03:41Z</time>
      </trkpt>
      <trkpt lat="45.90647" lon="4.73586">
        <ele>181</ele>
        <time>2018-10-28T09:03:42Z</time>
      </trkpt>
      <trkpt lat="45.90639" lon="4.73589">
        <ele>181</ele>
        <time>2018-10-28T09:03:44Z</time>
      </trkpt>
      <trkpt lat="45.90636" lon="4.73591">
        <ele>181</ele>
        <time>2018-10-28T09:03:45Z</time>
      </trkpt>
      <trkpt lat="45.9063" lon="4.73594">
        <ele>181</ele>
        <time>2018-10-28T09:03:46Z</time>
      </trkpt>
      <trkpt lat="45.90626" lon="4.73595">
        <ele>181</ele>
        <time>2018-10-28T09:03:47Z</time>
      </trkpt>
      <trkpt lat="45.90621" lon="4.73597">
        <ele>180</ele>
        <time>2018-10-28T09:03:48Z</time>
      </trkpt>
      <trkpt lat="45.90617" lon="4.73599">
        <ele>180</ele>
        <time>2018-10-28T09:03:49Z</time>
      </trkpt>
      <trkpt lat="45.90613" lon="4.73602">
        <ele>180</ele>
        <time>2018-10-28T09:03:50Z</time>
      </trkpt>
      <trkpt lat="45.90608" lon="4.73604">
        <ele>180</ele>
        <time>2018-10-28T09:03:51Z</time>
      </trkpt>
      <trkpt lat="45.90603" lon="4.73607">
        <ele>180</ele>
        <time>2018-10-28T09:03:52Z</time>
      </trkpt>
      <trkpt lat="45.90599" lon="4.73609">
        <ele>180</ele>
        <time>2018-10-28T09:03:53Z</time>
      </trkpt>
      <trkpt lat="45.90594" lon="4.73611">
        <ele>180</ele>
        <time>2018-10-28T09:03:54Z</time>
      </trkpt>
      <trkpt lat="45.90589" lon="4.73613">
        <ele>180</ele>
        <time>2018-10-28T09:03:55Z</time>
      </trkpt>
      <trkpt lat="45.90584" lon="4.73616">
        <ele>180</ele>
        <time>2018-10-28T09:03:56Z</time>
      </trkpt>
      <trkpt lat="45.90579" lon="4.73617">
        <ele>179</ele>
        <time>2018-10-28T09:03:57Z</time>
      </trkpt>
      <trkpt lat="45.90574" lon="4.73619">
        <ele>179</ele>
        <time>2018-10-28T09:03:58Z</time>
      </trkpt>
      <trkpt lat="45.90569" lon="4.73622">
        <ele>179</ele>
        <time>2018-10-28T09:03:59Z</time>
      </trkpt>
      <trkpt lat="45.90561" lon="4.73626">
        <ele>179</ele>
        <time>2018-10-28T09:04:01Z</time>
      </trkpt>
      <trkpt lat="45.90556" lon="4.73627">
        <ele>178</ele>
        <time>2018-10-28T09:04:02Z</time>
      </trkpt>
      <trkpt lat="45.90548" lon="4.73629">
        <ele>178</ele>
        <time>2018-10-28T09:04:04Z</time>
      </trkpt>
      <trkpt lat="45.90543" lon="4.7363">
        <ele>178</ele>
        <time>2018-10-28T09:04:05Z</time>
      </trkpt>
      <trkpt lat="45.90539" lon="4.73633">
        <ele>178</ele>
        <time>2018-10-28T09:04:06Z</time>
      </trkpt>
      <trkpt lat="45.90534" lon="4.73635">
        <ele>178</ele>
        <time>2018-10-28T09:04:07Z</time>
      </trkpt>
      <trkpt lat="45.90526" lon="4.73639">
        <ele>178</ele>
        <time>2018-10-28T09:04:09Z</time>
      </trkpt>
      <trkpt lat="45.9052" lon="4.73641">
        <ele>178</ele>
        <time>2018-10-28T09:04:10Z</time>
      </trkpt>
      <trkpt lat="45.90514" lon="4.73642">
        <ele>178</ele>
        <time>2018-10-28T09:04:11Z</time>
      </trkpt>
      <trkpt lat="45.90508" lon="4.73645">
        <ele>178</ele>
        <time>2018-10-28T09:04:12Z</time>
      </trkpt>
      <trkpt lat="45.90503" lon="4.73648">
        <ele>178</ele>
        <time>2018-10-28T09:04:13Z</time>
      </trkpt>
      <trkpt lat="45.90497" lon="4.7365">
        <ele>177</ele>
        <time>2018-10-28T09:04:14Z</time>
      </trkpt>
      <trkpt lat="45.90491" lon="4.73653">
        <ele>177</ele>
        <time>2018-10-28T09:04:15Z</time>
      </trkpt>
      <trkpt lat="45.90486" lon="4.73655">
        <ele>177</ele>
        <time>2018-10-28T09:04:16Z</time>
      </trkpt>
      <trkpt lat="45.90481" lon="4.73657">
        <ele>177</ele>
        <time>2018-10-28T09:04:17Z</time>
      </trkpt>
      <trkpt lat="45.90475" lon="4.73659">
        <ele>177</ele>
        <time>2018-10-28T09:04:18Z</time>
      </trkpt>
      <trkpt lat="45.9047" lon="4.73661">
        <ele>177</ele>
        <time>2018-10-28T09:04:19Z</time>
      </trkpt>
      <trkpt lat="45.90464" lon="4.73663">
        <ele>177</ele>
        <time>2018-10-28T09:04:20Z</time>
      </trkpt>
      <trkpt lat="45.90458" lon="4.73665">
        <ele>177</ele>
        <time>2018-10-28T09:04:21Z</time>
      </trkpt>
      <trkpt lat="45.90453" lon="4.73668">
        <ele>176</ele>
        <time>2018-10-28T09:04:22Z</time>
      </trkpt>
      <trkpt lat="45.90448" lon="4.73671">
        <ele>176</ele>
        <time>2018-10-28T09:04:23Z</time>
      </trkpt>
      <trkpt lat="45.90441" lon="4.73674">
        <ele>176</ele>
        <time>2018-10-28T09:04:24Z</time>
      </trkpt>
      <trkpt lat="45.90435" lon="4.73676">
        <ele>176</ele>
        <time>2018-10-28T09:04:25Z</time>
      </trkpt>
      <trkpt lat="45.9043" lon="4.73679">
        <ele>177</ele>
        <time>2018-10-28T09:04:26Z</time>
      </trkpt>
      <trkpt lat="45.90425" lon="4.7368">
        <ele>177</ele>
        <time>2018-10-28T09:04:27Z</time>
      </trkpt>
      <trkpt lat="45.90418" lon="4.73683">
        <ele>177</ele>
        <time>2018-10-28T09:04:28Z</time>
      </trkpt>
      <trkpt lat="45.90413" lon="4.73685">
        <ele>177</ele>
        <time>2018-10-28T09:04:29Z</time>
      </trkpt>
      <trkpt lat="45.90407" lon="4.73688">
        <ele>177</ele>
        <time>2018-10-28T09:04:30Z</time>
      </trkpt>
      <trkpt lat="45.904" lon="4.73691">
        <ele>177</ele>
        <time>2018-10-28T09:04:31Z</time>
      </trkpt>
      <trkpt lat="45.90394" lon="4.73693">
        <ele>177</ele>
        <time>2018-10-28T09:04:32Z</time>
      </trkpt>
      <trkpt lat="45.90387" lon="4.73696">
        <ele>177</ele>
        <time>2018-10-28T09:04:33Z</time>
      </trkpt>
      <trkpt lat="45.9038" lon="4.73699">
        <ele>177</ele>
        <time>2018-10-28T09:04:34Z</time>
      </trkpt>
      <trkpt lat="45.90372" lon="4.73702">
        <ele>177</ele>
        <time>2018-10-28T09:04:35Z</time>
      </trkpt>
      <trkpt lat="45.90366" lon="4.73705">
        <ele>177</ele>
        <time>2018-10-28T09:04:36Z</time>
      </trkpt>
      <trkpt lat="45.90359" lon="4.73708">
        <ele>177</ele>
        <time>2018-10-28T09:04:37Z</time>
      </trkpt>
      <trkpt lat="45.90351" lon="4.73711">
        <ele>177</ele>
        <time>2018-10-28T09:04:38Z</time>
      </trkpt>
      <trkpt lat="45.90342" lon="4.73715">
        <ele>177</ele>
        <time>2018-10-28T09:04:39Z</time>
      </trkpt>
      <trkpt lat="45.90334" lon="4.73718">
        <ele>177</ele>
        <time>2018-10-28T09:04:40Z</time>
      </trkpt>
      <trkpt lat="45.90326" lon="4.73721">
        <ele>177</ele>
        <time>2018-10-28T09:04:41Z</time>
      </trkpt>
      <trkpt lat="45.90318" lon="4.73724">
        <ele>177</ele>
        <time>2018-10-28T09:04:42Z</time>
      </trkpt>
      <trkpt lat="45.9031" lon="4.73728">
        <ele>177</ele>
        <time>2018-10-28T09:04:43Z</time>
      </trkpt>
      <trkpt lat="45.90303" lon="4.73731">
        <ele>177</ele>
        <time>2018-10-28T09:04:44Z</time>
      </trkpt>
      <trkpt lat="45.90296" lon="4.73735">
        <ele>177</ele>
        <time>2018-10-28T09:04:45Z</time>
      </trkpt>
      <trkpt lat="45.90288" lon="4.73738">
        <ele>177</ele>
        <time>2018-10-28T09:04:46Z</time>
      </trkpt>
      <trkpt lat="45.9028" lon="4.73743">
        <ele>177</ele>
        <time>2018-10-28T09:04:47Z</time>
      </trkpt>
      <trkpt lat="45.90272" lon="4.73746">
        <ele>177</ele>
        <time>2018-10-28T09:04:48Z</time>
      </trkpt>
      <trkpt lat="45.90264" lon="4.7375">
        <ele>178</ele>
        <time>2018-10-28T09:04:49Z</time>
      </trkpt>
      <trkpt lat="45.90257" lon="4.73753">
        <ele>178</ele>
        <time>2018-10-28T09:04:50Z</time>
      </trkpt>
      <trkpt lat="45.9025" lon="4.73757">
        <ele>178</ele>
        <time>2018-10-28T09:04:51Z</time>
      </trkpt>
      <trkpt lat="45.90244" lon="4.73759">
        <ele>178</ele>
        <time>2018-10-28T09:04:52Z</time>
      </trkpt>
      <trkpt lat="45.90237" lon="4.73762">
        <ele>177</ele>
        <time>2018-10-28T09:04:53Z</time>
      </trkpt>
      <trkpt lat="45.9023" lon="4.73765">
        <ele>177</ele>
        <time>2018-10-28T09:04:54Z</time>
      </trkpt>
      <trkpt lat="45.90223" lon="4.73768">
        <ele>177</ele>
        <time>2018-10-28T09:04:55Z</time>
      </trkpt>
      <trkpt lat="45.90217" lon="4.73771">
        <ele>177</ele>
        <time>2018-10-28T09:04:56Z</time>
      </trkpt>
      <trkpt lat="45.9021" lon="4.73773">
        <ele>177</ele>
        <time>2018-10-28T09:04:57Z</time>
      </trkpt>
      <trkpt lat="45.90204" lon="4.73775">
        <ele>177</ele>
        <time>2018-10-28T09:04:58Z</time>
      </trkpt>
      <trkpt lat="45.90197" lon="4.73778">
        <ele>177</ele>
        <time>2018-10-28T09:04:59Z</time>
      </trkpt>
      <trkpt lat="45.90191" lon="4.73782">
        <ele>177</ele>
        <time>2018-10-28T09:05:00Z</time>
      </trkpt>
      <trkpt lat="45.90184" lon="4.73785">
        <ele>177</ele>
        <time>2018-10-28T09:05:01Z</time>
      </trkpt>
      <trkpt lat="45.90177" lon="4.73787">
        <ele>177</ele>
        <time>2018-10-28T09:05:02Z</time>
      </trkpt>
      <trkpt lat="45.90171" lon="4.73789">
        <ele>177</ele>
        <time>2018-10-28T09:05:03Z</time>
      </trkpt>
      <trkpt lat="45.90164" lon="4.73792">
        <ele>176</ele>
        <time>2018-10-28T09:05:04Z</time>
      </trkpt>
      <trkpt lat="45.90156" lon="4.73795">
        <ele>177</ele>
        <time>2018-10-28T09:05:05Z</time>
      </trkpt>
      <trkpt lat="45.9015" lon="4.738">
        <ele>177</ele>
        <time>2018-10-28T09:05:06Z</time>
      </trkpt>
      <trkpt lat="45.90143" lon="4.73803">
        <ele>177</ele>
        <time>2018-10-28T09:05:07Z</time>
      </trkpt>
      <trkpt lat="45.90136" lon="4.73806">
        <ele>177</ele>
        <time>2018-10-28T09:05:08Z</time>
      </trkpt>
      <trkpt lat="45.90129" lon="4.73809">
        <ele>177</ele>
        <time>2018-10-28T09:05:09Z</time>
      </trkpt>
      <trkpt lat="45.90122" lon="4.73811">
        <ele>177</ele>
        <time>2018-10-28T09:05:10Z</time>
      </trkpt>
      <trkpt lat="45.90116" lon="4.73814">
        <ele>177</ele>
        <time>2018-10-28T09:05:11Z</time>
      </trkpt>
      <trkpt lat="45.9011" lon="4.73817">
        <ele>177</ele>
        <time>2018-10-28T09:05:12Z</time>
      </trkpt>
      <trkpt lat="45.90104" lon="4.73821">
        <ele>177</ele>
        <time>2018-10-28T09:05:13Z</time>
      </trkpt>
      <trkpt lat="45.90099" lon="4.73824">
        <ele>177</ele>
        <time>2018-10-28T09:05:14Z</time>
      </trkpt>
      <trkpt lat="45.90093" lon="4.73825">
        <ele>178</ele>
        <time>2018-10-28T09:05:15Z</time>
      </trkpt>
      <trkpt lat="45.90087" lon="4.73828">
        <ele>178</ele>
        <time>2018-10-28T09:05:16Z</time>
      </trkpt>
      <trkpt lat="45.90082" lon="4.7383">
        <ele>178</ele>
        <time>2018-10-28T09:05:17Z</time>
      </trkpt>
      <trkpt lat="45.90076" lon="4.73833">
        <ele>178</ele>
        <time>2018-10-28T09:05:18Z</time>
      </trkpt>
      <trkpt lat="45.9007" lon="4.73835">
        <ele>178</ele>
        <time>2018-10-28T09:05:19Z</time>
      </trkpt>
      <trkpt lat="45.90064" lon="4.73838">
        <ele>178</ele>
        <time>2018-10-28T09:05:20Z</time>
      </trkpt>
      <trkpt lat="45.90057" lon="4.73841">
        <ele>178</ele>
        <time>2018-10-28T09:05:21Z</time>
      </trkpt>
      <trkpt lat="45.90051" lon="4.73843">
        <ele>178</ele>
        <time>2018-10-28T09:05:22Z</time>
      </trkpt>
      <trkpt lat="45.90045" lon="4.73846">
        <ele>178</ele>
        <time>2018-10-28T09:05:23Z</time>
      </trkpt>
      <trkpt lat="45.90038" lon="4.73848">
        <ele>178</ele>
        <time>2018-10-28T09:05:24Z</time>
      </trkpt>
      <trkpt lat="45.90031" lon="4.7385">
        <ele>178</ele>
        <time>2018-10-28T09:05:25Z</time>
      </trkpt>
      <trkpt lat="45.90024" lon="4.73852">
        <ele>178</ele>
        <time>2018-10-28T09:05:26Z</time>
      </trkpt>
      <trkpt lat="45.90017" lon="4.73856">
        <ele>178</ele>
        <time>2018-10-28T09:05:27Z</time>
      </trkpt>
      <trkpt lat="45.9001" lon="4.7386">
        <ele>178</ele>
        <time>2018-10-28T09:05:28Z</time>
      </trkpt>
      <trkpt lat="45.90004" lon="4.73862">
        <ele>178</ele>
        <time>2018-10-28T09:05:29Z</time>
      </trkpt>
      <trkpt lat="45.89997" lon="4.73865">
        <ele>178</ele>
        <time>2018-10-28T09:05:30Z</time>
      </trkpt>
      <trkpt lat="45.89991" lon="4.73866">
        <ele>178</ele>
        <time>2018-10-28T09:05:31Z</time>
      </trkpt>
      <trkpt lat="45.89984" lon="4.73868">
        <ele>178</ele>
        <time>2018-10-28T09:05:32Z</time>
      </trkpt>
      <trkpt lat="45.89978" lon="4.73871">
        <ele>178</ele>
        <time>2018-10-28T09:05:33Z</time>
      </trkpt>
      <trkpt lat="45.89972" lon="4.73873">
        <ele>178</ele>
        <time>2018-10-28T09:05:34Z</time>
      </trkpt>
      <trkpt lat="45.89966" lon="4.73876">
        <ele>178</ele>
        <time>2018-10-28T09:05:35Z</time>
      </trkpt>
      <trkpt lat="45.8996" lon="4.73877">
        <ele>178</ele>
        <time>2018-10-28T09:05:36Z</time>
      </trkpt>
      <trkpt lat="45.89954" lon="4.73881">
        <ele>178</ele>
        <time>2018-10-28T09:05:37Z</time>
      </trkpt>
      <trkpt lat="45.89948" lon="4.73882">
        <ele>178</ele>
        <time>2018-10-28T09:05:38Z</time>
      </trkpt>
      <trkpt lat="45.89943" lon="4.73884">
        <ele>178</ele>
        <time>2018-10-28T09:05:39Z</time>
      </trkpt>
      <trkpt lat="45.89937" lon="4.73886">
        <ele>178</ele>
        <time>2018-10-28T09:05:40Z</time>
      </trkpt>
      <trkpt lat="45.89931" lon="4.7389">
        <ele>178</ele>
        <time>2018-10-28T09:05:41Z</time>
      </trkpt>
      <trkpt lat="45.89925" lon="4.73893">
        <ele>178</ele>
        <time>2018-10-28T09:05:42Z</time>
      </trkpt>
      <trkpt lat="45.89918" lon="4.73896">
        <ele>178</ele>
        <time>2018-10-28T09:05:43Z</time>
      </trkpt>
      <trkpt lat="45.89912" lon="4.73898">
        <ele>178</ele>
        <time>2018-10-28T09:05:44Z</time>
      </trkpt>
      <trkpt lat="45.89905" lon="4.73901">
        <ele>178</ele>
        <time>2018-10-28T09:05:45Z</time>
      </trkpt>
      <trkpt lat="45.89899" lon="4.73903">
        <ele>178</ele>
        <time>2018-10-28T09:05:46Z</time>
      </trkpt>
      <trkpt lat="45.89893" lon="4.73906">
        <ele>179</ele>
        <time>2018-10-28T09:05:47Z</time>
      </trkpt>
      <trkpt lat="45.89888" lon="4.73909">
        <ele>179</ele>
        <time>2018-10-28T09:05:48Z</time>
      </trkpt>
      <trkpt lat="45.89882" lon="4.73911">
        <ele>179</ele>
        <time>2018-10-28T09:05:49Z</time>
      </trkpt>
      <trkpt lat="45.89875" lon="4.73914">
        <ele>179</ele>
        <time>2018-10-28T09:05:50Z</time>
      </trkpt>
      <trkpt lat="45.89871" lon="4.73916">
        <ele>179</ele>
        <time>2018-10-28T09:05:51Z</time>
      </trkpt>
      <trkpt lat="45.89865" lon="4.7392">
        <ele>179</ele>
        <time>2018-10-28T09:05:52Z</time>
      </trkpt>
      <trkpt lat="45.89859" lon="4.73922">
        <ele>179</ele>
        <time>2018-10-28T09:05:53Z</time>
      </trkpt>
      <trkpt lat="45.89853" lon="4.73924">
        <ele>179</ele>
        <time>2018-10-28T09:05:54Z</time>
      </trkpt>
      <trkpt lat="45.89848" lon="4.73927">
        <ele>179</ele>
        <time>2018-10-28T09:05:55Z</time>
      </trkpt>
      <trkpt lat="45.89842" lon="4.73929">
        <ele>179</ele>
        <time>2018-10-28T09:05:56Z</time>
      </trkpt>
      <trkpt lat="45.89835" lon="4.73931">
        <ele>179</ele>
        <time>2018-10-28T09:05:57Z</time>
      </trkpt>
      <trkpt lat="45.89829" lon="4.73934">
        <ele>179</ele>
        <time>2018-10-28T09:05:58Z</time>
      </trkpt>
      <trkpt lat="45.89823" lon="4.73937">
        <ele>179</ele>
        <time>2018-10-28T09:05:59Z</time>
      </trkpt>
      <trkpt lat="45.89816" lon="4.73938">
        <ele>179</ele>
        <time>2018-10-28T09:06:00Z</time>
      </trkpt>
      <trkpt lat="45.8981" lon="4.73941">
        <ele>179</ele>
        <time>2018-10-28T09:06:01Z</time>
      </trkpt>
      <trkpt lat="45.89804" lon="4.73943">
        <ele>179</ele>
        <time>2018-10-28T09:06:02Z</time>
      </trkpt>
      <trkpt lat="45.89797" lon="4.73946">
        <ele>179</ele>
        <time>2018-10-28T09:06:03Z</time>
      </trkpt>
      <trkpt lat="45.89791" lon="4.73949">
        <ele>179</ele>
        <time>2018-10-28T09:06:04Z</time>
      </trkpt>
      <trkpt lat="45.89784" lon="4.73953">
        <ele>179</ele>
        <time>2018-10-28T09:06:05Z</time>
      </trkpt>
      <trkpt lat="45.89777" lon="4.73956">
        <ele>179</ele>
        <time>2018-10-28T09:06:06Z</time>
      </trkpt>
      <trkpt lat="45.89771" lon="4.73959">
        <ele>179</ele>
        <time>2018-10-28T09:06:07Z</time>
      </trkpt>
      <trkpt lat="45.89765" lon="4.73961">
        <ele>179</ele>
        <time>2018-10-28T09:06:08Z</time>
      </trkpt>
      <trkpt lat="45.89758" lon="4.73963">
        <ele>178</ele>
        <time>2018-10-28T09:06:09Z</time>
      </trkpt>
      <trkpt lat="45.89752" lon="4.73966">
        <ele>178</ele>
        <time>2018-10-28T09:06:10Z</time>
      </trkpt>
      <trkpt lat="45.89746" lon="4.73969">
        <ele>178</ele>
        <time>2018-10-28T09:06:11Z</time>
      </trkpt>
      <trkpt lat="45.8974" lon="4.73972">
        <ele>178</ele>
        <time>2018-10-28T09:06:12Z</time>
      </trkpt>
      <trkpt lat="45.89734" lon="4.73974">
        <ele>178</ele>
        <time>2018-10-28T09:06:13Z</time>
      </trkpt>
      <trkpt lat="45.89729" lon="4.73976">
        <ele>178</ele>
        <time>2018-10-28T09:06:14Z</time>
      </trkpt>
      <trkpt lat="45.89723" lon="4.73978">
        <ele>178</ele>
        <time>2018-10-28T09:06:15Z</time>
      </trkpt>
      <trkpt lat="45.89718" lon="4.73982">
        <ele>178</ele>
        <time>2018-10-28T09:06:16Z</time>
      </trkpt>
      <trkpt lat="45.89712" lon="4.73984">
        <ele>178</ele>
        <time>2018-10-28T09:06:17Z</time>
      </trkpt>
      <trkpt lat="45.89706" lon="4.73987">
        <ele>178</ele>
        <time>2018-10-28T09:06:18Z</time>
      </trkpt>
      <trkpt lat="45.897" lon="4.7399">
        <ele>178</ele>
        <time>2018-10-28T09:06:19Z</time>
      </trkpt>
      <trkpt lat="45.89694" lon="4.73993">
        <ele>178</ele>
        <time>2018-10-28T09:06:20Z</time>
      </trkpt>
      <trkpt lat="45.89688" lon="4.73995">
        <ele>179</ele>
        <time>2018-10-28T09:06:21Z</time>
      </trkpt>
      <trkpt lat="45.89682" lon="4.73998">
        <ele>179</ele>
        <time>2018-10-28T09:06:22Z</time>
      </trkpt>
      <trkpt lat="45.89675" lon="4.74001">
        <ele>179</ele>
        <time>2018-10-28T09:06:23Z</time>
      </trkpt>
      <trkpt lat="45.89669" lon="4.74004">
        <ele>179</ele>
        <time>2018-10-28T09:06:24Z</time>
      </trkpt>
      <trkpt lat="45.89662" lon="4.74006">
        <ele>179</ele>
        <time>2018-10-28T09:06:25Z</time>
      </trkpt>
      <trkpt lat="45.89656" lon="4.74009">
        <ele>179</ele>
        <time>2018-10-28T09:06:26Z</time>
      </trkpt>
      <trkpt lat="45.8965" lon="4.74011">
        <ele>180</ele>
        <time>2018-10-28T09:06:27Z</time>
      </trkpt>
      <trkpt lat="45.89643" lon="4.74014">
        <ele>180</ele>
        <time>2018-10-28T09:06:28Z</time>
      </trkpt>
      <trkpt lat="45.89636" lon="4.74016">
        <ele>180</ele>
        <time>2018-10-28T09:06:29Z</time>
      </trkpt>
      <trkpt lat="45.8963" lon="4.74018">
        <ele>180</ele>
        <time>2018-10-28T09:06:30Z</time>
      </trkpt>
      <trkpt lat="45.89624" lon="4.7402">
        <ele>180</ele>
        <time>2018-10-28T09:06:31Z</time>
      </trkpt>
      <trkpt lat="45.89618" lon="4.74022">
        <ele>180</ele>
        <time>2018-10-28T09:06:32Z</time>
      </trkpt>
      <trkpt lat="45.89611" lon="4.74025">
        <ele>180</ele>
        <time>2018-10-28T09:06:33Z</time>
      </trkpt>
      <trkpt lat="45.89604" lon="4.74029">
        <ele>180</ele>
        <time>2018-10-28T09:06:34Z</time>
      </trkpt>
      <trkpt lat="45.89598" lon="4.74031">
        <ele>180</ele>
        <time>2018-10-28T09:06:35Z</time>
      </trkpt>
      <trkpt lat="45.89591" lon="4.74034">
        <ele>180</ele>
        <time>2018-10-28T09:06:36Z</time>
      </trkpt>
      <trkpt lat="45.89584" lon="4.74037">
        <ele>180</ele>
        <time>2018-10-28T09:06:37Z</time>
      </trkpt>
      <trkpt lat="45.89578" lon="4.74041">
        <ele>181</ele>
        <time>2018-10-28T09:06:38Z</time>
      </trkpt>
      <trkpt lat="45.8957" lon="4.74044">
        <ele>181</ele>
        <time>2018-10-28T09:06:39Z</time>
      </trkpt>
      <trkpt lat="45.89564" lon="4.74047">
        <ele>181</ele>
        <time>2018-10-28T09:06:40Z</time>
      </trkpt>
      <trkpt lat="45.89558" lon="4.74051">
        <ele>181</ele>
        <time>2018-10-28T09:06:41Z</time>
      </trkpt>
      <trkpt lat="45.89551" lon="4.74053">
        <ele>181</ele>
        <time>2018-10-28T09:06:42Z</time>
      </trkpt>
      <trkpt lat="45.89546" lon="4.74055">
        <ele>181</ele>
        <time>2018-10-28T09:06:43Z</time>
      </trkpt>
      <trkpt lat="45.89541" lon="4.74058">
        <ele>181</ele>
        <time>2018-10-28T09:06:44Z</time>
      </trkpt>
      <trkpt lat="45.89536" lon="4.7406">
        <ele>181</ele>
        <time>2018-10-28T09:06:45Z</time>
      </trkpt>
      <trkpt lat="45.8953" lon="4.74063">
        <ele>181</ele>
        <time>2018-10-28T09:06:46Z</time>
      </trkpt>
      <trkpt lat="45.89526" lon="4.74063">
        <ele>181</ele>
        <time>2018-10-28T09:06:47Z</time>
      </trkpt>
      <trkpt lat="45.89522" lon="4.74065">
        <ele>181</ele>
        <time>2018-10-28T09:06:48Z</time>
      </trkpt>
      <trkpt lat="45.89516" lon="4.74067">
        <ele>181</ele>
        <time>2018-10-28T09:06:49Z</time>
      </trkpt>
      <trkpt lat="45.89511" lon="4.74069">
        <ele>181</ele>
        <time>2018-10-28T09:06:50Z</time>
      </trkpt>
      <trkpt lat="45.89506" lon="4.74072">
        <ele>181</ele>
        <time>2018-10-28T09:06:51Z</time>
      </trkpt>
      <trkpt lat="45.89499" lon="4.74074">
        <ele>181</ele>
        <time>2018-10-28T09:06:52Z</time>
      </trkpt>
      <trkpt lat="45.89494" lon="4.74077">
        <ele>181</ele>
        <time>2018-10-28T09:06:53Z</time>
      </trkpt>
      <trkpt lat="45.89489" lon="4.74078">
        <ele>181</ele>
        <time>2018-10-28T09:06:54Z</time>
      </trkpt>
      <trkpt lat="45.89483" lon="4.7408">
        <ele>181</ele>
        <time>2018-10-28T09:06:55Z</time>
      </trkpt>
      <trkpt lat="45.89478" lon="4.74082">
        <ele>181</ele>
        <time>2018-10-28T09:06:56Z</time>
      </trkpt>
      <trkpt lat="45.89473" lon="4.74084">
        <ele>182</ele>
        <time>2018-10-28T09:06:57Z</time>
      </trkpt>
      <trkpt lat="45.89468" lon="4.74086">
        <ele>182</ele>
        <time>2018-10-28T09:06:58Z</time>
      </trkpt>
      <trkpt lat="45.89461" lon="4.74089">
        <ele>182</ele>
        <time>2018-10-28T09:06:59Z</time>
      </trkpt>
      <trkpt lat="45.89456" lon="4.74092">
        <ele>182</ele>
        <time>2018-10-28T09:07:00Z</time>
      </trkpt>
      <trkpt lat="45.89451" lon="4.74095">
        <ele>182</ele>
        <time>2018-10-28T09:07:01Z</time>
      </trkpt>
      <trkpt lat="45.89445" lon="4.74098">
        <ele>182</ele>
        <time>2018-10-28T09:07:02Z</time>
      </trkpt>
      <trkpt lat="45.89439" lon="4.741">
        <ele>182</ele>
        <time>2018-10-28T09:07:03Z</time>
      </trkpt>
      <trkpt lat="45.89433" lon="4.74104">
        <ele>182</ele>
        <time>2018-10-28T09:07:04Z</time>
      </trkpt>
      <trkpt lat="45.89427" lon="4.74106">
        <ele>183</ele>
        <time>2018-10-28T09:07:05Z</time>
      </trkpt>
      <trkpt lat="45.8942" lon="4.7411">
        <ele>183</ele>
        <time>2018-10-28T09:07:06Z</time>
      </trkpt>
      <trkpt lat="45.89414" lon="4.74113">
        <ele>183</ele>
        <time>2018-10-28T09:07:07Z</time>
      </trkpt>
      <trkpt lat="45.89408" lon="4.74115">
        <ele>183</ele>
        <time>2018-10-28T09:07:08Z</time>
      </trkpt>
      <trkpt lat="45.89402" lon="4.74118">
        <ele>184</ele>
        <time>2018-10-28T09:07:09Z</time>
      </trkpt>
      <trkpt lat="45.89396" lon="4.7412">
        <ele>184</ele>
        <time>2018-10-28T09:07:10Z</time>
      </trkpt>
      <trkpt lat="45.8939" lon="4.74122">
        <ele>184</ele>
        <time>2018-10-28T09:07:11Z</time>
      </trkpt>
      <trkpt lat="45.89384" lon="4.74125">
        <ele>184</ele>
        <time>2018-10-28T09:07:12Z</time>
      </trkpt>
      <trkpt lat="45.89378" lon="4.74128">
        <ele>184</ele>
        <time>2018-10-28T09:07:13Z</time>
      </trkpt>
      <trkpt lat="45.89373" lon="4.74129">
        <ele>184</ele>
        <time>2018-10-28T09:07:14Z</time>
      </trkpt>
      <trkpt lat="45.89367" lon="4.74132">
        <ele>184</ele>
        <time>2018-10-28T09:07:15Z</time>
      </trkpt>
      <trkpt lat="45.89362" lon="4.74134">
        <ele>184</ele>
        <time>2018-10-28T09:07:16Z</time>
      </trkpt>
      <trkpt lat="45.89356" lon="4.74137">
        <ele>184</ele>
        <time>2018-10-28T09:07:17Z</time>
      </trkpt>
      <trkpt lat="45.8935" lon="4.74139">
        <ele>185</ele>
        <time>2018-10-28T09:07:18Z</time>
      </trkpt>
      <trkpt lat="45.89345" lon="4.74142">
        <ele>185</ele>
        <time>2018-10-28T09:07:19Z</time>
      </trkpt>
      <trkpt lat="45.89338" lon="4.74144">
        <ele>185</ele>
        <time>2018-10-28T09:07:20Z</time>
      </trkpt>
      <trkpt lat="45.89333" lon="4.74147">
        <ele>185</ele>
        <time>2018-10-28T09:07:21Z</time>
      </trkpt>
      <trkpt lat="45.89328" lon="4.7415">
        <ele>185</ele>
        <time>2018-10-28T09:07:22Z</time>
      </trkpt>
      <trkpt lat="45.89323" lon="4.74152">
        <ele>185</ele>
        <time>2018-10-28T09:07:23Z</time>
      </trkpt>
      <trkpt lat="45.89317" lon="4.74156">
        <ele>185</ele>
        <time>2018-10-28T09:07:24Z</time>
      </trkpt>
      <trkpt lat="45.89311" lon="4.74157">
        <ele>185</ele>
        <time>2018-10-28T09:07:25Z</time>
      </trkpt>
      <trkpt lat="45.89305" lon="4.74159">
        <ele>185</ele>
        <time>2018-10-28T09:07:26Z</time>
      </trkpt>
      <trkpt lat="45.893" lon="4.74162">
        <ele>185</ele>
        <time>2018-10-28T09:07:27Z</time>
      </trkpt>
      <trkpt lat="45.89294" lon="4.74163">
        <ele>185</ele>
        <time>2018-10-28T09:07:28Z</time>
      </trkpt>
      <trkpt lat="45.89287" lon="4.74166">
        <ele>185</ele>
        <time>2018-10-28T09:07:29Z</time>
      </trkpt>
      <trkpt lat="45.89282" lon="4.74168">
        <ele>186</ele>
        <time>2018-10-28T09:07:30Z</time>
      </trkpt>
      <trkpt lat="45.89275" lon="4.74171">
        <ele>186</ele>
        <time>2018-10-28T09:07:31Z</time>
      </trkpt>
      <trkpt lat="45.89269" lon="4.74173">
        <ele>186</ele>
        <time>2018-10-28T09:07:32Z</time>
      </trkpt>
      <trkpt lat="45.89263" lon="4.74176">
        <ele>186</ele>
        <time>2018-10-28T09:07:33Z</time>
      </trkpt>
      <trkpt lat="45.89258" lon="4.74179">
        <ele>185</ele>
        <time>2018-10-28T09:07:34Z</time>
      </trkpt>
      <trkpt lat="45.89252" lon="4.74181">
        <ele>185</ele>
        <time>2018-10-28T09:07:35Z</time>
      </trkpt>
      <trkpt lat="45.89246" lon="4.74183">
        <ele>186</ele>
        <time>2018-10-28T09:07:36Z</time>
      </trkpt>
      <trkpt lat="45.89239" lon="4.74186">
        <ele>186</ele>
        <time>2018-10-28T09:07:37Z</time>
      </trkpt>
      <trkpt lat="45.89233" lon="4.74189">
        <ele>186</ele>
        <time>2018-10-28T09:07:38Z</time>
      </trkpt>
      <trkpt lat="45.89228" lon="4.74192">
        <ele>186</ele>
        <time>2018-10-28T09:07:39Z</time>
      </trkpt>
      <trkpt lat="45.89221" lon="4.74195">
        <ele>186</ele>
        <time>2018-10-28T09:07:40Z</time>
      </trkpt>
      <trkpt lat="45.89215" lon="4.74197">
        <ele>186</ele>
        <time>2018-10-28T09:07:41Z</time>
      </trkpt>
      <trkpt lat="45.8921" lon="4.742">
        <ele>186</ele>
        <time>2018-10-28T09:07:42Z</time>
      </trkpt>
      <trkpt lat="45.89203" lon="4.74204">
        <ele>186</ele>
        <time>2018-10-28T09:07:43Z</time>
      </trkpt>
      <trkpt lat="45.89197" lon="4.74207">
        <ele>186</ele>
        <time>2018-10-28T09:07:44Z</time>
      </trkpt>
      <trkpt lat="45.89191" lon="4.7421">
        <ele>186</ele>
        <time>2018-10-28T09:07:45Z</time>
      </trkpt>
      <trkpt lat="45.89185" lon="4.74212">
        <ele>186</ele>
        <time>2018-10-28T09:07:46Z</time>
      </trkpt>
      <trkpt lat="45.89178" lon="4.74214">
        <ele>186</ele>
        <time>2018-10-28T09:07:47Z</time>
      </trkpt>
      <trkpt lat="45.89172" lon="4.74216">
        <ele>186</ele>
        <time>2018-10-28T09:07:48Z</time>
      </trkpt>
      <trkpt lat="45.89166" lon="4.74219">
        <ele>186</ele>
        <time>2018-10-28T09:07:49Z</time>
      </trkpt>
      <trkpt lat="45.89161" lon="4.7422">
        <ele>186</ele>
        <time>2018-10-28T09:07:50Z</time>
      </trkpt>
      <trkpt lat="45.89154" lon="4.74223">
        <ele>186</ele>
        <time>2018-10-28T09:07:51Z</time>
      </trkpt>
      <trkpt lat="45.89146" lon="4.74226">
        <ele>186</ele>
        <time>2018-10-28T09:07:52Z</time>
      </trkpt>
      <trkpt lat="45.8914" lon="4.74228">
        <ele>186</ele>
        <time>2018-10-28T09:07:53Z</time>
      </trkpt>
      <trkpt lat="45.89134" lon="4.74232">
        <ele>186</ele>
        <time>2018-10-28T09:07:54Z</time>
      </trkpt>
      <trkpt lat="45.89129" lon="4.74235">
        <ele>186</ele>
        <time>2018-10-28T09:07:55Z</time>
      </trkpt>
      <trkpt lat="45.89123" lon="4.74236">
        <ele>186</ele>
        <time>2018-10-28T09:07:56Z</time>
      </trkpt>
      <trkpt lat="45.89117" lon="4.74239">
        <ele>186</ele>
        <time>2018-10-28T09:07:57Z</time>
      </trkpt>
      <trkpt lat="45.89111" lon="4.74241">
        <ele>186</ele>
        <time>2018-10-28T09:07:58Z</time>
      </trkpt>
      <trkpt lat="45.89104" lon="4.74243">
        <ele>186</ele>
        <time>2018-10-28T09:07:59Z</time>
      </trkpt>
      <trkpt lat="45.89098" lon="4.74245">
        <ele>186</ele>
        <time>2018-10-28T09:08:00Z</time>
      </trkpt>
      <trkpt lat="45.89091" lon="4.74246">
        <ele>186</ele>
        <time>2018-10-28T09:08:01Z</time>
      </trkpt>
      <trkpt lat="45.89084" lon="4.74248">
        <ele>186</ele>
        <time>2018-10-28T09:08:02Z</time>
      </trkpt>
      <trkpt lat="45.89079" lon="4.7425">
        <ele>186</ele>
        <time>2018-10-28T09:08:03Z</time>
      </trkpt>
      <trkpt lat="45.89072" lon="4.74253">
        <ele>186</ele>
        <time>2018-10-28T09:08:04Z</time>
      </trkpt>
      <trkpt lat="45.89066" lon="4.74255">
        <ele>186</ele>
        <time>2018-10-28T09:08:05Z</time>
      </trkpt>
      <trkpt lat="45.89059" lon="4.74259">
        <ele>187</ele>
        <time>2018-10-28T09:08:06Z</time>
      </trkpt>
      <trkpt lat="45.89052" lon="4.74261">
        <ele>187</ele>
        <time>2018-10-28T09:08:07Z</time>
      </trkpt>
      <trkpt lat="45.89046" lon="4.74265">
        <ele>187</ele>
        <time>2018-10-28T09:08:08Z</time>
      </trkpt>
      <trkpt lat="45.8904" lon="4.74268">
        <ele>187</ele>
        <time>2018-10-28T09:08:09Z</time>
      </trkpt>
      <trkpt lat="45.89035" lon="4.74268">
        <ele>187</ele>
        <time>2018-10-28T09:08:10Z</time>
      </trkpt>
      <trkpt lat="45.89028" lon="4.74269">
        <ele>187</ele>
        <time>2018-10-28T09:08:11Z</time>
      </trkpt>
      <trkpt lat="45.89024" lon="4.74271">
        <ele>187</ele>
        <time>2018-10-28T09:08:12Z</time>
      </trkpt>
      <trkpt lat="45.89019" lon="4.74272">
        <ele>187</ele>
        <time>2018-10-28T09:08:13Z</time>
      </trkpt>
      <trkpt lat="45.89015" lon="4.74274">
        <ele>187</ele>
        <time>2018-10-28T09:08:14Z</time>
      </trkpt>
      <trkpt lat="45.8901" lon="4.74274">
        <ele>187</ele>
        <time>2018-10-28T09:08:15Z</time>
      </trkpt>
      <trkpt lat="45.89004" lon="4.74276">
        <ele>187</ele>
        <time>2018-10-28T09:08:16Z</time>
      </trkpt>
      <trkpt lat="45.88999" lon="4.74279">
        <ele>187</ele>
        <time>2018-10-28T09:08:17Z</time>
      </trkpt>
      <trkpt lat="45.88993" lon="4.7428">
        <ele>187</ele>
        <time>2018-10-28T09:08:18Z</time>
      </trkpt>
      <trkpt lat="45.88989" lon="4.74282">
        <ele>187</ele>
        <time>2018-10-28T09:08:19Z</time>
      </trkpt>
      <trkpt lat="45.88984" lon="4.74282">
        <ele>187</ele>
        <time>2018-10-28T09:08:20Z</time>
      </trkpt>
      <trkpt lat="45.88978" lon="4.74283">
        <ele>187</ele>
        <time>2018-10-28T09:08:21Z</time>
      </trkpt>
      <trkpt lat="45.88971" lon="4.74285">
        <ele>187</ele>
        <time>2018-10-28T09:08:23Z</time>
      </trkpt>
      <trkpt lat="45.88969" lon="4.74284">
        <ele>187</ele>
        <time>2018-10-28T09:08:24Z</time>
      </trkpt>
      <trkpt lat="45.88962" lon="4.7428">
        <ele>187</ele>
        <time>2018-10-28T09:08:26Z</time>
      </trkpt>
      <trkpt lat="45.88957" lon="4.74279">
        <ele>187</ele>
        <time>2018-10-28T09:08:27Z</time>
      </trkpt>
      <trkpt lat="45.88949" lon="4.74277">
        <ele>187</ele>
        <time>2018-10-28T09:08:29Z</time>
      </trkpt>
      <trkpt lat="45.88944" lon="4.74276">
        <ele>187</ele>
        <time>2018-10-28T09:08:30Z</time>
      </trkpt>
      <trkpt lat="45.88939" lon="4.74274">
        <ele>187</ele>
        <time>2018-10-28T09:08:31Z</time>
      </trkpt>
      <trkpt lat="45.88934" lon="4.74272">
        <ele>187</ele>
        <time>2018-10-28T09:08:32Z</time>
      </trkpt>
      <trkpt lat="45.8893" lon="4.74271">
        <ele>187</ele>
        <time>2018-10-28T09:08:33Z</time>
      </trkpt>
      <trkpt lat="45.88925" lon="4.74269">
        <ele>187</ele>
        <time>2018-10-28T09:08:34Z</time>
      </trkpt>
      <trkpt lat="45.8892" lon="4.74264">
        <ele>187</ele>
        <time>2018-10-28T09:08:38Z</time>
      </trkpt>
      <trkpt lat="45.88915" lon="4.74261">
        <ele>187</ele>
        <time>2018-10-28T09:08:39Z</time>
      </trkpt>
      <trkpt lat="45.88907" lon="4.74255">
        <ele>187</ele>
        <time>2018-10-28T09:08:40Z</time>
      </trkpt>
      <trkpt lat="45.88902" lon="4.7425">
        <ele>187</ele>
        <time>2018-10-28T09:08:41Z</time>
      </trkpt>
      <trkpt lat="45.88899" lon="4.74249">
        <ele>187</ele>
        <time>2018-10-28T09:08:42Z</time>
      </trkpt>
      <trkpt lat="45.88893" lon="4.74243">
        <ele>187</ele>
        <time>2018-10-28T09:08:43Z</time>
      </trkpt>
      <trkpt lat="45.88888" lon="4.74239">
        <ele>187</ele>
        <time>2018-10-28T09:08:44Z</time>
      </trkpt>
      <trkpt lat="45.88882" lon="4.74236">
        <ele>187</ele>
        <time>2018-10-28T09:08:45Z</time>
      </trkpt>
      <trkpt lat="45.88877" lon="4.74233">
        <ele>187</ele>
        <time>2018-10-28T09:08:46Z</time>
      </trkpt>
      <trkpt lat="45.88872" lon="4.74229">
        <ele>187</ele>
        <time>2018-10-28T09:08:47Z</time>
      </trkpt>
      <trkpt lat="45.88866" lon="4.74227">
        <ele>187</ele>
        <time>2018-10-28T09:08:48Z</time>
      </trkpt>
      <trkpt lat="45.88861" lon="4.74223">
        <ele>187</ele>
        <time>2018-10-28T09:08:49Z</time>
      </trkpt>
      <trkpt lat="45.88856" lon="4.74218">
        <ele>187</ele>
        <time>2018-10-28T09:08:50Z</time>
      </trkpt>
      <trkpt lat="45.88851" lon="4.74214">
        <ele>187</ele>
        <time>2018-10-28T09:08:51Z</time>
      </trkpt>
      <trkpt lat="45.88846" lon="4.74211">
        <ele>187</ele>
        <time>2018-10-28T09:08:52Z</time>
      </trkpt>
      <trkpt lat="45.88841" lon="4.74208">
        <ele>187</ele>
        <time>2018-10-28T09:08:53Z</time>
      </trkpt>
      <trkpt lat="45.88835" lon="4.74205">
        <ele>187</ele>
        <time>2018-10-28T09:08:54Z</time>
      </trkpt>
      <trkpt lat="45.8883" lon="4.74203">
        <ele>187</ele>
        <time>2018-10-28T09:08:55Z</time>
      </trkpt>
      <trkpt lat="45.88825" lon="4.74201">
        <ele>187</ele>
        <time>2018-10-28T09:08:56Z</time>
      </trkpt>
      <trkpt lat="45.88819" lon="4.74198">
        <ele>187</ele>
        <time>2018-10-28T09:08:57Z</time>
      </trkpt>
      <trkpt lat="45.88815" lon="4.74196">
        <ele>187</ele>
        <time>2018-10-28T09:08:58Z</time>
      </trkpt>
      <trkpt lat="45.8881" lon="4.74192">
        <ele>187</ele>
        <time>2018-10-28T09:08:59Z</time>
      </trkpt>
      <trkpt lat="45.88805" lon="4.74189">
        <ele>187</ele>
        <time>2018-10-28T09:09:00Z</time>
      </trkpt>
      <trkpt lat="45.88799" lon="4.74186">
        <ele>187</ele>
        <time>2018-10-28T09:09:01Z</time>
      </trkpt>
      <trkpt lat="45.88794" lon="4.74183">
        <ele>188</ele>
        <time>2018-10-28T09:09:02Z</time>
      </trkpt>
      <trkpt lat="45.88789" lon="4.7418">
        <ele>188</ele>
        <time>2018-10-28T09:09:03Z</time>
      </trkpt>
      <trkpt lat="45.88783" lon="4.74177">
        <ele>188</ele>
        <time>2018-10-28T09:09:04Z</time>
      </trkpt>
      <trkpt lat="45.88777" lon="4.74175">
        <ele>188</ele>
        <time>2018-10-28T09:09:05Z</time>
      </trkpt>
      <trkpt lat="45.88771" lon="4.74172">
        <ele>188</ele>
        <time>2018-10-28T09:09:06Z</time>
      </trkpt>
      <trkpt lat="45.88766" lon="4.74167">
        <ele>188</ele>
        <time>2018-10-28T09:09:07Z</time>
      </trkpt>
      <trkpt lat="45.88761" lon="4.74165">
        <ele>187</ele>
        <time>2018-10-28T09:09:08Z</time>
      </trkpt>
      <trkpt lat="45.88756" lon="4.74161">
        <ele>188</ele>
        <time>2018-10-28T09:09:09Z</time>
      </trkpt>
      <trkpt lat="45.88752" lon="4.74157">
        <ele>188</ele>
        <time>2018-10-28T09:09:10Z</time>
      </trkpt>
      <trkpt lat="45.88748" lon="4.74154">
        <ele>188</ele>
        <time>2018-10-28T09:09:11Z</time>
      </trkpt>
      <trkpt lat="45.88741" lon="4.74146">
        <ele>188</ele>
        <time>2018-10-28T09:09:13Z</time>
      </trkpt>
      <trkpt lat="45.88735" lon="4.74143">
        <ele>188</ele>
        <time>2018-10-28T09:09:14Z</time>
      </trkpt>
      <trkpt lat="45.8873" lon="4.74141">
        <ele>188</ele>
        <time>2018-10-28T09:09:15Z</time>
      </trkpt>
      <trkpt lat="45.88726" lon="4.74137">
        <ele>188</ele>
        <time>2018-10-28T09:09:16Z</time>
      </trkpt>
      <trkpt lat="45.88721" lon="4.74132">
        <ele>188</ele>
        <time>2018-10-28T09:09:17Z</time>
      </trkpt>
      <trkpt lat="45.88716" lon="4.74128">
        <ele>188</ele>
        <time>2018-10-28T09:09:18Z</time>
      </trkpt>
      <trkpt lat="45.88712" lon="4.74123">
        <ele>188</ele>
        <time>2018-10-28T09:09:19Z</time>
      </trkpt>
      <trkpt lat="45.88707" lon="4.74118">
        <ele>188</ele>
        <time>2018-10-28T09:09:20Z</time>
      </trkpt>
      <trkpt lat="45.88703" lon="4.74116">
        <ele>188</ele>
        <time>2018-10-28T09:09:21Z</time>
      </trkpt>
      <trkpt lat="45.88697" lon="4.74113">
        <ele>188</ele>
        <time>2018-10-28T09:09:22Z</time>
      </trkpt>
      <trkpt lat="45.88692" lon="4.74111">
        <ele>188</ele>
        <time>2018-10-28T09:09:23Z</time>
      </trkpt>
      <trkpt lat="45.88687" lon="4.7411">
        <ele>188</ele>
        <time>2018-10-28T09:09:24Z</time>
      </trkpt>
      <trkpt lat="45.88678" lon="4.74108">
        <ele>188</ele>
        <time>2018-10-28T09:09:26Z</time>
      </trkpt>
      <trkpt lat="45.88674" lon="4.74105">
        <ele>188</ele>
        <time>2018-10-28T09:09:27Z</time>
      </trkpt>
      <trkpt lat="45.88671" lon="4.74101">
        <ele>188</ele>
        <time>2018-10-28T09:09:28Z</time>
      </trkpt>
      <trkpt lat="45.88669" lon="4.74094">
        <ele>188</ele>
        <time>2018-10-28T09:09:29Z</time>
      </trkpt>
      <trkpt lat="45.88668" lon="4.74087">
        <ele>188</ele>
        <time>2018-10-28T09:09:30Z</time>
      </trkpt>
      <trkpt lat="45.88666" lon="4.7408">
        <ele>188</ele>
        <time>2018-10-28T09:09:31Z</time>
      </trkpt>
      <trkpt lat="45.88665" lon="4.74072">
        <ele>188</ele>
        <time>2018-10-28T09:09:32Z</time>
      </trkpt>
      <trkpt lat="45.88664" lon="4.74064">
        <ele>188</ele>
        <time>2018-10-28T09:09:33Z</time>
      </trkpt>
      <trkpt lat="45.88662" lon="4.74056">
        <ele>187</ele>
        <time>2018-10-28T09:09:34Z</time>
      </trkpt>
      <trkpt lat="45.8866" lon="4.74048">
        <ele>187</ele>
        <time>2018-10-28T09:09:35Z</time>
      </trkpt>
      <trkpt lat="45.88659" lon="4.74041">
        <ele>187</ele>
        <time>2018-10-28T09:09:36Z</time>
      </trkpt>
      <trkpt lat="45.88658" lon="4.74032">
        <ele>187</ele>
        <time>2018-10-28T09:09:37Z</time>
      </trkpt>
      <trkpt lat="45.88657" lon="4.74023">
        <ele>187</ele>
        <time>2018-10-28T09:09:38Z</time>
      </trkpt>
      <trkpt lat="45.88657" lon="4.74013">
        <ele>187</ele>
        <time>2018-10-28T09:09:39Z</time>
      </trkpt>
      <trkpt lat="45.88656" lon="4.74003">
        <ele>186</ele>
        <time>2018-10-28T09:09:40Z</time>
      </trkpt>
      <trkpt lat="45.88654" lon="4.73995">
        <ele>186</ele>
        <time>2018-10-28T09:09:41Z</time>
      </trkpt>
      <trkpt lat="45.88653" lon="4.73986">
        <ele>186</ele>
        <time>2018-10-28T09:09:42Z</time>
      </trkpt>
      <trkpt lat="45.88651" lon="4.73977">
        <ele>187</ele>
        <time>2018-10-28T09:09:43Z</time>
      </trkpt>
      <trkpt lat="45.88651" lon="4.73968">
        <ele>187</ele>
        <time>2018-10-28T09:09:44Z</time>
      </trkpt>
      <trkpt lat="45.8865" lon="4.7396">
        <ele>187</ele>
        <time>2018-10-28T09:09:45Z</time>
      </trkpt>
      <trkpt lat="45.88649" lon="4.73951">
        <ele>187</ele>
        <time>2018-10-28T09:09:46Z</time>
      </trkpt>
      <trkpt lat="45.88647" lon="4.73942">
        <ele>187</ele>
        <time>2018-10-28T09:09:47Z</time>
      </trkpt>
      <trkpt lat="45.88647" lon="4.73933">
        <ele>187</ele>
        <time>2018-10-28T09:09:48Z</time>
      </trkpt>
      <trkpt lat="45.88645" lon="4.73924">
        <ele>187</ele>
        <time>2018-10-28T09:09:49Z</time>
      </trkpt>
      <trkpt lat="45.88646" lon="4.73916">
        <ele>187</ele>
        <time>2018-10-28T09:09:50Z</time>
      </trkpt>
      <trkpt lat="45.88646" lon="4.73908">
        <ele>187</ele>
        <time>2018-10-28T09:09:51Z</time>
      </trkpt>
      <trkpt lat="45.88646" lon="4.739">
        <ele>187</ele>
        <time>2018-10-28T09:09:52Z</time>
      </trkpt>
      <trkpt lat="45.88646" lon="4.73892">
        <ele>187</ele>
        <time>2018-10-28T09:09:53Z</time>
      </trkpt>
      <trkpt lat="45.88647" lon="4.73885">
        <ele>187</ele>
        <time>2018-10-28T09:09:54Z</time>
      </trkpt>
      <trkpt lat="45.88647" lon="4.73877">
        <ele>187</ele>
        <time>2018-10-28T09:09:55Z</time>
      </trkpt>
      <trkpt lat="45.88646" lon="4.73869">
        <ele>187</ele>
        <time>2018-10-28T09:09:56Z</time>
      </trkpt>
      <trkpt lat="45.88645" lon="4.73862">
        <ele>187</ele>
        <time>2018-10-28T09:09:57Z</time>
      </trkpt>
      <trkpt lat="45.88646" lon="4.73853">
        <ele>187</ele>
        <time>2018-10-28T09:09:58Z</time>
      </trkpt>
      <trkpt lat="45.88647" lon="4.73845">
        <ele>187</ele>
        <time>2018-10-28T09:09:59Z</time>
      </trkpt>
      <trkpt lat="45.88648" lon="4.73838">
        <ele>187</ele>
        <time>2018-10-28T09:10:00Z</time>
      </trkpt>
      <trkpt lat="45.88648" lon="4.73831">
        <ele>187</ele>
        <time>2018-10-28T09:10:01Z</time>
      </trkpt>
      <trkpt lat="45.88648" lon="4.73823">
        <ele>187</ele>
        <time>2018-10-28T09:10:02Z</time>
      </trkpt>
      <trkpt lat="45.88648" lon="4.73816">
        <ele>187</ele>
        <time>2018-10-28T09:10:03Z</time>
      </trkpt>
      <trkpt lat="45.88648" lon="4.73807">
        <ele>187</ele>
        <time>2018-10-28T09:10:04Z</time>
      </trkpt>
      <trkpt lat="45.88648" lon="4.73799">
        <ele>187</ele>
        <time>2018-10-28T09:10:05Z</time>
      </trkpt>
      <trkpt lat="45.88648" lon="4.73792">
        <ele>187</ele>
        <time>2018-10-28T09:10:06Z</time>
      </trkpt>
      <trkpt lat="45.88648" lon="4.73785">
        <ele>187</ele>
        <time>2018-10-28T09:10:07Z</time>
      </trkpt>
      <trkpt lat="45.88648" lon="4.73777">
        <ele>187</ele>
        <time>2018-10-28T09:10:08Z</time>
      </trkpt>
      <trkpt lat="45.88648" lon="4.73771">
        <ele>187</ele>
        <time>2018-10-28T09:10:09Z</time>
      </trkpt>
      <trkpt lat="45.88648" lon="4.73764">
        <ele>187</ele>
        <time>2018-10-28T09:10:10Z</time>
      </trkpt>
      <trkpt lat="45.88647" lon="4.73757">
        <ele>187</ele>
        <time>2018-10-28T09:10:11Z</time>
      </trkpt>
      <trkpt lat="45.88649" lon="4.73745">
        <ele>187</ele>
        <time>2018-10-28T09:10:13Z</time>
      </trkpt>
      <trkpt lat="45.88649" lon="4.73739">
        <ele>187</ele>
        <time>2018-10-28T09:10:14Z</time>
      </trkpt>
      <trkpt lat="45.88649" lon="4.73726">
        <ele>186</ele>
        <time>2018-10-28T09:10:16Z</time>
      </trkpt>
      <trkpt lat="45.8865" lon="4.73721">
        <ele>186</ele>
        <time>2018-10-28T09:10:17Z</time>
      </trkpt>
      <trkpt lat="45.8865" lon="4.7371">
        <ele>186</ele>
        <time>2018-10-28T09:10:19Z</time>
      </trkpt>
      <trkpt lat="45.8865" lon="4.73703">
        <ele>186</ele>
        <time>2018-10-28T09:10:20Z</time>
      </trkpt>
      <trkpt lat="45.8865" lon="4.73691">
        <ele>186</ele>
        <time>2018-10-28T09:10:22Z</time>
      </trkpt>
      <trkpt lat="45.8865" lon="4.73685">
        <ele>186</ele>
        <time>2018-10-28T09:10:23Z</time>
      </trkpt>
      <trkpt lat="45.8865" lon="4.73678">
        <ele>186</ele>
        <time>2018-10-28T09:10:24Z</time>
      </trkpt>
      <trkpt lat="45.8865" lon="4.73671">
        <ele>186</ele>
        <time>2018-10-28T09:10:25Z</time>
      </trkpt>
      <trkpt lat="45.88651" lon="4.73663">
        <ele>186</ele>
        <time>2018-10-28T09:10:26Z</time>
      </trkpt>
      <trkpt lat="45.88651" lon="4.73655">
        <ele>186</ele>
        <time>2018-10-28T09:10:27Z</time>
      </trkpt>
      <trkpt lat="45.88651" lon="4.73648">
        <ele>186</ele>
        <time>2018-10-28T09:10:28Z</time>
      </trkpt>
      <trkpt lat="45.88652" lon="4.7364">
        <ele>186</ele>
        <time>2018-10-28T09:10:29Z</time>
      </trkpt>
      <trkpt lat="45.88652" lon="4.73632">
        <ele>186</ele>
        <time>2018-10-28T09:10:30Z</time>
      </trkpt>
      <trkpt lat="45.88652" lon="4.73623">
        <ele>186</ele>
        <time>2018-10-28T09:10:31Z</time>
      </trkpt>
      <trkpt lat="45.88653" lon="4.73614">
        <ele>186</ele>
        <time>2018-10-28T09:10:32Z</time>
      </trkpt>
      <trkpt lat="45.88653" lon="4.73605">
        <ele>186</ele>
        <time>2018-10-28T09:10:33Z</time>
      </trkpt>
      <trkpt lat="45.88653" lon="4.73595">
        <ele>185</ele>
        <time>2018-10-28T09:10:34Z</time>
      </trkpt>
      <trkpt lat="45.88653" lon="4.73586">
        <ele>185</ele>
        <time>2018-10-28T09:10:35Z</time>
      </trkpt>
      <trkpt lat="45.88652" lon="4.73577">
        <ele>185</ele>
        <time>2018-10-28T09:10:36Z</time>
      </trkpt>
      <trkpt lat="45.88653" lon="4.73566">
        <ele>185</ele>
        <time>2018-10-28T09:10:37Z</time>
      </trkpt>
      <trkpt lat="45.88653" lon="4.73556">
        <ele>185</ele>
        <time>2018-10-28T09:10:38Z</time>
      </trkpt>
      <trkpt lat="45.88654" lon="4.73546">
        <ele>185</ele>
        <time>2018-10-28T09:10:39Z</time>
      </trkpt>
      <trkpt lat="45.88653" lon="4.73536">
        <ele>185</ele>
        <time>2018-10-28T09:10:40Z</time>
      </trkpt>
      <trkpt lat="45.88653" lon="4.73526">
        <ele>185</ele>
        <time>2018-10-28T09:10:41Z</time>
      </trkpt>
      <trkpt lat="45.88655" lon="4.73517">
        <ele>185</ele>
        <time>2018-10-28T09:10:42Z</time>
      </trkpt>
      <trkpt lat="45.88656" lon="4.73508">
        <ele>184</ele>
        <time>2018-10-28T09:10:43Z</time>
      </trkpt>
      <trkpt lat="45.88657" lon="4.73501">
        <ele>184</ele>
        <time>2018-10-28T09:10:44Z</time>
      </trkpt>
      <trkpt lat="45.88658" lon="4.73495">
        <ele>184</ele>
        <time>2018-10-28T09:10:45Z</time>
      </trkpt>
      <trkpt lat="45.88657" lon="4.73484">
        <ele>184</ele>
        <time>2018-10-28T09:10:47Z</time>
      </trkpt>
      <trkpt lat="45.88653" lon="4.73479">
        <ele>184</ele>
        <time>2018-10-28T09:10:48Z</time>
      </trkpt>
      <trkpt lat="45.88646" lon="4.73472">
        <ele>184</ele>
        <time>2018-10-28T09:10:50Z</time>
      </trkpt>
      <trkpt lat="45.88642" lon="4.7347">
        <ele>184</ele>
        <time>2018-10-28T09:10:51Z</time>
      </trkpt>
      <trkpt lat="45.88636" lon="4.7346">
        <ele>184</ele>
        <time>2018-10-28T09:10:53Z</time>
      </trkpt>
      <trkpt lat="45.88636" lon="4.73453">
        <ele>184</ele>
        <time>2018-10-28T09:10:54Z</time>
      </trkpt>
      <trkpt lat="45.88637" lon="4.73445">
        <ele>184</ele>
        <time>2018-10-28T09:10:55Z</time>
      </trkpt>
      <trkpt lat="45.88638" lon="4.73438">
        <ele>184</ele>
        <time>2018-10-28T09:10:56Z</time>
      </trkpt>
      <trkpt lat="45.88639" lon="4.73431">
        <ele>184</ele>
        <time>2018-10-28T09:10:57Z</time>
      </trkpt>
      <trkpt lat="45.8864" lon="4.73423">
        <ele>184</ele>
        <time>2018-10-28T09:10:58Z</time>
      </trkpt>
      <trkpt lat="45.88639" lon="4.73414">
        <ele>184</ele>
        <time>2018-10-28T09:10:59Z</time>
      </trkpt>
      <trkpt lat="45.88637" lon="4.73406">
        <ele>184</ele>
        <time>2018-10-28T09:11:00Z</time>
      </trkpt>
      <trkpt lat="45.88633" lon="4.73399">
        <ele>183</ele>
        <time>2018-10-28T09:11:01Z</time>
      </trkpt>
      <trkpt lat="45.8863" lon="4.73393">
        <ele>183</ele>
        <time>2018-10-28T09:11:02Z</time>
      </trkpt>
      <trkpt lat="45.88625" lon="4.73389">
        <ele>183</ele>
        <time>2018-10-28T09:11:03Z</time>
      </trkpt>
      <trkpt lat="45.88619" lon="4.73387">
        <ele>183</ele>
        <time>2018-10-28T09:11:04Z</time>
      </trkpt>
      <trkpt lat="45.88614" lon="4.73387">
        <ele>183</ele>
        <time>2018-10-28T09:11:05Z</time>
      </trkpt>
      <trkpt lat="45.88609" lon="4.73387">
        <ele>183</ele>
        <time>2018-10-28T09:11:06Z</time>
      </trkpt>
      <trkpt lat="45.88603" lon="4.73388">
        <ele>183</ele>
        <time>2018-10-28T09:11:07Z</time>
      </trkpt>
      <trkpt lat="45.88597" lon="4.7339">
        <ele>183</ele>
        <time>2018-10-28T09:11:08Z</time>
      </trkpt>
      <trkpt lat="45.88591" lon="4.73393">
        <ele>183</ele>
        <time>2018-10-28T09:11:09Z</time>
      </trkpt>
      <trkpt lat="45.88585" lon="4.73395">
        <ele>183</ele>
        <time>2018-10-28T09:11:10Z</time>
      </trkpt>
      <trkpt lat="45.88579" lon="4.73396">
        <ele>183</ele>
        <time>2018-10-28T09:11:11Z</time>
      </trkpt>
      <trkpt lat="45.88574" lon="4.73396">
        <ele>183</ele>
        <time>2018-10-28T09:11:12Z</time>
      </trkpt>
      <trkpt lat="45.88568" lon="4.73398">
        <ele>183</ele>
        <time>2018-10-28T09:11:13Z</time>
      </trkpt>
      <trkpt lat="45.88563" lon="4.73399">
        <ele>183</ele>
        <time>2018-10-28T09:11:14Z</time>
      </trkpt>
      <trkpt lat="45.88558" lon="4.73401">
        <ele>183</ele>
        <time>2018-10-28T09:11:15Z</time>
      </trkpt>
      <trkpt lat="45.88552" lon="4.73402">
        <ele>183</ele>
        <time>2018-10-28T09:11:16Z</time>
      </trkpt>
      <trkpt lat="45.88547" lon="4.73404">
        <ele>183</ele>
        <time>2018-10-28T09:11:17Z</time>
      </trkpt>
      <trkpt lat="45.88542" lon="4.73406">
        <ele>183</ele>
        <time>2018-10-28T09:11:18Z</time>
      </trkpt>
      <trkpt lat="45.88535" lon="4.73407">
        <ele>183</ele>
        <time>2018-10-28T09:11:19Z</time>
      </trkpt>
      <trkpt lat="45.88528" lon="4.7341">
        <ele>183</ele>
        <time>2018-10-28T09:11:20Z</time>
      </trkpt>
      <trkpt lat="45.88523" lon="4.73412">
        <ele>183</ele>
        <time>2018-10-28T09:11:21Z</time>
      </trkpt>
      <trkpt lat="45.88516" lon="4.73414">
        <ele>184</ele>
        <time>2018-10-28T09:11:22Z</time>
      </trkpt>
      <trkpt lat="45.88511" lon="4.73417">
        <ele>184</ele>
        <time>2018-10-28T09:11:23Z</time>
      </trkpt>
      <trkpt lat="45.88505" lon="4.73418">
        <ele>184</ele>
        <time>2018-10-28T09:11:24Z</time>
      </trkpt>
      <trkpt lat="45.88498" lon="4.7342">
        <ele>184</ele>
        <time>2018-10-28T09:11:25Z</time>
      </trkpt>
      <trkpt lat="45.88492" lon="4.73421">
        <ele>184</ele>
        <time>2018-10-28T09:11:26Z</time>
      </trkpt>
      <trkpt lat="45.88486" lon="4.73422">
        <ele>184</ele>
        <time>2018-10-28T09:11:27Z</time>
      </trkpt>
      <trkpt lat="45.8848" lon="4.73423">
        <ele>184</ele>
        <time>2018-10-28T09:11:28Z</time>
      </trkpt>
      <trkpt lat="45.88473" lon="4.73426">
        <ele>184</ele>
        <time>2018-10-28T09:11:29Z</time>
      </trkpt>
      <trkpt lat="45.88466" lon="4.73427">
        <ele>184</ele>
        <time>2018-10-28T09:11:30Z</time>
      </trkpt>
      <trkpt lat="45.88461" lon="4.73428">
        <ele>184</ele>
        <time>2018-10-28T09:11:31Z</time>
      </trkpt>
      <trkpt lat="45.88455" lon="4.73429">
        <ele>184</ele>
        <time>2018-10-28T09:11:32Z</time>
      </trkpt>
      <trkpt lat="45.88449" lon="4.7343">
        <ele>184</ele>
        <time>2018-10-28T09:11:33Z</time>
      </trkpt>
      <trkpt lat="45.88443" lon="4.73432">
        <ele>184</ele>
        <time>2018-10-28T09:11:34Z</time>
      </trkpt>
      <trkpt lat="45.88438" lon="4.73434">
        <ele>184</ele>
        <time>2018-10-28T09:11:35Z</time>
      </trkpt>
      <trkpt lat="45.88433" lon="4.73437">
        <ele>184</ele>
        <time>2018-10-28T09:11:36Z</time>
      </trkpt>
      <trkpt lat="45.88427" lon="4.73438">
        <ele>184</ele>
        <time>2018-10-28T09:11:37Z</time>
      </trkpt>
      <trkpt lat="45.88422" lon="4.7344">
        <ele>184</ele>
        <time>2018-10-28T09:11:38Z</time>
      </trkpt>
      <trkpt lat="45.88416" lon="4.73442">
        <ele>184</ele>
        <time>2018-10-28T09:11:39Z</time>
      </trkpt>
      <trkpt lat="45.8841" lon="4.73444">
        <ele>184</ele>
        <time>2018-10-28T09:11:40Z</time>
      </trkpt>
      <trkpt lat="45.88404" lon="4.73446">
        <ele>184</ele>
        <time>2018-10-28T09:11:41Z</time>
      </trkpt>
      <trkpt lat="45.88397" lon="4.73448">
        <ele>184</ele>
        <time>2018-10-28T09:11:42Z</time>
      </trkpt>
      <trkpt lat="45.88392" lon="4.7345">
        <ele>184</ele>
        <time>2018-10-28T09:11:43Z</time>
      </trkpt>
      <trkpt lat="45.88386" lon="4.73453">
        <ele>184</ele>
        <time>2018-10-28T09:11:44Z</time>
      </trkpt>
      <trkpt lat="45.8838" lon="4.73454">
        <ele>184</ele>
        <time>2018-10-28T09:11:45Z</time>
      </trkpt>
      <trkpt lat="45.88373" lon="4.73456">
        <ele>184</ele>
        <time>2018-10-28T09:11:46Z</time>
      </trkpt>
      <trkpt lat="45.88365" lon="4.73457">
        <ele>184</ele>
        <time>2018-10-28T09:11:47Z</time>
      </trkpt>
      <trkpt lat="45.88359" lon="4.73459">
        <ele>184</ele>
        <time>2018-10-28T09:11:48Z</time>
      </trkpt>
      <trkpt lat="45.88353" lon="4.73461">
        <ele>184</ele>
        <time>2018-10-28T09:11:49Z</time>
      </trkpt>
      <trkpt lat="45.88347" lon="4.73463">
        <ele>184</ele>
        <time>2018-10-28T09:11:50Z</time>
      </trkpt>
      <trkpt lat="45.8834" lon="4.73465">
        <ele>184</ele>
        <time>2018-10-28T09:11:51Z</time>
      </trkpt>
      <trkpt lat="45.88333" lon="4.73466">
        <ele>184</ele>
        <time>2018-10-28T09:11:52Z</time>
      </trkpt>
      <trkpt lat="45.88326" lon="4.73468">
        <ele>184</ele>
        <time>2018-10-28T09:11:53Z</time>
      </trkpt>
      <trkpt lat="45.8832" lon="4.7347">
        <ele>184</ele>
        <time>2018-10-28T09:11:54Z</time>
      </trkpt>
      <trkpt lat="45.88313" lon="4.73472">
        <ele>184</ele>
        <time>2018-10-28T09:11:55Z</time>
      </trkpt>
      <trkpt lat="45.88307" lon="4.73474">
        <ele>184</ele>
        <time>2018-10-28T09:11:56Z</time>
      </trkpt>
      <trkpt lat="45.88301" lon="4.73476">
        <ele>184</ele>
        <time>2018-10-28T09:11:57Z</time>
      </trkpt>
      <trkpt lat="45.88295" lon="4.73479">
        <ele>184</ele>
        <time>2018-10-28T09:11:58Z</time>
      </trkpt>
      <trkpt lat="45.88288" lon="4.73483">
        <ele>184</ele>
        <time>2018-10-28T09:11:59Z</time>
      </trkpt>
      <trkpt lat="45.88281" lon="4.73486">
        <ele>184</ele>
        <time>2018-10-28T09:12:00Z</time>
      </trkpt>
      <trkpt lat="45.88276" lon="4.7349">
        <ele>184</ele>
        <time>2018-10-28T09:12:01Z</time>
      </trkpt>
      <trkpt lat="45.8827" lon="4.73494">
        <ele>184</ele>
        <time>2018-10-28T09:12:02Z</time>
      </trkpt>
      <trkpt lat="45.88264" lon="4.73499">
        <ele>185</ele>
        <time>2018-10-28T09:12:03Z</time>
      </trkpt>
      <trkpt lat="45.88259" lon="4.73503">
        <ele>185</ele>
        <time>2018-10-28T09:12:04Z</time>
      </trkpt>
      <trkpt lat="45.88253" lon="4.73506">
        <ele>185</ele>
        <time>2018-10-28T09:12:05Z</time>
      </trkpt>
      <trkpt lat="45.88248" lon="4.7351">
        <ele>185</ele>
        <time>2018-10-28T09:12:06Z</time>
      </trkpt>
      <trkpt lat="45.88241" lon="4.73514">
        <ele>185</ele>
        <time>2018-10-28T09:12:07Z</time>
      </trkpt>
      <trkpt lat="45.88235" lon="4.73518">
        <ele>185</ele>
        <time>2018-10-28T09:12:08Z</time>
      </trkpt>
      <trkpt lat="45.88229" lon="4.73522">
        <ele>185</ele>
        <time>2018-10-28T09:12:09Z</time>
      </trkpt>
      <trkpt lat="45.88224" lon="4.73527">
        <ele>185</ele>
        <time>2018-10-28T09:12:10Z</time>
      </trkpt>
      <trkpt lat="45.88219" lon="4.73531">
        <ele>185</ele>
        <time>2018-10-28T09:12:11Z</time>
      </trkpt>
      <trkpt lat="45.88213" lon="4.73534">
        <ele>185</ele>
        <time>2018-10-28T09:12:12Z</time>
      </trkpt>
      <trkpt lat="45.88207" lon="4.73538">
        <ele>186</ele>
        <time>2018-10-28T09:12:13Z</time>
      </trkpt>
      <trkpt lat="45.882" lon="4.73542">
        <ele>186</ele>
        <time>2018-10-28T09:12:14Z</time>
      </trkpt>
      <trkpt lat="45.88194" lon="4.73546">
        <ele>186</ele>
        <time>2018-10-28T09:12:15Z</time>
      </trkpt>
      <trkpt lat="45.8819" lon="4.73549">
        <ele>186</ele>
        <time>2018-10-28T09:12:16Z</time>
      </trkpt>
      <trkpt lat="45.88183" lon="4.73553">
        <ele>186</ele>
        <time>2018-10-28T09:12:17Z</time>
      </trkpt>
      <trkpt lat="45.88179" lon="4.73558">
        <ele>186</ele>
        <time>2018-10-28T09:12:18Z</time>
      </trkpt>
      <trkpt lat="45.88174" lon="4.73562">
        <ele>186</ele>
        <time>2018-10-28T09:12:19Z</time>
      </trkpt>
      <trkpt lat="45.88168" lon="4.73565">
        <ele>186</ele>
        <time>2018-10-28T09:12:20Z</time>
      </trkpt>
      <trkpt lat="45.88164" lon="4.73569">
        <ele>186</ele>
        <time>2018-10-28T09:12:21Z</time>
      </trkpt>
      <trkpt lat="45.88158" lon="4.73572">
        <ele>186</ele>
        <time>2018-10-28T09:12:22Z</time>
      </trkpt>
      <trkpt lat="45.88153" lon="4.73576">
        <ele>186</ele>
        <time>2018-10-28T09:12:23Z</time>
      </trkpt>
      <trkpt lat="45.88147" lon="4.73578">
        <ele>186</ele>
        <time>2018-10-28T09:12:24Z</time>
      </trkpt>
      <trkpt lat="45.88142" lon="4.73581">
        <ele>186</ele>
        <time>2018-10-28T09:12:25Z</time>
      </trkpt>
      <trkpt lat="45.88137" lon="4.73584">
        <ele>187</ele>
        <time>2018-10-28T09:12:26Z</time>
      </trkpt>
      <trkpt lat="45.88131" lon="4.73587">
        <ele>187</ele>
        <time>2018-10-28T09:12:27Z</time>
      </trkpt>
      <trkpt lat="45.88126" lon="4.73589">
        <ele>187</ele>
        <time>2018-10-28T09:12:28Z</time>
      </trkpt>
      <trkpt lat="45.88121" lon="4.73593">
        <ele>187</ele>
        <time>2018-10-28T09:12:29Z</time>
      </trkpt>
      <trkpt lat="45.88116" lon="4.73597">
        <ele>187</ele>
        <time>2018-10-28T09:12:30Z</time>
      </trkpt>
      <trkpt lat="45.88112" lon="4.736">
        <ele>187</ele>
        <time>2018-10-28T09:12:31Z</time>
      </trkpt>
      <trkpt lat="45.88107" lon="4.73602">
        <ele>188</ele>
        <time>2018-10-28T09:12:32Z</time>
      </trkpt>
      <trkpt lat="45.88102" lon="4.73605">
        <ele>188</ele>
        <time>2018-10-28T09:12:33Z</time>
      </trkpt>
      <trkpt lat="45.88097" lon="4.73608">
        <ele>188</ele>
        <time>2018-10-28T09:12:34Z</time>
      </trkpt>
      <trkpt lat="45.88092" lon="4.73611">
        <ele>188</ele>
        <time>2018-10-28T09:12:35Z</time>
      </trkpt>
      <trkpt lat="45.88088" lon="4.73615">
        <ele>188</ele>
        <time>2018-10-28T09:12:36Z</time>
      </trkpt>
      <trkpt lat="45.88083" lon="4.73618">
        <ele>188</ele>
        <time>2018-10-28T09:12:37Z</time>
      </trkpt>
      <trkpt lat="45.88079" lon="4.73621">
        <ele>189</ele>
        <time>2018-10-28T09:12:38Z</time>
      </trkpt>
      <trkpt lat="45.88074" lon="4.73625">
        <ele>189</ele>
        <time>2018-10-28T09:12:39Z</time>
      </trkpt>
      <trkpt lat="45.88069" lon="4.73627">
        <ele>189</ele>
        <time>2018-10-28T09:12:40Z</time>
      </trkpt>
      <trkpt lat="45.88065" lon="4.73631">
        <ele>189</ele>
        <time>2018-10-28T09:12:41Z</time>
      </trkpt>
      <trkpt lat="45.8806" lon="4.73634">
        <ele>189</ele>
        <time>2018-10-28T09:12:42Z</time>
      </trkpt>
      <trkpt lat="45.88056" lon="4.73638">
        <ele>189</ele>
        <time>2018-10-28T09:12:43Z</time>
      </trkpt>
      <trkpt lat="45.88051" lon="4.73641">
        <ele>189</ele>
        <time>2018-10-28T09:12:44Z</time>
      </trkpt>
      <trkpt lat="45.88047" lon="4.73643">
        <ele>189</ele>
        <time>2018-10-28T09:12:45Z</time>
      </trkpt>
      <trkpt lat="45.88042" lon="4.73646">
        <ele>189</ele>
        <time>2018-10-28T09:12:46Z</time>
      </trkpt>
      <trkpt lat="45.88034" lon="4.73651">
        <ele>189</ele>
        <time>2018-10-28T09:12:48Z</time>
      </trkpt>
      <trkpt lat="45.8803" lon="4.73653">
        <ele>189</ele>
        <time>2018-10-28T09:12:49Z</time>
      </trkpt>
      <trkpt lat="45.88021" lon="4.73656">
        <ele>189</ele>
        <time>2018-10-28T09:12:51Z</time>
      </trkpt>
      <trkpt lat="45.88018" lon="4.73657">
        <ele>189</ele>
        <time>2018-10-28T09:12:52Z</time>
      </trkpt>
      <trkpt lat="45.8801" lon="4.73656">
        <ele>189</ele>
        <time>2018-10-28T09:12:54Z</time>
      </trkpt>
      <trkpt lat="45.88006" lon="4.73656">
        <ele>190</ele>
        <time>2018-10-28T09:12:55Z</time>
      </trkpt>
      <trkpt lat="45.88001" lon="4.73654">
        <ele>190</ele>
        <time>2018-10-28T09:12:56Z</time>
      </trkpt>
      <trkpt lat="45.87995" lon="4.73653">
        <ele>190</ele>
        <time>2018-10-28T09:12:57Z</time>
      </trkpt>
      <trkpt lat="45.8799" lon="4.73649">
        <ele>190</ele>
        <time>2018-10-28T09:12:58Z</time>
      </trkpt>
      <trkpt lat="45.87985" lon="4.73647">
        <ele>190</ele>
        <time>2018-10-28T09:12:59Z</time>
      </trkpt>
      <trkpt lat="45.87978" lon="4.73645">
        <ele>189</ele>
        <time>2018-10-28T09:13:00Z</time>
      </trkpt>
      <trkpt lat="45.87973" lon="4.73644">
        <ele>189</ele>
        <time>2018-10-28T09:13:01Z</time>
      </trkpt>
      <trkpt lat="45.87967" lon="4.73642">
        <ele>189</ele>
        <time>2018-10-28T09:13:02Z</time>
      </trkpt>
      <trkpt lat="45.87962" lon="4.73641">
        <ele>189</ele>
        <time>2018-10-28T09:13:03Z</time>
      </trkpt>
      <trkpt lat="45.87956" lon="4.73638">
        <ele>189</ele>
        <time>2018-10-28T09:13:04Z</time>
      </trkpt>
      <trkpt lat="45.8795" lon="4.73637">
        <ele>189</ele>
        <time>2018-10-28T09:13:05Z</time>
      </trkpt>
      <trkpt lat="45.87944" lon="4.73635">
        <ele>189</ele>
        <time>2018-10-28T09:13:06Z</time>
      </trkpt>
      <trkpt lat="45.87938" lon="4.73634">
        <ele>189</ele>
        <time>2018-10-28T09:13:07Z</time>
      </trkpt>
      <trkpt lat="45.87931" lon="4.73632">
        <ele>189</ele>
        <time>2018-10-28T09:13:08Z</time>
      </trkpt>
      <trkpt lat="45.87925" lon="4.7363">
        <ele>189</ele>
        <time>2018-10-28T09:13:09Z</time>
      </trkpt>
      <trkpt lat="45.87918" lon="4.73628">
        <ele>189</ele>
        <time>2018-10-28T09:13:10Z</time>
      </trkpt>
      <trkpt lat="45.87912" lon="4.73626">
        <ele>190</ele>
        <time>2018-10-28T09:13:11Z</time>
      </trkpt>
      <trkpt lat="45.87906" lon="4.73624">
        <ele>190</ele>
        <time>2018-10-28T09:13:12Z</time>
      </trkpt>
      <trkpt lat="45.879" lon="4.73621">
        <ele>190</ele>
        <time>2018-10-28T09:13:13Z</time>
      </trkpt>
      <trkpt lat="45.87894" lon="4.7362">
        <ele>190</ele>
        <time>2018-10-28T09:13:14Z</time>
      </trkpt>
      <trkpt lat="45.87888" lon="4.73619">
        <ele>190</ele>
        <time>2018-10-28T09:13:15Z</time>
      </trkpt>
      <trkpt lat="45.87883" lon="4.73617">
        <ele>190</ele>
        <time>2018-10-28T09:13:16Z</time>
      </trkpt>
      <trkpt lat="45.87877" lon="4.73616">
        <ele>190</ele>
        <time>2018-10-28T09:13:17Z</time>
      </trkpt>
      <trkpt lat="45.87872" lon="4.73615">
        <ele>190</ele>
        <time>2018-10-28T09:13:18Z</time>
      </trkpt>
      <trkpt lat="45.87867" lon="4.73617">
        <ele>190</ele>
        <time>2018-10-28T09:13:19Z</time>
      </trkpt>
      <trkpt lat="45.87863" lon="4.73619">
        <ele>190</ele>
        <time>2018-10-28T09:13:20Z</time>
      </trkpt>
      <trkpt lat="45.87859" lon="4.73623">
        <ele>190</ele>
        <time>2018-10-28T09:13:21Z</time>
      </trkpt>
      <trkpt lat="45.87854" lon="4.73626">
        <ele>190</ele>
        <time>2018-10-28T09:13:22Z</time>
      </trkpt>
      <trkpt lat="45.87849" lon="4.73628">
        <ele>191</ele>
        <time>2018-10-28T09:13:23Z</time>
      </trkpt>
      <trkpt lat="45.87843" lon="4.73634">
        <ele>191</ele>
        <time>2018-10-28T09:13:25Z</time>
      </trkpt>
      <trkpt lat="45.8784" lon="4.73634">
        <ele>191</ele>
        <time>2018-10-28T09:13:26Z</time>
      </trkpt>
      <trkpt lat="45.87834" lon="4.7363">
        <ele>191</ele>
        <time>2018-10-28T09:13:28Z</time>
      </trkpt>
      <trkpt lat="45.87831" lon="4.73626">
        <ele>190</ele>
        <time>2018-10-28T09:13:29Z</time>
      </trkpt>
      <trkpt lat="45.87829" lon="4.7362">
        <ele>190</ele>
        <time>2018-10-28T09:13:30Z</time>
      </trkpt>
      <trkpt lat="45.87826" lon="4.73614">
        <ele>190</ele>
        <time>2018-10-28T09:13:31Z</time>
      </trkpt>
      <trkpt lat="45.87824" lon="4.73608">
        <ele>190</ele>
        <time>2018-10-28T09:13:32Z</time>
      </trkpt>
      <trkpt lat="45.87822" lon="4.73602">
        <ele>190</ele>
        <time>2018-10-28T09:13:33Z</time>
      </trkpt>
      <trkpt lat="45.8782" lon="4.73595">
        <ele>190</ele>
        <time>2018-10-28T09:13:34Z</time>
      </trkpt>
      <trkpt lat="45.87817" lon="4.73589">
        <ele>190</ele>
        <time>2018-10-28T09:13:35Z</time>
      </trkpt>
      <trkpt lat="45.87814" lon="4.73583">
        <ele>189</ele>
        <time>2018-10-28T09:13:36Z</time>
      </trkpt>
      <trkpt lat="45.87811" lon="4.73575">
        <ele>189</ele>
        <time>2018-10-28T09:13:37Z</time>
      </trkpt>
      <trkpt lat="45.87807" lon="4.73569">
        <ele>189</ele>
        <time>2018-10-28T09:13:38Z</time>
      </trkpt>
      <trkpt lat="45.87804" lon="4.73562">
        <ele>189</ele>
        <time>2018-10-28T09:13:39Z</time>
      </trkpt>
      <trkpt lat="45.87801" lon="4.73555">
        <ele>189</ele>
        <time>2018-10-28T09:13:40Z</time>
      </trkpt>
      <trkpt lat="45.87797" lon="4.73548">
        <ele>189</ele>
        <time>2018-10-28T09:13:41Z</time>
      </trkpt>
      <trkpt lat="45.87793" lon="4.73541">
        <ele>189</ele>
        <time>2018-10-28T09:13:42Z</time>
      </trkpt>
      <trkpt lat="45.87789" lon="4.73534">
        <ele>189</ele>
        <time>2018-10-28T09:13:43Z</time>
      </trkpt>
      <trkpt lat="45.87785" lon="4.73526">
        <ele>189</ele>
        <time>2018-10-28T09:13:44Z</time>
      </trkpt>
      <trkpt lat="45.87782" lon="4.73519">
        <ele>189</ele>
        <time>2018-10-28T09:13:45Z</time>
      </trkpt>
      <trkpt lat="45.87778" lon="4.73512">
        <ele>189</ele>
        <time>2018-10-28T09:13:46Z</time>
      </trkpt>
      <trkpt lat="45.87775" lon="4.73504">
        <ele>189</ele>
        <time>2018-10-28T09:13:47Z</time>
      </trkpt>
      <trkpt lat="45.87771" lon="4.73498">
        <ele>189</ele>
        <time>2018-10-28T09:13:48Z</time>
      </trkpt>
      <trkpt lat="45.87768" lon="4.7349">
        <ele>189</ele>
        <time>2018-10-28T09:13:49Z</time>
      </trkpt>
      <trkpt lat="45.87764" lon="4.73481">
        <ele>188</ele>
        <time>2018-10-28T09:13:50Z</time>
      </trkpt>
      <trkpt lat="45.8776" lon="4.73474">
        <ele>188</ele>
        <time>2018-10-28T09:13:51Z</time>
      </trkpt>
      <trkpt lat="45.87756" lon="4.73467">
        <ele>188</ele>
        <time>2018-10-28T09:13:52Z</time>
      </trkpt>
      <trkpt lat="45.87752" lon="4.73459">
        <ele>188</ele>
        <time>2018-10-28T09:13:53Z</time>
      </trkpt>
      <trkpt lat="45.87749" lon="4.73452">
        <ele>189</ele>
        <time>2018-10-28T09:13:54Z</time>
      </trkpt>
      <trkpt lat="45.87746" lon="4.73444">
        <ele>189</ele>
        <time>2018-10-28T09:13:55Z</time>
      </trkpt>
      <trkpt lat="45.87744" lon="4.73437">
        <ele>188</ele>
        <time>2018-10-28T09:13:56Z</time>
      </trkpt>
      <trkpt lat="45.87741" lon="4.73432">
        <ele>188</ele>
        <time>2018-10-28T09:13:57Z</time>
      </trkpt>
      <trkpt lat="45.87738" lon="4.73425">
        <ele>188</ele>
        <time>2018-10-28T09:13:58Z</time>
      </trkpt>
      <trkpt lat="45.87735" lon="4.73418">
        <ele>188</ele>
        <time>2018-10-28T09:13:59Z</time>
      </trkpt>
      <trkpt lat="45.87732" lon="4.73411">
        <ele>188</ele>
        <time>2018-10-28T09:14:00Z</time>
      </trkpt>
      <trkpt lat="45.87729" lon="4.73403">
        <ele>188</ele>
        <time>2018-10-28T09:14:01Z</time>
      </trkpt>
      <trkpt lat="45.87726" lon="4.73397">
        <ele>188</ele>
        <time>2018-10-28T09:14:02Z</time>
      </trkpt>
      <trkpt lat="45.87723" lon="4.73389">
        <ele>188</ele>
        <time>2018-10-28T09:14:03Z</time>
      </trkpt>
      <trkpt lat="45.8772" lon="4.73383">
        <ele>188</ele>
        <time>2018-10-28T09:14:04Z</time>
      </trkpt>
      <trkpt lat="45.87716" lon="4.73377">
        <ele>187</ele>
        <time>2018-10-28T09:14:05Z</time>
      </trkpt>
      <trkpt lat="45.87713" lon="4.7337">
        <ele>187</ele>
        <time>2018-10-28T09:14:06Z</time>
      </trkpt>
      <trkpt lat="45.8771" lon="4.73363">
        <ele>187</ele>
        <time>2018-10-28T09:14:07Z</time>
      </trkpt>
      <trkpt lat="45.87707" lon="4.73356">
        <ele>187</ele>
        <time>2018-10-28T09:14:08Z</time>
      </trkpt>
      <trkpt lat="45.87703" lon="4.73349">
        <ele>187</ele>
        <time>2018-10-28T09:14:09Z</time>
      </trkpt>
      <trkpt lat="45.877" lon="4.73342">
        <ele>187</ele>
        <time>2018-10-28T09:14:10Z</time>
      </trkpt>
      <trkpt lat="45.87696" lon="4.73334">
        <ele>187</ele>
        <time>2018-10-28T09:14:11Z</time>
      </trkpt>
      <trkpt lat="45.87692" lon="4.73327">
        <ele>188</ele>
        <time>2018-10-28T09:14:12Z</time>
      </trkpt>
      <trkpt lat="45.87689" lon="4.7332">
        <ele>188</ele>
        <time>2018-10-28T09:14:13Z</time>
      </trkpt>
      <trkpt lat="45.87686" lon="4.73313">
        <ele>188</ele>
        <time>2018-10-28T09:14:14Z</time>
      </trkpt>
      <trkpt lat="45.87682" lon="4.73306">
        <ele>188</ele>
        <time>2018-10-28T09:14:15Z</time>
      </trkpt>
      <trkpt lat="45.87678" lon="4.73298">
        <ele>188</ele>
        <time>2018-10-28T09:14:16Z</time>
      </trkpt>
      <trkpt lat="45.87675" lon="4.73291">
        <ele>188</ele>
        <time>2018-10-28T09:14:17Z</time>
      </trkpt>
      <trkpt lat="45.87672" lon="4.73284">
        <ele>188</ele>
        <time>2018-10-28T09:14:18Z</time>
      </trkpt>
      <trkpt lat="45.8767" lon="4.73276">
        <ele>188</ele>
        <time>2018-10-28T09:14:19Z</time>
      </trkpt>
      <trkpt lat="45.87667" lon="4.73269">
        <ele>188</ele>
        <time>2018-10-28T09:14:20Z</time>
      </trkpt>
      <trkpt lat="45.87664" lon="4.73262">
        <ele>189</ele>
        <time>2018-10-28T09:14:21Z</time>
      </trkpt>
      <trkpt lat="45.8766" lon="4.73256">
        <ele>189</ele>
        <time>2018-10-28T09:14:22Z</time>
      </trkpt>
      <trkpt lat="45.87658" lon="4.7325">
        <ele>189</ele>
        <time>2018-10-28T09:14:23Z</time>
      </trkpt>
      <trkpt lat="45.87654" lon="4.73243">
        <ele>188</ele>
        <time>2018-10-28T09:14:24Z</time>
      </trkpt>
      <trkpt lat="45.87652" lon="4.73237">
        <ele>188</ele>
        <time>2018-10-28T09:14:25Z</time>
      </trkpt>
      <trkpt lat="45.87648" lon="4.73231">
        <ele>188</ele>
        <time>2018-10-28T09:14:26Z</time>
      </trkpt>
      <trkpt lat="45.87646" lon="4.73226">
        <ele>188</ele>
        <time>2018-10-28T09:14:27Z</time>
      </trkpt>
      <trkpt lat="45.87643" lon="4.7322">
        <ele>188</ele>
        <time>2018-10-28T09:14:28Z</time>
      </trkpt>
      <trkpt lat="45.8764" lon="4.73214">
        <ele>188</ele>
        <time>2018-10-28T09:14:29Z</time>
      </trkpt>
      <trkpt lat="45.87637" lon="4.73208">
        <ele>188</ele>
        <time>2018-10-28T09:14:30Z</time>
      </trkpt>
      <trkpt lat="45.87634" lon="4.73202">
        <ele>188</ele>
        <time>2018-10-28T09:14:31Z</time>
      </trkpt>
      <trkpt lat="45.87631" lon="4.73194">
        <ele>188</ele>
        <time>2018-10-28T09:14:32Z</time>
      </trkpt>
      <trkpt lat="45.87627" lon="4.73188">
        <ele>188</ele>
        <time>2018-10-28T09:14:33Z</time>
      </trkpt>
      <trkpt lat="45.87624" lon="4.73181">
        <ele>188</ele>
        <time>2018-10-28T09:14:34Z</time>
      </trkpt>
      <trkpt lat="45.87621" lon="4.73174">
        <ele>187</ele>
        <time>2018-10-28T09:14:35Z</time>
      </trkpt>
      <trkpt lat="45.87617" lon="4.73167">
        <ele>187</ele>
        <time>2018-10-28T09:14:36Z</time>
      </trkpt>
      <trkpt lat="45.87614" lon="4.7316">
        <ele>187</ele>
        <time>2018-10-28T09:14:37Z</time>
      </trkpt>
      <trkpt lat="45.87611" lon="4.73153">
        <ele>187</ele>
        <time>2018-10-28T09:14:38Z</time>
      </trkpt>
      <trkpt lat="45.87607" lon="4.73146">
        <ele>187</ele>
        <time>2018-10-28T09:14:39Z</time>
      </trkpt>
      <trkpt lat="45.87602" lon="4.73138">
        <ele>187</ele>
        <time>2018-10-28T09:14:40Z</time>
      </trkpt>
      <trkpt lat="45.87598" lon="4.73131">
        <ele>187</ele>
        <time>2018-10-28T09:14:41Z</time>
      </trkpt>
      <trkpt lat="45.87594" lon="4.73122">
        <ele>188</ele>
        <time>2018-10-28T09:14:42Z</time>
      </trkpt>
      <trkpt lat="45.87589" lon="4.73114">
        <ele>188</ele>
        <time>2018-10-28T09:14:43Z</time>
      </trkpt>
      <trkpt lat="45.87585" lon="4.73106">
        <ele>188</ele>
        <time>2018-10-28T09:14:44Z</time>
      </trkpt>
      <trkpt lat="45.87581" lon="4.73098">
        <ele>188</ele>
        <time>2018-10-28T09:14:45Z</time>
      </trkpt>
      <trkpt lat="45.87577" lon="4.73091">
        <ele>188</ele>
        <time>2018-10-28T09:14:46Z</time>
      </trkpt>
      <trkpt lat="45.87573" lon="4.73084">
        <ele>188</ele>
        <time>2018-10-28T09:14:47Z</time>
      </trkpt>
      <trkpt lat="45.87569" lon="4.73076">
        <ele>188</ele>
        <time>2018-10-28T09:14:48Z</time>
      </trkpt>
      <trkpt lat="45.87567" lon="4.7307">
        <ele>188</ele>
        <time>2018-10-28T09:14:49Z</time>
      </trkpt>
      <trkpt lat="45.87564" lon="4.73062">
        <ele>188</ele>
        <time>2018-10-28T09:14:50Z</time>
      </trkpt>
      <trkpt lat="45.8756" lon="4.73056">
        <ele>188</ele>
        <time>2018-10-28T09:14:51Z</time>
      </trkpt>
      <trkpt lat="45.87558" lon="4.73049">
        <ele>188</ele>
        <time>2018-10-28T09:14:52Z</time>
      </trkpt>
      <trkpt lat="45.87555" lon="4.73042">
        <ele>188</ele>
        <time>2018-10-28T09:14:53Z</time>
      </trkpt>
      <trkpt lat="45.87552" lon="4.73035">
        <ele>188</ele>
        <time>2018-10-28T09:14:54Z</time>
      </trkpt>
      <trkpt lat="45.87548" lon="4.73029">
        <ele>188</ele>
        <time>2018-10-28T09:14:55Z</time>
      </trkpt>
      <trkpt lat="45.87545" lon="4.73022">
        <ele>188</ele>
        <time>2018-10-28T09:14:56Z</time>
      </trkpt>
      <trkpt lat="45.87542" lon="4.73015">
        <ele>188</ele>
        <time>2018-10-28T09:14:57Z</time>
      </trkpt>
      <trkpt lat="45.87539" lon="4.73008">
        <ele>187</ele>
        <time>2018-10-28T09:14:58Z</time>
      </trkpt>
      <trkpt lat="45.87535" lon="4.73001">
        <ele>187</ele>
        <time>2018-10-28T09:14:59Z</time>
      </trkpt>
      <trkpt lat="45.87532" lon="4.72994">
        <ele>187</ele>
        <time>2018-10-28T09:15:00Z</time>
      </trkpt>
      <trkpt lat="45.87528" lon="4.72987">
        <ele>187</ele>
        <time>2018-10-28T09:15:01Z</time>
      </trkpt>
      <trkpt lat="45.87526" lon="4.72981">
        <ele>187</ele>
        <time>2018-10-28T09:15:02Z</time>
      </trkpt>
      <trkpt lat="45.87523" lon="4.72975">
        <ele>187</ele>
        <time>2018-10-28T09:15:03Z</time>
      </trkpt>
      <trkpt lat="45.8752" lon="4.7297">
        <ele>187</ele>
        <time>2018-10-28T09:15:04Z</time>
      </trkpt>
      <trkpt lat="45.87515" lon="4.72965">
        <ele>187</ele>
        <time>2018-10-28T09:15:05Z</time>
      </trkpt>
      <trkpt lat="45.87513" lon="4.72959">
        <ele>187</ele>
        <time>2018-10-28T09:15:06Z</time>
      </trkpt>
      <trkpt lat="45.8751" lon="4.72954">
        <ele>187</ele>
        <time>2018-10-28T09:15:07Z</time>
      </trkpt>
      <trkpt lat="45.87505" lon="4.7295">
        <ele>187</ele>
        <time>2018-10-28T09:15:08Z</time>
      </trkpt>
      <trkpt lat="45.875" lon="4.72945">
        <ele>188</ele>
        <time>2018-10-28T09:15:09Z</time>
      </trkpt>
      <trkpt lat="45.87495" lon="4.72941">
        <ele>188</ele>
        <time>2018-10-28T09:15:10Z</time>
      </trkpt>
      <trkpt lat="45.8749" lon="4.72938">
        <ele>188</ele>
        <time>2018-10-28T09:15:11Z</time>
      </trkpt>
      <trkpt lat="45.87486" lon="4.72934">
        <ele>188</ele>
        <time>2018-10-28T09:15:12Z</time>
      </trkpt>
      <trkpt lat="45.87481" lon="4.72929">
        <ele>188</ele>
        <time>2018-10-28T09:15:13Z</time>
      </trkpt>
      <trkpt lat="45.87478" lon="4.72925">
        <ele>188</ele>
        <time>2018-10-28T09:15:14Z</time>
      </trkpt>
      <trkpt lat="45.87474" lon="4.7292">
        <ele>188</ele>
        <time>2018-10-28T09:15:15Z</time>
      </trkpt>
      <trkpt lat="45.87469" lon="4.72909">
        <ele>188</ele>
        <time>2018-10-28T09:15:17Z</time>
      </trkpt>
      <trkpt lat="45.8747" lon="4.72904">
        <ele>188</ele>
        <time>2018-10-28T09:15:18Z</time>
      </trkpt>
      <trkpt lat="45.87468" lon="4.72893">
        <ele>188</ele>
        <time>2018-10-28T09:15:20Z</time>
      </trkpt>
      <trkpt lat="45.87468" lon="4.72889">
        <ele>188</ele>
        <time>2018-10-28T09:15:21Z</time>
      </trkpt>
      <trkpt lat="45.87465" lon="4.72882">
        <ele>188</ele>
        <time>2018-10-28T09:15:22Z</time>
      </trkpt>
      <trkpt lat="45.87463" lon="4.72876">
        <ele>188</ele>
        <time>2018-10-28T09:15:23Z</time>
      </trkpt>
      <trkpt lat="45.87461" lon="4.72868">
        <ele>188</ele>
        <time>2018-10-28T09:15:24Z</time>
      </trkpt>
      <trkpt lat="45.87458" lon="4.72861">
        <ele>188</ele>
        <time>2018-10-28T09:15:25Z</time>
      </trkpt>
      <trkpt lat="45.87455" lon="4.72854">
        <ele>188</ele>
        <time>2018-10-28T09:15:26Z</time>
      </trkpt>
      <trkpt lat="45.87451" lon="4.72846">
        <ele>188</ele>
        <time>2018-10-28T09:15:27Z</time>
      </trkpt>
      <trkpt lat="45.87448" lon="4.7284">
        <ele>188</ele>
        <time>2018-10-28T09:15:28Z</time>
      </trkpt>
      <trkpt lat="45.87446" lon="4.72833">
        <ele>189</ele>
        <time>2018-10-28T09:15:29Z</time>
      </trkpt>
      <trkpt lat="45.87443" lon="4.72827">
        <ele>189</ele>
        <time>2018-10-28T09:15:30Z</time>
      </trkpt>
      <trkpt lat="45.8744" lon="4.72821">
        <ele>189</ele>
        <time>2018-10-28T09:15:31Z</time>
      </trkpt>
      <trkpt lat="45.87437" lon="4.72815">
        <ele>189</ele>
        <time>2018-10-28T09:15:32Z</time>
      </trkpt>
      <trkpt lat="45.87435" lon="4.72809">
        <ele>189</ele>
        <time>2018-10-28T09:15:33Z</time>
      </trkpt>
      <trkpt lat="45.87431" lon="4.72803">
        <ele>189</ele>
        <time>2018-10-28T09:15:34Z</time>
      </trkpt>
      <trkpt lat="45.87429" lon="4.72797">
        <ele>189</ele>
        <time>2018-10-28T09:15:35Z</time>
      </trkpt>
      <trkpt lat="45.87426" lon="4.7279">
        <ele>189</ele>
        <time>2018-10-28T09:15:36Z</time>
      </trkpt>
      <trkpt lat="45.87422" lon="4.72784">
        <ele>189</ele>
        <time>2018-10-28T09:15:37Z</time>
      </trkpt>
      <trkpt lat="45.87419" lon="4.7278">
        <ele>189</ele>
        <time>2018-10-28T09:15:38Z</time>
      </trkpt>
      <trkpt lat="45.87417" lon="4.72774">
        <ele>189</ele>
        <time>2018-10-28T09:15:39Z</time>
      </trkpt>
      <trkpt lat="45.87414" lon="4.72768">
        <ele>189</ele>
        <time>2018-10-28T09:15:40Z</time>
      </trkpt>
      <trkpt lat="45.87411" lon="4.72762">
        <ele>189</ele>
        <time>2018-10-28T09:15:41Z</time>
      </trkpt>
      <trkpt lat="45.87408" lon="4.72756">
        <ele>189</ele>
        <time>2018-10-28T09:15:42Z</time>
      </trkpt>
      <trkpt lat="45.87405" lon="4.72751">
        <ele>189</ele>
        <time>2018-10-28T09:15:43Z</time>
      </trkpt>
      <trkpt lat="45.87401" lon="4.72746">
        <ele>189</ele>
        <time>2018-10-28T09:15:44Z</time>
      </trkpt>
      <trkpt lat="45.87397" lon="4.72741">
        <ele>189</ele>
        <time>2018-10-28T09:15:45Z</time>
      </trkpt>
      <trkpt lat="45.87393" lon="4.72736">
        <ele>190</ele>
        <time>2018-10-28T09:15:46Z</time>
      </trkpt>
      <trkpt lat="45.87391" lon="4.72729">
        <ele>190</ele>
        <time>2018-10-28T09:15:47Z</time>
      </trkpt>
      <trkpt lat="45.87388" lon="4.72722">
        <ele>190</ele>
        <time>2018-10-28T09:15:48Z</time>
      </trkpt>
      <trkpt lat="45.87387" lon="4.72715">
        <ele>190</ele>
        <time>2018-10-28T09:15:49Z</time>
      </trkpt>
      <trkpt lat="45.87384" lon="4.72707">
        <ele>190</ele>
        <time>2018-10-28T09:15:50Z</time>
      </trkpt>
      <trkpt lat="45.8738" lon="4.72701">
        <ele>190</ele>
        <time>2018-10-28T09:15:51Z</time>
      </trkpt>
      <trkpt lat="45.87376" lon="4.72691">
        <ele>190</ele>
        <time>2018-10-28T09:15:53Z</time>
      </trkpt>
      <trkpt lat="45.87369" lon="4.72684">
        <ele>190</ele>
        <time>2018-10-28T09:15:54Z</time>
      </trkpt>
      <trkpt lat="45.87363" lon="4.72678">
        <ele>190</ele>
        <time>2018-10-28T09:15:55Z</time>
      </trkpt>
      <trkpt lat="45.87357" lon="4.72672">
        <ele>190</ele>
        <time>2018-10-28T09:15:56Z</time>
      </trkpt>
      <trkpt lat="45.87351" lon="4.72667">
        <ele>190</ele>
        <time>2018-10-28T09:15:57Z</time>
      </trkpt>
      <trkpt lat="45.87345" lon="4.72663">
        <ele>190</ele>
        <time>2018-10-28T09:15:58Z</time>
      </trkpt>
      <trkpt lat="45.8734" lon="4.72658">
        <ele>190</ele>
        <time>2018-10-28T09:15:59Z</time>
      </trkpt>
      <trkpt lat="45.87336" lon="4.72653">
        <ele>190</ele>
        <time>2018-10-28T09:16:00Z</time>
      </trkpt>
      <trkpt lat="45.87331" lon="4.72647">
        <ele>192</ele>
        <time>2018-10-28T09:16:01Z</time>
      </trkpt>
      <trkpt lat="45.87327" lon="4.72641">
        <ele>192</ele>
        <time>2018-10-28T09:16:02Z</time>
      </trkpt>
      <trkpt lat="45.8732" lon="4.72634">
        <ele>193</ele>
        <time>2018-10-28T09:16:04Z</time>
      </trkpt>
      <trkpt lat="45.87316" lon="4.7263">
        <ele>193</ele>
        <time>2018-10-28T09:16:05Z</time>
      </trkpt>
      <trkpt lat="45.87312" lon="4.72624">
        <ele>193</ele>
        <time>2018-10-28T09:16:06Z</time>
      </trkpt>
      <trkpt lat="45.87308" lon="4.72621">
        <ele>193</ele>
        <time>2018-10-28T09:16:07Z</time>
      </trkpt>
      <trkpt lat="45.87304" lon="4.72617">
        <ele>193</ele>
        <time>2018-10-28T09:16:08Z</time>
      </trkpt>
      <trkpt lat="45.87298" lon="4.72613">
        <ele>194</ele>
        <time>2018-10-28T09:16:09Z</time>
      </trkpt>
      <trkpt lat="45.87293" lon="4.72603">
        <ele>194</ele>
        <time>2018-10-28T09:16:11Z</time>
      </trkpt>
      <trkpt lat="45.8729" lon="4.72599">
        <ele>194</ele>
        <time>2018-10-28T09:16:12Z</time>
      </trkpt>
      <trkpt lat="45.87286" lon="4.72593">
        <ele>194</ele>
        <time>2018-10-28T09:16:13Z</time>
      </trkpt>
      <trkpt lat="45.87283" lon="4.72588">
        <ele>194</ele>
        <time>2018-10-28T09:16:14Z</time>
      </trkpt>
      <trkpt lat="45.87277" lon="4.7258">
        <ele>194</ele>
        <time>2018-10-28T09:16:16Z</time>
      </trkpt>
      <trkpt lat="45.87274" lon="4.72576">
        <ele>194</ele>
        <time>2018-10-28T09:16:17Z</time>
      </trkpt>
      <trkpt lat="45.87269" lon="4.72572">
        <ele>195</ele>
        <time>2018-10-28T09:16:18Z</time>
      </trkpt>
      <trkpt lat="45.87264" lon="4.72568">
        <ele>195</ele>
        <time>2018-10-28T09:16:19Z</time>
      </trkpt>
      <trkpt lat="45.87259" lon="4.72557">
        <ele>194</ele>
        <time>2018-10-28T09:16:22Z</time>
      </trkpt>
      <trkpt lat="45.87258" lon="4.72555">
        <ele>194</ele>
        <time>2018-10-28T09:16:23Z</time>
      </trkpt>
      <trkpt lat="45.87255" lon="4.72544">
        <ele>194</ele>
        <time>2018-10-28T09:16:26Z</time>
      </trkpt>
      <trkpt lat="45.87255" lon="4.72541">
        <ele>194</ele>
        <time>2018-10-28T09:16:27Z</time>
      </trkpt>
      <trkpt lat="45.87253" lon="4.72531">
        <ele>193</ele>
        <time>2018-10-28T09:16:30Z</time>
      </trkpt>
      <trkpt lat="45.8725" lon="4.72521">
        <ele>193</ele>
        <time>2018-10-28T09:16:31Z</time>
      </trkpt>
      <trkpt lat="45.87248" lon="4.72515">
        <ele>195</ele>
        <time>2018-10-28T09:16:32Z</time>
      </trkpt>
      <trkpt lat="45.87243" lon="4.72512">
        <ele>195</ele>
        <time>2018-10-28T09:16:33Z</time>
      </trkpt>
      <trkpt lat="45.87238" lon="4.72502">
        <ele>195</ele>
        <time>2018-10-28T09:16:36Z</time>
      </trkpt>
      <trkpt lat="45.87233" lon="4.72496">
        <ele>194</ele>
        <time>2018-10-28T09:16:37Z</time>
      </trkpt>
      <trkpt lat="45.87228" lon="4.72488">
        <ele>194</ele>
        <time>2018-10-28T09:16:39Z</time>
      </trkpt>
      <trkpt lat="45.87224" lon="4.72482">
        <ele>194</ele>
        <time>2018-10-28T09:16:40Z</time>
      </trkpt>
      <trkpt lat="45.8722" lon="4.72475">
        <ele>194</ele>
        <time>2018-10-28T09:16:42Z</time>
      </trkpt>
      <trkpt lat="45.87217" lon="4.7247">
        <ele>194</ele>
        <time>2018-10-28T09:16:43Z</time>
      </trkpt>
      <trkpt lat="45.87212" lon="4.72463">
        <ele>194</ele>
        <time>2018-10-28T09:16:45Z</time>
      </trkpt>
      <trkpt lat="45.87209" lon="4.72457">
        <ele>194</ele>
        <time>2018-10-28T09:16:46Z</time>
      </trkpt>
      <trkpt lat="45.87205" lon="4.7245">
        <ele>194</ele>
        <time>2018-10-28T09:16:48Z</time>
      </trkpt>
      <trkpt lat="45.87201" lon="4.72445">
        <ele>194</ele>
        <time>2018-10-28T09:16:49Z</time>
      </trkpt>
      <trkpt lat="45.87195" lon="4.72439">
        <ele>194</ele>
        <time>2018-10-28T09:16:51Z</time>
      </trkpt>
      <trkpt lat="45.87192" lon="4.72433">
        <ele>194</ele>
        <time>2018-10-28T09:16:52Z</time>
      </trkpt>
      <trkpt lat="45.87187" lon="4.72426">
        <ele>194</ele>
        <time>2018-10-28T09:16:55Z</time>
      </trkpt>
      <trkpt lat="45.87185" lon="4.72423">
        <ele>194</ele>
        <time>2018-10-28T09:16:56Z</time>
      </trkpt>
      <trkpt lat="45.87181" lon="4.72418">
        <ele>194</ele>
        <time>2018-10-28T09:16:58Z</time>
      </trkpt>
      <trkpt lat="45.87175" lon="4.72411">
        <ele>192</ele>
        <time>2018-10-28T09:16:59Z</time>
      </trkpt>
      <trkpt lat="45.87171" lon="4.72401">
        <ele>192</ele>
        <time>2018-10-28T09:17:01Z</time>
      </trkpt>
      <trkpt lat="45.87168" lon="4.72395">
        <ele>191</ele>
        <time>2018-10-28T09:17:02Z</time>
      </trkpt>
      <trkpt lat="45.87164" lon="4.72385">
        <ele>197</ele>
        <time>2018-10-28T09:17:04Z</time>
      </trkpt>
      <trkpt lat="45.87162" lon="4.7238">
        <ele>197</ele>
        <time>2018-10-28T09:17:05Z</time>
      </trkpt>
      <trkpt lat="45.8716" lon="4.72374">
        <ele>197</ele>
        <time>2018-10-28T09:17:06Z</time>
      </trkpt>
      <trkpt lat="45.87157" lon="4.72368">
        <ele>197</ele>
        <time>2018-10-28T09:17:07Z</time>
      </trkpt>
      <trkpt lat="45.87154" lon="4.72361">
        <ele>196</ele>
        <time>2018-10-28T09:17:08Z</time>
      </trkpt>
      <trkpt lat="45.87151" lon="4.72355">
        <ele>196</ele>
        <time>2018-10-28T09:17:09Z</time>
      </trkpt>
      <trkpt lat="45.87149" lon="4.72349">
        <ele>196</ele>
        <time>2018-10-28T09:17:10Z</time>
      </trkpt>
      <trkpt lat="45.87146" lon="4.72343">
        <ele>196</ele>
        <time>2018-10-28T09:17:11Z</time>
      </trkpt>
      <trkpt lat="45.87144" lon="4.72336">
        <ele>196</ele>
        <time>2018-10-28T09:17:12Z</time>
      </trkpt>
      <trkpt lat="45.87141" lon="4.72332">
        <ele>194</ele>
        <time>2018-10-28T09:17:13Z</time>
      </trkpt>
      <trkpt lat="45.87137" lon="4.72321">
        <ele>195</ele>
        <time>2018-10-28T09:17:15Z</time>
      </trkpt>
      <trkpt lat="45.87135" lon="4.72316">
        <ele>195</ele>
        <time>2018-10-28T09:17:16Z</time>
      </trkpt>
      <trkpt lat="45.87132" lon="4.7231">
        <ele>196</ele>
        <time>2018-10-28T09:17:17Z</time>
      </trkpt>
      <trkpt lat="45.87129" lon="4.72303">
        <ele>196</ele>
        <time>2018-10-28T09:17:18Z</time>
      </trkpt>
      <trkpt lat="45.87125" lon="4.72297">
        <ele>196</ele>
        <time>2018-10-28T09:17:19Z</time>
      </trkpt>
      <trkpt lat="45.87121" lon="4.72289">
        <ele>196</ele>
        <time>2018-10-28T09:17:20Z</time>
      </trkpt>
      <trkpt lat="45.87116" lon="4.72285">
        <ele>197</ele>
        <time>2018-10-28T09:17:21Z</time>
      </trkpt>
      <trkpt lat="45.87111" lon="4.72278">
        <ele>197</ele>
        <time>2018-10-28T09:17:22Z</time>
      </trkpt>
      <trkpt lat="45.87107" lon="4.72272">
        <ele>197</ele>
        <time>2018-10-28T09:17:23Z</time>
      </trkpt>
      <trkpt lat="45.87104" lon="4.72267">
        <ele>197</ele>
        <time>2018-10-28T09:17:24Z</time>
      </trkpt>
      <trkpt lat="45.87099" lon="4.72262">
        <ele>197</ele>
        <time>2018-10-28T09:17:25Z</time>
      </trkpt>
      <trkpt lat="45.87095" lon="4.72257">
        <ele>198</ele>
        <time>2018-10-28T09:17:26Z</time>
      </trkpt>
      <trkpt lat="45.8709" lon="4.72252">
        <ele>198</ele>
        <time>2018-10-28T09:17:27Z</time>
      </trkpt>
      <trkpt lat="45.87087" lon="4.72247">
        <ele>198</ele>
        <time>2018-10-28T09:17:28Z</time>
      </trkpt>
      <trkpt lat="45.87082" lon="4.72241">
        <ele>199</ele>
        <time>2018-10-28T09:17:29Z</time>
      </trkpt>
      <trkpt lat="45.87077" lon="4.72236">
        <ele>200</ele>
        <time>2018-10-28T09:17:30Z</time>
      </trkpt>
      <trkpt lat="45.87072" lon="4.72232">
        <ele>200</ele>
        <time>2018-10-28T09:17:31Z</time>
      </trkpt>
      <trkpt lat="45.87068" lon="4.72227">
        <ele>200</ele>
        <time>2018-10-28T09:17:32Z</time>
      </trkpt>
      <trkpt lat="45.87063" lon="4.72223">
        <ele>200</ele>
        <time>2018-10-28T09:17:33Z</time>
      </trkpt>
      <trkpt lat="45.87059" lon="4.72219">
        <ele>200</ele>
        <time>2018-10-28T09:17:34Z</time>
      </trkpt>
      <trkpt lat="45.87054" lon="4.72216">
        <ele>200</ele>
        <time>2018-10-28T09:17:35Z</time>
      </trkpt>
      <trkpt lat="45.87049" lon="4.72211">
        <ele>200</ele>
        <time>2018-10-28T09:17:36Z</time>
      </trkpt>
      <trkpt lat="45.87043" lon="4.72206">
        <ele>200</ele>
        <time>2018-10-28T09:17:37Z</time>
      </trkpt>
      <trkpt lat="45.87038" lon="4.72202">
        <ele>201</ele>
        <time>2018-10-28T09:17:38Z</time>
      </trkpt>
      <trkpt lat="45.87033" lon="4.72198">
        <ele>201</ele>
        <time>2018-10-28T09:17:39Z</time>
      </trkpt>
      <trkpt lat="45.87028" lon="4.72195">
        <ele>201</ele>
        <time>2018-10-28T09:17:40Z</time>
      </trkpt>
      <trkpt lat="45.87021" lon="4.7219">
        <ele>201</ele>
        <time>2018-10-28T09:17:41Z</time>
      </trkpt>
      <trkpt lat="45.87015" lon="4.72188">
        <ele>201</ele>
        <time>2018-10-28T09:17:42Z</time>
      </trkpt>
      <trkpt lat="45.8701" lon="4.72185">
        <ele>201</ele>
        <time>2018-10-28T09:17:43Z</time>
      </trkpt>
      <trkpt lat="45.87004" lon="4.7218">
        <ele>201</ele>
        <time>2018-10-28T09:17:44Z</time>
      </trkpt>
      <trkpt lat="45.86999" lon="4.72176">
        <ele>205</ele>
        <time>2018-10-28T09:17:45Z</time>
      </trkpt>
      <trkpt lat="45.86993" lon="4.72174">
        <ele>205</ele>
        <time>2018-10-28T09:17:46Z</time>
      </trkpt>
      <trkpt lat="45.86987" lon="4.7217">
        <ele>206</ele>
        <time>2018-10-28T09:17:47Z</time>
      </trkpt>
      <trkpt lat="45.86981" lon="4.72165">
        <ele>201</ele>
        <time>2018-10-28T09:17:48Z</time>
      </trkpt>
      <trkpt lat="45.86977" lon="4.72162">
        <ele>201</ele>
        <time>2018-10-28T09:17:49Z</time>
      </trkpt>
      <trkpt lat="45.86972" lon="4.72158">
        <ele>201</ele>
        <time>2018-10-28T09:17:50Z</time>
      </trkpt>
      <trkpt lat="45.86967" lon="4.72156">
        <ele>201</ele>
        <time>2018-10-28T09:17:51Z</time>
      </trkpt>
      <trkpt lat="45.86961" lon="4.72153">
        <ele>201</ele>
        <time>2018-10-28T09:17:52Z</time>
      </trkpt>
      <trkpt lat="45.86955" lon="4.72149">
        <ele>201</ele>
        <time>2018-10-28T09:17:53Z</time>
      </trkpt>
      <trkpt lat="45.86949" lon="4.72146">
        <ele>201</ele>
        <time>2018-10-28T09:17:54Z</time>
      </trkpt>
      <trkpt lat="45.86943" lon="4.72142">
        <ele>202</ele>
        <time>2018-10-28T09:17:55Z</time>
      </trkpt>
      <trkpt lat="45.86938" lon="4.72139">
        <ele>201</ele>
        <time>2018-10-28T09:17:56Z</time>
      </trkpt>
      <trkpt lat="45.86932" lon="4.72135">
        <ele>201</ele>
        <time>2018-10-28T09:17:57Z</time>
      </trkpt>
      <trkpt lat="45.86926" lon="4.72132">
        <ele>201</ele>
        <time>2018-10-28T09:17:58Z</time>
      </trkpt>
      <trkpt lat="45.8692" lon="4.72128">
        <ele>201</ele>
        <time>2018-10-28T09:17:59Z</time>
      </trkpt>
      <trkpt lat="45.86913" lon="4.72126">
        <ele>203</ele>
        <time>2018-10-28T09:18:00Z</time>
      </trkpt>
      <trkpt lat="45.86907" lon="4.72124">
        <ele>202</ele>
        <time>2018-10-28T09:18:01Z</time>
      </trkpt>
      <trkpt lat="45.869" lon="4.72121">
        <ele>202</ele>
        <time>2018-10-28T09:18:02Z</time>
      </trkpt>
      <trkpt lat="45.86895" lon="4.72119">
        <ele>201</ele>
        <time>2018-10-28T09:18:03Z</time>
      </trkpt>
      <trkpt lat="45.86888" lon="4.72115">
        <ele>201</ele>
        <time>2018-10-28T09:18:04Z</time>
      </trkpt>
      <trkpt lat="45.86882" lon="4.72113">
        <ele>201</ele>
        <time>2018-10-28T09:18:05Z</time>
      </trkpt>
      <trkpt lat="45.86877" lon="4.72113">
        <ele>201</ele>
        <time>2018-10-28T09:18:06Z</time>
      </trkpt>
      <trkpt lat="45.86871" lon="4.72111">
        <ele>201</ele>
        <time>2018-10-28T09:18:07Z</time>
      </trkpt>
      <trkpt lat="45.86866" lon="4.72109">
        <ele>201</ele>
        <time>2018-10-28T09:18:08Z</time>
      </trkpt>
      <trkpt lat="45.8686" lon="4.72107">
        <ele>200</ele>
        <time>2018-10-28T09:18:09Z</time>
      </trkpt>
      <trkpt lat="45.86854" lon="4.72104">
        <ele>200</ele>
        <time>2018-10-28T09:18:10Z</time>
      </trkpt>
      <trkpt lat="45.86848" lon="4.72101">
        <ele>199</ele>
        <time>2018-10-28T09:18:11Z</time>
      </trkpt>
      <trkpt lat="45.86842" lon="4.72098">
        <ele>198</ele>
        <time>2018-10-28T09:18:12Z</time>
      </trkpt>
      <trkpt lat="45.86836" lon="4.72095">
        <ele>197</ele>
        <time>2018-10-28T09:18:13Z</time>
      </trkpt>
      <trkpt lat="45.86831" lon="4.72095">
        <ele>198</ele>
        <time>2018-10-28T09:18:14Z</time>
      </trkpt>
      <trkpt lat="45.86824" lon="4.72092">
        <ele>198</ele>
        <time>2018-10-28T09:18:15Z</time>
      </trkpt>
      <trkpt lat="45.86817" lon="4.72089">
        <ele>199</ele>
        <time>2018-10-28T09:18:16Z</time>
      </trkpt>
      <trkpt lat="45.86811" lon="4.72087">
        <ele>200</ele>
        <time>2018-10-28T09:18:17Z</time>
      </trkpt>
      <trkpt lat="45.86805" lon="4.72083">
        <ele>194</ele>
        <time>2018-10-28T09:18:18Z</time>
      </trkpt>
      <trkpt lat="45.86798" lon="4.72081">
        <ele>194</ele>
        <time>2018-10-28T09:18:19Z</time>
      </trkpt>
      <trkpt lat="45.86793" lon="4.72079">
        <ele>194</ele>
        <time>2018-10-28T09:18:20Z</time>
      </trkpt>
      <trkpt lat="45.86787" lon="4.72076">
        <ele>194</ele>
        <time>2018-10-28T09:18:21Z</time>
      </trkpt>
      <trkpt lat="45.86781" lon="4.72074">
        <ele>194</ele>
        <time>2018-10-28T09:18:22Z</time>
      </trkpt>
      <trkpt lat="45.86776" lon="4.72072">
        <ele>195</ele>
        <time>2018-10-28T09:18:23Z</time>
      </trkpt>
      <trkpt lat="45.8677" lon="4.72069">
        <ele>195</ele>
        <time>2018-10-28T09:18:24Z</time>
      </trkpt>
      <trkpt lat="45.86765" lon="4.72066">
        <ele>195</ele>
        <time>2018-10-28T09:18:25Z</time>
      </trkpt>
      <trkpt lat="45.8676" lon="4.72063">
        <ele>195</ele>
        <time>2018-10-28T09:18:26Z</time>
      </trkpt>
      <trkpt lat="45.86755" lon="4.72061">
        <ele>195</ele>
        <time>2018-10-28T09:18:27Z</time>
      </trkpt>
      <trkpt lat="45.86749" lon="4.72058">
        <ele>197</ele>
        <time>2018-10-28T09:18:28Z</time>
      </trkpt>
      <trkpt lat="45.86744" lon="4.72057">
        <ele>197</ele>
        <time>2018-10-28T09:18:29Z</time>
      </trkpt>
      <trkpt lat="45.86738" lon="4.72054">
        <ele>197</ele>
        <time>2018-10-28T09:18:30Z</time>
      </trkpt>
      <trkpt lat="45.86733" lon="4.72051">
        <ele>197</ele>
        <time>2018-10-28T09:18:31Z</time>
      </trkpt>
      <trkpt lat="45.86727" lon="4.72047">
        <ele>197</ele>
        <time>2018-10-28T09:18:32Z</time>
      </trkpt>
      <trkpt lat="45.86721" lon="4.72044">
        <ele>197</ele>
        <time>2018-10-28T09:18:33Z</time>
      </trkpt>
      <trkpt lat="45.86718" lon="4.72041">
        <ele>197</ele>
        <time>2018-10-28T09:18:34Z</time>
      </trkpt>
      <trkpt lat="45.86713" lon="4.72038">
        <ele>197</ele>
        <time>2018-10-28T09:18:35Z</time>
      </trkpt>
      <trkpt lat="45.8671" lon="4.72034">
        <ele>197</ele>
        <time>2018-10-28T09:18:36Z</time>
      </trkpt>
      <trkpt lat="45.86707" lon="4.72029">
        <ele>197</ele>
        <time>2018-10-28T09:18:37Z</time>
      </trkpt>
      <trkpt lat="45.86699" lon="4.72025">
        <ele>197</ele>
        <time>2018-10-28T09:18:38Z</time>
      </trkpt>
      <trkpt lat="45.86695" lon="4.72022">
        <ele>197</ele>
        <time>2018-10-28T09:18:39Z</time>
      </trkpt>
      <trkpt lat="45.86689" lon="4.72018">
        <ele>196</ele>
        <time>2018-10-28T09:18:40Z</time>
      </trkpt>
      <trkpt lat="45.86683" lon="4.72014">
        <ele>196</ele>
        <time>2018-10-28T09:18:41Z</time>
      </trkpt>
      <trkpt lat="45.86677" lon="4.72009">
        <ele>196</ele>
        <time>2018-10-28T09:18:42Z</time>
      </trkpt>
      <trkpt lat="45.86671" lon="4.72005">
        <ele>196</ele>
        <time>2018-10-28T09:18:43Z</time>
      </trkpt>
      <trkpt lat="45.86666" lon="4.72002">
        <ele>195</ele>
        <time>2018-10-28T09:18:44Z</time>
      </trkpt>
      <trkpt lat="45.86661" lon="4.71997">
        <ele>195</ele>
        <time>2018-10-28T09:18:45Z</time>
      </trkpt>
      <trkpt lat="45.86655" lon="4.71992">
        <ele>195</ele>
        <time>2018-10-28T09:18:46Z</time>
      </trkpt>
      <trkpt lat="45.86649" lon="4.71988">
        <ele>195</ele>
        <time>2018-10-28T09:18:47Z</time>
      </trkpt>
      <trkpt lat="45.86643" lon="4.71983">
        <ele>195</ele>
        <time>2018-10-28T09:18:48Z</time>
      </trkpt>
      <trkpt lat="45.86638" lon="4.71978">
        <ele>195</ele>
        <time>2018-10-28T09:18:49Z</time>
      </trkpt>
      <trkpt lat="45.86633" lon="4.71974">
        <ele>195</ele>
        <time>2018-10-28T09:18:50Z</time>
      </trkpt>
      <trkpt lat="45.86626" lon="4.71969">
        <ele>195</ele>
        <time>2018-10-28T09:18:51Z</time>
      </trkpt>
      <trkpt lat="45.8662" lon="4.71964">
        <ele>195</ele>
        <time>2018-10-28T09:18:52Z</time>
      </trkpt>
      <trkpt lat="45.86613" lon="4.71958">
        <ele>194</ele>
        <time>2018-10-28T09:18:53Z</time>
      </trkpt>
      <trkpt lat="45.86608" lon="4.71953">
        <ele>194</ele>
        <time>2018-10-28T09:18:54Z</time>
      </trkpt>
      <trkpt lat="45.86602" lon="4.71948">
        <ele>194</ele>
        <time>2018-10-28T09:18:55Z</time>
      </trkpt>
      <trkpt lat="45.86596" lon="4.71943">
        <ele>194</ele>
        <time>2018-10-28T09:18:56Z</time>
      </trkpt>
      <trkpt lat="45.8659" lon="4.7194">
        <ele>194</ele>
        <time>2018-10-28T09:18:57Z</time>
      </trkpt>
      <trkpt lat="45.86585" lon="4.71936">
        <ele>194</ele>
        <time>2018-10-28T09:18:58Z</time>
      </trkpt>
      <trkpt lat="45.8658" lon="4.71931">
        <ele>195</ele>
        <time>2018-10-28T09:18:59Z</time>
      </trkpt>
      <trkpt lat="45.86575" lon="4.71927">
        <ele>195</ele>
        <time>2018-10-28T09:19:00Z</time>
      </trkpt>
      <trkpt lat="45.8657" lon="4.71925">
        <ele>195</ele>
        <time>2018-10-28T09:19:01Z</time>
      </trkpt>
      <trkpt lat="45.86565" lon="4.71921">
        <ele>195</ele>
        <time>2018-10-28T09:19:02Z</time>
      </trkpt>
      <trkpt lat="45.86561" lon="4.71917">
        <ele>196</ele>
        <time>2018-10-28T09:19:03Z</time>
      </trkpt>
      <trkpt lat="45.86557" lon="4.71914">
        <ele>195</ele>
        <time>2018-10-28T09:19:04Z</time>
      </trkpt>
      <trkpt lat="45.86551" lon="4.71911">
        <ele>195</ele>
        <time>2018-10-28T09:19:05Z</time>
      </trkpt>
      <trkpt lat="45.86546" lon="4.71906">
        <ele>195</ele>
        <time>2018-10-28T09:19:06Z</time>
      </trkpt>
      <trkpt lat="45.8654" lon="4.71902">
        <ele>195</ele>
        <time>2018-10-28T09:19:07Z</time>
      </trkpt>
      <trkpt lat="45.86536" lon="4.71897">
        <ele>195</ele>
        <time>2018-10-28T09:19:08Z</time>
      </trkpt>
      <trkpt lat="45.8653" lon="4.71894">
        <ele>195</ele>
        <time>2018-10-28T09:19:09Z</time>
      </trkpt>
      <trkpt lat="45.86524" lon="4.7189">
        <ele>195</ele>
        <time>2018-10-28T09:19:10Z</time>
      </trkpt>
      <trkpt lat="45.86519" lon="4.71885">
        <ele>195</ele>
        <time>2018-10-28T09:19:11Z</time>
      </trkpt>
      <trkpt lat="45.86514" lon="4.7188">
        <ele>195</ele>
        <time>2018-10-28T09:19:12Z</time>
      </trkpt>
      <trkpt lat="45.8651" lon="4.71876">
        <ele>195</ele>
        <time>2018-10-28T09:19:13Z</time>
      </trkpt>
      <trkpt lat="45.86505" lon="4.71871">
        <ele>195</ele>
        <time>2018-10-28T09:19:14Z</time>
      </trkpt>
      <trkpt lat="45.86499" lon="4.71867">
        <ele>198</ele>
        <time>2018-10-28T09:19:15Z</time>
      </trkpt>
      <trkpt lat="45.86493" lon="4.71863">
        <ele>198</ele>
        <time>2018-10-28T09:19:16Z</time>
      </trkpt>
      <trkpt lat="45.86487" lon="4.71859">
        <ele>198</ele>
        <time>2018-10-28T09:19:17Z</time>
      </trkpt>
      <trkpt lat="45.86482" lon="4.71855">
        <ele>198</ele>
        <time>2018-10-28T09:19:18Z</time>
      </trkpt>
      <trkpt lat="45.86478" lon="4.71852">
        <ele>198</ele>
        <time>2018-10-28T09:19:19Z</time>
      </trkpt>
      <trkpt lat="45.86473" lon="4.71846">
        <ele>199</ele>
        <time>2018-10-28T09:19:20Z</time>
      </trkpt>
      <trkpt lat="45.86467" lon="4.71841">
        <ele>199</ele>
        <time>2018-10-28T09:19:21Z</time>
      </trkpt>
      <trkpt lat="45.86462" lon="4.71837">
        <ele>199</ele>
        <time>2018-10-28T09:19:22Z</time>
      </trkpt>
      <trkpt lat="45.86457" lon="4.71833">
        <ele>197</ele>
        <time>2018-10-28T09:19:23Z</time>
      </trkpt>
      <trkpt lat="45.86452" lon="4.71828">
        <ele>197</ele>
        <time>2018-10-28T09:19:24Z</time>
      </trkpt>
      <trkpt lat="45.86447" lon="4.71823">
        <ele>197</ele>
        <time>2018-10-28T09:19:25Z</time>
      </trkpt>
      <trkpt lat="45.86441" lon="4.71819">
        <ele>197</ele>
        <time>2018-10-28T09:19:26Z</time>
      </trkpt>
      <trkpt lat="45.86435" lon="4.71815">
        <ele>198</ele>
        <time>2018-10-28T09:19:27Z</time>
      </trkpt>
      <trkpt lat="45.8643" lon="4.71811">
        <ele>198</ele>
        <time>2018-10-28T09:19:28Z</time>
      </trkpt>
      <trkpt lat="45.86424" lon="4.71807">
        <ele>197</ele>
        <time>2018-10-28T09:19:29Z</time>
      </trkpt>
      <trkpt lat="45.86419" lon="4.71803">
        <ele>197</ele>
        <time>2018-10-28T09:19:30Z</time>
      </trkpt>
      <trkpt lat="45.86413" lon="4.71798">
        <ele>199</ele>
        <time>2018-10-28T09:19:31Z</time>
      </trkpt>
      <trkpt lat="45.86408" lon="4.71795">
        <ele>199</ele>
        <time>2018-10-28T09:19:32Z</time>
      </trkpt>
      <trkpt lat="45.86403" lon="4.7179">
        <ele>198</ele>
        <time>2018-10-28T09:19:33Z</time>
      </trkpt>
      <trkpt lat="45.86397" lon="4.71786">
        <ele>198</ele>
        <time>2018-10-28T09:19:34Z</time>
      </trkpt>
      <trkpt lat="45.86391" lon="4.7178">
        <ele>198</ele>
        <time>2018-10-28T09:19:35Z</time>
      </trkpt>
      <trkpt lat="45.86385" lon="4.71776">
        <ele>198</ele>
        <time>2018-10-28T09:19:36Z</time>
      </trkpt>
      <trkpt lat="45.8638" lon="4.71771">
        <ele>198</ele>
        <time>2018-10-28T09:19:37Z</time>
      </trkpt>
      <trkpt lat="45.86375" lon="4.71767">
        <ele>198</ele>
        <time>2018-10-28T09:19:38Z</time>
      </trkpt>
      <trkpt lat="45.8637" lon="4.71763">
        <ele>198</ele>
        <time>2018-10-28T09:19:39Z</time>
      </trkpt>
      <trkpt lat="45.86365" lon="4.7176">
        <ele>198</ele>
        <time>2018-10-28T09:19:40Z</time>
      </trkpt>
      <trkpt lat="45.8636" lon="4.71757">
        <ele>198</ele>
        <time>2018-10-28T09:19:41Z</time>
      </trkpt>
      <trkpt lat="45.86355" lon="4.71753">
        <ele>197</ele>
        <time>2018-10-28T09:19:42Z</time>
      </trkpt>
      <trkpt lat="45.8635" lon="4.71748">
        <ele>195</ele>
        <time>2018-10-28T09:19:43Z</time>
      </trkpt>
      <trkpt lat="45.86344" lon="4.71745">
        <ele>195</ele>
        <time>2018-10-28T09:19:44Z</time>
      </trkpt>
      <trkpt lat="45.86339" lon="4.71741">
        <ele>195</ele>
        <time>2018-10-28T09:19:45Z</time>
      </trkpt>
      <trkpt lat="45.86333" lon="4.71736">
        <ele>196</ele>
        <time>2018-10-28T09:19:46Z</time>
      </trkpt>
      <trkpt lat="45.86328" lon="4.71732">
        <ele>196</ele>
        <time>2018-10-28T09:19:47Z</time>
      </trkpt>
      <trkpt lat="45.86323" lon="4.71727">
        <ele>196</ele>
        <time>2018-10-28T09:19:48Z</time>
      </trkpt>
      <trkpt lat="45.86316" lon="4.71723">
        <ele>196</ele>
        <time>2018-10-28T09:19:49Z</time>
      </trkpt>
      <trkpt lat="45.86311" lon="4.71719">
        <ele>196</ele>
        <time>2018-10-28T09:19:50Z</time>
      </trkpt>
      <trkpt lat="45.86306" lon="4.71716">
        <ele>196</ele>
        <time>2018-10-28T09:19:51Z</time>
      </trkpt>
      <trkpt lat="45.86301" lon="4.71711">
        <ele>195</ele>
        <time>2018-10-28T09:19:52Z</time>
      </trkpt>
      <trkpt lat="45.86296" lon="4.71708">
        <ele>195</ele>
        <time>2018-10-28T09:19:53Z</time>
      </trkpt>
      <trkpt lat="45.86291" lon="4.71704">
        <ele>195</ele>
        <time>2018-10-28T09:19:54Z</time>
      </trkpt>
      <trkpt lat="45.86286" lon="4.71701">
        <ele>195</ele>
        <time>2018-10-28T09:19:55Z</time>
      </trkpt>
      <trkpt lat="45.86282" lon="4.71696">
        <ele>195</ele>
        <time>2018-10-28T09:19:56Z</time>
      </trkpt>
      <trkpt lat="45.86278" lon="4.71693">
        <ele>195</ele>
        <time>2018-10-28T09:19:57Z</time>
      </trkpt>
      <trkpt lat="45.86273" lon="4.71689">
        <ele>195</ele>
        <time>2018-10-28T09:19:58Z</time>
      </trkpt>
      <trkpt lat="45.86269" lon="4.71686">
        <ele>195</ele>
        <time>2018-10-28T09:19:59Z</time>
      </trkpt>
      <trkpt lat="45.86265" lon="4.71684">
        <ele>195</ele>
        <time>2018-10-28T09:20:00Z</time>
      </trkpt>
      <trkpt lat="45.8626" lon="4.7168">
        <ele>195</ele>
        <time>2018-10-28T09:20:01Z</time>
      </trkpt>
      <trkpt lat="45.86256" lon="4.71677">
        <ele>195</ele>
        <time>2018-10-28T09:20:02Z</time>
      </trkpt>
      <trkpt lat="45.86251" lon="4.71672">
        <ele>195</ele>
        <time>2018-10-28T09:20:03Z</time>
      </trkpt>
      <trkpt lat="45.86246" lon="4.71668">
        <ele>195</ele>
        <time>2018-10-28T09:20:04Z</time>
      </trkpt>
      <trkpt lat="45.86242" lon="4.71664">
        <ele>195</ele>
        <time>2018-10-28T09:20:05Z</time>
      </trkpt>
      <trkpt lat="45.86236" lon="4.7166">
        <ele>195</ele>
        <time>2018-10-28T09:20:06Z</time>
      </trkpt>
      <trkpt lat="45.86231" lon="4.71656">
        <ele>195</ele>
        <time>2018-10-28T09:20:07Z</time>
      </trkpt>
      <trkpt lat="45.86227" lon="4.71652">
        <ele>195</ele>
        <time>2018-10-28T09:20:08Z</time>
      </trkpt>
      <trkpt lat="45.86222" lon="4.71649">
        <ele>195</ele>
        <time>2018-10-28T09:20:09Z</time>
      </trkpt>
      <trkpt lat="45.86219" lon="4.71644">
        <ele>195</ele>
        <time>2018-10-28T09:20:10Z</time>
      </trkpt>
      <trkpt lat="45.86217" lon="4.71638">
        <ele>195</ele>
        <time>2018-10-28T09:20:11Z</time>
      </trkpt>
      <trkpt lat="45.86215" lon="4.71631">
        <ele>195</ele>
        <time>2018-10-28T09:20:12Z</time>
      </trkpt>
      <trkpt lat="45.86214" lon="4.71625">
        <ele>195</ele>
        <time>2018-10-28T09:20:13Z</time>
      </trkpt>
      <trkpt lat="45.86212" lon="4.71619">
        <ele>195</ele>
        <time>2018-10-28T09:20:14Z</time>
      </trkpt>
      <trkpt lat="45.8621" lon="4.71612">
        <ele>195</ele>
        <time>2018-10-28T09:20:15Z</time>
      </trkpt>
      <trkpt lat="45.86207" lon="4.71606">
        <ele>195</ele>
        <time>2018-10-28T09:20:16Z</time>
      </trkpt>
      <trkpt lat="45.86203" lon="4.71602">
        <ele>195</ele>
        <time>2018-10-28T09:20:17Z</time>
      </trkpt>
      <trkpt lat="45.86198" lon="4.71598">
        <ele>195</ele>
        <time>2018-10-28T09:20:18Z</time>
      </trkpt>
      <trkpt lat="45.86193" lon="4.71593">
        <ele>195</ele>
        <time>2018-10-28T09:20:19Z</time>
      </trkpt>
      <trkpt lat="45.8619" lon="4.71586">
        <ele>195</ele>
        <time>2018-10-28T09:20:20Z</time>
      </trkpt>
      <trkpt lat="45.86186" lon="4.7158">
        <ele>195</ele>
        <time>2018-10-28T09:20:21Z</time>
      </trkpt>
      <trkpt lat="45.86184" lon="4.71574">
        <ele>195</ele>
        <time>2018-10-28T09:20:22Z</time>
      </trkpt>
      <trkpt lat="45.86178" lon="4.71564">
        <ele>195</ele>
        <time>2018-10-28T09:20:24Z</time>
      </trkpt>
      <trkpt lat="45.86175" lon="4.71558">
        <ele>195</ele>
        <time>2018-10-28T09:20:25Z</time>
      </trkpt>
      <trkpt lat="45.8617" lon="4.7155">
        <ele>195</ele>
        <time>2018-10-28T09:20:27Z</time>
      </trkpt>
      <trkpt lat="45.86167" lon="4.71546">
        <ele>195</ele>
        <time>2018-10-28T09:20:28Z</time>
      </trkpt>
      <trkpt lat="45.86162" lon="4.71536">
        <ele>195</ele>
        <time>2018-10-28T09:20:30Z</time>
      </trkpt>
      <trkpt lat="45.86158" lon="4.71532">
        <ele>195</ele>
        <time>2018-10-28T09:20:31Z</time>
      </trkpt>
      <trkpt lat="45.86155" lon="4.71527">
        <ele>195</ele>
        <time>2018-10-28T09:20:32Z</time>
      </trkpt>
      <trkpt lat="45.86153" lon="4.71521">
        <ele>195</ele>
        <time>2018-10-28T09:20:33Z</time>
      </trkpt>
      <trkpt lat="45.8615" lon="4.71514">
        <ele>195</ele>
        <time>2018-10-28T09:20:34Z</time>
      </trkpt>
      <trkpt lat="45.86149" lon="4.71507">
        <ele>195</ele>
        <time>2018-10-28T09:20:35Z</time>
      </trkpt>
      <trkpt lat="45.86145" lon="4.71502">
        <ele>195</ele>
        <time>2018-10-28T09:20:36Z</time>
      </trkpt>
      <trkpt lat="45.86143" lon="4.71497">
        <ele>195</ele>
        <time>2018-10-28T09:20:37Z</time>
      </trkpt>
      <trkpt lat="45.86142" lon="4.71489">
        <ele>195</ele>
        <time>2018-10-28T09:20:38Z</time>
      </trkpt>
      <trkpt lat="45.86139" lon="4.71482">
        <ele>195</ele>
        <time>2018-10-28T09:20:39Z</time>
      </trkpt>
      <trkpt lat="45.86135" lon="4.71476">
        <ele>195</ele>
        <time>2018-10-28T09:20:40Z</time>
      </trkpt>
      <trkpt lat="45.86134" lon="4.71469">
        <ele>195</ele>
        <time>2018-10-28T09:20:41Z</time>
      </trkpt>
      <trkpt lat="45.86132" lon="4.71463">
        <ele>195</ele>
        <time>2018-10-28T09:20:42Z</time>
      </trkpt>
      <trkpt lat="45.86132" lon="4.71456">
        <ele>195</ele>
        <time>2018-10-28T09:20:43Z</time>
      </trkpt>
      <trkpt lat="45.8613" lon="4.7145">
        <ele>195</ele>
        <time>2018-10-28T09:20:44Z</time>
      </trkpt>
      <trkpt lat="45.86127" lon="4.71445">
        <ele>195</ele>
        <time>2018-10-28T09:20:45Z</time>
      </trkpt>
      <trkpt lat="45.86125" lon="4.71433">
        <ele>195</ele>
        <time>2018-10-28T09:20:47Z</time>
      </trkpt>
      <trkpt lat="45.86124" lon="4.71426">
        <ele>195</ele>
        <time>2018-10-28T09:20:48Z</time>
      </trkpt>
      <trkpt lat="45.86123" lon="4.7142">
        <ele>195</ele>
        <time>2018-10-28T09:20:49Z</time>
      </trkpt>
      <trkpt lat="45.86122" lon="4.71413">
        <ele>196</ele>
        <time>2018-10-28T09:20:50Z</time>
      </trkpt>
      <trkpt lat="45.86121" lon="4.71406">
        <ele>196</ele>
        <time>2018-10-28T09:20:51Z</time>
      </trkpt>
      <trkpt lat="45.86121" lon="4.71399">
        <ele>196</ele>
        <time>2018-10-28T09:20:52Z</time>
      </trkpt>
      <trkpt lat="45.8612" lon="4.71392">
        <ele>196</ele>
        <time>2018-10-28T09:20:53Z</time>
      </trkpt>
      <trkpt lat="45.8612" lon="4.71385">
        <ele>196</ele>
        <time>2018-10-28T09:20:54Z</time>
      </trkpt>
      <trkpt lat="45.86118" lon="4.71373">
        <ele>196</ele>
        <time>2018-10-28T09:20:56Z</time>
      </trkpt>
      <trkpt lat="45.86117" lon="4.71366">
        <ele>196</ele>
        <time>2018-10-28T09:20:57Z</time>
      </trkpt>
      <trkpt lat="45.86114" lon="4.71355">
        <ele>196</ele>
        <time>2018-10-28T09:20:59Z</time>
      </trkpt>
      <trkpt lat="45.86113" lon="4.7135">
        <ele>196</ele>
        <time>2018-10-28T09:21:00Z</time>
      </trkpt>
      <trkpt lat="45.86111" lon="4.71338">
        <ele>196</ele>
        <time>2018-10-28T09:21:02Z</time>
      </trkpt>
      <trkpt lat="45.8611" lon="4.71331">
        <ele>196</ele>
        <time>2018-10-28T09:21:03Z</time>
      </trkpt>
      <trkpt lat="45.86109" lon="4.71325">
        <ele>196</ele>
        <time>2018-10-28T09:21:04Z</time>
      </trkpt>
      <trkpt lat="45.86107" lon="4.71318">
        <ele>196</ele>
        <time>2018-10-28T09:21:05Z</time>
      </trkpt>
      <trkpt lat="45.86106" lon="4.71311">
        <ele>196</ele>
        <time>2018-10-28T09:21:06Z</time>
      </trkpt>
      <trkpt lat="45.86105" lon="4.71305">
        <ele>196</ele>
        <time>2018-10-28T09:21:07Z</time>
      </trkpt>
      <trkpt lat="45.86104" lon="4.71298">
        <ele>197</ele>
        <time>2018-10-28T09:21:08Z</time>
      </trkpt>
      <trkpt lat="45.86103" lon="4.7129">
        <ele>197</ele>
        <time>2018-10-28T09:21:09Z</time>
      </trkpt>
      <trkpt lat="45.86101" lon="4.71279">
        <ele>197</ele>
        <time>2018-10-28T09:21:11Z</time>
      </trkpt>
      <trkpt lat="45.86099" lon="4.71275">
        <ele>197</ele>
        <time>2018-10-28T09:21:12Z</time>
      </trkpt>
      <trkpt lat="45.86094" lon="4.71265">
        <ele>197</ele>
        <time>2018-10-28T09:21:14Z</time>
      </trkpt>
      <trkpt lat="45.8609" lon="4.71261">
        <ele>197</ele>
        <time>2018-10-28T09:21:15Z</time>
      </trkpt>
      <trkpt lat="45.86088" lon="4.71256">
        <ele>198</ele>
        <time>2018-10-28T09:21:16Z</time>
      </trkpt>
      <trkpt lat="45.86084" lon="4.7125">
        <ele>198</ele>
        <time>2018-10-28T09:21:17Z</time>
      </trkpt>
      <trkpt lat="45.86084" lon="4.71243">
        <ele>198</ele>
        <time>2018-10-28T09:21:18Z</time>
      </trkpt>
      <trkpt lat="45.86084" lon="4.71237">
        <ele>197</ele>
        <time>2018-10-28T09:21:19Z</time>
      </trkpt>
      <trkpt lat="45.86085" lon="4.71229">
        <ele>197</ele>
        <time>2018-10-28T09:21:20Z</time>
      </trkpt>
      <trkpt lat="45.86085" lon="4.71222">
        <ele>197</ele>
        <time>2018-10-28T09:21:21Z</time>
      </trkpt>
      <trkpt lat="45.86086" lon="4.71215">
        <ele>197</ele>
        <time>2018-10-28T09:21:22Z</time>
      </trkpt>
      <trkpt lat="45.86087" lon="4.71209">
        <ele>197</ele>
        <time>2018-10-28T09:21:23Z</time>
      </trkpt>
      <trkpt lat="45.86088" lon="4.71202">
        <ele>197</ele>
        <time>2018-10-28T09:21:24Z</time>
      </trkpt>
      <trkpt lat="45.86088" lon="4.71194">
        <ele>197</ele>
        <time>2018-10-28T09:21:25Z</time>
      </trkpt>
      <trkpt lat="45.86088" lon="4.71187">
        <ele>197</ele>
        <time>2018-10-28T09:21:26Z</time>
      </trkpt>
      <trkpt lat="45.8609" lon="4.7118">
        <ele>197</ele>
        <time>2018-10-28T09:21:27Z</time>
      </trkpt>
      <trkpt lat="45.8609" lon="4.71174">
        <ele>198</ele>
        <time>2018-10-28T09:21:28Z</time>
      </trkpt>
      <trkpt lat="45.8609" lon="4.71167">
        <ele>198</ele>
        <time>2018-10-28T09:21:29Z</time>
      </trkpt>
      <trkpt lat="45.86091" lon="4.71155">
        <ele>197</ele>
        <time>2018-10-28T09:21:31Z</time>
      </trkpt>
      <trkpt lat="45.86092" lon="4.7115">
        <ele>197</ele>
        <time>2018-10-28T09:21:32Z</time>
      </trkpt>
      <trkpt lat="45.86089" lon="4.71141">
        <ele>197</ele>
        <time>2018-10-28T09:21:34Z</time>
      </trkpt>
      <trkpt lat="45.86085" lon="4.71137">
        <ele>197</ele>
        <time>2018-10-28T09:21:35Z</time>
      </trkpt>
      <trkpt lat="45.86079" lon="4.71133">
        <ele>197</ele>
        <time>2018-10-28T09:21:37Z</time>
      </trkpt>
      <trkpt lat="45.86076" lon="4.71129">
        <ele>197</ele>
        <time>2018-10-28T09:21:38Z</time>
      </trkpt>
      <trkpt lat="45.86071" lon="4.71125">
        <ele>197</ele>
        <time>2018-10-28T09:21:39Z</time>
      </trkpt>
      <trkpt lat="45.86068" lon="4.71119">
        <ele>197</ele>
        <time>2018-10-28T09:21:40Z</time>
      </trkpt>
      <trkpt lat="45.86064" lon="4.71113">
        <ele>197</ele>
        <time>2018-10-28T09:21:41Z</time>
      </trkpt>
      <trkpt lat="45.8606" lon="4.71108">
        <ele>197</ele>
        <time>2018-10-28T09:21:42Z</time>
      </trkpt>
      <trkpt lat="45.86056" lon="4.71102">
        <ele>197</ele>
        <time>2018-10-28T09:21:43Z</time>
      </trkpt>
      <trkpt lat="45.86051" lon="4.71097">
        <ele>197</ele>
        <time>2018-10-28T09:21:44Z</time>
      </trkpt>
      <trkpt lat="45.86047" lon="4.71086">
        <ele>197</ele>
        <time>2018-10-28T09:21:46Z</time>
      </trkpt>
      <trkpt lat="45.86045" lon="4.71079">
        <ele>196</ele>
        <time>2018-10-28T09:21:47Z</time>
      </trkpt>
      <trkpt lat="45.86044" lon="4.71073">
        <ele>196</ele>
        <time>2018-10-28T09:21:48Z</time>
      </trkpt>
      <trkpt lat="45.86042" lon="4.71067">
        <ele>196</ele>
        <time>2018-10-28T09:21:49Z</time>
      </trkpt>
      <trkpt lat="45.86041" lon="4.7106">
        <ele>197</ele>
        <time>2018-10-28T09:21:50Z</time>
      </trkpt>
      <trkpt lat="45.8604" lon="4.71053">
        <ele>197</ele>
        <time>2018-10-28T09:21:51Z</time>
      </trkpt>
      <trkpt lat="45.86038" lon="4.71046">
        <ele>197</ele>
        <time>2018-10-28T09:21:52Z</time>
      </trkpt>
      <trkpt lat="45.86035" lon="4.71039">
        <ele>197</ele>
        <time>2018-10-28T09:21:53Z</time>
      </trkpt>
      <trkpt lat="45.86034" lon="4.71032">
        <ele>197</ele>
        <time>2018-10-28T09:21:54Z</time>
      </trkpt>
      <trkpt lat="45.86031" lon="4.71026">
        <ele>197</ele>
        <time>2018-10-28T09:21:55Z</time>
      </trkpt>
      <trkpt lat="45.86028" lon="4.7102">
        <ele>197</ele>
        <time>2018-10-28T09:21:56Z</time>
      </trkpt>
      <trkpt lat="45.86024" lon="4.71015">
        <ele>197</ele>
        <time>2018-10-28T09:21:57Z</time>
      </trkpt>
      <trkpt lat="45.8602" lon="4.71009">
        <ele>197</ele>
        <time>2018-10-28T09:21:58Z</time>
      </trkpt>
      <trkpt lat="45.86017" lon="4.71004">
        <ele>197</ele>
        <time>2018-10-28T09:21:59Z</time>
      </trkpt>
      <trkpt lat="45.86012" lon="4.70999">
        <ele>197</ele>
        <time>2018-10-28T09:22:00Z</time>
      </trkpt>
      <trkpt lat="45.86007" lon="4.70996">
        <ele>197</ele>
        <time>2018-10-28T09:22:01Z</time>
      </trkpt>
      <trkpt lat="45.86002" lon="4.7099">
        <ele>197</ele>
        <time>2018-10-28T09:22:02Z</time>
      </trkpt>
      <trkpt lat="45.85996" lon="4.70985">
        <ele>197</ele>
        <time>2018-10-28T09:22:03Z</time>
      </trkpt>
      <trkpt lat="45.85991" lon="4.70981">
        <ele>197</ele>
        <time>2018-10-28T09:22:04Z</time>
      </trkpt>
      <trkpt lat="45.85985" lon="4.70977">
        <ele>197</ele>
        <time>2018-10-28T09:22:05Z</time>
      </trkpt>
      <trkpt lat="45.8598" lon="4.70974">
        <ele>197</ele>
        <time>2018-10-28T09:22:06Z</time>
      </trkpt>
      <trkpt lat="45.85973" lon="4.70971">
        <ele>197</ele>
        <time>2018-10-28T09:22:07Z</time>
      </trkpt>
      <trkpt lat="45.85967" lon="4.70971">
        <ele>197</ele>
        <time>2018-10-28T09:22:08Z</time>
      </trkpt>
      <trkpt lat="45.85961" lon="4.7097">
        <ele>197</ele>
        <time>2018-10-28T09:22:09Z</time>
      </trkpt>
      <trkpt lat="45.85955" lon="4.70969">
        <ele>197</ele>
        <time>2018-10-28T09:22:10Z</time>
      </trkpt>
      <trkpt lat="45.85951" lon="4.7097">
        <ele>197</ele>
        <time>2018-10-28T09:22:11Z</time>
      </trkpt>
      <trkpt lat="45.85943" lon="4.70967">
        <ele>197</ele>
        <time>2018-10-28T09:22:13Z</time>
      </trkpt>
      <trkpt lat="45.8594" lon="4.70963">
        <ele>197</ele>
        <time>2018-10-28T09:22:14Z</time>
      </trkpt>
      <trkpt lat="45.85941" lon="4.70951">
        <ele>197</ele>
        <time>2018-10-28T09:22:16Z</time>
      </trkpt>
      <trkpt lat="45.85944" lon="4.70945">
        <ele>197</ele>
        <time>2018-10-28T09:22:17Z</time>
      </trkpt>
      <trkpt lat="45.85946" lon="4.70935">
        <ele>197</ele>
        <time>2018-10-28T09:22:19Z</time>
      </trkpt>
      <trkpt lat="45.85947" lon="4.70928">
        <ele>197</ele>
        <time>2018-10-28T09:22:20Z</time>
      </trkpt>
      <trkpt lat="45.85947" lon="4.70921">
        <ele>197</ele>
        <time>2018-10-28T09:22:21Z</time>
      </trkpt>
      <trkpt lat="45.85949" lon="4.70914">
        <ele>197</ele>
        <time>2018-10-28T09:22:22Z</time>
      </trkpt>
      <trkpt lat="45.8595" lon="4.70907">
        <ele>197</ele>
        <time>2018-10-28T09:22:23Z</time>
      </trkpt>
      <trkpt lat="45.85952" lon="4.70901">
        <ele>197</ele>
        <time>2018-10-28T09:22:24Z</time>
      </trkpt>
      <trkpt lat="45.85953" lon="4.70894">
        <ele>197</ele>
        <time>2018-10-28T09:22:25Z</time>
      </trkpt>
      <trkpt lat="45.85954" lon="4.70888">
        <ele>197</ele>
        <time>2018-10-28T09:22:26Z</time>
      </trkpt>
      <trkpt lat="45.85955" lon="4.70881">
        <ele>197</ele>
        <time>2018-10-28T09:22:27Z</time>
      </trkpt>
      <trkpt lat="45.85957" lon="4.70874">
        <ele>196</ele>
        <time>2018-10-28T09:22:28Z</time>
      </trkpt>
      <trkpt lat="45.85959" lon="4.70868">
        <ele>196</ele>
        <time>2018-10-28T09:22:29Z</time>
      </trkpt>
      <trkpt lat="45.8596" lon="4.70861">
        <ele>196</ele>
        <time>2018-10-28T09:22:30Z</time>
      </trkpt>
      <trkpt lat="45.85961" lon="4.70854">
        <ele>196</ele>
        <time>2018-10-28T09:22:31Z</time>
      </trkpt>
      <trkpt lat="45.85961" lon="4.70847">
        <ele>196</ele>
        <time>2018-10-28T09:22:32Z</time>
      </trkpt>
      <trkpt lat="45.85961" lon="4.7084">
        <ele>196</ele>
        <time>2018-10-28T09:22:33Z</time>
      </trkpt>
      <trkpt lat="45.85961" lon="4.70832">
        <ele>196</ele>
        <time>2018-10-28T09:22:34Z</time>
      </trkpt>
      <trkpt lat="45.8596" lon="4.70824">
        <ele>196</ele>
        <time>2018-10-28T09:22:35Z</time>
      </trkpt>
      <trkpt lat="45.85959" lon="4.70817">
        <ele>195</ele>
        <time>2018-10-28T09:22:36Z</time>
      </trkpt>
      <trkpt lat="45.85958" lon="4.7081">
        <ele>195</ele>
        <time>2018-10-28T09:22:37Z</time>
      </trkpt>
      <trkpt lat="45.85957" lon="4.70802">
        <ele>195</ele>
        <time>2018-10-28T09:22:38Z</time>
      </trkpt>
      <trkpt lat="45.85956" lon="4.70796">
        <ele>195</ele>
        <time>2018-10-28T09:22:39Z</time>
      </trkpt>
      <trkpt lat="45.85956" lon="4.70789">
        <ele>195</ele>
        <time>2018-10-28T09:22:40Z</time>
      </trkpt>
      <trkpt lat="45.85956" lon="4.70782">
        <ele>195</ele>
        <time>2018-10-28T09:22:41Z</time>
      </trkpt>
      <trkpt lat="45.85957" lon="4.70775">
        <ele>195</ele>
        <time>2018-10-28T09:22:42Z</time>
      </trkpt>
      <trkpt lat="45.85958" lon="4.70763">
        <ele>195</ele>
        <time>2018-10-28T09:22:44Z</time>
      </trkpt>
      <trkpt lat="45.85958" lon="4.70756">
        <ele>195</ele>
        <time>2018-10-28T09:22:45Z</time>
      </trkpt>
      <trkpt lat="45.85959" lon="4.70744">
        <ele>194</ele>
        <time>2018-10-28T09:22:47Z</time>
      </trkpt>
      <trkpt lat="45.85959" lon="4.70737">
        <ele>194</ele>
        <time>2018-10-28T09:22:48Z</time>
      </trkpt>
      <trkpt lat="45.85961" lon="4.7073">
        <ele>194</ele>
        <time>2018-10-28T09:22:49Z</time>
      </trkpt>
      <trkpt lat="45.85962" lon="4.70723">
        <ele>194</ele>
        <time>2018-10-28T09:22:50Z</time>
      </trkpt>
      <trkpt lat="45.85965" lon="4.70715">
        <ele>194</ele>
        <time>2018-10-28T09:22:51Z</time>
      </trkpt>
      <trkpt lat="45.85966" lon="4.70708">
        <ele>194</ele>
        <time>2018-10-28T09:22:52Z</time>
      </trkpt>
      <trkpt lat="45.85966" lon="4.70701">
        <ele>194</ele>
        <time>2018-10-28T09:22:53Z</time>
      </trkpt>
      <trkpt lat="45.85967" lon="4.70694">
        <ele>194</ele>
        <time>2018-10-28T09:22:54Z</time>
      </trkpt>
      <trkpt lat="45.85966" lon="4.70688">
        <ele>194</ele>
        <time>2018-10-28T09:22:55Z</time>
      </trkpt>
      <trkpt lat="45.85967" lon="4.70681">
        <ele>194</ele>
        <time>2018-10-28T09:22:56Z</time>
      </trkpt>
      <trkpt lat="45.85964" lon="4.70675">
        <ele>194</ele>
        <time>2018-10-28T09:22:57Z</time>
      </trkpt>
      <trkpt lat="45.85961" lon="4.7067">
        <ele>194</ele>
        <time>2018-10-28T09:22:58Z</time>
      </trkpt>
      <trkpt lat="45.85957" lon="4.70665">
        <ele>194</ele>
        <time>2018-10-28T09:22:59Z</time>
      </trkpt>
      <trkpt lat="45.85954" lon="4.7066">
        <ele>194</ele>
        <time>2018-10-28T09:23:00Z</time>
      </trkpt>
      <trkpt lat="45.85951" lon="4.70655">
        <ele>194</ele>
        <time>2018-10-28T09:23:01Z</time>
      </trkpt>
      <trkpt lat="45.85947" lon="4.70649">
        <ele>194</ele>
        <time>2018-10-28T09:23:02Z</time>
      </trkpt>
      <trkpt lat="45.85943" lon="4.70644">
        <ele>194</ele>
        <time>2018-10-28T09:23:03Z</time>
      </trkpt>
      <trkpt lat="45.8594" lon="4.70638">
        <ele>194</ele>
        <time>2018-10-28T09:23:04Z</time>
      </trkpt>
      <trkpt lat="45.85937" lon="4.70632">
        <ele>194</ele>
        <time>2018-10-28T09:23:05Z</time>
      </trkpt>
      <trkpt lat="45.85934" lon="4.70626">
        <ele>194</ele>
        <time>2018-10-28T09:23:06Z</time>
      </trkpt>
      <trkpt lat="45.85929" lon="4.7062">
        <ele>194</ele>
        <time>2018-10-28T09:23:07Z</time>
      </trkpt>
      <trkpt lat="45.85925" lon="4.70614">
        <ele>194</ele>
        <time>2018-10-28T09:23:08Z</time>
      </trkpt>
      <trkpt lat="45.85922" lon="4.70607">
        <ele>194</ele>
        <time>2018-10-28T09:23:09Z</time>
      </trkpt>
      <trkpt lat="45.85918" lon="4.70602">
        <ele>194</ele>
        <time>2018-10-28T09:23:10Z</time>
      </trkpt>
      <trkpt lat="45.85914" lon="4.70596">
        <ele>195</ele>
        <time>2018-10-28T09:23:11Z</time>
      </trkpt>
      <trkpt lat="45.8591" lon="4.7059">
        <ele>195</ele>
        <time>2018-10-28T09:23:12Z</time>
      </trkpt>
      <trkpt lat="45.85906" lon="4.70586">
        <ele>195</ele>
        <time>2018-10-28T09:23:13Z</time>
      </trkpt>
      <trkpt lat="45.85902" lon="4.70582">
        <ele>195</ele>
        <time>2018-10-28T09:23:14Z</time>
      </trkpt>
      <trkpt lat="45.85893" lon="4.70579">
        <ele>195</ele>
        <time>2018-10-28T09:23:16Z</time>
      </trkpt>
      <trkpt lat="45.85888" lon="4.70578">
        <ele>195</ele>
        <time>2018-10-28T09:23:17Z</time>
      </trkpt>
      <trkpt lat="45.85883" lon="4.70577">
        <ele>195</ele>
        <time>2018-10-28T09:23:18Z</time>
      </trkpt>
      <trkpt lat="45.85879" lon="4.70576">
        <ele>195</ele>
        <time>2018-10-28T09:23:19Z</time>
      </trkpt>
      <trkpt lat="45.85872" lon="4.70573">
        <ele>195</ele>
        <time>2018-10-28T09:23:21Z</time>
      </trkpt>
      <trkpt lat="45.85866" lon="4.70571">
        <ele>195</ele>
        <time>2018-10-28T09:23:22Z</time>
      </trkpt>
      <trkpt lat="45.85861" lon="4.70569">
        <ele>195</ele>
        <time>2018-10-28T09:23:23Z</time>
      </trkpt>
      <trkpt lat="45.85855" lon="4.70567">
        <ele>195</ele>
        <time>2018-10-28T09:23:24Z</time>
      </trkpt>
      <trkpt lat="45.8585" lon="4.70566">
        <ele>195</ele>
        <time>2018-10-28T09:23:25Z</time>
      </trkpt>
      <trkpt lat="45.85845" lon="4.70564">
        <ele>195</ele>
        <time>2018-10-28T09:23:26Z</time>
      </trkpt>
      <trkpt lat="45.85839" lon="4.70561">
        <ele>195</ele>
        <time>2018-10-28T09:23:27Z</time>
      </trkpt>
      <trkpt lat="45.85833" lon="4.70558">
        <ele>195</ele>
        <time>2018-10-28T09:23:28Z</time>
      </trkpt>
      <trkpt lat="45.85828" lon="4.70554">
        <ele>195</ele>
        <time>2018-10-28T09:23:29Z</time>
      </trkpt>
      <trkpt lat="45.85822" lon="4.70552">
        <ele>195</ele>
        <time>2018-10-28T09:23:30Z</time>
      </trkpt>
      <trkpt lat="45.85817" lon="4.70549">
        <ele>195</ele>
        <time>2018-10-28T09:23:31Z</time>
      </trkpt>
      <trkpt lat="45.85812" lon="4.70547">
        <ele>195</ele>
        <time>2018-10-28T09:23:32Z</time>
      </trkpt>
      <trkpt lat="45.85804" lon="4.70543">
        <ele>195</ele>
        <time>2018-10-28T09:23:34Z</time>
      </trkpt>
      <trkpt lat="45.858" lon="4.70542">
        <ele>195</ele>
        <time>2018-10-28T09:23:35Z</time>
      </trkpt>
      <trkpt lat="45.85792" lon="4.70539">
        <ele>196</ele>
        <time>2018-10-28T09:23:37Z</time>
      </trkpt>
      <trkpt lat="45.85787" lon="4.70538">
        <ele>196</ele>
        <time>2018-10-28T09:23:38Z</time>
      </trkpt>
      <trkpt lat="45.85782" lon="4.70535">
        <ele>196</ele>
        <time>2018-10-28T09:23:39Z</time>
      </trkpt>
      <trkpt lat="45.85777" lon="4.70531">
        <ele>196</ele>
        <time>2018-10-28T09:23:40Z</time>
      </trkpt>
      <trkpt lat="45.85774" lon="4.70527">
        <ele>196</ele>
        <time>2018-10-28T09:23:41Z</time>
      </trkpt>
      <trkpt lat="45.8577" lon="4.70523">
        <ele>196</ele>
        <time>2018-10-28T09:23:42Z</time>
      </trkpt>
      <trkpt lat="45.85765" lon="4.70521">
        <ele>196</ele>
        <time>2018-10-28T09:23:43Z</time>
      </trkpt>
      <trkpt lat="45.8576" lon="4.70518">
        <ele>196</ele>
        <time>2018-10-28T09:23:44Z</time>
      </trkpt>
      <trkpt lat="45.85753" lon="4.70513">
        <ele>196</ele>
        <time>2018-10-28T09:23:46Z</time>
      </trkpt>
      <trkpt lat="45.85749" lon="4.7051">
        <ele>196</ele>
        <time>2018-10-28T09:23:47Z</time>
      </trkpt>
      <trkpt lat="45.85744" lon="4.70504">
        <ele>196</ele>
        <time>2018-10-28T09:23:49Z</time>
      </trkpt>
      <trkpt lat="45.85739" lon="4.70498">
        <ele>196</ele>
        <time>2018-10-28T09:23:50Z</time>
      </trkpt>
      <trkpt lat="45.85735" lon="4.70488">
        <ele>196</ele>
        <time>2018-10-28T09:23:52Z</time>
      </trkpt>
      <trkpt lat="45.85732" lon="4.70482">
        <ele>196</ele>
        <time>2018-10-28T09:23:53Z</time>
      </trkpt>
      <trkpt lat="45.85731" lon="4.70476">
        <ele>196</ele>
        <time>2018-10-28T09:23:54Z</time>
      </trkpt>
      <trkpt lat="45.85729" lon="4.70469">
        <ele>196</ele>
        <time>2018-10-28T09:23:55Z</time>
      </trkpt>
      <trkpt lat="45.85727" lon="4.70462">
        <ele>196</ele>
        <time>2018-10-28T09:23:56Z</time>
      </trkpt>
      <trkpt lat="45.85726" lon="4.70454">
        <ele>196</ele>
        <time>2018-10-28T09:23:57Z</time>
      </trkpt>
      <trkpt lat="45.85725" lon="4.70446">
        <ele>196</ele>
        <time>2018-10-28T09:23:58Z</time>
      </trkpt>
      <trkpt lat="45.85725" lon="4.70438">
        <ele>196</ele>
        <time>2018-10-28T09:23:59Z</time>
      </trkpt>
      <trkpt lat="45.85723" lon="4.7043">
        <ele>196</ele>
        <time>2018-10-28T09:24:00Z</time>
      </trkpt>
      <trkpt lat="45.85723" lon="4.70421">
        <ele>196</ele>
        <time>2018-10-28T09:24:01Z</time>
      </trkpt>
      <trkpt lat="45.8572" lon="4.70413">
        <ele>196</ele>
        <time>2018-10-28T09:24:02Z</time>
      </trkpt>
      <trkpt lat="45.85719" lon="4.70404">
        <ele>196</ele>
        <time>2018-10-28T09:24:03Z</time>
      </trkpt>
      <trkpt lat="45.85719" lon="4.70396">
        <ele>196</ele>
        <time>2018-10-28T09:24:04Z</time>
      </trkpt>
      <trkpt lat="45.85718" lon="4.70388">
        <ele>196</ele>
        <time>2018-10-28T09:24:05Z</time>
      </trkpt>
      <trkpt lat="45.85716" lon="4.7038">
        <ele>196</ele>
        <time>2018-10-28T09:24:06Z</time>
      </trkpt>
      <trkpt lat="45.85715" lon="4.70374">
        <ele>196</ele>
        <time>2018-10-28T09:24:07Z</time>
      </trkpt>
      <trkpt lat="45.85714" lon="4.70368">
        <ele>196</ele>
        <time>2018-10-28T09:24:08Z</time>
      </trkpt>
      <trkpt lat="45.85713" lon="4.70361">
        <ele>196</ele>
        <time>2018-10-28T09:24:09Z</time>
      </trkpt>
      <trkpt lat="45.85712" lon="4.70354">
        <ele>196</ele>
        <time>2018-10-28T09:24:10Z</time>
      </trkpt>
      <trkpt lat="45.85711" lon="4.70346">
        <ele>196</ele>
        <time>2018-10-28T09:24:11Z</time>
      </trkpt>
      <trkpt lat="45.8571" lon="4.70337">
        <ele>196</ele>
        <time>2018-10-28T09:24:12Z</time>
      </trkpt>
      <trkpt lat="45.85709" lon="4.70329">
        <ele>197</ele>
        <time>2018-10-28T09:24:13Z</time>
      </trkpt>
      <trkpt lat="45.85708" lon="4.7032">
        <ele>197</ele>
        <time>2018-10-28T09:24:14Z</time>
      </trkpt>
      <trkpt lat="45.85707" lon="4.70312">
        <ele>197</ele>
        <time>2018-10-28T09:24:15Z</time>
      </trkpt>
      <trkpt lat="45.85706" lon="4.70303">
        <ele>197</ele>
        <time>2018-10-28T09:24:16Z</time>
      </trkpt>
      <trkpt lat="45.85705" lon="4.70295">
        <ele>197</ele>
        <time>2018-10-28T09:24:17Z</time>
      </trkpt>
      <trkpt lat="45.85704" lon="4.70286">
        <ele>197</ele>
        <time>2018-10-28T09:24:18Z</time>
      </trkpt>
      <trkpt lat="45.85703" lon="4.70278">
        <ele>197</ele>
        <time>2018-10-28T09:24:19Z</time>
      </trkpt>
      <trkpt lat="45.85703" lon="4.70269">
        <ele>197</ele>
        <time>2018-10-28T09:24:20Z</time>
      </trkpt>
      <trkpt lat="45.85702" lon="4.70262">
        <ele>197</ele>
        <time>2018-10-28T09:24:21Z</time>
      </trkpt>
      <trkpt lat="45.85701" lon="4.70255">
        <ele>197</ele>
        <time>2018-10-28T09:24:22Z</time>
      </trkpt>
      <trkpt lat="45.857" lon="4.70248">
        <ele>197</ele>
        <time>2018-10-28T09:24:23Z</time>
      </trkpt>
      <trkpt lat="45.85699" lon="4.70241">
        <ele>197</ele>
        <time>2018-10-28T09:24:24Z</time>
      </trkpt>
      <trkpt lat="45.85698" lon="4.70235">
        <ele>197</ele>
        <time>2018-10-28T09:24:25Z</time>
      </trkpt>
      <trkpt lat="45.85697" lon="4.70228">
        <ele>197</ele>
        <time>2018-10-28T09:24:26Z</time>
      </trkpt>
      <trkpt lat="45.85696" lon="4.70222">
        <ele>197</ele>
        <time>2018-10-28T09:24:27Z</time>
      </trkpt>
      <trkpt lat="45.85696" lon="4.70214">
        <ele>197</ele>
        <time>2018-10-28T09:24:28Z</time>
      </trkpt>
      <trkpt lat="45.85695" lon="4.70207">
        <ele>197</ele>
        <time>2018-10-28T09:24:29Z</time>
      </trkpt>
      <trkpt lat="45.85693" lon="4.70197">
        <ele>197</ele>
        <time>2018-10-28T09:24:31Z</time>
      </trkpt>
      <trkpt lat="45.85692" lon="4.70188">
        <ele>197</ele>
        <time>2018-10-28T09:24:32Z</time>
      </trkpt>
      <trkpt lat="45.85691" lon="4.70179">
        <ele>197</ele>
        <time>2018-10-28T09:24:33Z</time>
      </trkpt>
      <trkpt lat="45.85688" lon="4.70172">
        <ele>197</ele>
        <time>2018-10-28T09:24:34Z</time>
      </trkpt>
      <trkpt lat="45.85688" lon="4.70162">
        <ele>197</ele>
        <time>2018-10-28T09:24:35Z</time>
      </trkpt>
      <trkpt lat="45.85685" lon="4.70154">
        <ele>197</ele>
        <time>2018-10-28T09:24:36Z</time>
      </trkpt>
      <trkpt lat="45.85683" lon="4.70146">
        <ele>197</ele>
        <time>2018-10-28T09:24:37Z</time>
      </trkpt>
      <trkpt lat="45.85682" lon="4.70138">
        <ele>197</ele>
        <time>2018-10-28T09:24:38Z</time>
      </trkpt>
      <trkpt lat="45.85681" lon="4.70129">
        <ele>197</ele>
        <time>2018-10-28T09:24:39Z</time>
      </trkpt>
      <trkpt lat="45.85681" lon="4.7012">
        <ele>197</ele>
        <time>2018-10-28T09:24:40Z</time>
      </trkpt>
      <trkpt lat="45.8568" lon="4.70111">
        <ele>197</ele>
        <time>2018-10-28T09:24:41Z</time>
      </trkpt>
      <trkpt lat="45.8568" lon="4.70103">
        <ele>196</ele>
        <time>2018-10-28T09:24:42Z</time>
      </trkpt>
      <trkpt lat="45.8568" lon="4.70097">
        <ele>196</ele>
        <time>2018-10-28T09:24:43Z</time>
      </trkpt>
      <trkpt lat="45.85681" lon="4.7009">
        <ele>196</ele>
        <time>2018-10-28T09:24:44Z</time>
      </trkpt>
      <trkpt lat="45.85682" lon="4.70083">
        <ele>196</ele>
        <time>2018-10-28T09:24:45Z</time>
      </trkpt>
      <trkpt lat="45.85682" lon="4.70075">
        <ele>196</ele>
        <time>2018-10-28T09:24:46Z</time>
      </trkpt>
      <trkpt lat="45.85685" lon="4.70064">
        <ele>196</ele>
        <time>2018-10-28T09:24:48Z</time>
      </trkpt>
      <trkpt lat="45.85686" lon="4.70058">
        <ele>195</ele>
        <time>2018-10-28T09:24:49Z</time>
      </trkpt>
      <trkpt lat="45.85689" lon="4.70047">
        <ele>195</ele>
        <time>2018-10-28T09:24:51Z</time>
      </trkpt>
      <trkpt lat="45.8569" lon="4.70041">
        <ele>195</ele>
        <time>2018-10-28T09:24:52Z</time>
      </trkpt>
      <trkpt lat="45.85691" lon="4.70034">
        <ele>195</ele>
        <time>2018-10-28T09:24:53Z</time>
      </trkpt>
      <trkpt lat="45.85692" lon="4.70027">
        <ele>195</ele>
        <time>2018-10-28T09:24:54Z</time>
      </trkpt>
      <trkpt lat="45.85693" lon="4.7002">
        <ele>195</ele>
        <time>2018-10-28T09:24:55Z</time>
      </trkpt>
      <trkpt lat="45.85694" lon="4.70012">
        <ele>195</ele>
        <time>2018-10-28T09:24:56Z</time>
      </trkpt>
      <trkpt lat="45.85694" lon="4.70003">
        <ele>195</ele>
        <time>2018-10-28T09:24:57Z</time>
      </trkpt>
      <trkpt lat="45.85694" lon="4.69994">
        <ele>195</ele>
        <time>2018-10-28T09:24:58Z</time>
      </trkpt>
      <trkpt lat="45.85693" lon="4.69986">
        <ele>195</ele>
        <time>2018-10-28T09:24:59Z</time>
      </trkpt>
      <trkpt lat="45.85692" lon="4.69977">
        <ele>195</ele>
        <time>2018-10-28T09:25:00Z</time>
      </trkpt>
      <trkpt lat="45.8569" lon="4.69969">
        <ele>195</ele>
        <time>2018-10-28T09:25:01Z</time>
      </trkpt>
      <trkpt lat="45.85689" lon="4.69961">
        <ele>195</ele>
        <time>2018-10-28T09:25:02Z</time>
      </trkpt>
      <trkpt lat="45.85687" lon="4.69952">
        <ele>195</ele>
        <time>2018-10-28T09:25:03Z</time>
      </trkpt>
      <trkpt lat="45.85685" lon="4.69944">
        <ele>195</ele>
        <time>2018-10-28T09:25:04Z</time>
      </trkpt>
      <trkpt lat="45.85682" lon="4.69936">
        <ele>195</ele>
        <time>2018-10-28T09:25:05Z</time>
      </trkpt>
      <trkpt lat="45.8568" lon="4.69928">
        <ele>195</ele>
        <time>2018-10-28T09:25:06Z</time>
      </trkpt>
      <trkpt lat="45.85678" lon="4.69921">
        <ele>195</ele>
        <time>2018-10-28T09:25:07Z</time>
      </trkpt>
      <trkpt lat="45.85675" lon="4.69913">
        <ele>195</ele>
        <time>2018-10-28T09:25:08Z</time>
      </trkpt>
      <trkpt lat="45.85674" lon="4.69905">
        <ele>195</ele>
        <time>2018-10-28T09:25:09Z</time>
      </trkpt>
      <trkpt lat="45.85672" lon="4.69897">
        <ele>195</ele>
        <time>2018-10-28T09:25:10Z</time>
      </trkpt>
      <trkpt lat="45.8567" lon="4.69888">
        <ele>195</ele>
        <time>2018-10-28T09:25:11Z</time>
      </trkpt>
      <trkpt lat="45.8567" lon="4.6988">
        <ele>195</ele>
        <time>2018-10-28T09:25:12Z</time>
      </trkpt>
      <trkpt lat="45.85669" lon="4.69872">
        <ele>195</ele>
        <time>2018-10-28T09:25:13Z</time>
      </trkpt>
      <trkpt lat="45.85666" lon="4.69864">
        <ele>195</ele>
        <time>2018-10-28T09:25:14Z</time>
      </trkpt>
      <trkpt lat="45.85665" lon="4.69854">
        <ele>195</ele>
        <time>2018-10-28T09:25:15Z</time>
      </trkpt>
      <trkpt lat="45.85665" lon="4.69847">
        <ele>195</ele>
        <time>2018-10-28T09:25:16Z</time>
      </trkpt>
      <trkpt lat="45.85664" lon="4.69839">
        <ele>195</ele>
        <time>2018-10-28T09:25:17Z</time>
      </trkpt>
      <trkpt lat="45.85663" lon="4.69831">
        <ele>195</ele>
        <time>2018-10-28T09:25:18Z</time>
      </trkpt>
      <trkpt lat="45.85663" lon="4.69824">
        <ele>195</ele>
        <time>2018-10-28T09:25:19Z</time>
      </trkpt>
      <trkpt lat="45.85663" lon="4.69817">
        <ele>195</ele>
        <time>2018-10-28T09:25:20Z</time>
      </trkpt>
      <trkpt lat="45.85662" lon="4.6981">
        <ele>195</ele>
        <time>2018-10-28T09:25:21Z</time>
      </trkpt>
      <trkpt lat="45.85661" lon="4.69803">
        <ele>195</ele>
        <time>2018-10-28T09:25:22Z</time>
      </trkpt>
      <trkpt lat="45.85661" lon="4.69795">
        <ele>195</ele>
        <time>2018-10-28T09:25:23Z</time>
      </trkpt>
      <trkpt lat="45.8566" lon="4.69787">
        <ele>195</ele>
        <time>2018-10-28T09:25:24Z</time>
      </trkpt>
      <trkpt lat="45.85659" lon="4.6978">
        <ele>195</ele>
        <time>2018-10-28T09:25:25Z</time>
      </trkpt>
      <trkpt lat="45.85658" lon="4.69773">
        <ele>195</ele>
        <time>2018-10-28T09:25:26Z</time>
      </trkpt>
      <trkpt lat="45.85657" lon="4.69765">
        <ele>195</ele>
        <time>2018-10-28T09:25:27Z</time>
      </trkpt>
      <trkpt lat="45.85656" lon="4.69757">
        <ele>195</ele>
        <time>2018-10-28T09:25:28Z</time>
      </trkpt>
      <trkpt lat="45.85656" lon="4.69749">
        <ele>195</ele>
        <time>2018-10-28T09:25:29Z</time>
      </trkpt>
      <trkpt lat="45.85655" lon="4.69741">
        <ele>195</ele>
        <time>2018-10-28T09:25:30Z</time>
      </trkpt>
      <trkpt lat="45.85654" lon="4.69732">
        <ele>195</ele>
        <time>2018-10-28T09:25:31Z</time>
      </trkpt>
      <trkpt lat="45.85654" lon="4.69725">
        <ele>195</ele>
        <time>2018-10-28T09:25:32Z</time>
      </trkpt>
      <trkpt lat="45.85653" lon="4.69716">
        <ele>196</ele>
        <time>2018-10-28T09:25:33Z</time>
      </trkpt>
      <trkpt lat="45.85651" lon="4.69708">
        <ele>196</ele>
        <time>2018-10-28T09:25:34Z</time>
      </trkpt>
      <trkpt lat="45.85651" lon="4.697">
        <ele>196</ele>
        <time>2018-10-28T09:25:35Z</time>
      </trkpt>
      <trkpt lat="45.8565" lon="4.69692">
        <ele>196</ele>
        <time>2018-10-28T09:25:36Z</time>
      </trkpt>
      <trkpt lat="45.85649" lon="4.69684">
        <ele>196</ele>
        <time>2018-10-28T09:25:37Z</time>
      </trkpt>
      <trkpt lat="45.85649" lon="4.69675">
        <ele>196</ele>
        <time>2018-10-28T09:25:38Z</time>
      </trkpt>
      <trkpt lat="45.85648" lon="4.69666">
        <ele>197</ele>
        <time>2018-10-28T09:25:39Z</time>
      </trkpt>
      <trkpt lat="45.85647" lon="4.69659">
        <ele>197</ele>
        <time>2018-10-28T09:25:40Z</time>
      </trkpt>
      <trkpt lat="45.85646" lon="4.69652">
        <ele>197</ele>
        <time>2018-10-28T09:25:41Z</time>
      </trkpt>
      <trkpt lat="45.85645" lon="4.69646">
        <ele>197</ele>
        <time>2018-10-28T09:25:42Z</time>
      </trkpt>
      <trkpt lat="45.85644" lon="4.69633">
        <ele>197</ele>
        <time>2018-10-28T09:25:44Z</time>
      </trkpt>
      <trkpt lat="45.85643" lon="4.69627">
        <ele>197</ele>
        <time>2018-10-28T09:25:45Z</time>
      </trkpt>
      <trkpt lat="45.85643" lon="4.69621">
        <ele>197</ele>
        <time>2018-10-28T09:25:46Z</time>
      </trkpt>
      <trkpt lat="45.85642" lon="4.69614">
        <ele>197</ele>
        <time>2018-10-28T09:25:47Z</time>
      </trkpt>
      <trkpt lat="45.85642" lon="4.69607">
        <ele>197</ele>
        <time>2018-10-28T09:25:48Z</time>
      </trkpt>
      <trkpt lat="45.85641" lon="4.696">
        <ele>197</ele>
        <time>2018-10-28T09:25:49Z</time>
      </trkpt>
      <trkpt lat="45.85641" lon="4.69593">
        <ele>197</ele>
        <time>2018-10-28T09:25:50Z</time>
      </trkpt>
      <trkpt lat="45.85639" lon="4.69585">
        <ele>197</ele>
        <time>2018-10-28T09:25:51Z</time>
      </trkpt>
      <trkpt lat="45.85639" lon="4.69579">
        <ele>198</ele>
        <time>2018-10-28T09:25:52Z</time>
      </trkpt>
      <trkpt lat="45.85638" lon="4.69571">
        <ele>198</ele>
        <time>2018-10-28T09:25:53Z</time>
      </trkpt>
      <trkpt lat="45.85638" lon="4.69564">
        <ele>198</ele>
        <time>2018-10-28T09:25:54Z</time>
      </trkpt>
      <trkpt lat="45.85638" lon="4.69556">
        <ele>198</ele>
        <time>2018-10-28T09:25:55Z</time>
      </trkpt>
      <trkpt lat="45.85637" lon="4.69549">
        <ele>198</ele>
        <time>2018-10-28T09:25:56Z</time>
      </trkpt>
      <trkpt lat="45.85636" lon="4.69541">
        <ele>198</ele>
        <time>2018-10-28T09:25:57Z</time>
      </trkpt>
      <trkpt lat="45.85636" lon="4.69534">
        <ele>198</ele>
        <time>2018-10-28T09:25:58Z</time>
      </trkpt>
      <trkpt lat="45.85635" lon="4.69526">
        <ele>198</ele>
        <time>2018-10-28T09:25:59Z</time>
      </trkpt>
      <trkpt lat="45.85634" lon="4.69519">
        <ele>198</ele>
        <time>2018-10-28T09:26:00Z</time>
      </trkpt>
      <trkpt lat="45.85633" lon="4.69511">
        <ele>198</ele>
        <time>2018-10-28T09:26:01Z</time>
      </trkpt>
      <trkpt lat="45.85633" lon="4.69504">
        <ele>198</ele>
        <time>2018-10-28T09:26:02Z</time>
      </trkpt>
      <trkpt lat="45.85632" lon="4.69497">
        <ele>198</ele>
        <time>2018-10-28T09:26:03Z</time>
      </trkpt>
      <trkpt lat="45.85631" lon="4.6949">
        <ele>198</ele>
        <time>2018-10-28T09:26:04Z</time>
      </trkpt>
      <trkpt lat="45.85631" lon="4.69483">
        <ele>198</ele>
        <time>2018-10-28T09:26:05Z</time>
      </trkpt>
      <trkpt lat="45.85631" lon="4.69476">
        <ele>198</ele>
        <time>2018-10-28T09:26:06Z</time>
      </trkpt>
      <trkpt lat="45.8563" lon="4.69469">
        <ele>198</ele>
        <time>2018-10-28T09:26:07Z</time>
      </trkpt>
      <trkpt lat="45.85629" lon="4.69462">
        <ele>198</ele>
        <time>2018-10-28T09:26:08Z</time>
      </trkpt>
      <trkpt lat="45.85627" lon="4.69455">
        <ele>198</ele>
        <time>2018-10-28T09:26:09Z</time>
      </trkpt>
      <trkpt lat="45.85627" lon="4.69448">
        <ele>198</ele>
        <time>2018-10-28T09:26:10Z</time>
      </trkpt>
      <trkpt lat="45.85626" lon="4.6944">
        <ele>198</ele>
        <time>2018-10-28T09:26:11Z</time>
      </trkpt>
      <trkpt lat="45.85625" lon="4.69433">
        <ele>198</ele>
        <time>2018-10-28T09:26:12Z</time>
      </trkpt>
      <trkpt lat="45.85625" lon="4.69425">
        <ele>198</ele>
        <time>2018-10-28T09:26:13Z</time>
      </trkpt>
      <trkpt lat="45.85624" lon="4.69417">
        <ele>198</ele>
        <time>2018-10-28T09:26:14Z</time>
      </trkpt>
      <trkpt lat="45.85622" lon="4.69409">
        <ele>198</ele>
        <time>2018-10-28T09:26:15Z</time>
      </trkpt>
      <trkpt lat="45.85621" lon="4.69402">
        <ele>198</ele>
        <time>2018-10-28T09:26:16Z</time>
      </trkpt>
      <trkpt lat="45.85621" lon="4.69394">
        <ele>198</ele>
        <time>2018-10-28T09:26:17Z</time>
      </trkpt>
      <trkpt lat="45.85621" lon="4.69387">
        <ele>198</ele>
        <time>2018-10-28T09:26:18Z</time>
      </trkpt>
      <trkpt lat="45.85621" lon="4.6938">
        <ele>198</ele>
        <time>2018-10-28T09:26:19Z</time>
      </trkpt>
      <trkpt lat="45.8562" lon="4.69373">
        <ele>198</ele>
        <time>2018-10-28T09:26:20Z</time>
      </trkpt>
      <trkpt lat="45.85619" lon="4.69366">
        <ele>198</ele>
        <time>2018-10-28T09:26:21Z</time>
      </trkpt>
      <trkpt lat="45.85618" lon="4.69359">
        <ele>198</ele>
        <time>2018-10-28T09:26:22Z</time>
      </trkpt>
      <trkpt lat="45.85618" lon="4.69353">
        <ele>198</ele>
        <time>2018-10-28T09:26:23Z</time>
      </trkpt>
      <trkpt lat="45.85617" lon="4.69341">
        <ele>198</ele>
        <time>2018-10-28T09:26:25Z</time>
      </trkpt>
      <trkpt lat="45.85616" lon="4.69335">
        <ele>198</ele>
        <time>2018-10-28T09:26:26Z</time>
      </trkpt>
      <trkpt lat="45.85615" lon="4.69322">
        <ele>198</ele>
        <time>2018-10-28T09:26:28Z</time>
      </trkpt>
      <trkpt lat="45.85614" lon="4.69315">
        <ele>198</ele>
        <time>2018-10-28T09:26:29Z</time>
      </trkpt>
      <trkpt lat="45.85612" lon="4.69302">
        <ele>198</ele>
        <time>2018-10-28T09:26:31Z</time>
      </trkpt>
      <trkpt lat="45.85612" lon="4.69296">
        <ele>198</ele>
        <time>2018-10-28T09:26:32Z</time>
      </trkpt>
      <trkpt lat="45.85611" lon="4.69289">
        <ele>198</ele>
        <time>2018-10-28T09:26:33Z</time>
      </trkpt>
      <trkpt lat="45.85612" lon="4.69283">
        <ele>198</ele>
        <time>2018-10-28T09:26:34Z</time>
      </trkpt>
      <trkpt lat="45.85612" lon="4.69275">
        <ele>198</ele>
        <time>2018-10-28T09:26:35Z</time>
      </trkpt>
      <trkpt lat="45.85613" lon="4.69268">
        <ele>198</ele>
        <time>2018-10-28T09:26:36Z</time>
      </trkpt>
      <trkpt lat="45.85613" lon="4.69261">
        <ele>198</ele>
        <time>2018-10-28T09:26:37Z</time>
      </trkpt>
      <trkpt lat="45.85613" lon="4.69254">
        <ele>198</ele>
        <time>2018-10-28T09:26:38Z</time>
      </trkpt>
      <trkpt lat="45.8561" lon="4.69247">
        <ele>199</ele>
        <time>2018-10-28T09:26:39Z</time>
      </trkpt>
      <trkpt lat="45.85609" lon="4.69241">
        <ele>199</ele>
        <time>2018-10-28T09:26:40Z</time>
      </trkpt>
      <trkpt lat="45.85608" lon="4.69234">
        <ele>199</ele>
        <time>2018-10-28T09:26:41Z</time>
      </trkpt>
      <trkpt lat="45.85607" lon="4.69226">
        <ele>199</ele>
        <time>2018-10-28T09:26:42Z</time>
      </trkpt>
      <trkpt lat="45.85606" lon="4.69219">
        <ele>199</ele>
        <time>2018-10-28T09:26:43Z</time>
      </trkpt>
      <trkpt lat="45.85605" lon="4.69211">
        <ele>199</ele>
        <time>2018-10-28T09:26:44Z</time>
      </trkpt>
      <trkpt lat="45.85604" lon="4.69204">
        <ele>199</ele>
        <time>2018-10-28T09:26:45Z</time>
      </trkpt>
      <trkpt lat="45.85603" lon="4.69196">
        <ele>199</ele>
        <time>2018-10-28T09:26:46Z</time>
      </trkpt>
      <trkpt lat="45.85602" lon="4.69188">
        <ele>199</ele>
        <time>2018-10-28T09:26:47Z</time>
      </trkpt>
      <trkpt lat="45.85601" lon="4.6918">
        <ele>199</ele>
        <time>2018-10-28T09:26:48Z</time>
      </trkpt>
      <trkpt lat="45.856" lon="4.69173">
        <ele>199</ele>
        <time>2018-10-28T09:26:49Z</time>
      </trkpt>
      <trkpt lat="45.856" lon="4.69166">
        <ele>199</ele>
        <time>2018-10-28T09:26:50Z</time>
      </trkpt>
      <trkpt lat="45.856" lon="4.69157">
        <ele>199</ele>
        <time>2018-10-28T09:26:51Z</time>
      </trkpt>
      <trkpt lat="45.85599" lon="4.6915">
        <ele>199</ele>
        <time>2018-10-28T09:26:52Z</time>
      </trkpt>
      <trkpt lat="45.85599" lon="4.69142">
        <ele>199</ele>
        <time>2018-10-28T09:26:53Z</time>
      </trkpt>
      <trkpt lat="45.85598" lon="4.69133">
        <ele>198</ele>
        <time>2018-10-28T09:26:54Z</time>
      </trkpt>
      <trkpt lat="45.85596" lon="4.69125">
        <ele>198</ele>
        <time>2018-10-28T09:26:55Z</time>
      </trkpt>
      <trkpt lat="45.85596" lon="4.69117">
        <ele>198</ele>
        <time>2018-10-28T09:26:56Z</time>
      </trkpt>
      <trkpt lat="45.85596" lon="4.6911">
        <ele>199</ele>
        <time>2018-10-28T09:26:57Z</time>
      </trkpt>
      <trkpt lat="45.85595" lon="4.69102">
        <ele>199</ele>
        <time>2018-10-28T09:26:58Z</time>
      </trkpt>
      <trkpt lat="45.85595" lon="4.69095">
        <ele>199</ele>
        <time>2018-10-28T09:26:59Z</time>
      </trkpt>
      <trkpt lat="45.85594" lon="4.69088">
        <ele>199</ele>
        <time>2018-10-28T09:27:00Z</time>
      </trkpt>
      <trkpt lat="45.85592" lon="4.69076">
        <ele>199</ele>
        <time>2018-10-28T09:27:02Z</time>
      </trkpt>
      <trkpt lat="45.85592" lon="4.69069">
        <ele>199</ele>
        <time>2018-10-28T09:27:03Z</time>
      </trkpt>
      <trkpt lat="45.85591" lon="4.69062">
        <ele>199</ele>
        <time>2018-10-28T09:27:04Z</time>
      </trkpt>
      <trkpt lat="45.85591" lon="4.69055">
        <ele>199</ele>
        <time>2018-10-28T09:27:05Z</time>
      </trkpt>
      <trkpt lat="45.8559" lon="4.69048">
        <ele>199</ele>
        <time>2018-10-28T09:27:06Z</time>
      </trkpt>
      <trkpt lat="45.85588" lon="4.69041">
        <ele>199</ele>
        <time>2018-10-28T09:27:07Z</time>
      </trkpt>
      <trkpt lat="45.85587" lon="4.69033">
        <ele>199</ele>
        <time>2018-10-28T09:27:08Z</time>
      </trkpt>
      <trkpt lat="45.85587" lon="4.69026">
        <ele>199</ele>
        <time>2018-10-28T09:27:09Z</time>
      </trkpt>
      <trkpt lat="45.85586" lon="4.69018">
        <ele>199</ele>
        <time>2018-10-28T09:27:10Z</time>
      </trkpt>
      <trkpt lat="45.85585" lon="4.6901">
        <ele>200</ele>
        <time>2018-10-28T09:27:11Z</time>
      </trkpt>
      <trkpt lat="45.85585" lon="4.69003">
        <ele>200</ele>
        <time>2018-10-28T09:27:12Z</time>
      </trkpt>
      <trkpt lat="45.85585" lon="4.68994">
        <ele>200</ele>
        <time>2018-10-28T09:27:13Z</time>
      </trkpt>
      <trkpt lat="45.85584" lon="4.68986">
        <ele>200</ele>
        <time>2018-10-28T09:27:14Z</time>
      </trkpt>
      <trkpt lat="45.85584" lon="4.68979">
        <ele>200</ele>
        <time>2018-10-28T09:27:15Z</time>
      </trkpt>
      <trkpt lat="45.85583" lon="4.68971">
        <ele>200</ele>
        <time>2018-10-28T09:27:16Z</time>
      </trkpt>
      <trkpt lat="45.85583" lon="4.68963">
        <ele>200</ele>
        <time>2018-10-28T09:27:17Z</time>
      </trkpt>
      <trkpt lat="45.85583" lon="4.68954">
        <ele>200</ele>
        <time>2018-10-28T09:27:18Z</time>
      </trkpt>
      <trkpt lat="45.85581" lon="4.68945">
        <ele>200</ele>
        <time>2018-10-28T09:27:19Z</time>
      </trkpt>
      <trkpt lat="45.8558" lon="4.68937">
        <ele>200</ele>
        <time>2018-10-28T09:27:20Z</time>
      </trkpt>
      <trkpt lat="45.85579" lon="4.68928">
        <ele>200</ele>
        <time>2018-10-28T09:27:21Z</time>
      </trkpt>
      <trkpt lat="45.85578" lon="4.68919">
        <ele>200</ele>
        <time>2018-10-28T09:27:22Z</time>
      </trkpt>
      <trkpt lat="45.85578" lon="4.68911">
        <ele>200</ele>
        <time>2018-10-28T09:27:23Z</time>
      </trkpt>
      <trkpt lat="45.85577" lon="4.68903">
        <ele>200</ele>
        <time>2018-10-28T09:27:24Z</time>
      </trkpt>
      <trkpt lat="45.85576" lon="4.68894">
        <ele>200</ele>
        <time>2018-10-28T09:27:25Z</time>
      </trkpt>
      <trkpt lat="45.85574" lon="4.68887">
        <ele>200</ele>
        <time>2018-10-28T09:27:26Z</time>
      </trkpt>
      <trkpt lat="45.85574" lon="4.68879">
        <ele>200</ele>
        <time>2018-10-28T09:27:27Z</time>
      </trkpt>
      <trkpt lat="45.85573" lon="4.68872">
        <ele>200</ele>
        <time>2018-10-28T09:27:28Z</time>
      </trkpt>
      <trkpt lat="45.85573" lon="4.68865">
        <ele>200</ele>
        <time>2018-10-28T09:27:29Z</time>
      </trkpt>
      <trkpt lat="45.85573" lon="4.68857">
        <ele>200</ele>
        <time>2018-10-28T09:27:30Z</time>
      </trkpt>
      <trkpt lat="45.85572" lon="4.68848">
        <ele>200</ele>
        <time>2018-10-28T09:27:31Z</time>
      </trkpt>
      <trkpt lat="45.85571" lon="4.6884">
        <ele>200</ele>
        <time>2018-10-28T09:27:32Z</time>
      </trkpt>
      <trkpt lat="45.85571" lon="4.68834">
        <ele>200</ele>
        <time>2018-10-28T09:27:33Z</time>
      </trkpt>
      <trkpt lat="45.8557" lon="4.68826">
        <ele>200</ele>
        <time>2018-10-28T09:27:34Z</time>
      </trkpt>
      <trkpt lat="45.8557" lon="4.68818">
        <ele>200</ele>
        <time>2018-10-28T09:27:35Z</time>
      </trkpt>
      <trkpt lat="45.85569" lon="4.6881">
        <ele>200</ele>
        <time>2018-10-28T09:27:36Z</time>
      </trkpt>
      <trkpt lat="45.85568" lon="4.68802">
        <ele>200</ele>
        <time>2018-10-28T09:27:37Z</time>
      </trkpt>
      <trkpt lat="45.85567" lon="4.68794">
        <ele>200</ele>
        <time>2018-10-28T09:27:38Z</time>
      </trkpt>
      <trkpt lat="45.85565" lon="4.68785">
        <ele>200</ele>
        <time>2018-10-28T09:27:39Z</time>
      </trkpt>
      <trkpt lat="45.85565" lon="4.68777">
        <ele>200</ele>
        <time>2018-10-28T09:27:40Z</time>
      </trkpt>
      <trkpt lat="45.85563" lon="4.68767">
        <ele>200</ele>
        <time>2018-10-28T09:27:41Z</time>
      </trkpt>
      <trkpt lat="45.85562" lon="4.6876">
        <ele>200</ele>
        <time>2018-10-28T09:27:42Z</time>
      </trkpt>
      <trkpt lat="45.85561" lon="4.68752">
        <ele>200</ele>
        <time>2018-10-28T09:27:43Z</time>
      </trkpt>
      <trkpt lat="45.85561" lon="4.68743">
        <ele>200</ele>
        <time>2018-10-28T09:27:44Z</time>
      </trkpt>
      <trkpt lat="45.8556" lon="4.68735">
        <ele>200</ele>
        <time>2018-10-28T09:27:45Z</time>
      </trkpt>
      <trkpt lat="45.85559" lon="4.68726">
        <ele>200</ele>
        <time>2018-10-28T09:27:46Z</time>
      </trkpt>
      <trkpt lat="45.85559" lon="4.68717">
        <ele>200</ele>
        <time>2018-10-28T09:27:47Z</time>
      </trkpt>
      <trkpt lat="45.85558" lon="4.68709">
        <ele>200</ele>
        <time>2018-10-28T09:27:48Z</time>
      </trkpt>
      <trkpt lat="45.85556" lon="4.687">
        <ele>200</ele>
        <time>2018-10-28T09:27:49Z</time>
      </trkpt>
      <trkpt lat="45.85556" lon="4.68692">
        <ele>200</ele>
        <time>2018-10-28T09:27:50Z</time>
      </trkpt>
      <trkpt lat="45.85555" lon="4.68683">
        <ele>200</ele>
        <time>2018-10-28T09:27:51Z</time>
      </trkpt>
      <trkpt lat="45.85554" lon="4.68675">
        <ele>200</ele>
        <time>2018-10-28T09:27:52Z</time>
      </trkpt>
      <trkpt lat="45.85553" lon="4.68666">
        <ele>200</ele>
        <time>2018-10-28T09:27:53Z</time>
      </trkpt>
      <trkpt lat="45.85553" lon="4.68657">
        <ele>200</ele>
        <time>2018-10-28T09:27:54Z</time>
      </trkpt>
      <trkpt lat="45.85552" lon="4.68648">
        <ele>201</ele>
        <time>2018-10-28T09:27:55Z</time>
      </trkpt>
      <trkpt lat="45.85552" lon="4.68639">
        <ele>201</ele>
        <time>2018-10-28T09:27:56Z</time>
      </trkpt>
      <trkpt lat="45.85551" lon="4.68631">
        <ele>201</ele>
        <time>2018-10-28T09:27:57Z</time>
      </trkpt>
      <trkpt lat="45.8555" lon="4.68623">
        <ele>201</ele>
        <time>2018-10-28T09:27:58Z</time>
      </trkpt>
      <trkpt lat="45.85549" lon="4.68616">
        <ele>201</ele>
        <time>2018-10-28T09:27:59Z</time>
      </trkpt>
      <trkpt lat="45.85548" lon="4.68608">
        <ele>201</ele>
        <time>2018-10-28T09:28:00Z</time>
      </trkpt>
      <trkpt lat="45.85547" lon="4.68602">
        <ele>201</ele>
        <time>2018-10-28T09:28:01Z</time>
      </trkpt>
      <trkpt lat="45.85548" lon="4.68596">
        <ele>201</ele>
        <time>2018-10-28T09:28:02Z</time>
      </trkpt>
      <trkpt lat="45.85547" lon="4.68588">
        <ele>201</ele>
        <time>2018-10-28T09:28:03Z</time>
      </trkpt>
      <trkpt lat="45.85547" lon="4.68579">
        <ele>201</ele>
        <time>2018-10-28T09:28:04Z</time>
      </trkpt>
      <trkpt lat="45.85546" lon="4.68572">
        <ele>201</ele>
        <time>2018-10-28T09:28:05Z</time>
      </trkpt>
      <trkpt lat="45.85546" lon="4.68562">
        <ele>201</ele>
        <time>2018-10-28T09:28:06Z</time>
      </trkpt>
      <trkpt lat="45.85545" lon="4.68553">
        <ele>201</ele>
        <time>2018-10-28T09:28:07Z</time>
      </trkpt>
      <trkpt lat="45.85544" lon="4.68545">
        <ele>201</ele>
        <time>2018-10-28T09:28:08Z</time>
      </trkpt>
      <trkpt lat="45.85543" lon="4.68537">
        <ele>201</ele>
        <time>2018-10-28T09:28:09Z</time>
      </trkpt>
      <trkpt lat="45.85542" lon="4.68527">
        <ele>201</ele>
        <time>2018-10-28T09:28:10Z</time>
      </trkpt>
      <trkpt lat="45.85541" lon="4.68519">
        <ele>201</ele>
        <time>2018-10-28T09:28:11Z</time>
      </trkpt>
      <trkpt lat="45.85541" lon="4.6851">
        <ele>201</ele>
        <time>2018-10-28T09:28:12Z</time>
      </trkpt>
      <trkpt lat="45.8554" lon="4.68501">
        <ele>201</ele>
        <time>2018-10-28T09:28:13Z</time>
      </trkpt>
      <trkpt lat="45.85539" lon="4.68493">
        <ele>200</ele>
        <time>2018-10-28T09:28:14Z</time>
      </trkpt>
      <trkpt lat="45.85539" lon="4.68484">
        <ele>200</ele>
        <time>2018-10-28T09:28:15Z</time>
      </trkpt>
      <trkpt lat="45.85538" lon="4.68476">
        <ele>200</ele>
        <time>2018-10-28T09:28:16Z</time>
      </trkpt>
      <trkpt lat="45.85538" lon="4.68467">
        <ele>200</ele>
        <time>2018-10-28T09:28:17Z</time>
      </trkpt>
      <trkpt lat="45.85537" lon="4.68459">
        <ele>200</ele>
        <time>2018-10-28T09:28:18Z</time>
      </trkpt>
      <trkpt lat="45.85536" lon="4.6845">
        <ele>200</ele>
        <time>2018-10-28T09:28:19Z</time>
      </trkpt>
      <trkpt lat="45.85535" lon="4.68441">
        <ele>200</ele>
        <time>2018-10-28T09:28:20Z</time>
      </trkpt>
      <trkpt lat="45.85535" lon="4.68433">
        <ele>200</ele>
        <time>2018-10-28T09:28:21Z</time>
      </trkpt>
      <trkpt lat="45.85534" lon="4.68426">
        <ele>200</ele>
        <time>2018-10-28T09:28:22Z</time>
      </trkpt>
      <trkpt lat="45.85533" lon="4.68419">
        <ele>200</ele>
        <time>2018-10-28T09:28:23Z</time>
      </trkpt>
      <trkpt lat="45.85532" lon="4.68412">
        <ele>200</ele>
        <time>2018-10-28T09:28:24Z</time>
      </trkpt>
      <trkpt lat="45.85532" lon="4.68405">
        <ele>200</ele>
        <time>2018-10-28T09:28:25Z</time>
      </trkpt>
      <trkpt lat="45.85531" lon="4.68398">
        <ele>200</ele>
        <time>2018-10-28T09:28:26Z</time>
      </trkpt>
      <trkpt lat="45.85529" lon="4.6839">
        <ele>200</ele>
        <time>2018-10-28T09:28:27Z</time>
      </trkpt>
      <trkpt lat="45.85528" lon="4.68382">
        <ele>200</ele>
        <time>2018-10-28T09:28:28Z</time>
      </trkpt>
      <trkpt lat="45.85528" lon="4.68375">
        <ele>201</ele>
        <time>2018-10-28T09:28:29Z</time>
      </trkpt>
      <trkpt lat="45.85527" lon="4.68368">
        <ele>201</ele>
        <time>2018-10-28T09:28:30Z</time>
      </trkpt>
      <trkpt lat="45.85526" lon="4.6836">
        <ele>201</ele>
        <time>2018-10-28T09:28:31Z</time>
      </trkpt>
      <trkpt lat="45.85526" lon="4.68353">
        <ele>201</ele>
        <time>2018-10-28T09:28:32Z</time>
      </trkpt>
      <trkpt lat="45.85524" lon="4.68344">
        <ele>201</ele>
        <time>2018-10-28T09:28:33Z</time>
      </trkpt>
      <trkpt lat="45.85524" lon="4.68337">
        <ele>201</ele>
        <time>2018-10-28T09:28:34Z</time>
      </trkpt>
      <trkpt lat="45.85524" lon="4.68329">
        <ele>202</ele>
        <time>2018-10-28T09:28:35Z</time>
      </trkpt>
      <trkpt lat="45.85523" lon="4.68322">
        <ele>202</ele>
        <time>2018-10-28T09:28:36Z</time>
      </trkpt>
      <trkpt lat="45.85523" lon="4.68315">
        <ele>202</ele>
        <time>2018-10-28T09:28:37Z</time>
      </trkpt>
      <trkpt lat="45.85522" lon="4.68307">
        <ele>202</ele>
        <time>2018-10-28T09:28:38Z</time>
      </trkpt>
      <trkpt lat="45.85521" lon="4.683">
        <ele>202</ele>
        <time>2018-10-28T09:28:39Z</time>
      </trkpt>
      <trkpt lat="45.85521" lon="4.68293">
        <ele>202</ele>
        <time>2018-10-28T09:28:40Z</time>
      </trkpt>
      <trkpt lat="45.8552" lon="4.68286">
        <ele>202</ele>
        <time>2018-10-28T09:28:41Z</time>
      </trkpt>
      <trkpt lat="45.85519" lon="4.68274">
        <ele>202</ele>
        <time>2018-10-28T09:28:43Z</time>
      </trkpt>
      <trkpt lat="45.85518" lon="4.68267">
        <ele>202</ele>
        <time>2018-10-28T09:28:44Z</time>
      </trkpt>
      <trkpt lat="45.85517" lon="4.68254">
        <ele>203</ele>
        <time>2018-10-28T09:28:46Z</time>
      </trkpt>
      <trkpt lat="45.85515" lon="4.68248">
        <ele>203</ele>
        <time>2018-10-28T09:28:47Z</time>
      </trkpt>
      <trkpt lat="45.85515" lon="4.68241">
        <ele>203</ele>
        <time>2018-10-28T09:28:48Z</time>
      </trkpt>
      <trkpt lat="45.85514" lon="4.68234">
        <ele>203</ele>
        <time>2018-10-28T09:28:49Z</time>
      </trkpt>
      <trkpt lat="45.85511" lon="4.68227">
        <ele>203</ele>
        <time>2018-10-28T09:28:50Z</time>
      </trkpt>
      <trkpt lat="45.85511" lon="4.6822">
        <ele>203</ele>
        <time>2018-10-28T09:28:51Z</time>
      </trkpt>
      <trkpt lat="45.85511" lon="4.68207">
        <ele>203</ele>
        <time>2018-10-28T09:28:53Z</time>
      </trkpt>
      <trkpt lat="45.85512" lon="4.68201">
        <ele>203</ele>
        <time>2018-10-28T09:28:54Z</time>
      </trkpt>
      <trkpt lat="45.85512" lon="4.68194">
        <ele>203</ele>
        <time>2018-10-28T09:28:55Z</time>
      </trkpt>
      <trkpt lat="45.85512" lon="4.68188">
        <ele>203</ele>
        <time>2018-10-28T09:28:56Z</time>
      </trkpt>
      <trkpt lat="45.85512" lon="4.6818">
        <ele>203</ele>
        <time>2018-10-28T09:28:57Z</time>
      </trkpt>
      <trkpt lat="45.85512" lon="4.68174">
        <ele>204</ele>
        <time>2018-10-28T09:28:58Z</time>
      </trkpt>
      <trkpt lat="45.85511" lon="4.68162">
        <ele>204</ele>
        <time>2018-10-28T09:29:00Z</time>
      </trkpt>
      <trkpt lat="45.8551" lon="4.68156">
        <ele>203</ele>
        <time>2018-10-28T09:29:01Z</time>
      </trkpt>
      <trkpt lat="45.85508" lon="4.68149">
        <ele>203</ele>
        <time>2018-10-28T09:29:02Z</time>
      </trkpt>
      <trkpt lat="45.85509" lon="4.68143">
        <ele>203</ele>
        <time>2018-10-28T09:29:03Z</time>
      </trkpt>
      <trkpt lat="45.85507" lon="4.68136">
        <ele>203</ele>
        <time>2018-10-28T09:29:04Z</time>
      </trkpt>
      <trkpt lat="45.85505" lon="4.6813">
        <ele>203</ele>
        <time>2018-10-28T09:29:05Z</time>
      </trkpt>
      <trkpt lat="45.85503" lon="4.68118">
        <ele>203</ele>
        <time>2018-10-28T09:29:07Z</time>
      </trkpt>
      <trkpt lat="45.85503" lon="4.68112">
        <ele>203</ele>
        <time>2018-10-28T09:29:08Z</time>
      </trkpt>
      <trkpt lat="45.85503" lon="4.681">
        <ele>203</ele>
        <time>2018-10-28T09:29:11Z</time>
      </trkpt>
      <trkpt lat="45.85503" lon="4.68097">
        <ele>203</ele>
        <time>2018-10-28T09:29:12Z</time>
      </trkpt>
      <trkpt lat="45.85502" lon="4.68084">
        <ele>204</ele>
        <time>2018-10-28T09:29:14Z</time>
      </trkpt>
      <trkpt lat="45.85502" lon="4.68078">
        <ele>204</ele>
        <time>2018-10-28T09:29:15Z</time>
      </trkpt>
      <trkpt lat="45.85502" lon="4.68066">
        <ele>203</ele>
        <time>2018-10-28T09:29:17Z</time>
      </trkpt>
      <trkpt lat="45.85501" lon="4.68062">
        <ele>203</ele>
        <time>2018-10-28T09:29:18Z</time>
      </trkpt>
      <trkpt lat="45.855" lon="4.68055">
        <ele>203</ele>
        <time>2018-10-28T09:29:19Z</time>
      </trkpt>
      <trkpt lat="45.855" lon="4.68049">
        <ele>206</ele>
        <time>2018-10-28T09:29:20Z</time>
      </trkpt>
      <trkpt lat="45.85498" lon="4.68038">
        <ele>206</ele>
        <time>2018-10-28T09:29:22Z</time>
      </trkpt>
      <trkpt lat="45.85497" lon="4.68032">
        <ele>207</ele>
        <time>2018-10-28T09:29:23Z</time>
      </trkpt>
      <trkpt lat="45.85497" lon="4.6802">
        <ele>207</ele>
        <time>2018-10-28T09:29:25Z</time>
      </trkpt>
      <trkpt lat="45.85498" lon="4.68015">
        <ele>207</ele>
        <time>2018-10-28T09:29:26Z</time>
      </trkpt>
      <trkpt lat="45.85502" lon="4.68004">
        <ele>205</ele>
        <time>2018-10-28T09:29:28Z</time>
      </trkpt>
      <trkpt lat="45.85506" lon="4.67998">
        <ele>206</ele>
        <time>2018-10-28T09:29:29Z</time>
      </trkpt>
      <trkpt lat="45.85509" lon="4.67994">
        <ele>206</ele>
        <time>2018-10-28T09:29:30Z</time>
      </trkpt>
      <trkpt lat="45.85514" lon="4.67991">
        <ele>206</ele>
        <time>2018-10-28T09:29:31Z</time>
      </trkpt>
      <trkpt lat="45.85517" lon="4.67988">
        <ele>206</ele>
        <time>2018-10-28T09:29:32Z</time>
      </trkpt>
      <trkpt lat="45.85522" lon="4.67984">
        <ele>205</ele>
        <time>2018-10-28T09:29:33Z</time>
      </trkpt>
      <trkpt lat="45.85526" lon="4.67979">
        <ele>205</ele>
        <time>2018-10-28T09:29:34Z</time>
      </trkpt>
      <trkpt lat="45.8553" lon="4.67975">
        <ele>205</ele>
        <time>2018-10-28T09:29:35Z</time>
      </trkpt>
      <trkpt lat="45.85533" lon="4.67971">
        <ele>205</ele>
        <time>2018-10-28T09:29:36Z</time>
      </trkpt>
      <trkpt lat="45.85537" lon="4.67965">
        <ele>205</ele>
        <time>2018-10-28T09:29:37Z</time>
      </trkpt>
      <trkpt lat="45.85541" lon="4.6796">
        <ele>205</ele>
        <time>2018-10-28T09:29:38Z</time>
      </trkpt>
      <trkpt lat="45.85545" lon="4.67955">
        <ele>205</ele>
        <time>2018-10-28T09:29:39Z</time>
      </trkpt>
      <trkpt lat="45.85552" lon="4.67948">
        <ele>205</ele>
        <time>2018-10-28T09:29:41Z</time>
      </trkpt>
      <trkpt lat="45.85557" lon="4.67945">
        <ele>205</ele>
        <time>2018-10-28T09:29:42Z</time>
      </trkpt>
      <trkpt lat="45.8556" lon="4.67942">
        <ele>205</ele>
        <time>2018-10-28T09:29:43Z</time>
      </trkpt>
      <trkpt lat="45.85564" lon="4.67937">
        <ele>205</ele>
        <time>2018-10-28T09:29:44Z</time>
      </trkpt>
      <trkpt lat="45.85571" lon="4.67932">
        <ele>205</ele>
        <time>2018-10-28T09:29:46Z</time>
      </trkpt>
      <trkpt lat="45.85574" lon="4.67927">
        <ele>205</ele>
        <time>2018-10-28T09:29:47Z</time>
      </trkpt>
      <trkpt lat="45.85576" lon="4.6792">
        <ele>204</ele>
        <time>2018-10-28T09:29:48Z</time>
      </trkpt>
      <trkpt lat="45.85576" lon="4.67914">
        <ele>205</ele>
        <time>2018-10-28T09:29:49Z</time>
      </trkpt>
      <trkpt lat="45.85575" lon="4.67907">
        <ele>205</ele>
        <time>2018-10-28T09:29:50Z</time>
      </trkpt>
      <trkpt lat="45.85572" lon="4.679">
        <ele>206</ele>
        <time>2018-10-28T09:29:51Z</time>
      </trkpt>
      <trkpt lat="45.85571" lon="4.67891">
        <ele>206</ele>
        <time>2018-10-28T09:29:52Z</time>
      </trkpt>
      <trkpt lat="45.85572" lon="4.67884">
        <ele>206</ele>
        <time>2018-10-28T09:29:53Z</time>
      </trkpt>
      <trkpt lat="45.85571" lon="4.67876">
        <ele>207</ele>
        <time>2018-10-28T09:29:54Z</time>
      </trkpt>
      <trkpt lat="45.85572" lon="4.67868">
        <ele>207</ele>
        <time>2018-10-28T09:29:55Z</time>
      </trkpt>
      <trkpt lat="45.85573" lon="4.6786">
        <ele>207</ele>
        <time>2018-10-28T09:29:56Z</time>
      </trkpt>
      <trkpt lat="45.85574" lon="4.67852">
        <ele>206</ele>
        <time>2018-10-28T09:29:57Z</time>
      </trkpt>
      <trkpt lat="45.85574" lon="4.67844">
        <ele>206</ele>
        <time>2018-10-28T09:29:59Z</time>
      </trkpt>
      <trkpt lat="45.85576" lon="4.67835">
        <ele>206</ele>
        <time>2018-10-28T09:30:00Z</time>
      </trkpt>
      <trkpt lat="45.8558" lon="4.67825">
        <ele>206</ele>
        <time>2018-10-28T09:30:01Z</time>
      </trkpt>
      <trkpt lat="45.85582" lon="4.67816">
        <ele>206</ele>
        <time>2018-10-28T09:30:02Z</time>
      </trkpt>
      <trkpt lat="45.85583" lon="4.67808">
        <ele>206</ele>
        <time>2018-10-28T09:30:03Z</time>
      </trkpt>
      <trkpt lat="45.85585" lon="4.67799">
        <ele>209</ele>
        <time>2018-10-28T09:30:04Z</time>
      </trkpt>
      <trkpt lat="45.85586" lon="4.67793">
        <ele>210</ele>
        <time>2018-10-28T09:30:05Z</time>
      </trkpt>
      <trkpt lat="45.85588" lon="4.67787">
        <ele>209</ele>
        <time>2018-10-28T09:30:06Z</time>
      </trkpt>
      <trkpt lat="45.85591" lon="4.67779">
        <ele>209</ele>
        <time>2018-10-28T09:30:07Z</time>
      </trkpt>
      <trkpt lat="45.85595" lon="4.67773">
        <ele>209</ele>
        <time>2018-10-28T09:30:08Z</time>
      </trkpt>
      <trkpt lat="45.85597" lon="4.67766">
        <ele>208</ele>
        <time>2018-10-28T09:30:09Z</time>
      </trkpt>
      <trkpt lat="45.856" lon="4.67758">
        <ele>208</ele>
        <time>2018-10-28T09:30:10Z</time>
      </trkpt>
      <trkpt lat="45.85602" lon="4.67751">
        <ele>208</ele>
        <time>2018-10-28T09:30:11Z</time>
      </trkpt>
      <trkpt lat="45.85606" lon="4.67745">
        <ele>207</ele>
        <time>2018-10-28T09:30:12Z</time>
      </trkpt>
      <trkpt lat="45.85611" lon="4.67738">
        <ele>208</ele>
        <time>2018-10-28T09:30:13Z</time>
      </trkpt>
      <trkpt lat="45.85615" lon="4.67731">
        <ele>209</ele>
        <time>2018-10-28T09:30:14Z</time>
      </trkpt>
      <trkpt lat="45.8562" lon="4.67725">
        <ele>209</ele>
        <time>2018-10-28T09:30:15Z</time>
      </trkpt>
      <trkpt lat="45.85624" lon="4.67719">
        <ele>209</ele>
        <time>2018-10-28T09:30:16Z</time>
      </trkpt>
      <trkpt lat="45.85629" lon="4.67714">
        <ele>210</ele>
        <time>2018-10-28T09:30:17Z</time>
      </trkpt>
      <trkpt lat="45.85633" lon="4.67709">
        <ele>210</ele>
        <time>2018-10-28T09:30:18Z</time>
      </trkpt>
      <trkpt lat="45.85637" lon="4.67704">
        <ele>210</ele>
        <time>2018-10-28T09:30:19Z</time>
      </trkpt>
      <trkpt lat="45.85641" lon="4.677">
        <ele>210</ele>
        <time>2018-10-28T09:30:20Z</time>
      </trkpt>
      <trkpt lat="45.85646" lon="4.67695">
        <ele>210</ele>
        <time>2018-10-28T09:30:21Z</time>
      </trkpt>
      <trkpt lat="45.8565" lon="4.67691">
        <ele>210</ele>
        <time>2018-10-28T09:30:22Z</time>
      </trkpt>
      <trkpt lat="45.85655" lon="4.67686">
        <ele>209</ele>
        <time>2018-10-28T09:30:23Z</time>
      </trkpt>
      <trkpt lat="45.8566" lon="4.67681">
        <ele>209</ele>
        <time>2018-10-28T09:30:24Z</time>
      </trkpt>
      <trkpt lat="45.85665" lon="4.67678">
        <ele>209</ele>
        <time>2018-10-28T09:30:25Z</time>
      </trkpt>
      <trkpt lat="45.8567" lon="4.67674">
        <ele>213</ele>
        <time>2018-10-28T09:30:26Z</time>
      </trkpt>
      <trkpt lat="45.85674" lon="4.67672">
        <ele>213</ele>
        <time>2018-10-28T09:30:27Z</time>
      </trkpt>
      <trkpt lat="45.85679" lon="4.67668">
        <ele>214</ele>
        <time>2018-10-28T09:30:28Z</time>
      </trkpt>
      <trkpt lat="45.85684" lon="4.67666">
        <ele>210</ele>
        <time>2018-10-28T09:30:29Z</time>
      </trkpt>
      <trkpt lat="45.85689" lon="4.67662">
        <ele>211</ele>
        <time>2018-10-28T09:30:30Z</time>
      </trkpt>
      <trkpt lat="45.85695" lon="4.67657">
        <ele>211</ele>
        <time>2018-10-28T09:30:31Z</time>
      </trkpt>
      <trkpt lat="45.85699" lon="4.67654">
        <ele>211</ele>
        <time>2018-10-28T09:30:32Z</time>
      </trkpt>
      <trkpt lat="45.85704" lon="4.67649">
        <ele>211</ele>
        <time>2018-10-28T09:30:33Z</time>
      </trkpt>
      <trkpt lat="45.8571" lon="4.67645">
        <ele>212</ele>
        <time>2018-10-28T09:30:34Z</time>
      </trkpt>
      <trkpt lat="45.85715" lon="4.67642">
        <ele>212</ele>
        <time>2018-10-28T09:30:35Z</time>
      </trkpt>
      <trkpt lat="45.85719" lon="4.6764">
        <ele>212</ele>
        <time>2018-10-28T09:30:36Z</time>
      </trkpt>
      <trkpt lat="45.85724" lon="4.67638">
        <ele>212</ele>
        <time>2018-10-28T09:30:37Z</time>
      </trkpt>
      <trkpt lat="45.85728" lon="4.67635">
        <ele>212</ele>
        <time>2018-10-28T09:30:38Z</time>
      </trkpt>
      <trkpt lat="45.85734" lon="4.67633">
        <ele>212</ele>
        <time>2018-10-28T09:30:39Z</time>
      </trkpt>
      <trkpt lat="45.8574" lon="4.67628">
        <ele>212</ele>
        <time>2018-10-28T09:30:40Z</time>
      </trkpt>
      <trkpt lat="45.85745" lon="4.67624">
        <ele>212</ele>
        <time>2018-10-28T09:30:41Z</time>
      </trkpt>
      <trkpt lat="45.8575" lon="4.67621">
        <ele>219</ele>
        <time>2018-10-28T09:30:42Z</time>
      </trkpt>
      <trkpt lat="45.85755" lon="4.67618">
        <ele>218</ele>
        <time>2018-10-28T09:30:43Z</time>
      </trkpt>
      <trkpt lat="45.8576" lon="4.67615">
        <ele>218</ele>
        <time>2018-10-28T09:30:44Z</time>
      </trkpt>
      <trkpt lat="45.85765" lon="4.67611">
        <ele>218</ele>
        <time>2018-10-28T09:30:45Z</time>
      </trkpt>
      <trkpt lat="45.8577" lon="4.67606">
        <ele>218</ele>
        <time>2018-10-28T09:30:46Z</time>
      </trkpt>
      <trkpt lat="45.85776" lon="4.67602">
        <ele>218</ele>
        <time>2018-10-28T09:30:47Z</time>
      </trkpt>
      <trkpt lat="45.8578" lon="4.67598">
        <ele>218</ele>
        <time>2018-10-28T09:30:48Z</time>
      </trkpt>
      <trkpt lat="45.85786" lon="4.67593">
        <ele>219</ele>
        <time>2018-10-28T09:30:49Z</time>
      </trkpt>
      <trkpt lat="45.8579" lon="4.67588">
        <ele>219</ele>
        <time>2018-10-28T09:30:50Z</time>
      </trkpt>
      <trkpt lat="45.85795" lon="4.67584">
        <ele>220</ele>
        <time>2018-10-28T09:30:51Z</time>
      </trkpt>
      <trkpt lat="45.858" lon="4.67579">
        <ele>212</ele>
        <time>2018-10-28T09:30:52Z</time>
      </trkpt>
      <trkpt lat="45.85804" lon="4.67574">
        <ele>213</ele>
        <time>2018-10-28T09:30:53Z</time>
      </trkpt>
      <trkpt lat="45.85808" lon="4.6757">
        <ele>213</ele>
        <time>2018-10-28T09:30:54Z</time>
      </trkpt>
      <trkpt lat="45.85814" lon="4.67562">
        <ele>213</ele>
        <time>2018-10-28T09:30:56Z</time>
      </trkpt>
      <trkpt lat="45.85818" lon="4.67556">
        <ele>212</ele>
        <time>2018-10-28T09:30:57Z</time>
      </trkpt>
      <trkpt lat="45.85822" lon="4.6755">
        <ele>212</ele>
        <time>2018-10-28T09:30:58Z</time>
      </trkpt>
      <trkpt lat="45.85824" lon="4.67543">
        <ele>211</ele>
        <time>2018-10-28T09:30:59Z</time>
      </trkpt>
      <trkpt lat="45.85827" lon="4.67536">
        <ele>210</ele>
        <time>2018-10-28T09:31:00Z</time>
      </trkpt>
      <trkpt lat="45.85829" lon="4.67531">
        <ele>210</ele>
        <time>2018-10-28T09:31:01Z</time>
      </trkpt>
      <trkpt lat="45.85833" lon="4.67525">
        <ele>209</ele>
        <time>2018-10-28T09:31:02Z</time>
      </trkpt>
      <trkpt lat="45.85838" lon="4.67521">
        <ele>217</ele>
        <time>2018-10-28T09:31:03Z</time>
      </trkpt>
      <trkpt lat="45.85841" lon="4.67515">
        <ele>216</ele>
        <time>2018-10-28T09:31:04Z</time>
      </trkpt>
      <trkpt lat="45.85843" lon="4.67508">
        <ele>214</ele>
        <time>2018-10-28T09:31:05Z</time>
      </trkpt>
      <trkpt lat="45.85846" lon="4.67502">
        <ele>214</ele>
        <time>2018-10-28T09:31:06Z</time>
      </trkpt>
      <trkpt lat="45.85848" lon="4.67495">
        <ele>211</ele>
        <time>2018-10-28T09:31:07Z</time>
      </trkpt>
      <trkpt lat="45.8585" lon="4.67487">
        <ele>212</ele>
        <time>2018-10-28T09:31:08Z</time>
      </trkpt>
      <trkpt lat="45.85853" lon="4.67481">
        <ele>212</ele>
        <time>2018-10-28T09:31:09Z</time>
      </trkpt>
      <trkpt lat="45.85854" lon="4.67475">
        <ele>213</ele>
        <time>2018-10-28T09:31:10Z</time>
      </trkpt>
      <trkpt lat="45.85857" lon="4.67465">
        <ele>213</ele>
        <time>2018-10-28T09:31:11Z</time>
      </trkpt>
      <trkpt lat="45.85859" lon="4.67457">
        <ele>213</ele>
        <time>2018-10-28T09:31:12Z</time>
      </trkpt>
      <trkpt lat="45.85859" lon="4.67449">
        <ele>213</ele>
        <time>2018-10-28T09:31:13Z</time>
      </trkpt>
      <trkpt lat="45.85861" lon="4.67442">
        <ele>212</ele>
        <time>2018-10-28T09:31:14Z</time>
      </trkpt>
      <trkpt lat="45.85862" lon="4.67435">
        <ele>212</ele>
        <time>2018-10-28T09:31:15Z</time>
      </trkpt>
      <trkpt lat="45.85864" lon="4.67427">
        <ele>212</ele>
        <time>2018-10-28T09:31:16Z</time>
      </trkpt>
      <trkpt lat="45.85865" lon="4.67419">
        <ele>212</ele>
        <time>2018-10-28T09:31:17Z</time>
      </trkpt>
      <trkpt lat="45.85867" lon="4.67411">
        <ele>209</ele>
        <time>2018-10-28T09:31:18Z</time>
      </trkpt>
      <trkpt lat="45.85868" lon="4.67404">
        <ele>209</ele>
        <time>2018-10-28T09:31:19Z</time>
      </trkpt>
      <trkpt lat="45.85869" lon="4.67396">
        <ele>209</ele>
        <time>2018-10-28T09:31:20Z</time>
      </trkpt>
      <trkpt lat="45.8587" lon="4.67387">
        <ele>209</ele>
        <time>2018-10-28T09:31:21Z</time>
      </trkpt>
      <trkpt lat="45.85871" lon="4.67378">
        <ele>209</ele>
        <time>2018-10-28T09:31:22Z</time>
      </trkpt>
      <trkpt lat="45.85871" lon="4.6737">
        <ele>209</ele>
        <time>2018-10-28T09:31:23Z</time>
      </trkpt>
      <trkpt lat="45.85872" lon="4.67362">
        <ele>209</ele>
        <time>2018-10-28T09:31:24Z</time>
      </trkpt>
      <trkpt lat="45.85873" lon="4.67354">
        <ele>208</ele>
        <time>2018-10-28T09:31:25Z</time>
      </trkpt>
      <trkpt lat="45.85874" lon="4.67347">
        <ele>208</ele>
        <time>2018-10-28T09:31:26Z</time>
      </trkpt>
      <trkpt lat="45.85875" lon="4.67339">
        <ele>208</ele>
        <time>2018-10-28T09:31:27Z</time>
      </trkpt>
      <trkpt lat="45.85876" lon="4.67331">
        <ele>206</ele>
        <time>2018-10-28T09:31:28Z</time>
      </trkpt>
      <trkpt lat="45.85877" lon="4.67324">
        <ele>206</ele>
        <time>2018-10-28T09:31:29Z</time>
      </trkpt>
      <trkpt lat="45.85878" lon="4.67316">
        <ele>206</ele>
        <time>2018-10-28T09:31:30Z</time>
      </trkpt>
      <trkpt lat="45.8588" lon="4.67307">
        <ele>206</ele>
        <time>2018-10-28T09:31:31Z</time>
      </trkpt>
      <trkpt lat="45.8588" lon="4.673">
        <ele>206</ele>
        <time>2018-10-28T09:31:32Z</time>
      </trkpt>
      <trkpt lat="45.85881" lon="4.67292">
        <ele>206</ele>
        <time>2018-10-28T09:31:33Z</time>
      </trkpt>
      <trkpt lat="45.85883" lon="4.67285">
        <ele>205</ele>
        <time>2018-10-28T09:31:34Z</time>
      </trkpt>
      <trkpt lat="45.85883" lon="4.67278">
        <ele>205</ele>
        <time>2018-10-28T09:31:35Z</time>
      </trkpt>
      <trkpt lat="45.85883" lon="4.6727">
        <ele>205</ele>
        <time>2018-10-28T09:31:36Z</time>
      </trkpt>
      <trkpt lat="45.85884" lon="4.67262">
        <ele>205</ele>
        <time>2018-10-28T09:31:37Z</time>
      </trkpt>
      <trkpt lat="45.85884" lon="4.67254">
        <ele>205</ele>
        <time>2018-10-28T09:31:38Z</time>
      </trkpt>
      <trkpt lat="45.85885" lon="4.67246">
        <ele>204</ele>
        <time>2018-10-28T09:31:39Z</time>
      </trkpt>
      <trkpt lat="45.85885" lon="4.67238">
        <ele>204</ele>
        <time>2018-10-28T09:31:40Z</time>
      </trkpt>
      <trkpt lat="45.85886" lon="4.67231">
        <ele>204</ele>
        <time>2018-10-28T09:31:41Z</time>
      </trkpt>
      <trkpt lat="45.85886" lon="4.67224">
        <ele>204</ele>
        <time>2018-10-28T09:31:42Z</time>
      </trkpt>
      <trkpt lat="45.85887" lon="4.67218">
        <ele>204</ele>
        <time>2018-10-28T09:31:43Z</time>
      </trkpt>
      <trkpt lat="45.85886" lon="4.67212">
        <ele>204</ele>
        <time>2018-10-28T09:31:44Z</time>
      </trkpt>
      <trkpt lat="45.85887" lon="4.67204">
        <ele>204</ele>
        <time>2018-10-28T09:31:45Z</time>
      </trkpt>
      <trkpt lat="45.85887" lon="4.67197">
        <ele>204</ele>
        <time>2018-10-28T09:31:46Z</time>
      </trkpt>
      <trkpt lat="45.85888" lon="4.6719">
        <ele>204</ele>
        <time>2018-10-28T09:31:47Z</time>
      </trkpt>
      <trkpt lat="45.85889" lon="4.67183">
        <ele>204</ele>
        <time>2018-10-28T09:31:48Z</time>
      </trkpt>
      <trkpt lat="45.8589" lon="4.67174">
        <ele>205</ele>
        <time>2018-10-28T09:31:49Z</time>
      </trkpt>
      <trkpt lat="45.85891" lon="4.67167">
        <ele>205</ele>
        <time>2018-10-28T09:31:50Z</time>
      </trkpt>
      <trkpt lat="45.85891" lon="4.6716">
        <ele>204</ele>
        <time>2018-10-28T09:31:51Z</time>
      </trkpt>
      <trkpt lat="45.85892" lon="4.67153">
        <ele>204</ele>
        <time>2018-10-28T09:31:52Z</time>
      </trkpt>
      <trkpt lat="45.85893" lon="4.67145">
        <ele>204</ele>
        <time>2018-10-28T09:31:53Z</time>
      </trkpt>
      <trkpt lat="45.85894" lon="4.67138">
        <ele>204</ele>
        <time>2018-10-28T09:31:54Z</time>
      </trkpt>
      <trkpt lat="45.85894" lon="4.6713">
        <ele>204</ele>
        <time>2018-10-28T09:31:55Z</time>
      </trkpt>
      <trkpt lat="45.85895" lon="4.67123">
        <ele>204</ele>
        <time>2018-10-28T09:31:56Z</time>
      </trkpt>
      <trkpt lat="45.85896" lon="4.67116">
        <ele>204</ele>
        <time>2018-10-28T09:31:57Z</time>
      </trkpt>
      <trkpt lat="45.85897" lon="4.67109">
        <ele>204</ele>
        <time>2018-10-28T09:31:58Z</time>
      </trkpt>
      <trkpt lat="45.85898" lon="4.671">
        <ele>204</ele>
        <time>2018-10-28T09:31:59Z</time>
      </trkpt>
      <trkpt lat="45.85899" lon="4.67092">
        <ele>204</ele>
        <time>2018-10-28T09:32:00Z</time>
      </trkpt>
      <trkpt lat="45.859" lon="4.67084">
        <ele>204</ele>
        <time>2018-10-28T09:32:01Z</time>
      </trkpt>
      <trkpt lat="45.85902" lon="4.67075">
        <ele>204</ele>
        <time>2018-10-28T09:32:02Z</time>
      </trkpt>
      <trkpt lat="45.85903" lon="4.67069">
        <ele>205</ele>
        <time>2018-10-28T09:32:03Z</time>
      </trkpt>
      <trkpt lat="45.85905" lon="4.67061">
        <ele>205</ele>
        <time>2018-10-28T09:32:04Z</time>
      </trkpt>
      <trkpt lat="45.85907" lon="4.67053">
        <ele>205</ele>
        <time>2018-10-28T09:32:05Z</time>
      </trkpt>
      <trkpt lat="45.85908" lon="4.67045">
        <ele>205</ele>
        <time>2018-10-28T09:32:06Z</time>
      </trkpt>
      <trkpt lat="45.85909" lon="4.67038">
        <ele>205</ele>
        <time>2018-10-28T09:32:07Z</time>
      </trkpt>
      <trkpt lat="45.8591" lon="4.67031">
        <ele>205</ele>
        <time>2018-10-28T09:32:08Z</time>
      </trkpt>
      <trkpt lat="45.85911" lon="4.67024">
        <ele>205</ele>
        <time>2018-10-28T09:32:09Z</time>
      </trkpt>
      <trkpt lat="45.85912" lon="4.67018">
        <ele>205</ele>
        <time>2018-10-28T09:32:10Z</time>
      </trkpt>
      <trkpt lat="45.85914" lon="4.67012">
        <ele>206</ele>
        <time>2018-10-28T09:32:11Z</time>
      </trkpt>
      <trkpt lat="45.85918" lon="4.67001">
        <ele>206</ele>
        <time>2018-10-28T09:32:13Z</time>
      </trkpt>
      <trkpt lat="45.8592" lon="4.66996">
        <ele>207</ele>
        <time>2018-10-28T09:32:14Z</time>
      </trkpt>
      <trkpt lat="45.85926" lon="4.66987">
        <ele>208</ele>
        <time>2018-10-28T09:32:16Z</time>
      </trkpt>
      <trkpt lat="45.85928" lon="4.66981">
        <ele>208</ele>
        <time>2018-10-28T09:32:17Z</time>
      </trkpt>
      <trkpt lat="45.85929" lon="4.66974">
        <ele>208</ele>
        <time>2018-10-28T09:32:18Z</time>
      </trkpt>
      <trkpt lat="45.85928" lon="4.66967">
        <ele>209</ele>
        <time>2018-10-28T09:32:19Z</time>
      </trkpt>
      <trkpt lat="45.85928" lon="4.66959">
        <ele>209</ele>
        <time>2018-10-28T09:32:20Z</time>
      </trkpt>
      <trkpt lat="45.85926" lon="4.66951">
        <ele>209</ele>
        <time>2018-10-28T09:32:21Z</time>
      </trkpt>
      <trkpt lat="45.85925" lon="4.66943">
        <ele>209</ele>
        <time>2018-10-28T09:32:22Z</time>
      </trkpt>
      <trkpt lat="45.85924" lon="4.66935">
        <ele>208</ele>
        <time>2018-10-28T09:32:23Z</time>
      </trkpt>
      <trkpt lat="45.85926" lon="4.66928">
        <ele>208</ele>
        <time>2018-10-28T09:32:24Z</time>
      </trkpt>
      <trkpt lat="45.85928" lon="4.66921">
        <ele>208</ele>
        <time>2018-10-28T09:32:25Z</time>
      </trkpt>
      <trkpt lat="45.85928" lon="4.66911">
        <ele>209</ele>
        <time>2018-10-28T09:32:26Z</time>
      </trkpt>
      <trkpt lat="45.8593" lon="4.66903">
        <ele>209</ele>
        <time>2018-10-28T09:32:27Z</time>
      </trkpt>
      <trkpt lat="45.85931" lon="4.66896">
        <ele>209</ele>
        <time>2018-10-28T09:32:28Z</time>
      </trkpt>
      <trkpt lat="45.85932" lon="4.66887">
        <ele>210</ele>
        <time>2018-10-28T09:32:29Z</time>
      </trkpt>
      <trkpt lat="45.85934" lon="4.66881">
        <ele>210</ele>
        <time>2018-10-28T09:32:30Z</time>
      </trkpt>
      <trkpt lat="45.85936" lon="4.66874">
        <ele>210</ele>
        <time>2018-10-28T09:32:31Z</time>
      </trkpt>
      <trkpt lat="45.85938" lon="4.66867">
        <ele>210</ele>
        <time>2018-10-28T09:32:32Z</time>
      </trkpt>
      <trkpt lat="45.85939" lon="4.6686">
        <ele>210</ele>
        <time>2018-10-28T09:32:33Z</time>
      </trkpt>
      <trkpt lat="45.85942" lon="4.66853">
        <ele>210</ele>
        <time>2018-10-28T09:32:34Z</time>
      </trkpt>
      <trkpt lat="45.85943" lon="4.66847">
        <ele>210</ele>
        <time>2018-10-28T09:32:35Z</time>
      </trkpt>
      <trkpt lat="45.85945" lon="4.6684">
        <ele>210</ele>
        <time>2018-10-28T09:32:36Z</time>
      </trkpt>
      <trkpt lat="45.85948" lon="4.66834">
        <ele>211</ele>
        <time>2018-10-28T09:32:37Z</time>
      </trkpt>
      <trkpt lat="45.85949" lon="4.66827">
        <ele>212</ele>
        <time>2018-10-28T09:32:38Z</time>
      </trkpt>
      <trkpt lat="45.85951" lon="4.6682">
        <ele>212</ele>
        <time>2018-10-28T09:32:39Z</time>
      </trkpt>
      <trkpt lat="45.85953" lon="4.66814">
        <ele>213</ele>
        <time>2018-10-28T09:32:40Z</time>
      </trkpt>
      <trkpt lat="45.85956" lon="4.66808">
        <ele>213</ele>
        <time>2018-10-28T09:32:41Z</time>
      </trkpt>
      <trkpt lat="45.85958" lon="4.66801">
        <ele>213</ele>
        <time>2018-10-28T09:32:42Z</time>
      </trkpt>
      <trkpt lat="45.85961" lon="4.66795">
        <ele>213</ele>
        <time>2018-10-28T09:32:43Z</time>
      </trkpt>
      <trkpt lat="45.85963" lon="4.6679">
        <ele>213</ele>
        <time>2018-10-28T09:32:44Z</time>
      </trkpt>
      <trkpt lat="45.85965" lon="4.66784">
        <ele>214</ele>
        <time>2018-10-28T09:32:45Z</time>
      </trkpt>
      <trkpt lat="45.85967" lon="4.66775">
        <ele>214</ele>
        <time>2018-10-28T09:32:47Z</time>
      </trkpt>
      <trkpt lat="45.85969" lon="4.66769">
        <ele>214</ele>
        <time>2018-10-28T09:32:48Z</time>
      </trkpt>
      <trkpt lat="45.85971" lon="4.66763">
        <ele>214</ele>
        <time>2018-10-28T09:32:49Z</time>
      </trkpt>
      <trkpt lat="45.85974" lon="4.66758">
        <ele>215</ele>
        <time>2018-10-28T09:32:50Z</time>
      </trkpt>
      <trkpt lat="45.85977" lon="4.66746">
        <ele>216</ele>
        <time>2018-10-28T09:32:52Z</time>
      </trkpt>
      <trkpt lat="45.85979" lon="4.6674">
        <ele>216</ele>
        <time>2018-10-28T09:32:53Z</time>
      </trkpt>
      <trkpt lat="45.85981" lon="4.66735">
        <ele>216</ele>
        <time>2018-10-28T09:32:54Z</time>
      </trkpt>
      <trkpt lat="45.85984" lon="4.66728">
        <ele>216</ele>
        <time>2018-10-28T09:32:55Z</time>
      </trkpt>
      <trkpt lat="45.85986" lon="4.66722">
        <ele>215</ele>
        <time>2018-10-28T09:32:56Z</time>
      </trkpt>
      <trkpt lat="45.85989" lon="4.66717">
        <ele>215</ele>
        <time>2018-10-28T09:32:57Z</time>
      </trkpt>
      <trkpt lat="45.85991" lon="4.66712">
        <ele>215</ele>
        <time>2018-10-28T09:32:58Z</time>
      </trkpt>
      <trkpt lat="45.85995" lon="4.66708">
        <ele>215</ele>
        <time>2018-10-28T09:32:59Z</time>
      </trkpt>
      <trkpt lat="45.85998" lon="4.66701">
        <ele>215</ele>
        <time>2018-10-28T09:33:00Z</time>
      </trkpt>
      <trkpt lat="45.86001" lon="4.66695">
        <ele>218</ele>
        <time>2018-10-28T09:33:01Z</time>
      </trkpt>
      <trkpt lat="45.86006" lon="4.66687">
        <ele>217</ele>
        <time>2018-10-28T09:33:03Z</time>
      </trkpt>
      <trkpt lat="45.8601" lon="4.66682">
        <ele>217</ele>
        <time>2018-10-28T09:33:04Z</time>
      </trkpt>
      <trkpt lat="45.86014" lon="4.66678">
        <ele>217</ele>
        <time>2018-10-28T09:33:05Z</time>
      </trkpt>
      <trkpt lat="45.86019" lon="4.66673">
        <ele>217</ele>
        <time>2018-10-28T09:33:06Z</time>
      </trkpt>
      <trkpt lat="45.86023" lon="4.66669">
        <ele>218</ele>
        <time>2018-10-28T09:33:07Z</time>
      </trkpt>
      <trkpt lat="45.86027" lon="4.66664">
        <ele>213</ele>
        <time>2018-10-28T09:33:08Z</time>
      </trkpt>
      <trkpt lat="45.8603" lon="4.66661">
        <ele>214</ele>
        <time>2018-10-28T09:33:09Z</time>
      </trkpt>
      <trkpt lat="45.86034" lon="4.66658">
        <ele>214</ele>
        <time>2018-10-28T09:33:10Z</time>
      </trkpt>
      <trkpt lat="45.86038" lon="4.66653">
        <ele>214</ele>
        <time>2018-10-28T09:33:11Z</time>
      </trkpt>
      <trkpt lat="45.86043" lon="4.66648">
        <ele>214</ele>
        <time>2018-10-28T09:33:12Z</time>
      </trkpt>
      <trkpt lat="45.86047" lon="4.66643">
        <ele>215</ele>
        <time>2018-10-28T09:33:13Z</time>
      </trkpt>
      <trkpt lat="45.86051" lon="4.6664">
        <ele>215</ele>
        <time>2018-10-28T09:33:14Z</time>
      </trkpt>
      <trkpt lat="45.86056" lon="4.66636">
        <ele>215</ele>
        <time>2018-10-28T09:33:15Z</time>
      </trkpt>
      <trkpt lat="45.86061" lon="4.66632">
        <ele>215</ele>
        <time>2018-10-28T09:33:16Z</time>
      </trkpt>
      <trkpt lat="45.86066" lon="4.66628">
        <ele>214</ele>
        <time>2018-10-28T09:33:17Z</time>
      </trkpt>
      <trkpt lat="45.8607" lon="4.66623">
        <ele>214</ele>
        <time>2018-10-28T09:33:18Z</time>
      </trkpt>
      <trkpt lat="45.86076" lon="4.6662">
        <ele>214</ele>
        <time>2018-10-28T09:33:19Z</time>
      </trkpt>
      <trkpt lat="45.8608" lon="4.66617">
        <ele>214</ele>
        <time>2018-10-28T09:33:20Z</time>
      </trkpt>
      <trkpt lat="45.86088" lon="4.66611">
        <ele>220</ele>
        <time>2018-10-28T09:33:22Z</time>
      </trkpt>
      <trkpt lat="45.86093" lon="4.66609">
        <ele>219</ele>
        <time>2018-10-28T09:33:23Z</time>
      </trkpt>
      <trkpt lat="45.86098" lon="4.66607">
        <ele>220</ele>
        <time>2018-10-28T09:33:24Z</time>
      </trkpt>
      <trkpt lat="45.86103" lon="4.66605">
        <ele>220</ele>
        <time>2018-10-28T09:33:25Z</time>
      </trkpt>
      <trkpt lat="45.86108" lon="4.66602">
        <ele>220</ele>
        <time>2018-10-28T09:33:26Z</time>
      </trkpt>
      <trkpt lat="45.8611" lon="4.66595">
        <ele>220</ele>
        <time>2018-10-28T09:33:27Z</time>
      </trkpt>
      <trkpt lat="45.86115" lon="4.66591">
        <ele>220</ele>
        <time>2018-10-28T09:33:28Z</time>
      </trkpt>
      <trkpt lat="45.86121" lon="4.66588">
        <ele>221</ele>
        <time>2018-10-28T09:33:29Z</time>
      </trkpt>
      <trkpt lat="45.86127" lon="4.66585">
        <ele>221</ele>
        <time>2018-10-28T09:33:30Z</time>
      </trkpt>
      <trkpt lat="45.86132" lon="4.66582">
        <ele>215</ele>
        <time>2018-10-28T09:33:31Z</time>
      </trkpt>
      <trkpt lat="45.86137" lon="4.66577">
        <ele>215</ele>
        <time>2018-10-28T09:33:32Z</time>
      </trkpt>
      <trkpt lat="45.86141" lon="4.66574">
        <ele>216</ele>
        <time>2018-10-28T09:33:33Z</time>
      </trkpt>
      <trkpt lat="45.86147" lon="4.6657">
        <ele>216</ele>
        <time>2018-10-28T09:33:34Z</time>
      </trkpt>
      <trkpt lat="45.86151" lon="4.66565">
        <ele>216</ele>
        <time>2018-10-28T09:33:35Z</time>
      </trkpt>
      <trkpt lat="45.86155" lon="4.6656">
        <ele>216</ele>
        <time>2018-10-28T09:33:36Z</time>
      </trkpt>
      <trkpt lat="45.8616" lon="4.66553">
        <ele>215</ele>
        <time>2018-10-28T09:33:37Z</time>
      </trkpt>
      <trkpt lat="45.86164" lon="4.66548">
        <ele>215</ele>
        <time>2018-10-28T09:33:38Z</time>
      </trkpt>
      <trkpt lat="45.86167" lon="4.66542">
        <ele>220</ele>
        <time>2018-10-28T09:33:39Z</time>
      </trkpt>
      <trkpt lat="45.86171" lon="4.66537">
        <ele>219</ele>
        <time>2018-10-28T09:33:40Z</time>
      </trkpt>
      <trkpt lat="45.86174" lon="4.66531">
        <ele>218</ele>
        <time>2018-10-28T09:33:41Z</time>
      </trkpt>
      <trkpt lat="45.86177" lon="4.66523">
        <ele>217</ele>
        <time>2018-10-28T09:33:42Z</time>
      </trkpt>
      <trkpt lat="45.8618" lon="4.66516">
        <ele>217</ele>
        <time>2018-10-28T09:33:43Z</time>
      </trkpt>
      <trkpt lat="45.86184" lon="4.66509">
        <ele>216</ele>
        <time>2018-10-28T09:33:44Z</time>
      </trkpt>
      <trkpt lat="45.86188" lon="4.66502">
        <ele>216</ele>
        <time>2018-10-28T09:33:45Z</time>
      </trkpt>
      <trkpt lat="45.8619" lon="4.66495">
        <ele>212</ele>
        <time>2018-10-28T09:33:46Z</time>
      </trkpt>
      <trkpt lat="45.86193" lon="4.66489">
        <ele>213</ele>
        <time>2018-10-28T09:33:47Z</time>
      </trkpt>
      <trkpt lat="45.862" lon="4.6648">
        <ele>213</ele>
        <time>2018-10-28T09:33:48Z</time>
      </trkpt>
      <trkpt lat="45.86205" lon="4.66471">
        <ele>213</ele>
        <time>2018-10-28T09:33:49Z</time>
      </trkpt>
      <trkpt lat="45.8621" lon="4.66463">
        <ele>213</ele>
        <time>2018-10-28T09:33:50Z</time>
      </trkpt>
      <trkpt lat="45.86214" lon="4.66455">
        <ele>213</ele>
        <time>2018-10-28T09:33:51Z</time>
      </trkpt>
      <trkpt lat="45.8622" lon="4.66448">
        <ele>213</ele>
        <time>2018-10-28T09:33:52Z</time>
      </trkpt>
      <trkpt lat="45.86225" lon="4.6644">
        <ele>214</ele>
        <time>2018-10-28T09:33:53Z</time>
      </trkpt>
      <trkpt lat="45.86228" lon="4.66433">
        <ele>214</ele>
        <time>2018-10-28T09:33:54Z</time>
      </trkpt>
      <trkpt lat="45.86232" lon="4.66426">
        <ele>214</ele>
        <time>2018-10-28T09:33:55Z</time>
      </trkpt>
      <trkpt lat="45.86235" lon="4.66419">
        <ele>214</ele>
        <time>2018-10-28T09:33:56Z</time>
      </trkpt>
      <trkpt lat="45.86238" lon="4.66414">
        <ele>213</ele>
        <time>2018-10-28T09:33:57Z</time>
      </trkpt>
      <trkpt lat="45.86242" lon="4.66408">
        <ele>213</ele>
        <time>2018-10-28T09:33:58Z</time>
      </trkpt>
      <trkpt lat="45.86245" lon="4.66402">
        <ele>213</ele>
        <time>2018-10-28T09:33:59Z</time>
      </trkpt>
      <trkpt lat="45.86249" lon="4.66394">
        <ele>212</ele>
        <time>2018-10-28T09:34:00Z</time>
      </trkpt>
      <trkpt lat="45.86253" lon="4.66389">
        <ele>216</ele>
        <time>2018-10-28T09:34:01Z</time>
      </trkpt>
      <trkpt lat="45.86256" lon="4.66382">
        <ele>216</ele>
        <time>2018-10-28T09:34:02Z</time>
      </trkpt>
      <trkpt lat="45.86258" lon="4.66377">
        <ele>216</ele>
        <time>2018-10-28T09:34:03Z</time>
      </trkpt>
      <trkpt lat="45.86261" lon="4.6637">
        <ele>216</ele>
        <time>2018-10-28T09:34:04Z</time>
      </trkpt>
      <trkpt lat="45.86264" lon="4.66364">
        <ele>216</ele>
        <time>2018-10-28T09:34:05Z</time>
      </trkpt>
      <trkpt lat="45.86268" lon="4.66357">
        <ele>216</ele>
        <time>2018-10-28T09:34:06Z</time>
      </trkpt>
      <trkpt lat="45.86271" lon="4.66351">
        <ele>216</ele>
        <time>2018-10-28T09:34:07Z</time>
      </trkpt>
      <trkpt lat="45.86275" lon="4.66344">
        <ele>216</ele>
        <time>2018-10-28T09:34:08Z</time>
      </trkpt>
      <trkpt lat="45.86278" lon="4.66339">
        <ele>216</ele>
        <time>2018-10-28T09:34:09Z</time>
      </trkpt>
      <trkpt lat="45.86283" lon="4.66333">
        <ele>214</ele>
        <time>2018-10-28T09:34:10Z</time>
      </trkpt>
      <trkpt lat="45.86287" lon="4.66325">
        <ele>214</ele>
        <time>2018-10-28T09:34:11Z</time>
      </trkpt>
      <trkpt lat="45.86293" lon="4.6632">
        <ele>214</ele>
        <time>2018-10-28T09:34:12Z</time>
      </trkpt>
      <trkpt lat="45.86299" lon="4.66314">
        <ele>215</ele>
        <time>2018-10-28T09:34:13Z</time>
      </trkpt>
      <trkpt lat="45.86303" lon="4.66309">
        <ele>215</ele>
        <time>2018-10-28T09:34:14Z</time>
      </trkpt>
      <trkpt lat="45.86307" lon="4.66304">
        <ele>215</ele>
        <time>2018-10-28T09:34:15Z</time>
      </trkpt>
      <trkpt lat="45.86311" lon="4.66298">
        <ele>215</ele>
        <time>2018-10-28T09:34:16Z</time>
      </trkpt>
      <trkpt lat="45.86316" lon="4.66293">
        <ele>215</ele>
        <time>2018-10-28T09:34:17Z</time>
      </trkpt>
      <trkpt lat="45.8632" lon="4.66287">
        <ele>214</ele>
        <time>2018-10-28T09:34:18Z</time>
      </trkpt>
      <trkpt lat="45.86324" lon="4.66283">
        <ele>214</ele>
        <time>2018-10-28T09:34:19Z</time>
      </trkpt>
      <trkpt lat="45.86328" lon="4.66278">
        <ele>214</ele>
        <time>2018-10-28T09:34:20Z</time>
      </trkpt>
      <trkpt lat="45.86332" lon="4.66274">
        <ele>214</ele>
        <time>2018-10-28T09:34:21Z</time>
      </trkpt>
      <trkpt lat="45.86336" lon="4.6627">
        <ele>217</ele>
        <time>2018-10-28T09:34:22Z</time>
      </trkpt>
      <trkpt lat="45.86342" lon="4.66266">
        <ele>217</ele>
        <time>2018-10-28T09:34:23Z</time>
      </trkpt>
      <trkpt lat="45.86346" lon="4.66262">
        <ele>217</ele>
        <time>2018-10-28T09:34:24Z</time>
      </trkpt>
      <trkpt lat="45.8635" lon="4.66258">
        <ele>217</ele>
        <time>2018-10-28T09:34:25Z</time>
      </trkpt>
      <trkpt lat="45.86354" lon="4.66255">
        <ele>217</ele>
        <time>2018-10-28T09:34:26Z</time>
      </trkpt>
      <trkpt lat="45.86359" lon="4.66252">
        <ele>218</ele>
        <time>2018-10-28T09:34:27Z</time>
      </trkpt>
      <trkpt lat="45.86364" lon="4.66249">
        <ele>213</ele>
        <time>2018-10-28T09:34:28Z</time>
      </trkpt>
      <trkpt lat="45.86368" lon="4.66246">
        <ele>213</ele>
        <time>2018-10-28T09:34:29Z</time>
      </trkpt>
      <trkpt lat="45.86374" lon="4.66244">
        <ele>214</ele>
        <time>2018-10-28T09:34:30Z</time>
      </trkpt>
      <trkpt lat="45.86379" lon="4.66241">
        <ele>214</ele>
        <time>2018-10-28T09:34:31Z</time>
      </trkpt>
      <trkpt lat="45.86383" lon="4.66238">
        <ele>214</ele>
        <time>2018-10-28T09:34:32Z</time>
      </trkpt>
      <trkpt lat="45.86388" lon="4.66236">
        <ele>214</ele>
        <time>2018-10-28T09:34:33Z</time>
      </trkpt>
      <trkpt lat="45.86393" lon="4.66232">
        <ele>215</ele>
        <time>2018-10-28T09:34:34Z</time>
      </trkpt>
      <trkpt lat="45.86398" lon="4.66231">
        <ele>215</ele>
        <time>2018-10-28T09:34:35Z</time>
      </trkpt>
      <trkpt lat="45.86403" lon="4.66228">
        <ele>215</ele>
        <time>2018-10-28T09:34:36Z</time>
      </trkpt>
      <trkpt lat="45.86409" lon="4.66227">
        <ele>215</ele>
        <time>2018-10-28T09:34:37Z</time>
      </trkpt>
      <trkpt lat="45.86417" lon="4.66225">
        <ele>218</ele>
        <time>2018-10-28T09:34:39Z</time>
      </trkpt>
      <trkpt lat="45.86423" lon="4.66223">
        <ele>218</ele>
        <time>2018-10-28T09:34:40Z</time>
      </trkpt>
      <trkpt lat="45.86431" lon="4.66219">
        <ele>218</ele>
        <time>2018-10-28T09:34:42Z</time>
      </trkpt>
      <trkpt lat="45.86436" lon="4.66218">
        <ele>218</ele>
        <time>2018-10-28T09:34:43Z</time>
      </trkpt>
      <trkpt lat="45.86441" lon="4.66217">
        <ele>218</ele>
        <time>2018-10-28T09:34:44Z</time>
      </trkpt>
      <trkpt lat="45.86447" lon="4.66215">
        <ele>218</ele>
        <time>2018-10-28T09:34:45Z</time>
      </trkpt>
      <trkpt lat="45.86455" lon="4.66213">
        <ele>218</ele>
        <time>2018-10-28T09:34:47Z</time>
      </trkpt>
      <trkpt lat="45.8646" lon="4.66212">
        <ele>218</ele>
        <time>2018-10-28T09:34:48Z</time>
      </trkpt>
      <trkpt lat="45.86468" lon="4.6621">
        <ele>218</ele>
        <time>2018-10-28T09:34:50Z</time>
      </trkpt>
      <trkpt lat="45.86472" lon="4.66208">
        <ele>218</ele>
        <time>2018-10-28T09:34:51Z</time>
      </trkpt>
      <trkpt lat="45.8648" lon="4.66205">
        <ele>218</ele>
        <time>2018-10-28T09:34:53Z</time>
      </trkpt>
      <trkpt lat="45.86484" lon="4.66204">
        <ele>218</ele>
        <time>2018-10-28T09:34:54Z</time>
      </trkpt>
      <trkpt lat="45.86493" lon="4.662">
        <ele>218</ele>
        <time>2018-10-28T09:34:56Z</time>
      </trkpt>
      <trkpt lat="45.86499" lon="4.66199">
        <ele>218</ele>
        <time>2018-10-28T09:34:57Z</time>
      </trkpt>
      <trkpt lat="45.86503" lon="4.66197">
        <ele>223</ele>
        <time>2018-10-28T09:34:58Z</time>
      </trkpt>
      <trkpt lat="45.86507" lon="4.66195">
        <ele>223</ele>
        <time>2018-10-28T09:34:59Z</time>
      </trkpt>
      <trkpt lat="45.86512" lon="4.66192">
        <ele>223</ele>
        <time>2018-10-28T09:35:00Z</time>
      </trkpt>
      <trkpt lat="45.86517" lon="4.66188">
        <ele>223</ele>
        <time>2018-10-28T09:35:01Z</time>
      </trkpt>
      <trkpt lat="45.86524" lon="4.66182">
        <ele>223</ele>
        <time>2018-10-28T09:35:03Z</time>
      </trkpt>
      <trkpt lat="45.86528" lon="4.6618">
        <ele>224</ele>
        <time>2018-10-28T09:35:04Z</time>
      </trkpt>
      <trkpt lat="45.86533" lon="4.66177">
        <ele>224</ele>
        <time>2018-10-28T09:35:05Z</time>
      </trkpt>
      <trkpt lat="45.86539" lon="4.66172">
        <ele>225</ele>
        <time>2018-10-28T09:35:06Z</time>
      </trkpt>
      <trkpt lat="45.86545" lon="4.66168">
        <ele>225</ele>
        <time>2018-10-28T09:35:07Z</time>
      </trkpt>
      <trkpt lat="45.8655" lon="4.66164">
        <ele>218</ele>
        <time>2018-10-28T09:35:08Z</time>
      </trkpt>
      <trkpt lat="45.86554" lon="4.66161">
        <ele>219</ele>
        <time>2018-10-28T09:35:09Z</time>
      </trkpt>
      <trkpt lat="45.86558" lon="4.66157">
        <ele>219</ele>
        <time>2018-10-28T09:35:10Z</time>
      </trkpt>
      <trkpt lat="45.86562" lon="4.66153">
        <ele>219</ele>
        <time>2018-10-28T09:35:11Z</time>
      </trkpt>
      <trkpt lat="45.86567" lon="4.66149">
        <ele>220</ele>
        <time>2018-10-28T09:35:12Z</time>
      </trkpt>
      <trkpt lat="45.86572" lon="4.66145">
        <ele>219</ele>
        <time>2018-10-28T09:35:13Z</time>
      </trkpt>
      <trkpt lat="45.86577" lon="4.6614">
        <ele>219</ele>
        <time>2018-10-28T09:35:14Z</time>
      </trkpt>
      <trkpt lat="45.86581" lon="4.66136">
        <ele>218</ele>
        <time>2018-10-28T09:35:15Z</time>
      </trkpt>
      <trkpt lat="45.86586" lon="4.66131">
        <ele>224</ele>
        <time>2018-10-28T09:35:16Z</time>
      </trkpt>
      <trkpt lat="45.86591" lon="4.66127">
        <ele>224</ele>
        <time>2018-10-28T09:35:17Z</time>
      </trkpt>
      <trkpt lat="45.86596" lon="4.66124">
        <ele>224</ele>
        <time>2018-10-28T09:35:18Z</time>
      </trkpt>
      <trkpt lat="45.86601" lon="4.66119">
        <ele>223</ele>
        <time>2018-10-28T09:35:19Z</time>
      </trkpt>
      <trkpt lat="45.86607" lon="4.66116">
        <ele>223</ele>
        <time>2018-10-28T09:35:20Z</time>
      </trkpt>
      <trkpt lat="45.86611" lon="4.66113">
        <ele>223</ele>
        <time>2018-10-28T09:35:21Z</time>
      </trkpt>
      <trkpt lat="45.86616" lon="4.6611">
        <ele>223</ele>
        <time>2018-10-28T09:35:22Z</time>
      </trkpt>
      <trkpt lat="45.86621" lon="4.66108">
        <ele>223</ele>
        <time>2018-10-28T09:35:23Z</time>
      </trkpt>
      <trkpt lat="45.86626" lon="4.66106">
        <ele>224</ele>
        <time>2018-10-28T09:35:24Z</time>
      </trkpt>
      <trkpt lat="45.86631" lon="4.66103">
        <ele>224</ele>
        <time>2018-10-28T09:35:25Z</time>
      </trkpt>
      <trkpt lat="45.86635" lon="4.66101">
        <ele>224</ele>
        <time>2018-10-28T09:35:26Z</time>
      </trkpt>
      <trkpt lat="45.8664" lon="4.66098">
        <ele>223</ele>
        <time>2018-10-28T09:35:27Z</time>
      </trkpt>
      <trkpt lat="45.86645" lon="4.66096">
        <ele>223</ele>
        <time>2018-10-28T09:35:28Z</time>
      </trkpt>
      <trkpt lat="45.8665" lon="4.66094">
        <ele>223</ele>
        <time>2018-10-28T09:35:29Z</time>
      </trkpt>
      <trkpt lat="45.86654" lon="4.66092">
        <ele>222</ele>
        <time>2018-10-28T09:35:30Z</time>
      </trkpt>
      <trkpt lat="45.86659" lon="4.6609">
        <ele>221</ele>
        <time>2018-10-28T09:35:31Z</time>
      </trkpt>
      <trkpt lat="45.86664" lon="4.66089">
        <ele>221</ele>
        <time>2018-10-28T09:35:32Z</time>
      </trkpt>
      <trkpt lat="45.86669" lon="4.66086">
        <ele>222</ele>
        <time>2018-10-28T09:35:33Z</time>
      </trkpt>
      <trkpt lat="45.86674" lon="4.66086">
        <ele>225</ele>
        <time>2018-10-28T09:35:34Z</time>
      </trkpt>
      <trkpt lat="45.86679" lon="4.66084">
        <ele>228</ele>
        <time>2018-10-28T09:35:35Z</time>
      </trkpt>
      <trkpt lat="45.86684" lon="4.66082">
        <ele>221</ele>
        <time>2018-10-28T09:35:36Z</time>
      </trkpt>
      <trkpt lat="45.86688" lon="4.6608">
        <ele>221</ele>
        <time>2018-10-28T09:35:37Z</time>
      </trkpt>
      <trkpt lat="45.86693" lon="4.66079">
        <ele>222</ele>
        <time>2018-10-28T09:35:38Z</time>
      </trkpt>
      <trkpt lat="45.86698" lon="4.66076">
        <ele>222</ele>
        <time>2018-10-28T09:35:39Z</time>
      </trkpt>
      <trkpt lat="45.86702" lon="4.66073">
        <ele>223</ele>
        <time>2018-10-28T09:35:40Z</time>
      </trkpt>
      <trkpt lat="45.86707" lon="4.6607">
        <ele>223</ele>
        <time>2018-10-28T09:35:41Z</time>
      </trkpt>
      <trkpt lat="45.8671" lon="4.66067">
        <ele>224</ele>
        <time>2018-10-28T09:35:42Z</time>
      </trkpt>
      <trkpt lat="45.86718" lon="4.66062">
        <ele>225</ele>
        <time>2018-10-28T09:35:44Z</time>
      </trkpt>
      <trkpt lat="45.86725" lon="4.66059">
        <ele>225</ele>
        <time>2018-10-28T09:35:45Z</time>
      </trkpt>
      <trkpt lat="45.86729" lon="4.66055">
        <ele>225</ele>
        <time>2018-10-28T09:35:46Z</time>
      </trkpt>
      <trkpt lat="45.86733" lon="4.66053">
        <ele>225</ele>
        <time>2018-10-28T09:35:47Z</time>
      </trkpt>
      <trkpt lat="45.86737" lon="4.6605">
        <ele>225</ele>
        <time>2018-10-28T09:35:48Z</time>
      </trkpt>
      <trkpt lat="45.86742" lon="4.66046">
        <ele>224</ele>
        <time>2018-10-28T09:35:49Z</time>
      </trkpt>
      <trkpt lat="45.86747" lon="4.66043">
        <ele>224</ele>
        <time>2018-10-28T09:35:50Z</time>
      </trkpt>
      <trkpt lat="45.86751" lon="4.66038">
        <ele>233</ele>
        <time>2018-10-28T09:35:51Z</time>
      </trkpt>
      <trkpt lat="45.86757" lon="4.66032">
        <ele>232</ele>
        <time>2018-10-28T09:35:53Z</time>
      </trkpt>
      <trkpt lat="45.86761" lon="4.66027">
        <ele>231</ele>
        <time>2018-10-28T09:35:54Z</time>
      </trkpt>
      <trkpt lat="45.86766" lon="4.6602">
        <ele>230</ele>
        <time>2018-10-28T09:35:56Z</time>
      </trkpt>
      <trkpt lat="45.86769" lon="4.66016">
        <ele>230</ele>
        <time>2018-10-28T09:35:57Z</time>
      </trkpt>
      <trkpt lat="45.86776" lon="4.66008">
        <ele>230</ele>
        <time>2018-10-28T09:35:59Z</time>
      </trkpt>
      <trkpt lat="45.8678" lon="4.66004">
        <ele>231</ele>
        <time>2018-10-28T09:36:00Z</time>
      </trkpt>
      <trkpt lat="45.86786" lon="4.65995">
        <ele>222</ele>
        <time>2018-10-28T09:36:02Z</time>
      </trkpt>
      <trkpt lat="45.86789" lon="4.6599">
        <ele>222</ele>
        <time>2018-10-28T09:36:03Z</time>
      </trkpt>
      <trkpt lat="45.86794" lon="4.65981">
        <ele>223</ele>
        <time>2018-10-28T09:36:05Z</time>
      </trkpt>
      <trkpt lat="45.86797" lon="4.65975">
        <ele>223</ele>
        <time>2018-10-28T09:36:06Z</time>
      </trkpt>
      <trkpt lat="45.868" lon="4.65971">
        <ele>223</ele>
        <time>2018-10-28T09:36:07Z</time>
      </trkpt>
      <trkpt lat="45.86804" lon="4.65965">
        <ele>223</ele>
        <time>2018-10-28T09:36:08Z</time>
      </trkpt>
      <trkpt lat="45.86807" lon="4.6596">
        <ele>223</ele>
        <time>2018-10-28T09:36:09Z</time>
      </trkpt>
      <trkpt lat="45.8681" lon="4.65954">
        <ele>222</ele>
        <time>2018-10-28T09:36:10Z</time>
      </trkpt>
      <trkpt lat="45.86813" lon="4.65948">
        <ele>222</ele>
        <time>2018-10-28T09:36:11Z</time>
      </trkpt>
      <trkpt lat="45.86816" lon="4.65943">
        <ele>222</ele>
        <time>2018-10-28T09:36:12Z</time>
      </trkpt>
      <trkpt lat="45.8682" lon="4.65937">
        <ele>222</ele>
        <time>2018-10-28T09:36:13Z</time>
      </trkpt>
      <trkpt lat="45.86823" lon="4.65929">
        <ele>221</ele>
        <time>2018-10-28T09:36:14Z</time>
      </trkpt>
      <trkpt lat="45.86826" lon="4.65924">
        <ele>221</ele>
        <time>2018-10-28T09:36:15Z</time>
      </trkpt>
      <trkpt lat="45.86829" lon="4.65918">
        <ele>221</ele>
        <time>2018-10-28T09:36:16Z</time>
      </trkpt>
      <trkpt lat="45.86832" lon="4.65914">
        <ele>220</ele>
        <time>2018-10-28T09:36:17Z</time>
      </trkpt>
      <trkpt lat="45.86835" lon="4.65908">
        <ele>223</ele>
        <time>2018-10-28T09:36:18Z</time>
      </trkpt>
      <trkpt lat="45.86838" lon="4.65902">
        <ele>225</ele>
        <time>2018-10-28T09:36:19Z</time>
      </trkpt>
      <trkpt lat="45.86841" lon="4.65897">
        <ele>225</ele>
        <time>2018-10-28T09:36:20Z</time>
      </trkpt>
      <trkpt lat="45.86846" lon="4.65887">
        <ele>226</ele>
        <time>2018-10-28T09:36:22Z</time>
      </trkpt>
      <trkpt lat="45.86849" lon="4.65881">
        <ele>226</ele>
        <time>2018-10-28T09:36:23Z</time>
      </trkpt>
      <trkpt lat="45.86852" lon="4.65877">
        <ele>226</ele>
        <time>2018-10-28T09:36:24Z</time>
      </trkpt>
      <trkpt lat="45.86855" lon="4.65871">
        <ele>226</ele>
        <time>2018-10-28T09:36:25Z</time>
      </trkpt>
      <trkpt lat="45.86858" lon="4.65865">
        <ele>226</ele>
        <time>2018-10-28T09:36:26Z</time>
      </trkpt>
      <trkpt lat="45.8686" lon="4.65859">
        <ele>226</ele>
        <time>2018-10-28T09:36:27Z</time>
      </trkpt>
      <trkpt lat="45.86863" lon="4.65853">
        <ele>226</ele>
        <time>2018-10-28T09:36:28Z</time>
      </trkpt>
      <trkpt lat="45.86865" lon="4.65846">
        <ele>225</ele>
        <time>2018-10-28T09:36:29Z</time>
      </trkpt>
      <trkpt lat="45.86866" lon="4.65839">
        <ele>225</ele>
        <time>2018-10-28T09:36:30Z</time>
      </trkpt>
      <trkpt lat="45.8687" lon="4.65831">
        <ele>221</ele>
        <time>2018-10-28T09:36:31Z</time>
      </trkpt>
      <trkpt lat="45.86872" lon="4.65825">
        <ele>222</ele>
        <time>2018-10-28T09:36:32Z</time>
      </trkpt>
      <trkpt lat="45.86875" lon="4.65819">
        <ele>222</ele>
        <time>2018-10-28T09:36:33Z</time>
      </trkpt>
      <trkpt lat="45.86877" lon="4.6581">
        <ele>223</ele>
        <time>2018-10-28T09:36:35Z</time>
      </trkpt>
      <trkpt lat="45.86878" lon="4.65802">
        <ele>223</ele>
        <time>2018-10-28T09:36:36Z</time>
      </trkpt>
      <trkpt lat="45.8688" lon="4.6579">
        <ele>223</ele>
        <time>2018-10-28T09:36:38Z</time>
      </trkpt>
      <trkpt lat="45.86881" lon="4.65785">
        <ele>223</ele>
        <time>2018-10-28T09:36:39Z</time>
      </trkpt>
      <trkpt lat="45.86881" lon="4.6578">
        <ele>223</ele>
        <time>2018-10-28T09:36:40Z</time>
      </trkpt>
      <trkpt lat="45.86882" lon="4.65772">
        <ele>223</ele>
        <time>2018-10-28T09:36:41Z</time>
      </trkpt>
      <trkpt lat="45.86883" lon="4.65765">
        <ele>223</ele>
        <time>2018-10-28T09:36:42Z</time>
      </trkpt>
      <trkpt lat="45.86884" lon="4.65755">
        <ele>223</ele>
        <time>2018-10-28T09:36:43Z</time>
      </trkpt>
      <trkpt lat="45.86886" lon="4.65747">
        <ele>223</ele>
        <time>2018-10-28T09:36:44Z</time>
      </trkpt>
      <trkpt lat="45.86888" lon="4.65738">
        <ele>223</ele>
        <time>2018-10-28T09:36:45Z</time>
      </trkpt>
      <trkpt lat="45.8689" lon="4.65731">
        <ele>223</ele>
        <time>2018-10-28T09:36:46Z</time>
      </trkpt>
      <trkpt lat="45.86891" lon="4.65721">
        <ele>223</ele>
        <time>2018-10-28T09:36:47Z</time>
      </trkpt>
      <trkpt lat="45.86892" lon="4.65712">
        <ele>223</ele>
        <time>2018-10-28T09:36:48Z</time>
      </trkpt>
      <trkpt lat="45.86893" lon="4.65705">
        <ele>223</ele>
        <time>2018-10-28T09:36:49Z</time>
      </trkpt>
      <trkpt lat="45.86893" lon="4.65694">
        <ele>223</ele>
        <time>2018-10-28T09:36:50Z</time>
      </trkpt>
      <trkpt lat="45.86893" lon="4.65687">
        <ele>224</ele>
        <time>2018-10-28T09:36:51Z</time>
      </trkpt>
      <trkpt lat="45.86894" lon="4.65677">
        <ele>224</ele>
        <time>2018-10-28T09:36:52Z</time>
      </trkpt>
      <trkpt lat="45.86895" lon="4.65669">
        <ele>225</ele>
        <time>2018-10-28T09:36:53Z</time>
      </trkpt>
      <trkpt lat="45.86895" lon="4.6566">
        <ele>225</ele>
        <time>2018-10-28T09:36:54Z</time>
      </trkpt>
      <trkpt lat="45.86896" lon="4.65652">
        <ele>224</ele>
        <time>2018-10-28T09:36:55Z</time>
      </trkpt>
      <trkpt lat="45.86896" lon="4.65643">
        <ele>223</ele>
        <time>2018-10-28T09:36:56Z</time>
      </trkpt>
      <trkpt lat="45.86897" lon="4.65634">
        <ele>223</ele>
        <time>2018-10-28T09:36:57Z</time>
      </trkpt>
      <trkpt lat="45.86898" lon="4.65626">
        <ele>223</ele>
        <time>2018-10-28T09:36:58Z</time>
      </trkpt>
      <trkpt lat="45.869" lon="4.65618">
        <ele>223</ele>
        <time>2018-10-28T09:36:59Z</time>
      </trkpt>
      <trkpt lat="45.86901" lon="4.65609">
        <ele>223</ele>
        <time>2018-10-28T09:37:00Z</time>
      </trkpt>
      <trkpt lat="45.86903" lon="4.65599">
        <ele>223</ele>
        <time>2018-10-28T09:37:01Z</time>
      </trkpt>
      <trkpt lat="45.86905" lon="4.6559">
        <ele>224</ele>
        <time>2018-10-28T09:37:02Z</time>
      </trkpt>
      <trkpt lat="45.86908" lon="4.65581">
        <ele>223</ele>
        <time>2018-10-28T09:37:03Z</time>
      </trkpt>
      <trkpt lat="45.8691" lon="4.65572">
        <ele>222</ele>
        <time>2018-10-28T09:37:04Z</time>
      </trkpt>
      <trkpt lat="45.86912" lon="4.65562">
        <ele>221</ele>
        <time>2018-10-28T09:37:05Z</time>
      </trkpt>
      <trkpt lat="45.86915" lon="4.65554">
        <ele>220</ele>
        <time>2018-10-28T09:37:06Z</time>
      </trkpt>
      <trkpt lat="45.86917" lon="4.65546">
        <ele>230</ele>
        <time>2018-10-28T09:37:07Z</time>
      </trkpt>
      <trkpt lat="45.8692" lon="4.65538">
        <ele>229</ele>
        <time>2018-10-28T09:37:08Z</time>
      </trkpt>
      <trkpt lat="45.86924" lon="4.6553">
        <ele>228</ele>
        <time>2018-10-28T09:37:09Z</time>
      </trkpt>
      <trkpt lat="45.86927" lon="4.65522">
        <ele>228</ele>
        <time>2018-10-28T09:37:10Z</time>
      </trkpt>
      <trkpt lat="45.8693" lon="4.65515">
        <ele>227</ele>
        <time>2018-10-28T09:37:11Z</time>
      </trkpt>
      <trkpt lat="45.86933" lon="4.65507">
        <ele>226</ele>
        <time>2018-10-28T09:37:12Z</time>
      </trkpt>
      <trkpt lat="45.86936" lon="4.65501">
        <ele>226</ele>
        <time>2018-10-28T09:37:13Z</time>
      </trkpt>
      <trkpt lat="45.8694" lon="4.65494">
        <ele>221</ele>
        <time>2018-10-28T09:37:14Z</time>
      </trkpt>
      <trkpt lat="45.86944" lon="4.65487">
        <ele>222</ele>
        <time>2018-10-28T09:37:15Z</time>
      </trkpt>
      <trkpt lat="45.86949" lon="4.6548">
        <ele>222</ele>
        <time>2018-10-28T09:37:16Z</time>
      </trkpt>
      <trkpt lat="45.86954" lon="4.65473">
        <ele>222</ele>
        <time>2018-10-28T09:37:17Z</time>
      </trkpt>
      <trkpt lat="45.86959" lon="4.65466">
        <ele>223</ele>
        <time>2018-10-28T09:37:18Z</time>
      </trkpt>
      <trkpt lat="45.86964" lon="4.65458">
        <ele>222</ele>
        <time>2018-10-28T09:37:19Z</time>
      </trkpt>
      <trkpt lat="45.8697" lon="4.65452">
        <ele>222</ele>
        <time>2018-10-28T09:37:20Z</time>
      </trkpt>
      <trkpt lat="45.86974" lon="4.65445">
        <ele>222</ele>
        <time>2018-10-28T09:37:21Z</time>
      </trkpt>
      <trkpt lat="45.86978" lon="4.6544">
        <ele>222</ele>
        <time>2018-10-28T09:37:22Z</time>
      </trkpt>
      <trkpt lat="45.86984" lon="4.65435">
        <ele>222</ele>
        <time>2018-10-28T09:37:23Z</time>
      </trkpt>
      <trkpt lat="45.86989" lon="4.65429">
        <ele>222</ele>
        <time>2018-10-28T09:37:24Z</time>
      </trkpt>
      <trkpt lat="45.86993" lon="4.65424">
        <ele>221</ele>
        <time>2018-10-28T09:37:25Z</time>
      </trkpt>
      <trkpt lat="45.86998" lon="4.65419">
        <ele>221</ele>
        <time>2018-10-28T09:37:26Z</time>
      </trkpt>
      <trkpt lat="45.87002" lon="4.65414">
        <ele>222</ele>
        <time>2018-10-28T09:37:27Z</time>
      </trkpt>
      <trkpt lat="45.87006" lon="4.65408">
        <ele>222</ele>
        <time>2018-10-28T09:37:28Z</time>
      </trkpt>
      <trkpt lat="45.8701" lon="4.65404">
        <ele>223</ele>
        <time>2018-10-28T09:37:29Z</time>
      </trkpt>
      <trkpt lat="45.87015" lon="4.65398">
        <ele>223</ele>
        <time>2018-10-28T09:37:30Z</time>
      </trkpt>
      <trkpt lat="45.87018" lon="4.65393">
        <ele>223</ele>
        <time>2018-10-28T09:37:31Z</time>
      </trkpt>
      <trkpt lat="45.87023" lon="4.65387">
        <ele>224</ele>
        <time>2018-10-28T09:37:32Z</time>
      </trkpt>
      <trkpt lat="45.87027" lon="4.6538">
        <ele>224</ele>
        <time>2018-10-28T09:37:33Z</time>
      </trkpt>
      <trkpt lat="45.87033" lon="4.65373">
        <ele>224</ele>
        <time>2018-10-28T09:37:34Z</time>
      </trkpt>
      <trkpt lat="45.87038" lon="4.65367">
        <ele>224</ele>
        <time>2018-10-28T09:37:35Z</time>
      </trkpt>
      <trkpt lat="45.87043" lon="4.65359">
        <ele>223</ele>
        <time>2018-10-28T09:37:36Z</time>
      </trkpt>
      <trkpt lat="45.87046" lon="4.65354">
        <ele>223</ele>
        <time>2018-10-28T09:37:37Z</time>
      </trkpt>
      <trkpt lat="45.87049" lon="4.65348">
        <ele>223</ele>
        <time>2018-10-28T09:37:38Z</time>
      </trkpt>
      <trkpt lat="45.87052" lon="4.65341">
        <ele>223</ele>
        <time>2018-10-28T09:37:39Z</time>
      </trkpt>
      <trkpt lat="45.87056" lon="4.65335">
        <ele>223</ele>
        <time>2018-10-28T09:37:40Z</time>
      </trkpt>
      <trkpt lat="45.87059" lon="4.6533">
        <ele>218</ele>
        <time>2018-10-28T09:37:41Z</time>
      </trkpt>
      <trkpt lat="45.87063" lon="4.65323">
        <ele>219</ele>
        <time>2018-10-28T09:37:42Z</time>
      </trkpt>
      <trkpt lat="45.87066" lon="4.65316">
        <ele>218</ele>
        <time>2018-10-28T09:37:43Z</time>
      </trkpt>
      <trkpt lat="45.87069" lon="4.6531">
        <ele>218</ele>
        <time>2018-10-28T09:37:44Z</time>
      </trkpt>
      <trkpt lat="45.87073" lon="4.65305">
        <ele>218</ele>
        <time>2018-10-28T09:37:45Z</time>
      </trkpt>
      <trkpt lat="45.87075" lon="4.65298">
        <ele>217</ele>
        <time>2018-10-28T09:37:46Z</time>
      </trkpt>
      <trkpt lat="45.87077" lon="4.65291">
        <ele>216</ele>
        <time>2018-10-28T09:37:47Z</time>
      </trkpt>
      <trkpt lat="45.87082" lon="4.65283">
        <ele>216</ele>
        <time>2018-10-28T09:37:48Z</time>
      </trkpt>
      <trkpt lat="45.87084" lon="4.65277">
        <ele>225</ele>
        <time>2018-10-28T09:37:49Z</time>
      </trkpt>
      <trkpt lat="45.87087" lon="4.65271">
        <ele>224</ele>
        <time>2018-10-28T09:37:50Z</time>
      </trkpt>
      <trkpt lat="45.8709" lon="4.65264">
        <ele>222</ele>
        <time>2018-10-28T09:37:51Z</time>
      </trkpt>
      <trkpt lat="45.87093" lon="4.65257">
        <ele>221</ele>
        <time>2018-10-28T09:37:52Z</time>
      </trkpt>
      <trkpt lat="45.87097" lon="4.65251">
        <ele>221</ele>
        <time>2018-10-28T09:37:53Z</time>
      </trkpt>
      <trkpt lat="45.87101" lon="4.65243">
        <ele>218</ele>
        <time>2018-10-28T09:37:54Z</time>
      </trkpt>
      <trkpt lat="45.87105" lon="4.65236">
        <ele>218</ele>
        <time>2018-10-28T09:37:55Z</time>
      </trkpt>
      <trkpt lat="45.87109" lon="4.6523">
        <ele>219</ele>
        <time>2018-10-28T09:37:56Z</time>
      </trkpt>
      <trkpt lat="45.87113" lon="4.65224">
        <ele>220</ele>
        <time>2018-10-28T09:37:57Z</time>
      </trkpt>
      <trkpt lat="45.87116" lon="4.65218">
        <ele>220</ele>
        <time>2018-10-28T09:37:58Z</time>
      </trkpt>
      <trkpt lat="45.8712" lon="4.65213">
        <ele>220</ele>
        <time>2018-10-28T09:37:59Z</time>
      </trkpt>
      <trkpt lat="45.87124" lon="4.65208">
        <ele>220</ele>
        <time>2018-10-28T09:38:00Z</time>
      </trkpt>
      <trkpt lat="45.87128" lon="4.65203">
        <ele>220</ele>
        <time>2018-10-28T09:38:01Z</time>
      </trkpt>
      <trkpt lat="45.87133" lon="4.65198">
        <ele>220</ele>
        <time>2018-10-28T09:38:02Z</time>
      </trkpt>
      <trkpt lat="45.87137" lon="4.65194">
        <ele>220</ele>
        <time>2018-10-28T09:38:03Z</time>
      </trkpt>
      <trkpt lat="45.87141" lon="4.6519">
        <ele>220</ele>
        <time>2018-10-28T09:38:04Z</time>
      </trkpt>
      <trkpt lat="45.87146" lon="4.65185">
        <ele>220</ele>
        <time>2018-10-28T09:38:05Z</time>
      </trkpt>
      <trkpt lat="45.8715" lon="4.65181">
        <ele>220</ele>
        <time>2018-10-28T09:38:06Z</time>
      </trkpt>
      <trkpt lat="45.87154" lon="4.65178">
        <ele>220</ele>
        <time>2018-10-28T09:38:07Z</time>
      </trkpt>
      <trkpt lat="45.8716" lon="4.65172">
        <ele>220</ele>
        <time>2018-10-28T09:38:09Z</time>
      </trkpt>
      <trkpt lat="45.87163" lon="4.65168">
        <ele>220</ele>
        <time>2018-10-28T09:38:10Z</time>
      </trkpt>
      <trkpt lat="45.87167" lon="4.65164">
        <ele>220</ele>
        <time>2018-10-28T09:38:12Z</time>
      </trkpt>
      <trkpt lat="45.87172" lon="4.6516">
        <ele>221</ele>
        <time>2018-10-28T09:38:13Z</time>
      </trkpt>
      <trkpt lat="45.87174" lon="4.65156">
        <ele>221</ele>
        <time>2018-10-28T09:38:14Z</time>
      </trkpt>
      <trkpt lat="45.87179" lon="4.65151">
        <ele>221</ele>
        <time>2018-10-28T09:38:15Z</time>
      </trkpt>
      <trkpt lat="45.87184" lon="4.65146">
        <ele>221</ele>
        <time>2018-10-28T09:38:16Z</time>
      </trkpt>
      <trkpt lat="45.87188" lon="4.65143">
        <ele>222</ele>
        <time>2018-10-28T09:38:17Z</time>
      </trkpt>
      <trkpt lat="45.87193" lon="4.65138">
        <ele>222</ele>
        <time>2018-10-28T09:38:18Z</time>
      </trkpt>
      <trkpt lat="45.87196" lon="4.65134">
        <ele>222</ele>
        <time>2018-10-28T09:38:19Z</time>
      </trkpt>
      <trkpt lat="45.87202" lon="4.65128">
        <ele>222</ele>
        <time>2018-10-28T09:38:20Z</time>
      </trkpt>
      <trkpt lat="45.87205" lon="4.65123">
        <ele>222</ele>
        <time>2018-10-28T09:38:21Z</time>
      </trkpt>
      <trkpt lat="45.87209" lon="4.65119">
        <ele>221</ele>
        <time>2018-10-28T09:38:22Z</time>
      </trkpt>
      <trkpt lat="45.87213" lon="4.65115">
        <ele>221</ele>
        <time>2018-10-28T09:38:23Z</time>
      </trkpt>
      <trkpt lat="45.87217" lon="4.65112">
        <ele>221</ele>
        <time>2018-10-28T09:38:24Z</time>
      </trkpt>
      <trkpt lat="45.87222" lon="4.6511">
        <ele>221</ele>
        <time>2018-10-28T09:38:25Z</time>
      </trkpt>
      <trkpt lat="45.87229" lon="4.65105">
        <ele>221</ele>
        <time>2018-10-28T09:38:27Z</time>
      </trkpt>
      <trkpt lat="45.87233" lon="4.65101">
        <ele>221</ele>
        <time>2018-10-28T09:38:28Z</time>
      </trkpt>
      <trkpt lat="45.87238" lon="4.651">
        <ele>221</ele>
        <time>2018-10-28T09:38:29Z</time>
      </trkpt>
      <trkpt lat="45.87242" lon="4.65096">
        <ele>220</ele>
        <time>2018-10-28T09:38:30Z</time>
      </trkpt>
      <trkpt lat="45.87247" lon="4.65089">
        <ele>219</ele>
        <time>2018-10-28T09:38:32Z</time>
      </trkpt>
      <trkpt lat="45.87253" lon="4.65083">
        <ele>220</ele>
        <time>2018-10-28T09:38:33Z</time>
      </trkpt>
      <trkpt lat="45.87256" lon="4.65079">
        <ele>219</ele>
        <time>2018-10-28T09:38:34Z</time>
      </trkpt>
      <trkpt lat="45.87261" lon="4.65074">
        <ele>219</ele>
        <time>2018-10-28T09:38:35Z</time>
      </trkpt>
      <trkpt lat="45.87266" lon="4.6507">
        <ele>219</ele>
        <time>2018-10-28T09:38:36Z</time>
      </trkpt>
      <trkpt lat="45.87275" lon="4.65065">
        <ele>220</ele>
        <time>2018-10-28T09:38:37Z</time>
      </trkpt>
      <trkpt lat="45.8728" lon="4.6506">
        <ele>220</ele>
        <time>2018-10-28T09:38:38Z</time>
      </trkpt>
      <trkpt lat="45.87285" lon="4.65054">
        <ele>220</ele>
        <time>2018-10-28T09:38:39Z</time>
      </trkpt>
      <trkpt lat="45.87288" lon="4.65049">
        <ele>220</ele>
        <time>2018-10-28T09:38:40Z</time>
      </trkpt>
      <trkpt lat="45.87292" lon="4.65043">
        <ele>220</ele>
        <time>2018-10-28T09:38:41Z</time>
      </trkpt>
      <trkpt lat="45.87297" lon="4.65037">
        <ele>220</ele>
        <time>2018-10-28T09:38:42Z</time>
      </trkpt>
      <trkpt lat="45.87301" lon="4.65031">
        <ele>220</ele>
        <time>2018-10-28T09:38:43Z</time>
      </trkpt>
      <trkpt lat="45.87305" lon="4.65026">
        <ele>219</ele>
        <time>2018-10-28T09:38:44Z</time>
      </trkpt>
      <trkpt lat="45.87309" lon="4.65021">
        <ele>219</ele>
        <time>2018-10-28T09:38:45Z</time>
      </trkpt>
      <trkpt lat="45.87311" lon="4.65014">
        <ele>219</ele>
        <time>2018-10-28T09:38:46Z</time>
      </trkpt>
      <trkpt lat="45.87314" lon="4.65007">
        <ele>219</ele>
        <time>2018-10-28T09:38:47Z</time>
      </trkpt>
      <trkpt lat="45.87317" lon="4.65">
        <ele>215</ele>
        <time>2018-10-28T09:38:48Z</time>
      </trkpt>
      <trkpt lat="45.87319" lon="4.64995">
        <ele>216</ele>
        <time>2018-10-28T09:38:49Z</time>
      </trkpt>
      <trkpt lat="45.87324" lon="4.64985">
        <ele>215</ele>
        <time>2018-10-28T09:38:51Z</time>
      </trkpt>
      <trkpt lat="45.87327" lon="4.6498">
        <ele>215</ele>
        <time>2018-10-28T09:38:52Z</time>
      </trkpt>
      <trkpt lat="45.87331" lon="4.64975">
        <ele>215</ele>
        <time>2018-10-28T09:38:53Z</time>
      </trkpt>
      <trkpt lat="45.87334" lon="4.64969">
        <ele>219</ele>
        <time>2018-10-28T09:38:54Z</time>
      </trkpt>
      <trkpt lat="45.87338" lon="4.64963">
        <ele>219</ele>
        <time>2018-10-28T09:38:55Z</time>
      </trkpt>
      <trkpt lat="45.87342" lon="4.64956">
        <ele>218</ele>
        <time>2018-10-28T09:38:56Z</time>
      </trkpt>
      <trkpt lat="45.87344" lon="4.64949">
        <ele>218</ele>
        <time>2018-10-28T09:38:57Z</time>
      </trkpt>
      <trkpt lat="45.87348" lon="4.64943">
        <ele>218</ele>
        <time>2018-10-28T09:38:58Z</time>
      </trkpt>
      <trkpt lat="45.87354" lon="4.64935">
        <ele>217</ele>
        <time>2018-10-28T09:38:59Z</time>
      </trkpt>
      <trkpt lat="45.87358" lon="4.64929">
        <ele>217</ele>
        <time>2018-10-28T09:39:00Z</time>
      </trkpt>
      <trkpt lat="45.87362" lon="4.64922">
        <ele>217</ele>
        <time>2018-10-28T09:39:01Z</time>
      </trkpt>
      <trkpt lat="45.87365" lon="4.64917">
        <ele>218</ele>
        <time>2018-10-28T09:39:02Z</time>
      </trkpt>
      <trkpt lat="45.87368" lon="4.64912">
        <ele>214</ele>
        <time>2018-10-28T09:39:03Z</time>
      </trkpt>
      <trkpt lat="45.87373" lon="4.64908">
        <ele>215</ele>
        <time>2018-10-28T09:39:04Z</time>
      </trkpt>
      <trkpt lat="45.87377" lon="4.64902">
        <ele>215</ele>
        <time>2018-10-28T09:39:05Z</time>
      </trkpt>
      <trkpt lat="45.87381" lon="4.64896">
        <ele>215</ele>
        <time>2018-10-28T09:39:06Z</time>
      </trkpt>
      <trkpt lat="45.87385" lon="4.64891">
        <ele>215</ele>
        <time>2018-10-28T09:39:07Z</time>
      </trkpt>
      <trkpt lat="45.87388" lon="4.64887">
        <ele>215</ele>
        <time>2018-10-28T09:39:08Z</time>
      </trkpt>
      <trkpt lat="45.87394" lon="4.6488">
        <ele>215</ele>
        <time>2018-10-28T09:39:09Z</time>
      </trkpt>
      <trkpt lat="45.87398" lon="4.64876">
        <ele>215</ele>
        <time>2018-10-28T09:39:10Z</time>
      </trkpt>
      <trkpt lat="45.87402" lon="4.64873">
        <ele>215</ele>
        <time>2018-10-28T09:39:11Z</time>
      </trkpt>
      <trkpt lat="45.87405" lon="4.64867">
        <ele>215</ele>
        <time>2018-10-28T09:39:12Z</time>
      </trkpt>
      <trkpt lat="45.87409" lon="4.64864">
        <ele>215</ele>
        <time>2018-10-28T09:39:13Z</time>
      </trkpt>
      <trkpt lat="45.87415" lon="4.64858">
        <ele>215</ele>
        <time>2018-10-28T09:39:14Z</time>
      </trkpt>
      <trkpt lat="45.8742" lon="4.64851">
        <ele>218</ele>
        <time>2018-10-28T09:39:15Z</time>
      </trkpt>
      <trkpt lat="45.87424" lon="4.64846">
        <ele>218</ele>
        <time>2018-10-28T09:39:16Z</time>
      </trkpt>
      <trkpt lat="45.87428" lon="4.64841">
        <ele>218</ele>
        <time>2018-10-28T09:39:17Z</time>
      </trkpt>
      <trkpt lat="45.87432" lon="4.64837">
        <ele>218</ele>
        <time>2018-10-28T09:39:18Z</time>
      </trkpt>
      <trkpt lat="45.87438" lon="4.64831">
        <ele>215</ele>
        <time>2018-10-28T09:39:20Z</time>
      </trkpt>
      <trkpt lat="45.87439" lon="4.64829">
        <ele>215</ele>
        <time>2018-10-28T09:39:21Z</time>
      </trkpt>
      <trkpt lat="45.87442" lon="4.64824">
        <ele>215</ele>
        <time>2018-10-28T09:39:22Z</time>
      </trkpt>
      <trkpt lat="45.87446" lon="4.64821">
        <ele>215</ele>
        <time>2018-10-28T09:39:23Z</time>
      </trkpt>
      <trkpt lat="45.8745" lon="4.64815">
        <ele>215</ele>
        <time>2018-10-28T09:39:24Z</time>
      </trkpt>
      <trkpt lat="45.87453" lon="4.6481">
        <ele>215</ele>
        <time>2018-10-28T09:39:25Z</time>
      </trkpt>
      <trkpt lat="45.87459" lon="4.64804">
        <ele>215</ele>
        <time>2018-10-28T09:39:26Z</time>
      </trkpt>
      <trkpt lat="45.87463" lon="4.64798">
        <ele>214</ele>
        <time>2018-10-28T09:39:27Z</time>
      </trkpt>
      <trkpt lat="45.87467" lon="4.64793">
        <ele>214</ele>
        <time>2018-10-28T09:39:28Z</time>
      </trkpt>
      <trkpt lat="45.87471" lon="4.64789">
        <ele>214</ele>
        <time>2018-10-28T09:39:29Z</time>
      </trkpt>
      <trkpt lat="45.87475" lon="4.64784">
        <ele>214</ele>
        <time>2018-10-28T09:39:30Z</time>
      </trkpt>
      <trkpt lat="45.87479" lon="4.64775">
        <ele>214</ele>
        <time>2018-10-28T09:39:31Z</time>
      </trkpt>
      <trkpt lat="45.87482" lon="4.6477">
        <ele>214</ele>
        <time>2018-10-28T09:39:32Z</time>
      </trkpt>
      <trkpt lat="45.87485" lon="4.64765">
        <ele>214</ele>
        <time>2018-10-28T09:39:33Z</time>
      </trkpt>
      <trkpt lat="45.87488" lon="4.64761">
        <ele>214</ele>
        <time>2018-10-28T09:39:34Z</time>
      </trkpt>
      <trkpt lat="45.87492" lon="4.64756">
        <ele>213</ele>
        <time>2018-10-28T09:39:35Z</time>
      </trkpt>
      <trkpt lat="45.87495" lon="4.64749">
        <ele>213</ele>
        <time>2018-10-28T09:39:36Z</time>
      </trkpt>
      <trkpt lat="45.875" lon="4.64744">
        <ele>213</ele>
        <time>2018-10-28T09:39:37Z</time>
      </trkpt>
      <trkpt lat="45.87505" lon="4.64738">
        <ele>213</ele>
        <time>2018-10-28T09:39:38Z</time>
      </trkpt>
      <trkpt lat="45.87507" lon="4.64732">
        <ele>213</ele>
        <time>2018-10-28T09:39:39Z</time>
      </trkpt>
      <trkpt lat="45.87511" lon="4.64725">
        <ele>213</ele>
        <time>2018-10-28T09:39:40Z</time>
      </trkpt>
      <trkpt lat="45.87515" lon="4.64719">
        <ele>212</ele>
        <time>2018-10-28T09:39:41Z</time>
      </trkpt>
      <trkpt lat="45.87519" lon="4.64713">
        <ele>212</ele>
        <time>2018-10-28T09:39:42Z</time>
      </trkpt>
      <trkpt lat="45.87523" lon="4.64708">
        <ele>212</ele>
        <time>2018-10-28T09:39:43Z</time>
      </trkpt>
      <trkpt lat="45.87528" lon="4.64699">
        <ele>212</ele>
        <time>2018-10-28T09:39:45Z</time>
      </trkpt>
      <trkpt lat="45.87532" lon="4.64695">
        <ele>212</ele>
        <time>2018-10-28T09:39:46Z</time>
      </trkpt>
      <trkpt lat="45.87538" lon="4.64687">
        <ele>212</ele>
        <time>2018-10-28T09:39:48Z</time>
      </trkpt>
      <trkpt lat="45.87541" lon="4.64683">
        <ele>212</ele>
        <time>2018-10-28T09:39:49Z</time>
      </trkpt>
      <trkpt lat="45.87545" lon="4.64678">
        <ele>212</ele>
        <time>2018-10-28T09:39:50Z</time>
      </trkpt>
      <trkpt lat="45.87548" lon="4.64675">
        <ele>212</ele>
        <time>2018-10-28T09:39:51Z</time>
      </trkpt>
      <trkpt lat="45.87552" lon="4.64665">
        <ele>212</ele>
        <time>2018-10-28T09:39:53Z</time>
      </trkpt>
      <trkpt lat="45.87554" lon="4.64663">
        <ele>212</ele>
        <time>2018-10-28T09:39:54Z</time>
      </trkpt>
      <trkpt lat="45.87558" lon="4.64658">
        <ele>212</ele>
        <time>2018-10-28T09:39:55Z</time>
      </trkpt>
      <trkpt lat="45.87561" lon="4.64654">
        <ele>212</ele>
        <time>2018-10-28T09:39:56Z</time>
      </trkpt>
      <trkpt lat="45.87566" lon="4.64648">
        <ele>212</ele>
        <time>2018-10-28T09:39:57Z</time>
      </trkpt>
      <trkpt lat="45.87569" lon="4.64645">
        <ele>212</ele>
        <time>2018-10-28T09:39:58Z</time>
      </trkpt>
      <trkpt lat="45.87576" lon="4.64636">
        <ele>212</ele>
        <time>2018-10-28T09:40:00Z</time>
      </trkpt>
      <trkpt lat="45.8758" lon="4.64631">
        <ele>212</ele>
        <time>2018-10-28T09:40:01Z</time>
      </trkpt>
      <trkpt lat="45.87584" lon="4.64627">
        <ele>212</ele>
        <time>2018-10-28T09:40:02Z</time>
      </trkpt>
      <trkpt lat="45.87587" lon="4.64622">
        <ele>212</ele>
        <time>2018-10-28T09:40:03Z</time>
      </trkpt>
      <trkpt lat="45.87591" lon="4.64617">
        <ele>212</ele>
        <time>2018-10-28T09:40:04Z</time>
      </trkpt>
      <trkpt lat="45.87595" lon="4.64612">
        <ele>212</ele>
        <time>2018-10-28T09:40:05Z</time>
      </trkpt>
      <trkpt lat="45.87598" lon="4.64607">
        <ele>212</ele>
        <time>2018-10-28T09:40:06Z</time>
      </trkpt>
      <trkpt lat="45.87602" lon="4.64602">
        <ele>212</ele>
        <time>2018-10-28T09:40:07Z</time>
      </trkpt>
      <trkpt lat="45.87606" lon="4.64597">
        <ele>212</ele>
        <time>2018-10-28T09:40:08Z</time>
      </trkpt>
      <trkpt lat="45.8761" lon="4.64591">
        <ele>212</ele>
        <time>2018-10-28T09:40:09Z</time>
      </trkpt>
      <trkpt lat="45.87615" lon="4.64586">
        <ele>212</ele>
        <time>2018-10-28T09:40:10Z</time>
      </trkpt>
      <trkpt lat="45.87619" lon="4.64581">
        <ele>212</ele>
        <time>2018-10-28T09:40:11Z</time>
      </trkpt>
      <trkpt lat="45.87623" lon="4.64576">
        <ele>212</ele>
        <time>2018-10-28T09:40:12Z</time>
      </trkpt>
      <trkpt lat="45.87627" lon="4.64572">
        <ele>212</ele>
        <time>2018-10-28T09:40:13Z</time>
      </trkpt>
      <trkpt lat="45.87631" lon="4.64567">
        <ele>212</ele>
        <time>2018-10-28T09:40:14Z</time>
      </trkpt>
      <trkpt lat="45.87634" lon="4.64562">
        <ele>212</ele>
        <time>2018-10-28T09:40:15Z</time>
      </trkpt>
      <trkpt lat="45.87638" lon="4.64557">
        <ele>212</ele>
        <time>2018-10-28T09:40:16Z</time>
      </trkpt>
      <trkpt lat="45.87642" lon="4.64552">
        <ele>212</ele>
        <time>2018-10-28T09:40:17Z</time>
      </trkpt>
      <trkpt lat="45.87646" lon="4.64547">
        <ele>213</ele>
        <time>2018-10-28T09:40:18Z</time>
      </trkpt>
      <trkpt lat="45.87649" lon="4.64543">
        <ele>213</ele>
        <time>2018-10-28T09:40:19Z</time>
      </trkpt>
      <trkpt lat="45.87654" lon="4.64536">
        <ele>213</ele>
        <time>2018-10-28T09:40:21Z</time>
      </trkpt>
      <trkpt lat="45.87657" lon="4.6453">
        <ele>213</ele>
        <time>2018-10-28T09:40:22Z</time>
      </trkpt>
      <trkpt lat="45.87665" lon="4.64523">
        <ele>213</ele>
        <time>2018-10-28T09:40:24Z</time>
      </trkpt>
      <trkpt lat="45.87668" lon="4.64517">
        <ele>215</ele>
        <time>2018-10-28T09:40:25Z</time>
      </trkpt>
      <trkpt lat="45.87673" lon="4.64511">
        <ele>215</ele>
        <time>2018-10-28T09:40:27Z</time>
      </trkpt>
      <trkpt lat="45.87675" lon="4.64509">
        <ele>215</ele>
        <time>2018-10-28T09:40:28Z</time>
      </trkpt>
      <trkpt lat="45.87682" lon="4.64503">
        <ele>215</ele>
        <time>2018-10-28T09:40:32Z</time>
      </trkpt>
      <trkpt lat="45.87685" lon="4.64503">
        <ele>215</ele>
        <time>2018-10-28T09:40:33Z</time>
      </trkpt>
      <trkpt lat="45.87691" lon="4.64507">
        <ele>215</ele>
        <time>2018-10-28T09:40:34Z</time>
      </trkpt>
      <trkpt lat="45.87694" lon="4.64511">
        <ele>215</ele>
        <time>2018-10-28T09:40:35Z</time>
      </trkpt>
      <trkpt lat="45.87697" lon="4.64516">
        <ele>215</ele>
        <time>2018-10-28T09:40:36Z</time>
      </trkpt>
      <trkpt lat="45.877" lon="4.64521">
        <ele>215</ele>
        <time>2018-10-28T09:40:37Z</time>
      </trkpt>
      <trkpt lat="45.87705" lon="4.6453">
        <ele>216</ele>
        <time>2018-10-28T09:40:39Z</time>
      </trkpt>
      <trkpt lat="45.87708" lon="4.64534">
        <ele>216</ele>
        <time>2018-10-28T09:40:40Z</time>
      </trkpt>
      <trkpt lat="45.87712" lon="4.64542">
        <ele>216</ele>
        <time>2018-10-28T09:40:42Z</time>
      </trkpt>
      <trkpt lat="45.87715" lon="4.64547">
        <ele>216</ele>
        <time>2018-10-28T09:40:43Z</time>
      </trkpt>
      <trkpt lat="45.87717" lon="4.64552">
        <ele>216</ele>
        <time>2018-10-28T09:40:45Z</time>
      </trkpt>
      <trkpt lat="45.8772" lon="4.64559">
        <ele>216</ele>
        <time>2018-10-28T09:40:46Z</time>
      </trkpt>
      <trkpt lat="45.87721" lon="4.64571">
        <ele>217</ele>
        <time>2018-10-28T09:40:48Z</time>
      </trkpt>
      <trkpt lat="45.8772" lon="4.64576">
        <ele>217</ele>
        <time>2018-10-28T09:40:49Z</time>
      </trkpt>
      <trkpt lat="45.87719" lon="4.64588">
        <ele>217</ele>
        <time>2018-10-28T09:40:51Z</time>
      </trkpt>
      <trkpt lat="45.8772" lon="4.64594">
        <ele>217</ele>
        <time>2018-10-28T09:40:52Z</time>
      </trkpt>
      <trkpt lat="45.87721" lon="4.64607">
        <ele>217</ele>
        <time>2018-10-28T09:40:54Z</time>
      </trkpt>
      <trkpt lat="45.87721" lon="4.64616">
        <ele>217</ele>
        <time>2018-10-28T09:40:55Z</time>
      </trkpt>
      <trkpt lat="45.87724" lon="4.64626">
        <ele>217</ele>
        <time>2018-10-28T09:40:57Z</time>
      </trkpt>
      <trkpt lat="45.87724" lon="4.64631">
        <ele>217</ele>
        <time>2018-10-28T09:40:58Z</time>
      </trkpt>
      <trkpt lat="45.87725" lon="4.64642">
        <ele>217</ele>
        <time>2018-10-28T09:41:00Z</time>
      </trkpt>
      <trkpt lat="45.87724" lon="4.64648">
        <ele>217</ele>
        <time>2018-10-28T09:41:01Z</time>
      </trkpt>
      <trkpt lat="45.87722" lon="4.6466">
        <ele>217</ele>
        <time>2018-10-28T09:41:03Z</time>
      </trkpt>
      <trkpt lat="45.87723" lon="4.64667">
        <ele>216</ele>
        <time>2018-10-28T09:41:04Z</time>
      </trkpt>
      <trkpt lat="45.87721" lon="4.64679">
        <ele>216</ele>
        <time>2018-10-28T09:41:06Z</time>
      </trkpt>
      <trkpt lat="45.87721" lon="4.64684">
        <ele>216</ele>
        <time>2018-10-28T09:41:07Z</time>
      </trkpt>
      <trkpt lat="45.8772" lon="4.64695">
        <ele>215</ele>
        <time>2018-10-28T09:41:09Z</time>
      </trkpt>
      <trkpt lat="45.8772" lon="4.64699">
        <ele>215</ele>
        <time>2018-10-28T09:41:10Z</time>
      </trkpt>
      <trkpt lat="45.87721" lon="4.64706">
        <ele>215</ele>
        <time>2018-10-28T09:41:11Z</time>
      </trkpt>
      <trkpt lat="45.8772" lon="4.64712">
        <ele>215</ele>
        <time>2018-10-28T09:41:12Z</time>
      </trkpt>
      <trkpt lat="45.87723" lon="4.64724">
        <ele>215</ele>
        <time>2018-10-28T09:41:14Z</time>
      </trkpt>
      <trkpt lat="45.87726" lon="4.6473">
        <ele>215</ele>
        <time>2018-10-28T09:41:15Z</time>
      </trkpt>
      <trkpt lat="45.87727" lon="4.64742">
        <ele>214</ele>
        <time>2018-10-28T09:41:17Z</time>
      </trkpt>
      <trkpt lat="45.87729" lon="4.64749">
        <ele>214</ele>
        <time>2018-10-28T09:41:18Z</time>
      </trkpt>
      <trkpt lat="45.87729" lon="4.64762">
        <ele>213</ele>
        <time>2018-10-28T09:41:20Z</time>
      </trkpt>
      <trkpt lat="45.87731" lon="4.64767">
        <ele>213</ele>
        <time>2018-10-28T09:41:21Z</time>
      </trkpt>
      <trkpt lat="45.87733" lon="4.64772">
        <ele>213</ele>
        <time>2018-10-28T09:41:22Z</time>
      </trkpt>
      <trkpt lat="45.87735" lon="4.64779">
        <ele>213</ele>
        <time>2018-10-28T09:41:23Z</time>
      </trkpt>
      <trkpt lat="45.87737" lon="4.64785">
        <ele>213</ele>
        <time>2018-10-28T09:41:24Z</time>
      </trkpt>
      <trkpt lat="45.8774" lon="4.64791">
        <ele>213</ele>
        <time>2018-10-28T09:41:25Z</time>
      </trkpt>
      <trkpt lat="45.87744" lon="4.648">
        <ele>214</ele>
        <time>2018-10-28T09:41:27Z</time>
      </trkpt>
      <trkpt lat="45.87747" lon="4.64804">
        <ele>214</ele>
        <time>2018-10-28T09:41:28Z</time>
      </trkpt>
      <trkpt lat="45.87751" lon="4.64811">
        <ele>214</ele>
        <time>2018-10-28T09:41:30Z</time>
      </trkpt>
      <trkpt lat="45.87754" lon="4.64816">
        <ele>214</ele>
        <time>2018-10-28T09:41:31Z</time>
      </trkpt>
      <trkpt lat="45.87758" lon="4.64823">
        <ele>214</ele>
        <time>2018-10-28T09:41:33Z</time>
      </trkpt>
      <trkpt lat="45.8776" lon="4.64827">
        <ele>214</ele>
        <time>2018-10-28T09:41:34Z</time>
      </trkpt>
      <trkpt lat="45.87764" lon="4.64834">
        <ele>216</ele>
        <time>2018-10-28T09:41:36Z</time>
      </trkpt>
      <trkpt lat="45.87766" lon="4.64838">
        <ele>216</ele>
        <time>2018-10-28T09:41:37Z</time>
      </trkpt>
      <trkpt lat="45.87771" lon="4.64845">
        <ele>217</ele>
        <time>2018-10-28T09:41:39Z</time>
      </trkpt>
      <trkpt lat="45.87773" lon="4.64848">
        <ele>217</ele>
        <time>2018-10-28T09:41:40Z</time>
      </trkpt>
      <trkpt lat="45.87778" lon="4.64857">
        <ele>218</ele>
        <time>2018-10-28T09:41:43Z</time>
      </trkpt>
      <trkpt lat="45.87779" lon="4.6486">
        <ele>218</ele>
        <time>2018-10-28T09:41:44Z</time>
      </trkpt>
      <trkpt lat="45.87784" lon="4.6487">
        <ele>218</ele>
        <time>2018-10-28T09:41:47Z</time>
      </trkpt>
      <trkpt lat="45.87785" lon="4.64873">
        <ele>218</ele>
        <time>2018-10-28T09:41:48Z</time>
      </trkpt>
      <trkpt lat="45.8779" lon="4.64882">
        <ele>219</ele>
        <time>2018-10-28T09:41:51Z</time>
      </trkpt>
      <trkpt lat="45.87792" lon="4.64885">
        <ele>219</ele>
        <time>2018-10-28T09:41:52Z</time>
      </trkpt>
      <trkpt lat="45.87797" lon="4.64894">
        <ele>219</ele>
        <time>2018-10-28T09:41:55Z</time>
      </trkpt>
      <trkpt lat="45.87798" lon="4.64897">
        <ele>219</ele>
        <time>2018-10-28T09:41:56Z</time>
      </trkpt>
      <trkpt lat="45.87802" lon="4.64906">
        <ele>220</ele>
        <time>2018-10-28T09:41:59Z</time>
      </trkpt>
      <trkpt lat="45.87803" lon="4.64908">
        <ele>220</ele>
        <time>2018-10-28T09:42:00Z</time>
      </trkpt>
      <trkpt lat="45.87807" lon="4.64916">
        <ele>220</ele>
        <time>2018-10-28T09:42:03Z</time>
      </trkpt>
      <trkpt lat="45.87808" lon="4.64919">
        <ele>224</ele>
        <time>2018-10-28T09:42:04Z</time>
      </trkpt>
      <trkpt lat="45.87812" lon="4.64929">
        <ele>224</ele>
        <time>2018-10-28T09:42:08Z</time>
      </trkpt>
      <trkpt lat="45.87813" lon="4.64932">
        <ele>224</ele>
        <time>2018-10-28T09:42:09Z</time>
      </trkpt>
      <trkpt lat="45.87818" lon="4.64941">
        <ele>225</ele>
        <time>2018-10-28T09:42:13Z</time>
      </trkpt>
      <trkpt lat="45.87819" lon="4.64944">
        <ele>225</ele>
        <time>2018-10-28T09:42:14Z</time>
      </trkpt>
      <trkpt lat="45.87825" lon="4.64949">
        <ele>225</ele>
        <time>2018-10-28T09:42:17Z</time>
      </trkpt>
      <trkpt lat="45.87827" lon="4.64951">
        <ele>225</ele>
        <time>2018-10-28T09:42:18Z</time>
      </trkpt>
      <trkpt lat="45.87833" lon="4.64957">
        <ele>226</ele>
        <time>2018-10-28T09:42:22Z</time>
      </trkpt>
      <trkpt lat="45.87834" lon="4.64959">
        <ele>228</ele>
        <time>2018-10-28T09:42:23Z</time>
      </trkpt>
      <trkpt lat="45.87841" lon="4.64965">
        <ele>228</ele>
        <time>2018-10-28T09:42:27Z</time>
      </trkpt>
      <trkpt lat="45.87842" lon="4.64966">
        <ele>228</ele>
        <time>2018-10-28T09:42:28Z</time>
      </trkpt>
      <trkpt lat="45.87849" lon="4.6497">
        <ele>229</ele>
        <time>2018-10-28T09:42:32Z</time>
      </trkpt>
      <trkpt lat="45.87851" lon="4.64972">
        <ele>229</ele>
        <time>2018-10-28T09:42:33Z</time>
      </trkpt>
      <trkpt lat="45.87858" lon="4.64976">
        <ele>229</ele>
        <time>2018-10-28T09:42:37Z</time>
      </trkpt>
      <trkpt lat="45.8786" lon="4.64977">
        <ele>229</ele>
        <time>2018-10-28T09:42:38Z</time>
      </trkpt>
      <trkpt lat="45.87869" lon="4.64979">
        <ele>230</ele>
        <time>2018-10-28T09:42:42Z</time>
      </trkpt>
      <trkpt lat="45.8787" lon="4.6498">
        <ele>230</ele>
        <time>2018-10-28T09:42:43Z</time>
      </trkpt>
      <trkpt lat="45.87878" lon="4.64984">
        <ele>230</ele>
        <time>2018-10-28T09:42:47Z</time>
      </trkpt>
      <trkpt lat="45.8788" lon="4.64985">
        <ele>231</ele>
        <time>2018-10-28T09:42:48Z</time>
      </trkpt>
      <trkpt lat="45.87889" lon="4.64987">
        <ele>231</ele>
        <time>2018-10-28T09:42:52Z</time>
      </trkpt>
      <trkpt lat="45.87891" lon="4.64987">
        <ele>231</ele>
        <time>2018-10-28T09:42:53Z</time>
      </trkpt>
      <trkpt lat="45.879" lon="4.64987">
        <ele>232</ele>
        <time>2018-10-28T09:42:57Z</time>
      </trkpt>
      <trkpt lat="45.87902" lon="4.64988">
        <ele>233</ele>
        <time>2018-10-28T09:42:58Z</time>
      </trkpt>
      <trkpt lat="45.8791" lon="4.64989">
        <ele>234</ele>
        <time>2018-10-28T09:43:02Z</time>
      </trkpt>
      <trkpt lat="45.87912" lon="4.6499">
        <ele>234</ele>
        <time>2018-10-28T09:43:03Z</time>
      </trkpt>
      <trkpt lat="45.87919" lon="4.64988">
        <ele>237</ele>
        <time>2018-10-28T09:43:06Z</time>
      </trkpt>
      <trkpt lat="45.87921" lon="4.64987">
        <ele>237</ele>
        <time>2018-10-28T09:43:07Z</time>
      </trkpt>
      <trkpt lat="45.87929" lon="4.64985">
        <ele>237</ele>
        <time>2018-10-28T09:43:10Z</time>
      </trkpt>
      <trkpt lat="45.87931" lon="4.64984">
        <ele>237</ele>
        <time>2018-10-28T09:43:11Z</time>
      </trkpt>
      <trkpt lat="45.87938" lon="4.64981">
        <ele>237</ele>
        <time>2018-10-28T09:43:14Z</time>
      </trkpt>
      <trkpt lat="45.8794" lon="4.6498">
        <ele>237</ele>
        <time>2018-10-28T09:43:15Z</time>
      </trkpt>
      <trkpt lat="45.87947" lon="4.64975">
        <ele>237</ele>
        <time>2018-10-28T09:43:18Z</time>
      </trkpt>
      <trkpt lat="45.87949" lon="4.64974">
        <ele>237</ele>
        <time>2018-10-28T09:43:19Z</time>
      </trkpt>
      <trkpt lat="45.87955" lon="4.64969">
        <ele>238</ele>
        <time>2018-10-28T09:43:22Z</time>
      </trkpt>
      <trkpt lat="45.87958" lon="4.64968">
        <ele>238</ele>
        <time>2018-10-28T09:43:23Z</time>
      </trkpt>
      <trkpt lat="45.87965" lon="4.64965">
        <ele>238</ele>
        <time>2018-10-28T09:43:27Z</time>
      </trkpt>
      <trkpt lat="45.87967" lon="4.64964">
        <ele>238</ele>
        <time>2018-10-28T09:43:28Z</time>
      </trkpt>
      <trkpt lat="45.87973" lon="4.64961">
        <ele>238</ele>
        <time>2018-10-28T09:43:31Z</time>
      </trkpt>
      <trkpt lat="45.87975" lon="4.64959">
        <ele>238</ele>
        <time>2018-10-28T09:43:32Z</time>
      </trkpt>
      <trkpt lat="45.87983" lon="4.64952">
        <ele>238</ele>
        <time>2018-10-28T09:43:37Z</time>
      </trkpt>
      <trkpt lat="45.87983" lon="4.64952">
        <ele>238</ele>
        <time>2018-10-28T09:43:38Z</time>
      </trkpt>
      <trkpt lat="45.87984" lon="4.6495">
        <ele>238</ele>
        <time>2018-10-28T09:43:52Z</time>
      </trkpt>
      <trkpt lat="45.87983" lon="4.6495">
        <ele>238</ele>
        <time>2018-10-28T09:43:53Z</time>
      </trkpt>
      <trkpt lat="45.87983" lon="4.6495">
        <ele>238</ele>
        <time>2018-10-28T09:43:54Z</time>
      </trkpt>
      <trkpt lat="45.87987" lon="4.64942">
        <ele>237</ele>
        <time>2018-10-28T09:45:50Z</time>
      </trkpt>
      <trkpt lat="45.87988" lon="4.6494">
        <ele>237</ele>
        <time>2018-10-28T09:45:51Z</time>
      </trkpt>
      <trkpt lat="45.87995" lon="4.64932">
        <ele>236</ele>
        <time>2018-10-28T09:45:55Z</time>
      </trkpt>
      <trkpt lat="45.87997" lon="4.64931">
        <ele>236</ele>
        <time>2018-10-28T09:45:56Z</time>
      </trkpt>
      <trkpt lat="45.88004" lon="4.64927">
        <ele>241</ele>
        <time>2018-10-28T09:46:00Z</time>
      </trkpt>
      <trkpt lat="45.88005" lon="4.64925">
        <ele>241</ele>
        <time>2018-10-28T09:46:01Z</time>
      </trkpt>
      <trkpt lat="45.88012" lon="4.6492">
        <ele>241</ele>
        <time>2018-10-28T09:46:04Z</time>
      </trkpt>
      <trkpt lat="45.88014" lon="4.64918">
        <ele>242</ele>
        <time>2018-10-28T09:46:05Z</time>
      </trkpt>
      <trkpt lat="45.88021" lon="4.64913">
        <ele>237</ele>
        <time>2018-10-28T09:46:09Z</time>
      </trkpt>
      <trkpt lat="45.88022" lon="4.64911">
        <ele>237</ele>
        <time>2018-10-28T09:46:10Z</time>
      </trkpt>
      <trkpt lat="45.88029" lon="4.64905">
        <ele>238</ele>
        <time>2018-10-28T09:46:14Z</time>
      </trkpt>
      <trkpt lat="45.88032" lon="4.64904">
        <ele>238</ele>
        <time>2018-10-28T09:46:15Z</time>
      </trkpt>
      <trkpt lat="45.88039" lon="4.649">
        <ele>239</ele>
        <time>2018-10-28T09:46:18Z</time>
      </trkpt>
      <trkpt lat="45.8804" lon="4.64899">
        <ele>239</ele>
        <time>2018-10-28T09:46:19Z</time>
      </trkpt>
      <trkpt lat="45.88048" lon="4.64894">
        <ele>240</ele>
        <time>2018-10-28T09:46:23Z</time>
      </trkpt>
      <trkpt lat="45.8805" lon="4.64893">
        <ele>240</ele>
        <time>2018-10-28T09:46:24Z</time>
      </trkpt>
      <trkpt lat="45.88056" lon="4.64889">
        <ele>241</ele>
        <time>2018-10-28T09:46:27Z</time>
      </trkpt>
      <trkpt lat="45.88059" lon="4.64888">
        <ele>241</ele>
        <time>2018-10-28T09:46:28Z</time>
      </trkpt>
      <trkpt lat="45.88066" lon="4.64882">
        <ele>241</ele>
        <time>2018-10-28T09:46:32Z</time>
      </trkpt>
      <trkpt lat="45.88068" lon="4.6488">
        <ele>241</ele>
        <time>2018-10-28T09:46:33Z</time>
      </trkpt>
      <trkpt lat="45.88075" lon="4.64874">
        <ele>240</ele>
        <time>2018-10-28T09:46:36Z</time>
      </trkpt>
      <trkpt lat="45.88078" lon="4.64873">
        <ele>240</ele>
        <time>2018-10-28T09:46:37Z</time>
      </trkpt>
      <trkpt lat="45.88085" lon="4.6487">
        <ele>247</ele>
        <time>2018-10-28T09:46:40Z</time>
      </trkpt>
      <trkpt lat="45.88087" lon="4.64869">
        <ele>247</ele>
        <time>2018-10-28T09:46:41Z</time>
      </trkpt>
      <trkpt lat="45.88094" lon="4.64868">
        <ele>247</ele>
        <time>2018-10-28T09:46:44Z</time>
      </trkpt>
      <trkpt lat="45.88097" lon="4.64868">
        <ele>247</ele>
        <time>2018-10-28T09:46:45Z</time>
      </trkpt>
      <trkpt lat="45.88104" lon="4.64865">
        <ele>247</ele>
        <time>2018-10-28T09:46:48Z</time>
      </trkpt>
      <trkpt lat="45.88106" lon="4.64864">
        <ele>247</ele>
        <time>2018-10-28T09:46:49Z</time>
      </trkpt>
      <trkpt lat="45.88112" lon="4.64863">
        <ele>247</ele>
        <time>2018-10-28T09:46:52Z</time>
      </trkpt>
      <trkpt lat="45.88115" lon="4.64862">
        <ele>247</ele>
        <time>2018-10-28T09:46:53Z</time>
      </trkpt>
      <trkpt lat="45.88121" lon="4.6486">
        <ele>248</ele>
        <time>2018-10-28T09:46:56Z</time>
      </trkpt>
      <trkpt lat="45.88124" lon="4.64859">
        <ele>248</ele>
        <time>2018-10-28T09:46:57Z</time>
      </trkpt>
      <trkpt lat="45.88131" lon="4.64858">
        <ele>248</ele>
        <time>2018-10-28T09:47:00Z</time>
      </trkpt>
      <trkpt lat="45.88134" lon="4.64857">
        <ele>248</ele>
        <time>2018-10-28T09:47:01Z</time>
      </trkpt>
      <trkpt lat="45.88142" lon="4.64853">
        <ele>248</ele>
        <time>2018-10-28T09:47:05Z</time>
      </trkpt>
      <trkpt lat="45.88144" lon="4.64852">
        <ele>248</ele>
        <time>2018-10-28T09:47:06Z</time>
      </trkpt>
      <trkpt lat="45.88153" lon="4.64849">
        <ele>248</ele>
        <time>2018-10-28T09:47:10Z</time>
      </trkpt>
      <trkpt lat="45.88154" lon="4.64848">
        <ele>247</ele>
        <time>2018-10-28T09:47:11Z</time>
      </trkpt>
      <trkpt lat="45.88162" lon="4.64846">
        <ele>247</ele>
        <time>2018-10-28T09:47:15Z</time>
      </trkpt>
      <trkpt lat="45.88164" lon="4.64845">
        <ele>247</ele>
        <time>2018-10-28T09:47:16Z</time>
      </trkpt>
      <trkpt lat="45.88172" lon="4.64843">
        <ele>250</ele>
        <time>2018-10-28T09:47:19Z</time>
      </trkpt>
      <trkpt lat="45.88175" lon="4.64843">
        <ele>250</ele>
        <time>2018-10-28T09:47:20Z</time>
      </trkpt>
      <trkpt lat="45.88182" lon="4.64842">
        <ele>252</ele>
        <time>2018-10-28T09:47:23Z</time>
      </trkpt>
      <trkpt lat="45.88184" lon="4.64842">
        <ele>252</ele>
        <time>2018-10-28T09:47:24Z</time>
      </trkpt>
      <trkpt lat="45.88192" lon="4.6484">
        <ele>253</ele>
        <time>2018-10-28T09:47:27Z</time>
      </trkpt>
      <trkpt lat="45.88194" lon="4.64839">
        <ele>254</ele>
        <time>2018-10-28T09:47:28Z</time>
      </trkpt>
      <trkpt lat="45.88201" lon="4.64836">
        <ele>255</ele>
        <time>2018-10-28T09:47:31Z</time>
      </trkpt>
      <trkpt lat="45.88203" lon="4.64835">
        <ele>255</ele>
        <time>2018-10-28T09:47:32Z</time>
      </trkpt>
      <trkpt lat="45.8821" lon="4.64833">
        <ele>246</ele>
        <time>2018-10-28T09:47:35Z</time>
      </trkpt>
      <trkpt lat="45.88212" lon="4.64832">
        <ele>247</ele>
        <time>2018-10-28T09:47:36Z</time>
      </trkpt>
      <trkpt lat="45.8822" lon="4.64831">
        <ele>248</ele>
        <time>2018-10-28T09:47:40Z</time>
      </trkpt>
      <trkpt lat="45.88222" lon="4.6483">
        <ele>248</ele>
        <time>2018-10-28T09:47:41Z</time>
      </trkpt>
      <trkpt lat="45.88231" lon="4.64827">
        <ele>249</ele>
        <time>2018-10-28T09:47:46Z</time>
      </trkpt>
      <trkpt lat="45.88233" lon="4.64827">
        <ele>250</ele>
        <time>2018-10-28T09:47:47Z</time>
      </trkpt>
      <trkpt lat="45.8824" lon="4.64827">
        <ele>252</ele>
        <time>2018-10-28T09:47:51Z</time>
      </trkpt>
      <trkpt lat="45.88242" lon="4.64826">
        <ele>252</ele>
        <time>2018-10-28T09:47:52Z</time>
      </trkpt>
      <trkpt lat="45.8825" lon="4.64822">
        <ele>257</ele>
        <time>2018-10-28T09:47:57Z</time>
      </trkpt>
      <trkpt lat="45.88252" lon="4.64822">
        <ele>257</ele>
        <time>2018-10-28T09:47:58Z</time>
      </trkpt>
      <trkpt lat="45.88259" lon="4.64822">
        <ele>257</ele>
        <time>2018-10-28T09:48:02Z</time>
      </trkpt>
      <trkpt lat="45.88261" lon="4.64822">
        <ele>257</ele>
        <time>2018-10-28T09:48:03Z</time>
      </trkpt>
      <trkpt lat="45.88269" lon="4.64819">
        <ele>257</ele>
        <time>2018-10-28T09:48:07Z</time>
      </trkpt>
      <trkpt lat="45.88271" lon="4.64819">
        <ele>258</ele>
        <time>2018-10-28T09:48:08Z</time>
      </trkpt>
      <trkpt lat="45.88279" lon="4.64816">
        <ele>258</ele>
        <time>2018-10-28T09:48:12Z</time>
      </trkpt>
      <trkpt lat="45.88281" lon="4.64815">
        <ele>258</ele>
        <time>2018-10-28T09:48:13Z</time>
      </trkpt>
      <trkpt lat="45.88289" lon="4.64813">
        <ele>259</ele>
        <time>2018-10-28T09:48:17Z</time>
      </trkpt>
      <trkpt lat="45.88291" lon="4.64812">
        <ele>259</ele>
        <time>2018-10-28T09:48:18Z</time>
      </trkpt>
      <trkpt lat="45.88299" lon="4.64809">
        <ele>260</ele>
        <time>2018-10-28T09:48:22Z</time>
      </trkpt>
      <trkpt lat="45.883" lon="4.64808">
        <ele>260</ele>
        <time>2018-10-28T09:48:23Z</time>
      </trkpt>
      <trkpt lat="45.88309" lon="4.64806">
        <ele>260</ele>
        <time>2018-10-28T09:48:28Z</time>
      </trkpt>
      <trkpt lat="45.88311" lon="4.64805">
        <ele>261</ele>
        <time>2018-10-28T09:48:29Z</time>
      </trkpt>
      <trkpt lat="45.88318" lon="4.64803">
        <ele>261</ele>
        <time>2018-10-28T09:48:33Z</time>
      </trkpt>
      <trkpt lat="45.8832" lon="4.64802">
        <ele>261</ele>
        <time>2018-10-28T09:48:34Z</time>
      </trkpt>
      <trkpt lat="45.88329" lon="4.64798">
        <ele>261</ele>
        <time>2018-10-28T09:48:39Z</time>
      </trkpt>
      <trkpt lat="45.8833" lon="4.64797">
        <ele>261</ele>
        <time>2018-10-28T09:48:40Z</time>
      </trkpt>
      <trkpt lat="45.88338" lon="4.64796">
        <ele>267</ele>
        <time>2018-10-28T09:48:44Z</time>
      </trkpt>
      <trkpt lat="45.8834" lon="4.64796">
        <ele>267</ele>
        <time>2018-10-28T09:48:45Z</time>
      </trkpt>
      <trkpt lat="45.88349" lon="4.64796">
        <ele>267</ele>
        <time>2018-10-28T09:48:49Z</time>
      </trkpt>
      <trkpt lat="45.88351" lon="4.64797">
        <ele>267</ele>
        <time>2018-10-28T09:48:50Z</time>
      </trkpt>
      <trkpt lat="45.88359" lon="4.64798">
        <ele>268</ele>
        <time>2018-10-28T09:48:54Z</time>
      </trkpt>
      <trkpt lat="45.88361" lon="4.64797">
        <ele>268</ele>
        <time>2018-10-28T09:48:55Z</time>
      </trkpt>
      <trkpt lat="45.88368" lon="4.64797">
        <ele>268</ele>
        <time>2018-10-28T09:48:59Z</time>
      </trkpt>
      <trkpt lat="45.8837" lon="4.64796">
        <ele>268</ele>
        <time>2018-10-28T09:49:00Z</time>
      </trkpt>
      <trkpt lat="45.88378" lon="4.64795">
        <ele>268</ele>
        <time>2018-10-28T09:49:04Z</time>
      </trkpt>
      <trkpt lat="45.8838" lon="4.64795">
        <ele>268</ele>
        <time>2018-10-28T09:49:05Z</time>
      </trkpt>
      <trkpt lat="45.88387" lon="4.64795">
        <ele>268</ele>
        <time>2018-10-28T09:49:09Z</time>
      </trkpt>
      <trkpt lat="45.88389" lon="4.64794">
        <ele>268</ele>
        <time>2018-10-28T09:49:10Z</time>
      </trkpt>
      <trkpt lat="45.88396" lon="4.64792">
        <ele>268</ele>
        <time>2018-10-28T09:49:14Z</time>
      </trkpt>
      <trkpt lat="45.88398" lon="4.64792">
        <ele>268</ele>
        <time>2018-10-28T09:49:15Z</time>
      </trkpt>
      <trkpt lat="45.88407" lon="4.64789">
        <ele>268</ele>
        <time>2018-10-28T09:49:19Z</time>
      </trkpt>
      <trkpt lat="45.88409" lon="4.64788">
        <ele>268</ele>
        <time>2018-10-28T09:49:20Z</time>
      </trkpt>
      <trkpt lat="45.88417" lon="4.64785">
        <ele>271</ele>
        <time>2018-10-28T09:49:24Z</time>
      </trkpt>
      <trkpt lat="45.88419" lon="4.64785">
        <ele>271</ele>
        <time>2018-10-28T09:49:25Z</time>
      </trkpt>
      <trkpt lat="45.88427" lon="4.64784">
        <ele>271</ele>
        <time>2018-10-28T09:49:29Z</time>
      </trkpt>
      <trkpt lat="45.88429" lon="4.64783">
        <ele>271</ele>
        <time>2018-10-28T09:49:30Z</time>
      </trkpt>
      <trkpt lat="45.88437" lon="4.64781">
        <ele>271</ele>
        <time>2018-10-28T09:49:34Z</time>
      </trkpt>
      <trkpt lat="45.88439" lon="4.6478">
        <ele>271</ele>
        <time>2018-10-28T09:49:35Z</time>
      </trkpt>
      <trkpt lat="45.88448" lon="4.64778">
        <ele>271</ele>
        <time>2018-10-28T09:49:39Z</time>
      </trkpt>
      <trkpt lat="45.8845" lon="4.64778">
        <ele>271</ele>
        <time>2018-10-28T09:49:40Z</time>
      </trkpt>
      <trkpt lat="45.88457" lon="4.64777">
        <ele>271</ele>
        <time>2018-10-28T09:49:43Z</time>
      </trkpt>
      <trkpt lat="45.88459" lon="4.64776">
        <ele>271</ele>
        <time>2018-10-28T09:49:44Z</time>
      </trkpt>
      <trkpt lat="45.88468" lon="4.64775">
        <ele>271</ele>
        <time>2018-10-28T09:49:48Z</time>
      </trkpt>
      <trkpt lat="45.88471" lon="4.64775">
        <ele>271</ele>
        <time>2018-10-28T09:49:49Z</time>
      </trkpt>
      <trkpt lat="45.88478" lon="4.64775">
        <ele>271</ele>
        <time>2018-10-28T09:49:52Z</time>
      </trkpt>
      <trkpt lat="45.8848" lon="4.64774">
        <ele>271</ele>
        <time>2018-10-28T09:49:53Z</time>
      </trkpt>
      <trkpt lat="45.88487" lon="4.64774">
        <ele>271</ele>
        <time>2018-10-28T09:49:56Z</time>
      </trkpt>
      <trkpt lat="45.8849" lon="4.64774">
        <ele>271</ele>
        <time>2018-10-28T09:49:57Z</time>
      </trkpt>
      <trkpt lat="45.88497" lon="4.64773">
        <ele>271</ele>
        <time>2018-10-28T09:50:00Z</time>
      </trkpt>
      <trkpt lat="45.885" lon="4.64773">
        <ele>271</ele>
        <time>2018-10-28T09:50:01Z</time>
      </trkpt>
      <trkpt lat="45.88507" lon="4.64773">
        <ele>270</ele>
        <time>2018-10-28T09:50:04Z</time>
      </trkpt>
      <trkpt lat="45.8851" lon="4.64772">
        <ele>270</ele>
        <time>2018-10-28T09:50:05Z</time>
      </trkpt>
      <trkpt lat="45.88517" lon="4.64773">
        <ele>271</ele>
        <time>2018-10-28T09:50:08Z</time>
      </trkpt>
      <trkpt lat="45.8852" lon="4.64774">
        <ele>271</ele>
        <time>2018-10-28T09:50:09Z</time>
      </trkpt>
      <trkpt lat="45.88526" lon="4.64777">
        <ele>271</ele>
        <time>2018-10-28T09:50:12Z</time>
      </trkpt>
      <trkpt lat="45.88528" lon="4.64778">
        <ele>271</ele>
        <time>2018-10-28T09:50:13Z</time>
      </trkpt>
      <trkpt lat="45.88536" lon="4.64784">
        <ele>271</ele>
        <time>2018-10-28T09:50:17Z</time>
      </trkpt>
      <trkpt lat="45.88538" lon="4.64785">
        <ele>271</ele>
        <time>2018-10-28T09:50:18Z</time>
      </trkpt>
      <trkpt lat="45.88542" lon="4.64792">
        <ele>272</ele>
        <time>2018-10-28T09:50:21Z</time>
      </trkpt>
      <trkpt lat="45.88544" lon="4.64795">
        <ele>272</ele>
        <time>2018-10-28T09:50:22Z</time>
      </trkpt>
      <trkpt lat="45.88546" lon="4.64803">
        <ele>272</ele>
        <time>2018-10-28T09:50:25Z</time>
      </trkpt>
      <trkpt lat="45.88547" lon="4.64807">
        <ele>272</ele>
        <time>2018-10-28T09:50:26Z</time>
      </trkpt>
      <trkpt lat="45.88549" lon="4.6482">
        <ele>273</ele>
        <time>2018-10-28T09:50:30Z</time>
      </trkpt>
      <trkpt lat="45.8855" lon="4.64823">
        <ele>273</ele>
        <time>2018-10-28T09:50:31Z</time>
      </trkpt>
      <trkpt lat="45.8855" lon="4.64833">
        <ele>273</ele>
        <time>2018-10-28T09:50:34Z</time>
      </trkpt>
      <trkpt lat="45.88551" lon="4.64837">
        <ele>276</ele>
        <time>2018-10-28T09:50:35Z</time>
      </trkpt>
      <trkpt lat="45.8855" lon="4.64849">
        <ele>276</ele>
        <time>2018-10-28T09:50:39Z</time>
      </trkpt>
      <trkpt lat="45.88549" lon="4.64852">
        <ele>276</ele>
        <time>2018-10-28T09:50:40Z</time>
      </trkpt>
      <trkpt lat="45.88547" lon="4.64864">
        <ele>277</ele>
        <time>2018-10-28T09:50:44Z</time>
      </trkpt>
      <trkpt lat="45.88547" lon="4.64867">
        <ele>277</ele>
        <time>2018-10-28T09:50:45Z</time>
      </trkpt>
      <trkpt lat="45.88545" lon="4.64877">
        <ele>277</ele>
        <time>2018-10-28T09:50:48Z</time>
      </trkpt>
      <trkpt lat="45.88545" lon="4.6488">
        <ele>277</ele>
        <time>2018-10-28T09:50:49Z</time>
      </trkpt>
      <trkpt lat="45.88542" lon="4.6489">
        <ele>277</ele>
        <time>2018-10-28T09:50:52Z</time>
      </trkpt>
      <trkpt lat="45.88542" lon="4.64893">
        <ele>277</ele>
        <time>2018-10-28T09:50:53Z</time>
      </trkpt>
      <trkpt lat="45.88539" lon="4.64902">
        <ele>278</ele>
        <time>2018-10-28T09:50:56Z</time>
      </trkpt>
      <trkpt lat="45.88539" lon="4.64905">
        <ele>278</ele>
        <time>2018-10-28T09:50:57Z</time>
      </trkpt>
      <trkpt lat="45.88536" lon="4.64915">
        <ele>278</ele>
        <time>2018-10-28T09:51:00Z</time>
      </trkpt>
      <trkpt lat="45.88536" lon="4.64918">
        <ele>280</ele>
        <time>2018-10-28T09:51:01Z</time>
      </trkpt>
      <trkpt lat="45.88535" lon="4.64928">
        <ele>280</ele>
        <time>2018-10-28T09:51:04Z</time>
      </trkpt>
      <trkpt lat="45.88534" lon="4.64931">
        <ele>280</ele>
        <time>2018-10-28T09:51:05Z</time>
      </trkpt>
      <trkpt lat="45.88533" lon="4.64941">
        <ele>281</ele>
        <time>2018-10-28T09:51:08Z</time>
      </trkpt>
      <trkpt lat="45.88533" lon="4.64944">
        <ele>281</ele>
        <time>2018-10-28T09:51:09Z</time>
      </trkpt>
      <trkpt lat="45.88531" lon="4.64953">
        <ele>281</ele>
        <time>2018-10-28T09:51:12Z</time>
      </trkpt>
      <trkpt lat="45.8853" lon="4.64956">
        <ele>281</ele>
        <time>2018-10-28T09:51:13Z</time>
      </trkpt>
      <trkpt lat="45.88528" lon="4.64967">
        <ele>282</ele>
        <time>2018-10-28T09:51:16Z</time>
      </trkpt>
      <trkpt lat="45.88528" lon="4.6497">
        <ele>282</ele>
        <time>2018-10-28T09:51:17Z</time>
      </trkpt>
      <trkpt lat="45.88527" lon="4.64982">
        <ele>282</ele>
        <time>2018-10-28T09:51:21Z</time>
      </trkpt>
      <trkpt lat="45.88526" lon="4.64985">
        <ele>283</ele>
        <time>2018-10-28T09:51:22Z</time>
      </trkpt>
      <trkpt lat="45.88525" lon="4.64996">
        <ele>283</ele>
        <time>2018-10-28T09:51:26Z</time>
      </trkpt>
      <trkpt lat="45.88524" lon="4.64999">
        <ele>283</ele>
        <time>2018-10-28T09:51:27Z</time>
      </trkpt>
      <trkpt lat="45.88521" lon="4.65011">
        <ele>285</ele>
        <time>2018-10-28T09:51:31Z</time>
      </trkpt>
      <trkpt lat="45.8852" lon="4.65014">
        <ele>285</ele>
        <time>2018-10-28T09:51:32Z</time>
      </trkpt>
      <trkpt lat="45.88519" lon="4.65025">
        <ele>285</ele>
        <time>2018-10-28T09:51:36Z</time>
      </trkpt>
      <trkpt lat="45.88518" lon="4.65028">
        <ele>285</ele>
        <time>2018-10-28T09:51:37Z</time>
      </trkpt>
      <trkpt lat="45.88516" lon="4.65038">
        <ele>285</ele>
        <time>2018-10-28T09:51:40Z</time>
      </trkpt>
      <trkpt lat="45.88515" lon="4.6504">
        <ele>285</ele>
        <time>2018-10-28T09:51:41Z</time>
      </trkpt>
      <trkpt lat="45.88511" lon="4.65051">
        <ele>286</ele>
        <time>2018-10-28T09:51:45Z</time>
      </trkpt>
      <trkpt lat="45.8851" lon="4.65054">
        <ele>286</ele>
        <time>2018-10-28T09:51:46Z</time>
      </trkpt>
      <trkpt lat="45.88507" lon="4.65063">
        <ele>287</ele>
        <time>2018-10-28T09:51:49Z</time>
      </trkpt>
      <trkpt lat="45.88506" lon="4.65066">
        <ele>287</ele>
        <time>2018-10-28T09:51:50Z</time>
      </trkpt>
      <trkpt lat="45.88502" lon="4.65074">
        <ele>288</ele>
        <time>2018-10-28T09:51:53Z</time>
      </trkpt>
      <trkpt lat="45.88501" lon="4.65077">
        <ele>289</ele>
        <time>2018-10-28T09:51:54Z</time>
      </trkpt>
      <trkpt lat="45.88496" lon="4.65087">
        <ele>291</ele>
        <time>2018-10-28T09:51:58Z</time>
      </trkpt>
      <trkpt lat="45.88494" lon="4.6509">
        <ele>291</ele>
        <time>2018-10-28T09:51:59Z</time>
      </trkpt>
      <trkpt lat="45.88489" lon="4.651">
        <ele>292</ele>
        <time>2018-10-28T09:52:03Z</time>
      </trkpt>
      <trkpt lat="45.88488" lon="4.65102">
        <ele>292</ele>
        <time>2018-10-28T09:52:04Z</time>
      </trkpt>
      <trkpt lat="45.88483" lon="4.65111">
        <ele>293</ele>
        <time>2018-10-28T09:52:08Z</time>
      </trkpt>
      <trkpt lat="45.88481" lon="4.65114">
        <ele>293</ele>
        <time>2018-10-28T09:52:09Z</time>
      </trkpt>
      <trkpt lat="45.88477" lon="4.65121">
        <ele>293</ele>
        <time>2018-10-28T09:52:12Z</time>
      </trkpt>
      <trkpt lat="45.88475" lon="4.65124">
        <ele>293</ele>
        <time>2018-10-28T09:52:13Z</time>
      </trkpt>
      <trkpt lat="45.88468" lon="4.65132">
        <ele>294</ele>
        <time>2018-10-28T09:52:17Z</time>
      </trkpt>
      <trkpt lat="45.88467" lon="4.65134">
        <ele>294</ele>
        <time>2018-10-28T09:52:18Z</time>
      </trkpt>
      <trkpt lat="45.8846" lon="4.65141">
        <ele>294</ele>
        <time>2018-10-28T09:52:22Z</time>
      </trkpt>
      <trkpt lat="45.88458" lon="4.65143">
        <ele>294</ele>
        <time>2018-10-28T09:52:23Z</time>
      </trkpt>
      <trkpt lat="45.88452" lon="4.65151">
        <ele>295</ele>
        <time>2018-10-28T09:52:27Z</time>
      </trkpt>
      <trkpt lat="45.8845" lon="4.65153">
        <ele>295</ele>
        <time>2018-10-28T09:52:28Z</time>
      </trkpt>
      <trkpt lat="45.88443" lon="4.6516">
        <ele>296</ele>
        <time>2018-10-28T09:52:32Z</time>
      </trkpt>
      <trkpt lat="45.88441" lon="4.65162">
        <ele>296</ele>
        <time>2018-10-28T09:52:33Z</time>
      </trkpt>
      <trkpt lat="45.88435" lon="4.65171">
        <ele>298</ele>
        <time>2018-10-28T09:52:37Z</time>
      </trkpt>
      <trkpt lat="45.88433" lon="4.65174">
        <ele>298</ele>
        <time>2018-10-28T09:52:38Z</time>
      </trkpt>
      <trkpt lat="45.88428" lon="4.6518">
        <ele>298</ele>
        <time>2018-10-28T09:52:41Z</time>
      </trkpt>
      <trkpt lat="45.88425" lon="4.65182">
        <ele>298</ele>
        <time>2018-10-28T09:52:42Z</time>
      </trkpt>
      <trkpt lat="45.88418" lon="4.65189">
        <ele>298</ele>
        <time>2018-10-28T09:52:46Z</time>
      </trkpt>
      <trkpt lat="45.88416" lon="4.65191">
        <ele>299</ele>
        <time>2018-10-28T09:52:47Z</time>
      </trkpt>
      <trkpt lat="45.8841" lon="4.65198">
        <ele>299</ele>
        <time>2018-10-28T09:52:51Z</time>
      </trkpt>
      <trkpt lat="45.88408" lon="4.65201">
        <ele>299</ele>
        <time>2018-10-28T09:52:52Z</time>
      </trkpt>
      <trkpt lat="45.88402" lon="4.65207">
        <ele>300</ele>
        <time>2018-10-28T09:52:55Z</time>
      </trkpt>
      <trkpt lat="45.88401" lon="4.65209">
        <ele>300</ele>
        <time>2018-10-28T09:52:56Z</time>
      </trkpt>
      <trkpt lat="45.88395" lon="4.65215">
        <ele>300</ele>
        <time>2018-10-28T09:52:59Z</time>
      </trkpt>
      <trkpt lat="45.88393" lon="4.65216">
        <ele>300</ele>
        <time>2018-10-28T09:53:00Z</time>
      </trkpt>
      <trkpt lat="45.88387" lon="4.65222">
        <ele>300</ele>
        <time>2018-10-28T09:53:03Z</time>
      </trkpt>
      <trkpt lat="45.88385" lon="4.65224">
        <ele>300</ele>
        <time>2018-10-28T09:53:04Z</time>
      </trkpt>
      <trkpt lat="45.88379" lon="4.6523">
        <ele>300</ele>
        <time>2018-10-28T09:53:07Z</time>
      </trkpt>
      <trkpt lat="45.88378" lon="4.65232">
        <ele>300</ele>
        <time>2018-10-28T09:53:08Z</time>
      </trkpt>
      <trkpt lat="45.8837" lon="4.65239">
        <ele>300</ele>
        <time>2018-10-28T09:53:12Z</time>
      </trkpt>
      <trkpt lat="45.88368" lon="4.65241">
        <ele>300</ele>
        <time>2018-10-28T09:53:13Z</time>
      </trkpt>
      <trkpt lat="45.88362" lon="4.65249">
        <ele>300</ele>
        <time>2018-10-28T09:53:17Z</time>
      </trkpt>
      <trkpt lat="45.8836" lon="4.65252">
        <ele>301</ele>
        <time>2018-10-28T09:53:18Z</time>
      </trkpt>
      <trkpt lat="45.88354" lon="4.65258">
        <ele>301</ele>
        <time>2018-10-28T09:53:21Z</time>
      </trkpt>
      <trkpt lat="45.88352" lon="4.6526">
        <ele>301</ele>
        <time>2018-10-28T09:53:22Z</time>
      </trkpt>
      <trkpt lat="45.88347" lon="4.65266">
        <ele>301</ele>
        <time>2018-10-28T09:53:25Z</time>
      </trkpt>
      <trkpt lat="45.88345" lon="4.65268">
        <ele>301</ele>
        <time>2018-10-28T09:53:26Z</time>
      </trkpt>
      <trkpt lat="45.88338" lon="4.65273">
        <ele>302</ele>
        <time>2018-10-28T09:53:29Z</time>
      </trkpt>
      <trkpt lat="45.88336" lon="4.65275">
        <ele>302</ele>
        <time>2018-10-28T09:53:30Z</time>
      </trkpt>
      <trkpt lat="45.88331" lon="4.65281">
        <ele>304</ele>
        <time>2018-10-28T09:53:33Z</time>
      </trkpt>
      <trkpt lat="45.88329" lon="4.65284">
        <ele>304</ele>
        <time>2018-10-28T09:53:34Z</time>
      </trkpt>
      <trkpt lat="45.88324" lon="4.65291">
        <ele>304</ele>
        <time>2018-10-28T09:53:37Z</time>
      </trkpt>
      <trkpt lat="45.88322" lon="4.65293">
        <ele>304</ele>
        <time>2018-10-28T09:53:38Z</time>
      </trkpt>
      <trkpt lat="45.88317" lon="4.65299">
        <ele>304</ele>
        <time>2018-10-28T09:53:41Z</time>
      </trkpt>
      <trkpt lat="45.88315" lon="4.65302">
        <ele>305</ele>
        <time>2018-10-28T09:53:42Z</time>
      </trkpt>
      <trkpt lat="45.88309" lon="4.65311">
        <ele>305</ele>
        <time>2018-10-28T09:53:46Z</time>
      </trkpt>
      <trkpt lat="45.88308" lon="4.65314">
        <ele>305</ele>
        <time>2018-10-28T09:53:47Z</time>
      </trkpt>
      <trkpt lat="45.88302" lon="4.65323">
        <ele>305</ele>
        <time>2018-10-28T09:53:51Z</time>
      </trkpt>
      <trkpt lat="45.88301" lon="4.65326">
        <ele>305</ele>
        <time>2018-10-28T09:53:52Z</time>
      </trkpt>
      <trkpt lat="45.88298" lon="4.65335">
        <ele>307</ele>
        <time>2018-10-28T09:53:55Z</time>
      </trkpt>
      <trkpt lat="45.88297" lon="4.65338">
        <ele>307</ele>
        <time>2018-10-28T09:53:56Z</time>
      </trkpt>
      <trkpt lat="45.88293" lon="4.65348">
        <ele>307</ele>
        <time>2018-10-28T09:54:00Z</time>
      </trkpt>
      <trkpt lat="45.88292" lon="4.65351">
        <ele>307</ele>
        <time>2018-10-28T09:54:01Z</time>
      </trkpt>
      <trkpt lat="45.88289" lon="4.6536">
        <ele>308</ele>
        <time>2018-10-28T09:54:04Z</time>
      </trkpt>
      <trkpt lat="45.88288" lon="4.65363">
        <ele>308</ele>
        <time>2018-10-28T09:54:05Z</time>
      </trkpt>
      <trkpt lat="45.88285" lon="4.65374">
        <ele>308</ele>
        <time>2018-10-28T09:54:09Z</time>
      </trkpt>
      <trkpt lat="45.88284" lon="4.65377">
        <ele>308</ele>
        <time>2018-10-28T09:54:10Z</time>
      </trkpt>
      <trkpt lat="45.88281" lon="4.65388">
        <ele>308</ele>
        <time>2018-10-28T09:54:14Z</time>
      </trkpt>
      <trkpt lat="45.88281" lon="4.65391">
        <ele>308</ele>
        <time>2018-10-28T09:54:15Z</time>
      </trkpt>
      <trkpt lat="45.88277" lon="4.65402">
        <ele>309</ele>
        <time>2018-10-28T09:54:19Z</time>
      </trkpt>
      <trkpt lat="45.88276" lon="4.65405">
        <ele>309</ele>
        <time>2018-10-28T09:54:20Z</time>
      </trkpt>
      <trkpt lat="45.88274" lon="4.65414">
        <ele>309</ele>
        <time>2018-10-28T09:54:23Z</time>
      </trkpt>
      <trkpt lat="45.88273" lon="4.65417">
        <ele>310</ele>
        <time>2018-10-28T09:54:24Z</time>
      </trkpt>
      <trkpt lat="45.8827" lon="4.65427">
        <ele>311</ele>
        <time>2018-10-28T09:54:27Z</time>
      </trkpt>
      <trkpt lat="45.88269" lon="4.6543">
        <ele>311</ele>
        <time>2018-10-28T09:54:28Z</time>
      </trkpt>
      <trkpt lat="45.88265" lon="4.65439">
        <ele>311</ele>
        <time>2018-10-28T09:54:31Z</time>
      </trkpt>
      <trkpt lat="45.88265" lon="4.65442">
        <ele>311</ele>
        <time>2018-10-28T09:54:32Z</time>
      </trkpt>
      <trkpt lat="45.88262" lon="4.65452">
        <ele>311</ele>
        <time>2018-10-28T09:54:35Z</time>
      </trkpt>
      <trkpt lat="45.88261" lon="4.65454">
        <ele>311</ele>
        <time>2018-10-28T09:54:36Z</time>
      </trkpt>
      <trkpt lat="45.88258" lon="4.65463">
        <ele>311</ele>
        <time>2018-10-28T09:54:39Z</time>
      </trkpt>
      <trkpt lat="45.88257" lon="4.65466">
        <ele>311</ele>
        <time>2018-10-28T09:54:40Z</time>
      </trkpt>
      <trkpt lat="45.88254" lon="4.65477">
        <ele>312</ele>
        <time>2018-10-28T09:54:44Z</time>
      </trkpt>
      <trkpt lat="45.88253" lon="4.65479">
        <ele>312</ele>
        <time>2018-10-28T09:54:45Z</time>
      </trkpt>
      <trkpt lat="45.88249" lon="4.6549">
        <ele>316</ele>
        <time>2018-10-28T09:54:49Z</time>
      </trkpt>
      <trkpt lat="45.88248" lon="4.65492">
        <ele>315</ele>
        <time>2018-10-28T09:54:50Z</time>
      </trkpt>
      <trkpt lat="45.88245" lon="4.65501">
        <ele>316</ele>
        <time>2018-10-28T09:54:53Z</time>
      </trkpt>
      <trkpt lat="45.88244" lon="4.65504">
        <ele>317</ele>
        <time>2018-10-28T09:54:54Z</time>
      </trkpt>
      <trkpt lat="45.88241" lon="4.65513">
        <ele>318</ele>
        <time>2018-10-28T09:54:57Z</time>
      </trkpt>
      <trkpt lat="45.8824" lon="4.65516">
        <ele>318</ele>
        <time>2018-10-28T09:54:58Z</time>
      </trkpt>
      <trkpt lat="45.88238" lon="4.65525">
        <ele>319</ele>
        <time>2018-10-28T09:55:01Z</time>
      </trkpt>
      <trkpt lat="45.88237" lon="4.65528">
        <ele>319</ele>
        <time>2018-10-28T09:55:02Z</time>
      </trkpt>
      <trkpt lat="45.88233" lon="4.65537">
        <ele>319</ele>
        <time>2018-10-28T09:55:05Z</time>
      </trkpt>
      <trkpt lat="45.88232" lon="4.6554">
        <ele>320</ele>
        <time>2018-10-28T09:55:06Z</time>
      </trkpt>
      <trkpt lat="45.88229" lon="4.65548">
        <ele>320</ele>
        <time>2018-10-28T09:55:09Z</time>
      </trkpt>
      <trkpt lat="45.88228" lon="4.65551">
        <ele>320</ele>
        <time>2018-10-28T09:55:10Z</time>
      </trkpt>
      <trkpt lat="45.88224" lon="4.65563">
        <ele>320</ele>
        <time>2018-10-28T09:55:14Z</time>
      </trkpt>
      <trkpt lat="45.88224" lon="4.65566">
        <ele>320</ele>
        <time>2018-10-28T09:55:15Z</time>
      </trkpt>
      <trkpt lat="45.88221" lon="4.65575">
        <ele>320</ele>
        <time>2018-10-28T09:55:18Z</time>
      </trkpt>
      <trkpt lat="45.8822" lon="4.65578">
        <ele>320</ele>
        <time>2018-10-28T09:55:19Z</time>
      </trkpt>
      <trkpt lat="45.88216" lon="4.65586">
        <ele>321</ele>
        <time>2018-10-28T09:55:22Z</time>
      </trkpt>
      <trkpt lat="45.88215" lon="4.65589">
        <ele>321</ele>
        <time>2018-10-28T09:55:23Z</time>
      </trkpt>
      <trkpt lat="45.8821" lon="4.656">
        <ele>321</ele>
        <time>2018-10-28T09:55:27Z</time>
      </trkpt>
      <trkpt lat="45.88209" lon="4.65602">
        <ele>321</ele>
        <time>2018-10-28T09:55:28Z</time>
      </trkpt>
      <trkpt lat="45.88206" lon="4.65611">
        <ele>321</ele>
        <time>2018-10-28T09:55:31Z</time>
      </trkpt>
      <trkpt lat="45.88205" lon="4.65614">
        <ele>321</ele>
        <time>2018-10-28T09:55:32Z</time>
      </trkpt>
      <trkpt lat="45.88201" lon="4.65625">
        <ele>321</ele>
        <time>2018-10-28T09:55:36Z</time>
      </trkpt>
      <trkpt lat="45.882" lon="4.65627">
        <ele>321</ele>
        <time>2018-10-28T09:55:37Z</time>
      </trkpt>
      <trkpt lat="45.88196" lon="4.65638">
        <ele>322</ele>
        <time>2018-10-28T09:55:41Z</time>
      </trkpt>
      <trkpt lat="45.88194" lon="4.65641">
        <ele>322</ele>
        <time>2018-10-28T09:55:42Z</time>
      </trkpt>
      <trkpt lat="45.8819" lon="4.65651">
        <ele>322</ele>
        <time>2018-10-28T09:55:46Z</time>
      </trkpt>
      <trkpt lat="45.88188" lon="4.65653">
        <ele>322</ele>
        <time>2018-10-28T09:55:47Z</time>
      </trkpt>
      <trkpt lat="45.88185" lon="4.65662">
        <ele>323</ele>
        <time>2018-10-28T09:55:50Z</time>
      </trkpt>
      <trkpt lat="45.88183" lon="4.65664">
        <ele>323</ele>
        <time>2018-10-28T09:55:51Z</time>
      </trkpt>
      <trkpt lat="45.88178" lon="4.65674">
        <ele>323</ele>
        <time>2018-10-28T09:55:55Z</time>
      </trkpt>
      <trkpt lat="45.88177" lon="4.65677">
        <ele>323</ele>
        <time>2018-10-28T09:55:56Z</time>
      </trkpt>
      <trkpt lat="45.88172" lon="4.65687">
        <ele>322</ele>
        <time>2018-10-28T09:56:00Z</time>
      </trkpt>
      <trkpt lat="45.88171" lon="4.65689">
        <ele>322</ele>
        <time>2018-10-28T09:56:01Z</time>
      </trkpt>
      <trkpt lat="45.88166" lon="4.65699">
        <ele>330</ele>
        <time>2018-10-28T09:56:05Z</time>
      </trkpt>
      <trkpt lat="45.88165" lon="4.65702">
        <ele>331</ele>
        <time>2018-10-28T09:56:06Z</time>
      </trkpt>
      <trkpt lat="45.8816" lon="4.65712">
        <ele>331</ele>
        <time>2018-10-28T09:56:10Z</time>
      </trkpt>
      <trkpt lat="45.88158" lon="4.65714">
        <ele>331</ele>
        <time>2018-10-28T09:56:11Z</time>
      </trkpt>
      <trkpt lat="45.88152" lon="4.65723">
        <ele>331</ele>
        <time>2018-10-28T09:56:15Z</time>
      </trkpt>
      <trkpt lat="45.88151" lon="4.65725">
        <ele>331</ele>
        <time>2018-10-28T09:56:16Z</time>
      </trkpt>
      <trkpt lat="45.88146" lon="4.65736">
        <ele>331</ele>
        <time>2018-10-28T09:56:20Z</time>
      </trkpt>
      <trkpt lat="45.88144" lon="4.65738">
        <ele>331</ele>
        <time>2018-10-28T09:56:21Z</time>
      </trkpt>
      <trkpt lat="45.88138" lon="4.65747">
        <ele>332</ele>
        <time>2018-10-28T09:56:25Z</time>
      </trkpt>
      <trkpt lat="45.88137" lon="4.65749">
        <ele>332</ele>
        <time>2018-10-28T09:56:26Z</time>
      </trkpt>
      <trkpt lat="45.88131" lon="4.65755">
        <ele>332</ele>
        <time>2018-10-28T09:56:29Z</time>
      </trkpt>
      <trkpt lat="45.8813" lon="4.65757">
        <ele>332</ele>
        <time>2018-10-28T09:56:30Z</time>
      </trkpt>
      <trkpt lat="45.88124" lon="4.65766">
        <ele>333</ele>
        <time>2018-10-28T09:56:34Z</time>
      </trkpt>
      <trkpt lat="45.88122" lon="4.65769">
        <ele>333</ele>
        <time>2018-10-28T09:56:35Z</time>
      </trkpt>
      <trkpt lat="45.88116" lon="4.65777">
        <ele>334</ele>
        <time>2018-10-28T09:56:38Z</time>
      </trkpt>
      <trkpt lat="45.88114" lon="4.65779">
        <ele>334</ele>
        <time>2018-10-28T09:56:39Z</time>
      </trkpt>
      <trkpt lat="45.88108" lon="4.65786">
        <ele>334</ele>
        <time>2018-10-28T09:56:42Z</time>
      </trkpt>
      <trkpt lat="45.88107" lon="4.65787">
        <ele>334</ele>
        <time>2018-10-28T09:56:43Z</time>
      </trkpt>
      <trkpt lat="45.881" lon="4.65795">
        <ele>334</ele>
        <time>2018-10-28T09:56:47Z</time>
      </trkpt>
      <trkpt lat="45.88098" lon="4.65796">
        <ele>334</ele>
        <time>2018-10-28T09:56:48Z</time>
      </trkpt>
      <trkpt lat="45.8809" lon="4.65802">
        <ele>334</ele>
        <time>2018-10-28T09:56:52Z</time>
      </trkpt>
      <trkpt lat="45.88088" lon="4.65804">
        <ele>334</ele>
        <time>2018-10-28T09:56:53Z</time>
      </trkpt>
      <trkpt lat="45.88081" lon="4.6581">
        <ele>340</ele>
        <time>2018-10-28T09:56:56Z</time>
      </trkpt>
      <trkpt lat="45.88079" lon="4.65812">
        <ele>340</ele>
        <time>2018-10-28T09:56:57Z</time>
      </trkpt>
      <trkpt lat="45.88071" lon="4.65818">
        <ele>340</ele>
        <time>2018-10-28T09:57:01Z</time>
      </trkpt>
      <trkpt lat="45.88069" lon="4.65819">
        <ele>340</ele>
        <time>2018-10-28T09:57:02Z</time>
      </trkpt>
      <trkpt lat="45.88062" lon="4.65826">
        <ele>340</ele>
        <time>2018-10-28T09:57:05Z</time>
      </trkpt>
      <trkpt lat="45.8806" lon="4.65827">
        <ele>340</ele>
        <time>2018-10-28T09:57:06Z</time>
      </trkpt>
      <trkpt lat="45.88052" lon="4.65833">
        <ele>341</ele>
        <time>2018-10-28T09:57:09Z</time>
      </trkpt>
      <trkpt lat="45.8805" lon="4.65835">
        <ele>337</ele>
        <time>2018-10-28T09:57:10Z</time>
      </trkpt>
      <trkpt lat="45.88042" lon="4.65839">
        <ele>337</ele>
        <time>2018-10-28T09:57:13Z</time>
      </trkpt>
      <trkpt lat="45.8804" lon="4.65841">
        <ele>337</ele>
        <time>2018-10-28T09:57:14Z</time>
      </trkpt>
      <trkpt lat="45.88032" lon="4.65846">
        <ele>338</ele>
        <time>2018-10-28T09:57:17Z</time>
      </trkpt>
      <trkpt lat="45.8803" lon="4.65848">
        <ele>338</ele>
        <time>2018-10-28T09:57:18Z</time>
      </trkpt>
      <trkpt lat="45.88022" lon="4.65852">
        <ele>339</ele>
        <time>2018-10-28T09:57:21Z</time>
      </trkpt>
      <trkpt lat="45.88018" lon="4.65854">
        <ele>339</ele>
        <time>2018-10-28T09:57:22Z</time>
      </trkpt>
      <trkpt lat="45.88011" lon="4.65858">
        <ele>339</ele>
        <time>2018-10-28T09:57:25Z</time>
      </trkpt>
      <trkpt lat="45.88008" lon="4.6586">
        <ele>339</ele>
        <time>2018-10-28T09:57:26Z</time>
      </trkpt>
      <trkpt lat="45.88" lon="4.65866">
        <ele>343</ele>
        <time>2018-10-28T09:57:29Z</time>
      </trkpt>
      <trkpt lat="45.87997" lon="4.65868">
        <ele>343</ele>
        <time>2018-10-28T09:57:30Z</time>
      </trkpt>
      <trkpt lat="45.87992" lon="4.65872">
        <ele>343</ele>
        <time>2018-10-28T09:57:32Z</time>
      </trkpt>
      <trkpt lat="45.87989" lon="4.65875">
        <ele>343</ele>
        <time>2018-10-28T09:57:33Z</time>
      </trkpt>
      <trkpt lat="45.87986" lon="4.65878">
        <ele>343</ele>
        <time>2018-10-28T09:57:34Z</time>
      </trkpt>
      <trkpt lat="45.87981" lon="4.65885">
        <ele>342</ele>
        <time>2018-10-28T09:57:35Z</time>
      </trkpt>
      <trkpt lat="45.87975" lon="4.65892">
        <ele>342</ele>
        <time>2018-10-28T09:57:37Z</time>
      </trkpt>
      <trkpt lat="45.87973" lon="4.65894">
        <ele>342</ele>
        <time>2018-10-28T09:57:38Z</time>
      </trkpt>
      <trkpt lat="45.87967" lon="4.65901">
        <ele>342</ele>
        <time>2018-10-28T09:57:41Z</time>
      </trkpt>
      <trkpt lat="45.87965" lon="4.65903">
        <ele>342</ele>
        <time>2018-10-28T09:57:42Z</time>
      </trkpt>
      <trkpt lat="45.87959" lon="4.65911">
        <ele>343</ele>
        <time>2018-10-28T09:57:45Z</time>
      </trkpt>
      <trkpt lat="45.87956" lon="4.65914">
        <ele>343</ele>
        <time>2018-10-28T09:57:46Z</time>
      </trkpt>
      <trkpt lat="45.87951" lon="4.6592">
        <ele>340</ele>
        <time>2018-10-28T09:57:48Z</time>
      </trkpt>
      <trkpt lat="45.87949" lon="4.65923">
        <ele>341</ele>
        <time>2018-10-28T09:57:49Z</time>
      </trkpt>
      <trkpt lat="45.87945" lon="4.6593">
        <ele>341</ele>
        <time>2018-10-28T09:57:51Z</time>
      </trkpt>
      <trkpt lat="45.87943" lon="4.65933">
        <ele>341</ele>
        <time>2018-10-28T09:57:52Z</time>
      </trkpt>
      <trkpt lat="45.87939" lon="4.65941">
        <ele>341</ele>
        <time>2018-10-28T09:57:54Z</time>
      </trkpt>
      <trkpt lat="45.87938" lon="4.65945">
        <ele>341</ele>
        <time>2018-10-28T09:57:55Z</time>
      </trkpt>
      <trkpt lat="45.87934" lon="4.65956">
        <ele>341</ele>
        <time>2018-10-28T09:57:58Z</time>
      </trkpt>
      <trkpt lat="45.87932" lon="4.65959">
        <ele>341</ele>
        <time>2018-10-28T09:57:59Z</time>
      </trkpt>
      <trkpt lat="45.8793" lon="4.65966">
        <ele>341</ele>
        <time>2018-10-28T09:58:01Z</time>
      </trkpt>
      <trkpt lat="45.87927" lon="4.65974">
        <ele>341</ele>
        <time>2018-10-28T09:58:02Z</time>
      </trkpt>
      <trkpt lat="45.87924" lon="4.65983">
        <ele>341</ele>
        <time>2018-10-28T09:58:06Z</time>
      </trkpt>
      <trkpt lat="45.87923" lon="4.65986">
        <ele>342</ele>
        <time>2018-10-28T09:58:07Z</time>
      </trkpt>
      <trkpt lat="45.87922" lon="4.65999">
        <ele>342</ele>
        <time>2018-10-28T09:58:11Z</time>
      </trkpt>
      <trkpt lat="45.87923" lon="4.66002">
        <ele>343</ele>
        <time>2018-10-28T09:58:12Z</time>
      </trkpt>
      <trkpt lat="45.87924" lon="4.66013">
        <ele>342</ele>
        <time>2018-10-28T09:58:16Z</time>
      </trkpt>
      <trkpt lat="45.87924" lon="4.66016">
        <ele>342</ele>
        <time>2018-10-28T09:58:17Z</time>
      </trkpt>
      <trkpt lat="45.87923" lon="4.66027">
        <ele>342</ele>
        <time>2018-10-28T09:58:21Z</time>
      </trkpt>
      <trkpt lat="45.87923" lon="4.6603">
        <ele>342</ele>
        <time>2018-10-28T09:58:22Z</time>
      </trkpt>
      <trkpt lat="45.87923" lon="4.66043">
        <ele>342</ele>
        <time>2018-10-28T09:58:26Z</time>
      </trkpt>
      <trkpt lat="45.87923" lon="4.66046">
        <ele>342</ele>
        <time>2018-10-28T09:58:27Z</time>
      </trkpt>
      <trkpt lat="45.87923" lon="4.66056">
        <ele>342</ele>
        <time>2018-10-28T09:58:30Z</time>
      </trkpt>
      <trkpt lat="45.87923" lon="4.66059">
        <ele>342</ele>
        <time>2018-10-28T09:58:31Z</time>
      </trkpt>
      <trkpt lat="45.87924" lon="4.66071">
        <ele>343</ele>
        <time>2018-10-28T09:58:35Z</time>
      </trkpt>
      <trkpt lat="45.87924" lon="4.66074">
        <ele>343</ele>
        <time>2018-10-28T09:58:36Z</time>
      </trkpt>
      <trkpt lat="45.87923" lon="4.66084">
        <ele>345</ele>
        <time>2018-10-28T09:58:39Z</time>
      </trkpt>
      <trkpt lat="45.87923" lon="4.66088">
        <ele>345</ele>
        <time>2018-10-28T09:58:40Z</time>
      </trkpt>
      <trkpt lat="45.87923" lon="4.66099">
        <ele>346</ele>
        <time>2018-10-28T09:58:43Z</time>
      </trkpt>
      <trkpt lat="45.87923" lon="4.66102">
        <ele>346</ele>
        <time>2018-10-28T09:58:44Z</time>
      </trkpt>
      <trkpt lat="45.87923" lon="4.66112">
        <ele>347</ele>
        <time>2018-10-28T09:58:47Z</time>
      </trkpt>
      <trkpt lat="45.87923" lon="4.66116">
        <ele>347</ele>
        <time>2018-10-28T09:58:48Z</time>
      </trkpt>
      <trkpt lat="45.87922" lon="4.66128">
        <ele>348</ele>
        <time>2018-10-28T09:58:52Z</time>
      </trkpt>
      <trkpt lat="45.87922" lon="4.66132">
        <ele>348</ele>
        <time>2018-10-28T09:58:53Z</time>
      </trkpt>
      <trkpt lat="45.87926" lon="4.6614">
        <ele>349</ele>
        <time>2018-10-28T09:58:56Z</time>
      </trkpt>
      <trkpt lat="45.87928" lon="4.66141">
        <ele>349</ele>
        <time>2018-10-28T09:58:57Z</time>
      </trkpt>
      <trkpt lat="45.87937" lon="4.66142">
        <ele>349</ele>
        <time>2018-10-28T09:59:00Z</time>
      </trkpt>
      <trkpt lat="45.8794" lon="4.66142">
        <ele>349</ele>
        <time>2018-10-28T09:59:01Z</time>
      </trkpt>
      <trkpt lat="45.87949" lon="4.66142">
        <ele>349</ele>
        <time>2018-10-28T09:59:13Z</time>
      </trkpt>
      <trkpt lat="45.87949" lon="4.66142">
        <ele>349</ele>
        <time>2018-10-28T09:59:14Z</time>
      </trkpt>
      <trkpt lat="45.87958" lon="4.66143">
        <ele>348</ele>
        <time>2018-10-28T09:59:59Z</time>
      </trkpt>
      <trkpt lat="45.8796" lon="4.66143">
        <ele>348</ele>
        <time>2018-10-28T10:00:00Z</time>
      </trkpt>
      <trkpt lat="45.87963" lon="4.66143">
        <ele>348</ele>
        <time>2018-10-28T10:00:01Z</time>
      </trkpt>
      <trkpt lat="45.87969" lon="4.66143">
        <ele>348</ele>
        <time>2018-10-28T10:00:02Z</time>
      </trkpt>
      <trkpt lat="45.87977" lon="4.66143">
        <ele>348</ele>
        <time>2018-10-28T10:00:04Z</time>
      </trkpt>
      <trkpt lat="45.87981" lon="4.66143">
        <ele>348</ele>
        <time>2018-10-28T10:00:05Z</time>
      </trkpt>
      <trkpt lat="45.87988" lon="4.66143">
        <ele>349</ele>
        <time>2018-10-28T10:00:08Z</time>
      </trkpt>
      <trkpt lat="45.87991" lon="4.66143">
        <ele>349</ele>
        <time>2018-10-28T10:00:09Z</time>
      </trkpt>
      <trkpt lat="45.87997" lon="4.66143">
        <ele>349</ele>
        <time>2018-10-28T10:00:10Z</time>
      </trkpt>
      <trkpt lat="45.88001" lon="4.66143">
        <ele>348</ele>
        <time>2018-10-28T10:00:11Z</time>
      </trkpt>
      <trkpt lat="45.88009" lon="4.66143">
        <ele>348</ele>
        <time>2018-10-28T10:00:13Z</time>
      </trkpt>
      <trkpt lat="45.88013" lon="4.66143">
        <ele>348</ele>
        <time>2018-10-28T10:00:14Z</time>
      </trkpt>
      <trkpt lat="45.88021" lon="4.66142">
        <ele>348</ele>
        <time>2018-10-28T10:00:16Z</time>
      </trkpt>
      <trkpt lat="45.88025" lon="4.66141">
        <ele>348</ele>
        <time>2018-10-28T10:00:17Z</time>
      </trkpt>
      <trkpt lat="45.88034" lon="4.6614">
        <ele>348</ele>
        <time>2018-10-28T10:00:19Z</time>
      </trkpt>
      <trkpt lat="45.88038" lon="4.6614">
        <ele>348</ele>
        <time>2018-10-28T10:00:20Z</time>
      </trkpt>
      <trkpt lat="45.88046" lon="4.6614">
        <ele>348</ele>
        <time>2018-10-28T10:00:22Z</time>
      </trkpt>
      <trkpt lat="45.88049" lon="4.6614">
        <ele>348</ele>
        <time>2018-10-28T10:00:23Z</time>
      </trkpt>
      <trkpt lat="45.88058" lon="4.66138">
        <ele>348</ele>
        <time>2018-10-28T10:00:26Z</time>
      </trkpt>
      <trkpt lat="45.88062" lon="4.66138">
        <ele>348</ele>
        <time>2018-10-28T10:00:27Z</time>
      </trkpt>
      <trkpt lat="45.8807" lon="4.66138">
        <ele>348</ele>
        <time>2018-10-28T10:00:30Z</time>
      </trkpt>
      <trkpt lat="45.88072" lon="4.66138">
        <ele>348</ele>
        <time>2018-10-28T10:00:31Z</time>
      </trkpt>
      <trkpt lat="45.88081" lon="4.66137">
        <ele>348</ele>
        <time>2018-10-28T10:02:04Z</time>
      </trkpt>
      <trkpt lat="45.88083" lon="4.66138">
        <ele>348</ele>
        <time>2018-10-28T10:02:05Z</time>
      </trkpt>
      <trkpt lat="45.8809" lon="4.66137">
        <ele>349</ele>
        <time>2018-10-28T10:02:08Z</time>
      </trkpt>
      <trkpt lat="45.88094" lon="4.66137">
        <ele>349</ele>
        <time>2018-10-28T10:02:09Z</time>
      </trkpt>
      <trkpt lat="45.88101" lon="4.66136">
        <ele>349</ele>
        <time>2018-10-28T10:02:10Z</time>
      </trkpt>
      <trkpt lat="45.88105" lon="4.66136">
        <ele>349</ele>
        <time>2018-10-28T10:02:11Z</time>
      </trkpt>
      <trkpt lat="45.88113" lon="4.66135">
        <ele>349</ele>
        <time>2018-10-28T10:02:13Z</time>
      </trkpt>
      <trkpt lat="45.88118" lon="4.66135">
        <ele>349</ele>
        <time>2018-10-28T10:02:14Z</time>
      </trkpt>
      <trkpt lat="45.88126" lon="4.66134">
        <ele>349</ele>
        <time>2018-10-28T10:02:16Z</time>
      </trkpt>
      <trkpt lat="45.8813" lon="4.66134">
        <ele>349</ele>
        <time>2018-10-28T10:02:17Z</time>
      </trkpt>
      <trkpt lat="45.88135" lon="4.66133">
        <ele>349</ele>
        <time>2018-10-28T10:02:19Z</time>
      </trkpt>
      <trkpt lat="45.88141" lon="4.66133">
        <ele>349</ele>
        <time>2018-10-28T10:02:20Z</time>
      </trkpt>
      <trkpt lat="45.88149" lon="4.66132">
        <ele>349</ele>
        <time>2018-10-28T10:02:22Z</time>
      </trkpt>
      <trkpt lat="45.88153" lon="4.66131">
        <ele>349</ele>
        <time>2018-10-28T10:02:23Z</time>
      </trkpt>
      <trkpt lat="45.88162" lon="4.66129">
        <ele>349</ele>
        <time>2018-10-28T10:02:25Z</time>
      </trkpt>
      <trkpt lat="45.88166" lon="4.66129">
        <ele>349</ele>
        <time>2018-10-28T10:02:26Z</time>
      </trkpt>
      <trkpt lat="45.88171" lon="4.66128">
        <ele>350</ele>
        <time>2018-10-28T10:02:27Z</time>
      </trkpt>
      <trkpt lat="45.88175" lon="4.66128">
        <ele>350</ele>
        <time>2018-10-28T10:02:28Z</time>
      </trkpt>
      <trkpt lat="45.88183" lon="4.66128">
        <ele>350</ele>
        <time>2018-10-28T10:02:31Z</time>
      </trkpt>
      <trkpt lat="45.88186" lon="4.66129">
        <ele>350</ele>
        <time>2018-10-28T10:02:32Z</time>
      </trkpt>
      <trkpt lat="45.88194" lon="4.66129">
        <ele>350</ele>
        <time>2018-10-28T10:02:35Z</time>
      </trkpt>
      <trkpt lat="45.88197" lon="4.66129">
        <ele>350</ele>
        <time>2018-10-28T10:02:36Z</time>
      </trkpt>
      <trkpt lat="45.88203" lon="4.6613">
        <ele>350</ele>
        <time>2018-10-28T10:02:38Z</time>
      </trkpt>
      <trkpt lat="45.88206" lon="4.6613">
        <ele>350</ele>
        <time>2018-10-28T10:02:39Z</time>
      </trkpt>
      <trkpt lat="45.88213" lon="4.66131">
        <ele>350</ele>
        <time>2018-10-28T10:02:41Z</time>
      </trkpt>
      <trkpt lat="45.88216" lon="4.66132">
        <ele>350</ele>
        <time>2018-10-28T10:02:42Z</time>
      </trkpt>
      <trkpt lat="45.88222" lon="4.66133">
        <ele>350</ele>
        <time>2018-10-28T10:02:44Z</time>
      </trkpt>
      <trkpt lat="45.88225" lon="4.66134">
        <ele>350</ele>
        <time>2018-10-28T10:02:45Z</time>
      </trkpt>
      <trkpt lat="45.88231" lon="4.66135">
        <ele>350</ele>
        <time>2018-10-28T10:02:47Z</time>
      </trkpt>
      <trkpt lat="45.88235" lon="4.66135">
        <ele>350</ele>
        <time>2018-10-28T10:02:48Z</time>
      </trkpt>
      <trkpt lat="45.88244" lon="4.66136">
        <ele>350</ele>
        <time>2018-10-28T10:02:51Z</time>
      </trkpt>
      <trkpt lat="45.88247" lon="4.66136">
        <ele>350</ele>
        <time>2018-10-28T10:02:52Z</time>
      </trkpt>
      <trkpt lat="45.88253" lon="4.66137">
        <ele>352</ele>
        <time>2018-10-28T10:02:54Z</time>
      </trkpt>
      <trkpt lat="45.88256" lon="4.66137">
        <ele>352</ele>
        <time>2018-10-28T10:02:55Z</time>
      </trkpt>
      <trkpt lat="45.88262" lon="4.66138">
        <ele>352</ele>
        <time>2018-10-28T10:02:57Z</time>
      </trkpt>
      <trkpt lat="45.88265" lon="4.66139">
        <ele>352</ele>
        <time>2018-10-28T10:02:58Z</time>
      </trkpt>
      <trkpt lat="45.88274" lon="4.6614">
        <ele>352</ele>
        <time>2018-10-28T10:03:01Z</time>
      </trkpt>
      <trkpt lat="45.88277" lon="4.66141">
        <ele>352</ele>
        <time>2018-10-28T10:03:02Z</time>
      </trkpt>
      <trkpt lat="45.88283" lon="4.66141">
        <ele>352</ele>
        <time>2018-10-28T10:03:04Z</time>
      </trkpt>
      <trkpt lat="45.88286" lon="4.66142">
        <ele>352</ele>
        <time>2018-10-28T10:03:05Z</time>
      </trkpt>
      <trkpt lat="45.88292" lon="4.66142">
        <ele>353</ele>
        <time>2018-10-28T10:03:07Z</time>
      </trkpt>
      <trkpt lat="45.88296" lon="4.66142">
        <ele>353</ele>
        <time>2018-10-28T10:03:08Z</time>
      </trkpt>
      <trkpt lat="45.88304" lon="4.66142">
        <ele>353</ele>
        <time>2018-10-28T10:03:11Z</time>
      </trkpt>
      <trkpt lat="45.88307" lon="4.66142">
        <ele>353</ele>
        <time>2018-10-28T10:03:12Z</time>
      </trkpt>
      <trkpt lat="45.88315" lon="4.66143">
        <ele>354</ele>
        <time>2018-10-28T10:03:15Z</time>
      </trkpt>
      <trkpt lat="45.88318" lon="4.66143">
        <ele>354</ele>
        <time>2018-10-28T10:03:16Z</time>
      </trkpt>
      <trkpt lat="45.88326" lon="4.66143">
        <ele>355</ele>
        <time>2018-10-28T10:03:19Z</time>
      </trkpt>
      <trkpt lat="45.88329" lon="4.66143">
        <ele>355</ele>
        <time>2018-10-28T10:03:20Z</time>
      </trkpt>
      <trkpt lat="45.88337" lon="4.66143">
        <ele>357</ele>
        <time>2018-10-28T10:03:23Z</time>
      </trkpt>
      <trkpt lat="45.8834" lon="4.66144">
        <ele>357</ele>
        <time>2018-10-28T10:03:24Z</time>
      </trkpt>
      <trkpt lat="45.88348" lon="4.66144">
        <ele>357</ele>
        <time>2018-10-28T10:03:27Z</time>
      </trkpt>
      <trkpt lat="45.88351" lon="4.66145">
        <ele>357</ele>
        <time>2018-10-28T10:03:28Z</time>
      </trkpt>
      <trkpt lat="45.8836" lon="4.66145">
        <ele>357</ele>
        <time>2018-10-28T10:03:31Z</time>
      </trkpt>
      <trkpt lat="45.88362" lon="4.66146">
        <ele>357</ele>
        <time>2018-10-28T10:03:32Z</time>
      </trkpt>
      <trkpt lat="45.88371" lon="4.66146">
        <ele>357</ele>
        <time>2018-10-28T10:03:35Z</time>
      </trkpt>
      <trkpt lat="45.88373" lon="4.66146">
        <ele>357</ele>
        <time>2018-10-28T10:03:36Z</time>
      </trkpt>
      <trkpt lat="45.88381" lon="4.66146">
        <ele>357</ele>
        <time>2018-10-28T10:03:39Z</time>
      </trkpt>
      <trkpt lat="45.88384" lon="4.66146">
        <ele>358</ele>
        <time>2018-10-28T10:03:40Z</time>
      </trkpt>
      <trkpt lat="45.88391" lon="4.66147">
        <ele>358</ele>
        <time>2018-10-28T10:03:43Z</time>
      </trkpt>
      <trkpt lat="45.88394" lon="4.66147">
        <ele>358</ele>
        <time>2018-10-28T10:03:44Z</time>
      </trkpt>
      <trkpt lat="45.88401" lon="4.66147">
        <ele>359</ele>
        <time>2018-10-28T10:03:47Z</time>
      </trkpt>
      <trkpt lat="45.88403" lon="4.66147">
        <ele>359</ele>
        <time>2018-10-28T10:03:48Z</time>
      </trkpt>
      <trkpt lat="45.88412" lon="4.66147">
        <ele>359</ele>
        <time>2018-10-28T10:03:52Z</time>
      </trkpt>
      <trkpt lat="45.88414" lon="4.66147">
        <ele>359</ele>
        <time>2018-10-28T10:03:53Z</time>
      </trkpt>
      <trkpt lat="45.88422" lon="4.66148">
        <ele>361</ele>
        <time>2018-10-28T10:03:57Z</time>
      </trkpt>
      <trkpt lat="45.88424" lon="4.66148">
        <ele>361</ele>
        <time>2018-10-28T10:03:58Z</time>
      </trkpt>
      <trkpt lat="45.88432" lon="4.6615">
        <ele>361</ele>
        <time>2018-10-28T10:04:02Z</time>
      </trkpt>
      <trkpt lat="45.88434" lon="4.6615">
        <ele>361</ele>
        <time>2018-10-28T10:04:03Z</time>
      </trkpt>
      <trkpt lat="45.88442" lon="4.6615">
        <ele>361</ele>
        <time>2018-10-28T10:04:07Z</time>
      </trkpt>
      <trkpt lat="45.88444" lon="4.6615">
        <ele>361</ele>
        <time>2018-10-28T10:04:08Z</time>
      </trkpt>
      <trkpt lat="45.88453" lon="4.66152">
        <ele>361</ele>
        <time>2018-10-28T10:04:12Z</time>
      </trkpt>
      <trkpt lat="45.88455" lon="4.66152">
        <ele>361</ele>
        <time>2018-10-28T10:04:13Z</time>
      </trkpt>
      <trkpt lat="45.88464" lon="4.66153">
        <ele>362</ele>
        <time>2018-10-28T10:04:17Z</time>
      </trkpt>
      <trkpt lat="45.88466" lon="4.66154">
        <ele>362</ele>
        <time>2018-10-28T10:04:18Z</time>
      </trkpt>
      <trkpt lat="45.88474" lon="4.66157">
        <ele>362</ele>
        <time>2018-10-28T10:04:22Z</time>
      </trkpt>
      <trkpt lat="45.88476" lon="4.66158">
        <ele>363</ele>
        <time>2018-10-28T10:04:23Z</time>
      </trkpt>
      <trkpt lat="45.88483" lon="4.66163">
        <ele>364</ele>
        <time>2018-10-28T10:04:27Z</time>
      </trkpt>
      <trkpt lat="45.88485" lon="4.66164">
        <ele>364</ele>
        <time>2018-10-28T10:04:28Z</time>
      </trkpt>
      <trkpt lat="45.88492" lon="4.6617">
        <ele>368</ele>
        <time>2018-10-28T10:04:32Z</time>
      </trkpt>
      <trkpt lat="45.88493" lon="4.66171">
        <ele>368</ele>
        <time>2018-10-28T10:04:33Z</time>
      </trkpt>
      <trkpt lat="45.885" lon="4.66176">
        <ele>369</ele>
        <time>2018-10-28T10:04:37Z</time>
      </trkpt>
      <trkpt lat="45.88501" lon="4.66178">
        <ele>368</ele>
        <time>2018-10-28T10:04:38Z</time>
      </trkpt>
      <trkpt lat="45.88507" lon="4.66183">
        <ele>369</ele>
        <time>2018-10-28T10:04:42Z</time>
      </trkpt>
      <trkpt lat="45.88509" lon="4.66185">
        <ele>369</ele>
        <time>2018-10-28T10:04:43Z</time>
      </trkpt>
      <trkpt lat="45.88515" lon="4.6619">
        <ele>369</ele>
        <time>2018-10-28T10:04:47Z</time>
      </trkpt>
      <trkpt lat="45.88517" lon="4.66191">
        <ele>369</ele>
        <time>2018-10-28T10:04:48Z</time>
      </trkpt>
      <trkpt lat="45.88524" lon="4.66196">
        <ele>370</ele>
        <time>2018-10-28T10:04:52Z</time>
      </trkpt>
      <trkpt lat="45.88526" lon="4.66197">
        <ele>370</ele>
        <time>2018-10-28T10:04:53Z</time>
      </trkpt>
      <trkpt lat="45.88532" lon="4.66202">
        <ele>370</ele>
        <time>2018-10-28T10:04:57Z</time>
      </trkpt>
      <trkpt lat="45.88534" lon="4.66203">
        <ele>370</ele>
        <time>2018-10-28T10:04:58Z</time>
      </trkpt>
      <trkpt lat="45.88541" lon="4.6621">
        <ele>370</ele>
        <time>2018-10-28T10:05:02Z</time>
      </trkpt>
      <trkpt lat="45.88542" lon="4.66211">
        <ele>370</ele>
        <time>2018-10-28T10:05:03Z</time>
      </trkpt>
      <trkpt lat="45.88549" lon="4.66217">
        <ele>370</ele>
        <time>2018-10-28T10:05:07Z</time>
      </trkpt>
      <trkpt lat="45.88551" lon="4.66219">
        <ele>370</ele>
        <time>2018-10-28T10:05:08Z</time>
      </trkpt>
      <trkpt lat="45.88558" lon="4.66225">
        <ele>370</ele>
        <time>2018-10-28T10:05:12Z</time>
      </trkpt>
      <trkpt lat="45.8856" lon="4.66227">
        <ele>370</ele>
        <time>2018-10-28T10:05:13Z</time>
      </trkpt>
      <trkpt lat="45.88565" lon="4.66234">
        <ele>371</ele>
        <time>2018-10-28T10:05:16Z</time>
      </trkpt>
      <trkpt lat="45.88567" lon="4.66236">
        <ele>371</ele>
        <time>2018-10-28T10:05:17Z</time>
      </trkpt>
      <trkpt lat="45.88572" lon="4.66242">
        <ele>371</ele>
        <time>2018-10-28T10:05:20Z</time>
      </trkpt>
      <trkpt lat="45.88574" lon="4.66245">
        <ele>371</ele>
        <time>2018-10-28T10:05:21Z</time>
      </trkpt>
      <trkpt lat="45.8858" lon="4.66251">
        <ele>372</ele>
        <time>2018-10-28T10:05:24Z</time>
      </trkpt>
      <trkpt lat="45.88581" lon="4.66253">
        <ele>372</ele>
        <time>2018-10-28T10:05:25Z</time>
      </trkpt>
      <trkpt lat="45.88586" lon="4.6626">
        <ele>371</ele>
        <time>2018-10-28T10:05:28Z</time>
      </trkpt>
      <trkpt lat="45.88588" lon="4.66262">
        <ele>372</ele>
        <time>2018-10-28T10:05:29Z</time>
      </trkpt>
      <trkpt lat="45.88594" lon="4.66271">
        <ele>372</ele>
        <time>2018-10-28T10:05:33Z</time>
      </trkpt>
      <trkpt lat="45.88595" lon="4.66274">
        <ele>372</ele>
        <time>2018-10-28T10:05:34Z</time>
      </trkpt>
      <trkpt lat="45.88601" lon="4.66284">
        <ele>373</ele>
        <time>2018-10-28T10:05:38Z</time>
      </trkpt>
      <trkpt lat="45.88602" lon="4.66286">
        <ele>373</ele>
        <time>2018-10-28T10:05:39Z</time>
      </trkpt>
      <trkpt lat="45.88607" lon="4.66294">
        <ele>373</ele>
        <time>2018-10-28T10:05:42Z</time>
      </trkpt>
      <trkpt lat="45.88608" lon="4.66297">
        <ele>373</ele>
        <time>2018-10-28T10:05:43Z</time>
      </trkpt>
      <trkpt lat="45.88612" lon="4.66305">
        <ele>374</ele>
        <time>2018-10-28T10:05:46Z</time>
      </trkpt>
      <trkpt lat="45.88614" lon="4.66308">
        <ele>374</ele>
        <time>2018-10-28T10:05:47Z</time>
      </trkpt>
      <trkpt lat="45.88618" lon="4.66316">
        <ele>374</ele>
        <time>2018-10-28T10:05:50Z</time>
      </trkpt>
      <trkpt lat="45.88619" lon="4.66319">
        <ele>374</ele>
        <time>2018-10-28T10:05:51Z</time>
      </trkpt>
      <trkpt lat="45.88624" lon="4.66327">
        <ele>374</ele>
        <time>2018-10-28T10:05:54Z</time>
      </trkpt>
      <trkpt lat="45.88625" lon="4.66329">
        <ele>374</ele>
        <time>2018-10-28T10:05:55Z</time>
      </trkpt>
      <trkpt lat="45.88629" lon="4.66337">
        <ele>380</ele>
        <time>2018-10-28T10:05:58Z</time>
      </trkpt>
      <trkpt lat="45.8863" lon="4.6634">
        <ele>380</ele>
        <time>2018-10-28T10:05:59Z</time>
      </trkpt>
      <trkpt lat="45.88635" lon="4.66347">
        <ele>380</ele>
        <time>2018-10-28T10:06:02Z</time>
      </trkpt>
      <trkpt lat="45.88637" lon="4.6635">
        <ele>380</ele>
        <time>2018-10-28T10:06:03Z</time>
      </trkpt>
      <trkpt lat="45.88642" lon="4.66357">
        <ele>380</ele>
        <time>2018-10-28T10:06:06Z</time>
      </trkpt>
      <trkpt lat="45.88644" lon="4.66359">
        <ele>380</ele>
        <time>2018-10-28T10:06:07Z</time>
      </trkpt>
      <trkpt lat="45.88648" lon="4.66366">
        <ele>380</ele>
        <time>2018-10-28T10:06:10Z</time>
      </trkpt>
      <trkpt lat="45.8865" lon="4.66369">
        <ele>380</ele>
        <time>2018-10-28T10:06:11Z</time>
      </trkpt>
      <trkpt lat="45.88656" lon="4.66378">
        <ele>381</ele>
        <time>2018-10-28T10:06:15Z</time>
      </trkpt>
      <trkpt lat="45.88658" lon="4.6638">
        <ele>381</ele>
        <time>2018-10-28T10:06:16Z</time>
      </trkpt>
      <trkpt lat="45.88663" lon="4.66386">
        <ele>381</ele>
        <time>2018-10-28T10:06:19Z</time>
      </trkpt>
      <trkpt lat="45.88665" lon="4.66388">
        <ele>382</ele>
        <time>2018-10-28T10:06:20Z</time>
      </trkpt>
      <trkpt lat="45.88671" lon="4.66394">
        <ele>378</ele>
        <time>2018-10-28T10:06:23Z</time>
      </trkpt>
      <trkpt lat="45.88673" lon="4.66396">
        <ele>379</ele>
        <time>2018-10-28T10:06:24Z</time>
      </trkpt>
      <trkpt lat="45.88678" lon="4.66401">
        <ele>379</ele>
        <time>2018-10-28T10:06:27Z</time>
      </trkpt>
      <trkpt lat="45.8868" lon="4.66403">
        <ele>379</ele>
        <time>2018-10-28T10:06:28Z</time>
      </trkpt>
      <trkpt lat="45.88687" lon="4.66409">
        <ele>379</ele>
        <time>2018-10-28T10:06:31Z</time>
      </trkpt>
      <trkpt lat="45.88689" lon="4.66411">
        <ele>379</ele>
        <time>2018-10-28T10:06:32Z</time>
      </trkpt>
      <trkpt lat="45.88695" lon="4.66417">
        <ele>378</ele>
        <time>2018-10-28T10:06:35Z</time>
      </trkpt>
      <trkpt lat="45.88697" lon="4.66419">
        <ele>384</ele>
        <time>2018-10-28T10:06:36Z</time>
      </trkpt>
      <trkpt lat="45.88703" lon="4.66425">
        <ele>384</ele>
        <time>2018-10-28T10:06:39Z</time>
      </trkpt>
      <trkpt lat="45.88705" lon="4.66428">
        <ele>384</ele>
        <time>2018-10-28T10:06:40Z</time>
      </trkpt>
      <trkpt lat="45.88712" lon="4.66434">
        <ele>383</ele>
        <time>2018-10-28T10:06:43Z</time>
      </trkpt>
      <trkpt lat="45.88714" lon="4.66436">
        <ele>383</ele>
        <time>2018-10-28T10:06:44Z</time>
      </trkpt>
      <trkpt lat="45.88719" lon="4.66441">
        <ele>383</ele>
        <time>2018-10-28T10:06:47Z</time>
      </trkpt>
      <trkpt lat="45.88721" lon="4.66443">
        <ele>384</ele>
        <time>2018-10-28T10:06:48Z</time>
      </trkpt>
      <trkpt lat="45.88727" lon="4.66449">
        <ele>384</ele>
        <time>2018-10-28T10:06:51Z</time>
      </trkpt>
      <trkpt lat="45.88729" lon="4.66451">
        <ele>384</ele>
        <time>2018-10-28T10:06:52Z</time>
      </trkpt>
      <trkpt lat="45.88736" lon="4.66458">
        <ele>384</ele>
        <time>2018-10-28T10:06:56Z</time>
      </trkpt>
      <trkpt lat="45.88737" lon="4.6646">
        <ele>384</ele>
        <time>2018-10-28T10:06:57Z</time>
      </trkpt>
      <trkpt lat="45.88743" lon="4.66469">
        <ele>385</ele>
        <time>2018-10-28T10:07:01Z</time>
      </trkpt>
      <trkpt lat="45.88745" lon="4.66471">
        <ele>385</ele>
        <time>2018-10-28T10:07:02Z</time>
      </trkpt>
      <trkpt lat="45.88751" lon="4.66477">
        <ele>383</ele>
        <time>2018-10-28T10:07:05Z</time>
      </trkpt>
      <trkpt lat="45.88753" lon="4.66479">
        <ele>383</ele>
        <time>2018-10-28T10:07:06Z</time>
      </trkpt>
      <trkpt lat="45.88759" lon="4.66487">
        <ele>384</ele>
        <time>2018-10-28T10:07:10Z</time>
      </trkpt>
      <trkpt lat="45.8876" lon="4.66489">
        <ele>384</ele>
        <time>2018-10-28T10:07:11Z</time>
      </trkpt>
      <trkpt lat="45.88765" lon="4.66498">
        <ele>384</ele>
        <time>2018-10-28T10:07:15Z</time>
      </trkpt>
      <trkpt lat="45.88767" lon="4.665">
        <ele>389</ele>
        <time>2018-10-28T10:07:16Z</time>
      </trkpt>
      <trkpt lat="45.88773" lon="4.66509">
        <ele>390</ele>
        <time>2018-10-28T10:07:20Z</time>
      </trkpt>
      <trkpt lat="45.88775" lon="4.66511">
        <ele>390</ele>
        <time>2018-10-28T10:07:21Z</time>
      </trkpt>
      <trkpt lat="45.88781" lon="4.6652">
        <ele>390</ele>
        <time>2018-10-28T10:07:25Z</time>
      </trkpt>
      <trkpt lat="45.88782" lon="4.66522">
        <ele>390</ele>
        <time>2018-10-28T10:07:26Z</time>
      </trkpt>
      <trkpt lat="45.8879" lon="4.66529">
        <ele>391</ele>
        <time>2018-10-28T10:07:30Z</time>
      </trkpt>
      <trkpt lat="45.88792" lon="4.66531">
        <ele>391</ele>
        <time>2018-10-28T10:07:31Z</time>
      </trkpt>
      <trkpt lat="45.88797" lon="4.66535">
        <ele>391</ele>
        <time>2018-10-28T10:07:34Z</time>
      </trkpt>
      <trkpt lat="45.88799" lon="4.66537">
        <ele>391</ele>
        <time>2018-10-28T10:07:35Z</time>
      </trkpt>
      <trkpt lat="45.88806" lon="4.66543">
        <ele>392</ele>
        <time>2018-10-28T10:07:39Z</time>
      </trkpt>
      <trkpt lat="45.88808" lon="4.66545">
        <ele>392</ele>
        <time>2018-10-28T10:07:40Z</time>
      </trkpt>
      <trkpt lat="45.88816" lon="4.66549">
        <ele>392</ele>
        <time>2018-10-28T10:07:44Z</time>
      </trkpt>
      <trkpt lat="45.88818" lon="4.66549">
        <ele>392</ele>
        <time>2018-10-28T10:07:45Z</time>
      </trkpt>
      <trkpt lat="45.88825" lon="4.66553">
        <ele>392</ele>
        <time>2018-10-28T10:07:49Z</time>
      </trkpt>
      <trkpt lat="45.88827" lon="4.66554">
        <ele>393</ele>
        <time>2018-10-28T10:07:50Z</time>
      </trkpt>
      <trkpt lat="45.88834" lon="4.66558">
        <ele>391</ele>
        <time>2018-10-28T10:07:54Z</time>
      </trkpt>
      <trkpt lat="45.88836" lon="4.66559">
        <ele>392</ele>
        <time>2018-10-28T10:07:55Z</time>
      </trkpt>
      <trkpt lat="45.88843" lon="4.66564">
        <ele>392</ele>
        <time>2018-10-28T10:07:59Z</time>
      </trkpt>
      <trkpt lat="45.88845" lon="4.66566">
        <ele>392</ele>
        <time>2018-10-28T10:08:00Z</time>
      </trkpt>
      <trkpt lat="45.88852" lon="4.6657">
        <ele>392</ele>
        <time>2018-10-28T10:08:04Z</time>
      </trkpt>
      <trkpt lat="45.88854" lon="4.66572">
        <ele>392</ele>
        <time>2018-10-28T10:08:05Z</time>
      </trkpt>
      <trkpt lat="45.8886" lon="4.66578">
        <ele>392</ele>
        <time>2018-10-28T10:08:09Z</time>
      </trkpt>
      <trkpt lat="45.88862" lon="4.66579">
        <ele>392</ele>
        <time>2018-10-28T10:08:10Z</time>
      </trkpt>
      <trkpt lat="45.88868" lon="4.66588">
        <ele>399</ele>
        <time>2018-10-28T10:08:14Z</time>
      </trkpt>
      <trkpt lat="45.88869" lon="4.6659">
        <ele>399</ele>
        <time>2018-10-28T10:08:15Z</time>
      </trkpt>
      <trkpt lat="45.88874" lon="4.66599">
        <ele>400</ele>
        <time>2018-10-28T10:08:19Z</time>
      </trkpt>
      <trkpt lat="45.88875" lon="4.66601">
        <ele>400</ele>
        <time>2018-10-28T10:08:20Z</time>
      </trkpt>
      <trkpt lat="45.88881" lon="4.66609">
        <ele>400</ele>
        <time>2018-10-28T10:08:24Z</time>
      </trkpt>
      <trkpt lat="45.88882" lon="4.66611">
        <ele>400</ele>
        <time>2018-10-28T10:08:25Z</time>
      </trkpt>
      <trkpt lat="45.88887" lon="4.66621">
        <ele>401</ele>
        <time>2018-10-28T10:08:29Z</time>
      </trkpt>
      <trkpt lat="45.88888" lon="4.66623">
        <ele>401</ele>
        <time>2018-10-28T10:08:30Z</time>
      </trkpt>
      <trkpt lat="45.88893" lon="4.66632">
        <ele>401</ele>
        <time>2018-10-28T10:08:34Z</time>
      </trkpt>
      <trkpt lat="45.88895" lon="4.66634">
        <ele>402</ele>
        <time>2018-10-28T10:08:35Z</time>
      </trkpt>
      <trkpt lat="45.889" lon="4.66643">
        <ele>402</ele>
        <time>2018-10-28T10:08:39Z</time>
      </trkpt>
      <trkpt lat="45.88902" lon="4.66645">
        <ele>403</ele>
        <time>2018-10-28T10:08:40Z</time>
      </trkpt>
      <trkpt lat="45.88908" lon="4.66652">
        <ele>403</ele>
        <time>2018-10-28T10:08:44Z</time>
      </trkpt>
      <trkpt lat="45.88909" lon="4.66653">
        <ele>404</ele>
        <time>2018-10-28T10:08:45Z</time>
      </trkpt>
      <trkpt lat="45.88916" lon="4.6666">
        <ele>405</ele>
        <time>2018-10-28T10:08:49Z</time>
      </trkpt>
      <trkpt lat="45.88918" lon="4.66662">
        <ele>405</ele>
        <time>2018-10-28T10:08:50Z</time>
      </trkpt>
      <trkpt lat="45.88925" lon="4.66668">
        <ele>407</ele>
        <time>2018-10-28T10:08:54Z</time>
      </trkpt>
      <trkpt lat="45.88927" lon="4.6667">
        <ele>407</ele>
        <time>2018-10-28T10:08:55Z</time>
      </trkpt>
      <trkpt lat="45.88933" lon="4.66676">
        <ele>408</ele>
        <time>2018-10-28T10:08:59Z</time>
      </trkpt>
      <trkpt lat="45.88935" lon="4.66678">
        <ele>408</ele>
        <time>2018-10-28T10:09:00Z</time>
      </trkpt>
      <trkpt lat="45.88943" lon="4.66683">
        <ele>408</ele>
        <time>2018-10-28T10:09:04Z</time>
      </trkpt>
      <trkpt lat="45.88945" lon="4.66684">
        <ele>408</ele>
        <time>2018-10-28T10:09:05Z</time>
      </trkpt>
      <trkpt lat="45.88952" lon="4.66689">
        <ele>409</ele>
        <time>2018-10-28T10:09:09Z</time>
      </trkpt>
      <trkpt lat="45.88954" lon="4.6669">
        <ele>409</ele>
        <time>2018-10-28T10:09:10Z</time>
      </trkpt>
      <trkpt lat="45.88962" lon="4.66696">
        <ele>409</ele>
        <time>2018-10-28T10:09:14Z</time>
      </trkpt>
      <trkpt lat="45.88964" lon="4.66697">
        <ele>409</ele>
        <time>2018-10-28T10:09:15Z</time>
      </trkpt>
      <trkpt lat="45.8897" lon="4.66702">
        <ele>409</ele>
        <time>2018-10-28T10:09:18Z</time>
      </trkpt>
      <trkpt lat="45.88972" lon="4.66703">
        <ele>409</ele>
        <time>2018-10-28T10:09:19Z</time>
      </trkpt>
      <trkpt lat="45.88979" lon="4.66706">
        <ele>409</ele>
        <time>2018-10-28T10:09:22Z</time>
      </trkpt>
      <trkpt lat="45.88981" lon="4.66707">
        <ele>409</ele>
        <time>2018-10-28T10:09:23Z</time>
      </trkpt>
      <trkpt lat="45.88989" lon="4.6671">
        <ele>410</ele>
        <time>2018-10-28T10:09:26Z</time>
      </trkpt>
      <trkpt lat="45.88992" lon="4.66711">
        <ele>410</ele>
        <time>2018-10-28T10:09:27Z</time>
      </trkpt>
      <trkpt lat="45.88999" lon="4.66715">
        <ele>410</ele>
        <time>2018-10-28T10:09:30Z</time>
      </trkpt>
      <trkpt lat="45.89002" lon="4.66716">
        <ele>407</ele>
        <time>2018-10-28T10:09:31Z</time>
      </trkpt>
      <trkpt lat="45.89008" lon="4.66718">
        <ele>408</ele>
        <time>2018-10-28T10:09:34Z</time>
      </trkpt>
      <trkpt lat="45.89011" lon="4.66719">
        <ele>408</ele>
        <time>2018-10-28T10:09:35Z</time>
      </trkpt>
      <trkpt lat="45.89019" lon="4.66724">
        <ele>408</ele>
        <time>2018-10-28T10:09:38Z</time>
      </trkpt>
      <trkpt lat="45.89022" lon="4.66726">
        <ele>408</ele>
        <time>2018-10-28T10:09:39Z</time>
      </trkpt>
      <trkpt lat="45.8903" lon="4.6673">
        <ele>408</ele>
        <time>2018-10-28T10:09:42Z</time>
      </trkpt>
      <trkpt lat="45.89036" lon="4.66732">
        <ele>407</ele>
        <time>2018-10-28T10:09:43Z</time>
      </trkpt>
      <trkpt lat="45.89042" lon="4.66737">
        <ele>407</ele>
        <time>2018-10-28T10:09:46Z</time>
      </trkpt>
      <trkpt lat="45.89045" lon="4.66739">
        <ele>407</ele>
        <time>2018-10-28T10:09:47Z</time>
      </trkpt>
      <trkpt lat="45.89053" lon="4.66743">
        <ele>407</ele>
        <time>2018-10-28T10:09:50Z</time>
      </trkpt>
      <trkpt lat="45.89056" lon="4.66744">
        <ele>407</ele>
        <time>2018-10-28T10:09:51Z</time>
      </trkpt>
      <trkpt lat="45.89062" lon="4.66749">
        <ele>407</ele>
        <time>2018-10-28T10:09:54Z</time>
      </trkpt>
      <trkpt lat="45.89064" lon="4.66751">
        <ele>412</ele>
        <time>2018-10-28T10:09:55Z</time>
      </trkpt>
      <trkpt lat="45.8907" lon="4.66759">
        <ele>411</ele>
        <time>2018-10-28T10:09:58Z</time>
      </trkpt>
      <trkpt lat="45.89072" lon="4.66761">
        <ele>411</ele>
        <time>2018-10-28T10:09:59Z</time>
      </trkpt>
      <trkpt lat="45.89078" lon="4.66768">
        <ele>412</ele>
        <time>2018-10-28T10:10:02Z</time>
      </trkpt>
      <trkpt lat="45.8908" lon="4.6677">
        <ele>412</ele>
        <time>2018-10-28T10:10:03Z</time>
      </trkpt>
      <trkpt lat="45.89088" lon="4.66777">
        <ele>410</ele>
        <time>2018-10-28T10:10:06Z</time>
      </trkpt>
      <trkpt lat="45.8909" lon="4.66779">
        <ele>410</ele>
        <time>2018-10-28T10:10:07Z</time>
      </trkpt>
      <trkpt lat="45.89094" lon="4.66784">
        <ele>410</ele>
        <time>2018-10-28T10:10:09Z</time>
      </trkpt>
      <trkpt lat="45.89097" lon="4.66787">
        <ele>410</ele>
        <time>2018-10-28T10:10:10Z</time>
      </trkpt>
      <trkpt lat="45.89102" lon="4.66792">
        <ele>410</ele>
        <time>2018-10-28T10:10:12Z</time>
      </trkpt>
      <trkpt lat="45.89104" lon="4.66795">
        <ele>410</ele>
        <time>2018-10-28T10:10:13Z</time>
      </trkpt>
      <trkpt lat="45.8911" lon="4.66801">
        <ele>411</ele>
        <time>2018-10-28T10:10:16Z</time>
      </trkpt>
      <trkpt lat="45.89113" lon="4.66803">
        <ele>411</ele>
        <time>2018-10-28T10:10:17Z</time>
      </trkpt>
      <trkpt lat="45.89121" lon="4.66806">
        <ele>411</ele>
        <time>2018-10-28T10:10:20Z</time>
      </trkpt>
      <trkpt lat="45.89123" lon="4.66808">
        <ele>411</ele>
        <time>2018-10-28T10:10:21Z</time>
      </trkpt>
      <trkpt lat="45.89125" lon="4.6682">
        <ele>411</ele>
        <time>2018-10-28T10:10:26Z</time>
      </trkpt>
      <trkpt lat="45.89124" lon="4.66822">
        <ele>411</ele>
        <time>2018-10-28T10:10:27Z</time>
      </trkpt>
      <trkpt lat="45.89123" lon="4.66821">
        <ele>411</ele>
        <time>2018-10-28T10:14:31Z</time>
      </trkpt>
      <trkpt lat="45.89122" lon="4.66821">
        <ele>411</ele>
        <time>2018-10-28T10:14:32Z</time>
      </trkpt>
      <trkpt lat="45.89122" lon="4.66823">
        <ele>411</ele>
        <time>2018-10-28T10:18:45Z</time>
      </trkpt>
      <trkpt lat="45.89122" lon="4.66823">
        <ele>411</ele>
        <time>2018-10-28T10:18:46Z</time>
      </trkpt>
      <trkpt lat="45.89128" lon="4.66817">
        <ele>411</ele>
        <time>2018-10-28T10:22:30Z</time>
      </trkpt>
      <trkpt lat="45.8913" lon="4.66813">
        <ele>411</ele>
        <time>2018-10-28T10:22:31Z</time>
      </trkpt>
      <trkpt lat="45.89137" lon="4.66811">
        <ele>411</ele>
        <time>2018-10-28T10:22:33Z</time>
      </trkpt>
      <trkpt lat="45.89139" lon="4.66813">
        <ele>411</ele>
        <time>2018-10-28T10:22:34Z</time>
      </trkpt>
      <trkpt lat="45.89145" lon="4.66816">
        <ele>411</ele>
        <time>2018-10-28T10:22:36Z</time>
      </trkpt>
      <trkpt lat="45.89147" lon="4.66818">
        <ele>411</ele>
        <time>2018-10-28T10:22:37Z</time>
      </trkpt>
      <trkpt lat="45.89153" lon="4.66826">
        <ele>412</ele>
        <time>2018-10-28T10:22:40Z</time>
      </trkpt>
      <trkpt lat="45.89154" lon="4.6683">
        <ele>412</ele>
        <time>2018-10-28T10:22:41Z</time>
      </trkpt>
      <trkpt lat="45.89154" lon="4.66838">
        <ele>414</ele>
        <time>2018-10-28T10:22:43Z</time>
      </trkpt>
      <trkpt lat="45.89153" lon="4.66844">
        <ele>414</ele>
        <time>2018-10-28T10:22:44Z</time>
      </trkpt>
      <trkpt lat="45.89152" lon="4.66854">
        <ele>414</ele>
        <time>2018-10-28T10:22:46Z</time>
      </trkpt>
      <trkpt lat="45.89152" lon="4.66865">
        <ele>414</ele>
        <time>2018-10-28T10:22:47Z</time>
      </trkpt>
      <trkpt lat="45.89151" lon="4.66871">
        <ele>414</ele>
        <time>2018-10-28T10:22:48Z</time>
      </trkpt>
      <trkpt lat="45.8915" lon="4.66879">
        <ele>414</ele>
        <time>2018-10-28T10:22:49Z</time>
      </trkpt>
      <trkpt lat="45.89151" lon="4.66885">
        <ele>414</ele>
        <time>2018-10-28T10:22:50Z</time>
      </trkpt>
      <trkpt lat="45.89153" lon="4.66892">
        <ele>414</ele>
        <time>2018-10-28T10:22:51Z</time>
      </trkpt>
      <trkpt lat="45.89155" lon="4.66904">
        <ele>415</ele>
        <time>2018-10-28T10:22:53Z</time>
      </trkpt>
      <trkpt lat="45.89157" lon="4.6691">
        <ele>415</ele>
        <time>2018-10-28T10:22:54Z</time>
      </trkpt>
      <trkpt lat="45.89161" lon="4.66921">
        <ele>414</ele>
        <time>2018-10-28T10:22:56Z</time>
      </trkpt>
      <trkpt lat="45.89162" lon="4.66927">
        <ele>414</ele>
        <time>2018-10-28T10:22:57Z</time>
      </trkpt>
      <trkpt lat="45.89165" lon="4.66939">
        <ele>413</ele>
        <time>2018-10-28T10:22:59Z</time>
      </trkpt>
      <trkpt lat="45.89166" lon="4.66944">
        <ele>412</ele>
        <time>2018-10-28T10:23:00Z</time>
      </trkpt>
      <trkpt lat="45.89169" lon="4.66956">
        <ele>415</ele>
        <time>2018-10-28T10:23:02Z</time>
      </trkpt>
      <trkpt lat="45.89171" lon="4.66964">
        <ele>415</ele>
        <time>2018-10-28T10:23:03Z</time>
      </trkpt>
      <trkpt lat="45.89173" lon="4.66971">
        <ele>415</ele>
        <time>2018-10-28T10:23:04Z</time>
      </trkpt>
      <trkpt lat="45.89174" lon="4.66978">
        <ele>414</ele>
        <time>2018-10-28T10:23:05Z</time>
      </trkpt>
      <trkpt lat="45.89176" lon="4.66983">
        <ele>414</ele>
        <time>2018-10-28T10:23:06Z</time>
      </trkpt>
      <trkpt lat="45.89177" lon="4.6699">
        <ele>413</ele>
        <time>2018-10-28T10:23:07Z</time>
      </trkpt>
      <trkpt lat="45.8918" lon="4.67002">
        <ele>412</ele>
        <time>2018-10-28T10:23:09Z</time>
      </trkpt>
      <trkpt lat="45.89181" lon="4.67007">
        <ele>412</ele>
        <time>2018-10-28T10:23:10Z</time>
      </trkpt>
      <trkpt lat="45.89184" lon="4.67019">
        <ele>412</ele>
        <time>2018-10-28T10:23:12Z</time>
      </trkpt>
      <trkpt lat="45.89186" lon="4.67025">
        <ele>412</ele>
        <time>2018-10-28T10:23:13Z</time>
      </trkpt>
      <trkpt lat="45.89188" lon="4.67032">
        <ele>412</ele>
        <time>2018-10-28T10:23:14Z</time>
      </trkpt>
      <trkpt lat="45.8919" lon="4.67038">
        <ele>412</ele>
        <time>2018-10-28T10:23:15Z</time>
      </trkpt>
      <trkpt lat="45.89192" lon="4.67046">
        <ele>412</ele>
        <time>2018-10-28T10:23:16Z</time>
      </trkpt>
      <trkpt lat="45.89194" lon="4.67053">
        <ele>412</ele>
        <time>2018-10-28T10:23:17Z</time>
      </trkpt>
      <trkpt lat="45.89196" lon="4.6706">
        <ele>412</ele>
        <time>2018-10-28T10:23:18Z</time>
      </trkpt>
      <trkpt lat="45.89199" lon="4.67065">
        <ele>412</ele>
        <time>2018-10-28T10:23:19Z</time>
      </trkpt>
      <trkpt lat="45.89203" lon="4.67072">
        <ele>412</ele>
        <time>2018-10-28T10:23:20Z</time>
      </trkpt>
      <trkpt lat="45.89205" lon="4.67079">
        <ele>412</ele>
        <time>2018-10-28T10:23:21Z</time>
      </trkpt>
      <trkpt lat="45.89208" lon="4.67085">
        <ele>410</ele>
        <time>2018-10-28T10:23:22Z</time>
      </trkpt>
      <trkpt lat="45.89211" lon="4.67093">
        <ele>410</ele>
        <time>2018-10-28T10:23:23Z</time>
      </trkpt>
      <trkpt lat="45.89213" lon="4.67099">
        <ele>410</ele>
        <time>2018-10-28T10:23:24Z</time>
      </trkpt>
      <trkpt lat="45.89216" lon="4.67105">
        <ele>410</ele>
        <time>2018-10-28T10:23:25Z</time>
      </trkpt>
      <trkpt lat="45.89219" lon="4.6711">
        <ele>411</ele>
        <time>2018-10-28T10:23:26Z</time>
      </trkpt>
      <trkpt lat="45.89222" lon="4.67115">
        <ele>411</ele>
        <time>2018-10-28T10:23:27Z</time>
      </trkpt>
      <trkpt lat="45.89225" lon="4.67121">
        <ele>411</ele>
        <time>2018-10-28T10:23:28Z</time>
      </trkpt>
      <trkpt lat="45.89227" lon="4.67126">
        <ele>411</ele>
        <time>2018-10-28T10:23:29Z</time>
      </trkpt>
      <trkpt lat="45.8923" lon="4.67131">
        <ele>411</ele>
        <time>2018-10-28T10:23:30Z</time>
      </trkpt>
      <trkpt lat="45.89233" lon="4.67137">
        <ele>411</ele>
        <time>2018-10-28T10:23:31Z</time>
      </trkpt>
      <trkpt lat="45.89238" lon="4.67142">
        <ele>411</ele>
        <time>2018-10-28T10:23:32Z</time>
      </trkpt>
      <trkpt lat="45.89241" lon="4.67149">
        <ele>411</ele>
        <time>2018-10-28T10:23:33Z</time>
      </trkpt>
      <trkpt lat="45.89245" lon="4.67154">
        <ele>412</ele>
        <time>2018-10-28T10:23:34Z</time>
      </trkpt>
      <trkpt lat="45.89249" lon="4.67161">
        <ele>412</ele>
        <time>2018-10-28T10:23:35Z</time>
      </trkpt>
      <trkpt lat="45.89253" lon="4.67166">
        <ele>414</ele>
        <time>2018-10-28T10:23:36Z</time>
      </trkpt>
      <trkpt lat="45.89256" lon="4.67171">
        <ele>412</ele>
        <time>2018-10-28T10:23:37Z</time>
      </trkpt>
      <trkpt lat="45.8926" lon="4.67177">
        <ele>412</ele>
        <time>2018-10-28T10:23:38Z</time>
      </trkpt>
      <trkpt lat="45.89265" lon="4.67181">
        <ele>412</ele>
        <time>2018-10-28T10:23:39Z</time>
      </trkpt>
      <trkpt lat="45.8927" lon="4.67186">
        <ele>412</ele>
        <time>2018-10-28T10:23:40Z</time>
      </trkpt>
      <trkpt lat="45.89274" lon="4.67189">
        <ele>412</ele>
        <time>2018-10-28T10:23:41Z</time>
      </trkpt>
      <trkpt lat="45.89279" lon="4.67192">
        <ele>411</ele>
        <time>2018-10-28T10:23:42Z</time>
      </trkpt>
      <trkpt lat="45.89284" lon="4.67196">
        <ele>411</ele>
        <time>2018-10-28T10:23:43Z</time>
      </trkpt>
      <trkpt lat="45.89289" lon="4.67199">
        <ele>411</ele>
        <time>2018-10-28T10:23:44Z</time>
      </trkpt>
      <trkpt lat="45.89294" lon="4.672">
        <ele>411</ele>
        <time>2018-10-28T10:23:45Z</time>
      </trkpt>
      <trkpt lat="45.893" lon="4.67202">
        <ele>412</ele>
        <time>2018-10-28T10:23:46Z</time>
      </trkpt>
      <trkpt lat="45.89305" lon="4.67204">
        <ele>412</ele>
        <time>2018-10-28T10:23:47Z</time>
      </trkpt>
      <trkpt lat="45.89309" lon="4.67206">
        <ele>412</ele>
        <time>2018-10-28T10:23:48Z</time>
      </trkpt>
      <trkpt lat="45.89314" lon="4.67209">
        <ele>411</ele>
        <time>2018-10-28T10:23:49Z</time>
      </trkpt>
      <trkpt lat="45.89319" lon="4.67211">
        <ele>411</ele>
        <time>2018-10-28T10:23:50Z</time>
      </trkpt>
      <trkpt lat="45.89324" lon="4.67214">
        <ele>411</ele>
        <time>2018-10-28T10:23:51Z</time>
      </trkpt>
      <trkpt lat="45.89329" lon="4.67217">
        <ele>411</ele>
        <time>2018-10-28T10:23:52Z</time>
      </trkpt>
      <trkpt lat="45.89334" lon="4.6722">
        <ele>415</ele>
        <time>2018-10-28T10:23:53Z</time>
      </trkpt>
      <trkpt lat="45.8934" lon="4.67224">
        <ele>414</ele>
        <time>2018-10-28T10:23:54Z</time>
      </trkpt>
      <trkpt lat="45.89346" lon="4.67227">
        <ele>414</ele>
        <time>2018-10-28T10:23:55Z</time>
      </trkpt>
      <trkpt lat="45.8935" lon="4.67232">
        <ele>414</ele>
        <time>2018-10-28T10:23:56Z</time>
      </trkpt>
      <trkpt lat="45.89355" lon="4.67238">
        <ele>414</ele>
        <time>2018-10-28T10:23:57Z</time>
      </trkpt>
      <trkpt lat="45.89359" lon="4.67243">
        <ele>414</ele>
        <time>2018-10-28T10:23:58Z</time>
      </trkpt>
      <trkpt lat="45.89363" lon="4.6725">
        <ele>415</ele>
        <time>2018-10-28T10:23:59Z</time>
      </trkpt>
      <trkpt lat="45.89368" lon="4.67257">
        <ele>409</ele>
        <time>2018-10-28T10:24:00Z</time>
      </trkpt>
      <trkpt lat="45.89372" lon="4.67264">
        <ele>409</ele>
        <time>2018-10-28T10:24:01Z</time>
      </trkpt>
      <trkpt lat="45.89375" lon="4.67271">
        <ele>409</ele>
        <time>2018-10-28T10:24:02Z</time>
      </trkpt>
      <trkpt lat="45.89379" lon="4.67278">
        <ele>409</ele>
        <time>2018-10-28T10:24:03Z</time>
      </trkpt>
      <trkpt lat="45.89382" lon="4.67284">
        <ele>408</ele>
        <time>2018-10-28T10:24:04Z</time>
      </trkpt>
      <trkpt lat="45.89386" lon="4.6729">
        <ele>408</ele>
        <time>2018-10-28T10:24:05Z</time>
      </trkpt>
      <trkpt lat="45.8939" lon="4.67295">
        <ele>408</ele>
        <time>2018-10-28T10:24:06Z</time>
      </trkpt>
      <trkpt lat="45.89393" lon="4.67302">
        <ele>408</ele>
        <time>2018-10-28T10:24:07Z</time>
      </trkpt>
      <trkpt lat="45.89398" lon="4.67307">
        <ele>408</ele>
        <time>2018-10-28T10:24:08Z</time>
      </trkpt>
      <trkpt lat="45.89402" lon="4.67314">
        <ele>407</ele>
        <time>2018-10-28T10:24:09Z</time>
      </trkpt>
      <trkpt lat="45.89407" lon="4.6732">
        <ele>407</ele>
        <time>2018-10-28T10:24:10Z</time>
      </trkpt>
      <trkpt lat="45.89412" lon="4.67326">
        <ele>407</ele>
        <time>2018-10-28T10:24:11Z</time>
      </trkpt>
      <trkpt lat="45.89419" lon="4.67333">
        <ele>408</ele>
        <time>2018-10-28T10:24:12Z</time>
      </trkpt>
      <trkpt lat="45.89425" lon="4.67338">
        <ele>407</ele>
        <time>2018-10-28T10:24:13Z</time>
      </trkpt>
      <trkpt lat="45.8943" lon="4.67344">
        <ele>407</ele>
        <time>2018-10-28T10:24:14Z</time>
      </trkpt>
      <trkpt lat="45.89435" lon="4.6735">
        <ele>407</ele>
        <time>2018-10-28T10:24:15Z</time>
      </trkpt>
      <trkpt lat="45.89441" lon="4.67356">
        <ele>407</ele>
        <time>2018-10-28T10:24:16Z</time>
      </trkpt>
      <trkpt lat="45.89447" lon="4.67361">
        <ele>407</ele>
        <time>2018-10-28T10:24:17Z</time>
      </trkpt>
      <trkpt lat="45.89453" lon="4.67364">
        <ele>407</ele>
        <time>2018-10-28T10:24:18Z</time>
      </trkpt>
      <trkpt lat="45.89459" lon="4.67369">
        <ele>407</ele>
        <time>2018-10-28T10:24:19Z</time>
      </trkpt>
      <trkpt lat="45.89465" lon="4.67375">
        <ele>407</ele>
        <time>2018-10-28T10:24:20Z</time>
      </trkpt>
      <trkpt lat="45.89471" lon="4.6738">
        <ele>407</ele>
        <time>2018-10-28T10:24:21Z</time>
      </trkpt>
      <trkpt lat="45.89476" lon="4.67384">
        <ele>407</ele>
        <time>2018-10-28T10:24:22Z</time>
      </trkpt>
      <trkpt lat="45.89482" lon="4.67386">
        <ele>407</ele>
        <time>2018-10-28T10:24:23Z</time>
      </trkpt>
      <trkpt lat="45.89488" lon="4.67391">
        <ele>407</ele>
        <time>2018-10-28T10:24:24Z</time>
      </trkpt>
      <trkpt lat="45.89494" lon="4.67394">
        <ele>406</ele>
        <time>2018-10-28T10:24:25Z</time>
      </trkpt>
      <trkpt lat="45.895" lon="4.67398">
        <ele>406</ele>
        <time>2018-10-28T10:24:26Z</time>
      </trkpt>
      <trkpt lat="45.89505" lon="4.67403">
        <ele>408</ele>
        <time>2018-10-28T10:24:27Z</time>
      </trkpt>
      <trkpt lat="45.8951" lon="4.67406">
        <ele>408</ele>
        <time>2018-10-28T10:24:28Z</time>
      </trkpt>
      <trkpt lat="45.89516" lon="4.6741">
        <ele>408</ele>
        <time>2018-10-28T10:24:29Z</time>
      </trkpt>
      <trkpt lat="45.89521" lon="4.67416">
        <ele>409</ele>
        <time>2018-10-28T10:24:30Z</time>
      </trkpt>
      <trkpt lat="45.89527" lon="4.6742">
        <ele>402</ele>
        <time>2018-10-28T10:24:31Z</time>
      </trkpt>
      <trkpt lat="45.89533" lon="4.67423">
        <ele>402</ele>
        <time>2018-10-28T10:24:32Z</time>
      </trkpt>
      <trkpt lat="45.89539" lon="4.67425">
        <ele>402</ele>
        <time>2018-10-28T10:24:33Z</time>
      </trkpt>
      <trkpt lat="45.89546" lon="4.67427">
        <ele>402</ele>
        <time>2018-10-28T10:24:34Z</time>
      </trkpt>
      <trkpt lat="45.89553" lon="4.67432">
        <ele>402</ele>
        <time>2018-10-28T10:24:35Z</time>
      </trkpt>
      <trkpt lat="45.89561" lon="4.67435">
        <ele>403</ele>
        <time>2018-10-28T10:24:36Z</time>
      </trkpt>
      <trkpt lat="45.89564" lon="4.67438">
        <ele>403</ele>
        <time>2018-10-28T10:24:37Z</time>
      </trkpt>
      <trkpt lat="45.89569" lon="4.67442">
        <ele>403</ele>
        <time>2018-10-28T10:24:38Z</time>
      </trkpt>
      <trkpt lat="45.89578" lon="4.67443">
        <ele>403</ele>
        <time>2018-10-28T10:24:39Z</time>
      </trkpt>
      <trkpt lat="45.89585" lon="4.67447">
        <ele>404</ele>
        <time>2018-10-28T10:24:40Z</time>
      </trkpt>
      <trkpt lat="45.89591" lon="4.67449">
        <ele>404</ele>
        <time>2018-10-28T10:24:41Z</time>
      </trkpt>
      <trkpt lat="45.89597" lon="4.67451">
        <ele>404</ele>
        <time>2018-10-28T10:24:42Z</time>
      </trkpt>
      <trkpt lat="45.89601" lon="4.67453">
        <ele>403</ele>
        <time>2018-10-28T10:24:43Z</time>
      </trkpt>
      <trkpt lat="45.89607" lon="4.67455">
        <ele>403</ele>
        <time>2018-10-28T10:24:44Z</time>
      </trkpt>
      <trkpt lat="45.89613" lon="4.67457">
        <ele>403</ele>
        <time>2018-10-28T10:24:45Z</time>
      </trkpt>
      <trkpt lat="45.89618" lon="4.67457">
        <ele>403</ele>
        <time>2018-10-28T10:24:46Z</time>
      </trkpt>
      <trkpt lat="45.89624" lon="4.67459">
        <ele>403</ele>
        <time>2018-10-28T10:24:47Z</time>
      </trkpt>
      <trkpt lat="45.8963" lon="4.67461">
        <ele>403</ele>
        <time>2018-10-28T10:24:48Z</time>
      </trkpt>
      <trkpt lat="45.89636" lon="4.67464">
        <ele>403</ele>
        <time>2018-10-28T10:24:49Z</time>
      </trkpt>
      <trkpt lat="45.89643" lon="4.67467">
        <ele>403</ele>
        <time>2018-10-28T10:24:50Z</time>
      </trkpt>
      <trkpt lat="45.89648" lon="4.67468">
        <ele>403</ele>
        <time>2018-10-28T10:24:51Z</time>
      </trkpt>
      <trkpt lat="45.89655" lon="4.67471">
        <ele>403</ele>
        <time>2018-10-28T10:24:52Z</time>
      </trkpt>
      <trkpt lat="45.89662" lon="4.67473">
        <ele>402</ele>
        <time>2018-10-28T10:24:53Z</time>
      </trkpt>
      <trkpt lat="45.89668" lon="4.67474">
        <ele>403</ele>
        <time>2018-10-28T10:24:54Z</time>
      </trkpt>
      <trkpt lat="45.89675" lon="4.67477">
        <ele>402</ele>
        <time>2018-10-28T10:24:55Z</time>
      </trkpt>
      <trkpt lat="45.89681" lon="4.6748">
        <ele>402</ele>
        <time>2018-10-28T10:24:56Z</time>
      </trkpt>
      <trkpt lat="45.89688" lon="4.67482">
        <ele>402</ele>
        <time>2018-10-28T10:24:57Z</time>
      </trkpt>
      <trkpt lat="45.89696" lon="4.67485">
        <ele>402</ele>
        <time>2018-10-28T10:24:58Z</time>
      </trkpt>
      <trkpt lat="45.89704" lon="4.67486">
        <ele>402</ele>
        <time>2018-10-28T10:24:59Z</time>
      </trkpt>
      <trkpt lat="45.89711" lon="4.67488">
        <ele>402</ele>
        <time>2018-10-28T10:25:00Z</time>
      </trkpt>
      <trkpt lat="45.89719" lon="4.67491">
        <ele>402</ele>
        <time>2018-10-28T10:25:01Z</time>
      </trkpt>
      <trkpt lat="45.89726" lon="4.67493">
        <ele>402</ele>
        <time>2018-10-28T10:25:02Z</time>
      </trkpt>
      <trkpt lat="45.89733" lon="4.67495">
        <ele>401</ele>
        <time>2018-10-28T10:25:03Z</time>
      </trkpt>
      <trkpt lat="45.89739" lon="4.67495">
        <ele>401</ele>
        <time>2018-10-28T10:25:04Z</time>
      </trkpt>
      <trkpt lat="45.89745" lon="4.67496">
        <ele>400</ele>
        <time>2018-10-28T10:25:05Z</time>
      </trkpt>
      <trkpt lat="45.89752" lon="4.67495">
        <ele>399</ele>
        <time>2018-10-28T10:25:06Z</time>
      </trkpt>
      <trkpt lat="45.8976" lon="4.67492">
        <ele>399</ele>
        <time>2018-10-28T10:25:07Z</time>
      </trkpt>
      <trkpt lat="45.89767" lon="4.6749">
        <ele>399</ele>
        <time>2018-10-28T10:25:08Z</time>
      </trkpt>
      <trkpt lat="45.89773" lon="4.6749">
        <ele>399</ele>
        <time>2018-10-28T10:25:09Z</time>
      </trkpt>
      <trkpt lat="45.89779" lon="4.67487">
        <ele>399</ele>
        <time>2018-10-28T10:25:10Z</time>
      </trkpt>
      <trkpt lat="45.89784" lon="4.67485">
        <ele>399</ele>
        <time>2018-10-28T10:25:11Z</time>
      </trkpt>
      <trkpt lat="45.89791" lon="4.67484">
        <ele>399</ele>
        <time>2018-10-28T10:25:12Z</time>
      </trkpt>
      <trkpt lat="45.89797" lon="4.67481">
        <ele>399</ele>
        <time>2018-10-28T10:25:13Z</time>
      </trkpt>
      <trkpt lat="45.89803" lon="4.67477">
        <ele>399</ele>
        <time>2018-10-28T10:25:14Z</time>
      </trkpt>
      <trkpt lat="45.89807" lon="4.67472">
        <ele>399</ele>
        <time>2018-10-28T10:25:15Z</time>
      </trkpt>
      <trkpt lat="45.89811" lon="4.67462">
        <ele>399</ele>
        <time>2018-10-28T10:25:16Z</time>
      </trkpt>
      <trkpt lat="45.89814" lon="4.67454">
        <ele>399</ele>
        <time>2018-10-28T10:25:17Z</time>
      </trkpt>
      <trkpt lat="45.89816" lon="4.67443">
        <ele>399</ele>
        <time>2018-10-28T10:25:18Z</time>
      </trkpt>
      <trkpt lat="45.89818" lon="4.67434">
        <ele>399</ele>
        <time>2018-10-28T10:25:19Z</time>
      </trkpt>
      <trkpt lat="45.8982" lon="4.67425">
        <ele>398</ele>
        <time>2018-10-28T10:25:20Z</time>
      </trkpt>
      <trkpt lat="45.89822" lon="4.67415">
        <ele>400</ele>
        <time>2018-10-28T10:25:21Z</time>
      </trkpt>
      <trkpt lat="45.89825" lon="4.67406">
        <ele>401</ele>
        <time>2018-10-28T10:25:22Z</time>
      </trkpt>
      <trkpt lat="45.89827" lon="4.67398">
        <ele>402</ele>
        <time>2018-10-28T10:25:23Z</time>
      </trkpt>
      <trkpt lat="45.89831" lon="4.67389">
        <ele>403</ele>
        <time>2018-10-28T10:25:24Z</time>
      </trkpt>
      <trkpt lat="45.89835" lon="4.67381">
        <ele>398</ele>
        <time>2018-10-28T10:25:25Z</time>
      </trkpt>
      <trkpt lat="45.89839" lon="4.67372">
        <ele>399</ele>
        <time>2018-10-28T10:25:26Z</time>
      </trkpt>
      <trkpt lat="45.89845" lon="4.67366">
        <ele>399</ele>
        <time>2018-10-28T10:25:27Z</time>
      </trkpt>
      <trkpt lat="45.8985" lon="4.6736">
        <ele>399</ele>
        <time>2018-10-28T10:25:28Z</time>
      </trkpt>
      <trkpt lat="45.89857" lon="4.67355">
        <ele>399</ele>
        <time>2018-10-28T10:25:29Z</time>
      </trkpt>
      <trkpt lat="45.89863" lon="4.67351">
        <ele>399</ele>
        <time>2018-10-28T10:25:30Z</time>
      </trkpt>
      <trkpt lat="45.8987" lon="4.67348">
        <ele>399</ele>
        <time>2018-10-28T10:25:31Z</time>
      </trkpt>
      <trkpt lat="45.89878" lon="4.67347">
        <ele>398</ele>
        <time>2018-10-28T10:25:32Z</time>
      </trkpt>
      <trkpt lat="45.89885" lon="4.67347">
        <ele>398</ele>
        <time>2018-10-28T10:25:33Z</time>
      </trkpt>
      <trkpt lat="45.89893" lon="4.67347">
        <ele>398</ele>
        <time>2018-10-28T10:25:34Z</time>
      </trkpt>
      <trkpt lat="45.89899" lon="4.67349">
        <ele>398</ele>
        <time>2018-10-28T10:25:35Z</time>
      </trkpt>
      <trkpt lat="45.89907" lon="4.6735">
        <ele>398</ele>
        <time>2018-10-28T10:25:36Z</time>
      </trkpt>
      <trkpt lat="45.89915" lon="4.67351">
        <ele>398</ele>
        <time>2018-10-28T10:25:37Z</time>
      </trkpt>
      <trkpt lat="45.89922" lon="4.67353">
        <ele>397</ele>
        <time>2018-10-28T10:25:38Z</time>
      </trkpt>
      <trkpt lat="45.89928" lon="4.67355">
        <ele>396</ele>
        <time>2018-10-28T10:25:39Z</time>
      </trkpt>
      <trkpt lat="45.89935" lon="4.67357">
        <ele>395</ele>
        <time>2018-10-28T10:25:40Z</time>
      </trkpt>
      <trkpt lat="45.89943" lon="4.67361">
        <ele>395</ele>
        <time>2018-10-28T10:25:41Z</time>
      </trkpt>
      <trkpt lat="45.89951" lon="4.67363">
        <ele>395</ele>
        <time>2018-10-28T10:25:42Z</time>
      </trkpt>
      <trkpt lat="45.89959" lon="4.67365">
        <ele>395</ele>
        <time>2018-10-28T10:25:43Z</time>
      </trkpt>
      <trkpt lat="45.89967" lon="4.67368">
        <ele>394</ele>
        <time>2018-10-28T10:25:44Z</time>
      </trkpt>
      <trkpt lat="45.89974" lon="4.6737">
        <ele>394</ele>
        <time>2018-10-28T10:25:45Z</time>
      </trkpt>
      <trkpt lat="45.89982" lon="4.67373">
        <ele>394</ele>
        <time>2018-10-28T10:25:46Z</time>
      </trkpt>
      <trkpt lat="45.8999" lon="4.67379">
        <ele>393</ele>
        <time>2018-10-28T10:25:47Z</time>
      </trkpt>
      <trkpt lat="45.89997" lon="4.67383">
        <ele>392</ele>
        <time>2018-10-28T10:25:48Z</time>
      </trkpt>
      <trkpt lat="45.90005" lon="4.67389">
        <ele>394</ele>
        <time>2018-10-28T10:25:49Z</time>
      </trkpt>
      <trkpt lat="45.90012" lon="4.67396">
        <ele>393</ele>
        <time>2018-10-28T10:25:50Z</time>
      </trkpt>
      <trkpt lat="45.9002" lon="4.67402">
        <ele>393</ele>
        <time>2018-10-28T10:25:51Z</time>
      </trkpt>
      <trkpt lat="45.90027" lon="4.67407">
        <ele>394</ele>
        <time>2018-10-28T10:25:52Z</time>
      </trkpt>
      <trkpt lat="45.90034" lon="4.67414">
        <ele>394</ele>
        <time>2018-10-28T10:25:53Z</time>
      </trkpt>
      <trkpt lat="45.90042" lon="4.67421">
        <ele>385</ele>
        <time>2018-10-28T10:25:54Z</time>
      </trkpt>
      <trkpt lat="45.9005" lon="4.67428">
        <ele>385</ele>
        <time>2018-10-28T10:25:55Z</time>
      </trkpt>
      <trkpt lat="45.90057" lon="4.67436">
        <ele>385</ele>
        <time>2018-10-28T10:25:56Z</time>
      </trkpt>
      <trkpt lat="45.90064" lon="4.67443">
        <ele>385</ele>
        <time>2018-10-28T10:25:57Z</time>
      </trkpt>
      <trkpt lat="45.90073" lon="4.67449">
        <ele>385</ele>
        <time>2018-10-28T10:25:58Z</time>
      </trkpt>
      <trkpt lat="45.90079" lon="4.67457">
        <ele>383</ele>
        <time>2018-10-28T10:25:59Z</time>
      </trkpt>
      <trkpt lat="45.90086" lon="4.67465">
        <ele>387</ele>
        <time>2018-10-28T10:26:00Z</time>
      </trkpt>
      <trkpt lat="45.90092" lon="4.67474">
        <ele>386</ele>
        <time>2018-10-28T10:26:01Z</time>
      </trkpt>
      <trkpt lat="45.90099" lon="4.67482">
        <ele>385</ele>
        <time>2018-10-28T10:26:02Z</time>
      </trkpt>
      <trkpt lat="45.90105" lon="4.67491">
        <ele>385</ele>
        <time>2018-10-28T10:26:03Z</time>
      </trkpt>
      <trkpt lat="45.90111" lon="4.67499">
        <ele>385</ele>
        <time>2018-10-28T10:26:04Z</time>
      </trkpt>
      <trkpt lat="45.90116" lon="4.67508">
        <ele>378</ele>
        <time>2018-10-28T10:26:05Z</time>
      </trkpt>
      <trkpt lat="45.90121" lon="4.67518">
        <ele>378</ele>
        <time>2018-10-28T10:26:06Z</time>
      </trkpt>
      <trkpt lat="45.90126" lon="4.67525">
        <ele>378</ele>
        <time>2018-10-28T10:26:07Z</time>
      </trkpt>
      <trkpt lat="45.90131" lon="4.67535">
        <ele>377</ele>
        <time>2018-10-28T10:26:08Z</time>
      </trkpt>
      <trkpt lat="45.90138" lon="4.67546">
        <ele>377</ele>
        <time>2018-10-28T10:26:09Z</time>
      </trkpt>
      <trkpt lat="45.90142" lon="4.67556">
        <ele>377</ele>
        <time>2018-10-28T10:26:10Z</time>
      </trkpt>
      <trkpt lat="45.90149" lon="4.67564">
        <ele>376</ele>
        <time>2018-10-28T10:26:11Z</time>
      </trkpt>
      <trkpt lat="45.90155" lon="4.67574">
        <ele>376</ele>
        <time>2018-10-28T10:26:12Z</time>
      </trkpt>
      <trkpt lat="45.90161" lon="4.67581">
        <ele>376</ele>
        <time>2018-10-28T10:26:13Z</time>
      </trkpt>
      <trkpt lat="45.90167" lon="4.67588">
        <ele>376</ele>
        <time>2018-10-28T10:26:14Z</time>
      </trkpt>
      <trkpt lat="45.90173" lon="4.67593">
        <ele>376</ele>
        <time>2018-10-28T10:26:15Z</time>
      </trkpt>
      <trkpt lat="45.9018" lon="4.67599">
        <ele>376</ele>
        <time>2018-10-28T10:26:16Z</time>
      </trkpt>
      <trkpt lat="45.90186" lon="4.67606">
        <ele>376</ele>
        <time>2018-10-28T10:26:17Z</time>
      </trkpt>
      <trkpt lat="45.90192" lon="4.67613">
        <ele>376</ele>
        <time>2018-10-28T10:26:18Z</time>
      </trkpt>
      <trkpt lat="45.90199" lon="4.67622">
        <ele>376</ele>
        <time>2018-10-28T10:26:19Z</time>
      </trkpt>
      <trkpt lat="45.90205" lon="4.67629">
        <ele>376</ele>
        <time>2018-10-28T10:26:20Z</time>
      </trkpt>
      <trkpt lat="45.90211" lon="4.67636">
        <ele>376</ele>
        <time>2018-10-28T10:26:21Z</time>
      </trkpt>
      <trkpt lat="45.90216" lon="4.67643">
        <ele>375</ele>
        <time>2018-10-28T10:26:22Z</time>
      </trkpt>
      <trkpt lat="45.90223" lon="4.67651">
        <ele>375</ele>
        <time>2018-10-28T10:26:23Z</time>
      </trkpt>
      <trkpt lat="45.90229" lon="4.67658">
        <ele>375</ele>
        <time>2018-10-28T10:26:24Z</time>
      </trkpt>
      <trkpt lat="45.90236" lon="4.67662">
        <ele>375</ele>
        <time>2018-10-28T10:26:25Z</time>
      </trkpt>
      <trkpt lat="45.90242" lon="4.67668">
        <ele>373</ele>
        <time>2018-10-28T10:26:26Z</time>
      </trkpt>
      <trkpt lat="45.90247" lon="4.67673">
        <ele>373</ele>
        <time>2018-10-28T10:26:27Z</time>
      </trkpt>
      <trkpt lat="45.90252" lon="4.67676">
        <ele>374</ele>
        <time>2018-10-28T10:26:28Z</time>
      </trkpt>
      <trkpt lat="45.90257" lon="4.67679">
        <ele>374</ele>
        <time>2018-10-28T10:26:29Z</time>
      </trkpt>
      <trkpt lat="45.90263" lon="4.67682">
        <ele>374</ele>
        <time>2018-10-28T10:26:30Z</time>
      </trkpt>
      <trkpt lat="45.90269" lon="4.67685">
        <ele>374</ele>
        <time>2018-10-28T10:26:31Z</time>
      </trkpt>
      <trkpt lat="45.90275" lon="4.67687">
        <ele>374</ele>
        <time>2018-10-28T10:26:32Z</time>
      </trkpt>
      <trkpt lat="45.9028" lon="4.67689">
        <ele>374</ele>
        <time>2018-10-28T10:26:33Z</time>
      </trkpt>
      <trkpt lat="45.90286" lon="4.67692">
        <ele>374</ele>
        <time>2018-10-28T10:26:34Z</time>
      </trkpt>
      <trkpt lat="45.90292" lon="4.67694">
        <ele>374</ele>
        <time>2018-10-28T10:26:35Z</time>
      </trkpt>
      <trkpt lat="45.90297" lon="4.67696">
        <ele>374</ele>
        <time>2018-10-28T10:26:36Z</time>
      </trkpt>
      <trkpt lat="45.90303" lon="4.67698">
        <ele>374</ele>
        <time>2018-10-28T10:26:37Z</time>
      </trkpt>
      <trkpt lat="45.90309" lon="4.677">
        <ele>374</ele>
        <time>2018-10-28T10:26:38Z</time>
      </trkpt>
      <trkpt lat="45.90315" lon="4.67703">
        <ele>374</ele>
        <time>2018-10-28T10:26:39Z</time>
      </trkpt>
      <trkpt lat="45.90321" lon="4.67705">
        <ele>374</ele>
        <time>2018-10-28T10:26:40Z</time>
      </trkpt>
      <trkpt lat="45.90328" lon="4.67708">
        <ele>374</ele>
        <time>2018-10-28T10:26:41Z</time>
      </trkpt>
      <trkpt lat="45.90334" lon="4.6771">
        <ele>372</ele>
        <time>2018-10-28T10:26:42Z</time>
      </trkpt>
      <trkpt lat="45.90341" lon="4.67712">
        <ele>372</ele>
        <time>2018-10-28T10:26:43Z</time>
      </trkpt>
      <trkpt lat="45.90347" lon="4.67714">
        <ele>372</ele>
        <time>2018-10-28T10:26:44Z</time>
      </trkpt>
      <trkpt lat="45.90353" lon="4.67716">
        <ele>371</ele>
        <time>2018-10-28T10:26:45Z</time>
      </trkpt>
      <trkpt lat="45.9036" lon="4.67718">
        <ele>371</ele>
        <time>2018-10-28T10:26:46Z</time>
      </trkpt>
      <trkpt lat="45.90366" lon="4.6772">
        <ele>371</ele>
        <time>2018-10-28T10:26:47Z</time>
      </trkpt>
      <trkpt lat="45.90373" lon="4.67722">
        <ele>371</ele>
        <time>2018-10-28T10:26:48Z</time>
      </trkpt>
      <trkpt lat="45.9038" lon="4.67725">
        <ele>370</ele>
        <time>2018-10-28T10:26:49Z</time>
      </trkpt>
      <trkpt lat="45.90387" lon="4.67728">
        <ele>370</ele>
        <time>2018-10-28T10:26:50Z</time>
      </trkpt>
      <trkpt lat="45.90394" lon="4.67731">
        <ele>369</ele>
        <time>2018-10-28T10:26:51Z</time>
      </trkpt>
      <trkpt lat="45.90401" lon="4.67733">
        <ele>369</ele>
        <time>2018-10-28T10:26:52Z</time>
      </trkpt>
      <trkpt lat="45.90407" lon="4.67737">
        <ele>368</ele>
        <time>2018-10-28T10:26:53Z</time>
      </trkpt>
      <trkpt lat="45.90413" lon="4.67738">
        <ele>367</ele>
        <time>2018-10-28T10:26:54Z</time>
      </trkpt>
      <trkpt lat="45.90421" lon="4.67742">
        <ele>366</ele>
        <time>2018-10-28T10:26:55Z</time>
      </trkpt>
      <trkpt lat="45.90428" lon="4.67744">
        <ele>366</ele>
        <time>2018-10-28T10:26:56Z</time>
      </trkpt>
      <trkpt lat="45.90435" lon="4.67746">
        <ele>366</ele>
        <time>2018-10-28T10:26:57Z</time>
      </trkpt>
      <trkpt lat="45.90442" lon="4.67748">
        <ele>366</ele>
        <time>2018-10-28T10:26:58Z</time>
      </trkpt>
      <trkpt lat="45.90448" lon="4.6775">
        <ele>364</ele>
        <time>2018-10-28T10:26:59Z</time>
      </trkpt>
      <trkpt lat="45.90455" lon="4.67753">
        <ele>364</ele>
        <time>2018-10-28T10:27:00Z</time>
      </trkpt>
      <trkpt lat="45.90462" lon="4.67756">
        <ele>364</ele>
        <time>2018-10-28T10:27:01Z</time>
      </trkpt>
      <trkpt lat="45.90469" lon="4.67759">
        <ele>364</ele>
        <time>2018-10-28T10:27:02Z</time>
      </trkpt>
      <trkpt lat="45.90476" lon="4.67762">
        <ele>364</ele>
        <time>2018-10-28T10:27:03Z</time>
      </trkpt>
      <trkpt lat="45.90483" lon="4.67765">
        <ele>364</ele>
        <time>2018-10-28T10:27:04Z</time>
      </trkpt>
      <trkpt lat="45.90491" lon="4.67768">
        <ele>364</ele>
        <time>2018-10-28T10:27:05Z</time>
      </trkpt>
      <trkpt lat="45.90496" lon="4.67769">
        <ele>364</ele>
        <time>2018-10-28T10:27:06Z</time>
      </trkpt>
      <trkpt lat="45.90503" lon="4.67772">
        <ele>364</ele>
        <time>2018-10-28T10:27:07Z</time>
      </trkpt>
      <trkpt lat="45.90509" lon="4.67775">
        <ele>365</ele>
        <time>2018-10-28T10:27:08Z</time>
      </trkpt>
      <trkpt lat="45.90515" lon="4.67777">
        <ele>365</ele>
        <time>2018-10-28T10:27:09Z</time>
      </trkpt>
      <trkpt lat="45.90522" lon="4.67779">
        <ele>365</ele>
        <time>2018-10-28T10:27:10Z</time>
      </trkpt>
      <trkpt lat="45.90527" lon="4.67781">
        <ele>365</ele>
        <time>2018-10-28T10:27:11Z</time>
      </trkpt>
      <trkpt lat="45.90533" lon="4.67783">
        <ele>365</ele>
        <time>2018-10-28T10:27:12Z</time>
      </trkpt>
      <trkpt lat="45.9054" lon="4.67784">
        <ele>365</ele>
        <time>2018-10-28T10:27:13Z</time>
      </trkpt>
      <trkpt lat="45.90547" lon="4.67784">
        <ele>365</ele>
        <time>2018-10-28T10:27:14Z</time>
      </trkpt>
      <trkpt lat="45.90553" lon="4.67786">
        <ele>365</ele>
        <time>2018-10-28T10:27:15Z</time>
      </trkpt>
      <trkpt lat="45.90558" lon="4.67786">
        <ele>365</ele>
        <time>2018-10-28T10:27:16Z</time>
      </trkpt>
      <trkpt lat="45.90563" lon="4.67788">
        <ele>365</ele>
        <time>2018-10-28T10:27:17Z</time>
      </trkpt>
      <trkpt lat="45.90569" lon="4.67789">
        <ele>365</ele>
        <time>2018-10-28T10:27:18Z</time>
      </trkpt>
      <trkpt lat="45.90574" lon="4.67791">
        <ele>365</ele>
        <time>2018-10-28T10:27:19Z</time>
      </trkpt>
      <trkpt lat="45.9058" lon="4.67791">
        <ele>366</ele>
        <time>2018-10-28T10:27:20Z</time>
      </trkpt>
      <trkpt lat="45.90585" lon="4.67792">
        <ele>367</ele>
        <time>2018-10-28T10:27:21Z</time>
      </trkpt>
      <trkpt lat="45.9059" lon="4.67792">
        <ele>367</ele>
        <time>2018-10-28T10:27:22Z</time>
      </trkpt>
      <trkpt lat="45.90595" lon="4.67793">
        <ele>367</ele>
        <time>2018-10-28T10:27:23Z</time>
      </trkpt>
      <trkpt lat="45.906" lon="4.67793">
        <ele>367</ele>
        <time>2018-10-28T10:27:24Z</time>
      </trkpt>
      <trkpt lat="45.90605" lon="4.67794">
        <ele>367</ele>
        <time>2018-10-28T10:27:25Z</time>
      </trkpt>
      <trkpt lat="45.9061" lon="4.67794">
        <ele>367</ele>
        <time>2018-10-28T10:27:26Z</time>
      </trkpt>
      <trkpt lat="45.90619" lon="4.67795">
        <ele>367</ele>
        <time>2018-10-28T10:27:28Z</time>
      </trkpt>
      <trkpt lat="45.90625" lon="4.67794">
        <ele>367</ele>
        <time>2018-10-28T10:27:29Z</time>
      </trkpt>
      <trkpt lat="45.90629" lon="4.67794">
        <ele>367</ele>
        <time>2018-10-28T10:27:30Z</time>
      </trkpt>
      <trkpt lat="45.90634" lon="4.67794">
        <ele>367</ele>
        <time>2018-10-28T10:27:31Z</time>
      </trkpt>
      <trkpt lat="45.90643" lon="4.67794">
        <ele>367</ele>
        <time>2018-10-28T10:27:33Z</time>
      </trkpt>
      <trkpt lat="45.90648" lon="4.67795">
        <ele>367</ele>
        <time>2018-10-28T10:27:34Z</time>
      </trkpt>
      <trkpt lat="45.90653" lon="4.67795">
        <ele>368</ele>
        <time>2018-10-28T10:27:35Z</time>
      </trkpt>
      <trkpt lat="45.90657" lon="4.67795">
        <ele>368</ele>
        <time>2018-10-28T10:27:36Z</time>
      </trkpt>
      <trkpt lat="45.90662" lon="4.67796">
        <ele>368</ele>
        <time>2018-10-28T10:27:37Z</time>
      </trkpt>
      <trkpt lat="45.90666" lon="4.67797">
        <ele>368</ele>
        <time>2018-10-28T10:27:38Z</time>
      </trkpt>
      <trkpt lat="45.90673" lon="4.67798">
        <ele>368</ele>
        <time>2018-10-28T10:27:40Z</time>
      </trkpt>
      <trkpt lat="45.90677" lon="4.67799">
        <ele>368</ele>
        <time>2018-10-28T10:27:41Z</time>
      </trkpt>
      <trkpt lat="45.90684" lon="4.67801">
        <ele>368</ele>
        <time>2018-10-28T10:27:43Z</time>
      </trkpt>
      <trkpt lat="45.90687" lon="4.67802">
        <ele>368</ele>
        <time>2018-10-28T10:27:44Z</time>
      </trkpt>
      <trkpt lat="45.90695" lon="4.67804">
        <ele>368</ele>
        <time>2018-10-28T10:27:47Z</time>
      </trkpt>
      <trkpt lat="45.90702" lon="4.67806">
        <ele>368</ele>
        <time>2018-10-28T10:27:48Z</time>
      </trkpt>
      <trkpt lat="45.90709" lon="4.6781">
        <ele>368</ele>
        <time>2018-10-28T10:27:50Z</time>
      </trkpt>
      <trkpt lat="45.90713" lon="4.67811">
        <ele>368</ele>
        <time>2018-10-28T10:27:51Z</time>
      </trkpt>
      <trkpt lat="45.9072" lon="4.67813">
        <ele>369</ele>
        <time>2018-10-28T10:27:53Z</time>
      </trkpt>
      <trkpt lat="45.90724" lon="4.67815">
        <ele>369</ele>
        <time>2018-10-28T10:27:54Z</time>
      </trkpt>
      <trkpt lat="45.90731" lon="4.67818">
        <ele>369</ele>
        <time>2018-10-28T10:27:56Z</time>
      </trkpt>
      <trkpt lat="45.90735" lon="4.6782">
        <ele>369</ele>
        <time>2018-10-28T10:27:57Z</time>
      </trkpt>
      <trkpt lat="45.90742" lon="4.67823">
        <ele>370</ele>
        <time>2018-10-28T10:27:59Z</time>
      </trkpt>
      <trkpt lat="45.90746" lon="4.67825">
        <ele>370</ele>
        <time>2018-10-28T10:28:00Z</time>
      </trkpt>
      <trkpt lat="45.90754" lon="4.67828">
        <ele>370</ele>
        <time>2018-10-28T10:28:02Z</time>
      </trkpt>
      <trkpt lat="45.90759" lon="4.6783">
        <ele>370</ele>
        <time>2018-10-28T10:28:03Z</time>
      </trkpt>
      <trkpt lat="45.90767" lon="4.67833">
        <ele>369</ele>
        <time>2018-10-28T10:28:05Z</time>
      </trkpt>
      <trkpt lat="45.9077" lon="4.67834">
        <ele>371</ele>
        <time>2018-10-28T10:28:06Z</time>
      </trkpt>
      <trkpt lat="45.90775" lon="4.67836">
        <ele>371</ele>
        <time>2018-10-28T10:28:07Z</time>
      </trkpt>
      <trkpt lat="45.90779" lon="4.67838">
        <ele>371</ele>
        <time>2018-10-28T10:28:08Z</time>
      </trkpt>
      <trkpt lat="45.90786" lon="4.67841">
        <ele>371</ele>
        <time>2018-10-28T10:28:10Z</time>
      </trkpt>
      <trkpt lat="45.9079" lon="4.67842">
        <ele>371</ele>
        <time>2018-10-28T10:28:11Z</time>
      </trkpt>
      <trkpt lat="45.90798" lon="4.67845">
        <ele>371</ele>
        <time>2018-10-28T10:28:13Z</time>
      </trkpt>
      <trkpt lat="45.90802" lon="4.67847">
        <ele>371</ele>
        <time>2018-10-28T10:28:14Z</time>
      </trkpt>
      <trkpt lat="45.90811" lon="4.6785">
        <ele>371</ele>
        <time>2018-10-28T10:28:16Z</time>
      </trkpt>
      <trkpt lat="45.90815" lon="4.6785">
        <ele>371</ele>
        <time>2018-10-28T10:28:17Z</time>
      </trkpt>
      <trkpt lat="45.90819" lon="4.67852">
        <ele>371</ele>
        <time>2018-10-28T10:28:18Z</time>
      </trkpt>
      <trkpt lat="45.90824" lon="4.67853">
        <ele>371</ele>
        <time>2018-10-28T10:28:19Z</time>
      </trkpt>
      <trkpt lat="45.9083" lon="4.67854">
        <ele>371</ele>
        <time>2018-10-28T10:28:20Z</time>
      </trkpt>
      <trkpt lat="45.90835" lon="4.67856">
        <ele>370</ele>
        <time>2018-10-28T10:28:21Z</time>
      </trkpt>
      <trkpt lat="45.90843" lon="4.67858">
        <ele>370</ele>
        <time>2018-10-28T10:28:23Z</time>
      </trkpt>
      <trkpt lat="45.90847" lon="4.6786">
        <ele>370</ele>
        <time>2018-10-28T10:28:24Z</time>
      </trkpt>
      <trkpt lat="45.90851" lon="4.67862">
        <ele>370</ele>
        <time>2018-10-28T10:28:25Z</time>
      </trkpt>
      <trkpt lat="45.90856" lon="4.67863">
        <ele>370</ele>
        <time>2018-10-28T10:28:26Z</time>
      </trkpt>
      <trkpt lat="45.90861" lon="4.67865">
        <ele>370</ele>
        <time>2018-10-28T10:28:27Z</time>
      </trkpt>
      <trkpt lat="45.90865" lon="4.67867">
        <ele>370</ele>
        <time>2018-10-28T10:28:28Z</time>
      </trkpt>
      <trkpt lat="45.90871" lon="4.67869">
        <ele>370</ele>
        <time>2018-10-28T10:28:29Z</time>
      </trkpt>
      <trkpt lat="45.90875" lon="4.67871">
        <ele>370</ele>
        <time>2018-10-28T10:28:30Z</time>
      </trkpt>
      <trkpt lat="45.90884" lon="4.67875">
        <ele>370</ele>
        <time>2018-10-28T10:28:32Z</time>
      </trkpt>
      <trkpt lat="45.90887" lon="4.67876">
        <ele>370</ele>
        <time>2018-10-28T10:28:33Z</time>
      </trkpt>
      <trkpt lat="45.90892" lon="4.67878">
        <ele>370</ele>
        <time>2018-10-28T10:28:34Z</time>
      </trkpt>
      <trkpt lat="45.90896" lon="4.67879">
        <ele>370</ele>
        <time>2018-10-28T10:28:35Z</time>
      </trkpt>
      <trkpt lat="45.90905" lon="4.67882">
        <ele>370</ele>
        <time>2018-10-28T10:28:37Z</time>
      </trkpt>
      <trkpt lat="45.90909" lon="4.67883">
        <ele>370</ele>
        <time>2018-10-28T10:28:38Z</time>
      </trkpt>
      <trkpt lat="45.90913" lon="4.67885">
        <ele>370</ele>
        <time>2018-10-28T10:28:39Z</time>
      </trkpt>
      <trkpt lat="45.90917" lon="4.67887">
        <ele>370</ele>
        <time>2018-10-28T10:28:40Z</time>
      </trkpt>
      <trkpt lat="45.90926" lon="4.6789">
        <ele>370</ele>
        <time>2018-10-28T10:28:42Z</time>
      </trkpt>
      <trkpt lat="45.9093" lon="4.67892">
        <ele>370</ele>
        <time>2018-10-28T10:28:43Z</time>
      </trkpt>
      <trkpt lat="45.90937" lon="4.67896">
        <ele>370</ele>
        <time>2018-10-28T10:28:45Z</time>
      </trkpt>
      <trkpt lat="45.9094" lon="4.67897">
        <ele>370</ele>
        <time>2018-10-28T10:28:46Z</time>
      </trkpt>
      <trkpt lat="45.90945" lon="4.67899">
        <ele>370</ele>
        <time>2018-10-28T10:28:47Z</time>
      </trkpt>
      <trkpt lat="45.90949" lon="4.67901">
        <ele>370</ele>
        <time>2018-10-28T10:28:48Z</time>
      </trkpt>
      <trkpt lat="45.90957" lon="4.67903">
        <ele>370</ele>
        <time>2018-10-28T10:28:50Z</time>
      </trkpt>
      <trkpt lat="45.90961" lon="4.67904">
        <ele>370</ele>
        <time>2018-10-28T10:28:51Z</time>
      </trkpt>
      <trkpt lat="45.90969" lon="4.67907">
        <ele>370</ele>
        <time>2018-10-28T10:28:53Z</time>
      </trkpt>
      <trkpt lat="45.90973" lon="4.67909">
        <ele>370</ele>
        <time>2018-10-28T10:28:54Z</time>
      </trkpt>
      <trkpt lat="45.90981" lon="4.67912">
        <ele>371</ele>
        <time>2018-10-28T10:28:56Z</time>
      </trkpt>
      <trkpt lat="45.90986" lon="4.67914">
        <ele>371</ele>
        <time>2018-10-28T10:28:57Z</time>
      </trkpt>
      <trkpt lat="45.90994" lon="4.67917">
        <ele>372</ele>
        <time>2018-10-28T10:28:59Z</time>
      </trkpt>
      <trkpt lat="45.90998" lon="4.67919">
        <ele>372</ele>
        <time>2018-10-28T10:29:00Z</time>
      </trkpt>
      <trkpt lat="45.91005" lon="4.67923">
        <ele>373</ele>
        <time>2018-10-28T10:29:02Z</time>
      </trkpt>
      <trkpt lat="45.91009" lon="4.67925">
        <ele>373</ele>
        <time>2018-10-28T10:29:03Z</time>
      </trkpt>
      <trkpt lat="45.91017" lon="4.6793">
        <ele>373</ele>
        <time>2018-10-28T10:29:05Z</time>
      </trkpt>
      <trkpt lat="45.91021" lon="4.67932">
        <ele>374</ele>
        <time>2018-10-28T10:29:06Z</time>
      </trkpt>
      <trkpt lat="45.91028" lon="4.67937">
        <ele>374</ele>
        <time>2018-10-28T10:29:08Z</time>
      </trkpt>
      <trkpt lat="45.91032" lon="4.67939">
        <ele>374</ele>
        <time>2018-10-28T10:29:09Z</time>
      </trkpt>
      <trkpt lat="45.9104" lon="4.67943">
        <ele>374</ele>
        <time>2018-10-28T10:29:11Z</time>
      </trkpt>
      <trkpt lat="45.91044" lon="4.67945">
        <ele>374</ele>
        <time>2018-10-28T10:29:12Z</time>
      </trkpt>
      <trkpt lat="45.91051" lon="4.67948">
        <ele>375</ele>
        <time>2018-10-28T10:29:14Z</time>
      </trkpt>
      <trkpt lat="45.91055" lon="4.67949">
        <ele>375</ele>
        <time>2018-10-28T10:29:15Z</time>
      </trkpt>
      <trkpt lat="45.91063" lon="4.67953">
        <ele>375</ele>
        <time>2018-10-28T10:29:18Z</time>
      </trkpt>
      <trkpt lat="45.91065" lon="4.67954">
        <ele>375</ele>
        <time>2018-10-28T10:29:19Z</time>
      </trkpt>
      <trkpt lat="45.91072" lon="4.67956">
        <ele>375</ele>
        <time>2018-10-28T10:29:21Z</time>
      </trkpt>
      <trkpt lat="45.91075" lon="4.67956">
        <ele>375</ele>
        <time>2018-10-28T10:29:22Z</time>
      </trkpt>
      <trkpt lat="45.91081" lon="4.67958">
        <ele>375</ele>
        <time>2018-10-28T10:29:24Z</time>
      </trkpt>
      <trkpt lat="45.91085" lon="4.67958">
        <ele>376</ele>
        <time>2018-10-28T10:29:25Z</time>
      </trkpt>
      <trkpt lat="45.91092" lon="4.67959">
        <ele>377</ele>
        <time>2018-10-28T10:29:27Z</time>
      </trkpt>
      <trkpt lat="45.91095" lon="4.6796">
        <ele>377</ele>
        <time>2018-10-28T10:29:28Z</time>
      </trkpt>
      <trkpt lat="45.91102" lon="4.67962">
        <ele>377</ele>
        <time>2018-10-28T10:29:30Z</time>
      </trkpt>
      <trkpt lat="45.91106" lon="4.67963">
        <ele>377</ele>
        <time>2018-10-28T10:29:31Z</time>
      </trkpt>
      <trkpt lat="45.91113" lon="4.67964">
        <ele>377</ele>
        <time>2018-10-28T10:29:33Z</time>
      </trkpt>
      <trkpt lat="45.91117" lon="4.67965">
        <ele>377</ele>
        <time>2018-10-28T10:29:34Z</time>
      </trkpt>
      <trkpt lat="45.91123" lon="4.67967">
        <ele>377</ele>
        <time>2018-10-28T10:29:36Z</time>
      </trkpt>
      <trkpt lat="45.91126" lon="4.67968">
        <ele>377</ele>
        <time>2018-10-28T10:29:37Z</time>
      </trkpt>
      <trkpt lat="45.91135" lon="4.67972">
        <ele>377</ele>
        <time>2018-10-28T10:29:40Z</time>
      </trkpt>
      <trkpt lat="45.91138" lon="4.67973">
        <ele>377</ele>
        <time>2018-10-28T10:29:41Z</time>
      </trkpt>
      <trkpt lat="45.91144" lon="4.67975">
        <ele>378</ele>
        <time>2018-10-28T10:29:43Z</time>
      </trkpt>
      <trkpt lat="45.91147" lon="4.67976">
        <ele>378</ele>
        <time>2018-10-28T10:29:44Z</time>
      </trkpt>
      <trkpt lat="45.91153" lon="4.67979">
        <ele>378</ele>
        <time>2018-10-28T10:29:46Z</time>
      </trkpt>
      <trkpt lat="45.91156" lon="4.67981">
        <ele>378</ele>
        <time>2018-10-28T10:29:47Z</time>
      </trkpt>
      <trkpt lat="45.91163" lon="4.67984">
        <ele>379</ele>
        <time>2018-10-28T10:29:49Z</time>
      </trkpt>
      <trkpt lat="45.91166" lon="4.67986">
        <ele>379</ele>
        <time>2018-10-28T10:29:50Z</time>
      </trkpt>
      <trkpt lat="45.91172" lon="4.6799">
        <ele>380</ele>
        <time>2018-10-28T10:29:52Z</time>
      </trkpt>
      <trkpt lat="45.91175" lon="4.67992">
        <ele>380</ele>
        <time>2018-10-28T10:29:53Z</time>
      </trkpt>
      <trkpt lat="45.91181" lon="4.67995">
        <ele>380</ele>
        <time>2018-10-28T10:29:55Z</time>
      </trkpt>
      <trkpt lat="45.91183" lon="4.67997">
        <ele>380</ele>
        <time>2018-10-28T10:29:56Z</time>
      </trkpt>
      <trkpt lat="45.91189" lon="4.68">
        <ele>380</ele>
        <time>2018-10-28T10:29:58Z</time>
      </trkpt>
      <trkpt lat="45.91192" lon="4.68001">
        <ele>383</ele>
        <time>2018-10-28T10:29:59Z</time>
      </trkpt>
      <trkpt lat="45.91198" lon="4.68005">
        <ele>383</ele>
        <time>2018-10-28T10:30:01Z</time>
      </trkpt>
      <trkpt lat="45.91201" lon="4.68006">
        <ele>383</ele>
        <time>2018-10-28T10:30:02Z</time>
      </trkpt>
      <trkpt lat="45.91209" lon="4.6801">
        <ele>383</ele>
        <time>2018-10-28T10:30:05Z</time>
      </trkpt>
      <trkpt lat="45.91212" lon="4.68012">
        <ele>383</ele>
        <time>2018-10-28T10:30:06Z</time>
      </trkpt>
      <trkpt lat="45.91218" lon="4.68015">
        <ele>383</ele>
        <time>2018-10-28T10:30:08Z</time>
      </trkpt>
      <trkpt lat="45.91221" lon="4.68016">
        <ele>384</ele>
        <time>2018-10-28T10:30:09Z</time>
      </trkpt>
      <trkpt lat="45.91227" lon="4.68019">
        <ele>384</ele>
        <time>2018-10-28T10:30:11Z</time>
      </trkpt>
      <trkpt lat="45.9123" lon="4.6802">
        <ele>384</ele>
        <time>2018-10-28T10:30:12Z</time>
      </trkpt>
      <trkpt lat="45.91238" lon="4.68025">
        <ele>384</ele>
        <time>2018-10-28T10:30:15Z</time>
      </trkpt>
      <trkpt lat="45.91241" lon="4.68027">
        <ele>384</ele>
        <time>2018-10-28T10:30:16Z</time>
      </trkpt>
      <trkpt lat="45.91247" lon="4.68031">
        <ele>384</ele>
        <time>2018-10-28T10:30:18Z</time>
      </trkpt>
      <trkpt lat="45.91249" lon="4.68032">
        <ele>384</ele>
        <time>2018-10-28T10:30:19Z</time>
      </trkpt>
      <trkpt lat="45.91255" lon="4.68036">
        <ele>385</ele>
        <time>2018-10-28T10:30:21Z</time>
      </trkpt>
      <trkpt lat="45.91259" lon="4.68037">
        <ele>385</ele>
        <time>2018-10-28T10:30:22Z</time>
      </trkpt>
      <trkpt lat="45.91265" lon="4.6804">
        <ele>385</ele>
        <time>2018-10-28T10:30:24Z</time>
      </trkpt>
      <trkpt lat="45.91268" lon="4.68041">
        <ele>385</ele>
        <time>2018-10-28T10:30:25Z</time>
      </trkpt>
      <trkpt lat="45.91274" lon="4.68044">
        <ele>385</ele>
        <time>2018-10-28T10:30:27Z</time>
      </trkpt>
      <trkpt lat="45.91277" lon="4.68046">
        <ele>385</ele>
        <time>2018-10-28T10:30:28Z</time>
      </trkpt>
      <trkpt lat="45.91283" lon="4.68049">
        <ele>385</ele>
        <time>2018-10-28T10:30:30Z</time>
      </trkpt>
      <trkpt lat="45.91289" lon="4.68053">
        <ele>385</ele>
        <time>2018-10-28T10:30:31Z</time>
      </trkpt>
      <trkpt lat="45.91296" lon="4.68054">
        <ele>385</ele>
        <time>2018-10-28T10:30:33Z</time>
      </trkpt>
      <trkpt lat="45.91298" lon="4.68055">
        <ele>385</ele>
        <time>2018-10-28T10:30:34Z</time>
      </trkpt>
      <trkpt lat="45.91304" lon="4.68057">
        <ele>385</ele>
        <time>2018-10-28T10:30:36Z</time>
      </trkpt>
      <trkpt lat="45.91307" lon="4.68058">
        <ele>385</ele>
        <time>2018-10-28T10:30:37Z</time>
      </trkpt>
      <trkpt lat="45.91313" lon="4.68061">
        <ele>385</ele>
        <time>2018-10-28T10:30:39Z</time>
      </trkpt>
      <trkpt lat="45.91317" lon="4.68063">
        <ele>385</ele>
        <time>2018-10-28T10:30:40Z</time>
      </trkpt>
      <trkpt lat="45.91322" lon="4.68066">
        <ele>385</ele>
        <time>2018-10-28T10:30:42Z</time>
      </trkpt>
      <trkpt lat="45.91328" lon="4.68069">
        <ele>385</ele>
        <time>2018-10-28T10:30:43Z</time>
      </trkpt>
      <trkpt lat="45.91336" lon="4.68074">
        <ele>385</ele>
        <time>2018-10-28T10:30:45Z</time>
      </trkpt>
      <trkpt lat="45.9134" lon="4.68076">
        <ele>385</ele>
        <time>2018-10-28T10:30:46Z</time>
      </trkpt>
      <trkpt lat="45.91348" lon="4.6808">
        <ele>385</ele>
        <time>2018-10-28T10:30:48Z</time>
      </trkpt>
      <trkpt lat="45.91352" lon="4.68082">
        <ele>385</ele>
        <time>2018-10-28T10:30:49Z</time>
      </trkpt>
      <trkpt lat="45.9136" lon="4.68085">
        <ele>386</ele>
        <time>2018-10-28T10:30:51Z</time>
      </trkpt>
      <trkpt lat="45.91364" lon="4.68086">
        <ele>386</ele>
        <time>2018-10-28T10:30:52Z</time>
      </trkpt>
      <trkpt lat="45.91372" lon="4.68089">
        <ele>386</ele>
        <time>2018-10-28T10:30:54Z</time>
      </trkpt>
      <trkpt lat="45.91376" lon="4.68089">
        <ele>386</ele>
        <time>2018-10-28T10:30:55Z</time>
      </trkpt>
      <trkpt lat="45.91384" lon="4.6809">
        <ele>386</ele>
        <time>2018-10-28T10:30:57Z</time>
      </trkpt>
      <trkpt lat="45.91389" lon="4.6809">
        <ele>386</ele>
        <time>2018-10-28T10:30:58Z</time>
      </trkpt>
      <trkpt lat="45.91393" lon="4.68089">
        <ele>386</ele>
        <time>2018-10-28T10:30:59Z</time>
      </trkpt>
      <trkpt lat="45.91398" lon="4.68089">
        <ele>386</ele>
        <time>2018-10-28T10:31:00Z</time>
      </trkpt>
      <trkpt lat="45.91402" lon="4.68088">
        <ele>386</ele>
        <time>2018-10-28T10:31:01Z</time>
      </trkpt>
      <trkpt lat="45.91407" lon="4.68087">
        <ele>386</ele>
        <time>2018-10-28T10:31:02Z</time>
      </trkpt>
      <trkpt lat="45.91416" lon="4.68085">
        <ele>386</ele>
        <time>2018-10-28T10:31:04Z</time>
      </trkpt>
      <trkpt lat="45.9142" lon="4.68084">
        <ele>386</ele>
        <time>2018-10-28T10:31:05Z</time>
      </trkpt>
      <trkpt lat="45.91429" lon="4.68083">
        <ele>385</ele>
        <time>2018-10-28T10:31:07Z</time>
      </trkpt>
      <trkpt lat="45.91433" lon="4.68083">
        <ele>385</ele>
        <time>2018-10-28T10:31:08Z</time>
      </trkpt>
      <trkpt lat="45.91442" lon="4.68084">
        <ele>385</ele>
        <time>2018-10-28T10:31:10Z</time>
      </trkpt>
      <trkpt lat="45.91446" lon="4.68085">
        <ele>384</ele>
        <time>2018-10-28T10:31:11Z</time>
      </trkpt>
      <trkpt lat="45.9145" lon="4.68087">
        <ele>384</ele>
        <time>2018-10-28T10:31:12Z</time>
      </trkpt>
      <trkpt lat="45.91455" lon="4.68091">
        <ele>384</ele>
        <time>2018-10-28T10:31:13Z</time>
      </trkpt>
      <trkpt lat="45.91459" lon="4.68094">
        <ele>384</ele>
        <time>2018-10-28T10:31:14Z</time>
      </trkpt>
      <trkpt lat="45.91464" lon="4.68096">
        <ele>384</ele>
        <time>2018-10-28T10:31:15Z</time>
      </trkpt>
      <trkpt lat="45.91469" lon="4.68099">
        <ele>384</ele>
        <time>2018-10-28T10:31:16Z</time>
      </trkpt>
      <trkpt lat="45.91474" lon="4.68102">
        <ele>384</ele>
        <time>2018-10-28T10:31:17Z</time>
      </trkpt>
      <trkpt lat="45.91479" lon="4.68106">
        <ele>383</ele>
        <time>2018-10-28T10:31:18Z</time>
      </trkpt>
      <trkpt lat="45.91484" lon="4.68109">
        <ele>383</ele>
        <time>2018-10-28T10:31:19Z</time>
      </trkpt>
      <trkpt lat="45.9149" lon="4.68112">
        <ele>383</ele>
        <time>2018-10-28T10:31:20Z</time>
      </trkpt>
      <trkpt lat="45.91493" lon="4.68117">
        <ele>383</ele>
        <time>2018-10-28T10:31:21Z</time>
      </trkpt>
      <trkpt lat="45.91498" lon="4.68121">
        <ele>383</ele>
        <time>2018-10-28T10:31:22Z</time>
      </trkpt>
      <trkpt lat="45.91503" lon="4.68127">
        <ele>380</ele>
        <time>2018-10-28T10:31:23Z</time>
      </trkpt>
      <trkpt lat="45.9151" lon="4.6813">
        <ele>380</ele>
        <time>2018-10-28T10:31:24Z</time>
      </trkpt>
      <trkpt lat="45.91515" lon="4.68133">
        <ele>380</ele>
        <time>2018-10-28T10:31:25Z</time>
      </trkpt>
      <trkpt lat="45.91521" lon="4.68136">
        <ele>380</ele>
        <time>2018-10-28T10:31:26Z</time>
      </trkpt>
      <trkpt lat="45.91527" lon="4.68139">
        <ele>379</ele>
        <time>2018-10-28T10:31:27Z</time>
      </trkpt>
      <trkpt lat="45.91533" lon="4.68141">
        <ele>379</ele>
        <time>2018-10-28T10:31:28Z</time>
      </trkpt>
      <trkpt lat="45.9154" lon="4.68145">
        <ele>379</ele>
        <time>2018-10-28T10:31:29Z</time>
      </trkpt>
      <trkpt lat="45.91546" lon="4.68149">
        <ele>379</ele>
        <time>2018-10-28T10:31:30Z</time>
      </trkpt>
      <trkpt lat="45.91553" lon="4.68151">
        <ele>379</ele>
        <time>2018-10-28T10:31:31Z</time>
      </trkpt>
      <trkpt lat="45.91559" lon="4.68155">
        <ele>379</ele>
        <time>2018-10-28T10:31:32Z</time>
      </trkpt>
      <trkpt lat="45.91566" lon="4.68159">
        <ele>378</ele>
        <time>2018-10-28T10:31:33Z</time>
      </trkpt>
      <trkpt lat="45.91573" lon="4.68162">
        <ele>378</ele>
        <time>2018-10-28T10:31:34Z</time>
      </trkpt>
      <trkpt lat="45.91581" lon="4.68165">
        <ele>378</ele>
        <time>2018-10-28T10:31:35Z</time>
      </trkpt>
      <trkpt lat="45.91588" lon="4.68169">
        <ele>377</ele>
        <time>2018-10-28T10:31:36Z</time>
      </trkpt>
      <trkpt lat="45.91594" lon="4.68173">
        <ele>377</ele>
        <time>2018-10-28T10:31:37Z</time>
      </trkpt>
      <trkpt lat="45.91601" lon="4.6818">
        <ele>376</ele>
        <time>2018-10-28T10:31:38Z</time>
      </trkpt>
      <trkpt lat="45.91608" lon="4.68185">
        <ele>376</ele>
        <time>2018-10-28T10:31:39Z</time>
      </trkpt>
      <trkpt lat="45.91614" lon="4.68191">
        <ele>375</ele>
        <time>2018-10-28T10:31:40Z</time>
      </trkpt>
      <trkpt lat="45.91622" lon="4.68195">
        <ele>375</ele>
        <time>2018-10-28T10:31:41Z</time>
      </trkpt>
      <trkpt lat="45.91628" lon="4.682">
        <ele>375</ele>
        <time>2018-10-28T10:31:42Z</time>
      </trkpt>
      <trkpt lat="45.91635" lon="4.68206">
        <ele>375</ele>
        <time>2018-10-28T10:31:43Z</time>
      </trkpt>
      <trkpt lat="45.91643" lon="4.6821">
        <ele>374</ele>
        <time>2018-10-28T10:31:44Z</time>
      </trkpt>
      <trkpt lat="45.9165" lon="4.68215">
        <ele>374</ele>
        <time>2018-10-28T10:31:45Z</time>
      </trkpt>
      <trkpt lat="45.91657" lon="4.68219">
        <ele>374</ele>
        <time>2018-10-28T10:31:46Z</time>
      </trkpt>
      <trkpt lat="45.91664" lon="4.68225">
        <ele>374</ele>
        <time>2018-10-28T10:31:47Z</time>
      </trkpt>
      <trkpt lat="45.9167" lon="4.68232">
        <ele>371</ele>
        <time>2018-10-28T10:31:48Z</time>
      </trkpt>
      <trkpt lat="45.91677" lon="4.68236">
        <ele>372</ele>
        <time>2018-10-28T10:31:49Z</time>
      </trkpt>
      <trkpt lat="45.91684" lon="4.68241">
        <ele>371</ele>
        <time>2018-10-28T10:31:50Z</time>
      </trkpt>
      <trkpt lat="45.91691" lon="4.68245">
        <ele>371</ele>
        <time>2018-10-28T10:31:51Z</time>
      </trkpt>
      <trkpt lat="45.91697" lon="4.6825">
        <ele>371</ele>
        <time>2018-10-28T10:31:52Z</time>
      </trkpt>
      <trkpt lat="45.91706" lon="4.68255">
        <ele>373</ele>
        <time>2018-10-28T10:31:53Z</time>
      </trkpt>
      <trkpt lat="45.91712" lon="4.68258">
        <ele>373</ele>
        <time>2018-10-28T10:31:54Z</time>
      </trkpt>
      <trkpt lat="45.91718" lon="4.68259">
        <ele>373</ele>
        <time>2018-10-28T10:31:55Z</time>
      </trkpt>
      <trkpt lat="45.91725" lon="4.6826">
        <ele>372</ele>
        <time>2018-10-28T10:31:56Z</time>
      </trkpt>
      <trkpt lat="45.91731" lon="4.68261">
        <ele>372</ele>
        <time>2018-10-28T10:31:57Z</time>
      </trkpt>
      <trkpt lat="45.91737" lon="4.68262">
        <ele>372</ele>
        <time>2018-10-28T10:31:58Z</time>
      </trkpt>
      <trkpt lat="45.91743" lon="4.68263">
        <ele>372</ele>
        <time>2018-10-28T10:31:59Z</time>
      </trkpt>
      <trkpt lat="45.91747" lon="4.68265">
        <ele>372</ele>
        <time>2018-10-28T10:32:00Z</time>
      </trkpt>
      <trkpt lat="45.91752" lon="4.68266">
        <ele>371</ele>
        <time>2018-10-28T10:32:01Z</time>
      </trkpt>
      <trkpt lat="45.91756" lon="4.68268">
        <ele>372</ele>
        <time>2018-10-28T10:32:02Z</time>
      </trkpt>
      <trkpt lat="45.91761" lon="4.68269">
        <ele>372</ele>
        <time>2018-10-28T10:32:03Z</time>
      </trkpt>
      <trkpt lat="45.91766" lon="4.6827">
        <ele>372</ele>
        <time>2018-10-28T10:32:04Z</time>
      </trkpt>
      <trkpt lat="45.91771" lon="4.68271">
        <ele>372</ele>
        <time>2018-10-28T10:32:05Z</time>
      </trkpt>
      <trkpt lat="45.91777" lon="4.68271">
        <ele>372</ele>
        <time>2018-10-28T10:32:06Z</time>
      </trkpt>
      <trkpt lat="45.91781" lon="4.68272">
        <ele>372</ele>
        <time>2018-10-28T10:32:07Z</time>
      </trkpt>
      <trkpt lat="45.91789" lon="4.68275">
        <ele>372</ele>
        <time>2018-10-28T10:32:09Z</time>
      </trkpt>
      <trkpt lat="45.91793" lon="4.68275">
        <ele>372</ele>
        <time>2018-10-28T10:32:10Z</time>
      </trkpt>
      <trkpt lat="45.91802" lon="4.68277">
        <ele>372</ele>
        <time>2018-10-28T10:32:12Z</time>
      </trkpt>
      <trkpt lat="45.91806" lon="4.68277">
        <ele>372</ele>
        <time>2018-10-28T10:32:13Z</time>
      </trkpt>
      <trkpt lat="45.9181" lon="4.68278">
        <ele>372</ele>
        <time>2018-10-28T10:32:14Z</time>
      </trkpt>
      <trkpt lat="45.91815" lon="4.6828">
        <ele>373</ele>
        <time>2018-10-28T10:32:15Z</time>
      </trkpt>
      <trkpt lat="45.91819" lon="4.68281">
        <ele>373</ele>
        <time>2018-10-28T10:32:16Z</time>
      </trkpt>
      <trkpt lat="45.91824" lon="4.68281">
        <ele>373</ele>
        <time>2018-10-28T10:32:17Z</time>
      </trkpt>
      <trkpt lat="45.91832" lon="4.68285">
        <ele>373</ele>
        <time>2018-10-28T10:32:19Z</time>
      </trkpt>
      <trkpt lat="45.91835" lon="4.68285">
        <ele>374</ele>
        <time>2018-10-28T10:32:20Z</time>
      </trkpt>
      <trkpt lat="45.91843" lon="4.68286">
        <ele>375</ele>
        <time>2018-10-28T10:32:22Z</time>
      </trkpt>
      <trkpt lat="45.91847" lon="4.68287">
        <ele>375</ele>
        <time>2018-10-28T10:32:23Z</time>
      </trkpt>
      <trkpt lat="45.91854" lon="4.68287">
        <ele>375</ele>
        <time>2018-10-28T10:32:25Z</time>
      </trkpt>
      <trkpt lat="45.91858" lon="4.68288">
        <ele>375</ele>
        <time>2018-10-28T10:32:26Z</time>
      </trkpt>
      <trkpt lat="45.91866" lon="4.68289">
        <ele>375</ele>
        <time>2018-10-28T10:32:28Z</time>
      </trkpt>
      <trkpt lat="45.91868" lon="4.6829">
        <ele>375</ele>
        <time>2018-10-28T10:32:29Z</time>
      </trkpt>
      <trkpt lat="45.91874" lon="4.6829">
        <ele>376</ele>
        <time>2018-10-28T10:32:31Z</time>
      </trkpt>
      <trkpt lat="45.91877" lon="4.6829">
        <ele>376</ele>
        <time>2018-10-28T10:32:32Z</time>
      </trkpt>
      <trkpt lat="45.91885" lon="4.6829">
        <ele>376</ele>
        <time>2018-10-28T10:32:34Z</time>
      </trkpt>
      <trkpt lat="45.91888" lon="4.6829">
        <ele>376</ele>
        <time>2018-10-28T10:32:35Z</time>
      </trkpt>
      <trkpt lat="45.91894" lon="4.68291">
        <ele>376</ele>
        <time>2018-10-28T10:32:37Z</time>
      </trkpt>
      <trkpt lat="45.91898" lon="4.68291">
        <ele>376</ele>
        <time>2018-10-28T10:32:38Z</time>
      </trkpt>
      <trkpt lat="45.91904" lon="4.68292">
        <ele>376</ele>
        <time>2018-10-28T10:32:40Z</time>
      </trkpt>
      <trkpt lat="45.91907" lon="4.68293">
        <ele>377</ele>
        <time>2018-10-28T10:32:41Z</time>
      </trkpt>
      <trkpt lat="45.91914" lon="4.68294">
        <ele>377</ele>
        <time>2018-10-28T10:32:43Z</time>
      </trkpt>
      <trkpt lat="45.91917" lon="4.68294">
        <ele>379</ele>
        <time>2018-10-28T10:32:44Z</time>
      </trkpt>
      <trkpt lat="45.91924" lon="4.68296">
        <ele>379</ele>
        <time>2018-10-28T10:32:46Z</time>
      </trkpt>
      <trkpt lat="45.91927" lon="4.68297">
        <ele>379</ele>
        <time>2018-10-28T10:32:47Z</time>
      </trkpt>
      <trkpt lat="45.91934" lon="4.68299">
        <ele>379</ele>
        <time>2018-10-28T10:32:49Z</time>
      </trkpt>
      <trkpt lat="45.91942" lon="4.68301">
        <ele>379</ele>
        <time>2018-10-28T10:32:50Z</time>
      </trkpt>
      <trkpt lat="45.91949" lon="4.68302">
        <ele>379</ele>
        <time>2018-10-28T10:32:53Z</time>
      </trkpt>
      <trkpt lat="45.91952" lon="4.68303">
        <ele>379</ele>
        <time>2018-10-28T10:32:54Z</time>
      </trkpt>
      <trkpt lat="45.9196" lon="4.68305">
        <ele>379</ele>
        <time>2018-10-28T10:32:57Z</time>
      </trkpt>
      <trkpt lat="45.91963" lon="4.68306">
        <ele>380</ele>
        <time>2018-10-28T10:32:58Z</time>
      </trkpt>
      <trkpt lat="45.91972" lon="4.68308">
        <ele>380</ele>
        <time>2018-10-28T10:33:01Z</time>
      </trkpt>
      <trkpt lat="45.91975" lon="4.68309">
        <ele>380</ele>
        <time>2018-10-28T10:33:02Z</time>
      </trkpt>
      <trkpt lat="45.91983" lon="4.68311">
        <ele>380</ele>
        <time>2018-10-28T10:33:04Z</time>
      </trkpt>
      <trkpt lat="45.91986" lon="4.68312">
        <ele>380</ele>
        <time>2018-10-28T10:33:05Z</time>
      </trkpt>
      <trkpt lat="45.91992" lon="4.68313">
        <ele>381</ele>
        <time>2018-10-28T10:33:07Z</time>
      </trkpt>
      <trkpt lat="45.91995" lon="4.68314">
        <ele>381</ele>
        <time>2018-10-28T10:33:08Z</time>
      </trkpt>
      <trkpt lat="45.92001" lon="4.68316">
        <ele>381</ele>
        <time>2018-10-28T10:33:10Z</time>
      </trkpt>
      <trkpt lat="45.92005" lon="4.68317">
        <ele>381</ele>
        <time>2018-10-28T10:33:11Z</time>
      </trkpt>
      <trkpt lat="45.92011" lon="4.68318">
        <ele>381</ele>
        <time>2018-10-28T10:33:13Z</time>
      </trkpt>
      <trkpt lat="45.92015" lon="4.68318">
        <ele>380</ele>
        <time>2018-10-28T10:33:14Z</time>
      </trkpt>
      <trkpt lat="45.92022" lon="4.68317">
        <ele>380</ele>
        <time>2018-10-28T10:33:15Z</time>
      </trkpt>
      <trkpt lat="45.92026" lon="4.68317">
        <ele>380</ele>
        <time>2018-10-28T10:33:16Z</time>
      </trkpt>
      <trkpt lat="45.92034" lon="4.68318">
        <ele>380</ele>
        <time>2018-10-28T10:33:18Z</time>
      </trkpt>
      <trkpt lat="45.92038" lon="4.68318">
        <ele>380</ele>
        <time>2018-10-28T10:33:19Z</time>
      </trkpt>
      <trkpt lat="45.92047" lon="4.6832">
        <ele>379</ele>
        <time>2018-10-28T10:33:21Z</time>
      </trkpt>
      <trkpt lat="45.92052" lon="4.68322">
        <ele>380</ele>
        <time>2018-10-28T10:33:22Z</time>
      </trkpt>
      <trkpt lat="45.92057" lon="4.68323">
        <ele>380</ele>
        <time>2018-10-28T10:33:23Z</time>
      </trkpt>
      <trkpt lat="45.92061" lon="4.68323">
        <ele>380</ele>
        <time>2018-10-28T10:33:24Z</time>
      </trkpt>
      <trkpt lat="45.92069" lon="4.68326">
        <ele>380</ele>
        <time>2018-10-28T10:33:26Z</time>
      </trkpt>
      <trkpt lat="45.92073" lon="4.68327">
        <ele>381</ele>
        <time>2018-10-28T10:33:27Z</time>
      </trkpt>
      <trkpt lat="45.92082" lon="4.68329">
        <ele>381</ele>
        <time>2018-10-28T10:33:29Z</time>
      </trkpt>
      <trkpt lat="45.92086" lon="4.6833">
        <ele>381</ele>
        <time>2018-10-28T10:33:30Z</time>
      </trkpt>
      <trkpt lat="45.92094" lon="4.68333">
        <ele>380</ele>
        <time>2018-10-28T10:33:32Z</time>
      </trkpt>
      <trkpt lat="45.92096" lon="4.68334">
        <ele>383</ele>
        <time>2018-10-28T10:33:33Z</time>
      </trkpt>
      <trkpt lat="45.92102" lon="4.68337">
        <ele>383</ele>
        <time>2018-10-28T10:33:35Z</time>
      </trkpt>
      <trkpt lat="45.92108" lon="4.6834">
        <ele>383</ele>
        <time>2018-10-28T10:33:36Z</time>
      </trkpt>
      <trkpt lat="45.92116" lon="4.68344">
        <ele>383</ele>
        <time>2018-10-28T10:33:38Z</time>
      </trkpt>
      <trkpt lat="45.9212" lon="4.68346">
        <ele>383</ele>
        <time>2018-10-28T10:33:39Z</time>
      </trkpt>
      <trkpt lat="45.92127" lon="4.68353">
        <ele>383</ele>
        <time>2018-10-28T10:33:41Z</time>
      </trkpt>
      <trkpt lat="45.92131" lon="4.68356">
        <ele>383</ele>
        <time>2018-10-28T10:33:42Z</time>
      </trkpt>
      <trkpt lat="45.92138" lon="4.68361">
        <ele>383</ele>
        <time>2018-10-28T10:33:44Z</time>
      </trkpt>
      <trkpt lat="45.92141" lon="4.68364">
        <ele>383</ele>
        <time>2018-10-28T10:33:45Z</time>
      </trkpt>
      <trkpt lat="45.92147" lon="4.68371">
        <ele>383</ele>
        <time>2018-10-28T10:33:47Z</time>
      </trkpt>
      <trkpt lat="45.9215" lon="4.68375">
        <ele>384</ele>
        <time>2018-10-28T10:33:48Z</time>
      </trkpt>
      <trkpt lat="45.92157" lon="4.68381">
        <ele>384</ele>
        <time>2018-10-28T10:33:50Z</time>
      </trkpt>
      <trkpt lat="45.9216" lon="4.68384">
        <ele>384</ele>
        <time>2018-10-28T10:33:51Z</time>
      </trkpt>
      <trkpt lat="45.92167" lon="4.68391">
        <ele>384</ele>
        <time>2018-10-28T10:33:53Z</time>
      </trkpt>
      <trkpt lat="45.9217" lon="4.68395">
        <ele>383</ele>
        <time>2018-10-28T10:33:54Z</time>
      </trkpt>
      <trkpt lat="45.92175" lon="4.68403">
        <ele>384</ele>
        <time>2018-10-28T10:33:56Z</time>
      </trkpt>
      <trkpt lat="45.92177" lon="4.68407">
        <ele>384</ele>
        <time>2018-10-28T10:33:57Z</time>
      </trkpt>
      <trkpt lat="45.92183" lon="4.68415">
        <ele>384</ele>
        <time>2018-10-28T10:33:59Z</time>
      </trkpt>
      <trkpt lat="45.92187" lon="4.68418">
        <ele>386</ele>
        <time>2018-10-28T10:34:00Z</time>
      </trkpt>
      <trkpt lat="45.92195" lon="4.68422">
        <ele>386</ele>
        <time>2018-10-28T10:34:02Z</time>
      </trkpt>
      <trkpt lat="45.922" lon="4.68422">
        <ele>386</ele>
        <time>2018-10-28T10:34:03Z</time>
      </trkpt>
      <trkpt lat="45.92204" lon="4.68425">
        <ele>386</ele>
        <time>2018-10-28T10:34:04Z</time>
      </trkpt>
      <trkpt lat="45.92208" lon="4.68428">
        <ele>386</ele>
        <time>2018-10-28T10:34:05Z</time>
      </trkpt>
      <trkpt lat="45.92216" lon="4.68434">
        <ele>386</ele>
        <time>2018-10-28T10:34:07Z</time>
      </trkpt>
      <trkpt lat="45.92219" lon="4.68437">
        <ele>386</ele>
        <time>2018-10-28T10:34:08Z</time>
      </trkpt>
      <trkpt lat="45.92223" lon="4.68441">
        <ele>386</ele>
        <time>2018-10-28T10:34:09Z</time>
      </trkpt>
      <trkpt lat="45.92226" lon="4.68446">
        <ele>386</ele>
        <time>2018-10-28T10:34:10Z</time>
      </trkpt>
      <trkpt lat="45.92231" lon="4.68451">
        <ele>386</ele>
        <time>2018-10-28T10:34:11Z</time>
      </trkpt>
      <trkpt lat="45.92235" lon="4.68455">
        <ele>386</ele>
        <time>2018-10-28T10:34:12Z</time>
      </trkpt>
      <trkpt lat="45.92242" lon="4.68462">
        <ele>386</ele>
        <time>2018-10-28T10:34:14Z</time>
      </trkpt>
      <trkpt lat="45.92245" lon="4.68466">
        <ele>386</ele>
        <time>2018-10-28T10:34:15Z</time>
      </trkpt>
      <trkpt lat="45.92249" lon="4.6847">
        <ele>386</ele>
        <time>2018-10-28T10:34:16Z</time>
      </trkpt>
      <trkpt lat="45.92253" lon="4.68475">
        <ele>384</ele>
        <time>2018-10-28T10:34:17Z</time>
      </trkpt>
      <trkpt lat="45.92257" lon="4.68478">
        <ele>384</ele>
        <time>2018-10-28T10:34:18Z</time>
      </trkpt>
      <trkpt lat="45.9226" lon="4.68482">
        <ele>384</ele>
        <time>2018-10-28T10:34:19Z</time>
      </trkpt>
      <trkpt lat="45.92264" lon="4.68486">
        <ele>384</ele>
        <time>2018-10-28T10:34:20Z</time>
      </trkpt>
      <trkpt lat="45.92268" lon="4.68489">
        <ele>384</ele>
        <time>2018-10-28T10:34:21Z</time>
      </trkpt>
      <trkpt lat="45.92274" lon="4.68497">
        <ele>384</ele>
        <time>2018-10-28T10:34:23Z</time>
      </trkpt>
      <trkpt lat="45.92278" lon="4.68502">
        <ele>387</ele>
        <time>2018-10-28T10:34:24Z</time>
      </trkpt>
      <trkpt lat="45.92284" lon="4.68509">
        <ele>387</ele>
        <time>2018-10-28T10:34:26Z</time>
      </trkpt>
      <trkpt lat="45.92288" lon="4.68512">
        <ele>387</ele>
        <time>2018-10-28T10:34:27Z</time>
      </trkpt>
      <trkpt lat="45.92295" lon="4.68519">
        <ele>387</ele>
        <time>2018-10-28T10:34:29Z</time>
      </trkpt>
      <trkpt lat="45.92299" lon="4.68521">
        <ele>387</ele>
        <time>2018-10-28T10:34:30Z</time>
      </trkpt>
      <trkpt lat="45.92306" lon="4.68528">
        <ele>387</ele>
        <time>2018-10-28T10:34:32Z</time>
      </trkpt>
      <trkpt lat="45.9231" lon="4.68531">
        <ele>387</ele>
        <time>2018-10-28T10:34:33Z</time>
      </trkpt>
      <trkpt lat="45.92317" lon="4.68537">
        <ele>388</ele>
        <time>2018-10-28T10:34:35Z</time>
      </trkpt>
      <trkpt lat="45.9232" lon="4.6854">
        <ele>388</ele>
        <time>2018-10-28T10:34:36Z</time>
      </trkpt>
      <trkpt lat="45.92328" lon="4.68546">
        <ele>388</ele>
        <time>2018-10-28T10:34:38Z</time>
      </trkpt>
      <trkpt lat="45.92331" lon="4.68549">
        <ele>388</ele>
        <time>2018-10-28T10:34:39Z</time>
      </trkpt>
      <trkpt lat="45.92338" lon="4.68555">
        <ele>385</ele>
        <time>2018-10-28T10:34:41Z</time>
      </trkpt>
      <trkpt lat="45.92342" lon="4.68558">
        <ele>385</ele>
        <time>2018-10-28T10:34:42Z</time>
      </trkpt>
      <trkpt lat="45.92349" lon="4.68563">
        <ele>386</ele>
        <time>2018-10-28T10:34:44Z</time>
      </trkpt>
      <trkpt lat="45.92353" lon="4.68566">
        <ele>386</ele>
        <time>2018-10-28T10:34:45Z</time>
      </trkpt>
      <trkpt lat="45.9236" lon="4.6857">
        <ele>385</ele>
        <time>2018-10-28T10:34:47Z</time>
      </trkpt>
      <trkpt lat="45.92364" lon="4.68572">
        <ele>385</ele>
        <time>2018-10-28T10:34:48Z</time>
      </trkpt>
      <trkpt lat="45.92368" lon="4.68574">
        <ele>385</ele>
        <time>2018-10-28T10:34:49Z</time>
      </trkpt>
      <trkpt lat="45.92373" lon="4.68576">
        <ele>384</ele>
        <time>2018-10-28T10:34:50Z</time>
      </trkpt>
      <trkpt lat="45.92377" lon="4.68578">
        <ele>384</ele>
        <time>2018-10-28T10:34:51Z</time>
      </trkpt>
      <trkpt lat="45.92382" lon="4.68581">
        <ele>384</ele>
        <time>2018-10-28T10:34:52Z</time>
      </trkpt>
      <trkpt lat="45.92386" lon="4.68584">
        <ele>387</ele>
        <time>2018-10-28T10:34:53Z</time>
      </trkpt>
      <trkpt lat="45.9239" lon="4.68588">
        <ele>386</ele>
        <time>2018-10-28T10:34:54Z</time>
      </trkpt>
      <trkpt lat="45.92394" lon="4.68592">
        <ele>386</ele>
        <time>2018-10-28T10:34:55Z</time>
      </trkpt>
      <trkpt lat="45.92399" lon="4.68594">
        <ele>386</ele>
        <time>2018-10-28T10:34:56Z</time>
      </trkpt>
      <trkpt lat="45.92405" lon="4.68596">
        <ele>385</ele>
        <time>2018-10-28T10:34:57Z</time>
      </trkpt>
      <trkpt lat="45.92409" lon="4.68599">
        <ele>385</ele>
        <time>2018-10-28T10:34:58Z</time>
      </trkpt>
      <trkpt lat="45.92414" lon="4.686">
        <ele>385</ele>
        <time>2018-10-28T10:34:59Z</time>
      </trkpt>
      <trkpt lat="45.92419" lon="4.68604">
        <ele>381</ele>
        <time>2018-10-28T10:35:00Z</time>
      </trkpt>
      <trkpt lat="45.92424" lon="4.68605">
        <ele>381</ele>
        <time>2018-10-28T10:35:01Z</time>
      </trkpt>
      <trkpt lat="45.92431" lon="4.68608">
        <ele>381</ele>
        <time>2018-10-28T10:35:02Z</time>
      </trkpt>
      <trkpt lat="45.92436" lon="4.68612">
        <ele>381</ele>
        <time>2018-10-28T10:35:03Z</time>
      </trkpt>
      <trkpt lat="45.9244" lon="4.68612">
        <ele>381</ele>
        <time>2018-10-28T10:35:04Z</time>
      </trkpt>
      <trkpt lat="45.92446" lon="4.68615">
        <ele>380</ele>
        <time>2018-10-28T10:35:05Z</time>
      </trkpt>
      <trkpt lat="45.92451" lon="4.68618">
        <ele>380</ele>
        <time>2018-10-28T10:35:06Z</time>
      </trkpt>
      <trkpt lat="45.92457" lon="4.6862">
        <ele>380</ele>
        <time>2018-10-28T10:35:07Z</time>
      </trkpt>
      <trkpt lat="45.92463" lon="4.68624">
        <ele>380</ele>
        <time>2018-10-28T10:35:08Z</time>
      </trkpt>
      <trkpt lat="45.92468" lon="4.68627">
        <ele>380</ele>
        <time>2018-10-28T10:35:09Z</time>
      </trkpt>
      <trkpt lat="45.92474" lon="4.68631">
        <ele>379</ele>
        <time>2018-10-28T10:35:10Z</time>
      </trkpt>
      <trkpt lat="45.9248" lon="4.68632">
        <ele>379</ele>
        <time>2018-10-28T10:35:11Z</time>
      </trkpt>
      <trkpt lat="45.92487" lon="4.68635">
        <ele>379</ele>
        <time>2018-10-28T10:35:12Z</time>
      </trkpt>
      <trkpt lat="45.92494" lon="4.68638">
        <ele>379</ele>
        <time>2018-10-28T10:35:13Z</time>
      </trkpt>
      <trkpt lat="45.925" lon="4.68641">
        <ele>379</ele>
        <time>2018-10-28T10:35:14Z</time>
      </trkpt>
      <trkpt lat="45.92506" lon="4.68644">
        <ele>376</ele>
        <time>2018-10-28T10:35:15Z</time>
      </trkpt>
      <trkpt lat="45.92513" lon="4.68644">
        <ele>375</ele>
        <time>2018-10-28T10:35:16Z</time>
      </trkpt>
      <trkpt lat="45.9252" lon="4.68645">
        <ele>375</ele>
        <time>2018-10-28T10:35:17Z</time>
      </trkpt>
      <trkpt lat="45.92526" lon="4.68647">
        <ele>375</ele>
        <time>2018-10-28T10:35:18Z</time>
      </trkpt>
      <trkpt lat="45.92532" lon="4.68649">
        <ele>375</ele>
        <time>2018-10-28T10:35:19Z</time>
      </trkpt>
      <trkpt lat="45.92537" lon="4.6865">
        <ele>375</ele>
        <time>2018-10-28T10:35:20Z</time>
      </trkpt>
      <trkpt lat="45.92543" lon="4.68652">
        <ele>374</ele>
        <time>2018-10-28T10:35:21Z</time>
      </trkpt>
      <trkpt lat="45.92548" lon="4.68651">
        <ele>374</ele>
        <time>2018-10-28T10:35:22Z</time>
      </trkpt>
      <trkpt lat="45.92553" lon="4.68652">
        <ele>374</ele>
        <time>2018-10-28T10:35:23Z</time>
      </trkpt>
      <trkpt lat="45.92558" lon="4.68651">
        <ele>374</ele>
        <time>2018-10-28T10:35:24Z</time>
      </trkpt>
      <trkpt lat="45.92566" lon="4.68648">
        <ele>374</ele>
        <time>2018-10-28T10:35:26Z</time>
      </trkpt>
      <trkpt lat="45.92568" lon="4.68646">
        <ele>374</ele>
        <time>2018-10-28T10:35:27Z</time>
      </trkpt>
      <trkpt lat="45.92575" lon="4.68643">
        <ele>374</ele>
        <time>2018-10-28T10:35:31Z</time>
      </trkpt>
      <trkpt lat="45.92576" lon="4.68641">
        <ele>373</ele>
        <time>2018-10-28T10:35:32Z</time>
      </trkpt>
      <trkpt lat="45.92585" lon="4.68637">
        <ele>370</ele>
        <time>2018-10-28T10:35:35Z</time>
      </trkpt>
      <trkpt lat="45.92588" lon="4.68636">
        <ele>370</ele>
        <time>2018-10-28T10:35:36Z</time>
      </trkpt>
      <trkpt lat="45.92596" lon="4.68632">
        <ele>370</ele>
        <time>2018-10-28T10:35:40Z</time>
      </trkpt>
      <trkpt lat="45.92598" lon="4.68632">
        <ele>369</ele>
        <time>2018-10-28T10:35:41Z</time>
      </trkpt>
      <trkpt lat="45.92605" lon="4.68632">
        <ele>369</ele>
        <time>2018-10-28T10:35:43Z</time>
      </trkpt>
      <trkpt lat="45.92607" lon="4.68632">
        <ele>369</ele>
        <time>2018-10-28T10:35:44Z</time>
      </trkpt>
      <trkpt lat="45.92613" lon="4.68631">
        <ele>369</ele>
        <time>2018-10-28T10:35:45Z</time>
      </trkpt>
      <trkpt lat="45.92618" lon="4.68629">
        <ele>369</ele>
        <time>2018-10-28T10:35:46Z</time>
      </trkpt>
      <trkpt lat="45.92623" lon="4.68628">
        <ele>368</ele>
        <time>2018-10-28T10:35:47Z</time>
      </trkpt>
      <trkpt lat="45.92627" lon="4.68626">
        <ele>368</ele>
        <time>2018-10-28T10:35:48Z</time>
      </trkpt>
      <trkpt lat="45.92632" lon="4.68624">
        <ele>368</ele>
        <time>2018-10-28T10:35:49Z</time>
      </trkpt>
      <trkpt lat="45.92637" lon="4.68623">
        <ele>368</ele>
        <time>2018-10-28T10:35:50Z</time>
      </trkpt>
      <trkpt lat="45.92642" lon="4.68622">
        <ele>368</ele>
        <time>2018-10-28T10:35:51Z</time>
      </trkpt>
      <trkpt lat="45.92647" lon="4.6862">
        <ele>367</ele>
        <time>2018-10-28T10:35:52Z</time>
      </trkpt>
      <trkpt lat="45.92652" lon="4.68617">
        <ele>367</ele>
        <time>2018-10-28T10:35:53Z</time>
      </trkpt>
      <trkpt lat="45.92657" lon="4.68614">
        <ele>367</ele>
        <time>2018-10-28T10:35:54Z</time>
      </trkpt>
      <trkpt lat="45.92665" lon="4.68609">
        <ele>367</ele>
        <time>2018-10-28T10:35:56Z</time>
      </trkpt>
      <trkpt lat="45.92669" lon="4.68607">
        <ele>364</ele>
        <time>2018-10-28T10:35:57Z</time>
      </trkpt>
      <trkpt lat="45.92674" lon="4.68605">
        <ele>364</ele>
        <time>2018-10-28T10:35:58Z</time>
      </trkpt>
      <trkpt lat="45.92679" lon="4.68602">
        <ele>364</ele>
        <time>2018-10-28T10:35:59Z</time>
      </trkpt>
      <trkpt lat="45.92687" lon="4.68599">
        <ele>364</ele>
        <time>2018-10-28T10:36:01Z</time>
      </trkpt>
      <trkpt lat="45.92691" lon="4.68596">
        <ele>364</ele>
        <time>2018-10-28T10:36:02Z</time>
      </trkpt>
      <trkpt lat="45.92699" lon="4.68592">
        <ele>364</ele>
        <time>2018-10-28T10:36:04Z</time>
      </trkpt>
      <trkpt lat="45.92704" lon="4.6859">
        <ele>364</ele>
        <time>2018-10-28T10:36:05Z</time>
      </trkpt>
      <trkpt lat="45.92709" lon="4.68588">
        <ele>364</ele>
        <time>2018-10-28T10:36:06Z</time>
      </trkpt>
      <trkpt lat="45.92713" lon="4.68586">
        <ele>364</ele>
        <time>2018-10-28T10:36:07Z</time>
      </trkpt>
      <trkpt lat="45.92717" lon="4.68584">
        <ele>364</ele>
        <time>2018-10-28T10:36:08Z</time>
      </trkpt>
      <trkpt lat="45.92722" lon="4.68582">
        <ele>366</ele>
        <time>2018-10-28T10:36:09Z</time>
      </trkpt>
      <trkpt lat="45.92727" lon="4.68581">
        <ele>366</ele>
        <time>2018-10-28T10:36:10Z</time>
      </trkpt>
      <trkpt lat="45.92732" lon="4.68578">
        <ele>366</ele>
        <time>2018-10-28T10:36:11Z</time>
      </trkpt>
      <trkpt lat="45.92737" lon="4.68576">
        <ele>366</ele>
        <time>2018-10-28T10:36:12Z</time>
      </trkpt>
      <trkpt lat="45.92742" lon="4.68576">
        <ele>366</ele>
        <time>2018-10-28T10:36:13Z</time>
      </trkpt>
      <trkpt lat="45.92748" lon="4.68576">
        <ele>366</ele>
        <time>2018-10-28T10:36:14Z</time>
      </trkpt>
      <trkpt lat="45.92753" lon="4.68575">
        <ele>366</ele>
        <time>2018-10-28T10:36:15Z</time>
      </trkpt>
      <trkpt lat="45.92759" lon="4.68574">
        <ele>366</ele>
        <time>2018-10-28T10:36:16Z</time>
      </trkpt>
      <trkpt lat="45.92765" lon="4.68575">
        <ele>365</ele>
        <time>2018-10-28T10:36:17Z</time>
      </trkpt>
      <trkpt lat="45.92771" lon="4.68575">
        <ele>365</ele>
        <time>2018-10-28T10:36:18Z</time>
      </trkpt>
      <trkpt lat="45.92777" lon="4.68575">
        <ele>365</ele>
        <time>2018-10-28T10:36:19Z</time>
      </trkpt>
      <trkpt lat="45.92783" lon="4.68576">
        <ele>365</ele>
        <time>2018-10-28T10:36:20Z</time>
      </trkpt>
      <trkpt lat="45.9279" lon="4.68577">
        <ele>364</ele>
        <time>2018-10-28T10:36:21Z</time>
      </trkpt>
      <trkpt lat="45.92797" lon="4.68576">
        <ele>364</ele>
        <time>2018-10-28T10:36:22Z</time>
      </trkpt>
      <trkpt lat="45.92804" lon="4.68578">
        <ele>364</ele>
        <time>2018-10-28T10:36:23Z</time>
      </trkpt>
      <trkpt lat="45.92811" lon="4.68579">
        <ele>363</ele>
        <time>2018-10-28T10:36:24Z</time>
      </trkpt>
      <trkpt lat="45.92818" lon="4.68581">
        <ele>363</ele>
        <time>2018-10-28T10:36:25Z</time>
      </trkpt>
      <trkpt lat="45.92825" lon="4.68582">
        <ele>362</ele>
        <time>2018-10-28T10:36:26Z</time>
      </trkpt>
      <trkpt lat="45.92832" lon="4.68581">
        <ele>361</ele>
        <time>2018-10-28T10:36:27Z</time>
      </trkpt>
      <trkpt lat="45.92838" lon="4.68583">
        <ele>361</ele>
        <time>2018-10-28T10:36:28Z</time>
      </trkpt>
      <trkpt lat="45.92845" lon="4.68583">
        <ele>360</ele>
        <time>2018-10-28T10:36:29Z</time>
      </trkpt>
      <trkpt lat="45.92852" lon="4.68585">
        <ele>359</ele>
        <time>2018-10-28T10:36:30Z</time>
      </trkpt>
      <trkpt lat="45.92858" lon="4.68586">
        <ele>359</ele>
        <time>2018-10-28T10:36:31Z</time>
      </trkpt>
      <trkpt lat="45.92865" lon="4.68588">
        <ele>359</ele>
        <time>2018-10-28T10:36:32Z</time>
      </trkpt>
      <trkpt lat="45.92871" lon="4.68589">
        <ele>359</ele>
        <time>2018-10-28T10:36:33Z</time>
      </trkpt>
      <trkpt lat="45.92877" lon="4.6859">
        <ele>358</ele>
        <time>2018-10-28T10:36:34Z</time>
      </trkpt>
      <trkpt lat="45.92884" lon="4.68592">
        <ele>358</ele>
        <time>2018-10-28T10:36:35Z</time>
      </trkpt>
      <trkpt lat="45.9289" lon="4.68594">
        <ele>358</ele>
        <time>2018-10-28T10:36:36Z</time>
      </trkpt>
      <trkpt lat="45.92897" lon="4.68597">
        <ele>358</ele>
        <time>2018-10-28T10:36:37Z</time>
      </trkpt>
      <trkpt lat="45.92904" lon="4.68598">
        <ele>358</ele>
        <time>2018-10-28T10:36:38Z</time>
      </trkpt>
      <trkpt lat="45.92911" lon="4.68599">
        <ele>358</ele>
        <time>2018-10-28T10:36:39Z</time>
      </trkpt>
      <trkpt lat="45.92917" lon="4.686">
        <ele>359</ele>
        <time>2018-10-28T10:36:40Z</time>
      </trkpt>
      <trkpt lat="45.92923" lon="4.68601">
        <ele>359</ele>
        <time>2018-10-28T10:36:41Z</time>
      </trkpt>
      <trkpt lat="45.92929" lon="4.68603">
        <ele>358</ele>
        <time>2018-10-28T10:36:42Z</time>
      </trkpt>
      <trkpt lat="45.92936" lon="4.68604">
        <ele>358</ele>
        <time>2018-10-28T10:36:43Z</time>
      </trkpt>
      <trkpt lat="45.92942" lon="4.68606">
        <ele>358</ele>
        <time>2018-10-28T10:36:44Z</time>
      </trkpt>
      <trkpt lat="45.92949" lon="4.68607">
        <ele>358</ele>
        <time>2018-10-28T10:36:45Z</time>
      </trkpt>
      <trkpt lat="45.92955" lon="4.68609">
        <ele>358</ele>
        <time>2018-10-28T10:36:46Z</time>
      </trkpt>
      <trkpt lat="45.92962" lon="4.68609">
        <ele>358</ele>
        <time>2018-10-28T10:36:47Z</time>
      </trkpt>
      <trkpt lat="45.92968" lon="4.68611">
        <ele>358</ele>
        <time>2018-10-28T10:36:48Z</time>
      </trkpt>
      <trkpt lat="45.92975" lon="4.68611">
        <ele>358</ele>
        <time>2018-10-28T10:36:49Z</time>
      </trkpt>
      <trkpt lat="45.92981" lon="4.68612">
        <ele>358</ele>
        <time>2018-10-28T10:36:50Z</time>
      </trkpt>
      <trkpt lat="45.92988" lon="4.68611">
        <ele>358</ele>
        <time>2018-10-28T10:36:51Z</time>
      </trkpt>
      <trkpt lat="45.92995" lon="4.68611">
        <ele>358</ele>
        <time>2018-10-28T10:36:52Z</time>
      </trkpt>
      <trkpt lat="45.93" lon="4.68613">
        <ele>358</ele>
        <time>2018-10-28T10:36:53Z</time>
      </trkpt>
      <trkpt lat="45.93005" lon="4.68615">
        <ele>356</ele>
        <time>2018-10-28T10:36:54Z</time>
      </trkpt>
      <trkpt lat="45.93011" lon="4.68616">
        <ele>356</ele>
        <time>2018-10-28T10:36:55Z</time>
      </trkpt>
      <trkpt lat="45.93016" lon="4.68619">
        <ele>356</ele>
        <time>2018-10-28T10:36:56Z</time>
      </trkpt>
      <trkpt lat="45.93021" lon="4.68621">
        <ele>356</ele>
        <time>2018-10-28T10:36:57Z</time>
      </trkpt>
      <trkpt lat="45.93026" lon="4.68621">
        <ele>356</ele>
        <time>2018-10-28T10:36:58Z</time>
      </trkpt>
      <trkpt lat="45.93034" lon="4.68623">
        <ele>355</ele>
        <time>2018-10-28T10:36:59Z</time>
      </trkpt>
      <trkpt lat="45.93039" lon="4.68624">
        <ele>355</ele>
        <time>2018-10-28T10:37:00Z</time>
      </trkpt>
      <trkpt lat="45.93043" lon="4.68629">
        <ele>355</ele>
        <time>2018-10-28T10:37:01Z</time>
      </trkpt>
      <trkpt lat="45.9305" lon="4.68631">
        <ele>355</ele>
        <time>2018-10-28T10:37:02Z</time>
      </trkpt>
      <trkpt lat="45.93057" lon="4.68631">
        <ele>354</ele>
        <time>2018-10-28T10:37:03Z</time>
      </trkpt>
      <trkpt lat="45.93063" lon="4.68632">
        <ele>354</ele>
        <time>2018-10-28T10:37:04Z</time>
      </trkpt>
      <trkpt lat="45.93069" lon="4.68634">
        <ele>354</ele>
        <time>2018-10-28T10:37:05Z</time>
      </trkpt>
      <trkpt lat="45.93076" lon="4.68635">
        <ele>354</ele>
        <time>2018-10-28T10:37:06Z</time>
      </trkpt>
      <trkpt lat="45.93081" lon="4.68637">
        <ele>354</ele>
        <time>2018-10-28T10:37:07Z</time>
      </trkpt>
      <trkpt lat="45.93088" lon="4.68638">
        <ele>349</ele>
        <time>2018-10-28T10:37:08Z</time>
      </trkpt>
      <trkpt lat="45.93096" lon="4.68638">
        <ele>349</ele>
        <time>2018-10-28T10:37:09Z</time>
      </trkpt>
      <trkpt lat="45.93103" lon="4.68641">
        <ele>349</ele>
        <time>2018-10-28T10:37:10Z</time>
      </trkpt>
      <trkpt lat="45.93111" lon="4.68641">
        <ele>349</ele>
        <time>2018-10-28T10:37:11Z</time>
      </trkpt>
      <trkpt lat="45.9312" lon="4.68641">
        <ele>348</ele>
        <time>2018-10-28T10:37:12Z</time>
      </trkpt>
      <trkpt lat="45.93128" lon="4.68641">
        <ele>348</ele>
        <time>2018-10-28T10:37:13Z</time>
      </trkpt>
      <trkpt lat="45.93136" lon="4.68643">
        <ele>347</ele>
        <time>2018-10-28T10:37:14Z</time>
      </trkpt>
      <trkpt lat="45.93144" lon="4.68645">
        <ele>347</ele>
        <time>2018-10-28T10:37:15Z</time>
      </trkpt>
      <trkpt lat="45.93152" lon="4.68645">
        <ele>347</ele>
        <time>2018-10-28T10:37:16Z</time>
      </trkpt>
      <trkpt lat="45.9316" lon="4.68647">
        <ele>347</ele>
        <time>2018-10-28T10:37:17Z</time>
      </trkpt>
      <trkpt lat="45.93169" lon="4.68649">
        <ele>345</ele>
        <time>2018-10-28T10:37:18Z</time>
      </trkpt>
      <trkpt lat="45.93177" lon="4.68652">
        <ele>345</ele>
        <time>2018-10-28T10:37:19Z</time>
      </trkpt>
      <trkpt lat="45.93185" lon="4.68654">
        <ele>345</ele>
        <time>2018-10-28T10:37:20Z</time>
      </trkpt>
      <trkpt lat="45.93194" lon="4.68656">
        <ele>345</ele>
        <time>2018-10-28T10:37:21Z</time>
      </trkpt>
      <trkpt lat="45.93201" lon="4.68656">
        <ele>344</ele>
        <time>2018-10-28T10:37:22Z</time>
      </trkpt>
      <trkpt lat="45.9321" lon="4.68659">
        <ele>344</ele>
        <time>2018-10-28T10:37:23Z</time>
      </trkpt>
      <trkpt lat="45.93218" lon="4.68663">
        <ele>344</ele>
        <time>2018-10-28T10:37:24Z</time>
      </trkpt>
      <trkpt lat="45.93226" lon="4.68664">
        <ele>344</ele>
        <time>2018-10-28T10:37:25Z</time>
      </trkpt>
      <trkpt lat="45.93234" lon="4.68667">
        <ele>345</ele>
        <time>2018-10-28T10:37:26Z</time>
      </trkpt>
      <trkpt lat="45.93242" lon="4.68668">
        <ele>344</ele>
        <time>2018-10-28T10:37:27Z</time>
      </trkpt>
      <trkpt lat="45.93247" lon="4.68668">
        <ele>344</ele>
        <time>2018-10-28T10:37:28Z</time>
      </trkpt>
      <trkpt lat="45.93254" lon="4.6867">
        <ele>344</ele>
        <time>2018-10-28T10:37:29Z</time>
      </trkpt>
      <trkpt lat="45.9326" lon="4.68672">
        <ele>344</ele>
        <time>2018-10-28T10:37:30Z</time>
      </trkpt>
      <trkpt lat="45.93266" lon="4.68674">
        <ele>344</ele>
        <time>2018-10-28T10:37:31Z</time>
      </trkpt>
      <trkpt lat="45.93272" lon="4.68675">
        <ele>344</ele>
        <time>2018-10-28T10:37:32Z</time>
      </trkpt>
      <trkpt lat="45.93278" lon="4.68678">
        <ele>344</ele>
        <time>2018-10-28T10:37:33Z</time>
      </trkpt>
      <trkpt lat="45.93285" lon="4.68679">
        <ele>344</ele>
        <time>2018-10-28T10:37:34Z</time>
      </trkpt>
      <trkpt lat="45.93291" lon="4.68681">
        <ele>344</ele>
        <time>2018-10-28T10:37:35Z</time>
      </trkpt>
      <trkpt lat="45.93297" lon="4.68683">
        <ele>344</ele>
        <time>2018-10-28T10:37:36Z</time>
      </trkpt>
      <trkpt lat="45.93303" lon="4.68684">
        <ele>344</ele>
        <time>2018-10-28T10:37:37Z</time>
      </trkpt>
      <trkpt lat="45.93309" lon="4.68686">
        <ele>344</ele>
        <time>2018-10-28T10:37:38Z</time>
      </trkpt>
      <trkpt lat="45.93315" lon="4.68688">
        <ele>344</ele>
        <time>2018-10-28T10:37:39Z</time>
      </trkpt>
      <trkpt lat="45.93322" lon="4.6869">
        <ele>344</ele>
        <time>2018-10-28T10:37:40Z</time>
      </trkpt>
      <trkpt lat="45.93329" lon="4.68691">
        <ele>344</ele>
        <time>2018-10-28T10:37:41Z</time>
      </trkpt>
      <trkpt lat="45.93337" lon="4.68691">
        <ele>344</ele>
        <time>2018-10-28T10:37:42Z</time>
      </trkpt>
      <trkpt lat="45.93343" lon="4.68693">
        <ele>344</ele>
        <time>2018-10-28T10:37:43Z</time>
      </trkpt>
      <trkpt lat="45.93348" lon="4.68694">
        <ele>344</ele>
        <time>2018-10-28T10:37:44Z</time>
      </trkpt>
      <trkpt lat="45.93354" lon="4.68694">
        <ele>344</ele>
        <time>2018-10-28T10:37:45Z</time>
      </trkpt>
      <trkpt lat="45.93361" lon="4.68695">
        <ele>344</ele>
        <time>2018-10-28T10:37:46Z</time>
      </trkpt>
      <trkpt lat="45.93367" lon="4.68696">
        <ele>344</ele>
        <time>2018-10-28T10:37:47Z</time>
      </trkpt>
      <trkpt lat="45.93373" lon="4.68697">
        <ele>344</ele>
        <time>2018-10-28T10:37:48Z</time>
      </trkpt>
      <trkpt lat="45.93378" lon="4.68698">
        <ele>344</ele>
        <time>2018-10-28T10:37:49Z</time>
      </trkpt>
      <trkpt lat="45.93383" lon="4.68699">
        <ele>344</ele>
        <time>2018-10-28T10:37:50Z</time>
      </trkpt>
      <trkpt lat="45.93388" lon="4.687">
        <ele>344</ele>
        <time>2018-10-28T10:37:51Z</time>
      </trkpt>
      <trkpt lat="45.93394" lon="4.68702">
        <ele>344</ele>
        <time>2018-10-28T10:37:52Z</time>
      </trkpt>
      <trkpt lat="45.93399" lon="4.68703">
        <ele>344</ele>
        <time>2018-10-28T10:37:53Z</time>
      </trkpt>
      <trkpt lat="45.93405" lon="4.68706">
        <ele>344</ele>
        <time>2018-10-28T10:37:54Z</time>
      </trkpt>
      <trkpt lat="45.93411" lon="4.68707">
        <ele>344</ele>
        <time>2018-10-28T10:37:55Z</time>
      </trkpt>
      <trkpt lat="45.93416" lon="4.68709">
        <ele>343</ele>
        <time>2018-10-28T10:37:56Z</time>
      </trkpt>
      <trkpt lat="45.93423" lon="4.6871">
        <ele>343</ele>
        <time>2018-10-28T10:37:57Z</time>
      </trkpt>
      <trkpt lat="45.93429" lon="4.6871">
        <ele>343</ele>
        <time>2018-10-28T10:37:58Z</time>
      </trkpt>
      <trkpt lat="45.93435" lon="4.68711">
        <ele>343</ele>
        <time>2018-10-28T10:37:59Z</time>
      </trkpt>
      <trkpt lat="45.93441" lon="4.68712">
        <ele>343</ele>
        <time>2018-10-28T10:38:00Z</time>
      </trkpt>
      <trkpt lat="45.93447" lon="4.68712">
        <ele>343</ele>
        <time>2018-10-28T10:38:01Z</time>
      </trkpt>
      <trkpt lat="45.93453" lon="4.68713">
        <ele>343</ele>
        <time>2018-10-28T10:38:02Z</time>
      </trkpt>
      <trkpt lat="45.93459" lon="4.68715">
        <ele>342</ele>
        <time>2018-10-28T10:38:03Z</time>
      </trkpt>
      <trkpt lat="45.93465" lon="4.68717">
        <ele>342</ele>
        <time>2018-10-28T10:38:04Z</time>
      </trkpt>
      <trkpt lat="45.9347" lon="4.68719">
        <ele>342</ele>
        <time>2018-10-28T10:38:05Z</time>
      </trkpt>
      <trkpt lat="45.93476" lon="4.68721">
        <ele>342</ele>
        <time>2018-10-28T10:38:06Z</time>
      </trkpt>
      <trkpt lat="45.93483" lon="4.68723">
        <ele>342</ele>
        <time>2018-10-28T10:38:07Z</time>
      </trkpt>
      <trkpt lat="45.93489" lon="4.68724">
        <ele>342</ele>
        <time>2018-10-28T10:38:08Z</time>
      </trkpt>
      <trkpt lat="45.93494" lon="4.68725">
        <ele>342</ele>
        <time>2018-10-28T10:38:09Z</time>
      </trkpt>
      <trkpt lat="45.93498" lon="4.68727">
        <ele>342</ele>
        <time>2018-10-28T10:38:10Z</time>
      </trkpt>
      <trkpt lat="45.93503" lon="4.68728">
        <ele>342</ele>
        <time>2018-10-28T10:38:11Z</time>
      </trkpt>
      <trkpt lat="45.93508" lon="4.68729">
        <ele>342</ele>
        <time>2018-10-28T10:38:12Z</time>
      </trkpt>
      <trkpt lat="45.93514" lon="4.6873">
        <ele>342</ele>
        <time>2018-10-28T10:38:13Z</time>
      </trkpt>
      <trkpt lat="45.93519" lon="4.68729">
        <ele>342</ele>
        <time>2018-10-28T10:38:14Z</time>
      </trkpt>
      <trkpt lat="45.93524" lon="4.68732">
        <ele>342</ele>
        <time>2018-10-28T10:38:15Z</time>
      </trkpt>
      <trkpt lat="45.9353" lon="4.68734">
        <ele>342</ele>
        <time>2018-10-28T10:38:16Z</time>
      </trkpt>
      <trkpt lat="45.93536" lon="4.68734">
        <ele>342</ele>
        <time>2018-10-28T10:38:17Z</time>
      </trkpt>
      <trkpt lat="45.93541" lon="4.68735">
        <ele>342</ele>
        <time>2018-10-28T10:38:18Z</time>
      </trkpt>
      <trkpt lat="45.93546" lon="4.68737">
        <ele>342</ele>
        <time>2018-10-28T10:38:19Z</time>
      </trkpt>
      <trkpt lat="45.9355" lon="4.68738">
        <ele>342</ele>
        <time>2018-10-28T10:38:20Z</time>
      </trkpt>
      <trkpt lat="45.93555" lon="4.68739">
        <ele>342</ele>
        <time>2018-10-28T10:38:21Z</time>
      </trkpt>
      <trkpt lat="45.93561" lon="4.6874">
        <ele>342</ele>
        <time>2018-10-28T10:38:22Z</time>
      </trkpt>
      <trkpt lat="45.93568" lon="4.68741">
        <ele>343</ele>
        <time>2018-10-28T10:38:23Z</time>
      </trkpt>
      <trkpt lat="45.93573" lon="4.68743">
        <ele>343</ele>
        <time>2018-10-28T10:38:24Z</time>
      </trkpt>
      <trkpt lat="45.93579" lon="4.68744">
        <ele>343</ele>
        <time>2018-10-28T10:38:25Z</time>
      </trkpt>
      <trkpt lat="45.93584" lon="4.68746">
        <ele>344</ele>
        <time>2018-10-28T10:38:26Z</time>
      </trkpt>
      <trkpt lat="45.93589" lon="4.68747">
        <ele>343</ele>
        <time>2018-10-28T10:38:27Z</time>
      </trkpt>
      <trkpt lat="45.93595" lon="4.68748">
        <ele>343</ele>
        <time>2018-10-28T10:38:28Z</time>
      </trkpt>
      <trkpt lat="45.936" lon="4.6875">
        <ele>343</ele>
        <time>2018-10-28T10:38:29Z</time>
      </trkpt>
      <trkpt lat="45.93606" lon="4.68751">
        <ele>344</ele>
        <time>2018-10-28T10:38:30Z</time>
      </trkpt>
      <trkpt lat="45.93611" lon="4.68753">
        <ele>344</ele>
        <time>2018-10-28T10:38:31Z</time>
      </trkpt>
      <trkpt lat="45.93615" lon="4.68754">
        <ele>343</ele>
        <time>2018-10-28T10:38:32Z</time>
      </trkpt>
      <trkpt lat="45.9362" lon="4.68755">
        <ele>343</ele>
        <time>2018-10-28T10:38:33Z</time>
      </trkpt>
      <trkpt lat="45.93625" lon="4.68756">
        <ele>343</ele>
        <time>2018-10-28T10:38:34Z</time>
      </trkpt>
      <trkpt lat="45.93629" lon="4.68758">
        <ele>343</ele>
        <time>2018-10-28T10:38:35Z</time>
      </trkpt>
      <trkpt lat="45.93633" lon="4.68759">
        <ele>343</ele>
        <time>2018-10-28T10:38:36Z</time>
      </trkpt>
      <trkpt lat="45.93638" lon="4.68762">
        <ele>343</ele>
        <time>2018-10-28T10:38:37Z</time>
      </trkpt>
      <trkpt lat="45.93642" lon="4.68765">
        <ele>343</ele>
        <time>2018-10-28T10:38:38Z</time>
      </trkpt>
      <trkpt lat="45.93648" lon="4.68767">
        <ele>343</ele>
        <time>2018-10-28T10:38:39Z</time>
      </trkpt>
      <trkpt lat="45.93653" lon="4.68769">
        <ele>343</ele>
        <time>2018-10-28T10:38:40Z</time>
      </trkpt>
      <trkpt lat="45.93658" lon="4.6877">
        <ele>343</ele>
        <time>2018-10-28T10:38:41Z</time>
      </trkpt>
      <trkpt lat="45.93663" lon="4.6877">
        <ele>343</ele>
        <time>2018-10-28T10:38:42Z</time>
      </trkpt>
      <trkpt lat="45.93669" lon="4.68771">
        <ele>342</ele>
        <time>2018-10-28T10:38:43Z</time>
      </trkpt>
      <trkpt lat="45.93673" lon="4.68773">
        <ele>342</ele>
        <time>2018-10-28T10:38:44Z</time>
      </trkpt>
      <trkpt lat="45.93677" lon="4.68775">
        <ele>342</ele>
        <time>2018-10-28T10:38:45Z</time>
      </trkpt>
      <trkpt lat="45.93683" lon="4.68776">
        <ele>342</ele>
        <time>2018-10-28T10:38:46Z</time>
      </trkpt>
      <trkpt lat="45.93688" lon="4.68777">
        <ele>342</ele>
        <time>2018-10-28T10:38:47Z</time>
      </trkpt>
      <trkpt lat="45.93693" lon="4.68779">
        <ele>342</ele>
        <time>2018-10-28T10:38:48Z</time>
      </trkpt>
      <trkpt lat="45.93699" lon="4.6878">
        <ele>342</ele>
        <time>2018-10-28T10:38:49Z</time>
      </trkpt>
      <trkpt lat="45.93705" lon="4.68782">
        <ele>342</ele>
        <time>2018-10-28T10:38:50Z</time>
      </trkpt>
      <trkpt lat="45.93711" lon="4.68783">
        <ele>342</ele>
        <time>2018-10-28T10:38:51Z</time>
      </trkpt>
      <trkpt lat="45.93716" lon="4.68784">
        <ele>342</ele>
        <time>2018-10-28T10:38:52Z</time>
      </trkpt>
      <trkpt lat="45.93721" lon="4.68786">
        <ele>342</ele>
        <time>2018-10-28T10:38:53Z</time>
      </trkpt>
      <trkpt lat="45.93727" lon="4.68787">
        <ele>342</ele>
        <time>2018-10-28T10:38:54Z</time>
      </trkpt>
      <trkpt lat="45.93734" lon="4.68788">
        <ele>342</ele>
        <time>2018-10-28T10:38:55Z</time>
      </trkpt>
      <trkpt lat="45.93738" lon="4.68789">
        <ele>342</ele>
        <time>2018-10-28T10:38:56Z</time>
      </trkpt>
      <trkpt lat="45.93743" lon="4.68791">
        <ele>342</ele>
        <time>2018-10-28T10:38:57Z</time>
      </trkpt>
      <trkpt lat="45.93749" lon="4.68792">
        <ele>342</ele>
        <time>2018-10-28T10:38:58Z</time>
      </trkpt>
      <trkpt lat="45.93753" lon="4.68793">
        <ele>341</ele>
        <time>2018-10-28T10:38:59Z</time>
      </trkpt>
      <trkpt lat="45.93757" lon="4.68795">
        <ele>341</ele>
        <time>2018-10-28T10:39:00Z</time>
      </trkpt>
      <trkpt lat="45.93763" lon="4.68797">
        <ele>341</ele>
        <time>2018-10-28T10:39:01Z</time>
      </trkpt>
      <trkpt lat="45.93767" lon="4.68797">
        <ele>341</ele>
        <time>2018-10-28T10:39:02Z</time>
      </trkpt>
      <trkpt lat="45.93773" lon="4.68799">
        <ele>341</ele>
        <time>2018-10-28T10:39:03Z</time>
      </trkpt>
      <trkpt lat="45.93778" lon="4.68803">
        <ele>341</ele>
        <time>2018-10-28T10:39:04Z</time>
      </trkpt>
      <trkpt lat="45.93784" lon="4.68805">
        <ele>341</ele>
        <time>2018-10-28T10:39:05Z</time>
      </trkpt>
      <trkpt lat="45.93788" lon="4.68809">
        <ele>341</ele>
        <time>2018-10-28T10:39:06Z</time>
      </trkpt>
      <trkpt lat="45.93793" lon="4.68812">
        <ele>341</ele>
        <time>2018-10-28T10:39:07Z</time>
      </trkpt>
      <trkpt lat="45.93798" lon="4.68816">
        <ele>341</ele>
        <time>2018-10-28T10:39:08Z</time>
      </trkpt>
      <trkpt lat="45.93804" lon="4.6882">
        <ele>341</ele>
        <time>2018-10-28T10:39:09Z</time>
      </trkpt>
      <trkpt lat="45.93811" lon="4.68823">
        <ele>341</ele>
        <time>2018-10-28T10:39:10Z</time>
      </trkpt>
      <trkpt lat="45.93817" lon="4.68826">
        <ele>341</ele>
        <time>2018-10-28T10:39:11Z</time>
      </trkpt>
      <trkpt lat="45.93822" lon="4.68829">
        <ele>342</ele>
        <time>2018-10-28T10:39:12Z</time>
      </trkpt>
      <trkpt lat="45.93828" lon="4.68833">
        <ele>342</ele>
        <time>2018-10-28T10:39:13Z</time>
      </trkpt>
      <trkpt lat="45.93834" lon="4.68836">
        <ele>342</ele>
        <time>2018-10-28T10:39:14Z</time>
      </trkpt>
      <trkpt lat="45.93839" lon="4.68841">
        <ele>342</ele>
        <time>2018-10-28T10:39:15Z</time>
      </trkpt>
      <trkpt lat="45.93844" lon="4.68844">
        <ele>342</ele>
        <time>2018-10-28T10:39:16Z</time>
      </trkpt>
      <trkpt lat="45.93848" lon="4.68848">
        <ele>342</ele>
        <time>2018-10-28T10:39:17Z</time>
      </trkpt>
      <trkpt lat="45.93854" lon="4.68852">
        <ele>342</ele>
        <time>2018-10-28T10:39:18Z</time>
      </trkpt>
      <trkpt lat="45.93859" lon="4.68856">
        <ele>342</ele>
        <time>2018-10-28T10:39:19Z</time>
      </trkpt>
      <trkpt lat="45.93864" lon="4.68859">
        <ele>342</ele>
        <time>2018-10-28T10:39:20Z</time>
      </trkpt>
      <trkpt lat="45.93868" lon="4.68863">
        <ele>342</ele>
        <time>2018-10-28T10:39:21Z</time>
      </trkpt>
      <trkpt lat="45.93873" lon="4.68867">
        <ele>342</ele>
        <time>2018-10-28T10:39:22Z</time>
      </trkpt>
      <trkpt lat="45.93878" lon="4.6887">
        <ele>343</ele>
        <time>2018-10-28T10:39:23Z</time>
      </trkpt>
      <trkpt lat="45.93883" lon="4.68872">
        <ele>343</ele>
        <time>2018-10-28T10:39:24Z</time>
      </trkpt>
      <trkpt lat="45.93888" lon="4.68873">
        <ele>343</ele>
        <time>2018-10-28T10:39:25Z</time>
      </trkpt>
      <trkpt lat="45.93892" lon="4.68877">
        <ele>342</ele>
        <time>2018-10-28T10:39:26Z</time>
      </trkpt>
      <trkpt lat="45.93897" lon="4.6888">
        <ele>342</ele>
        <time>2018-10-28T10:39:27Z</time>
      </trkpt>
      <trkpt lat="45.93902" lon="4.68881">
        <ele>342</ele>
        <time>2018-10-28T10:39:28Z</time>
      </trkpt>
      <trkpt lat="45.93906" lon="4.68883">
        <ele>342</ele>
        <time>2018-10-28T10:39:29Z</time>
      </trkpt>
      <trkpt lat="45.93912" lon="4.68884">
        <ele>342</ele>
        <time>2018-10-28T10:39:30Z</time>
      </trkpt>
      <trkpt lat="45.93916" lon="4.68885">
        <ele>342</ele>
        <time>2018-10-28T10:39:31Z</time>
      </trkpt>
      <trkpt lat="45.93921" lon="4.68886">
        <ele>342</ele>
        <time>2018-10-28T10:39:32Z</time>
      </trkpt>
      <trkpt lat="45.93926" lon="4.68887">
        <ele>342</ele>
        <time>2018-10-28T10:39:33Z</time>
      </trkpt>
      <trkpt lat="45.9393" lon="4.68889">
        <ele>342</ele>
        <time>2018-10-28T10:39:34Z</time>
      </trkpt>
      <trkpt lat="45.93935" lon="4.68891">
        <ele>342</ele>
        <time>2018-10-28T10:39:35Z</time>
      </trkpt>
      <trkpt lat="45.9394" lon="4.68893">
        <ele>342</ele>
        <time>2018-10-28T10:39:36Z</time>
      </trkpt>
      <trkpt lat="45.93944" lon="4.68893">
        <ele>342</ele>
        <time>2018-10-28T10:39:37Z</time>
      </trkpt>
      <trkpt lat="45.93953" lon="4.68896">
        <ele>342</ele>
        <time>2018-10-28T10:39:39Z</time>
      </trkpt>
      <trkpt lat="45.93958" lon="4.68898">
        <ele>342</ele>
        <time>2018-10-28T10:39:40Z</time>
      </trkpt>
      <trkpt lat="45.93966" lon="4.68902">
        <ele>342</ele>
        <time>2018-10-28T10:39:42Z</time>
      </trkpt>
      <trkpt lat="45.93972" lon="4.68904">
        <ele>342</ele>
        <time>2018-10-28T10:39:43Z</time>
      </trkpt>
      <trkpt lat="45.93977" lon="4.68905">
        <ele>342</ele>
        <time>2018-10-28T10:39:44Z</time>
      </trkpt>
      <trkpt lat="45.93982" lon="4.68908">
        <ele>342</ele>
        <time>2018-10-28T10:39:45Z</time>
      </trkpt>
      <trkpt lat="45.93987" lon="4.68908">
        <ele>342</ele>
        <time>2018-10-28T10:39:46Z</time>
      </trkpt>
      <trkpt lat="45.93993" lon="4.6891">
        <ele>342</ele>
        <time>2018-10-28T10:39:47Z</time>
      </trkpt>
      <trkpt lat="45.93998" lon="4.6891">
        <ele>342</ele>
        <time>2018-10-28T10:39:48Z</time>
      </trkpt>
      <trkpt lat="45.94004" lon="4.68911">
        <ele>342</ele>
        <time>2018-10-28T10:39:49Z</time>
      </trkpt>
      <trkpt lat="45.94009" lon="4.68914">
        <ele>341</ele>
        <time>2018-10-28T10:39:50Z</time>
      </trkpt>
      <trkpt lat="45.94014" lon="4.68917">
        <ele>342</ele>
        <time>2018-10-28T10:39:51Z</time>
      </trkpt>
      <trkpt lat="45.9402" lon="4.6892">
        <ele>341</ele>
        <time>2018-10-28T10:39:52Z</time>
      </trkpt>
      <trkpt lat="45.94025" lon="4.68922">
        <ele>341</ele>
        <time>2018-10-28T10:39:53Z</time>
      </trkpt>
      <trkpt lat="45.9403" lon="4.68925">
        <ele>341</ele>
        <time>2018-10-28T10:39:54Z</time>
      </trkpt>
      <trkpt lat="45.94035" lon="4.68928">
        <ele>341</ele>
        <time>2018-10-28T10:39:55Z</time>
      </trkpt>
      <trkpt lat="45.9404" lon="4.68929">
        <ele>341</ele>
        <time>2018-10-28T10:39:56Z</time>
      </trkpt>
      <trkpt lat="45.94046" lon="4.68931">
        <ele>341</ele>
        <time>2018-10-28T10:39:57Z</time>
      </trkpt>
      <trkpt lat="45.94052" lon="4.68934">
        <ele>341</ele>
        <time>2018-10-28T10:39:58Z</time>
      </trkpt>
      <trkpt lat="45.94057" lon="4.68938">
        <ele>341</ele>
        <time>2018-10-28T10:39:59Z</time>
      </trkpt>
      <trkpt lat="45.94062" lon="4.68942">
        <ele>341</ele>
        <time>2018-10-28T10:40:00Z</time>
      </trkpt>
      <trkpt lat="45.94067" lon="4.68945">
        <ele>341</ele>
        <time>2018-10-28T10:40:01Z</time>
      </trkpt>
      <trkpt lat="45.94072" lon="4.68948">
        <ele>341</ele>
        <time>2018-10-28T10:40:02Z</time>
      </trkpt>
      <trkpt lat="45.94077" lon="4.6895">
        <ele>341</ele>
        <time>2018-10-28T10:40:03Z</time>
      </trkpt>
      <trkpt lat="45.94082" lon="4.68951">
        <ele>341</ele>
        <time>2018-10-28T10:40:04Z</time>
      </trkpt>
      <trkpt lat="45.94088" lon="4.68951">
        <ele>340</ele>
        <time>2018-10-28T10:40:05Z</time>
      </trkpt>
      <trkpt lat="45.94092" lon="4.68952">
        <ele>340</ele>
        <time>2018-10-28T10:40:06Z</time>
      </trkpt>
      <trkpt lat="45.94098" lon="4.68952">
        <ele>340</ele>
        <time>2018-10-28T10:40:07Z</time>
      </trkpt>
      <trkpt lat="45.94103" lon="4.68954">
        <ele>340</ele>
        <time>2018-10-28T10:40:08Z</time>
      </trkpt>
      <trkpt lat="45.94108" lon="4.68956">
        <ele>340</ele>
        <time>2018-10-28T10:40:09Z</time>
      </trkpt>
      <trkpt lat="45.94113" lon="4.68958">
        <ele>340</ele>
        <time>2018-10-28T10:40:10Z</time>
      </trkpt>
      <trkpt lat="45.94118" lon="4.68959">
        <ele>340</ele>
        <time>2018-10-28T10:40:11Z</time>
      </trkpt>
      <trkpt lat="45.94123" lon="4.68961">
        <ele>340</ele>
        <time>2018-10-28T10:40:12Z</time>
      </trkpt>
      <trkpt lat="45.94127" lon="4.68963">
        <ele>340</ele>
        <time>2018-10-28T10:40:13Z</time>
      </trkpt>
      <trkpt lat="45.94133" lon="4.68965">
        <ele>340</ele>
        <time>2018-10-28T10:40:14Z</time>
      </trkpt>
      <trkpt lat="45.94138" lon="4.68967">
        <ele>340</ele>
        <time>2018-10-28T10:40:15Z</time>
      </trkpt>
      <trkpt lat="45.94144" lon="4.68969">
        <ele>340</ele>
        <time>2018-10-28T10:40:16Z</time>
      </trkpt>
      <trkpt lat="45.9415" lon="4.6897">
        <ele>340</ele>
        <time>2018-10-28T10:40:17Z</time>
      </trkpt>
      <trkpt lat="45.94155" lon="4.68972">
        <ele>340</ele>
        <time>2018-10-28T10:40:18Z</time>
      </trkpt>
      <trkpt lat="45.94161" lon="4.68974">
        <ele>340</ele>
        <time>2018-10-28T10:40:19Z</time>
      </trkpt>
      <trkpt lat="45.94167" lon="4.68976">
        <ele>339</ele>
        <time>2018-10-28T10:40:20Z</time>
      </trkpt>
      <trkpt lat="45.94174" lon="4.68979">
        <ele>339</ele>
        <time>2018-10-28T10:40:21Z</time>
      </trkpt>
      <trkpt lat="45.94179" lon="4.68981">
        <ele>339</ele>
        <time>2018-10-28T10:40:22Z</time>
      </trkpt>
      <trkpt lat="45.94186" lon="4.68983">
        <ele>339</ele>
        <time>2018-10-28T10:40:23Z</time>
      </trkpt>
      <trkpt lat="45.94192" lon="4.68986">
        <ele>338</ele>
        <time>2018-10-28T10:40:24Z</time>
      </trkpt>
      <trkpt lat="45.94198" lon="4.68987">
        <ele>338</ele>
        <time>2018-10-28T10:40:25Z</time>
      </trkpt>
      <trkpt lat="45.94205" lon="4.68989">
        <ele>338</ele>
        <time>2018-10-28T10:40:26Z</time>
      </trkpt>
      <trkpt lat="45.94211" lon="4.68991">
        <ele>338</ele>
        <time>2018-10-28T10:40:27Z</time>
      </trkpt>
      <trkpt lat="45.94217" lon="4.68991">
        <ele>338</ele>
        <time>2018-10-28T10:40:28Z</time>
      </trkpt>
      <trkpt lat="45.94223" lon="4.68993">
        <ele>338</ele>
        <time>2018-10-28T10:40:29Z</time>
      </trkpt>
      <trkpt lat="45.94229" lon="4.68994">
        <ele>338</ele>
        <time>2018-10-28T10:40:30Z</time>
      </trkpt>
      <trkpt lat="45.94234" lon="4.68995">
        <ele>338</ele>
        <time>2018-10-28T10:40:31Z</time>
      </trkpt>
      <trkpt lat="45.94238" lon="4.68996">
        <ele>338</ele>
        <time>2018-10-28T10:40:32Z</time>
      </trkpt>
      <trkpt lat="45.94244" lon="4.68994">
        <ele>338</ele>
        <time>2018-10-28T10:40:33Z</time>
      </trkpt>
      <trkpt lat="45.94249" lon="4.68996">
        <ele>338</ele>
        <time>2018-10-28T10:40:34Z</time>
      </trkpt>
      <trkpt lat="45.94253" lon="4.68996">
        <ele>338</ele>
        <time>2018-10-28T10:40:35Z</time>
      </trkpt>
      <trkpt lat="45.94259" lon="4.68998">
        <ele>337</ele>
        <time>2018-10-28T10:40:36Z</time>
      </trkpt>
      <trkpt lat="45.94264" lon="4.68998">
        <ele>337</ele>
        <time>2018-10-28T10:40:37Z</time>
      </trkpt>
      <trkpt lat="45.94269" lon="4.68998">
        <ele>337</ele>
        <time>2018-10-28T10:40:38Z</time>
      </trkpt>
      <trkpt lat="45.94274" lon="4.68998">
        <ele>337</ele>
        <time>2018-10-28T10:40:39Z</time>
      </trkpt>
      <trkpt lat="45.94279" lon="4.69">
        <ele>337</ele>
        <time>2018-10-28T10:40:40Z</time>
      </trkpt>
      <trkpt lat="45.94284" lon="4.69001">
        <ele>337</ele>
        <time>2018-10-28T10:40:41Z</time>
      </trkpt>
      <trkpt lat="45.94289" lon="4.69001">
        <ele>337</ele>
        <time>2018-10-28T10:40:42Z</time>
      </trkpt>
      <trkpt lat="45.94294" lon="4.69002">
        <ele>337</ele>
        <time>2018-10-28T10:40:43Z</time>
      </trkpt>
      <trkpt lat="45.94299" lon="4.69002">
        <ele>337</ele>
        <time>2018-10-28T10:40:44Z</time>
      </trkpt>
      <trkpt lat="45.94304" lon="4.69003">
        <ele>337</ele>
        <time>2018-10-28T10:40:45Z</time>
      </trkpt>
      <trkpt lat="45.94309" lon="4.69004">
        <ele>337</ele>
        <time>2018-10-28T10:40:46Z</time>
      </trkpt>
      <trkpt lat="45.94314" lon="4.69004">
        <ele>337</ele>
        <time>2018-10-28T10:40:47Z</time>
      </trkpt>
      <trkpt lat="45.94319" lon="4.69005">
        <ele>337</ele>
        <time>2018-10-28T10:40:48Z</time>
      </trkpt>
      <trkpt lat="45.94324" lon="4.69006">
        <ele>337</ele>
        <time>2018-10-28T10:40:49Z</time>
      </trkpt>
      <trkpt lat="45.94329" lon="4.69007">
        <ele>337</ele>
        <time>2018-10-28T10:40:50Z</time>
      </trkpt>
      <trkpt lat="45.94335" lon="4.69007">
        <ele>337</ele>
        <time>2018-10-28T10:40:51Z</time>
      </trkpt>
      <trkpt lat="45.9434" lon="4.69008">
        <ele>337</ele>
        <time>2018-10-28T10:40:52Z</time>
      </trkpt>
      <trkpt lat="45.94344" lon="4.69008">
        <ele>338</ele>
        <time>2018-10-28T10:40:53Z</time>
      </trkpt>
      <trkpt lat="45.94349" lon="4.69009">
        <ele>338</ele>
        <time>2018-10-28T10:40:54Z</time>
      </trkpt>
      <trkpt lat="45.94354" lon="4.69008">
        <ele>338</ele>
        <time>2018-10-28T10:40:55Z</time>
      </trkpt>
      <trkpt lat="45.94363" lon="4.69006">
        <ele>338</ele>
        <time>2018-10-28T10:40:57Z</time>
      </trkpt>
      <trkpt lat="45.94368" lon="4.69007">
        <ele>338</ele>
        <time>2018-10-28T10:40:58Z</time>
      </trkpt>
      <trkpt lat="45.94372" lon="4.69007">
        <ele>338</ele>
        <time>2018-10-28T10:40:59Z</time>
      </trkpt>
      <trkpt lat="45.94377" lon="4.69007">
        <ele>338</ele>
        <time>2018-10-28T10:41:00Z</time>
      </trkpt>
      <trkpt lat="45.94385" lon="4.69008">
        <ele>338</ele>
        <time>2018-10-28T10:41:02Z</time>
      </trkpt>
      <trkpt lat="45.9439" lon="4.69006">
        <ele>338</ele>
        <time>2018-10-28T10:41:03Z</time>
      </trkpt>
      <trkpt lat="45.94399" lon="4.69005">
        <ele>339</ele>
        <time>2018-10-28T10:41:05Z</time>
      </trkpt>
      <trkpt lat="45.94403" lon="4.69005">
        <ele>339</ele>
        <time>2018-10-28T10:41:06Z</time>
      </trkpt>
      <trkpt lat="45.94411" lon="4.69006">
        <ele>339</ele>
        <time>2018-10-28T10:41:08Z</time>
      </trkpt>
      <trkpt lat="45.94416" lon="4.69007">
        <ele>339</ele>
        <time>2018-10-28T10:41:09Z</time>
      </trkpt>
      <trkpt lat="45.94418" lon="4.69006">
        <ele>339</ele>
        <time>2018-10-28T10:41:10Z</time>
      </trkpt>
      <trkpt lat="45.94426" lon="4.69004">
        <ele>340</ele>
        <time>2018-10-28T10:41:11Z</time>
      </trkpt>
      <trkpt lat="45.94434" lon="4.69004">
        <ele>340</ele>
        <time>2018-10-28T10:41:13Z</time>
      </trkpt>
      <trkpt lat="45.94438" lon="4.69002">
        <ele>340</ele>
        <time>2018-10-28T10:41:14Z</time>
      </trkpt>
      <trkpt lat="45.94446" lon="4.69003">
        <ele>340</ele>
        <time>2018-10-28T10:41:16Z</time>
      </trkpt>
      <trkpt lat="45.9445" lon="4.69002">
        <ele>340</ele>
        <time>2018-10-28T10:41:17Z</time>
      </trkpt>
      <trkpt lat="45.94458" lon="4.69002">
        <ele>340</ele>
        <time>2018-10-28T10:41:19Z</time>
      </trkpt>
      <trkpt lat="45.94462" lon="4.69004">
        <ele>341</ele>
        <time>2018-10-28T10:41:20Z</time>
      </trkpt>
      <trkpt lat="45.94469" lon="4.69007">
        <ele>341</ele>
        <time>2018-10-28T10:41:22Z</time>
      </trkpt>
      <trkpt lat="45.94474" lon="4.69008">
        <ele>341</ele>
        <time>2018-10-28T10:41:23Z</time>
      </trkpt>
      <trkpt lat="45.94478" lon="4.69008">
        <ele>341</ele>
        <time>2018-10-28T10:41:24Z</time>
      </trkpt>
      <trkpt lat="45.94483" lon="4.6901">
        <ele>341</ele>
        <time>2018-10-28T10:41:25Z</time>
      </trkpt>
      <trkpt lat="45.94487" lon="4.69011">
        <ele>341</ele>
        <time>2018-10-28T10:41:26Z</time>
      </trkpt>
      <trkpt lat="45.94491" lon="4.69012">
        <ele>341</ele>
        <time>2018-10-28T10:41:27Z</time>
      </trkpt>
      <trkpt lat="45.94496" lon="4.69013">
        <ele>341</ele>
        <time>2018-10-28T10:41:28Z</time>
      </trkpt>
      <trkpt lat="45.94501" lon="4.69014">
        <ele>341</ele>
        <time>2018-10-28T10:41:29Z</time>
      </trkpt>
      <trkpt lat="45.94509" lon="4.69016">
        <ele>342</ele>
        <time>2018-10-28T10:41:31Z</time>
      </trkpt>
      <trkpt lat="45.94513" lon="4.69017">
        <ele>342</ele>
        <time>2018-10-28T10:41:32Z</time>
      </trkpt>
      <trkpt lat="45.94522" lon="4.69019">
        <ele>342</ele>
        <time>2018-10-28T10:41:34Z</time>
      </trkpt>
      <trkpt lat="45.94526" lon="4.6902">
        <ele>342</ele>
        <time>2018-10-28T10:41:35Z</time>
      </trkpt>
      <trkpt lat="45.94534" lon="4.69023">
        <ele>342</ele>
        <time>2018-10-28T10:41:37Z</time>
      </trkpt>
      <trkpt lat="45.94539" lon="4.69025">
        <ele>342</ele>
        <time>2018-10-28T10:41:38Z</time>
      </trkpt>
      <trkpt lat="45.94548" lon="4.69026">
        <ele>342</ele>
        <time>2018-10-28T10:41:40Z</time>
      </trkpt>
      <trkpt lat="45.94552" lon="4.69027">
        <ele>342</ele>
        <time>2018-10-28T10:41:41Z</time>
      </trkpt>
      <trkpt lat="45.9456" lon="4.6903">
        <ele>342</ele>
        <time>2018-10-28T10:41:43Z</time>
      </trkpt>
      <trkpt lat="45.94564" lon="4.69031">
        <ele>342</ele>
        <time>2018-10-28T10:41:44Z</time>
      </trkpt>
      <trkpt lat="45.94573" lon="4.69033">
        <ele>342</ele>
        <time>2018-10-28T10:41:46Z</time>
      </trkpt>
      <trkpt lat="45.94577" lon="4.69035">
        <ele>342</ele>
        <time>2018-10-28T10:41:47Z</time>
      </trkpt>
      <trkpt lat="45.94586" lon="4.69038">
        <ele>342</ele>
        <time>2018-10-28T10:41:49Z</time>
      </trkpt>
      <trkpt lat="45.9459" lon="4.69039">
        <ele>342</ele>
        <time>2018-10-28T10:41:50Z</time>
      </trkpt>
      <trkpt lat="45.94598" lon="4.69042">
        <ele>342</ele>
        <time>2018-10-28T10:41:52Z</time>
      </trkpt>
      <trkpt lat="45.94603" lon="4.69043">
        <ele>342</ele>
        <time>2018-10-28T10:41:53Z</time>
      </trkpt>
      <trkpt lat="45.94612" lon="4.69046">
        <ele>342</ele>
        <time>2018-10-28T10:41:55Z</time>
      </trkpt>
      <trkpt lat="45.94616" lon="4.69047">
        <ele>342</ele>
        <time>2018-10-28T10:41:56Z</time>
      </trkpt>
      <trkpt lat="45.94624" lon="4.6905">
        <ele>342</ele>
        <time>2018-10-28T10:41:58Z</time>
      </trkpt>
      <trkpt lat="45.94629" lon="4.69052">
        <ele>342</ele>
        <time>2018-10-28T10:41:59Z</time>
      </trkpt>
      <trkpt lat="45.94637" lon="4.69055">
        <ele>342</ele>
        <time>2018-10-28T10:42:01Z</time>
      </trkpt>
      <trkpt lat="45.94641" lon="4.69056">
        <ele>342</ele>
        <time>2018-10-28T10:42:02Z</time>
      </trkpt>
      <trkpt lat="45.9465" lon="4.6906">
        <ele>342</ele>
        <time>2018-10-28T10:42:04Z</time>
      </trkpt>
      <trkpt lat="45.94654" lon="4.69061">
        <ele>342</ele>
        <time>2018-10-28T10:42:05Z</time>
      </trkpt>
      <trkpt lat="45.94661" lon="4.69065">
        <ele>342</ele>
        <time>2018-10-28T10:42:07Z</time>
      </trkpt>
      <trkpt lat="45.94666" lon="4.69067">
        <ele>342</ele>
        <time>2018-10-28T10:42:08Z</time>
      </trkpt>
      <trkpt lat="45.94674" lon="4.6907">
        <ele>342</ele>
        <time>2018-10-28T10:42:10Z</time>
      </trkpt>
      <trkpt lat="45.94678" lon="4.69071">
        <ele>342</ele>
        <time>2018-10-28T10:42:11Z</time>
      </trkpt>
      <trkpt lat="45.94683" lon="4.69074">
        <ele>342</ele>
        <time>2018-10-28T10:42:12Z</time>
      </trkpt>
      <trkpt lat="45.94687" lon="4.69075">
        <ele>342</ele>
        <time>2018-10-28T10:42:13Z</time>
      </trkpt>
      <trkpt lat="45.94692" lon="4.69076">
        <ele>342</ele>
        <time>2018-10-28T10:42:14Z</time>
      </trkpt>
      <trkpt lat="45.94697" lon="4.69077">
        <ele>342</ele>
        <time>2018-10-28T10:42:15Z</time>
      </trkpt>
      <trkpt lat="45.94702" lon="4.69079">
        <ele>342</ele>
        <time>2018-10-28T10:42:16Z</time>
      </trkpt>
      <trkpt lat="45.94706" lon="4.6908">
        <ele>343</ele>
        <time>2018-10-28T10:42:17Z</time>
      </trkpt>
      <trkpt lat="45.94711" lon="4.69082">
        <ele>343</ele>
        <time>2018-10-28T10:42:18Z</time>
      </trkpt>
      <trkpt lat="45.94716" lon="4.69083">
        <ele>343</ele>
        <time>2018-10-28T10:42:19Z</time>
      </trkpt>
      <trkpt lat="45.94721" lon="4.69085">
        <ele>344</ele>
        <time>2018-10-28T10:42:20Z</time>
      </trkpt>
      <trkpt lat="45.94725" lon="4.69087">
        <ele>344</ele>
        <time>2018-10-28T10:42:21Z</time>
      </trkpt>
      <trkpt lat="45.94729" lon="4.69089">
        <ele>344</ele>
        <time>2018-10-28T10:42:22Z</time>
      </trkpt>
      <trkpt lat="45.94734" lon="4.6909">
        <ele>344</ele>
        <time>2018-10-28T10:42:23Z</time>
      </trkpt>
      <trkpt lat="45.94742" lon="4.69094">
        <ele>344</ele>
        <time>2018-10-28T10:42:25Z</time>
      </trkpt>
      <trkpt lat="45.94746" lon="4.69095">
        <ele>345</ele>
        <time>2018-10-28T10:42:26Z</time>
      </trkpt>
      <trkpt lat="45.94751" lon="4.69097">
        <ele>345</ele>
        <time>2018-10-28T10:42:27Z</time>
      </trkpt>
      <trkpt lat="45.94755" lon="4.69099">
        <ele>345</ele>
        <time>2018-10-28T10:42:28Z</time>
      </trkpt>
      <trkpt lat="45.9476" lon="4.69101">
        <ele>344</ele>
        <time>2018-10-28T10:42:29Z</time>
      </trkpt>
      <trkpt lat="45.94765" lon="4.69103">
        <ele>344</ele>
        <time>2018-10-28T10:42:30Z</time>
      </trkpt>
      <trkpt lat="45.9477" lon="4.69105">
        <ele>344</ele>
        <time>2018-10-28T10:42:31Z</time>
      </trkpt>
      <trkpt lat="45.94774" lon="4.69106">
        <ele>344</ele>
        <time>2018-10-28T10:42:32Z</time>
      </trkpt>
      <trkpt lat="45.94779" lon="4.69108">
        <ele>344</ele>
        <time>2018-10-28T10:42:33Z</time>
      </trkpt>
      <trkpt lat="45.94784" lon="4.6911">
        <ele>344</ele>
        <time>2018-10-28T10:42:34Z</time>
      </trkpt>
      <trkpt lat="45.94788" lon="4.69112">
        <ele>344</ele>
        <time>2018-10-28T10:42:35Z</time>
      </trkpt>
      <trkpt lat="45.94793" lon="4.69113">
        <ele>344</ele>
        <time>2018-10-28T10:42:36Z</time>
      </trkpt>
      <trkpt lat="45.94798" lon="4.69115">
        <ele>344</ele>
        <time>2018-10-28T10:42:37Z</time>
      </trkpt>
      <trkpt lat="45.94802" lon="4.69116">
        <ele>344</ele>
        <time>2018-10-28T10:42:38Z</time>
      </trkpt>
      <trkpt lat="45.94808" lon="4.69118">
        <ele>344</ele>
        <time>2018-10-28T10:42:39Z</time>
      </trkpt>
      <trkpt lat="45.94813" lon="4.69118">
        <ele>344</ele>
        <time>2018-10-28T10:42:40Z</time>
      </trkpt>
      <trkpt lat="45.94818" lon="4.6912">
        <ele>344</ele>
        <time>2018-10-28T10:42:41Z</time>
      </trkpt>
      <trkpt lat="45.94824" lon="4.69122">
        <ele>344</ele>
        <time>2018-10-28T10:42:42Z</time>
      </trkpt>
      <trkpt lat="45.94829" lon="4.69124">
        <ele>344</ele>
        <time>2018-10-28T10:42:43Z</time>
      </trkpt>
      <trkpt lat="45.94834" lon="4.69126">
        <ele>342</ele>
        <time>2018-10-28T10:42:44Z</time>
      </trkpt>
      <trkpt lat="45.94839" lon="4.69128">
        <ele>342</ele>
        <time>2018-10-28T10:42:45Z</time>
      </trkpt>
      <trkpt lat="45.94845" lon="4.69129">
        <ele>342</ele>
        <time>2018-10-28T10:42:46Z</time>
      </trkpt>
      <trkpt lat="45.9485" lon="4.69132">
        <ele>342</ele>
        <time>2018-10-28T10:42:47Z</time>
      </trkpt>
      <trkpt lat="45.94855" lon="4.69135">
        <ele>342</ele>
        <time>2018-10-28T10:42:48Z</time>
      </trkpt>
      <trkpt lat="45.94862" lon="4.69135">
        <ele>342</ele>
        <time>2018-10-28T10:42:49Z</time>
      </trkpt>
      <trkpt lat="45.94867" lon="4.69137">
        <ele>342</ele>
        <time>2018-10-28T10:42:50Z</time>
      </trkpt>
      <trkpt lat="45.94873" lon="4.69138">
        <ele>342</ele>
        <time>2018-10-28T10:42:51Z</time>
      </trkpt>
      <trkpt lat="45.94879" lon="4.6914">
        <ele>342</ele>
        <time>2018-10-28T10:42:52Z</time>
      </trkpt>
      <trkpt lat="45.94885" lon="4.69142">
        <ele>342</ele>
        <time>2018-10-28T10:42:53Z</time>
      </trkpt>
      <trkpt lat="45.9489" lon="4.69145">
        <ele>342</ele>
        <time>2018-10-28T10:42:54Z</time>
      </trkpt>
      <trkpt lat="45.94895" lon="4.69148">
        <ele>342</ele>
        <time>2018-10-28T10:42:55Z</time>
      </trkpt>
      <trkpt lat="45.94901" lon="4.69151">
        <ele>342</ele>
        <time>2018-10-28T10:42:56Z</time>
      </trkpt>
      <trkpt lat="45.94907" lon="4.69155">
        <ele>342</ele>
        <time>2018-10-28T10:42:57Z</time>
      </trkpt>
      <trkpt lat="45.94913" lon="4.69156">
        <ele>342</ele>
        <time>2018-10-28T10:42:58Z</time>
      </trkpt>
      <trkpt lat="45.94918" lon="4.69159">
        <ele>341</ele>
        <time>2018-10-28T10:42:59Z</time>
      </trkpt>
      <trkpt lat="45.94925" lon="4.6916">
        <ele>341</ele>
        <time>2018-10-28T10:43:00Z</time>
      </trkpt>
      <trkpt lat="45.9493" lon="4.69163">
        <ele>340</ele>
        <time>2018-10-28T10:43:01Z</time>
      </trkpt>
      <trkpt lat="45.94936" lon="4.69166">
        <ele>340</ele>
        <time>2018-10-28T10:43:02Z</time>
      </trkpt>
      <trkpt lat="45.94942" lon="4.69166">
        <ele>339</ele>
        <time>2018-10-28T10:43:03Z</time>
      </trkpt>
      <trkpt lat="45.94949" lon="4.69169">
        <ele>340</ele>
        <time>2018-10-28T10:43:04Z</time>
      </trkpt>
      <trkpt lat="45.94955" lon="4.69174">
        <ele>340</ele>
        <time>2018-10-28T10:43:05Z</time>
      </trkpt>
      <trkpt lat="45.94961" lon="4.6918">
        <ele>340</ele>
        <time>2018-10-28T10:43:06Z</time>
      </trkpt>
      <trkpt lat="45.94967" lon="4.69185">
        <ele>340</ele>
        <time>2018-10-28T10:43:07Z</time>
      </trkpt>
      <trkpt lat="45.94972" lon="4.6919">
        <ele>340</ele>
        <time>2018-10-28T10:43:08Z</time>
      </trkpt>
      <trkpt lat="45.94978" lon="4.69197">
        <ele>340</ele>
        <time>2018-10-28T10:43:09Z</time>
      </trkpt>
      <trkpt lat="45.94984" lon="4.69202">
        <ele>340</ele>
        <time>2018-10-28T10:43:10Z</time>
      </trkpt>
      <trkpt lat="45.9499" lon="4.69206">
        <ele>340</ele>
        <time>2018-10-28T10:43:11Z</time>
      </trkpt>
      <trkpt lat="45.94996" lon="4.69209">
        <ele>340</ele>
        <time>2018-10-28T10:43:12Z</time>
      </trkpt>
      <trkpt lat="45.95003" lon="4.69212">
        <ele>337</ele>
        <time>2018-10-28T10:43:13Z</time>
      </trkpt>
      <trkpt lat="45.95009" lon="4.69215">
        <ele>337</ele>
        <time>2018-10-28T10:43:14Z</time>
      </trkpt>
      <trkpt lat="45.95016" lon="4.6922">
        <ele>337</ele>
        <time>2018-10-28T10:43:15Z</time>
      </trkpt>
      <trkpt lat="45.95023" lon="4.69226">
        <ele>337</ele>
        <time>2018-10-28T10:43:16Z</time>
      </trkpt>
      <trkpt lat="45.95029" lon="4.69232">
        <ele>337</ele>
        <time>2018-10-28T10:43:17Z</time>
      </trkpt>
      <trkpt lat="45.95036" lon="4.6924">
        <ele>336</ele>
        <time>2018-10-28T10:43:18Z</time>
      </trkpt>
      <trkpt lat="45.95042" lon="4.69247">
        <ele>336</ele>
        <time>2018-10-28T10:43:19Z</time>
      </trkpt>
      <trkpt lat="45.95048" lon="4.69254">
        <ele>337</ele>
        <time>2018-10-28T10:43:20Z</time>
      </trkpt>
      <trkpt lat="45.95053" lon="4.6926">
        <ele>336</ele>
        <time>2018-10-28T10:43:21Z</time>
      </trkpt>
      <trkpt lat="45.95059" lon="4.69267">
        <ele>336</ele>
        <time>2018-10-28T10:43:22Z</time>
      </trkpt>
      <trkpt lat="45.95065" lon="4.69274">
        <ele>336</ele>
        <time>2018-10-28T10:43:23Z</time>
      </trkpt>
      <trkpt lat="45.95071" lon="4.6928">
        <ele>336</ele>
        <time>2018-10-28T10:43:24Z</time>
      </trkpt>
      <trkpt lat="45.95076" lon="4.69287">
        <ele>336</ele>
        <time>2018-10-28T10:43:25Z</time>
      </trkpt>
      <trkpt lat="45.95082" lon="4.69294">
        <ele>336</ele>
        <time>2018-10-28T10:43:26Z</time>
      </trkpt>
      <trkpt lat="45.95088" lon="4.69298">
        <ele>334</ele>
        <time>2018-10-28T10:43:27Z</time>
      </trkpt>
      <trkpt lat="45.95093" lon="4.69305">
        <ele>334</ele>
        <time>2018-10-28T10:43:28Z</time>
      </trkpt>
      <trkpt lat="45.95098" lon="4.69311">
        <ele>334</ele>
        <time>2018-10-28T10:43:29Z</time>
      </trkpt>
      <trkpt lat="45.95103" lon="4.69317">
        <ele>334</ele>
        <time>2018-10-28T10:43:30Z</time>
      </trkpt>
      <trkpt lat="45.95108" lon="4.69322">
        <ele>334</ele>
        <time>2018-10-28T10:43:31Z</time>
      </trkpt>
      <trkpt lat="45.95115" lon="4.69328">
        <ele>334</ele>
        <time>2018-10-28T10:43:32Z</time>
      </trkpt>
      <trkpt lat="45.95119" lon="4.69334">
        <ele>336</ele>
        <time>2018-10-28T10:43:33Z</time>
      </trkpt>
      <trkpt lat="45.95123" lon="4.69339">
        <ele>336</ele>
        <time>2018-10-28T10:43:34Z</time>
      </trkpt>
      <trkpt lat="45.95127" lon="4.69344">
        <ele>337</ele>
        <time>2018-10-28T10:43:35Z</time>
      </trkpt>
      <trkpt lat="45.95132" lon="4.69348">
        <ele>337</ele>
        <time>2018-10-28T10:43:36Z</time>
      </trkpt>
      <trkpt lat="45.95137" lon="4.69353">
        <ele>337</ele>
        <time>2018-10-28T10:43:37Z</time>
      </trkpt>
      <trkpt lat="45.95141" lon="4.69358">
        <ele>337</ele>
        <time>2018-10-28T10:43:38Z</time>
      </trkpt>
      <trkpt lat="45.95146" lon="4.69362">
        <ele>337</ele>
        <time>2018-10-28T10:43:39Z</time>
      </trkpt>
      <trkpt lat="45.9515" lon="4.69366">
        <ele>337</ele>
        <time>2018-10-28T10:43:40Z</time>
      </trkpt>
      <trkpt lat="45.95154" lon="4.69371">
        <ele>337</ele>
        <time>2018-10-28T10:43:41Z</time>
      </trkpt>
      <trkpt lat="45.95159" lon="4.69375">
        <ele>337</ele>
        <time>2018-10-28T10:43:42Z</time>
      </trkpt>
      <trkpt lat="45.95163" lon="4.6938">
        <ele>337</ele>
        <time>2018-10-28T10:43:43Z</time>
      </trkpt>
      <trkpt lat="45.95167" lon="4.69384">
        <ele>337</ele>
        <time>2018-10-28T10:43:44Z</time>
      </trkpt>
      <trkpt lat="45.95171" lon="4.69389">
        <ele>337</ele>
        <time>2018-10-28T10:43:45Z</time>
      </trkpt>
      <trkpt lat="45.95174" lon="4.69392">
        <ele>337</ele>
        <time>2018-10-28T10:43:46Z</time>
      </trkpt>
      <trkpt lat="45.95179" lon="4.69395">
        <ele>337</ele>
        <time>2018-10-28T10:43:47Z</time>
      </trkpt>
      <trkpt lat="45.95183" lon="4.69398">
        <ele>337</ele>
        <time>2018-10-28T10:43:48Z</time>
      </trkpt>
      <trkpt lat="45.95188" lon="4.694">
        <ele>337</ele>
        <time>2018-10-28T10:43:49Z</time>
      </trkpt>
      <trkpt lat="45.95192" lon="4.69403">
        <ele>337</ele>
        <time>2018-10-28T10:43:50Z</time>
      </trkpt>
      <trkpt lat="45.95196" lon="4.69407">
        <ele>337</ele>
        <time>2018-10-28T10:43:51Z</time>
      </trkpt>
      <trkpt lat="45.95201" lon="4.6941">
        <ele>337</ele>
        <time>2018-10-28T10:43:52Z</time>
      </trkpt>
      <trkpt lat="45.95206" lon="4.69413">
        <ele>337</ele>
        <time>2018-10-28T10:43:53Z</time>
      </trkpt>
      <trkpt lat="45.9521" lon="4.69416">
        <ele>337</ele>
        <time>2018-10-28T10:43:54Z</time>
      </trkpt>
      <trkpt lat="45.95215" lon="4.69418">
        <ele>340</ele>
        <time>2018-10-28T10:43:55Z</time>
      </trkpt>
      <trkpt lat="45.95221" lon="4.69421">
        <ele>340</ele>
        <time>2018-10-28T10:43:56Z</time>
      </trkpt>
      <trkpt lat="45.95227" lon="4.69423">
        <ele>340</ele>
        <time>2018-10-28T10:43:57Z</time>
      </trkpt>
      <trkpt lat="45.95232" lon="4.69425">
        <ele>340</ele>
        <time>2018-10-28T10:43:58Z</time>
      </trkpt>
      <trkpt lat="45.95237" lon="4.69427">
        <ele>339</ele>
        <time>2018-10-28T10:43:59Z</time>
      </trkpt>
      <trkpt lat="45.95242" lon="4.6943">
        <ele>339</ele>
        <time>2018-10-28T10:44:00Z</time>
      </trkpt>
      <trkpt lat="45.95248" lon="4.69432">
        <ele>339</ele>
        <time>2018-10-28T10:44:01Z</time>
      </trkpt>
      <trkpt lat="45.95253" lon="4.69434">
        <ele>338</ele>
        <time>2018-10-28T10:44:02Z</time>
      </trkpt>
      <trkpt lat="45.95258" lon="4.69436">
        <ele>339</ele>
        <time>2018-10-28T10:44:03Z</time>
      </trkpt>
      <trkpt lat="45.95264" lon="4.69438">
        <ele>339</ele>
        <time>2018-10-28T10:44:04Z</time>
      </trkpt>
      <trkpt lat="45.9527" lon="4.6944">
        <ele>339</ele>
        <time>2018-10-28T10:44:05Z</time>
      </trkpt>
      <trkpt lat="45.95275" lon="4.69443">
        <ele>339</ele>
        <time>2018-10-28T10:44:06Z</time>
      </trkpt>
      <trkpt lat="45.95281" lon="4.69446">
        <ele>339</ele>
        <time>2018-10-28T10:44:07Z</time>
      </trkpt>
      <trkpt lat="45.95285" lon="4.69449">
        <ele>339</ele>
        <time>2018-10-28T10:44:08Z</time>
      </trkpt>
      <trkpt lat="45.9529" lon="4.69452">
        <ele>339</ele>
        <time>2018-10-28T10:44:09Z</time>
      </trkpt>
      <trkpt lat="45.95295" lon="4.69454">
        <ele>338</ele>
        <time>2018-10-28T10:44:10Z</time>
      </trkpt>
      <trkpt lat="45.953" lon="4.69455">
        <ele>338</ele>
        <time>2018-10-28T10:44:11Z</time>
      </trkpt>
      <trkpt lat="45.95304" lon="4.69457">
        <ele>338</ele>
        <time>2018-10-28T10:44:12Z</time>
      </trkpt>
      <trkpt lat="45.9531" lon="4.69459">
        <ele>338</ele>
        <time>2018-10-28T10:44:13Z</time>
      </trkpt>
      <trkpt lat="45.95315" lon="4.69461">
        <ele>338</ele>
        <time>2018-10-28T10:44:14Z</time>
      </trkpt>
      <trkpt lat="45.9532" lon="4.69464">
        <ele>339</ele>
        <time>2018-10-28T10:44:15Z</time>
      </trkpt>
      <trkpt lat="45.95325" lon="4.69466">
        <ele>339</ele>
        <time>2018-10-28T10:44:16Z</time>
      </trkpt>
      <trkpt lat="45.95331" lon="4.69468">
        <ele>339</ele>
        <time>2018-10-28T10:44:17Z</time>
      </trkpt>
      <trkpt lat="45.95335" lon="4.6947">
        <ele>337</ele>
        <time>2018-10-28T10:44:18Z</time>
      </trkpt>
      <trkpt lat="45.95339" lon="4.69473">
        <ele>337</ele>
        <time>2018-10-28T10:44:19Z</time>
      </trkpt>
      <trkpt lat="45.95344" lon="4.69476">
        <ele>337</ele>
        <time>2018-10-28T10:44:20Z</time>
      </trkpt>
      <trkpt lat="45.95349" lon="4.69479">
        <ele>337</ele>
        <time>2018-10-28T10:44:21Z</time>
      </trkpt>
      <trkpt lat="45.95355" lon="4.69482">
        <ele>337</ele>
        <time>2018-10-28T10:44:22Z</time>
      </trkpt>
      <trkpt lat="45.9536" lon="4.69485">
        <ele>337</ele>
        <time>2018-10-28T10:44:23Z</time>
      </trkpt>
      <trkpt lat="45.95364" lon="4.69489">
        <ele>337</ele>
        <time>2018-10-28T10:44:24Z</time>
      </trkpt>
      <trkpt lat="45.9537" lon="4.69491">
        <ele>337</ele>
        <time>2018-10-28T10:44:25Z</time>
      </trkpt>
      <trkpt lat="45.95376" lon="4.69494">
        <ele>337</ele>
        <time>2018-10-28T10:44:26Z</time>
      </trkpt>
      <trkpt lat="45.95379" lon="4.69498">
        <ele>337</ele>
        <time>2018-10-28T10:44:27Z</time>
      </trkpt>
      <trkpt lat="45.95384" lon="4.69501">
        <ele>340</ele>
        <time>2018-10-28T10:44:28Z</time>
      </trkpt>
      <trkpt lat="45.95389" lon="4.69505">
        <ele>340</ele>
        <time>2018-10-28T10:44:29Z</time>
      </trkpt>
      <trkpt lat="45.95395" lon="4.69506">
        <ele>339</ele>
        <time>2018-10-28T10:44:30Z</time>
      </trkpt>
      <trkpt lat="45.95402" lon="4.69512">
        <ele>339</ele>
        <time>2018-10-28T10:44:32Z</time>
      </trkpt>
      <trkpt lat="45.95405" lon="4.69515">
        <ele>339</ele>
        <time>2018-10-28T10:44:33Z</time>
      </trkpt>
      <trkpt lat="45.95413" lon="4.69521">
        <ele>339</ele>
        <time>2018-10-28T10:44:35Z</time>
      </trkpt>
      <trkpt lat="45.95417" lon="4.69524">
        <ele>337</ele>
        <time>2018-10-28T10:44:36Z</time>
      </trkpt>
      <trkpt lat="45.95423" lon="4.69526">
        <ele>337</ele>
        <time>2018-10-28T10:44:37Z</time>
      </trkpt>
      <trkpt lat="45.95427" lon="4.69529">
        <ele>337</ele>
        <time>2018-10-28T10:44:38Z</time>
      </trkpt>
      <trkpt lat="45.95433" lon="4.69532">
        <ele>337</ele>
        <time>2018-10-28T10:44:39Z</time>
      </trkpt>
      <trkpt lat="45.95439" lon="4.69536">
        <ele>337</ele>
        <time>2018-10-28T10:44:40Z</time>
      </trkpt>
      <trkpt lat="45.95444" lon="4.69539">
        <ele>337</ele>
        <time>2018-10-28T10:44:41Z</time>
      </trkpt>
      <trkpt lat="45.95449" lon="4.69543">
        <ele>337</ele>
        <time>2018-10-28T10:44:42Z</time>
      </trkpt>
      <trkpt lat="45.95454" lon="4.69546">
        <ele>337</ele>
        <time>2018-10-28T10:44:43Z</time>
      </trkpt>
      <trkpt lat="45.95459" lon="4.69549">
        <ele>337</ele>
        <time>2018-10-28T10:44:44Z</time>
      </trkpt>
      <trkpt lat="45.95464" lon="4.69551">
        <ele>337</ele>
        <time>2018-10-28T10:44:45Z</time>
      </trkpt>
      <trkpt lat="45.9547" lon="4.69554">
        <ele>337</ele>
        <time>2018-10-28T10:44:46Z</time>
      </trkpt>
      <trkpt lat="45.95475" lon="4.69557">
        <ele>336</ele>
        <time>2018-10-28T10:44:47Z</time>
      </trkpt>
      <trkpt lat="45.9548" lon="4.69559">
        <ele>336</ele>
        <time>2018-10-28T10:44:48Z</time>
      </trkpt>
      <trkpt lat="45.95486" lon="4.6956">
        <ele>336</ele>
        <time>2018-10-28T10:44:49Z</time>
      </trkpt>
      <trkpt lat="45.95491" lon="4.69562">
        <ele>336</ele>
        <time>2018-10-28T10:44:50Z</time>
      </trkpt>
      <trkpt lat="45.95496" lon="4.69564">
        <ele>337</ele>
        <time>2018-10-28T10:44:51Z</time>
      </trkpt>
      <trkpt lat="45.95504" lon="4.69568">
        <ele>334</ele>
        <time>2018-10-28T10:44:52Z</time>
      </trkpt>
      <trkpt lat="45.9551" lon="4.6957">
        <ele>334</ele>
        <time>2018-10-28T10:44:53Z</time>
      </trkpt>
      <trkpt lat="45.95517" lon="4.69571">
        <ele>334</ele>
        <time>2018-10-28T10:44:54Z</time>
      </trkpt>
      <trkpt lat="45.95522" lon="4.69574">
        <ele>333</ele>
        <time>2018-10-28T10:44:55Z</time>
      </trkpt>
      <trkpt lat="45.95527" lon="4.69576">
        <ele>333</ele>
        <time>2018-10-28T10:44:56Z</time>
      </trkpt>
      <trkpt lat="45.95533" lon="4.69579">
        <ele>332</ele>
        <time>2018-10-28T10:44:57Z</time>
      </trkpt>
      <trkpt lat="45.95539" lon="4.69582">
        <ele>332</ele>
        <time>2018-10-28T10:44:58Z</time>
      </trkpt>
      <trkpt lat="45.95545" lon="4.69584">
        <ele>331</ele>
        <time>2018-10-28T10:44:59Z</time>
      </trkpt>
      <trkpt lat="45.95551" lon="4.69587">
        <ele>331</ele>
        <time>2018-10-28T10:45:00Z</time>
      </trkpt>
      <trkpt lat="45.95557" lon="4.69588">
        <ele>330</ele>
        <time>2018-10-28T10:45:01Z</time>
      </trkpt>
      <trkpt lat="45.95563" lon="4.69591">
        <ele>330</ele>
        <time>2018-10-28T10:45:02Z</time>
      </trkpt>
      <trkpt lat="45.95569" lon="4.69593">
        <ele>330</ele>
        <time>2018-10-28T10:45:03Z</time>
      </trkpt>
      <trkpt lat="45.95576" lon="4.69597">
        <ele>329</ele>
        <time>2018-10-28T10:45:04Z</time>
      </trkpt>
      <trkpt lat="45.95583" lon="4.696">
        <ele>329</ele>
        <time>2018-10-28T10:45:05Z</time>
      </trkpt>
      <trkpt lat="45.95589" lon="4.69603">
        <ele>328</ele>
        <time>2018-10-28T10:45:06Z</time>
      </trkpt>
      <trkpt lat="45.95596" lon="4.69605">
        <ele>328</ele>
        <time>2018-10-28T10:45:07Z</time>
      </trkpt>
      <trkpt lat="45.95603" lon="4.69607">
        <ele>328</ele>
        <time>2018-10-28T10:45:08Z</time>
      </trkpt>
      <trkpt lat="45.95609" lon="4.69611">
        <ele>328</ele>
        <time>2018-10-28T10:45:09Z</time>
      </trkpt>
      <trkpt lat="45.95616" lon="4.69614">
        <ele>328</ele>
        <time>2018-10-28T10:45:10Z</time>
      </trkpt>
      <trkpt lat="45.95622" lon="4.69616">
        <ele>328</ele>
        <time>2018-10-28T10:45:11Z</time>
      </trkpt>
      <trkpt lat="45.95629" lon="4.69619">
        <ele>328</ele>
        <time>2018-10-28T10:45:12Z</time>
      </trkpt>
      <trkpt lat="45.95636" lon="4.69623">
        <ele>328</ele>
        <time>2018-10-28T10:45:13Z</time>
      </trkpt>
      <trkpt lat="45.95643" lon="4.69627">
        <ele>328</ele>
        <time>2018-10-28T10:45:14Z</time>
      </trkpt>
      <trkpt lat="45.95649" lon="4.69629">
        <ele>328</ele>
        <time>2018-10-28T10:45:15Z</time>
      </trkpt>
      <trkpt lat="45.95656" lon="4.69633">
        <ele>328</ele>
        <time>2018-10-28T10:45:16Z</time>
      </trkpt>
      <trkpt lat="45.95661" lon="4.69635">
        <ele>327</ele>
        <time>2018-10-28T10:45:17Z</time>
      </trkpt>
      <trkpt lat="45.95667" lon="4.69637">
        <ele>326</ele>
        <time>2018-10-28T10:45:18Z</time>
      </trkpt>
      <trkpt lat="45.95673" lon="4.69639">
        <ele>326</ele>
        <time>2018-10-28T10:45:19Z</time>
      </trkpt>
      <trkpt lat="45.95679" lon="4.69641">
        <ele>326</ele>
        <time>2018-10-28T10:45:20Z</time>
      </trkpt>
      <trkpt lat="45.95685" lon="4.69644">
        <ele>326</ele>
        <time>2018-10-28T10:45:21Z</time>
      </trkpt>
      <trkpt lat="45.95691" lon="4.69646">
        <ele>326</ele>
        <time>2018-10-28T10:45:22Z</time>
      </trkpt>
      <trkpt lat="45.95697" lon="4.69649">
        <ele>326</ele>
        <time>2018-10-28T10:45:23Z</time>
      </trkpt>
      <trkpt lat="45.95703" lon="4.69651">
        <ele>326</ele>
        <time>2018-10-28T10:45:24Z</time>
      </trkpt>
      <trkpt lat="45.95709" lon="4.69654">
        <ele>326</ele>
        <time>2018-10-28T10:45:25Z</time>
      </trkpt>
      <trkpt lat="45.95714" lon="4.69657">
        <ele>326</ele>
        <time>2018-10-28T10:45:26Z</time>
      </trkpt>
      <trkpt lat="45.95721" lon="4.69661">
        <ele>326</ele>
        <time>2018-10-28T10:45:27Z</time>
      </trkpt>
      <trkpt lat="45.95728" lon="4.69663">
        <ele>326</ele>
        <time>2018-10-28T10:45:28Z</time>
      </trkpt>
      <trkpt lat="45.95735" lon="4.69665">
        <ele>326</ele>
        <time>2018-10-28T10:45:29Z</time>
      </trkpt>
      <trkpt lat="45.9574" lon="4.69669">
        <ele>326</ele>
        <time>2018-10-28T10:45:30Z</time>
      </trkpt>
      <trkpt lat="45.95745" lon="4.69672">
        <ele>326</ele>
        <time>2018-10-28T10:45:31Z</time>
      </trkpt>
      <trkpt lat="45.9575" lon="4.69676">
        <ele>326</ele>
        <time>2018-10-28T10:45:32Z</time>
      </trkpt>
      <trkpt lat="45.95755" lon="4.69678">
        <ele>326</ele>
        <time>2018-10-28T10:45:33Z</time>
      </trkpt>
      <trkpt lat="45.9576" lon="4.69682">
        <ele>326</ele>
        <time>2018-10-28T10:45:34Z</time>
      </trkpt>
      <trkpt lat="45.95765" lon="4.69684">
        <ele>326</ele>
        <time>2018-10-28T10:45:35Z</time>
      </trkpt>
      <trkpt lat="45.95771" lon="4.69687">
        <ele>326</ele>
        <time>2018-10-28T10:45:36Z</time>
      </trkpt>
      <trkpt lat="45.95776" lon="4.69691">
        <ele>326</ele>
        <time>2018-10-28T10:45:37Z</time>
      </trkpt>
      <trkpt lat="45.95781" lon="4.69696">
        <ele>326</ele>
        <time>2018-10-28T10:45:38Z</time>
      </trkpt>
      <trkpt lat="45.95786" lon="4.69701">
        <ele>326</ele>
        <time>2018-10-28T10:45:39Z</time>
      </trkpt>
      <trkpt lat="45.9579" lon="4.69707">
        <ele>326</ele>
        <time>2018-10-28T10:45:40Z</time>
      </trkpt>
      <trkpt lat="45.95793" lon="4.69713">
        <ele>326</ele>
        <time>2018-10-28T10:45:41Z</time>
      </trkpt>
      <trkpt lat="45.95797" lon="4.69719">
        <ele>326</ele>
        <time>2018-10-28T10:45:42Z</time>
      </trkpt>
      <trkpt lat="45.95802" lon="4.69726">
        <ele>326</ele>
        <time>2018-10-28T10:45:43Z</time>
      </trkpt>
      <trkpt lat="45.95807" lon="4.69731">
        <ele>326</ele>
        <time>2018-10-28T10:45:44Z</time>
      </trkpt>
      <trkpt lat="45.95811" lon="4.69737">
        <ele>327</ele>
        <time>2018-10-28T10:45:45Z</time>
      </trkpt>
      <trkpt lat="45.95815" lon="4.69743">
        <ele>327</ele>
        <time>2018-10-28T10:45:46Z</time>
      </trkpt>
      <trkpt lat="45.95818" lon="4.69748">
        <ele>327</ele>
        <time>2018-10-28T10:45:47Z</time>
      </trkpt>
      <trkpt lat="45.95822" lon="4.69754">
        <ele>328</ele>
        <time>2018-10-28T10:45:48Z</time>
      </trkpt>
      <trkpt lat="45.95825" lon="4.6976">
        <ele>328</ele>
        <time>2018-10-28T10:45:49Z</time>
      </trkpt>
      <trkpt lat="45.95828" lon="4.69765">
        <ele>328</ele>
        <time>2018-10-28T10:45:50Z</time>
      </trkpt>
      <trkpt lat="45.95832" lon="4.6977">
        <ele>328</ele>
        <time>2018-10-28T10:45:51Z</time>
      </trkpt>
      <trkpt lat="45.95835" lon="4.69775">
        <ele>327</ele>
        <time>2018-10-28T10:45:52Z</time>
      </trkpt>
      <trkpt lat="45.95837" lon="4.69781">
        <ele>327</ele>
        <time>2018-10-28T10:45:53Z</time>
      </trkpt>
      <trkpt lat="45.9584" lon="4.69785">
        <ele>327</ele>
        <time>2018-10-28T10:45:54Z</time>
      </trkpt>
      <trkpt lat="45.95845" lon="4.69796">
        <ele>327</ele>
        <time>2018-10-28T10:45:56Z</time>
      </trkpt>
      <trkpt lat="45.95848" lon="4.69801">
        <ele>327</ele>
        <time>2018-10-28T10:45:57Z</time>
      </trkpt>
      <trkpt lat="45.95851" lon="4.69807">
        <ele>328</ele>
        <time>2018-10-28T10:45:58Z</time>
      </trkpt>
      <trkpt lat="45.95854" lon="4.69813">
        <ele>328</ele>
        <time>2018-10-28T10:45:59Z</time>
      </trkpt>
      <trkpt lat="45.95857" lon="4.6982">
        <ele>328</ele>
        <time>2018-10-28T10:46:00Z</time>
      </trkpt>
      <trkpt lat="45.95861" lon="4.69825">
        <ele>328</ele>
        <time>2018-10-28T10:46:01Z</time>
      </trkpt>
      <trkpt lat="45.95863" lon="4.6983">
        <ele>328</ele>
        <time>2018-10-28T10:46:02Z</time>
      </trkpt>
      <trkpt lat="45.95866" lon="4.69836">
        <ele>329</ele>
        <time>2018-10-28T10:46:03Z</time>
      </trkpt>
      <trkpt lat="45.95869" lon="4.69843">
        <ele>329</ele>
        <time>2018-10-28T10:46:04Z</time>
      </trkpt>
      <trkpt lat="45.95871" lon="4.69851">
        <ele>329</ele>
        <time>2018-10-28T10:46:05Z</time>
      </trkpt>
      <trkpt lat="45.95872" lon="4.69858">
        <ele>329</ele>
        <time>2018-10-28T10:46:06Z</time>
      </trkpt>
      <trkpt lat="45.95874" lon="4.69865">
        <ele>329</ele>
        <time>2018-10-28T10:46:07Z</time>
      </trkpt>
      <trkpt lat="45.95877" lon="4.69876">
        <ele>329</ele>
        <time>2018-10-28T10:46:09Z</time>
      </trkpt>
      <trkpt lat="45.95878" lon="4.69883">
        <ele>329</ele>
        <time>2018-10-28T10:46:10Z</time>
      </trkpt>
      <trkpt lat="45.9588" lon="4.6989">
        <ele>329</ele>
        <time>2018-10-28T10:46:11Z</time>
      </trkpt>
      <trkpt lat="45.9588" lon="4.69896">
        <ele>329</ele>
        <time>2018-10-28T10:46:12Z</time>
      </trkpt>
      <trkpt lat="45.95882" lon="4.69903">
        <ele>329</ele>
        <time>2018-10-28T10:46:13Z</time>
      </trkpt>
      <trkpt lat="45.95884" lon="4.6991">
        <ele>329</ele>
        <time>2018-10-28T10:46:14Z</time>
      </trkpt>
      <trkpt lat="45.95886" lon="4.69917">
        <ele>328</ele>
        <time>2018-10-28T10:46:15Z</time>
      </trkpt>
      <trkpt lat="45.95889" lon="4.69926">
        <ele>328</ele>
        <time>2018-10-28T10:46:16Z</time>
      </trkpt>
      <trkpt lat="45.95891" lon="4.69933">
        <ele>328</ele>
        <time>2018-10-28T10:46:17Z</time>
      </trkpt>
      <trkpt lat="45.95893" lon="4.69942">
        <ele>328</ele>
        <time>2018-10-28T10:46:18Z</time>
      </trkpt>
      <trkpt lat="45.95895" lon="4.69948">
        <ele>328</ele>
        <time>2018-10-28T10:46:19Z</time>
      </trkpt>
      <trkpt lat="45.95896" lon="4.69955">
        <ele>328</ele>
        <time>2018-10-28T10:46:20Z</time>
      </trkpt>
      <trkpt lat="45.95898" lon="4.69962">
        <ele>328</ele>
        <time>2018-10-28T10:46:21Z</time>
      </trkpt>
      <trkpt lat="45.95899" lon="4.6997">
        <ele>328</ele>
        <time>2018-10-28T10:46:22Z</time>
      </trkpt>
      <trkpt lat="45.95901" lon="4.69975">
        <ele>328</ele>
        <time>2018-10-28T10:46:23Z</time>
      </trkpt>
      <trkpt lat="45.95905" lon="4.69982">
        <ele>328</ele>
        <time>2018-10-28T10:46:24Z</time>
      </trkpt>
      <trkpt lat="45.95907" lon="4.69988">
        <ele>328</ele>
        <time>2018-10-28T10:46:25Z</time>
      </trkpt>
      <trkpt lat="45.95908" lon="4.69994">
        <ele>328</ele>
        <time>2018-10-28T10:46:26Z</time>
      </trkpt>
      <trkpt lat="45.95911" lon="4.7">
        <ele>328</ele>
        <time>2018-10-28T10:46:27Z</time>
      </trkpt>
      <trkpt lat="45.95914" lon="4.70008">
        <ele>328</ele>
        <time>2018-10-28T10:46:28Z</time>
      </trkpt>
      <trkpt lat="45.95917" lon="4.70014">
        <ele>328</ele>
        <time>2018-10-28T10:46:29Z</time>
      </trkpt>
      <trkpt lat="45.95919" lon="4.70021">
        <ele>328</ele>
        <time>2018-10-28T10:46:30Z</time>
      </trkpt>
      <trkpt lat="45.95922" lon="4.70028">
        <ele>328</ele>
        <time>2018-10-28T10:46:31Z</time>
      </trkpt>
      <trkpt lat="45.95925" lon="4.70035">
        <ele>328</ele>
        <time>2018-10-28T10:46:32Z</time>
      </trkpt>
      <trkpt lat="45.95928" lon="4.7004">
        <ele>328</ele>
        <time>2018-10-28T10:46:33Z</time>
      </trkpt>
      <trkpt lat="45.95932" lon="4.70047">
        <ele>328</ele>
        <time>2018-10-28T10:46:34Z</time>
      </trkpt>
      <trkpt lat="45.95935" lon="4.70053">
        <ele>328</ele>
        <time>2018-10-28T10:46:35Z</time>
      </trkpt>
      <trkpt lat="45.95938" lon="4.70058">
        <ele>328</ele>
        <time>2018-10-28T10:46:36Z</time>
      </trkpt>
      <trkpt lat="45.95942" lon="4.70064">
        <ele>328</ele>
        <time>2018-10-28T10:46:37Z</time>
      </trkpt>
      <trkpt lat="45.95946" lon="4.70069">
        <ele>328</ele>
        <time>2018-10-28T10:46:38Z</time>
      </trkpt>
      <trkpt lat="45.9595" lon="4.70074">
        <ele>328</ele>
        <time>2018-10-28T10:46:39Z</time>
      </trkpt>
      <trkpt lat="45.95954" lon="4.70079">
        <ele>328</ele>
        <time>2018-10-28T10:46:40Z</time>
      </trkpt>
      <trkpt lat="45.95957" lon="4.70084">
        <ele>328</ele>
        <time>2018-10-28T10:46:41Z</time>
      </trkpt>
      <trkpt lat="45.95961" lon="4.70089">
        <ele>328</ele>
        <time>2018-10-28T10:46:42Z</time>
      </trkpt>
      <trkpt lat="45.95965" lon="4.70093">
        <ele>328</ele>
        <time>2018-10-28T10:46:43Z</time>
      </trkpt>
      <trkpt lat="45.95969" lon="4.70098">
        <ele>328</ele>
        <time>2018-10-28T10:46:44Z</time>
      </trkpt>
      <trkpt lat="45.95972" lon="4.70102">
        <ele>328</ele>
        <time>2018-10-28T10:46:45Z</time>
      </trkpt>
      <trkpt lat="45.95977" lon="4.70107">
        <ele>328</ele>
        <time>2018-10-28T10:46:46Z</time>
      </trkpt>
      <trkpt lat="45.95981" lon="4.70112">
        <ele>328</ele>
        <time>2018-10-28T10:46:47Z</time>
      </trkpt>
      <trkpt lat="45.95985" lon="4.70115">
        <ele>328</ele>
        <time>2018-10-28T10:46:48Z</time>
      </trkpt>
      <trkpt lat="45.95989" lon="4.70119">
        <ele>328</ele>
        <time>2018-10-28T10:46:49Z</time>
      </trkpt>
      <trkpt lat="45.95993" lon="4.70123">
        <ele>328</ele>
        <time>2018-10-28T10:46:50Z</time>
      </trkpt>
      <trkpt lat="45.95996" lon="4.70126">
        <ele>328</ele>
        <time>2018-10-28T10:46:51Z</time>
      </trkpt>
      <trkpt lat="45.96" lon="4.7013">
        <ele>328</ele>
        <time>2018-10-28T10:46:52Z</time>
      </trkpt>
      <trkpt lat="45.96004" lon="4.70134">
        <ele>328</ele>
        <time>2018-10-28T10:46:53Z</time>
      </trkpt>
      <trkpt lat="45.96008" lon="4.70138">
        <ele>328</ele>
        <time>2018-10-28T10:46:54Z</time>
      </trkpt>
      <trkpt lat="45.96012" lon="4.70143">
        <ele>329</ele>
        <time>2018-10-28T10:46:55Z</time>
      </trkpt>
      <trkpt lat="45.96016" lon="4.70147">
        <ele>329</ele>
        <time>2018-10-28T10:46:56Z</time>
      </trkpt>
      <trkpt lat="45.9602" lon="4.70152">
        <ele>329</ele>
        <time>2018-10-28T10:46:57Z</time>
      </trkpt>
      <trkpt lat="45.96024" lon="4.70156">
        <ele>329</ele>
        <time>2018-10-28T10:46:58Z</time>
      </trkpt>
      <trkpt lat="45.96029" lon="4.7016">
        <ele>329</ele>
        <time>2018-10-28T10:46:59Z</time>
      </trkpt>
      <trkpt lat="45.96033" lon="4.70165">
        <ele>329</ele>
        <time>2018-10-28T10:47:00Z</time>
      </trkpt>
      <trkpt lat="45.96038" lon="4.70169">
        <ele>327</ele>
        <time>2018-10-28T10:47:01Z</time>
      </trkpt>
      <trkpt lat="45.96043" lon="4.70173">
        <ele>327</ele>
        <time>2018-10-28T10:47:02Z</time>
      </trkpt>
      <trkpt lat="45.96048" lon="4.70177">
        <ele>327</ele>
        <time>2018-10-28T10:47:03Z</time>
      </trkpt>
      <trkpt lat="45.96054" lon="4.70182">
        <ele>327</ele>
        <time>2018-10-28T10:47:04Z</time>
      </trkpt>
      <trkpt lat="45.96059" lon="4.70186">
        <ele>327</ele>
        <time>2018-10-28T10:47:05Z</time>
      </trkpt>
      <trkpt lat="45.96065" lon="4.7019">
        <ele>327</ele>
        <time>2018-10-28T10:47:06Z</time>
      </trkpt>
      <trkpt lat="45.9607" lon="4.70194">
        <ele>327</ele>
        <time>2018-10-28T10:47:07Z</time>
      </trkpt>
      <trkpt lat="45.96075" lon="4.70198">
        <ele>327</ele>
        <time>2018-10-28T10:47:08Z</time>
      </trkpt>
      <trkpt lat="45.96079" lon="4.70202">
        <ele>327</ele>
        <time>2018-10-28T10:47:09Z</time>
      </trkpt>
      <trkpt lat="45.96085" lon="4.70206">
        <ele>327</ele>
        <time>2018-10-28T10:47:10Z</time>
      </trkpt>
      <trkpt lat="45.96089" lon="4.7021">
        <ele>327</ele>
        <time>2018-10-28T10:47:11Z</time>
      </trkpt>
      <trkpt lat="45.96095" lon="4.70215">
        <ele>327</ele>
        <time>2018-10-28T10:47:12Z</time>
      </trkpt>
      <trkpt lat="45.961" lon="4.70218">
        <ele>327</ele>
        <time>2018-10-28T10:47:13Z</time>
      </trkpt>
      <trkpt lat="45.96105" lon="4.70223">
        <ele>327</ele>
        <time>2018-10-28T10:47:14Z</time>
      </trkpt>
      <trkpt lat="45.96111" lon="4.70227">
        <ele>327</ele>
        <time>2018-10-28T10:47:15Z</time>
      </trkpt>
      <trkpt lat="45.96116" lon="4.70232">
        <ele>327</ele>
        <time>2018-10-28T10:47:16Z</time>
      </trkpt>
      <trkpt lat="45.96121" lon="4.70237">
        <ele>327</ele>
        <time>2018-10-28T10:47:17Z</time>
      </trkpt>
      <trkpt lat="45.96126" lon="4.70242">
        <ele>327</ele>
        <time>2018-10-28T10:47:18Z</time>
      </trkpt>
      <trkpt lat="45.96131" lon="4.70247">
        <ele>327</ele>
        <time>2018-10-28T10:47:19Z</time>
      </trkpt>
      <trkpt lat="45.96136" lon="4.70253">
        <ele>324</ele>
        <time>2018-10-28T10:47:20Z</time>
      </trkpt>
      <trkpt lat="45.96141" lon="4.70258">
        <ele>324</ele>
        <time>2018-10-28T10:47:21Z</time>
      </trkpt>
      <trkpt lat="45.96147" lon="4.70263">
        <ele>324</ele>
        <time>2018-10-28T10:47:22Z</time>
      </trkpt>
      <trkpt lat="45.96151" lon="4.70267">
        <ele>324</ele>
        <time>2018-10-28T10:47:23Z</time>
      </trkpt>
      <trkpt lat="45.96156" lon="4.7027">
        <ele>324</ele>
        <time>2018-10-28T10:47:24Z</time>
      </trkpt>
      <trkpt lat="45.96161" lon="4.70276">
        <ele>324</ele>
        <time>2018-10-28T10:47:25Z</time>
      </trkpt>
      <trkpt lat="45.96166" lon="4.70281">
        <ele>323</ele>
        <time>2018-10-28T10:47:26Z</time>
      </trkpt>
      <trkpt lat="45.9617" lon="4.70287">
        <ele>326</ele>
        <time>2018-10-28T10:47:27Z</time>
      </trkpt>
      <trkpt lat="45.96174" lon="4.70293">
        <ele>326</ele>
        <time>2018-10-28T10:47:28Z</time>
      </trkpt>
      <trkpt lat="45.96178" lon="4.70299">
        <ele>326</ele>
        <time>2018-10-28T10:47:29Z</time>
      </trkpt>
      <trkpt lat="45.96182" lon="4.70304">
        <ele>325</ele>
        <time>2018-10-28T10:47:30Z</time>
      </trkpt>
      <trkpt lat="45.96186" lon="4.7031">
        <ele>325</ele>
        <time>2018-10-28T10:47:31Z</time>
      </trkpt>
      <trkpt lat="45.96191" lon="4.70317">
        <ele>325</ele>
        <time>2018-10-28T10:47:32Z</time>
      </trkpt>
      <trkpt lat="45.96195" lon="4.70323">
        <ele>325</ele>
        <time>2018-10-28T10:47:33Z</time>
      </trkpt>
      <trkpt lat="45.962" lon="4.70329">
        <ele>325</ele>
        <time>2018-10-28T10:47:34Z</time>
      </trkpt>
      <trkpt lat="45.96205" lon="4.70336">
        <ele>321</ele>
        <time>2018-10-28T10:47:35Z</time>
      </trkpt>
      <trkpt lat="45.96209" lon="4.70343">
        <ele>321</ele>
        <time>2018-10-28T10:47:36Z</time>
      </trkpt>
      <trkpt lat="45.96214" lon="4.70349">
        <ele>321</ele>
        <time>2018-10-28T10:47:37Z</time>
      </trkpt>
      <trkpt lat="45.96219" lon="4.70357">
        <ele>321</ele>
        <time>2018-10-28T10:47:38Z</time>
      </trkpt>
      <trkpt lat="45.96224" lon="4.70363">
        <ele>321</ele>
        <time>2018-10-28T10:47:39Z</time>
      </trkpt>
      <trkpt lat="45.96228" lon="4.70371">
        <ele>321</ele>
        <time>2018-10-28T10:47:40Z</time>
      </trkpt>
      <trkpt lat="45.96234" lon="4.70379">
        <ele>320</ele>
        <time>2018-10-28T10:47:41Z</time>
      </trkpt>
      <trkpt lat="45.96239" lon="4.70385">
        <ele>320</ele>
        <time>2018-10-28T10:47:42Z</time>
      </trkpt>
      <trkpt lat="45.96243" lon="4.70392">
        <ele>320</ele>
        <time>2018-10-28T10:47:43Z</time>
      </trkpt>
      <trkpt lat="45.96247" lon="4.70399">
        <ele>320</ele>
        <time>2018-10-28T10:47:44Z</time>
      </trkpt>
      <trkpt lat="45.96251" lon="4.70405">
        <ele>323</ele>
        <time>2018-10-28T10:47:45Z</time>
      </trkpt>
      <trkpt lat="45.96256" lon="4.70411">
        <ele>322</ele>
        <time>2018-10-28T10:47:46Z</time>
      </trkpt>
      <trkpt lat="45.96261" lon="4.70418">
        <ele>320</ele>
        <time>2018-10-28T10:47:47Z</time>
      </trkpt>
      <trkpt lat="45.96265" lon="4.70425">
        <ele>321</ele>
        <time>2018-10-28T10:47:48Z</time>
      </trkpt>
      <trkpt lat="45.9627" lon="4.70432">
        <ele>321</ele>
        <time>2018-10-28T10:47:49Z</time>
      </trkpt>
      <trkpt lat="45.96275" lon="4.70439">
        <ele>321</ele>
        <time>2018-10-28T10:47:50Z</time>
      </trkpt>
      <trkpt lat="45.96279" lon="4.70446">
        <ele>321</ele>
        <time>2018-10-28T10:47:51Z</time>
      </trkpt>
      <trkpt lat="45.96283" lon="4.70453">
        <ele>321</ele>
        <time>2018-10-28T10:47:52Z</time>
      </trkpt>
      <trkpt lat="45.96289" lon="4.70459">
        <ele>321</ele>
        <time>2018-10-28T10:47:53Z</time>
      </trkpt>
      <trkpt lat="45.96294" lon="4.70466">
        <ele>321</ele>
        <time>2018-10-28T10:47:54Z</time>
      </trkpt>
      <trkpt lat="45.96299" lon="4.70472">
        <ele>320</ele>
        <time>2018-10-28T10:47:55Z</time>
      </trkpt>
      <trkpt lat="45.96303" lon="4.70479">
        <ele>320</ele>
        <time>2018-10-28T10:47:56Z</time>
      </trkpt>
      <trkpt lat="45.96308" lon="4.70485">
        <ele>320</ele>
        <time>2018-10-28T10:47:57Z</time>
      </trkpt>
      <trkpt lat="45.96312" lon="4.70493">
        <ele>320</ele>
        <time>2018-10-28T10:47:58Z</time>
      </trkpt>
      <trkpt lat="45.96316" lon="4.70499">
        <ele>320</ele>
        <time>2018-10-28T10:47:59Z</time>
      </trkpt>
      <trkpt lat="45.96321" lon="4.70506">
        <ele>317</ele>
        <time>2018-10-28T10:48:00Z</time>
      </trkpt>
      <trkpt lat="45.96326" lon="4.70512">
        <ele>317</ele>
        <time>2018-10-28T10:48:01Z</time>
      </trkpt>
      <trkpt lat="45.96332" lon="4.70519">
        <ele>316</ele>
        <time>2018-10-28T10:48:02Z</time>
      </trkpt>
      <trkpt lat="45.96337" lon="4.70526">
        <ele>319</ele>
        <time>2018-10-28T10:48:03Z</time>
      </trkpt>
      <trkpt lat="45.96342" lon="4.70533">
        <ele>319</ele>
        <time>2018-10-28T10:48:04Z</time>
      </trkpt>
      <trkpt lat="45.96347" lon="4.7054">
        <ele>318</ele>
        <time>2018-10-28T10:48:05Z</time>
      </trkpt>
      <trkpt lat="45.96352" lon="4.70547">
        <ele>318</ele>
        <time>2018-10-28T10:48:06Z</time>
      </trkpt>
      <trkpt lat="45.96356" lon="4.70554">
        <ele>318</ele>
        <time>2018-10-28T10:48:07Z</time>
      </trkpt>
      <trkpt lat="45.96362" lon="4.7056">
        <ele>318</ele>
        <time>2018-10-28T10:48:08Z</time>
      </trkpt>
      <trkpt lat="45.96368" lon="4.70567">
        <ele>318</ele>
        <time>2018-10-28T10:48:09Z</time>
      </trkpt>
      <trkpt lat="45.96373" lon="4.70574">
        <ele>318</ele>
        <time>2018-10-28T10:48:10Z</time>
      </trkpt>
      <trkpt lat="45.96379" lon="4.70582">
        <ele>318</ele>
        <time>2018-10-28T10:48:11Z</time>
      </trkpt>
      <trkpt lat="45.96385" lon="4.70589">
        <ele>312</ele>
        <time>2018-10-28T10:48:12Z</time>
      </trkpt>
      <trkpt lat="45.96391" lon="4.70596">
        <ele>312</ele>
        <time>2018-10-28T10:48:13Z</time>
      </trkpt>
      <trkpt lat="45.96398" lon="4.70602">
        <ele>312</ele>
        <time>2018-10-28T10:48:14Z</time>
      </trkpt>
      <trkpt lat="45.96404" lon="4.70609">
        <ele>312</ele>
        <time>2018-10-28T10:48:15Z</time>
      </trkpt>
      <trkpt lat="45.9641" lon="4.70617">
        <ele>312</ele>
        <time>2018-10-28T10:48:16Z</time>
      </trkpt>
      <trkpt lat="45.96416" lon="4.70623">
        <ele>311</ele>
        <time>2018-10-28T10:48:17Z</time>
      </trkpt>
      <trkpt lat="45.96423" lon="4.70632">
        <ele>313</ele>
        <time>2018-10-28T10:48:18Z</time>
      </trkpt>
      <trkpt lat="45.96429" lon="4.70639">
        <ele>313</ele>
        <time>2018-10-28T10:48:19Z</time>
      </trkpt>
      <trkpt lat="45.96435" lon="4.70647">
        <ele>312</ele>
        <time>2018-10-28T10:48:20Z</time>
      </trkpt>
      <trkpt lat="45.96442" lon="4.70654">
        <ele>312</ele>
        <time>2018-10-28T10:48:21Z</time>
      </trkpt>
      <trkpt lat="45.96448" lon="4.70661">
        <ele>312</ele>
        <time>2018-10-28T10:48:22Z</time>
      </trkpt>
      <trkpt lat="45.96455" lon="4.70667">
        <ele>305</ele>
        <time>2018-10-28T10:48:23Z</time>
      </trkpt>
      <trkpt lat="45.96461" lon="4.70675">
        <ele>305</ele>
        <time>2018-10-28T10:48:24Z</time>
      </trkpt>
      <trkpt lat="45.96468" lon="4.70681">
        <ele>305</ele>
        <time>2018-10-28T10:48:25Z</time>
      </trkpt>
      <trkpt lat="45.96475" lon="4.70688">
        <ele>305</ele>
        <time>2018-10-28T10:48:26Z</time>
      </trkpt>
      <trkpt lat="45.96483" lon="4.70694">
        <ele>305</ele>
        <time>2018-10-28T10:48:27Z</time>
      </trkpt>
      <trkpt lat="45.9649" lon="4.70701">
        <ele>305</ele>
        <time>2018-10-28T10:48:28Z</time>
      </trkpt>
      <trkpt lat="45.96498" lon="4.70707">
        <ele>304</ele>
        <time>2018-10-28T10:48:29Z</time>
      </trkpt>
      <trkpt lat="45.96506" lon="4.70714">
        <ele>306</ele>
        <time>2018-10-28T10:48:30Z</time>
      </trkpt>
      <trkpt lat="45.96514" lon="4.7072">
        <ele>305</ele>
        <time>2018-10-28T10:48:31Z</time>
      </trkpt>
      <trkpt lat="45.96522" lon="4.70727">
        <ele>305</ele>
        <time>2018-10-28T10:48:32Z</time>
      </trkpt>
      <trkpt lat="45.96531" lon="4.70733">
        <ele>305</ele>
        <time>2018-10-28T10:48:33Z</time>
      </trkpt>
      <trkpt lat="45.9654" lon="4.70739">
        <ele>305</ele>
        <time>2018-10-28T10:48:34Z</time>
      </trkpt>
      <trkpt lat="45.96549" lon="4.70745">
        <ele>305</ele>
        <time>2018-10-28T10:48:35Z</time>
      </trkpt>
      <trkpt lat="45.96558" lon="4.70753">
        <ele>299</ele>
        <time>2018-10-28T10:48:36Z</time>
      </trkpt>
      <trkpt lat="45.96568" lon="4.70759">
        <ele>299</ele>
        <time>2018-10-28T10:48:37Z</time>
      </trkpt>
      <trkpt lat="45.96576" lon="4.70766">
        <ele>299</ele>
        <time>2018-10-28T10:48:38Z</time>
      </trkpt>
      <trkpt lat="45.96585" lon="4.70772">
        <ele>300</ele>
        <time>2018-10-28T10:48:39Z</time>
      </trkpt>
      <trkpt lat="45.96594" lon="4.70778">
        <ele>299</ele>
        <time>2018-10-28T10:48:40Z</time>
      </trkpt>
      <trkpt lat="45.96603" lon="4.70784">
        <ele>299</ele>
        <time>2018-10-28T10:48:41Z</time>
      </trkpt>
      <trkpt lat="45.96612" lon="4.7079">
        <ele>298</ele>
        <time>2018-10-28T10:48:42Z</time>
      </trkpt>
      <trkpt lat="45.96622" lon="4.70795">
        <ele>298</ele>
        <time>2018-10-28T10:48:43Z</time>
      </trkpt>
      <trkpt lat="45.96631" lon="4.70802">
        <ele>298</ele>
        <time>2018-10-28T10:48:44Z</time>
      </trkpt>
      <trkpt lat="45.9664" lon="4.70807">
        <ele>298</ele>
        <time>2018-10-28T10:48:45Z</time>
      </trkpt>
      <trkpt lat="45.9665" lon="4.70814">
        <ele>297</ele>
        <time>2018-10-28T10:48:46Z</time>
      </trkpt>
      <trkpt lat="45.96659" lon="4.7082">
        <ele>297</ele>
        <time>2018-10-28T10:48:47Z</time>
      </trkpt>
      <trkpt lat="45.96668" lon="4.70827">
        <ele>296</ele>
        <time>2018-10-28T10:48:48Z</time>
      </trkpt>
      <trkpt lat="45.96677" lon="4.70832">
        <ele>296</ele>
        <time>2018-10-28T10:48:49Z</time>
      </trkpt>
      <trkpt lat="45.96686" lon="4.70838">
        <ele>292</ele>
        <time>2018-10-28T10:48:50Z</time>
      </trkpt>
      <trkpt lat="45.96695" lon="4.70844">
        <ele>291</ele>
        <time>2018-10-28T10:48:51Z</time>
      </trkpt>
      <trkpt lat="45.96704" lon="4.7085">
        <ele>290</ele>
        <time>2018-10-28T10:48:52Z</time>
      </trkpt>
      <trkpt lat="45.96713" lon="4.70856">
        <ele>290</ele>
        <time>2018-10-28T10:48:53Z</time>
      </trkpt>
      <trkpt lat="45.96722" lon="4.70862">
        <ele>289</ele>
        <time>2018-10-28T10:48:54Z</time>
      </trkpt>
      <trkpt lat="45.96731" lon="4.70868">
        <ele>289</ele>
        <time>2018-10-28T10:48:55Z</time>
      </trkpt>
      <trkpt lat="45.96738" lon="4.70874">
        <ele>288</ele>
        <time>2018-10-28T10:48:56Z</time>
      </trkpt>
      <trkpt lat="45.96747" lon="4.70879">
        <ele>288</ele>
        <time>2018-10-28T10:48:57Z</time>
      </trkpt>
      <trkpt lat="45.96756" lon="4.70885">
        <ele>288</ele>
        <time>2018-10-28T10:48:58Z</time>
      </trkpt>
      <trkpt lat="45.96765" lon="4.70891">
        <ele>288</ele>
        <time>2018-10-28T10:48:59Z</time>
      </trkpt>
      <trkpt lat="45.96774" lon="4.70898">
        <ele>288</ele>
        <time>2018-10-28T10:49:00Z</time>
      </trkpt>
      <trkpt lat="45.96782" lon="4.70904">
        <ele>288</ele>
        <time>2018-10-28T10:49:01Z</time>
      </trkpt>
      <trkpt lat="45.96791" lon="4.7091">
        <ele>288</ele>
        <time>2018-10-28T10:49:02Z</time>
      </trkpt>
      <trkpt lat="45.968" lon="4.70915">
        <ele>288</ele>
        <time>2018-10-28T10:49:03Z</time>
      </trkpt>
      <trkpt lat="45.96808" lon="4.7092">
        <ele>281</ele>
        <time>2018-10-28T10:49:04Z</time>
      </trkpt>
      <trkpt lat="45.96817" lon="4.70924">
        <ele>282</ele>
        <time>2018-10-28T10:49:05Z</time>
      </trkpt>
      <trkpt lat="45.96826" lon="4.70929">
        <ele>282</ele>
        <time>2018-10-28T10:49:06Z</time>
      </trkpt>
      <trkpt lat="45.96834" lon="4.70934">
        <ele>282</ele>
        <time>2018-10-28T10:49:07Z</time>
      </trkpt>
      <trkpt lat="45.96842" lon="4.7094">
        <ele>281</ele>
        <time>2018-10-28T10:49:08Z</time>
      </trkpt>
      <trkpt lat="45.9685" lon="4.70947">
        <ele>280</ele>
        <time>2018-10-28T10:49:09Z</time>
      </trkpt>
      <trkpt lat="45.96858" lon="4.70953">
        <ele>280</ele>
        <time>2018-10-28T10:49:10Z</time>
      </trkpt>
      <trkpt lat="45.96867" lon="4.70959">
        <ele>279</ele>
        <time>2018-10-28T10:49:11Z</time>
      </trkpt>
      <trkpt lat="45.96875" lon="4.70964">
        <ele>279</ele>
        <time>2018-10-28T10:49:12Z</time>
      </trkpt>
      <trkpt lat="45.96884" lon="4.70969">
        <ele>278</ele>
        <time>2018-10-28T10:49:13Z</time>
      </trkpt>
      <trkpt lat="45.96892" lon="4.70972">
        <ele>278</ele>
        <time>2018-10-28T10:49:14Z</time>
      </trkpt>
      <trkpt lat="45.96902" lon="4.70974">
        <ele>278</ele>
        <time>2018-10-28T10:49:15Z</time>
      </trkpt>
      <trkpt lat="45.96911" lon="4.70976">
        <ele>277</ele>
        <time>2018-10-28T10:49:16Z</time>
      </trkpt>
      <trkpt lat="45.9692" lon="4.70979">
        <ele>275</ele>
        <time>2018-10-28T10:49:17Z</time>
      </trkpt>
      <trkpt lat="45.9693" lon="4.70981">
        <ele>275</ele>
        <time>2018-10-28T10:49:18Z</time>
      </trkpt>
      <trkpt lat="45.9694" lon="4.70982">
        <ele>275</ele>
        <time>2018-10-28T10:49:19Z</time>
      </trkpt>
      <trkpt lat="45.96949" lon="4.70985">
        <ele>275</ele>
        <time>2018-10-28T10:49:20Z</time>
      </trkpt>
      <trkpt lat="45.96958" lon="4.70987">
        <ele>275</ele>
        <time>2018-10-28T10:49:21Z</time>
      </trkpt>
      <trkpt lat="45.96967" lon="4.70989">
        <ele>274</ele>
        <time>2018-10-28T10:49:22Z</time>
      </trkpt>
      <trkpt lat="45.96977" lon="4.70988">
        <ele>273</ele>
        <time>2018-10-28T10:49:23Z</time>
      </trkpt>
      <trkpt lat="45.96986" lon="4.70989">
        <ele>272</ele>
        <time>2018-10-28T10:49:24Z</time>
      </trkpt>
      <trkpt lat="45.96995" lon="4.7099">
        <ele>271</ele>
        <time>2018-10-28T10:49:25Z</time>
      </trkpt>
      <trkpt lat="45.97003" lon="4.7099">
        <ele>269</ele>
        <time>2018-10-28T10:49:26Z</time>
      </trkpt>
      <trkpt lat="45.97012" lon="4.7099">
        <ele>269</ele>
        <time>2018-10-28T10:49:27Z</time>
      </trkpt>
      <trkpt lat="45.97022" lon="4.70989">
        <ele>269</ele>
        <time>2018-10-28T10:49:28Z</time>
      </trkpt>
      <trkpt lat="45.97031" lon="4.70989">
        <ele>269</ele>
        <time>2018-10-28T10:49:29Z</time>
      </trkpt>
      <trkpt lat="45.9704" lon="4.70988">
        <ele>269</ele>
        <time>2018-10-28T10:49:30Z</time>
      </trkpt>
      <trkpt lat="45.97049" lon="4.70987">
        <ele>269</ele>
        <time>2018-10-28T10:49:31Z</time>
      </trkpt>
      <trkpt lat="45.97058" lon="4.70986">
        <ele>268</ele>
        <time>2018-10-28T10:49:32Z</time>
      </trkpt>
      <trkpt lat="45.97067" lon="4.70984">
        <ele>268</ele>
        <time>2018-10-28T10:49:33Z</time>
      </trkpt>
      <trkpt lat="45.97077" lon="4.7098">
        <ele>268</ele>
        <time>2018-10-28T10:49:34Z</time>
      </trkpt>
      <trkpt lat="45.97087" lon="4.70978">
        <ele>264</ele>
        <time>2018-10-28T10:49:35Z</time>
      </trkpt>
      <trkpt lat="45.97096" lon="4.70974">
        <ele>264</ele>
        <time>2018-10-28T10:49:36Z</time>
      </trkpt>
      <trkpt lat="45.97105" lon="4.70971">
        <ele>264</ele>
        <time>2018-10-28T10:49:37Z</time>
      </trkpt>
      <trkpt lat="45.97114" lon="4.70968">
        <ele>264</ele>
        <time>2018-10-28T10:49:38Z</time>
      </trkpt>
      <trkpt lat="45.97123" lon="4.70965">
        <ele>264</ele>
        <time>2018-10-28T10:49:39Z</time>
      </trkpt>
      <trkpt lat="45.97133" lon="4.70961">
        <ele>263</ele>
        <time>2018-10-28T10:49:40Z</time>
      </trkpt>
      <trkpt lat="45.97141" lon="4.70957">
        <ele>263</ele>
        <time>2018-10-28T10:49:41Z</time>
      </trkpt>
      <trkpt lat="45.9715" lon="4.70953">
        <ele>263</ele>
        <time>2018-10-28T10:49:42Z</time>
      </trkpt>
      <trkpt lat="45.97159" lon="4.70948">
        <ele>263</ele>
        <time>2018-10-28T10:49:43Z</time>
      </trkpt>
      <trkpt lat="45.97167" lon="4.70944">
        <ele>263</ele>
        <time>2018-10-28T10:49:44Z</time>
      </trkpt>
      <trkpt lat="45.97175" lon="4.7094">
        <ele>258</ele>
        <time>2018-10-28T10:49:45Z</time>
      </trkpt>
      <trkpt lat="45.97182" lon="4.70935">
        <ele>258</ele>
        <time>2018-10-28T10:49:46Z</time>
      </trkpt>
      <trkpt lat="45.97189" lon="4.70929">
        <ele>258</ele>
        <time>2018-10-28T10:49:47Z</time>
      </trkpt>
      <trkpt lat="45.97196" lon="4.70925">
        <ele>257</ele>
        <time>2018-10-28T10:49:48Z</time>
      </trkpt>
      <trkpt lat="45.97203" lon="4.70918">
        <ele>257</ele>
        <time>2018-10-28T10:49:49Z</time>
      </trkpt>
      <trkpt lat="45.9721" lon="4.70911">
        <ele>260</ele>
        <time>2018-10-28T10:49:50Z</time>
      </trkpt>
      <trkpt lat="45.97217" lon="4.70904">
        <ele>259</ele>
        <time>2018-10-28T10:49:51Z</time>
      </trkpt>
      <trkpt lat="45.97223" lon="4.70896">
        <ele>259</ele>
        <time>2018-10-28T10:49:52Z</time>
      </trkpt>
      <trkpt lat="45.9723" lon="4.70887">
        <ele>259</ele>
        <time>2018-10-28T10:49:53Z</time>
      </trkpt>
      <trkpt lat="45.97237" lon="4.70879">
        <ele>259</ele>
        <time>2018-10-28T10:49:54Z</time>
      </trkpt>
      <trkpt lat="45.97244" lon="4.7087">
        <ele>259</ele>
        <time>2018-10-28T10:49:55Z</time>
      </trkpt>
      <trkpt lat="45.9725" lon="4.70861">
        <ele>259</ele>
        <time>2018-10-28T10:49:56Z</time>
      </trkpt>
      <trkpt lat="45.97256" lon="4.7085">
        <ele>254</ele>
        <time>2018-10-28T10:49:57Z</time>
      </trkpt>
      <trkpt lat="45.97262" lon="4.7084">
        <ele>255</ele>
        <time>2018-10-28T10:49:58Z</time>
      </trkpt>
      <trkpt lat="45.9727" lon="4.70829">
        <ele>255</ele>
        <time>2018-10-28T10:49:59Z</time>
      </trkpt>
      <trkpt lat="45.97277" lon="4.70819">
        <ele>255</ele>
        <time>2018-10-28T10:50:00Z</time>
      </trkpt>
      <trkpt lat="45.97284" lon="4.7081">
        <ele>254</ele>
        <time>2018-10-28T10:50:01Z</time>
      </trkpt>
      <trkpt lat="45.97291" lon="4.70802">
        <ele>254</ele>
        <time>2018-10-28T10:50:02Z</time>
      </trkpt>
      <trkpt lat="45.97296" lon="4.70795">
        <ele>253</ele>
        <time>2018-10-28T10:50:03Z</time>
      </trkpt>
      <trkpt lat="45.97302" lon="4.70788">
        <ele>253</ele>
        <time>2018-10-28T10:50:04Z</time>
      </trkpt>
      <trkpt lat="45.97309" lon="4.7078">
        <ele>253</ele>
        <time>2018-10-28T10:50:05Z</time>
      </trkpt>
      <trkpt lat="45.97316" lon="4.70773">
        <ele>252</ele>
        <time>2018-10-28T10:50:06Z</time>
      </trkpt>
      <trkpt lat="45.97322" lon="4.70768">
        <ele>252</ele>
        <time>2018-10-28T10:50:07Z</time>
      </trkpt>
      <trkpt lat="45.97329" lon="4.70763">
        <ele>251</ele>
        <time>2018-10-28T10:50:08Z</time>
      </trkpt>
      <trkpt lat="45.97336" lon="4.70759">
        <ele>247</ele>
        <time>2018-10-28T10:50:09Z</time>
      </trkpt>
      <trkpt lat="45.97344" lon="4.70754">
        <ele>247</ele>
        <time>2018-10-28T10:50:10Z</time>
      </trkpt>
      <trkpt lat="45.97353" lon="4.70751">
        <ele>246</ele>
        <time>2018-10-28T10:50:11Z</time>
      </trkpt>
      <trkpt lat="45.97361" lon="4.70747">
        <ele>245</ele>
        <time>2018-10-28T10:50:12Z</time>
      </trkpt>
      <trkpt lat="45.97369" lon="4.70744">
        <ele>245</ele>
        <time>2018-10-28T10:50:13Z</time>
      </trkpt>
      <trkpt lat="45.97376" lon="4.70741">
        <ele>244</ele>
        <time>2018-10-28T10:50:14Z</time>
      </trkpt>
      <trkpt lat="45.97384" lon="4.7074">
        <ele>244</ele>
        <time>2018-10-28T10:50:15Z</time>
      </trkpt>
      <trkpt lat="45.97392" lon="4.70739">
        <ele>243</ele>
        <time>2018-10-28T10:50:16Z</time>
      </trkpt>
      <trkpt lat="45.974" lon="4.7074">
        <ele>242</ele>
        <time>2018-10-28T10:50:17Z</time>
      </trkpt>
      <trkpt lat="45.97408" lon="4.70741">
        <ele>242</ele>
        <time>2018-10-28T10:50:18Z</time>
      </trkpt>
      <trkpt lat="45.97413" lon="4.70742">
        <ele>241</ele>
        <time>2018-10-28T10:50:19Z</time>
      </trkpt>
      <trkpt lat="45.97423" lon="4.70743">
        <ele>239</ele>
        <time>2018-10-28T10:50:20Z</time>
      </trkpt>
      <trkpt lat="45.97432" lon="4.70744">
        <ele>239</ele>
        <time>2018-10-28T10:50:21Z</time>
      </trkpt>
      <trkpt lat="45.97441" lon="4.70745">
        <ele>239</ele>
        <time>2018-10-28T10:50:22Z</time>
      </trkpt>
      <trkpt lat="45.9745" lon="4.70746">
        <ele>238</ele>
        <time>2018-10-28T10:50:23Z</time>
      </trkpt>
      <trkpt lat="45.97459" lon="4.70746">
        <ele>238</ele>
        <time>2018-10-28T10:50:24Z</time>
      </trkpt>
      <trkpt lat="45.97467" lon="4.70745">
        <ele>238</ele>
        <time>2018-10-28T10:50:25Z</time>
      </trkpt>
      <trkpt lat="45.97475" lon="4.70745">
        <ele>237</ele>
        <time>2018-10-28T10:50:26Z</time>
      </trkpt>
      <trkpt lat="45.97483" lon="4.70743">
        <ele>237</ele>
        <time>2018-10-28T10:50:27Z</time>
      </trkpt>
      <trkpt lat="45.97492" lon="4.7074">
        <ele>237</ele>
        <time>2018-10-28T10:50:28Z</time>
      </trkpt>
      <trkpt lat="45.975" lon="4.70738">
        <ele>235</ele>
        <time>2018-10-28T10:50:29Z</time>
      </trkpt>
      <trkpt lat="45.97507" lon="4.70736">
        <ele>235</ele>
        <time>2018-10-28T10:50:30Z</time>
      </trkpt>
      <trkpt lat="45.97515" lon="4.70734">
        <ele>235</ele>
        <time>2018-10-28T10:50:31Z</time>
      </trkpt>
      <trkpt lat="45.97521" lon="4.70733">
        <ele>234</ele>
        <time>2018-10-28T10:50:32Z</time>
      </trkpt>
      <trkpt lat="45.97529" lon="4.70733">
        <ele>234</ele>
        <time>2018-10-28T10:50:33Z</time>
      </trkpt>
      <trkpt lat="45.97536" lon="4.70732">
        <ele>234</ele>
        <time>2018-10-28T10:50:34Z</time>
      </trkpt>
      <trkpt lat="45.97543" lon="4.7073">
        <ele>233</ele>
        <time>2018-10-28T10:50:35Z</time>
      </trkpt>
      <trkpt lat="45.97552" lon="4.70729">
        <ele>233</ele>
        <time>2018-10-28T10:50:36Z</time>
      </trkpt>
      <trkpt lat="45.97559" lon="4.70727">
        <ele>233</ele>
        <time>2018-10-28T10:50:37Z</time>
      </trkpt>
      <trkpt lat="45.97566" lon="4.70726">
        <ele>233</ele>
        <time>2018-10-28T10:50:38Z</time>
      </trkpt>
      <trkpt lat="45.97573" lon="4.70724">
        <ele>233</ele>
        <time>2018-10-28T10:50:39Z</time>
      </trkpt>
      <trkpt lat="45.9758" lon="4.70724">
        <ele>232</ele>
        <time>2018-10-28T10:50:40Z</time>
      </trkpt>
      <trkpt lat="45.97586" lon="4.70725">
        <ele>229</ele>
        <time>2018-10-28T10:50:41Z</time>
      </trkpt>
      <trkpt lat="45.97594" lon="4.70725">
        <ele>229</ele>
        <time>2018-10-28T10:50:42Z</time>
      </trkpt>
      <trkpt lat="45.97601" lon="4.70727">
        <ele>229</ele>
        <time>2018-10-28T10:50:43Z</time>
      </trkpt>
      <trkpt lat="45.97609" lon="4.70728">
        <ele>229</ele>
        <time>2018-10-28T10:50:44Z</time>
      </trkpt>
      <trkpt lat="45.97616" lon="4.70731">
        <ele>228</ele>
        <time>2018-10-28T10:50:45Z</time>
      </trkpt>
      <trkpt lat="45.97624" lon="4.70734">
        <ele>228</ele>
        <time>2018-10-28T10:50:46Z</time>
      </trkpt>
      <trkpt lat="45.97631" lon="4.70737">
        <ele>228</ele>
        <time>2018-10-28T10:50:47Z</time>
      </trkpt>
      <trkpt lat="45.97638" lon="4.70739">
        <ele>227</ele>
        <time>2018-10-28T10:50:48Z</time>
      </trkpt>
      <trkpt lat="45.97646" lon="4.70743">
        <ele>226</ele>
        <time>2018-10-28T10:50:49Z</time>
      </trkpt>
      <trkpt lat="45.97653" lon="4.70746">
        <ele>226</ele>
        <time>2018-10-28T10:50:50Z</time>
      </trkpt>
      <trkpt lat="45.97661" lon="4.70749">
        <ele>225</ele>
        <time>2018-10-28T10:50:51Z</time>
      </trkpt>
      <trkpt lat="45.97669" lon="4.70753">
        <ele>224</ele>
        <time>2018-10-28T10:50:52Z</time>
      </trkpt>
      <trkpt lat="45.97676" lon="4.70756">
        <ele>223</ele>
        <time>2018-10-28T10:50:53Z</time>
      </trkpt>
      <trkpt lat="45.97685" lon="4.70761">
        <ele>223</ele>
        <time>2018-10-28T10:50:54Z</time>
      </trkpt>
      <trkpt lat="45.97692" lon="4.70764">
        <ele>223</ele>
        <time>2018-10-28T10:50:55Z</time>
      </trkpt>
      <trkpt lat="45.977" lon="4.70765">
        <ele>223</ele>
        <time>2018-10-28T10:50:56Z</time>
      </trkpt>
      <trkpt lat="45.97707" lon="4.70768">
        <ele>223</ele>
        <time>2018-10-28T10:50:57Z</time>
      </trkpt>
      <trkpt lat="45.97714" lon="4.70771">
        <ele>223</ele>
        <time>2018-10-28T10:50:58Z</time>
      </trkpt>
      <trkpt lat="45.97722" lon="4.70774">
        <ele>222</ele>
        <time>2018-10-28T10:50:59Z</time>
      </trkpt>
      <trkpt lat="45.97729" lon="4.70776">
        <ele>222</ele>
        <time>2018-10-28T10:51:00Z</time>
      </trkpt>
      <trkpt lat="45.97737" lon="4.70779">
        <ele>222</ele>
        <time>2018-10-28T10:51:01Z</time>
      </trkpt>
      <trkpt lat="45.97743" lon="4.70782">
        <ele>222</ele>
        <time>2018-10-28T10:51:02Z</time>
      </trkpt>
      <trkpt lat="45.97751" lon="4.70785">
        <ele>221</ele>
        <time>2018-10-28T10:51:03Z</time>
      </trkpt>
      <trkpt lat="45.97757" lon="4.70787">
        <ele>221</ele>
        <time>2018-10-28T10:51:04Z</time>
      </trkpt>
      <trkpt lat="45.97764" lon="4.7079">
        <ele>221</ele>
        <time>2018-10-28T10:51:05Z</time>
      </trkpt>
      <trkpt lat="45.9777" lon="4.70791">
        <ele>221</ele>
        <time>2018-10-28T10:51:06Z</time>
      </trkpt>
      <trkpt lat="45.97776" lon="4.70794">
        <ele>221</ele>
        <time>2018-10-28T10:51:07Z</time>
      </trkpt>
      <trkpt lat="45.97781" lon="4.70799">
        <ele>221</ele>
        <time>2018-10-28T10:51:08Z</time>
      </trkpt>
      <trkpt lat="45.97786" lon="4.70804">
        <ele>221</ele>
        <time>2018-10-28T10:51:09Z</time>
      </trkpt>
      <trkpt lat="45.97793" lon="4.70807">
        <ele>221</ele>
        <time>2018-10-28T10:51:10Z</time>
      </trkpt>
      <trkpt lat="45.97798" lon="4.70812">
        <ele>221</ele>
        <time>2018-10-28T10:51:11Z</time>
      </trkpt>
      <trkpt lat="45.97802" lon="4.70818">
        <ele>221</ele>
        <time>2018-10-28T10:51:12Z</time>
      </trkpt>
      <trkpt lat="45.97805" lon="4.70826">
        <ele>221</ele>
        <time>2018-10-28T10:51:13Z</time>
      </trkpt>
      <trkpt lat="45.97808" lon="4.70833">
        <ele>221</ele>
        <time>2018-10-28T10:51:14Z</time>
      </trkpt>
      <trkpt lat="45.9781" lon="4.70841">
        <ele>220</ele>
        <time>2018-10-28T10:51:15Z</time>
      </trkpt>
      <trkpt lat="45.97811" lon="4.7085">
        <ele>220</ele>
        <time>2018-10-28T10:51:16Z</time>
      </trkpt>
      <trkpt lat="45.97814" lon="4.70857">
        <ele>220</ele>
        <time>2018-10-28T10:51:17Z</time>
      </trkpt>
      <trkpt lat="45.97815" lon="4.70866">
        <ele>220</ele>
        <time>2018-10-28T10:51:18Z</time>
      </trkpt>
      <trkpt lat="45.97815" lon="4.70876">
        <ele>220</ele>
        <time>2018-10-28T10:51:19Z</time>
      </trkpt>
      <trkpt lat="45.97816" lon="4.70884">
        <ele>220</ele>
        <time>2018-10-28T10:51:20Z</time>
      </trkpt>
      <trkpt lat="45.97816" lon="4.70892">
        <ele>220</ele>
        <time>2018-10-28T10:51:21Z</time>
      </trkpt>
      <trkpt lat="45.97816" lon="4.70901">
        <ele>220</ele>
        <time>2018-10-28T10:51:22Z</time>
      </trkpt>
      <trkpt lat="45.97814" lon="4.7091">
        <ele>220</ele>
        <time>2018-10-28T10:51:23Z</time>
      </trkpt>
      <trkpt lat="45.97815" lon="4.70919">
        <ele>219</ele>
        <time>2018-10-28T10:51:24Z</time>
      </trkpt>
      <trkpt lat="45.97816" lon="4.70929">
        <ele>219</ele>
        <time>2018-10-28T10:51:25Z</time>
      </trkpt>
      <trkpt lat="45.97818" lon="4.70938">
        <ele>218</ele>
        <time>2018-10-28T10:51:26Z</time>
      </trkpt>
      <trkpt lat="45.97822" lon="4.70947">
        <ele>218</ele>
        <time>2018-10-28T10:51:27Z</time>
      </trkpt>
      <trkpt lat="45.97825" lon="4.70956">
        <ele>218</ele>
        <time>2018-10-28T10:51:28Z</time>
      </trkpt>
      <trkpt lat="45.97827" lon="4.70967">
        <ele>218</ele>
        <time>2018-10-28T10:51:29Z</time>
      </trkpt>
      <trkpt lat="45.97829" lon="4.70977">
        <ele>217</ele>
        <time>2018-10-28T10:51:30Z</time>
      </trkpt>
      <trkpt lat="45.97831" lon="4.70988">
        <ele>217</ele>
        <time>2018-10-28T10:51:31Z</time>
      </trkpt>
      <trkpt lat="45.97832" lon="4.70999">
        <ele>216</ele>
        <time>2018-10-28T10:51:32Z</time>
      </trkpt>
      <trkpt lat="45.97834" lon="4.71009">
        <ele>216</ele>
        <time>2018-10-28T10:51:33Z</time>
      </trkpt>
      <trkpt lat="45.97835" lon="4.71022">
        <ele>216</ele>
        <time>2018-10-28T10:51:34Z</time>
      </trkpt>
      <trkpt lat="45.97836" lon="4.71034">
        <ele>216</ele>
        <time>2018-10-28T10:51:35Z</time>
      </trkpt>
      <trkpt lat="45.97837" lon="4.71046">
        <ele>215</ele>
        <time>2018-10-28T10:51:36Z</time>
      </trkpt>
      <trkpt lat="45.97838" lon="4.71058">
        <ele>215</ele>
        <time>2018-10-28T10:51:37Z</time>
      </trkpt>
      <trkpt lat="45.9784" lon="4.71071">
        <ele>215</ele>
        <time>2018-10-28T10:51:38Z</time>
      </trkpt>
      <trkpt lat="45.97842" lon="4.71082">
        <ele>215</ele>
        <time>2018-10-28T10:51:39Z</time>
      </trkpt>
      <trkpt lat="45.97844" lon="4.71095">
        <ele>213</ele>
        <time>2018-10-28T10:51:40Z</time>
      </trkpt>
      <trkpt lat="45.97845" lon="4.71108">
        <ele>213</ele>
        <time>2018-10-28T10:51:41Z</time>
      </trkpt>
      <trkpt lat="45.97847" lon="4.71122">
        <ele>213</ele>
        <time>2018-10-28T10:51:42Z</time>
      </trkpt>
      <trkpt lat="45.97848" lon="4.71136">
        <ele>212</ele>
        <time>2018-10-28T10:51:43Z</time>
      </trkpt>
      <trkpt lat="45.97849" lon="4.71149">
        <ele>212</ele>
        <time>2018-10-28T10:51:44Z</time>
      </trkpt>
      <trkpt lat="45.9785" lon="4.71161">
        <ele>212</ele>
        <time>2018-10-28T10:51:45Z</time>
      </trkpt>
      <trkpt lat="45.97851" lon="4.71173">
        <ele>210</ele>
        <time>2018-10-28T10:51:46Z</time>
      </trkpt>
      <trkpt lat="45.97851" lon="4.71186">
        <ele>209</ele>
        <time>2018-10-28T10:51:47Z</time>
      </trkpt>
      <trkpt lat="45.97853" lon="4.712">
        <ele>209</ele>
        <time>2018-10-28T10:51:48Z</time>
      </trkpt>
      <trkpt lat="45.97853" lon="4.71211">
        <ele>209</ele>
        <time>2018-10-28T10:51:49Z</time>
      </trkpt>
      <trkpt lat="45.97852" lon="4.71223">
        <ele>208</ele>
        <time>2018-10-28T10:51:50Z</time>
      </trkpt>
      <trkpt lat="45.97852" lon="4.71235">
        <ele>208</ele>
        <time>2018-10-28T10:51:51Z</time>
      </trkpt>
      <trkpt lat="45.97851" lon="4.71244">
        <ele>208</ele>
        <time>2018-10-28T10:51:52Z</time>
      </trkpt>
      <trkpt lat="45.9785" lon="4.71255">
        <ele>207</ele>
        <time>2018-10-28T10:51:53Z</time>
      </trkpt>
      <trkpt lat="45.97849" lon="4.71266">
        <ele>206</ele>
        <time>2018-10-28T10:51:54Z</time>
      </trkpt>
      <trkpt lat="45.97849" lon="4.71276">
        <ele>206</ele>
        <time>2018-10-28T10:51:55Z</time>
      </trkpt>
      <trkpt lat="45.97848" lon="4.71287">
        <ele>206</ele>
        <time>2018-10-28T10:51:56Z</time>
      </trkpt>
      <trkpt lat="45.97847" lon="4.71297">
        <ele>206</ele>
        <time>2018-10-28T10:51:57Z</time>
      </trkpt>
      <trkpt lat="45.97848" lon="4.71307">
        <ele>206</ele>
        <time>2018-10-28T10:51:58Z</time>
      </trkpt>
      <trkpt lat="45.97849" lon="4.71315">
        <ele>205</ele>
        <time>2018-10-28T10:51:59Z</time>
      </trkpt>
      <trkpt lat="45.9785" lon="4.71325">
        <ele>205</ele>
        <time>2018-10-28T10:52:00Z</time>
      </trkpt>
      <trkpt lat="45.97849" lon="4.71334">
        <ele>204</ele>
        <time>2018-10-28T10:52:01Z</time>
      </trkpt>
      <trkpt lat="45.97848" lon="4.71344">
        <ele>204</ele>
        <time>2018-10-28T10:52:02Z</time>
      </trkpt>
      <trkpt lat="45.97847" lon="4.71353">
        <ele>204</ele>
        <time>2018-10-28T10:52:03Z</time>
      </trkpt>
      <trkpt lat="45.97846" lon="4.71363">
        <ele>204</ele>
        <time>2018-10-28T10:52:04Z</time>
      </trkpt>
      <trkpt lat="45.97846" lon="4.71373">
        <ele>203</ele>
        <time>2018-10-28T10:52:05Z</time>
      </trkpt>
      <trkpt lat="45.97846" lon="4.71383">
        <ele>203</ele>
        <time>2018-10-28T10:52:06Z</time>
      </trkpt>
      <trkpt lat="45.97847" lon="4.71393">
        <ele>203</ele>
        <time>2018-10-28T10:52:07Z</time>
      </trkpt>
      <trkpt lat="45.97848" lon="4.71403">
        <ele>203</ele>
        <time>2018-10-28T10:52:08Z</time>
      </trkpt>
      <trkpt lat="45.9785" lon="4.71413">
        <ele>203</ele>
        <time>2018-10-28T10:52:09Z</time>
      </trkpt>
      <trkpt lat="45.97851" lon="4.71423">
        <ele>202</ele>
        <time>2018-10-28T10:52:10Z</time>
      </trkpt>
      <trkpt lat="45.97852" lon="4.71433">
        <ele>201</ele>
        <time>2018-10-28T10:52:11Z</time>
      </trkpt>
      <trkpt lat="45.97853" lon="4.71442">
        <ele>201</ele>
        <time>2018-10-28T10:52:12Z</time>
      </trkpt>
      <trkpt lat="45.97855" lon="4.71453">
        <ele>201</ele>
        <time>2018-10-28T10:52:13Z</time>
      </trkpt>
      <trkpt lat="45.97857" lon="4.71463">
        <ele>201</ele>
        <time>2018-10-28T10:52:14Z</time>
      </trkpt>
      <trkpt lat="45.97859" lon="4.71473">
        <ele>201</ele>
        <time>2018-10-28T10:52:15Z</time>
      </trkpt>
      <trkpt lat="45.97861" lon="4.71483">
        <ele>201</ele>
        <time>2018-10-28T10:52:16Z</time>
      </trkpt>
      <trkpt lat="45.97863" lon="4.71493">
        <ele>201</ele>
        <time>2018-10-28T10:52:17Z</time>
      </trkpt>
      <trkpt lat="45.97865" lon="4.71503">
        <ele>200</ele>
        <time>2018-10-28T10:52:18Z</time>
      </trkpt>
      <trkpt lat="45.97867" lon="4.71513">
        <ele>199</ele>
        <time>2018-10-28T10:52:19Z</time>
      </trkpt>
      <trkpt lat="45.97869" lon="4.71523">
        <ele>199</ele>
        <time>2018-10-28T10:52:20Z</time>
      </trkpt>
      <trkpt lat="45.9787" lon="4.71533">
        <ele>199</ele>
        <time>2018-10-28T10:52:21Z</time>
      </trkpt>
      <trkpt lat="45.97872" lon="4.71544">
        <ele>199</ele>
        <time>2018-10-28T10:52:22Z</time>
      </trkpt>
      <trkpt lat="45.97874" lon="4.71552">
        <ele>199</ele>
        <time>2018-10-28T10:52:23Z</time>
      </trkpt>
      <trkpt lat="45.97875" lon="4.71563">
        <ele>198</ele>
        <time>2018-10-28T10:52:24Z</time>
      </trkpt>
      <trkpt lat="45.97875" lon="4.71574">
        <ele>198</ele>
        <time>2018-10-28T10:52:25Z</time>
      </trkpt>
      <trkpt lat="45.97875" lon="4.71584">
        <ele>197</ele>
        <time>2018-10-28T10:52:26Z</time>
      </trkpt>
      <trkpt lat="45.97876" lon="4.71594">
        <ele>197</ele>
        <time>2018-10-28T10:52:27Z</time>
      </trkpt>
      <trkpt lat="45.97876" lon="4.71604">
        <ele>197</ele>
        <time>2018-10-28T10:52:28Z</time>
      </trkpt>
      <trkpt lat="45.97877" lon="4.71615">
        <ele>197</ele>
        <time>2018-10-28T10:52:29Z</time>
      </trkpt>
      <trkpt lat="45.97877" lon="4.71625">
        <ele>197</ele>
        <time>2018-10-28T10:52:30Z</time>
      </trkpt>
      <trkpt lat="45.97877" lon="4.71635">
        <ele>197</ele>
        <time>2018-10-28T10:52:31Z</time>
      </trkpt>
      <trkpt lat="45.97875" lon="4.71644">
        <ele>197</ele>
        <time>2018-10-28T10:52:32Z</time>
      </trkpt>
      <trkpt lat="45.97874" lon="4.71653">
        <ele>197</ele>
        <time>2018-10-28T10:52:33Z</time>
      </trkpt>
      <trkpt lat="45.97874" lon="4.71662">
        <ele>197</ele>
        <time>2018-10-28T10:52:34Z</time>
      </trkpt>
      <trkpt lat="45.97871" lon="4.71672">
        <ele>196</ele>
        <time>2018-10-28T10:52:35Z</time>
      </trkpt>
      <trkpt lat="45.97869" lon="4.7168">
        <ele>196</ele>
        <time>2018-10-28T10:52:36Z</time>
      </trkpt>
      <trkpt lat="45.97867" lon="4.7169">
        <ele>196</ele>
        <time>2018-10-28T10:52:37Z</time>
      </trkpt>
      <trkpt lat="45.97866" lon="4.71698">
        <ele>196</ele>
        <time>2018-10-28T10:52:38Z</time>
      </trkpt>
      <trkpt lat="45.97864" lon="4.71704">
        <ele>196</ele>
        <time>2018-10-28T10:52:39Z</time>
      </trkpt>
      <trkpt lat="45.97861" lon="4.7171">
        <ele>196</ele>
        <time>2018-10-28T10:52:40Z</time>
      </trkpt>
      <trkpt lat="45.97856" lon="4.71719">
        <ele>196</ele>
        <time>2018-10-28T10:52:42Z</time>
      </trkpt>
      <trkpt lat="45.97854" lon="4.71726">
        <ele>196</ele>
        <time>2018-10-28T10:52:43Z</time>
      </trkpt>
      <trkpt lat="45.97851" lon="4.71731">
        <ele>196</ele>
        <time>2018-10-28T10:52:44Z</time>
      </trkpt>
      <trkpt lat="45.97847" lon="4.71737">
        <ele>196</ele>
        <time>2018-10-28T10:52:45Z</time>
      </trkpt>
      <trkpt lat="45.97841" lon="4.71741">
        <ele>195</ele>
        <time>2018-10-28T10:52:46Z</time>
      </trkpt>
      <trkpt lat="45.97837" lon="4.71743">
        <ele>195</ele>
        <time>2018-10-28T10:52:47Z</time>
      </trkpt>
      <trkpt lat="45.9783" lon="4.71743">
        <ele>195</ele>
        <time>2018-10-28T10:52:48Z</time>
      </trkpt>
      <trkpt lat="45.97823" lon="4.71744">
        <ele>196</ele>
        <time>2018-10-28T10:52:49Z</time>
      </trkpt>
      <trkpt lat="45.97817" lon="4.71743">
        <ele>196</ele>
        <time>2018-10-28T10:52:50Z</time>
      </trkpt>
      <trkpt lat="45.9781" lon="4.71741">
        <ele>196</ele>
        <time>2018-10-28T10:52:51Z</time>
      </trkpt>
      <trkpt lat="45.97804" lon="4.7174">
        <ele>196</ele>
        <time>2018-10-28T10:52:52Z</time>
      </trkpt>
      <trkpt lat="45.97797" lon="4.71739">
        <ele>196</ele>
        <time>2018-10-28T10:52:53Z</time>
      </trkpt>
      <trkpt lat="45.97791" lon="4.71738">
        <ele>196</ele>
        <time>2018-10-28T10:52:54Z</time>
      </trkpt>
      <trkpt lat="45.97783" lon="4.71736">
        <ele>196</ele>
        <time>2018-10-28T10:52:55Z</time>
      </trkpt>
      <trkpt lat="45.97776" lon="4.71735">
        <ele>196</ele>
        <time>2018-10-28T10:52:56Z</time>
      </trkpt>
      <trkpt lat="45.9777" lon="4.71735">
        <ele>196</ele>
        <time>2018-10-28T10:52:57Z</time>
      </trkpt>
      <trkpt lat="45.97764" lon="4.71733">
        <ele>196</ele>
        <time>2018-10-28T10:52:58Z</time>
      </trkpt>
      <trkpt lat="45.97758" lon="4.71733">
        <ele>196</ele>
        <time>2018-10-28T10:52:59Z</time>
      </trkpt>
      <trkpt lat="45.97753" lon="4.71733">
        <ele>196</ele>
        <time>2018-10-28T10:53:00Z</time>
      </trkpt>
      <trkpt lat="45.97746" lon="4.71732">
        <ele>196</ele>
        <time>2018-10-28T10:53:01Z</time>
      </trkpt>
      <trkpt lat="45.97739" lon="4.7173">
        <ele>196</ele>
        <time>2018-10-28T10:53:02Z</time>
      </trkpt>
      <trkpt lat="45.97733" lon="4.7173">
        <ele>196</ele>
        <time>2018-10-28T10:53:03Z</time>
      </trkpt>
      <trkpt lat="45.97727" lon="4.71728">
        <ele>196</ele>
        <time>2018-10-28T10:53:04Z</time>
      </trkpt>
      <trkpt lat="45.97721" lon="4.71728">
        <ele>196</ele>
        <time>2018-10-28T10:53:05Z</time>
      </trkpt>
      <trkpt lat="45.97714" lon="4.71727">
        <ele>196</ele>
        <time>2018-10-28T10:53:06Z</time>
      </trkpt>
      <trkpt lat="45.97709" lon="4.71727">
        <ele>196</ele>
        <time>2018-10-28T10:53:07Z</time>
      </trkpt>
      <trkpt lat="45.97703" lon="4.71726">
        <ele>196</ele>
        <time>2018-10-28T10:53:08Z</time>
      </trkpt>
      <trkpt lat="45.97697" lon="4.71725">
        <ele>196</ele>
        <time>2018-10-28T10:53:09Z</time>
      </trkpt>
      <trkpt lat="45.97692" lon="4.71726">
        <ele>196</ele>
        <time>2018-10-28T10:53:10Z</time>
      </trkpt>
      <trkpt lat="45.97687" lon="4.71726">
        <ele>196</ele>
        <time>2018-10-28T10:53:11Z</time>
      </trkpt>
      <trkpt lat="45.97682" lon="4.71726">
        <ele>196</ele>
        <time>2018-10-28T10:53:12Z</time>
      </trkpt>
      <trkpt lat="45.97677" lon="4.71725">
        <ele>196</ele>
        <time>2018-10-28T10:53:13Z</time>
      </trkpt>
      <trkpt lat="45.97672" lon="4.71725">
        <ele>196</ele>
        <time>2018-10-28T10:53:14Z</time>
      </trkpt>
      <trkpt lat="45.97666" lon="4.71725">
        <ele>196</ele>
        <time>2018-10-28T10:53:15Z</time>
      </trkpt>
      <trkpt lat="45.97662" lon="4.71725">
        <ele>196</ele>
        <time>2018-10-28T10:53:16Z</time>
      </trkpt>
      <trkpt lat="45.97656" lon="4.71724">
        <ele>196</ele>
        <time>2018-10-28T10:53:17Z</time>
      </trkpt>
      <trkpt lat="45.97652" lon="4.71723">
        <ele>196</ele>
        <time>2018-10-28T10:53:18Z</time>
      </trkpt>
      <trkpt lat="45.97646" lon="4.71723">
        <ele>196</ele>
        <time>2018-10-28T10:53:19Z</time>
      </trkpt>
      <trkpt lat="45.9764" lon="4.71721">
        <ele>196</ele>
        <time>2018-10-28T10:53:20Z</time>
      </trkpt>
      <trkpt lat="45.97625" lon="4.71718">
        <ele>197</ele>
        <time>2018-10-28T10:53:21Z</time>
      </trkpt>
      <trkpt lat="45.97621" lon="4.71713">
        <ele>197</ele>
        <time>2018-10-28T10:53:22Z</time>
      </trkpt>
      <trkpt lat="45.97616" lon="4.7171">
        <ele>197</ele>
        <time>2018-10-28T10:53:23Z</time>
      </trkpt>
      <trkpt lat="45.97611" lon="4.71706">
        <ele>197</ele>
        <time>2018-10-28T10:53:24Z</time>
      </trkpt>
      <trkpt lat="45.97606" lon="4.71706">
        <ele>197</ele>
        <time>2018-10-28T10:53:25Z</time>
      </trkpt>
      <trkpt lat="45.97601" lon="4.71706">
        <ele>197</ele>
        <time>2018-10-28T10:53:26Z</time>
      </trkpt>
      <trkpt lat="45.97595" lon="4.71708">
        <ele>197</ele>
        <time>2018-10-28T10:53:27Z</time>
      </trkpt>
      <trkpt lat="45.9759" lon="4.7171">
        <ele>197</ele>
        <time>2018-10-28T10:53:28Z</time>
      </trkpt>
      <trkpt lat="45.97586" lon="4.71713">
        <ele>197</ele>
        <time>2018-10-28T10:53:29Z</time>
      </trkpt>
      <trkpt lat="45.97577" lon="4.71716">
        <ele>198</ele>
        <time>2018-10-28T10:53:31Z</time>
      </trkpt>
      <trkpt lat="45.97571" lon="4.71718">
        <ele>198</ele>
        <time>2018-10-28T10:53:32Z</time>
      </trkpt>
      <trkpt lat="45.97565" lon="4.71718">
        <ele>198</ele>
        <time>2018-10-28T10:53:33Z</time>
      </trkpt>
      <trkpt lat="45.97559" lon="4.71718">
        <ele>198</ele>
        <time>2018-10-28T10:53:34Z</time>
      </trkpt>
      <trkpt lat="45.97553" lon="4.71717">
        <ele>198</ele>
        <time>2018-10-28T10:53:35Z</time>
      </trkpt>
      <trkpt lat="45.97547" lon="4.71717">
        <ele>198</ele>
        <time>2018-10-28T10:53:36Z</time>
      </trkpt>
      <trkpt lat="45.97541" lon="4.71716">
        <ele>198</ele>
        <time>2018-10-28T10:53:37Z</time>
      </trkpt>
      <trkpt lat="45.97536" lon="4.71716">
        <ele>198</ele>
        <time>2018-10-28T10:53:38Z</time>
      </trkpt>
      <trkpt lat="45.9753" lon="4.71716">
        <ele>198</ele>
        <time>2018-10-28T10:53:39Z</time>
      </trkpt>
      <trkpt lat="45.97526" lon="4.71715">
        <ele>198</ele>
        <time>2018-10-28T10:53:40Z</time>
      </trkpt>
      <trkpt lat="45.97521" lon="4.71715">
        <ele>198</ele>
        <time>2018-10-28T10:53:41Z</time>
      </trkpt>
      <trkpt lat="45.97515" lon="4.71715">
        <ele>198</ele>
        <time>2018-10-28T10:53:42Z</time>
      </trkpt>
      <trkpt lat="45.97511" lon="4.71714">
        <ele>198</ele>
        <time>2018-10-28T10:53:43Z</time>
      </trkpt>
      <trkpt lat="45.97505" lon="4.71714">
        <ele>199</ele>
        <time>2018-10-28T10:53:44Z</time>
      </trkpt>
      <trkpt lat="45.975" lon="4.71714">
        <ele>198</ele>
        <time>2018-10-28T10:53:45Z</time>
      </trkpt>
      <trkpt lat="45.97494" lon="4.71713">
        <ele>198</ele>
        <time>2018-10-28T10:53:46Z</time>
      </trkpt>
      <trkpt lat="45.97488" lon="4.71713">
        <ele>198</ele>
        <time>2018-10-28T10:53:47Z</time>
      </trkpt>
      <trkpt lat="45.97482" lon="4.71713">
        <ele>198</ele>
        <time>2018-10-28T10:53:48Z</time>
      </trkpt>
      <trkpt lat="45.97475" lon="4.71713">
        <ele>197</ele>
        <time>2018-10-28T10:53:49Z</time>
      </trkpt>
      <trkpt lat="45.97469" lon="4.71712">
        <ele>197</ele>
        <time>2018-10-28T10:53:50Z</time>
      </trkpt>
      <trkpt lat="45.97464" lon="4.71712">
        <ele>197</ele>
        <time>2018-10-28T10:53:51Z</time>
      </trkpt>
      <trkpt lat="45.97457" lon="4.7171">
        <ele>197</ele>
        <time>2018-10-28T10:53:52Z</time>
      </trkpt>
      <trkpt lat="45.97451" lon="4.71709">
        <ele>197</ele>
        <time>2018-10-28T10:53:53Z</time>
      </trkpt>
      <trkpt lat="45.97445" lon="4.71709">
        <ele>197</ele>
        <time>2018-10-28T10:53:54Z</time>
      </trkpt>
      <trkpt lat="45.97439" lon="4.71708">
        <ele>197</ele>
        <time>2018-10-28T10:53:55Z</time>
      </trkpt>
      <trkpt lat="45.97434" lon="4.71708">
        <ele>197</ele>
        <time>2018-10-28T10:53:56Z</time>
      </trkpt>
      <trkpt lat="45.97429" lon="4.71708">
        <ele>197</ele>
        <time>2018-10-28T10:53:57Z</time>
      </trkpt>
      <trkpt lat="45.97425" lon="4.71709">
        <ele>196</ele>
        <time>2018-10-28T10:53:58Z</time>
      </trkpt>
      <trkpt lat="45.9742" lon="4.71708">
        <ele>196</ele>
        <time>2018-10-28T10:53:59Z</time>
      </trkpt>
      <trkpt lat="45.97414" lon="4.71708">
        <ele>195</ele>
        <time>2018-10-28T10:54:00Z</time>
      </trkpt>
      <trkpt lat="45.97408" lon="4.71707">
        <ele>195</ele>
        <time>2018-10-28T10:54:01Z</time>
      </trkpt>
      <trkpt lat="45.97402" lon="4.71706">
        <ele>195</ele>
        <time>2018-10-28T10:54:02Z</time>
      </trkpt>
      <trkpt lat="45.97399" lon="4.71706">
        <ele>195</ele>
        <time>2018-10-28T10:54:03Z</time>
      </trkpt>
      <trkpt lat="45.97393" lon="4.71704">
        <ele>195</ele>
        <time>2018-10-28T10:54:04Z</time>
      </trkpt>
      <trkpt lat="45.97387" lon="4.71704">
        <ele>195</ele>
        <time>2018-10-28T10:54:05Z</time>
      </trkpt>
      <trkpt lat="45.9738" lon="4.71702">
        <ele>195</ele>
        <time>2018-10-28T10:54:06Z</time>
      </trkpt>
      <trkpt lat="45.97373" lon="4.71703">
        <ele>195</ele>
        <time>2018-10-28T10:54:07Z</time>
      </trkpt>
      <trkpt lat="45.97366" lon="4.71702">
        <ele>195</ele>
        <time>2018-10-28T10:54:08Z</time>
      </trkpt>
      <trkpt lat="45.9736" lon="4.71701">
        <ele>195</ele>
        <time>2018-10-28T10:54:09Z</time>
      </trkpt>
      <trkpt lat="45.97353" lon="4.717">
        <ele>196</ele>
        <time>2018-10-28T10:54:10Z</time>
      </trkpt>
      <trkpt lat="45.97348" lon="4.71701">
        <ele>196</ele>
        <time>2018-10-28T10:54:11Z</time>
      </trkpt>
      <trkpt lat="45.97343" lon="4.717">
        <ele>196</ele>
        <time>2018-10-28T10:54:12Z</time>
      </trkpt>
      <trkpt lat="45.97336" lon="4.717">
        <ele>196</ele>
        <time>2018-10-28T10:54:13Z</time>
      </trkpt>
      <trkpt lat="45.9733" lon="4.71699">
        <ele>196</ele>
        <time>2018-10-28T10:54:14Z</time>
      </trkpt>
      <trkpt lat="45.97322" lon="4.71698">
        <ele>196</ele>
        <time>2018-10-28T10:54:18Z</time>
      </trkpt>
      <trkpt lat="45.97321" lon="4.71698">
        <ele>196</ele>
        <time>2018-10-28T10:54:19Z</time>
      </trkpt>
      <trkpt lat="45.97314" lon="4.71693">
        <ele>196</ele>
        <time>2018-10-28T10:54:22Z</time>
      </trkpt>
      <trkpt lat="45.97309" lon="4.71687">
        <ele>197</ele>
        <time>2018-10-28T10:54:23Z</time>
      </trkpt>
      <trkpt lat="45.97305" lon="4.71685">
        <ele>197</ele>
        <time>2018-10-28T10:54:24Z</time>
      </trkpt>
      <trkpt lat="45.973" lon="4.71684">
        <ele>197</ele>
        <time>2018-10-28T10:54:25Z</time>
      </trkpt>
      <trkpt lat="45.97292" lon="4.71689">
        <ele>197</ele>
        <time>2018-10-28T10:54:27Z</time>
      </trkpt>
      <trkpt lat="45.97286" lon="4.71693">
        <ele>197</ele>
        <time>2018-10-28T10:54:28Z</time>
      </trkpt>
      <trkpt lat="45.97282" lon="4.71695">
        <ele>197</ele>
        <time>2018-10-28T10:54:29Z</time>
      </trkpt>
      <trkpt lat="45.97275" lon="4.71697">
        <ele>197</ele>
        <time>2018-10-28T10:54:30Z</time>
      </trkpt>
      <trkpt lat="45.97269" lon="4.71696">
        <ele>197</ele>
        <time>2018-10-28T10:54:31Z</time>
      </trkpt>
      <trkpt lat="45.97262" lon="4.71694">
        <ele>197</ele>
        <time>2018-10-28T10:54:32Z</time>
      </trkpt>
      <trkpt lat="45.97256" lon="4.71693">
        <ele>197</ele>
        <time>2018-10-28T10:54:33Z</time>
      </trkpt>
      <trkpt lat="45.9725" lon="4.71691">
        <ele>197</ele>
        <time>2018-10-28T10:54:34Z</time>
      </trkpt>
      <trkpt lat="45.97243" lon="4.71691">
        <ele>197</ele>
        <time>2018-10-28T10:54:35Z</time>
      </trkpt>
      <trkpt lat="45.97235" lon="4.71689">
        <ele>197</ele>
        <time>2018-10-28T10:54:36Z</time>
      </trkpt>
      <trkpt lat="45.97229" lon="4.71688">
        <ele>197</ele>
        <time>2018-10-28T10:54:37Z</time>
      </trkpt>
      <trkpt lat="45.97222" lon="4.71688">
        <ele>197</ele>
        <time>2018-10-28T10:54:38Z</time>
      </trkpt>
      <trkpt lat="45.97215" lon="4.71687">
        <ele>197</ele>
        <time>2018-10-28T10:54:39Z</time>
      </trkpt>
      <trkpt lat="45.97209" lon="4.71686">
        <ele>197</ele>
        <time>2018-10-28T10:54:40Z</time>
      </trkpt>
      <trkpt lat="45.97203" lon="4.71686">
        <ele>197</ele>
        <time>2018-10-28T10:54:41Z</time>
      </trkpt>
      <trkpt lat="45.97197" lon="4.71685">
        <ele>197</ele>
        <time>2018-10-28T10:54:42Z</time>
      </trkpt>
      <trkpt lat="45.97191" lon="4.71685">
        <ele>197</ele>
        <time>2018-10-28T10:54:43Z</time>
      </trkpt>
      <trkpt lat="45.97185" lon="4.71684">
        <ele>197</ele>
        <time>2018-10-28T10:54:44Z</time>
      </trkpt>
      <trkpt lat="45.97178" lon="4.71684">
        <ele>197</ele>
        <time>2018-10-28T10:54:45Z</time>
      </trkpt>
      <trkpt lat="45.97172" lon="4.71683">
        <ele>197</ele>
        <time>2018-10-28T10:54:46Z</time>
      </trkpt>
      <trkpt lat="45.97166" lon="4.7168">
        <ele>196</ele>
        <time>2018-10-28T10:54:47Z</time>
      </trkpt>
      <trkpt lat="45.97159" lon="4.7168">
        <ele>196</ele>
        <time>2018-10-28T10:54:48Z</time>
      </trkpt>
      <trkpt lat="45.97152" lon="4.7168">
        <ele>196</ele>
        <time>2018-10-28T10:54:49Z</time>
      </trkpt>
      <trkpt lat="45.97146" lon="4.71679">
        <ele>196</ele>
        <time>2018-10-28T10:54:50Z</time>
      </trkpt>
      <trkpt lat="45.97137" lon="4.71679">
        <ele>195</ele>
        <time>2018-10-28T10:54:51Z</time>
      </trkpt>
      <trkpt lat="45.97127" lon="4.71677">
        <ele>195</ele>
        <time>2018-10-28T10:54:52Z</time>
      </trkpt>
      <trkpt lat="45.9712" lon="4.71676">
        <ele>195</ele>
        <time>2018-10-28T10:54:53Z</time>
      </trkpt>
      <trkpt lat="45.97113" lon="4.71676">
        <ele>195</ele>
        <time>2018-10-28T10:54:54Z</time>
      </trkpt>
      <trkpt lat="45.97106" lon="4.71675">
        <ele>195</ele>
        <time>2018-10-28T10:54:55Z</time>
      </trkpt>
      <trkpt lat="45.97099" lon="4.71675">
        <ele>195</ele>
        <time>2018-10-28T10:54:56Z</time>
      </trkpt>
      <trkpt lat="45.97092" lon="4.71674">
        <ele>195</ele>
        <time>2018-10-28T10:54:57Z</time>
      </trkpt>
      <trkpt lat="45.97085" lon="4.71674">
        <ele>195</ele>
        <time>2018-10-28T10:54:58Z</time>
      </trkpt>
      <trkpt lat="45.97077" lon="4.71672">
        <ele>194</ele>
        <time>2018-10-28T10:54:59Z</time>
      </trkpt>
      <trkpt lat="45.9707" lon="4.71671">
        <ele>194</ele>
        <time>2018-10-28T10:55:00Z</time>
      </trkpt>
      <trkpt lat="45.97063" lon="4.7167">
        <ele>193</ele>
        <time>2018-10-28T10:55:01Z</time>
      </trkpt>
      <trkpt lat="45.97057" lon="4.71669">
        <ele>193</ele>
        <time>2018-10-28T10:55:02Z</time>
      </trkpt>
      <trkpt lat="45.9705" lon="4.71668">
        <ele>193</ele>
        <time>2018-10-28T10:55:03Z</time>
      </trkpt>
      <trkpt lat="45.97042" lon="4.71666">
        <ele>195</ele>
        <time>2018-10-28T10:55:04Z</time>
      </trkpt>
      <trkpt lat="45.97034" lon="4.71666">
        <ele>195</ele>
        <time>2018-10-28T10:55:05Z</time>
      </trkpt>
      <trkpt lat="45.97027" lon="4.71664">
        <ele>195</ele>
        <time>2018-10-28T10:55:06Z</time>
      </trkpt>
      <trkpt lat="45.97018" lon="4.71663">
        <ele>195</ele>
        <time>2018-10-28T10:55:07Z</time>
      </trkpt>
      <trkpt lat="45.9701" lon="4.71663">
        <ele>195</ele>
        <time>2018-10-28T10:55:08Z</time>
      </trkpt>
      <trkpt lat="45.97003" lon="4.71663">
        <ele>194</ele>
        <time>2018-10-28T10:55:09Z</time>
      </trkpt>
      <trkpt lat="45.96995" lon="4.71663">
        <ele>194</ele>
        <time>2018-10-28T10:55:10Z</time>
      </trkpt>
      <trkpt lat="45.96988" lon="4.71663">
        <ele>195</ele>
        <time>2018-10-28T10:55:11Z</time>
      </trkpt>
      <trkpt lat="45.96981" lon="4.71664">
        <ele>195</ele>
        <time>2018-10-28T10:55:12Z</time>
      </trkpt>
      <trkpt lat="45.96974" lon="4.71664">
        <ele>195</ele>
        <time>2018-10-28T10:55:13Z</time>
      </trkpt>
      <trkpt lat="45.96967" lon="4.71664">
        <ele>195</ele>
        <time>2018-10-28T10:55:14Z</time>
      </trkpt>
      <trkpt lat="45.9696" lon="4.71664">
        <ele>195</ele>
        <time>2018-10-28T10:55:15Z</time>
      </trkpt>
      <trkpt lat="45.96954" lon="4.71664">
        <ele>195</ele>
        <time>2018-10-28T10:55:16Z</time>
      </trkpt>
      <trkpt lat="45.96947" lon="4.71664">
        <ele>195</ele>
        <time>2018-10-28T10:55:17Z</time>
      </trkpt>
      <trkpt lat="45.96939" lon="4.71664">
        <ele>195</ele>
        <time>2018-10-28T10:55:18Z</time>
      </trkpt>
      <trkpt lat="45.96932" lon="4.71665">
        <ele>195</ele>
        <time>2018-10-28T10:55:19Z</time>
      </trkpt>
      <trkpt lat="45.96926" lon="4.71666">
        <ele>195</ele>
        <time>2018-10-28T10:55:20Z</time>
      </trkpt>
      <trkpt lat="45.96918" lon="4.71665">
        <ele>195</ele>
        <time>2018-10-28T10:55:21Z</time>
      </trkpt>
      <trkpt lat="45.96912" lon="4.71665">
        <ele>195</ele>
        <time>2018-10-28T10:55:22Z</time>
      </trkpt>
      <trkpt lat="45.96904" lon="4.71663">
        <ele>195</ele>
        <time>2018-10-28T10:55:23Z</time>
      </trkpt>
      <trkpt lat="45.96896" lon="4.71662">
        <ele>195</ele>
        <time>2018-10-28T10:55:24Z</time>
      </trkpt>
      <trkpt lat="45.96888" lon="4.71662">
        <ele>195</ele>
        <time>2018-10-28T10:55:25Z</time>
      </trkpt>
      <trkpt lat="45.96879" lon="4.71661">
        <ele>195</ele>
        <time>2018-10-28T10:55:26Z</time>
      </trkpt>
      <trkpt lat="45.96872" lon="4.7166">
        <ele>195</ele>
        <time>2018-10-28T10:55:27Z</time>
      </trkpt>
      <trkpt lat="45.96864" lon="4.71659">
        <ele>195</ele>
        <time>2018-10-28T10:55:28Z</time>
      </trkpt>
      <trkpt lat="45.96857" lon="4.71659">
        <ele>194</ele>
        <time>2018-10-28T10:55:29Z</time>
      </trkpt>
      <trkpt lat="45.96847" lon="4.71659">
        <ele>194</ele>
        <time>2018-10-28T10:55:30Z</time>
      </trkpt>
      <trkpt lat="45.96841" lon="4.71658">
        <ele>193</ele>
        <time>2018-10-28T10:55:31Z</time>
      </trkpt>
      <trkpt lat="45.96832" lon="4.71656">
        <ele>192</ele>
        <time>2018-10-28T10:55:32Z</time>
      </trkpt>
      <trkpt lat="45.96824" lon="4.71656">
        <ele>193</ele>
        <time>2018-10-28T10:55:33Z</time>
      </trkpt>
      <trkpt lat="45.96816" lon="4.71655">
        <ele>193</ele>
        <time>2018-10-28T10:55:34Z</time>
      </trkpt>
      <trkpt lat="45.96808" lon="4.71653">
        <ele>193</ele>
        <time>2018-10-28T10:55:35Z</time>
      </trkpt>
      <trkpt lat="45.96798" lon="4.7165">
        <ele>193</ele>
        <time>2018-10-28T10:55:36Z</time>
      </trkpt>
      <trkpt lat="45.96789" lon="4.71649">
        <ele>192</ele>
        <time>2018-10-28T10:55:37Z</time>
      </trkpt>
      <trkpt lat="45.96781" lon="4.71647">
        <ele>192</ele>
        <time>2018-10-28T10:55:38Z</time>
      </trkpt>
      <trkpt lat="45.96771" lon="4.71645">
        <ele>192</ele>
        <time>2018-10-28T10:55:39Z</time>
      </trkpt>
      <trkpt lat="45.96762" lon="4.71644">
        <ele>192</ele>
        <time>2018-10-28T10:55:40Z</time>
      </trkpt>
      <trkpt lat="45.96753" lon="4.71642">
        <ele>192</ele>
        <time>2018-10-28T10:55:41Z</time>
      </trkpt>
      <trkpt lat="45.96744" lon="4.71641">
        <ele>190</ele>
        <time>2018-10-28T10:55:42Z</time>
      </trkpt>
      <trkpt lat="45.96736" lon="4.7164">
        <ele>190</ele>
        <time>2018-10-28T10:55:43Z</time>
      </trkpt>
      <trkpt lat="45.96727" lon="4.71638">
        <ele>190</ele>
        <time>2018-10-28T10:55:44Z</time>
      </trkpt>
      <trkpt lat="45.96718" lon="4.71637">
        <ele>190</ele>
        <time>2018-10-28T10:55:45Z</time>
      </trkpt>
      <trkpt lat="45.9671" lon="4.71637">
        <ele>190</ele>
        <time>2018-10-28T10:55:46Z</time>
      </trkpt>
      <trkpt lat="45.96702" lon="4.71636">
        <ele>190</ele>
        <time>2018-10-28T10:55:47Z</time>
      </trkpt>
      <trkpt lat="45.96693" lon="4.71634">
        <ele>190</ele>
        <time>2018-10-28T10:55:48Z</time>
      </trkpt>
      <trkpt lat="45.96685" lon="4.71632">
        <ele>190</ele>
        <time>2018-10-28T10:55:49Z</time>
      </trkpt>
      <trkpt lat="45.96679" lon="4.71631">
        <ele>190</ele>
        <time>2018-10-28T10:55:50Z</time>
      </trkpt>
      <trkpt lat="45.96671" lon="4.71631">
        <ele>190</ele>
        <time>2018-10-28T10:55:51Z</time>
      </trkpt>
      <trkpt lat="45.96663" lon="4.71629">
        <ele>188</ele>
        <time>2018-10-28T10:55:52Z</time>
      </trkpt>
      <trkpt lat="45.96654" lon="4.71628">
        <ele>188</ele>
        <time>2018-10-28T10:55:53Z</time>
      </trkpt>
      <trkpt lat="45.96646" lon="4.71627">
        <ele>188</ele>
        <time>2018-10-28T10:55:54Z</time>
      </trkpt>
      <trkpt lat="45.96637" lon="4.71625">
        <ele>188</ele>
        <time>2018-10-28T10:55:55Z</time>
      </trkpt>
      <trkpt lat="45.9663" lon="4.71625">
        <ele>188</ele>
        <time>2018-10-28T10:55:56Z</time>
      </trkpt>
      <trkpt lat="45.96621" lon="4.71622">
        <ele>188</ele>
        <time>2018-10-28T10:55:57Z</time>
      </trkpt>
      <trkpt lat="45.96612" lon="4.71621">
        <ele>188</ele>
        <time>2018-10-28T10:55:58Z</time>
      </trkpt>
      <trkpt lat="45.96603" lon="4.71619">
        <ele>188</ele>
        <time>2018-10-28T10:55:59Z</time>
      </trkpt>
      <trkpt lat="45.96594" lon="4.71617">
        <ele>188</ele>
        <time>2018-10-28T10:56:00Z</time>
      </trkpt>
      <trkpt lat="45.96586" lon="4.71616">
        <ele>188</ele>
        <time>2018-10-28T10:56:01Z</time>
      </trkpt>
      <trkpt lat="45.96578" lon="4.71613">
        <ele>186</ele>
        <time>2018-10-28T10:56:02Z</time>
      </trkpt>
      <trkpt lat="45.96569" lon="4.71611">
        <ele>186</ele>
        <time>2018-10-28T10:56:03Z</time>
      </trkpt>
      <trkpt lat="45.96562" lon="4.71609">
        <ele>185</ele>
        <time>2018-10-28T10:56:04Z</time>
      </trkpt>
      <trkpt lat="45.96554" lon="4.71607">
        <ele>185</ele>
        <time>2018-10-28T10:56:05Z</time>
      </trkpt>
      <trkpt lat="45.96548" lon="4.71605">
        <ele>185</ele>
        <time>2018-10-28T10:56:06Z</time>
      </trkpt>
      <trkpt lat="45.96542" lon="4.716">
        <ele>185</ele>
        <time>2018-10-28T10:56:07Z</time>
      </trkpt>
      <trkpt lat="45.96535" lon="4.71596">
        <ele>185</ele>
        <time>2018-10-28T10:56:08Z</time>
      </trkpt>
      <trkpt lat="45.96529" lon="4.71594">
        <ele>185</ele>
        <time>2018-10-28T10:56:09Z</time>
      </trkpt>
      <trkpt lat="45.96521" lon="4.71594">
        <ele>185</ele>
        <time>2018-10-28T10:56:10Z</time>
      </trkpt>
      <trkpt lat="45.96514" lon="4.71596">
        <ele>185</ele>
        <time>2018-10-28T10:56:11Z</time>
      </trkpt>
      <trkpt lat="45.96506" lon="4.71595">
        <ele>185</ele>
        <time>2018-10-28T10:56:12Z</time>
      </trkpt>
      <trkpt lat="45.96499" lon="4.71595">
        <ele>184</ele>
        <time>2018-10-28T10:56:13Z</time>
      </trkpt>
      <trkpt lat="45.96491" lon="4.71594">
        <ele>184</ele>
        <time>2018-10-28T10:56:14Z</time>
      </trkpt>
      <trkpt lat="45.96482" lon="4.71593">
        <ele>184</ele>
        <time>2018-10-28T10:56:15Z</time>
      </trkpt>
      <trkpt lat="45.96474" lon="4.71592">
        <ele>183</ele>
        <time>2018-10-28T10:56:16Z</time>
      </trkpt>
      <trkpt lat="45.96466" lon="4.71592">
        <ele>183</ele>
        <time>2018-10-28T10:56:17Z</time>
      </trkpt>
      <trkpt lat="45.9646" lon="4.71592">
        <ele>183</ele>
        <time>2018-10-28T10:56:18Z</time>
      </trkpt>
      <trkpt lat="45.96451" lon="4.71591">
        <ele>183</ele>
        <time>2018-10-28T10:56:19Z</time>
      </trkpt>
      <trkpt lat="45.96443" lon="4.71589">
        <ele>184</ele>
        <time>2018-10-28T10:56:20Z</time>
      </trkpt>
      <trkpt lat="45.96436" lon="4.71589">
        <ele>184</ele>
        <time>2018-10-28T10:56:21Z</time>
      </trkpt>
      <trkpt lat="45.96428" lon="4.71588">
        <ele>184</ele>
        <time>2018-10-28T10:56:22Z</time>
      </trkpt>
      <trkpt lat="45.96422" lon="4.71587">
        <ele>184</ele>
        <time>2018-10-28T10:56:23Z</time>
      </trkpt>
      <trkpt lat="45.96414" lon="4.71586">
        <ele>185</ele>
        <time>2018-10-28T10:56:24Z</time>
      </trkpt>
      <trkpt lat="45.96405" lon="4.71584">
        <ele>184</ele>
        <time>2018-10-28T10:56:25Z</time>
      </trkpt>
      <trkpt lat="45.96397" lon="4.71583">
        <ele>186</ele>
        <time>2018-10-28T10:56:26Z</time>
      </trkpt>
      <trkpt lat="45.96389" lon="4.71581">
        <ele>186</ele>
        <time>2018-10-28T10:56:27Z</time>
      </trkpt>
      <trkpt lat="45.96381" lon="4.7158">
        <ele>186</ele>
        <time>2018-10-28T10:56:28Z</time>
      </trkpt>
      <trkpt lat="45.96374" lon="4.71579">
        <ele>186</ele>
        <time>2018-10-28T10:56:29Z</time>
      </trkpt>
      <trkpt lat="45.96367" lon="4.71578">
        <ele>186</ele>
        <time>2018-10-28T10:56:30Z</time>
      </trkpt>
      <trkpt lat="45.9636" lon="4.71577">
        <ele>185</ele>
        <time>2018-10-28T10:56:31Z</time>
      </trkpt>
      <trkpt lat="45.96352" lon="4.71577">
        <ele>185</ele>
        <time>2018-10-28T10:56:32Z</time>
      </trkpt>
      <trkpt lat="45.96345" lon="4.71576">
        <ele>185</ele>
        <time>2018-10-28T10:56:33Z</time>
      </trkpt>
      <trkpt lat="45.96338" lon="4.71575">
        <ele>184</ele>
        <time>2018-10-28T10:56:34Z</time>
      </trkpt>
      <trkpt lat="45.96331" lon="4.71573">
        <ele>184</ele>
        <time>2018-10-28T10:56:35Z</time>
      </trkpt>
      <trkpt lat="45.96325" lon="4.71571">
        <ele>184</ele>
        <time>2018-10-28T10:56:36Z</time>
      </trkpt>
      <trkpt lat="45.96317" lon="4.7157">
        <ele>184</ele>
        <time>2018-10-28T10:56:37Z</time>
      </trkpt>
      <trkpt lat="45.96312" lon="4.7157">
        <ele>184</ele>
        <time>2018-10-28T10:56:38Z</time>
      </trkpt>
      <trkpt lat="45.96305" lon="4.71569">
        <ele>184</ele>
        <time>2018-10-28T10:56:39Z</time>
      </trkpt>
      <trkpt lat="45.96299" lon="4.71569">
        <ele>184</ele>
        <time>2018-10-28T10:56:40Z</time>
      </trkpt>
      <trkpt lat="45.96292" lon="4.71568">
        <ele>184</ele>
        <time>2018-10-28T10:56:41Z</time>
      </trkpt>
      <trkpt lat="45.96285" lon="4.71567">
        <ele>184</ele>
        <time>2018-10-28T10:56:42Z</time>
      </trkpt>
      <trkpt lat="45.9628" lon="4.71566">
        <ele>184</ele>
        <time>2018-10-28T10:56:43Z</time>
      </trkpt>
      <trkpt lat="45.96273" lon="4.71565">
        <ele>184</ele>
        <time>2018-10-28T10:56:44Z</time>
      </trkpt>
      <trkpt lat="45.96265" lon="4.71563">
        <ele>184</ele>
        <time>2018-10-28T10:56:45Z</time>
      </trkpt>
      <trkpt lat="45.96259" lon="4.71562">
        <ele>184</ele>
        <time>2018-10-28T10:56:46Z</time>
      </trkpt>
      <trkpt lat="45.96252" lon="4.71562">
        <ele>184</ele>
        <time>2018-10-28T10:56:47Z</time>
      </trkpt>
      <trkpt lat="45.96245" lon="4.71561">
        <ele>183</ele>
        <time>2018-10-28T10:56:48Z</time>
      </trkpt>
      <trkpt lat="45.96238" lon="4.71559">
        <ele>183</ele>
        <time>2018-10-28T10:56:49Z</time>
      </trkpt>
      <trkpt lat="45.9623" lon="4.71558">
        <ele>183</ele>
        <time>2018-10-28T10:56:50Z</time>
      </trkpt>
      <trkpt lat="45.96221" lon="4.71558">
        <ele>184</ele>
        <time>2018-10-28T10:56:51Z</time>
      </trkpt>
      <trkpt lat="45.96214" lon="4.71556">
        <ele>184</ele>
        <time>2018-10-28T10:56:52Z</time>
      </trkpt>
      <trkpt lat="45.96206" lon="4.71555">
        <ele>184</ele>
        <time>2018-10-28T10:56:53Z</time>
      </trkpt>
      <trkpt lat="45.962" lon="4.71554">
        <ele>184</ele>
        <time>2018-10-28T10:56:54Z</time>
      </trkpt>
      <trkpt lat="45.96193" lon="4.71554">
        <ele>184</ele>
        <time>2018-10-28T10:56:55Z</time>
      </trkpt>
      <trkpt lat="45.96186" lon="4.71553">
        <ele>184</ele>
        <time>2018-10-28T10:56:56Z</time>
      </trkpt>
      <trkpt lat="45.96178" lon="4.71552">
        <ele>184</ele>
        <time>2018-10-28T10:56:57Z</time>
      </trkpt>
      <trkpt lat="45.96172" lon="4.71551">
        <ele>184</ele>
        <time>2018-10-28T10:56:58Z</time>
      </trkpt>
      <trkpt lat="45.96167" lon="4.71549">
        <ele>184</ele>
        <time>2018-10-28T10:56:59Z</time>
      </trkpt>
      <trkpt lat="45.96161" lon="4.71547">
        <ele>184</ele>
        <time>2018-10-28T10:57:00Z</time>
      </trkpt>
      <trkpt lat="45.96155" lon="4.71546">
        <ele>184</ele>
        <time>2018-10-28T10:57:01Z</time>
      </trkpt>
      <trkpt lat="45.96148" lon="4.71545">
        <ele>184</ele>
        <time>2018-10-28T10:57:02Z</time>
      </trkpt>
      <trkpt lat="45.96143" lon="4.71543">
        <ele>185</ele>
        <time>2018-10-28T10:57:03Z</time>
      </trkpt>
      <trkpt lat="45.96136" lon="4.71542">
        <ele>185</ele>
        <time>2018-10-28T10:57:04Z</time>
      </trkpt>
      <trkpt lat="45.9613" lon="4.71541">
        <ele>185</ele>
        <time>2018-10-28T10:57:05Z</time>
      </trkpt>
      <trkpt lat="45.96123" lon="4.71541">
        <ele>185</ele>
        <time>2018-10-28T10:57:06Z</time>
      </trkpt>
      <trkpt lat="45.96117" lon="4.71539">
        <ele>185</ele>
        <time>2018-10-28T10:57:07Z</time>
      </trkpt>
      <trkpt lat="45.9611" lon="4.71538">
        <ele>185</ele>
        <time>2018-10-28T10:57:08Z</time>
      </trkpt>
      <trkpt lat="45.96103" lon="4.71537">
        <ele>185</ele>
        <time>2018-10-28T10:57:09Z</time>
      </trkpt>
      <trkpt lat="45.96095" lon="4.71535">
        <ele>185</ele>
        <time>2018-10-28T10:57:10Z</time>
      </trkpt>
      <trkpt lat="45.96088" lon="4.71535">
        <ele>185</ele>
        <time>2018-10-28T10:57:11Z</time>
      </trkpt>
      <trkpt lat="45.9608" lon="4.71533">
        <ele>186</ele>
        <time>2018-10-28T10:57:12Z</time>
      </trkpt>
      <trkpt lat="45.96073" lon="4.71531">
        <ele>186</ele>
        <time>2018-10-28T10:57:13Z</time>
      </trkpt>
      <trkpt lat="45.96067" lon="4.7153">
        <ele>186</ele>
        <time>2018-10-28T10:57:14Z</time>
      </trkpt>
      <trkpt lat="45.96059" lon="4.71528">
        <ele>186</ele>
        <time>2018-10-28T10:57:15Z</time>
      </trkpt>
      <trkpt lat="45.96052" lon="4.71527">
        <ele>186</ele>
        <time>2018-10-28T10:57:16Z</time>
      </trkpt>
      <trkpt lat="45.96046" lon="4.71526">
        <ele>186</ele>
        <time>2018-10-28T10:57:17Z</time>
      </trkpt>
      <trkpt lat="45.9604" lon="4.71524">
        <ele>186</ele>
        <time>2018-10-28T10:57:18Z</time>
      </trkpt>
      <trkpt lat="45.96033" lon="4.71523">
        <ele>186</ele>
        <time>2018-10-28T10:57:19Z</time>
      </trkpt>
      <trkpt lat="45.96027" lon="4.71522">
        <ele>186</ele>
        <time>2018-10-28T10:57:20Z</time>
      </trkpt>
      <trkpt lat="45.96021" lon="4.71521">
        <ele>186</ele>
        <time>2018-10-28T10:57:21Z</time>
      </trkpt>
      <trkpt lat="45.96017" lon="4.71519">
        <ele>186</ele>
        <time>2018-10-28T10:57:22Z</time>
      </trkpt>
      <trkpt lat="45.96011" lon="4.71517">
        <ele>186</ele>
        <time>2018-10-28T10:57:23Z</time>
      </trkpt>
      <trkpt lat="45.96006" lon="4.71515">
        <ele>187</ele>
        <time>2018-10-28T10:57:24Z</time>
      </trkpt>
      <trkpt lat="45.96002" lon="4.71513">
        <ele>187</ele>
        <time>2018-10-28T10:57:25Z</time>
      </trkpt>
      <trkpt lat="45.95998" lon="4.7151">
        <ele>186</ele>
        <time>2018-10-28T10:57:26Z</time>
      </trkpt>
      <trkpt lat="45.95993" lon="4.71507">
        <ele>186</ele>
        <time>2018-10-28T10:57:27Z</time>
      </trkpt>
      <trkpt lat="45.95987" lon="4.71503">
        <ele>186</ele>
        <time>2018-10-28T10:57:28Z</time>
      </trkpt>
      <trkpt lat="45.95981" lon="4.71501">
        <ele>186</ele>
        <time>2018-10-28T10:57:29Z</time>
      </trkpt>
      <trkpt lat="45.95975" lon="4.71502">
        <ele>185</ele>
        <time>2018-10-28T10:57:30Z</time>
      </trkpt>
      <trkpt lat="45.95972" lon="4.71505">
        <ele>185</ele>
        <time>2018-10-28T10:57:31Z</time>
      </trkpt>
      <trkpt lat="45.95966" lon="4.71509">
        <ele>185</ele>
        <time>2018-10-28T10:57:32Z</time>
      </trkpt>
      <trkpt lat="45.95959" lon="4.71511">
        <ele>184</ele>
        <time>2018-10-28T10:57:33Z</time>
      </trkpt>
      <trkpt lat="45.95952" lon="4.71512">
        <ele>184</ele>
        <time>2018-10-28T10:57:34Z</time>
      </trkpt>
      <trkpt lat="45.95945" lon="4.71514">
        <ele>184</ele>
        <time>2018-10-28T10:57:35Z</time>
      </trkpt>
      <trkpt lat="45.95938" lon="4.71515">
        <ele>184</ele>
        <time>2018-10-28T10:57:36Z</time>
      </trkpt>
      <trkpt lat="45.95931" lon="4.71515">
        <ele>184</ele>
        <time>2018-10-28T10:57:37Z</time>
      </trkpt>
      <trkpt lat="45.95924" lon="4.71515">
        <ele>184</ele>
        <time>2018-10-28T10:57:38Z</time>
      </trkpt>
      <trkpt lat="45.95917" lon="4.71514">
        <ele>184</ele>
        <time>2018-10-28T10:57:39Z</time>
      </trkpt>
      <trkpt lat="45.95911" lon="4.71514">
        <ele>183</ele>
        <time>2018-10-28T10:57:40Z</time>
      </trkpt>
      <trkpt lat="45.95904" lon="4.71514">
        <ele>183</ele>
        <time>2018-10-28T10:57:41Z</time>
      </trkpt>
      <trkpt lat="45.95897" lon="4.71514">
        <ele>183</ele>
        <time>2018-10-28T10:57:42Z</time>
      </trkpt>
      <trkpt lat="45.9589" lon="4.71513">
        <ele>183</ele>
        <time>2018-10-28T10:57:43Z</time>
      </trkpt>
      <trkpt lat="45.95884" lon="4.71513">
        <ele>182</ele>
        <time>2018-10-28T10:57:44Z</time>
      </trkpt>
      <trkpt lat="45.95876" lon="4.71512">
        <ele>182</ele>
        <time>2018-10-28T10:57:45Z</time>
      </trkpt>
      <trkpt lat="45.95869" lon="4.71512">
        <ele>182</ele>
        <time>2018-10-28T10:57:46Z</time>
      </trkpt>
      <trkpt lat="45.95862" lon="4.71513">
        <ele>182</ele>
        <time>2018-10-28T10:57:47Z</time>
      </trkpt>
      <trkpt lat="45.95855" lon="4.71514">
        <ele>182</ele>
        <time>2018-10-28T10:57:48Z</time>
      </trkpt>
      <trkpt lat="45.95848" lon="4.71515">
        <ele>182</ele>
        <time>2018-10-28T10:57:49Z</time>
      </trkpt>
      <trkpt lat="45.95841" lon="4.71515">
        <ele>183</ele>
        <time>2018-10-28T10:57:50Z</time>
      </trkpt>
      <trkpt lat="45.95832" lon="4.71515">
        <ele>182</ele>
        <time>2018-10-28T10:57:51Z</time>
      </trkpt>
      <trkpt lat="45.95825" lon="4.71515">
        <ele>182</ele>
        <time>2018-10-28T10:57:52Z</time>
      </trkpt>
      <trkpt lat="45.95817" lon="4.71514">
        <ele>182</ele>
        <time>2018-10-28T10:57:53Z</time>
      </trkpt>
      <trkpt lat="45.95809" lon="4.71514">
        <ele>182</ele>
        <time>2018-10-28T10:57:54Z</time>
      </trkpt>
      <trkpt lat="45.958" lon="4.71514">
        <ele>181</ele>
        <time>2018-10-28T10:57:55Z</time>
      </trkpt>
      <trkpt lat="45.95792" lon="4.71513">
        <ele>181</ele>
        <time>2018-10-28T10:57:56Z</time>
      </trkpt>
      <trkpt lat="45.95784" lon="4.71512">
        <ele>181</ele>
        <time>2018-10-28T10:57:57Z</time>
      </trkpt>
      <trkpt lat="45.95775" lon="4.71512">
        <ele>181</ele>
        <time>2018-10-28T10:57:58Z</time>
      </trkpt>
      <trkpt lat="45.95767" lon="4.71512">
        <ele>181</ele>
        <time>2018-10-28T10:57:59Z</time>
      </trkpt>
      <trkpt lat="45.95759" lon="4.71511">
        <ele>181</ele>
        <time>2018-10-28T10:58:00Z</time>
      </trkpt>
      <trkpt lat="45.95751" lon="4.7151">
        <ele>181</ele>
        <time>2018-10-28T10:58:01Z</time>
      </trkpt>
      <trkpt lat="45.95744" lon="4.7151">
        <ele>181</ele>
        <time>2018-10-28T10:58:02Z</time>
      </trkpt>
      <trkpt lat="45.95735" lon="4.7151">
        <ele>181</ele>
        <time>2018-10-28T10:58:03Z</time>
      </trkpt>
      <trkpt lat="45.95727" lon="4.71508">
        <ele>181</ele>
        <time>2018-10-28T10:58:04Z</time>
      </trkpt>
      <trkpt lat="45.95719" lon="4.71507">
        <ele>180</ele>
        <time>2018-10-28T10:58:05Z</time>
      </trkpt>
      <trkpt lat="45.95711" lon="4.71506">
        <ele>180</ele>
        <time>2018-10-28T10:58:06Z</time>
      </trkpt>
      <trkpt lat="45.95702" lon="4.71505">
        <ele>180</ele>
        <time>2018-10-28T10:58:07Z</time>
      </trkpt>
      <trkpt lat="45.95695" lon="4.71505">
        <ele>181</ele>
        <time>2018-10-28T10:58:08Z</time>
      </trkpt>
      <trkpt lat="45.95686" lon="4.71503">
        <ele>181</ele>
        <time>2018-10-28T10:58:09Z</time>
      </trkpt>
      <trkpt lat="45.95678" lon="4.71502">
        <ele>181</ele>
        <time>2018-10-28T10:58:10Z</time>
      </trkpt>
      <trkpt lat="45.9567" lon="4.71501">
        <ele>182</ele>
        <time>2018-10-28T10:58:11Z</time>
      </trkpt>
      <trkpt lat="45.95662" lon="4.71501">
        <ele>181</ele>
        <time>2018-10-28T10:58:12Z</time>
      </trkpt>
      <trkpt lat="45.95653" lon="4.71501">
        <ele>181</ele>
        <time>2018-10-28T10:58:13Z</time>
      </trkpt>
      <trkpt lat="45.95646" lon="4.715">
        <ele>182</ele>
        <time>2018-10-28T10:58:14Z</time>
      </trkpt>
      <trkpt lat="45.95637" lon="4.71499">
        <ele>182</ele>
        <time>2018-10-28T10:58:15Z</time>
      </trkpt>
      <trkpt lat="45.95628" lon="4.71498">
        <ele>182</ele>
        <time>2018-10-28T10:58:16Z</time>
      </trkpt>
      <trkpt lat="45.9562" lon="4.71498">
        <ele>181</ele>
        <time>2018-10-28T10:58:17Z</time>
      </trkpt>
      <trkpt lat="45.9561" lon="4.71497">
        <ele>181</ele>
        <time>2018-10-28T10:58:18Z</time>
      </trkpt>
      <trkpt lat="45.95602" lon="4.71496">
        <ele>181</ele>
        <time>2018-10-28T10:58:19Z</time>
      </trkpt>
      <trkpt lat="45.95593" lon="4.71496">
        <ele>181</ele>
        <time>2018-10-28T10:58:20Z</time>
      </trkpt>
      <trkpt lat="45.95584" lon="4.71495">
        <ele>180</ele>
        <time>2018-10-28T10:58:21Z</time>
      </trkpt>
      <trkpt lat="45.95576" lon="4.71494">
        <ele>180</ele>
        <time>2018-10-28T10:58:22Z</time>
      </trkpt>
      <trkpt lat="45.95567" lon="4.71493">
        <ele>179</ele>
        <time>2018-10-28T10:58:23Z</time>
      </trkpt>
      <trkpt lat="45.95558" lon="4.71491">
        <ele>179</ele>
        <time>2018-10-28T10:58:24Z</time>
      </trkpt>
      <trkpt lat="45.9555" lon="4.7149">
        <ele>179</ele>
        <time>2018-10-28T10:58:25Z</time>
      </trkpt>
      <trkpt lat="45.95541" lon="4.71489">
        <ele>179</ele>
        <time>2018-10-28T10:58:26Z</time>
      </trkpt>
      <trkpt lat="45.95532" lon="4.71489">
        <ele>179</ele>
        <time>2018-10-28T10:58:27Z</time>
      </trkpt>
      <trkpt lat="45.95525" lon="4.71489">
        <ele>178</ele>
        <time>2018-10-28T10:58:28Z</time>
      </trkpt>
      <trkpt lat="45.95517" lon="4.71489">
        <ele>178</ele>
        <time>2018-10-28T10:58:29Z</time>
      </trkpt>
      <trkpt lat="45.9551" lon="4.71489">
        <ele>178</ele>
        <time>2018-10-28T10:58:30Z</time>
      </trkpt>
      <trkpt lat="45.95502" lon="4.7149">
        <ele>178</ele>
        <time>2018-10-28T10:58:31Z</time>
      </trkpt>
      <trkpt lat="45.95493" lon="4.71489">
        <ele>177</ele>
        <time>2018-10-28T10:58:32Z</time>
      </trkpt>
      <trkpt lat="45.95485" lon="4.71487">
        <ele>177</ele>
        <time>2018-10-28T10:58:33Z</time>
      </trkpt>
      <trkpt lat="45.95475" lon="4.71487">
        <ele>176</ele>
        <time>2018-10-28T10:58:34Z</time>
      </trkpt>
      <trkpt lat="45.95466" lon="4.71486">
        <ele>176</ele>
        <time>2018-10-28T10:58:35Z</time>
      </trkpt>
      <trkpt lat="45.95458" lon="4.71485">
        <ele>176</ele>
        <time>2018-10-28T10:58:36Z</time>
      </trkpt>
      <trkpt lat="45.95448" lon="4.71485">
        <ele>176</ele>
        <time>2018-10-28T10:58:37Z</time>
      </trkpt>
      <trkpt lat="45.95439" lon="4.71484">
        <ele>176</ele>
        <time>2018-10-28T10:58:38Z</time>
      </trkpt>
      <trkpt lat="45.9543" lon="4.71483">
        <ele>175</ele>
        <time>2018-10-28T10:58:39Z</time>
      </trkpt>
      <trkpt lat="45.95422" lon="4.71482">
        <ele>175</ele>
        <time>2018-10-28T10:58:40Z</time>
      </trkpt>
      <trkpt lat="45.95413" lon="4.71483">
        <ele>175</ele>
        <time>2018-10-28T10:58:41Z</time>
      </trkpt>
      <trkpt lat="45.95404" lon="4.71482">
        <ele>175</ele>
        <time>2018-10-28T10:58:42Z</time>
      </trkpt>
      <trkpt lat="45.95396" lon="4.71481">
        <ele>175</ele>
        <time>2018-10-28T10:58:43Z</time>
      </trkpt>
      <trkpt lat="45.95387" lon="4.71481">
        <ele>175</ele>
        <time>2018-10-28T10:58:44Z</time>
      </trkpt>
      <trkpt lat="45.95378" lon="4.71483">
        <ele>175</ele>
        <time>2018-10-28T10:58:45Z</time>
      </trkpt>
      <trkpt lat="45.95371" lon="4.71484">
        <ele>175</ele>
        <time>2018-10-28T10:58:46Z</time>
      </trkpt>
      <trkpt lat="45.95363" lon="4.71483">
        <ele>175</ele>
        <time>2018-10-28T10:58:47Z</time>
      </trkpt>
      <trkpt lat="45.95355" lon="4.71482">
        <ele>175</ele>
        <time>2018-10-28T10:58:48Z</time>
      </trkpt>
      <trkpt lat="45.95347" lon="4.7148">
        <ele>175</ele>
        <time>2018-10-28T10:58:49Z</time>
      </trkpt>
      <trkpt lat="45.95339" lon="4.71479">
        <ele>175</ele>
        <time>2018-10-28T10:58:50Z</time>
      </trkpt>
      <trkpt lat="45.95332" lon="4.71478">
        <ele>175</ele>
        <time>2018-10-28T10:58:51Z</time>
      </trkpt>
      <trkpt lat="45.95325" lon="4.71478">
        <ele>175</ele>
        <time>2018-10-28T10:58:52Z</time>
      </trkpt>
      <trkpt lat="45.95317" lon="4.71478">
        <ele>175</ele>
        <time>2018-10-28T10:58:53Z</time>
      </trkpt>
      <trkpt lat="45.9531" lon="4.71478">
        <ele>175</ele>
        <time>2018-10-28T10:58:54Z</time>
      </trkpt>
      <trkpt lat="45.95302" lon="4.71477">
        <ele>176</ele>
        <time>2018-10-28T10:58:55Z</time>
      </trkpt>
      <trkpt lat="45.95294" lon="4.71476">
        <ele>176</ele>
        <time>2018-10-28T10:58:56Z</time>
      </trkpt>
      <trkpt lat="45.95283" lon="4.71475">
        <ele>176</ele>
        <time>2018-10-28T10:58:57Z</time>
      </trkpt>
      <trkpt lat="45.95276" lon="4.71474">
        <ele>176</ele>
        <time>2018-10-28T10:58:58Z</time>
      </trkpt>
      <trkpt lat="45.95269" lon="4.71474">
        <ele>176</ele>
        <time>2018-10-28T10:58:59Z</time>
      </trkpt>
      <trkpt lat="45.95262" lon="4.71474">
        <ele>176</ele>
        <time>2018-10-28T10:59:00Z</time>
      </trkpt>
      <trkpt lat="45.95255" lon="4.71473">
        <ele>176</ele>
        <time>2018-10-28T10:59:01Z</time>
      </trkpt>
      <trkpt lat="45.95248" lon="4.71474">
        <ele>177</ele>
        <time>2018-10-28T10:59:02Z</time>
      </trkpt>
      <trkpt lat="45.95241" lon="4.71474">
        <ele>177</ele>
        <time>2018-10-28T10:59:03Z</time>
      </trkpt>
      <trkpt lat="45.95234" lon="4.71473">
        <ele>177</ele>
        <time>2018-10-28T10:59:04Z</time>
      </trkpt>
      <trkpt lat="45.95227" lon="4.71472">
        <ele>177</ele>
        <time>2018-10-28T10:59:05Z</time>
      </trkpt>
      <trkpt lat="45.9522" lon="4.71472">
        <ele>177</ele>
        <time>2018-10-28T10:59:06Z</time>
      </trkpt>
      <trkpt lat="45.95212" lon="4.71471">
        <ele>177</ele>
        <time>2018-10-28T10:59:07Z</time>
      </trkpt>
      <trkpt lat="45.95205" lon="4.71471">
        <ele>177</ele>
        <time>2018-10-28T10:59:08Z</time>
      </trkpt>
      <trkpt lat="45.95197" lon="4.71469">
        <ele>177</ele>
        <time>2018-10-28T10:59:09Z</time>
      </trkpt>
      <trkpt lat="45.9519" lon="4.71469">
        <ele>177</ele>
        <time>2018-10-28T10:59:10Z</time>
      </trkpt>
      <trkpt lat="45.95183" lon="4.71468">
        <ele>177</ele>
        <time>2018-10-28T10:59:11Z</time>
      </trkpt>
      <trkpt lat="45.95175" lon="4.71468">
        <ele>177</ele>
        <time>2018-10-28T10:59:12Z</time>
      </trkpt>
      <trkpt lat="45.95168" lon="4.71467">
        <ele>177</ele>
        <time>2018-10-28T10:59:13Z</time>
      </trkpt>
      <trkpt lat="45.95161" lon="4.71466">
        <ele>178</ele>
        <time>2018-10-28T10:59:14Z</time>
      </trkpt>
      <trkpt lat="45.95155" lon="4.71465">
        <ele>178</ele>
        <time>2018-10-28T10:59:15Z</time>
      </trkpt>
      <trkpt lat="45.95148" lon="4.71466">
        <ele>178</ele>
        <time>2018-10-28T10:59:16Z</time>
      </trkpt>
      <trkpt lat="45.95141" lon="4.71465">
        <ele>178</ele>
        <time>2018-10-28T10:59:17Z</time>
      </trkpt>
      <trkpt lat="45.95135" lon="4.71465">
        <ele>178</ele>
        <time>2018-10-28T10:59:18Z</time>
      </trkpt>
      <trkpt lat="45.95129" lon="4.71464">
        <ele>178</ele>
        <time>2018-10-28T10:59:19Z</time>
      </trkpt>
      <trkpt lat="45.9512" lon="4.71465">
        <ele>179</ele>
        <time>2018-10-28T10:59:20Z</time>
      </trkpt>
      <trkpt lat="45.95114" lon="4.71465">
        <ele>179</ele>
        <time>2018-10-28T10:59:21Z</time>
      </trkpt>
      <trkpt lat="45.95108" lon="4.71465">
        <ele>179</ele>
        <time>2018-10-28T10:59:22Z</time>
      </trkpt>
      <trkpt lat="45.95103" lon="4.71466">
        <ele>179</ele>
        <time>2018-10-28T10:59:23Z</time>
      </trkpt>
      <trkpt lat="45.95096" lon="4.71466">
        <ele>179</ele>
        <time>2018-10-28T10:59:24Z</time>
      </trkpt>
      <trkpt lat="45.95089" lon="4.71465">
        <ele>179</ele>
        <time>2018-10-28T10:59:25Z</time>
      </trkpt>
      <trkpt lat="45.95084" lon="4.71463">
        <ele>179</ele>
        <time>2018-10-28T10:59:26Z</time>
      </trkpt>
      <trkpt lat="45.95078" lon="4.71463">
        <ele>181</ele>
        <time>2018-10-28T10:59:27Z</time>
      </trkpt>
      <trkpt lat="45.95071" lon="4.71462">
        <ele>181</ele>
        <time>2018-10-28T10:59:28Z</time>
      </trkpt>
      <trkpt lat="45.95064" lon="4.71461">
        <ele>181</ele>
        <time>2018-10-28T10:59:29Z</time>
      </trkpt>
      <trkpt lat="45.95058" lon="4.71461">
        <ele>181</ele>
        <time>2018-10-28T10:59:30Z</time>
      </trkpt>
      <trkpt lat="45.95053" lon="4.71461">
        <ele>181</ele>
        <time>2018-10-28T10:59:31Z</time>
      </trkpt>
      <trkpt lat="45.95047" lon="4.7146">
        <ele>182</ele>
        <time>2018-10-28T10:59:32Z</time>
      </trkpt>
      <trkpt lat="45.95042" lon="4.7146">
        <ele>182</ele>
        <time>2018-10-28T10:59:33Z</time>
      </trkpt>
      <trkpt lat="45.95037" lon="4.71459">
        <ele>182</ele>
        <time>2018-10-28T10:59:34Z</time>
      </trkpt>
      <trkpt lat="45.95032" lon="4.71458">
        <ele>182</ele>
        <time>2018-10-28T10:59:35Z</time>
      </trkpt>
      <trkpt lat="45.95027" lon="4.71458">
        <ele>182</ele>
        <time>2018-10-28T10:59:36Z</time>
      </trkpt>
      <trkpt lat="45.95022" lon="4.71458">
        <ele>182</ele>
        <time>2018-10-28T10:59:37Z</time>
      </trkpt>
      <trkpt lat="45.95018" lon="4.71457">
        <ele>182</ele>
        <time>2018-10-28T10:59:38Z</time>
      </trkpt>
      <trkpt lat="45.95012" lon="4.71459">
        <ele>182</ele>
        <time>2018-10-28T10:59:40Z</time>
      </trkpt>
      <trkpt lat="45.95008" lon="4.71459">
        <ele>182</ele>
        <time>2018-10-28T10:59:41Z</time>
      </trkpt>
      <trkpt lat="45.95002" lon="4.71458">
        <ele>182</ele>
        <time>2018-10-28T10:59:42Z</time>
      </trkpt>
      <trkpt lat="45.94998" lon="4.71457">
        <ele>184</ele>
        <time>2018-10-28T10:59:43Z</time>
      </trkpt>
      <trkpt lat="45.94994" lon="4.71455">
        <ele>184</ele>
        <time>2018-10-28T10:59:44Z</time>
      </trkpt>
      <trkpt lat="45.94989" lon="4.71451">
        <ele>184</ele>
        <time>2018-10-28T10:59:45Z</time>
      </trkpt>
      <trkpt lat="45.94986" lon="4.71444">
        <ele>184</ele>
        <time>2018-10-28T10:59:46Z</time>
      </trkpt>
      <trkpt lat="45.94983" lon="4.71438">
        <ele>185</ele>
        <time>2018-10-28T10:59:47Z</time>
      </trkpt>
      <trkpt lat="45.94979" lon="4.71434">
        <ele>185</ele>
        <time>2018-10-28T10:59:48Z</time>
      </trkpt>
      <trkpt lat="45.94975" lon="4.7143">
        <ele>185</ele>
        <time>2018-10-28T10:59:49Z</time>
      </trkpt>
      <trkpt lat="45.9497" lon="4.71428">
        <ele>185</ele>
        <time>2018-10-28T10:59:50Z</time>
      </trkpt>
      <trkpt lat="45.94965" lon="4.71428">
        <ele>185</ele>
        <time>2018-10-28T10:59:51Z</time>
      </trkpt>
      <trkpt lat="45.94959" lon="4.7143">
        <ele>185</ele>
        <time>2018-10-28T10:59:52Z</time>
      </trkpt>
      <trkpt lat="45.94955" lon="4.71433">
        <ele>184</ele>
        <time>2018-10-28T10:59:53Z</time>
      </trkpt>
      <trkpt lat="45.9495" lon="4.71438">
        <ele>184</ele>
        <time>2018-10-28T10:59:54Z</time>
      </trkpt>
      <trkpt lat="45.94945" lon="4.71443">
        <ele>184</ele>
        <time>2018-10-28T10:59:55Z</time>
      </trkpt>
      <trkpt lat="45.94941" lon="4.71448">
        <ele>184</ele>
        <time>2018-10-28T10:59:56Z</time>
      </trkpt>
      <trkpt lat="45.94937" lon="4.71451">
        <ele>184</ele>
        <time>2018-10-28T10:59:57Z</time>
      </trkpt>
      <trkpt lat="45.94932" lon="4.71454">
        <ele>184</ele>
        <time>2018-10-28T10:59:58Z</time>
      </trkpt>
      <trkpt lat="45.94926" lon="4.71455">
        <ele>184</ele>
        <time>2018-10-28T10:59:59Z</time>
      </trkpt>
      <trkpt lat="45.9492" lon="4.71454">
        <ele>184</ele>
        <time>2018-10-28T11:00:00Z</time>
      </trkpt>
      <trkpt lat="45.94914" lon="4.71454">
        <ele>184</ele>
        <time>2018-10-28T11:00:01Z</time>
      </trkpt>
      <trkpt lat="45.94908" lon="4.71454">
        <ele>184</ele>
        <time>2018-10-28T11:00:02Z</time>
      </trkpt>
      <trkpt lat="45.94902" lon="4.71453">
        <ele>184</ele>
        <time>2018-10-28T11:00:03Z</time>
      </trkpt>
      <trkpt lat="45.94896" lon="4.71452">
        <ele>184</ele>
        <time>2018-10-28T11:00:04Z</time>
      </trkpt>
      <trkpt lat="45.9489" lon="4.71452">
        <ele>184</ele>
        <time>2018-10-28T11:00:05Z</time>
      </trkpt>
      <trkpt lat="45.94884" lon="4.71452">
        <ele>184</ele>
        <time>2018-10-28T11:00:06Z</time>
      </trkpt>
      <trkpt lat="45.94877" lon="4.71454">
        <ele>184</ele>
        <time>2018-10-28T11:00:07Z</time>
      </trkpt>
      <trkpt lat="45.94871" lon="4.71453">
        <ele>184</ele>
        <time>2018-10-28T11:00:08Z</time>
      </trkpt>
      <trkpt lat="45.94864" lon="4.71452">
        <ele>184</ele>
        <time>2018-10-28T11:00:09Z</time>
      </trkpt>
      <trkpt lat="45.94858" lon="4.71451">
        <ele>184</ele>
        <time>2018-10-28T11:00:10Z</time>
      </trkpt>
      <trkpt lat="45.9485" lon="4.7145">
        <ele>184</ele>
        <time>2018-10-28T11:00:11Z</time>
      </trkpt>
      <trkpt lat="45.94845" lon="4.71451">
        <ele>184</ele>
        <time>2018-10-28T11:00:12Z</time>
      </trkpt>
      <trkpt lat="45.9484" lon="4.7145">
        <ele>184</ele>
        <time>2018-10-28T11:00:13Z</time>
      </trkpt>
      <trkpt lat="45.94834" lon="4.71449">
        <ele>184</ele>
        <time>2018-10-28T11:00:14Z</time>
      </trkpt>
      <trkpt lat="45.94828" lon="4.71448">
        <ele>184</ele>
        <time>2018-10-28T11:00:15Z</time>
      </trkpt>
      <trkpt lat="45.94823" lon="4.71447">
        <ele>184</ele>
        <time>2018-10-28T11:00:16Z</time>
      </trkpt>
      <trkpt lat="45.94818" lon="4.71448">
        <ele>184</ele>
        <time>2018-10-28T11:00:17Z</time>
      </trkpt>
      <trkpt lat="45.9481" lon="4.71448">
        <ele>184</ele>
        <time>2018-10-28T11:00:19Z</time>
      </trkpt>
      <trkpt lat="45.94804" lon="4.71447">
        <ele>183</ele>
        <time>2018-10-28T11:00:20Z</time>
      </trkpt>
      <trkpt lat="45.94798" lon="4.71448">
        <ele>183</ele>
        <time>2018-10-28T11:00:21Z</time>
      </trkpt>
      <trkpt lat="45.94794" lon="4.71448">
        <ele>183</ele>
        <time>2018-10-28T11:00:22Z</time>
      </trkpt>
      <trkpt lat="45.94787" lon="4.71447">
        <ele>183</ele>
        <time>2018-10-28T11:00:23Z</time>
      </trkpt>
      <trkpt lat="45.94781" lon="4.71447">
        <ele>183</ele>
        <time>2018-10-28T11:00:24Z</time>
      </trkpt>
      <trkpt lat="45.94775" lon="4.71446">
        <ele>183</ele>
        <time>2018-10-28T11:00:25Z</time>
      </trkpt>
      <trkpt lat="45.94769" lon="4.71445">
        <ele>184</ele>
        <time>2018-10-28T11:00:26Z</time>
      </trkpt>
      <trkpt lat="45.94763" lon="4.71444">
        <ele>184</ele>
        <time>2018-10-28T11:00:27Z</time>
      </trkpt>
      <trkpt lat="45.94758" lon="4.71443">
        <ele>184</ele>
        <time>2018-10-28T11:00:28Z</time>
      </trkpt>
      <trkpt lat="45.94754" lon="4.71445">
        <ele>184</ele>
        <time>2018-10-28T11:00:29Z</time>
      </trkpt>
      <trkpt lat="45.94746" lon="4.71445">
        <ele>183</ele>
        <time>2018-10-28T11:00:30Z</time>
      </trkpt>
      <trkpt lat="45.9474" lon="4.71444">
        <ele>183</ele>
        <time>2018-10-28T11:00:31Z</time>
      </trkpt>
      <trkpt lat="45.94735" lon="4.71442">
        <ele>183</ele>
        <time>2018-10-28T11:00:32Z</time>
      </trkpt>
      <trkpt lat="45.94729" lon="4.71441">
        <ele>183</ele>
        <time>2018-10-28T11:00:33Z</time>
      </trkpt>
      <trkpt lat="45.94723" lon="4.71441">
        <ele>182</ele>
        <time>2018-10-28T11:00:34Z</time>
      </trkpt>
      <trkpt lat="45.94717" lon="4.71441">
        <ele>182</ele>
        <time>2018-10-28T11:00:35Z</time>
      </trkpt>
      <trkpt lat="45.9471" lon="4.7144">
        <ele>182</ele>
        <time>2018-10-28T11:00:36Z</time>
      </trkpt>
      <trkpt lat="45.94704" lon="4.71439">
        <ele>182</ele>
        <time>2018-10-28T11:00:37Z</time>
      </trkpt>
      <trkpt lat="45.94698" lon="4.71439">
        <ele>182</ele>
        <time>2018-10-28T11:00:38Z</time>
      </trkpt>
      <trkpt lat="45.94691" lon="4.71437">
        <ele>182</ele>
        <time>2018-10-28T11:00:39Z</time>
      </trkpt>
      <trkpt lat="45.94685" lon="4.71437">
        <ele>182</ele>
        <time>2018-10-28T11:00:40Z</time>
      </trkpt>
      <trkpt lat="45.94679" lon="4.71436">
        <ele>182</ele>
        <time>2018-10-28T11:00:41Z</time>
      </trkpt>
      <trkpt lat="45.94673" lon="4.71436">
        <ele>182</ele>
        <time>2018-10-28T11:00:42Z</time>
      </trkpt>
      <trkpt lat="45.94667" lon="4.71436">
        <ele>182</ele>
        <time>2018-10-28T11:00:43Z</time>
      </trkpt>
      <trkpt lat="45.94661" lon="4.71435">
        <ele>182</ele>
        <time>2018-10-28T11:00:44Z</time>
      </trkpt>
      <trkpt lat="45.94654" lon="4.71434">
        <ele>182</ele>
        <time>2018-10-28T11:00:45Z</time>
      </trkpt>
      <trkpt lat="45.94648" lon="4.71433">
        <ele>182</ele>
        <time>2018-10-28T11:00:46Z</time>
      </trkpt>
      <trkpt lat="45.94642" lon="4.71433">
        <ele>182</ele>
        <time>2018-10-28T11:00:47Z</time>
      </trkpt>
      <trkpt lat="45.94637" lon="4.71432">
        <ele>182</ele>
        <time>2018-10-28T11:00:48Z</time>
      </trkpt>
      <trkpt lat="45.94631" lon="4.71432">
        <ele>182</ele>
        <time>2018-10-28T11:00:49Z</time>
      </trkpt>
      <trkpt lat="45.94625" lon="4.71431">
        <ele>182</ele>
        <time>2018-10-28T11:00:50Z</time>
      </trkpt>
      <trkpt lat="45.9462" lon="4.71431">
        <ele>182</ele>
        <time>2018-10-28T11:00:51Z</time>
      </trkpt>
      <trkpt lat="45.94614" lon="4.7143">
        <ele>182</ele>
        <time>2018-10-28T11:00:52Z</time>
      </trkpt>
      <trkpt lat="45.94607" lon="4.71429">
        <ele>182</ele>
        <time>2018-10-28T11:00:53Z</time>
      </trkpt>
      <trkpt lat="45.94601" lon="4.71429">
        <ele>182</ele>
        <time>2018-10-28T11:00:54Z</time>
      </trkpt>
      <trkpt lat="45.94594" lon="4.71427">
        <ele>183</ele>
        <time>2018-10-28T11:00:55Z</time>
      </trkpt>
      <trkpt lat="45.94588" lon="4.71427">
        <ele>183</ele>
        <time>2018-10-28T11:00:56Z</time>
      </trkpt>
      <trkpt lat="45.94582" lon="4.71427">
        <ele>183</ele>
        <time>2018-10-28T11:00:57Z</time>
      </trkpt>
      <trkpt lat="45.94576" lon="4.71426">
        <ele>183</ele>
        <time>2018-10-28T11:00:58Z</time>
      </trkpt>
      <trkpt lat="45.94569" lon="4.71427">
        <ele>182</ele>
        <time>2018-10-28T11:00:59Z</time>
      </trkpt>
      <trkpt lat="45.94562" lon="4.71428">
        <ele>182</ele>
        <time>2018-10-28T11:01:00Z</time>
      </trkpt>
      <trkpt lat="45.94556" lon="4.7143">
        <ele>182</ele>
        <time>2018-10-28T11:01:01Z</time>
      </trkpt>
      <trkpt lat="45.94549" lon="4.71431">
        <ele>181</ele>
        <time>2018-10-28T11:01:02Z</time>
      </trkpt>
      <trkpt lat="45.94541" lon="4.71432">
        <ele>181</ele>
        <time>2018-10-28T11:01:03Z</time>
      </trkpt>
      <trkpt lat="45.94534" lon="4.71434">
        <ele>181</ele>
        <time>2018-10-28T11:01:04Z</time>
      </trkpt>
      <trkpt lat="45.94529" lon="4.71438">
        <ele>181</ele>
        <time>2018-10-28T11:01:05Z</time>
      </trkpt>
      <trkpt lat="45.94521" lon="4.71441">
        <ele>181</ele>
        <time>2018-10-28T11:01:06Z</time>
      </trkpt>
      <trkpt lat="45.94514" lon="4.71444">
        <ele>180</ele>
        <time>2018-10-28T11:01:07Z</time>
      </trkpt>
      <trkpt lat="45.94508" lon="4.71447">
        <ele>180</ele>
        <time>2018-10-28T11:01:08Z</time>
      </trkpt>
      <trkpt lat="45.945" lon="4.71451">
        <ele>180</ele>
        <time>2018-10-28T11:01:09Z</time>
      </trkpt>
      <trkpt lat="45.94494" lon="4.71455">
        <ele>179</ele>
        <time>2018-10-28T11:01:10Z</time>
      </trkpt>
      <trkpt lat="45.94486" lon="4.71458">
        <ele>179</ele>
        <time>2018-10-28T11:01:11Z</time>
      </trkpt>
      <trkpt lat="45.94479" lon="4.71461">
        <ele>179</ele>
        <time>2018-10-28T11:01:12Z</time>
      </trkpt>
      <trkpt lat="45.94472" lon="4.71463">
        <ele>179</ele>
        <time>2018-10-28T11:01:13Z</time>
      </trkpt>
      <trkpt lat="45.94464" lon="4.71466">
        <ele>179</ele>
        <time>2018-10-28T11:01:14Z</time>
      </trkpt>
      <trkpt lat="45.94456" lon="4.71468">
        <ele>179</ele>
        <time>2018-10-28T11:01:15Z</time>
      </trkpt>
      <trkpt lat="45.94448" lon="4.71471">
        <ele>179</ele>
        <time>2018-10-28T11:01:16Z</time>
      </trkpt>
      <trkpt lat="45.94438" lon="4.71474">
        <ele>179</ele>
        <time>2018-10-28T11:01:17Z</time>
      </trkpt>
      <trkpt lat="45.94429" lon="4.71477">
        <ele>179</ele>
        <time>2018-10-28T11:01:18Z</time>
      </trkpt>
      <trkpt lat="45.94421" lon="4.71481">
        <ele>178</ele>
        <time>2018-10-28T11:01:19Z</time>
      </trkpt>
      <trkpt lat="45.94414" lon="4.71483">
        <ele>178</ele>
        <time>2018-10-28T11:01:20Z</time>
      </trkpt>
      <trkpt lat="45.94407" lon="4.71486">
        <ele>178</ele>
        <time>2018-10-28T11:01:21Z</time>
      </trkpt>
      <trkpt lat="45.94401" lon="4.71491">
        <ele>178</ele>
        <time>2018-10-28T11:01:22Z</time>
      </trkpt>
      <trkpt lat="45.94394" lon="4.71494">
        <ele>177</ele>
        <time>2018-10-28T11:01:23Z</time>
      </trkpt>
      <trkpt lat="45.94386" lon="4.71497">
        <ele>177</ele>
        <time>2018-10-28T11:01:24Z</time>
      </trkpt>
      <trkpt lat="45.94379" lon="4.71499">
        <ele>177</ele>
        <time>2018-10-28T11:01:25Z</time>
      </trkpt>
      <trkpt lat="45.94372" lon="4.71502">
        <ele>176</ele>
        <time>2018-10-28T11:01:26Z</time>
      </trkpt>
      <trkpt lat="45.94364" lon="4.71503">
        <ele>176</ele>
        <time>2018-10-28T11:01:27Z</time>
      </trkpt>
      <trkpt lat="45.94356" lon="4.71506">
        <ele>176</ele>
        <time>2018-10-28T11:01:28Z</time>
      </trkpt>
      <trkpt lat="45.94348" lon="4.71509">
        <ele>176</ele>
        <time>2018-10-28T11:01:29Z</time>
      </trkpt>
      <trkpt lat="45.94341" lon="4.71512">
        <ele>176</ele>
        <time>2018-10-28T11:01:30Z</time>
      </trkpt>
      <trkpt lat="45.94335" lon="4.71516">
        <ele>176</ele>
        <time>2018-10-28T11:01:31Z</time>
      </trkpt>
      <trkpt lat="45.94327" lon="4.71519">
        <ele>176</ele>
        <time>2018-10-28T11:01:32Z</time>
      </trkpt>
      <trkpt lat="45.9432" lon="4.71522">
        <ele>176</ele>
        <time>2018-10-28T11:01:33Z</time>
      </trkpt>
      <trkpt lat="45.94313" lon="4.71525">
        <ele>175</ele>
        <time>2018-10-28T11:01:34Z</time>
      </trkpt>
      <trkpt lat="45.94305" lon="4.71527">
        <ele>175</ele>
        <time>2018-10-28T11:01:35Z</time>
      </trkpt>
      <trkpt lat="45.94297" lon="4.7153">
        <ele>175</ele>
        <time>2018-10-28T11:01:36Z</time>
      </trkpt>
      <trkpt lat="45.94289" lon="4.71533">
        <ele>175</ele>
        <time>2018-10-28T11:01:37Z</time>
      </trkpt>
      <trkpt lat="45.94281" lon="4.71535">
        <ele>175</ele>
        <time>2018-10-28T11:01:38Z</time>
      </trkpt>
      <trkpt lat="45.94275" lon="4.71538">
        <ele>175</ele>
        <time>2018-10-28T11:01:39Z</time>
      </trkpt>
      <trkpt lat="45.94268" lon="4.71541">
        <ele>175</ele>
        <time>2018-10-28T11:01:40Z</time>
      </trkpt>
      <trkpt lat="45.9426" lon="4.71543">
        <ele>175</ele>
        <time>2018-10-28T11:01:41Z</time>
      </trkpt>
      <trkpt lat="45.94251" lon="4.71546">
        <ele>175</ele>
        <time>2018-10-28T11:01:42Z</time>
      </trkpt>
      <trkpt lat="45.94245" lon="4.71549">
        <ele>174</ele>
        <time>2018-10-28T11:01:43Z</time>
      </trkpt>
      <trkpt lat="45.94238" lon="4.71552">
        <ele>174</ele>
        <time>2018-10-28T11:01:44Z</time>
      </trkpt>
      <trkpt lat="45.94232" lon="4.71555">
        <ele>174</ele>
        <time>2018-10-28T11:01:45Z</time>
      </trkpt>
      <trkpt lat="45.94226" lon="4.7156">
        <ele>174</ele>
        <time>2018-10-28T11:01:46Z</time>
      </trkpt>
      <trkpt lat="45.94219" lon="4.71562">
        <ele>174</ele>
        <time>2018-10-28T11:01:47Z</time>
      </trkpt>
      <trkpt lat="45.94212" lon="4.71566">
        <ele>174</ele>
        <time>2018-10-28T11:01:48Z</time>
      </trkpt>
      <trkpt lat="45.94206" lon="4.71568">
        <ele>174</ele>
        <time>2018-10-28T11:01:49Z</time>
      </trkpt>
      <trkpt lat="45.942" lon="4.71571">
        <ele>174</ele>
        <time>2018-10-28T11:01:50Z</time>
      </trkpt>
      <trkpt lat="45.94193" lon="4.71574">
        <ele>174</ele>
        <time>2018-10-28T11:01:51Z</time>
      </trkpt>
      <trkpt lat="45.94187" lon="4.71576">
        <ele>174</ele>
        <time>2018-10-28T11:01:52Z</time>
      </trkpt>
      <trkpt lat="45.94181" lon="4.71581">
        <ele>174</ele>
        <time>2018-10-28T11:01:53Z</time>
      </trkpt>
      <trkpt lat="45.94175" lon="4.71583">
        <ele>174</ele>
        <time>2018-10-28T11:01:54Z</time>
      </trkpt>
      <trkpt lat="45.9417" lon="4.71586">
        <ele>174</ele>
        <time>2018-10-28T11:01:55Z</time>
      </trkpt>
      <trkpt lat="45.94164" lon="4.71587">
        <ele>174</ele>
        <time>2018-10-28T11:01:56Z</time>
      </trkpt>
      <trkpt lat="45.94158" lon="4.71589">
        <ele>174</ele>
        <time>2018-10-28T11:01:57Z</time>
      </trkpt>
      <trkpt lat="45.94152" lon="4.71592">
        <ele>173</ele>
        <time>2018-10-28T11:01:58Z</time>
      </trkpt>
      <trkpt lat="45.94146" lon="4.71595">
        <ele>173</ele>
        <time>2018-10-28T11:01:59Z</time>
      </trkpt>
      <trkpt lat="45.9414" lon="4.71597">
        <ele>173</ele>
        <time>2018-10-28T11:02:00Z</time>
      </trkpt>
      <trkpt lat="45.94135" lon="4.71599">
        <ele>173</ele>
        <time>2018-10-28T11:02:01Z</time>
      </trkpt>
      <trkpt lat="45.94129" lon="4.71601">
        <ele>173</ele>
        <time>2018-10-28T11:02:02Z</time>
      </trkpt>
      <trkpt lat="45.94123" lon="4.71604">
        <ele>173</ele>
        <time>2018-10-28T11:02:03Z</time>
      </trkpt>
      <trkpt lat="45.94117" lon="4.71606">
        <ele>173</ele>
        <time>2018-10-28T11:02:04Z</time>
      </trkpt>
      <trkpt lat="45.9411" lon="4.71609">
        <ele>173</ele>
        <time>2018-10-28T11:02:05Z</time>
      </trkpt>
      <trkpt lat="45.94103" lon="4.7161">
        <ele>173</ele>
        <time>2018-10-28T11:02:06Z</time>
      </trkpt>
      <trkpt lat="45.94096" lon="4.71613">
        <ele>173</ele>
        <time>2018-10-28T11:02:07Z</time>
      </trkpt>
      <trkpt lat="45.94088" lon="4.71615">
        <ele>173</ele>
        <time>2018-10-28T11:02:08Z</time>
      </trkpt>
      <trkpt lat="45.94081" lon="4.71617">
        <ele>174</ele>
        <time>2018-10-28T11:02:09Z</time>
      </trkpt>
      <trkpt lat="45.94074" lon="4.7162">
        <ele>174</ele>
        <time>2018-10-28T11:02:10Z</time>
      </trkpt>
      <trkpt lat="45.94067" lon="4.71622">
        <ele>174</ele>
        <time>2018-10-28T11:02:11Z</time>
      </trkpt>
      <trkpt lat="45.94061" lon="4.71625">
        <ele>174</ele>
        <time>2018-10-28T11:02:12Z</time>
      </trkpt>
      <trkpt lat="45.94054" lon="4.71627">
        <ele>175</ele>
        <time>2018-10-28T11:02:13Z</time>
      </trkpt>
      <trkpt lat="45.94047" lon="4.71628">
        <ele>175</ele>
        <time>2018-10-28T11:02:14Z</time>
      </trkpt>
      <trkpt lat="45.9404" lon="4.7163">
        <ele>175</ele>
        <time>2018-10-28T11:02:15Z</time>
      </trkpt>
      <trkpt lat="45.94035" lon="4.71632">
        <ele>175</ele>
        <time>2018-10-28T11:02:16Z</time>
      </trkpt>
      <trkpt lat="45.94029" lon="4.71635">
        <ele>175</ele>
        <time>2018-10-28T11:02:17Z</time>
      </trkpt>
      <trkpt lat="45.94023" lon="4.71638">
        <ele>175</ele>
        <time>2018-10-28T11:02:18Z</time>
      </trkpt>
      <trkpt lat="45.94018" lon="4.71641">
        <ele>175</ele>
        <time>2018-10-28T11:02:19Z</time>
      </trkpt>
      <trkpt lat="45.94013" lon="4.71644">
        <ele>176</ele>
        <time>2018-10-28T11:02:20Z</time>
      </trkpt>
      <trkpt lat="45.94006" lon="4.71649">
        <ele>176</ele>
        <time>2018-10-28T11:02:22Z</time>
      </trkpt>
      <trkpt lat="45.94002" lon="4.71652">
        <ele>176</ele>
        <time>2018-10-28T11:02:23Z</time>
      </trkpt>
      <trkpt lat="45.93995" lon="4.71656">
        <ele>177</ele>
        <time>2018-10-28T11:02:25Z</time>
      </trkpt>
      <trkpt lat="45.93991" lon="4.71657">
        <ele>177</ele>
        <time>2018-10-28T11:02:26Z</time>
      </trkpt>
      <trkpt lat="45.93986" lon="4.71657">
        <ele>177</ele>
        <time>2018-10-28T11:02:27Z</time>
      </trkpt>
      <trkpt lat="45.93981" lon="4.71658">
        <ele>177</ele>
        <time>2018-10-28T11:02:28Z</time>
      </trkpt>
      <trkpt lat="45.93975" lon="4.71659">
        <ele>177</ele>
        <time>2018-10-28T11:02:29Z</time>
      </trkpt>
      <trkpt lat="45.93967" lon="4.71661">
        <ele>177</ele>
        <time>2018-10-28T11:02:30Z</time>
      </trkpt>
      <trkpt lat="45.93961" lon="4.71663">
        <ele>177</ele>
        <time>2018-10-28T11:02:31Z</time>
      </trkpt>
      <trkpt lat="45.93956" lon="4.71665">
        <ele>176</ele>
        <time>2018-10-28T11:02:32Z</time>
      </trkpt>
      <trkpt lat="45.9395" lon="4.71667">
        <ele>176</ele>
        <time>2018-10-28T11:02:33Z</time>
      </trkpt>
      <trkpt lat="45.93945" lon="4.71666">
        <ele>176</ele>
        <time>2018-10-28T11:02:34Z</time>
      </trkpt>
      <trkpt lat="45.93939" lon="4.71668">
        <ele>175</ele>
        <time>2018-10-28T11:02:35Z</time>
      </trkpt>
      <trkpt lat="45.93933" lon="4.71672">
        <ele>175</ele>
        <time>2018-10-28T11:02:36Z</time>
      </trkpt>
      <trkpt lat="45.93927" lon="4.71674">
        <ele>175</ele>
        <time>2018-10-28T11:02:37Z</time>
      </trkpt>
      <trkpt lat="45.9392" lon="4.71677">
        <ele>175</ele>
        <time>2018-10-28T11:02:38Z</time>
      </trkpt>
      <trkpt lat="45.93914" lon="4.71679">
        <ele>175</ele>
        <time>2018-10-28T11:02:39Z</time>
      </trkpt>
      <trkpt lat="45.93908" lon="4.71681">
        <ele>175</ele>
        <time>2018-10-28T11:02:40Z</time>
      </trkpt>
      <trkpt lat="45.93902" lon="4.71683">
        <ele>174</ele>
        <time>2018-10-28T11:02:41Z</time>
      </trkpt>
      <trkpt lat="45.93897" lon="4.71684">
        <ele>174</ele>
        <time>2018-10-28T11:02:42Z</time>
      </trkpt>
      <trkpt lat="45.93892" lon="4.71688">
        <ele>174</ele>
        <time>2018-10-28T11:02:43Z</time>
      </trkpt>
      <trkpt lat="45.93887" lon="4.7169">
        <ele>174</ele>
        <time>2018-10-28T11:02:44Z</time>
      </trkpt>
      <trkpt lat="45.93881" lon="4.71693">
        <ele>174</ele>
        <time>2018-10-28T11:02:45Z</time>
      </trkpt>
      <trkpt lat="45.93875" lon="4.71697">
        <ele>174</ele>
        <time>2018-10-28T11:02:46Z</time>
      </trkpt>
      <trkpt lat="45.93867" lon="4.71697">
        <ele>174</ele>
        <time>2018-10-28T11:02:47Z</time>
      </trkpt>
      <trkpt lat="45.93861" lon="4.71699">
        <ele>174</ele>
        <time>2018-10-28T11:02:48Z</time>
      </trkpt>
      <trkpt lat="45.93856" lon="4.71703">
        <ele>174</ele>
        <time>2018-10-28T11:02:49Z</time>
      </trkpt>
      <trkpt lat="45.9385" lon="4.71705">
        <ele>174</ele>
        <time>2018-10-28T11:02:50Z</time>
      </trkpt>
      <trkpt lat="45.93844" lon="4.71708">
        <ele>174</ele>
        <time>2018-10-28T11:02:51Z</time>
      </trkpt>
      <trkpt lat="45.93838" lon="4.71711">
        <ele>175</ele>
        <time>2018-10-28T11:02:52Z</time>
      </trkpt>
      <trkpt lat="45.93832" lon="4.71713">
        <ele>175</ele>
        <time>2018-10-28T11:02:53Z</time>
      </trkpt>
      <trkpt lat="45.93827" lon="4.71714">
        <ele>175</ele>
        <time>2018-10-28T11:02:54Z</time>
      </trkpt>
      <trkpt lat="45.93819" lon="4.71716">
        <ele>175</ele>
        <time>2018-10-28T11:02:55Z</time>
      </trkpt>
      <trkpt lat="45.93813" lon="4.71718">
        <ele>175</ele>
        <time>2018-10-28T11:02:56Z</time>
      </trkpt>
      <trkpt lat="45.93808" lon="4.71721">
        <ele>175</ele>
        <time>2018-10-28T11:02:57Z</time>
      </trkpt>
      <trkpt lat="45.93801" lon="4.71723">
        <ele>175</ele>
        <time>2018-10-28T11:02:58Z</time>
      </trkpt>
      <trkpt lat="45.93795" lon="4.71724">
        <ele>175</ele>
        <time>2018-10-28T11:02:59Z</time>
      </trkpt>
      <trkpt lat="45.9379" lon="4.71724">
        <ele>175</ele>
        <time>2018-10-28T11:03:00Z</time>
      </trkpt>
      <trkpt lat="45.93785" lon="4.71726">
        <ele>175</ele>
        <time>2018-10-28T11:03:01Z</time>
      </trkpt>
      <trkpt lat="45.93779" lon="4.71728">
        <ele>175</ele>
        <time>2018-10-28T11:03:02Z</time>
      </trkpt>
      <trkpt lat="45.93774" lon="4.71731">
        <ele>175</ele>
        <time>2018-10-28T11:03:03Z</time>
      </trkpt>
      <trkpt lat="45.93768" lon="4.71733">
        <ele>175</ele>
        <time>2018-10-28T11:03:04Z</time>
      </trkpt>
      <trkpt lat="45.93763" lon="4.71736">
        <ele>175</ele>
        <time>2018-10-28T11:03:05Z</time>
      </trkpt>
      <trkpt lat="45.93759" lon="4.71738">
        <ele>175</ele>
        <time>2018-10-28T11:03:06Z</time>
      </trkpt>
      <trkpt lat="45.93755" lon="4.71741">
        <ele>175</ele>
        <time>2018-10-28T11:03:07Z</time>
      </trkpt>
      <trkpt lat="45.9375" lon="4.71743">
        <ele>175</ele>
        <time>2018-10-28T11:03:08Z</time>
      </trkpt>
      <trkpt lat="45.93744" lon="4.71745">
        <ele>175</ele>
        <time>2018-10-28T11:03:09Z</time>
      </trkpt>
      <trkpt lat="45.93738" lon="4.71749">
        <ele>176</ele>
        <time>2018-10-28T11:03:10Z</time>
      </trkpt>
      <trkpt lat="45.93732" lon="4.71752">
        <ele>176</ele>
        <time>2018-10-28T11:03:11Z</time>
      </trkpt>
      <trkpt lat="45.93727" lon="4.71753">
        <ele>176</ele>
        <time>2018-10-28T11:03:12Z</time>
      </trkpt>
      <trkpt lat="45.93721" lon="4.71761">
        <ele>176</ele>
        <time>2018-10-28T11:03:15Z</time>
      </trkpt>
      <trkpt lat="45.9372" lon="4.71763">
        <ele>176</ele>
        <time>2018-10-28T11:03:16Z</time>
      </trkpt>
      <trkpt lat="45.93715" lon="4.71772">
        <ele>176</ele>
        <time>2018-10-28T11:03:50Z</time>
      </trkpt>
      <trkpt lat="45.93713" lon="4.71774">
        <ele>176</ele>
        <time>2018-10-28T11:03:51Z</time>
      </trkpt>
      <trkpt lat="45.93709" lon="4.71784">
        <ele>176</ele>
        <time>2018-10-28T11:03:54Z</time>
      </trkpt>
      <trkpt lat="45.93706" lon="4.71792">
        <ele>176</ele>
        <time>2018-10-28T11:03:55Z</time>
      </trkpt>
      <trkpt lat="45.93704" lon="4.71803">
        <ele>176</ele>
        <time>2018-10-28T11:03:57Z</time>
      </trkpt>
      <trkpt lat="45.93703" lon="4.71808">
        <ele>176</ele>
        <time>2018-10-28T11:03:58Z</time>
      </trkpt>
      <trkpt lat="45.93699" lon="4.71816">
        <ele>176</ele>
        <time>2018-10-28T11:03:59Z</time>
      </trkpt>
      <trkpt lat="45.93696" lon="4.71823">
        <ele>176</ele>
        <time>2018-10-28T11:04:00Z</time>
      </trkpt>
      <trkpt lat="45.93693" lon="4.71831">
        <ele>176</ele>
        <time>2018-10-28T11:04:01Z</time>
      </trkpt>
      <trkpt lat="45.93691" lon="4.71838">
        <ele>175</ele>
        <time>2018-10-28T11:04:02Z</time>
      </trkpt>
      <trkpt lat="45.93689" lon="4.71845">
        <ele>175</ele>
        <time>2018-10-28T11:04:03Z</time>
      </trkpt>
      <trkpt lat="45.93686" lon="4.71852">
        <ele>175</ele>
        <time>2018-10-28T11:04:04Z</time>
      </trkpt>
      <trkpt lat="45.93684" lon="4.71859">
        <ele>175</ele>
        <time>2018-10-28T11:04:05Z</time>
      </trkpt>
      <trkpt lat="45.9368" lon="4.71864">
        <ele>175</ele>
        <time>2018-10-28T11:04:06Z</time>
      </trkpt>
      <trkpt lat="45.93676" lon="4.7187">
        <ele>175</ele>
        <time>2018-10-28T11:04:07Z</time>
      </trkpt>
      <trkpt lat="45.93675" lon="4.71881">
        <ele>175</ele>
        <time>2018-10-28T11:04:08Z</time>
      </trkpt>
      <trkpt lat="45.93672" lon="4.7189">
        <ele>175</ele>
        <time>2018-10-28T11:04:09Z</time>
      </trkpt>
      <trkpt lat="45.93668" lon="4.71898">
        <ele>175</ele>
        <time>2018-10-28T11:04:10Z</time>
      </trkpt>
      <trkpt lat="45.93665" lon="4.71906">
        <ele>176</ele>
        <time>2018-10-28T11:04:11Z</time>
      </trkpt>
      <trkpt lat="45.93662" lon="4.71914">
        <ele>175</ele>
        <time>2018-10-28T11:04:12Z</time>
      </trkpt>
      <trkpt lat="45.93658" lon="4.71923">
        <ele>175</ele>
        <time>2018-10-28T11:04:13Z</time>
      </trkpt>
      <trkpt lat="45.93655" lon="4.71932">
        <ele>175</ele>
        <time>2018-10-28T11:04:14Z</time>
      </trkpt>
      <trkpt lat="45.93653" lon="4.71938">
        <ele>175</ele>
        <time>2018-10-28T11:04:15Z</time>
      </trkpt>
      <trkpt lat="45.9365" lon="4.71946">
        <ele>175</ele>
        <time>2018-10-28T11:04:16Z</time>
      </trkpt>
      <trkpt lat="45.93647" lon="4.71954">
        <ele>175</ele>
        <time>2018-10-28T11:04:17Z</time>
      </trkpt>
      <trkpt lat="45.93644" lon="4.71961">
        <ele>175</ele>
        <time>2018-10-28T11:04:18Z</time>
      </trkpt>
      <trkpt lat="45.93641" lon="4.7197">
        <ele>175</ele>
        <time>2018-10-28T11:04:19Z</time>
      </trkpt>
      <trkpt lat="45.93639" lon="4.71978">
        <ele>175</ele>
        <time>2018-10-28T11:04:20Z</time>
      </trkpt>
      <trkpt lat="45.93636" lon="4.71987">
        <ele>175</ele>
        <time>2018-10-28T11:04:21Z</time>
      </trkpt>
      <trkpt lat="45.93633" lon="4.71994">
        <ele>175</ele>
        <time>2018-10-28T11:04:22Z</time>
      </trkpt>
      <trkpt lat="45.9363" lon="4.72001">
        <ele>175</ele>
        <time>2018-10-28T11:04:23Z</time>
      </trkpt>
      <trkpt lat="45.93628" lon="4.72008">
        <ele>175</ele>
        <time>2018-10-28T11:04:24Z</time>
      </trkpt>
      <trkpt lat="45.93625" lon="4.72015">
        <ele>175</ele>
        <time>2018-10-28T11:04:25Z</time>
      </trkpt>
      <trkpt lat="45.93622" lon="4.72022">
        <ele>175</ele>
        <time>2018-10-28T11:04:26Z</time>
      </trkpt>
      <trkpt lat="45.93619" lon="4.72029">
        <ele>175</ele>
        <time>2018-10-28T11:04:27Z</time>
      </trkpt>
      <trkpt lat="45.93616" lon="4.72037">
        <ele>175</ele>
        <time>2018-10-28T11:04:28Z</time>
      </trkpt>
      <trkpt lat="45.93613" lon="4.72043">
        <ele>175</ele>
        <time>2018-10-28T11:04:29Z</time>
      </trkpt>
      <trkpt lat="45.9361" lon="4.7205">
        <ele>175</ele>
        <time>2018-10-28T11:04:30Z</time>
      </trkpt>
      <trkpt lat="45.93608" lon="4.72057">
        <ele>175</ele>
        <time>2018-10-28T11:04:31Z</time>
      </trkpt>
      <trkpt lat="45.93605" lon="4.72064">
        <ele>175</ele>
        <time>2018-10-28T11:04:32Z</time>
      </trkpt>
      <trkpt lat="45.93602" lon="4.72072">
        <ele>175</ele>
        <time>2018-10-28T11:04:33Z</time>
      </trkpt>
      <trkpt lat="45.93598" lon="4.72079">
        <ele>175</ele>
        <time>2018-10-28T11:04:34Z</time>
      </trkpt>
      <trkpt lat="45.93595" lon="4.72087">
        <ele>175</ele>
        <time>2018-10-28T11:04:35Z</time>
      </trkpt>
      <trkpt lat="45.93591" lon="4.72094">
        <ele>175</ele>
        <time>2018-10-28T11:04:36Z</time>
      </trkpt>
      <trkpt lat="45.93589" lon="4.72102">
        <ele>174</ele>
        <time>2018-10-28T11:04:37Z</time>
      </trkpt>
      <trkpt lat="45.93586" lon="4.72109">
        <ele>174</ele>
        <time>2018-10-28T11:04:38Z</time>
      </trkpt>
      <trkpt lat="45.93584" lon="4.72116">
        <ele>174</ele>
        <time>2018-10-28T11:04:39Z</time>
      </trkpt>
      <trkpt lat="45.93583" lon="4.72122">
        <ele>175</ele>
        <time>2018-10-28T11:04:40Z</time>
      </trkpt>
      <trkpt lat="45.9358" lon="4.72129">
        <ele>174</ele>
        <time>2018-10-28T11:04:41Z</time>
      </trkpt>
      <trkpt lat="45.93577" lon="4.72136">
        <ele>174</ele>
        <time>2018-10-28T11:04:42Z</time>
      </trkpt>
      <trkpt lat="45.93575" lon="4.72143">
        <ele>174</ele>
        <time>2018-10-28T11:04:43Z</time>
      </trkpt>
      <trkpt lat="45.93572" lon="4.72149">
        <ele>174</ele>
        <time>2018-10-28T11:04:44Z</time>
      </trkpt>
      <trkpt lat="45.93567" lon="4.72157">
        <ele>174</ele>
        <time>2018-10-28T11:04:45Z</time>
      </trkpt>
      <trkpt lat="45.93565" lon="4.72164">
        <ele>174</ele>
        <time>2018-10-28T11:04:46Z</time>
      </trkpt>
      <trkpt lat="45.9356" lon="4.72168">
        <ele>173</ele>
        <time>2018-10-28T11:04:47Z</time>
      </trkpt>
      <trkpt lat="45.93558" lon="4.72176">
        <ele>173</ele>
        <time>2018-10-28T11:04:48Z</time>
      </trkpt>
      <trkpt lat="45.93556" lon="4.72185">
        <ele>173</ele>
        <time>2018-10-28T11:04:49Z</time>
      </trkpt>
      <trkpt lat="45.93553" lon="4.72193">
        <ele>173</ele>
        <time>2018-10-28T11:04:50Z</time>
      </trkpt>
      <trkpt lat="45.9355" lon="4.72201">
        <ele>173</ele>
        <time>2018-10-28T11:04:51Z</time>
      </trkpt>
      <trkpt lat="45.93547" lon="4.72209">
        <ele>173</ele>
        <time>2018-10-28T11:04:52Z</time>
      </trkpt>
      <trkpt lat="45.93544" lon="4.72216">
        <ele>172</ele>
        <time>2018-10-28T11:04:53Z</time>
      </trkpt>
      <trkpt lat="45.93541" lon="4.72222">
        <ele>172</ele>
        <time>2018-10-28T11:04:54Z</time>
      </trkpt>
      <trkpt lat="45.93538" lon="4.72229">
        <ele>172</ele>
        <time>2018-10-28T11:04:55Z</time>
      </trkpt>
      <trkpt lat="45.93535" lon="4.72235">
        <ele>172</ele>
        <time>2018-10-28T11:04:56Z</time>
      </trkpt>
      <trkpt lat="45.93533" lon="4.72242">
        <ele>172</ele>
        <time>2018-10-28T11:04:57Z</time>
      </trkpt>
      <trkpt lat="45.93529" lon="4.72249">
        <ele>172</ele>
        <time>2018-10-28T11:04:58Z</time>
      </trkpt>
      <trkpt lat="45.93526" lon="4.72257">
        <ele>172</ele>
        <time>2018-10-28T11:04:59Z</time>
      </trkpt>
      <trkpt lat="45.93524" lon="4.72265">
        <ele>172</ele>
        <time>2018-10-28T11:05:00Z</time>
      </trkpt>
      <trkpt lat="45.9352" lon="4.72272">
        <ele>172</ele>
        <time>2018-10-28T11:05:01Z</time>
      </trkpt>
      <trkpt lat="45.93517" lon="4.7228">
        <ele>172</ele>
        <time>2018-10-28T11:05:02Z</time>
      </trkpt>
      <trkpt lat="45.93514" lon="4.72289">
        <ele>172</ele>
        <time>2018-10-28T11:05:03Z</time>
      </trkpt>
      <trkpt lat="45.9351" lon="4.72295">
        <ele>172</ele>
        <time>2018-10-28T11:05:04Z</time>
      </trkpt>
      <trkpt lat="45.93505" lon="4.72302">
        <ele>172</ele>
        <time>2018-10-28T11:05:05Z</time>
      </trkpt>
      <trkpt lat="45.935" lon="4.72308">
        <ele>173</ele>
        <time>2018-10-28T11:05:06Z</time>
      </trkpt>
      <trkpt lat="45.93494" lon="4.72314">
        <ele>173</ele>
        <time>2018-10-28T11:05:07Z</time>
      </trkpt>
      <trkpt lat="45.93489" lon="4.72321">
        <ele>173</ele>
        <time>2018-10-28T11:05:08Z</time>
      </trkpt>
      <trkpt lat="45.93484" lon="4.72327">
        <ele>173</ele>
        <time>2018-10-28T11:05:09Z</time>
      </trkpt>
      <trkpt lat="45.93479" lon="4.72334">
        <ele>173</ele>
        <time>2018-10-28T11:05:10Z</time>
      </trkpt>
      <trkpt lat="45.93475" lon="4.72341">
        <ele>173</ele>
        <time>2018-10-28T11:05:11Z</time>
      </trkpt>
      <trkpt lat="45.93473" lon="4.72352">
        <ele>173</ele>
        <time>2018-10-28T11:05:12Z</time>
      </trkpt>
      <trkpt lat="45.93468" lon="4.72358">
        <ele>173</ele>
        <time>2018-10-28T11:05:13Z</time>
      </trkpt>
      <trkpt lat="45.93464" lon="4.72365">
        <ele>173</ele>
        <time>2018-10-28T11:05:14Z</time>
      </trkpt>
      <trkpt lat="45.93459" lon="4.72371">
        <ele>173</ele>
        <time>2018-10-28T11:05:15Z</time>
      </trkpt>
      <trkpt lat="45.93455" lon="4.72377">
        <ele>173</ele>
        <time>2018-10-28T11:05:16Z</time>
      </trkpt>
      <trkpt lat="45.9345" lon="4.72382">
        <ele>173</ele>
        <time>2018-10-28T11:05:17Z</time>
      </trkpt>
      <trkpt lat="45.93445" lon="4.72387">
        <ele>173</ele>
        <time>2018-10-28T11:05:18Z</time>
      </trkpt>
      <trkpt lat="45.9344" lon="4.7239">
        <ele>173</ele>
        <time>2018-10-28T11:05:19Z</time>
      </trkpt>
      <trkpt lat="45.93435" lon="4.72394">
        <ele>173</ele>
        <time>2018-10-28T11:05:20Z</time>
      </trkpt>
      <trkpt lat="45.9343" lon="4.72397">
        <ele>174</ele>
        <time>2018-10-28T11:05:21Z</time>
      </trkpt>
      <trkpt lat="45.93425" lon="4.72398">
        <ele>174</ele>
        <time>2018-10-28T11:05:22Z</time>
      </trkpt>
      <trkpt lat="45.93419" lon="4.724">
        <ele>174</ele>
        <time>2018-10-28T11:05:23Z</time>
      </trkpt>
      <trkpt lat="45.93413" lon="4.72401">
        <ele>174</ele>
        <time>2018-10-28T11:05:24Z</time>
      </trkpt>
      <trkpt lat="45.93408" lon="4.72403">
        <ele>174</ele>
        <time>2018-10-28T11:05:25Z</time>
      </trkpt>
      <trkpt lat="45.93403" lon="4.72404">
        <ele>174</ele>
        <time>2018-10-28T11:05:26Z</time>
      </trkpt>
      <trkpt lat="45.93397" lon="4.72403">
        <ele>174</ele>
        <time>2018-10-28T11:05:27Z</time>
      </trkpt>
      <trkpt lat="45.93392" lon="4.72403">
        <ele>174</ele>
        <time>2018-10-28T11:05:28Z</time>
      </trkpt>
      <trkpt lat="45.93385" lon="4.72405">
        <ele>174</ele>
        <time>2018-10-28T11:05:30Z</time>
      </trkpt>
      <trkpt lat="45.93381" lon="4.72409">
        <ele>174</ele>
        <time>2018-10-28T11:05:31Z</time>
      </trkpt>
      <trkpt lat="45.93379" lon="4.72416">
        <ele>174</ele>
        <time>2018-10-28T11:05:32Z</time>
      </trkpt>
      <trkpt lat="45.93378" lon="4.72422">
        <ele>173</ele>
        <time>2018-10-28T11:05:33Z</time>
      </trkpt>
      <trkpt lat="45.9338" lon="4.72428">
        <ele>173</ele>
        <time>2018-10-28T11:05:34Z</time>
      </trkpt>
      <trkpt lat="45.93382" lon="4.72435">
        <ele>173</ele>
        <time>2018-10-28T11:05:35Z</time>
      </trkpt>
      <trkpt lat="45.93385" lon="4.72442">
        <ele>173</ele>
        <time>2018-10-28T11:05:36Z</time>
      </trkpt>
      <trkpt lat="45.93386" lon="4.7245">
        <ele>173</ele>
        <time>2018-10-28T11:05:37Z</time>
      </trkpt>
      <trkpt lat="45.93386" lon="4.72458">
        <ele>173</ele>
        <time>2018-10-28T11:05:38Z</time>
      </trkpt>
      <trkpt lat="45.93382" lon="4.72465">
        <ele>173</ele>
        <time>2018-10-28T11:05:39Z</time>
      </trkpt>
      <trkpt lat="45.9338" lon="4.72471">
        <ele>173</ele>
        <time>2018-10-28T11:05:40Z</time>
      </trkpt>
      <trkpt lat="45.93376" lon="4.72476">
        <ele>173</ele>
        <time>2018-10-28T11:05:41Z</time>
      </trkpt>
      <trkpt lat="45.93372" lon="4.7248">
        <ele>173</ele>
        <time>2018-10-28T11:05:42Z</time>
      </trkpt>
      <trkpt lat="45.93368" lon="4.72484">
        <ele>173</ele>
        <time>2018-10-28T11:05:43Z</time>
      </trkpt>
      <trkpt lat="45.93364" lon="4.72488">
        <ele>173</ele>
        <time>2018-10-28T11:05:44Z</time>
      </trkpt>
      <trkpt lat="45.9336" lon="4.72493">
        <ele>173</ele>
        <time>2018-10-28T11:05:45Z</time>
      </trkpt>
      <trkpt lat="45.93356" lon="4.72497">
        <ele>173</ele>
        <time>2018-10-28T11:05:46Z</time>
      </trkpt>
      <trkpt lat="45.93352" lon="4.72503">
        <ele>172</ele>
        <time>2018-10-28T11:05:47Z</time>
      </trkpt>
      <trkpt lat="45.93347" lon="4.72507">
        <ele>172</ele>
        <time>2018-10-28T11:05:48Z</time>
      </trkpt>
      <trkpt lat="45.93342" lon="4.72513">
        <ele>172</ele>
        <time>2018-10-28T11:05:49Z</time>
      </trkpt>
      <trkpt lat="45.93337" lon="4.72518">
        <ele>172</ele>
        <time>2018-10-28T11:05:50Z</time>
      </trkpt>
      <trkpt lat="45.93332" lon="4.72523">
        <ele>172</ele>
        <time>2018-10-28T11:05:51Z</time>
      </trkpt>
      <trkpt lat="45.93327" lon="4.72529">
        <ele>172</ele>
        <time>2018-10-28T11:05:52Z</time>
      </trkpt>
      <trkpt lat="45.93323" lon="4.72534">
        <ele>172</ele>
        <time>2018-10-28T11:05:53Z</time>
      </trkpt>
      <trkpt lat="45.93318" lon="4.72539">
        <ele>172</ele>
        <time>2018-10-28T11:05:54Z</time>
      </trkpt>
      <trkpt lat="45.93313" lon="4.72543">
        <ele>172</ele>
        <time>2018-10-28T11:05:55Z</time>
      </trkpt>
      <trkpt lat="45.93308" lon="4.72549">
        <ele>172</ele>
        <time>2018-10-28T11:05:56Z</time>
      </trkpt>
      <trkpt lat="45.93304" lon="4.72554">
        <ele>172</ele>
        <time>2018-10-28T11:05:57Z</time>
      </trkpt>
      <trkpt lat="45.93299" lon="4.7256">
        <ele>172</ele>
        <time>2018-10-28T11:05:58Z</time>
      </trkpt>
      <trkpt lat="45.93294" lon="4.72565">
        <ele>172</ele>
        <time>2018-10-28T11:05:59Z</time>
      </trkpt>
      <trkpt lat="45.93291" lon="4.72573">
        <ele>172</ele>
        <time>2018-10-28T11:06:00Z</time>
      </trkpt>
      <trkpt lat="45.93287" lon="4.72578">
        <ele>172</ele>
        <time>2018-10-28T11:06:01Z</time>
      </trkpt>
      <trkpt lat="45.93283" lon="4.72584">
        <ele>170</ele>
        <time>2018-10-28T11:06:02Z</time>
      </trkpt>
      <trkpt lat="45.93278" lon="4.72589">
        <ele>170</ele>
        <time>2018-10-28T11:06:03Z</time>
      </trkpt>
      <trkpt lat="45.93273" lon="4.72595">
        <ele>170</ele>
        <time>2018-10-28T11:06:04Z</time>
      </trkpt>
      <trkpt lat="45.93268" lon="4.72601">
        <ele>170</ele>
        <time>2018-10-28T11:06:05Z</time>
      </trkpt>
      <trkpt lat="45.93263" lon="4.72607">
        <ele>170</ele>
        <time>2018-10-28T11:06:06Z</time>
      </trkpt>
      <trkpt lat="45.93258" lon="4.72613">
        <ele>170</ele>
        <time>2018-10-28T11:06:07Z</time>
      </trkpt>
      <trkpt lat="45.93252" lon="4.72619">
        <ele>170</ele>
        <time>2018-10-28T11:06:08Z</time>
      </trkpt>
      <trkpt lat="45.93248" lon="4.72624">
        <ele>170</ele>
        <time>2018-10-28T11:06:09Z</time>
      </trkpt>
      <trkpt lat="45.93242" lon="4.7263">
        <ele>170</ele>
        <time>2018-10-28T11:06:10Z</time>
      </trkpt>
      <trkpt lat="45.93238" lon="4.72635">
        <ele>170</ele>
        <time>2018-10-28T11:06:11Z</time>
      </trkpt>
      <trkpt lat="45.93233" lon="4.72641">
        <ele>170</ele>
        <time>2018-10-28T11:06:12Z</time>
      </trkpt>
      <trkpt lat="45.93228" lon="4.72646">
        <ele>170</ele>
        <time>2018-10-28T11:06:13Z</time>
      </trkpt>
      <trkpt lat="45.93223" lon="4.72652">
        <ele>170</ele>
        <time>2018-10-28T11:06:14Z</time>
      </trkpt>
      <trkpt lat="45.93218" lon="4.72657">
        <ele>170</ele>
        <time>2018-10-28T11:06:15Z</time>
      </trkpt>
      <trkpt lat="45.93212" lon="4.72663">
        <ele>170</ele>
        <time>2018-10-28T11:06:16Z</time>
      </trkpt>
      <trkpt lat="45.93207" lon="4.72668">
        <ele>169</ele>
        <time>2018-10-28T11:06:17Z</time>
      </trkpt>
      <trkpt lat="45.93202" lon="4.72675">
        <ele>169</ele>
        <time>2018-10-28T11:06:18Z</time>
      </trkpt>
      <trkpt lat="45.93199" lon="4.72681">
        <ele>169</ele>
        <time>2018-10-28T11:06:19Z</time>
      </trkpt>
      <trkpt lat="45.93194" lon="4.72686">
        <ele>169</ele>
        <time>2018-10-28T11:06:20Z</time>
      </trkpt>
      <trkpt lat="45.9319" lon="4.72691">
        <ele>169</ele>
        <time>2018-10-28T11:06:21Z</time>
      </trkpt>
      <trkpt lat="45.93186" lon="4.72695">
        <ele>169</ele>
        <time>2018-10-28T11:06:22Z</time>
      </trkpt>
      <trkpt lat="45.93182" lon="4.72699">
        <ele>169</ele>
        <time>2018-10-28T11:06:23Z</time>
      </trkpt>
      <trkpt lat="45.93179" lon="4.72704">
        <ele>169</ele>
        <time>2018-10-28T11:06:24Z</time>
      </trkpt>
      <trkpt lat="45.93174" lon="4.72708">
        <ele>170</ele>
        <time>2018-10-28T11:06:25Z</time>
      </trkpt>
      <trkpt lat="45.9317" lon="4.72713">
        <ele>170</ele>
        <time>2018-10-28T11:06:26Z</time>
      </trkpt>
      <trkpt lat="45.93166" lon="4.72718">
        <ele>170</ele>
        <time>2018-10-28T11:06:27Z</time>
      </trkpt>
      <trkpt lat="45.93161" lon="4.72723">
        <ele>170</ele>
        <time>2018-10-28T11:06:28Z</time>
      </trkpt>
      <trkpt lat="45.93157" lon="4.72728">
        <ele>170</ele>
        <time>2018-10-28T11:06:29Z</time>
      </trkpt>
      <trkpt lat="45.93152" lon="4.72733">
        <ele>170</ele>
        <time>2018-10-28T11:06:30Z</time>
      </trkpt>
      <trkpt lat="45.93147" lon="4.72738">
        <ele>170</ele>
        <time>2018-10-28T11:06:31Z</time>
      </trkpt>
      <trkpt lat="45.93142" lon="4.72745">
        <ele>170</ele>
        <time>2018-10-28T11:06:32Z</time>
      </trkpt>
      <trkpt lat="45.93137" lon="4.72751">
        <ele>171</ele>
        <time>2018-10-28T11:06:33Z</time>
      </trkpt>
      <trkpt lat="45.93132" lon="4.72757">
        <ele>171</ele>
        <time>2018-10-28T11:06:34Z</time>
      </trkpt>
      <trkpt lat="45.93127" lon="4.72763">
        <ele>171</ele>
        <time>2018-10-28T11:06:35Z</time>
      </trkpt>
      <trkpt lat="45.93121" lon="4.72769">
        <ele>171</ele>
        <time>2018-10-28T11:06:36Z</time>
      </trkpt>
      <trkpt lat="45.93117" lon="4.72776">
        <ele>171</ele>
        <time>2018-10-28T11:06:37Z</time>
      </trkpt>
      <trkpt lat="45.93112" lon="4.72783">
        <ele>171</ele>
        <time>2018-10-28T11:06:38Z</time>
      </trkpt>
      <trkpt lat="45.93107" lon="4.72789">
        <ele>171</ele>
        <time>2018-10-28T11:06:39Z</time>
      </trkpt>
      <trkpt lat="45.93101" lon="4.72795">
        <ele>171</ele>
        <time>2018-10-28T11:06:40Z</time>
      </trkpt>
      <trkpt lat="45.93096" lon="4.72801">
        <ele>171</ele>
        <time>2018-10-28T11:06:41Z</time>
      </trkpt>
      <trkpt lat="45.9309" lon="4.72806">
        <ele>172</ele>
        <time>2018-10-28T11:06:42Z</time>
      </trkpt>
      <trkpt lat="45.93085" lon="4.72812">
        <ele>172</ele>
        <time>2018-10-28T11:06:43Z</time>
      </trkpt>
      <trkpt lat="45.9308" lon="4.72818">
        <ele>172</ele>
        <time>2018-10-28T11:06:44Z</time>
      </trkpt>
      <trkpt lat="45.93075" lon="4.72823">
        <ele>173</ele>
        <time>2018-10-28T11:06:45Z</time>
      </trkpt>
      <trkpt lat="45.93072" lon="4.72826">
        <ele>173</ele>
        <time>2018-10-28T11:06:46Z</time>
      </trkpt>
      <trkpt lat="45.93065" lon="4.72832">
        <ele>173</ele>
        <time>2018-10-28T11:06:47Z</time>
      </trkpt>
      <trkpt lat="45.9306" lon="4.72836">
        <ele>173</ele>
        <time>2018-10-28T11:06:48Z</time>
      </trkpt>
      <trkpt lat="45.93055" lon="4.72843">
        <ele>172</ele>
        <time>2018-10-28T11:06:49Z</time>
      </trkpt>
      <trkpt lat="45.93046" lon="4.72858">
        <ele>172</ele>
        <time>2018-10-28T11:06:51Z</time>
      </trkpt>
      <trkpt lat="45.93041" lon="4.72862">
        <ele>172</ele>
        <time>2018-10-28T11:06:52Z</time>
      </trkpt>
      <trkpt lat="45.93036" lon="4.72869">
        <ele>172</ele>
        <time>2018-10-28T11:06:53Z</time>
      </trkpt>
      <trkpt lat="45.93031" lon="4.72874">
        <ele>172</ele>
        <time>2018-10-28T11:06:54Z</time>
      </trkpt>
      <trkpt lat="45.93026" lon="4.72879">
        <ele>172</ele>
        <time>2018-10-28T11:06:55Z</time>
      </trkpt>
      <trkpt lat="45.93021" lon="4.72885">
        <ele>172</ele>
        <time>2018-10-28T11:06:56Z</time>
      </trkpt>
      <trkpt lat="45.93015" lon="4.72891">
        <ele>172</ele>
        <time>2018-10-28T11:06:57Z</time>
      </trkpt>
      <trkpt lat="45.93011" lon="4.72898">
        <ele>172</ele>
        <time>2018-10-28T11:06:58Z</time>
      </trkpt>
      <trkpt lat="45.93005" lon="4.72904">
        <ele>171</ele>
        <time>2018-10-28T11:06:59Z</time>
      </trkpt>
      <trkpt lat="45.93001" lon="4.72911">
        <ele>171</ele>
        <time>2018-10-28T11:07:00Z</time>
      </trkpt>
      <trkpt lat="45.92996" lon="4.72916">
        <ele>171</ele>
        <time>2018-10-28T11:07:01Z</time>
      </trkpt>
      <trkpt lat="45.9299" lon="4.72922">
        <ele>171</ele>
        <time>2018-10-28T11:07:02Z</time>
      </trkpt>
      <trkpt lat="45.92986" lon="4.72928">
        <ele>171</ele>
        <time>2018-10-28T11:07:03Z</time>
      </trkpt>
      <trkpt lat="45.92982" lon="4.72933">
        <ele>171</ele>
        <time>2018-10-28T11:07:04Z</time>
      </trkpt>
      <trkpt lat="45.92977" lon="4.72939">
        <ele>171</ele>
        <time>2018-10-28T11:07:05Z</time>
      </trkpt>
      <trkpt lat="45.92973" lon="4.72945">
        <ele>171</ele>
        <time>2018-10-28T11:07:06Z</time>
      </trkpt>
      <trkpt lat="45.92969" lon="4.72949">
        <ele>171</ele>
        <time>2018-10-28T11:07:07Z</time>
      </trkpt>
      <trkpt lat="45.92964" lon="4.72955">
        <ele>171</ele>
        <time>2018-10-28T11:07:08Z</time>
      </trkpt>
      <trkpt lat="45.9296" lon="4.7296">
        <ele>171</ele>
        <time>2018-10-28T11:07:09Z</time>
      </trkpt>
      <trkpt lat="45.92955" lon="4.72965">
        <ele>171</ele>
        <time>2018-10-28T11:07:10Z</time>
      </trkpt>
      <trkpt lat="45.92951" lon="4.72971">
        <ele>171</ele>
        <time>2018-10-28T11:07:11Z</time>
      </trkpt>
      <trkpt lat="45.92945" lon="4.72975">
        <ele>171</ele>
        <time>2018-10-28T11:07:12Z</time>
      </trkpt>
      <trkpt lat="45.92941" lon="4.7298">
        <ele>171</ele>
        <time>2018-10-28T11:07:13Z</time>
      </trkpt>
      <trkpt lat="45.92936" lon="4.72985">
        <ele>171</ele>
        <time>2018-10-28T11:07:14Z</time>
      </trkpt>
      <trkpt lat="45.92931" lon="4.72991">
        <ele>172</ele>
        <time>2018-10-28T11:07:15Z</time>
      </trkpt>
      <trkpt lat="45.92927" lon="4.72997">
        <ele>172</ele>
        <time>2018-10-28T11:07:16Z</time>
      </trkpt>
      <trkpt lat="45.92922" lon="4.73002">
        <ele>172</ele>
        <time>2018-10-28T11:07:17Z</time>
      </trkpt>
      <trkpt lat="45.92917" lon="4.73007">
        <ele>172</ele>
        <time>2018-10-28T11:07:18Z</time>
      </trkpt>
      <trkpt lat="45.92912" lon="4.73011">
        <ele>172</ele>
        <time>2018-10-28T11:07:19Z</time>
      </trkpt>
      <trkpt lat="45.92908" lon="4.73018">
        <ele>172</ele>
        <time>2018-10-28T11:07:20Z</time>
      </trkpt>
      <trkpt lat="45.92904" lon="4.73023">
        <ele>172</ele>
        <time>2018-10-28T11:07:21Z</time>
      </trkpt>
      <trkpt lat="45.92901" lon="4.73029">
        <ele>172</ele>
        <time>2018-10-28T11:07:22Z</time>
      </trkpt>
      <trkpt lat="45.92897" lon="4.73035">
        <ele>172</ele>
        <time>2018-10-28T11:07:23Z</time>
      </trkpt>
      <trkpt lat="45.92893" lon="4.73041">
        <ele>172</ele>
        <time>2018-10-28T11:07:24Z</time>
      </trkpt>
      <trkpt lat="45.9289" lon="4.73046">
        <ele>172</ele>
        <time>2018-10-28T11:07:25Z</time>
      </trkpt>
      <trkpt lat="45.92886" lon="4.73052">
        <ele>172</ele>
        <time>2018-10-28T11:07:26Z</time>
      </trkpt>
      <trkpt lat="45.92881" lon="4.73059">
        <ele>172</ele>
        <time>2018-10-28T11:07:27Z</time>
      </trkpt>
      <trkpt lat="45.92877" lon="4.73066">
        <ele>172</ele>
        <time>2018-10-28T11:07:28Z</time>
      </trkpt>
      <trkpt lat="45.92875" lon="4.7307">
        <ele>172</ele>
        <time>2018-10-28T11:07:29Z</time>
      </trkpt>
      <trkpt lat="45.92872" lon="4.73075">
        <ele>172</ele>
        <time>2018-10-28T11:07:30Z</time>
      </trkpt>
      <trkpt lat="45.92868" lon="4.73079">
        <ele>172</ele>
        <time>2018-10-28T11:07:31Z</time>
      </trkpt>
      <trkpt lat="45.92864" lon="4.73084">
        <ele>172</ele>
        <time>2018-10-28T11:07:32Z</time>
      </trkpt>
      <trkpt lat="45.92861" lon="4.7309">
        <ele>171</ele>
        <time>2018-10-28T11:07:33Z</time>
      </trkpt>
      <trkpt lat="45.92855" lon="4.73099">
        <ele>171</ele>
        <time>2018-10-28T11:07:35Z</time>
      </trkpt>
      <trkpt lat="45.92852" lon="4.73101">
        <ele>171</ele>
        <time>2018-10-28T11:07:36Z</time>
      </trkpt>
      <trkpt lat="45.92845" lon="4.73097">
        <ele>171</ele>
        <time>2018-10-28T11:07:38Z</time>
      </trkpt>
      <trkpt lat="45.92844" lon="4.73091">
        <ele>171</ele>
        <time>2018-10-28T11:07:39Z</time>
      </trkpt>
      <trkpt lat="45.92843" lon="4.73085">
        <ele>171</ele>
        <time>2018-10-28T11:07:40Z</time>
      </trkpt>
      <trkpt lat="45.92843" lon="4.73077">
        <ele>171</ele>
        <time>2018-10-28T11:07:41Z</time>
      </trkpt>
      <trkpt lat="45.92842" lon="4.73066">
        <ele>171</ele>
        <time>2018-10-28T11:07:43Z</time>
      </trkpt>
      <trkpt lat="45.92841" lon="4.73058">
        <ele>171</ele>
        <time>2018-10-28T11:07:44Z</time>
      </trkpt>
      <trkpt lat="45.92839" lon="4.73049">
        <ele>171</ele>
        <time>2018-10-28T11:07:45Z</time>
      </trkpt>
      <trkpt lat="45.92837" lon="4.73041">
        <ele>171</ele>
        <time>2018-10-28T11:07:46Z</time>
      </trkpt>
      <trkpt lat="45.92836" lon="4.73033">
        <ele>171</ele>
        <time>2018-10-28T11:07:47Z</time>
      </trkpt>
      <trkpt lat="45.92835" lon="4.73025">
        <ele>171</ele>
        <time>2018-10-28T11:07:48Z</time>
      </trkpt>
      <trkpt lat="45.92834" lon="4.73018">
        <ele>171</ele>
        <time>2018-10-28T11:07:49Z</time>
      </trkpt>
      <trkpt lat="45.92833" lon="4.73009">
        <ele>170</ele>
        <time>2018-10-28T11:07:50Z</time>
      </trkpt>
      <trkpt lat="45.92833" lon="4.73001">
        <ele>170</ele>
        <time>2018-10-28T11:07:51Z</time>
      </trkpt>
      <trkpt lat="45.92832" lon="4.72992">
        <ele>170</ele>
        <time>2018-10-28T11:07:52Z</time>
      </trkpt>
      <trkpt lat="45.92831" lon="4.72984">
        <ele>170</ele>
        <time>2018-10-28T11:07:53Z</time>
      </trkpt>
      <trkpt lat="45.92831" lon="4.72976">
        <ele>170</ele>
        <time>2018-10-28T11:07:54Z</time>
      </trkpt>
      <trkpt lat="45.9283" lon="4.72967">
        <ele>170</ele>
        <time>2018-10-28T11:07:55Z</time>
      </trkpt>
      <trkpt lat="45.9283" lon="4.72959">
        <ele>170</ele>
        <time>2018-10-28T11:07:56Z</time>
      </trkpt>
      <trkpt lat="45.92828" lon="4.72952">
        <ele>170</ele>
        <time>2018-10-28T11:07:57Z</time>
      </trkpt>
      <trkpt lat="45.92828" lon="4.72944">
        <ele>170</ele>
        <time>2018-10-28T11:07:58Z</time>
      </trkpt>
      <trkpt lat="45.92826" lon="4.72937">
        <ele>170</ele>
        <time>2018-10-28T11:07:59Z</time>
      </trkpt>
      <trkpt lat="45.92825" lon="4.7293">
        <ele>170</ele>
        <time>2018-10-28T11:08:00Z</time>
      </trkpt>
      <trkpt lat="45.92823" lon="4.72923">
        <ele>170</ele>
        <time>2018-10-28T11:08:01Z</time>
      </trkpt>
      <trkpt lat="45.92823" lon="4.72917">
        <ele>170</ele>
        <time>2018-10-28T11:08:02Z</time>
      </trkpt>
      <trkpt lat="45.92823" lon="4.7291">
        <ele>170</ele>
        <time>2018-10-28T11:08:03Z</time>
      </trkpt>
      <trkpt lat="45.92822" lon="4.72903">
        <ele>170</ele>
        <time>2018-10-28T11:08:04Z</time>
      </trkpt>
      <trkpt lat="45.92822" lon="4.72896">
        <ele>170</ele>
        <time>2018-10-28T11:08:05Z</time>
      </trkpt>
      <trkpt lat="45.9282" lon="4.72889">
        <ele>170</ele>
        <time>2018-10-28T11:08:06Z</time>
      </trkpt>
      <trkpt lat="45.92819" lon="4.72881">
        <ele>170</ele>
        <time>2018-10-28T11:08:07Z</time>
      </trkpt>
      <trkpt lat="45.92817" lon="4.72873">
        <ele>170</ele>
        <time>2018-10-28T11:08:08Z</time>
      </trkpt>
      <trkpt lat="45.92816" lon="4.72866">
        <ele>170</ele>
        <time>2018-10-28T11:08:09Z</time>
      </trkpt>
      <trkpt lat="45.92814" lon="4.72858">
        <ele>170</ele>
        <time>2018-10-28T11:08:10Z</time>
      </trkpt>
      <trkpt lat="45.92813" lon="4.7285">
        <ele>170</ele>
        <time>2018-10-28T11:08:11Z</time>
      </trkpt>
      <trkpt lat="45.92811" lon="4.72843">
        <ele>170</ele>
        <time>2018-10-28T11:08:12Z</time>
      </trkpt>
      <trkpt lat="45.9281" lon="4.72836">
        <ele>170</ele>
        <time>2018-10-28T11:08:13Z</time>
      </trkpt>
      <trkpt lat="45.92808" lon="4.72828">
        <ele>171</ele>
        <time>2018-10-28T11:08:14Z</time>
      </trkpt>
      <trkpt lat="45.92807" lon="4.72821">
        <ele>171</ele>
        <time>2018-10-28T11:08:15Z</time>
      </trkpt>
      <trkpt lat="45.92806" lon="4.72814">
        <ele>171</ele>
        <time>2018-10-28T11:08:16Z</time>
      </trkpt>
      <trkpt lat="45.92805" lon="4.72807">
        <ele>171</ele>
        <time>2018-10-28T11:08:17Z</time>
      </trkpt>
      <trkpt lat="45.92805" lon="4.72799">
        <ele>171</ele>
        <time>2018-10-28T11:08:18Z</time>
      </trkpt>
      <trkpt lat="45.92804" lon="4.72791">
        <ele>171</ele>
        <time>2018-10-28T11:08:19Z</time>
      </trkpt>
      <trkpt lat="45.92803" lon="4.72786">
        <ele>171</ele>
        <time>2018-10-28T11:08:20Z</time>
      </trkpt>
      <trkpt lat="45.92796" lon="4.7278">
        <ele>171</ele>
        <time>2018-10-28T11:08:22Z</time>
      </trkpt>
      <trkpt lat="45.92791" lon="4.72783">
        <ele>171</ele>
        <time>2018-10-28T11:08:23Z</time>
      </trkpt>
      <trkpt lat="45.92784" lon="4.72789">
        <ele>170</ele>
        <time>2018-10-28T11:08:25Z</time>
      </trkpt>
      <trkpt lat="45.9278" lon="4.72792">
        <ele>170</ele>
        <time>2018-10-28T11:08:26Z</time>
      </trkpt>
      <trkpt lat="45.92776" lon="4.72796">
        <ele>170</ele>
        <time>2018-10-28T11:08:27Z</time>
      </trkpt>
      <trkpt lat="45.92772" lon="4.72798">
        <ele>170</ele>
        <time>2018-10-28T11:08:28Z</time>
      </trkpt>
      <trkpt lat="45.92764" lon="4.72804">
        <ele>170</ele>
        <time>2018-10-28T11:08:30Z</time>
      </trkpt>
      <trkpt lat="45.92759" lon="4.72808">
        <ele>170</ele>
        <time>2018-10-28T11:08:31Z</time>
      </trkpt>
      <trkpt lat="45.92756" lon="4.72812">
        <ele>170</ele>
        <time>2018-10-28T11:08:32Z</time>
      </trkpt>
      <trkpt lat="45.92751" lon="4.72815">
        <ele>170</ele>
        <time>2018-10-28T11:08:33Z</time>
      </trkpt>
      <trkpt lat="45.92746" lon="4.72819">
        <ele>169</ele>
        <time>2018-10-28T11:08:34Z</time>
      </trkpt>
      <trkpt lat="45.92741" lon="4.72822">
        <ele>169</ele>
        <time>2018-10-28T11:08:35Z</time>
      </trkpt>
      <trkpt lat="45.92736" lon="4.72827">
        <ele>169</ele>
        <time>2018-10-28T11:08:36Z</time>
      </trkpt>
      <trkpt lat="45.92731" lon="4.72831">
        <ele>169</ele>
        <time>2018-10-28T11:08:37Z</time>
      </trkpt>
      <trkpt lat="45.92726" lon="4.72835">
        <ele>169</ele>
        <time>2018-10-28T11:08:38Z</time>
      </trkpt>
      <trkpt lat="45.92721" lon="4.72838">
        <ele>169</ele>
        <time>2018-10-28T11:08:39Z</time>
      </trkpt>
      <trkpt lat="45.92717" lon="4.72841">
        <ele>169</ele>
        <time>2018-10-28T11:08:40Z</time>
      </trkpt>
      <trkpt lat="45.92712" lon="4.72845">
        <ele>169</ele>
        <time>2018-10-28T11:08:41Z</time>
      </trkpt>
      <trkpt lat="45.92707" lon="4.72849">
        <ele>169</ele>
        <time>2018-10-28T11:08:42Z</time>
      </trkpt>
      <trkpt lat="45.92702" lon="4.72854">
        <ele>169</ele>
        <time>2018-10-28T11:08:43Z</time>
      </trkpt>
      <trkpt lat="45.92696" lon="4.72858">
        <ele>169</ele>
        <time>2018-10-28T11:08:44Z</time>
      </trkpt>
      <trkpt lat="45.92691" lon="4.72863">
        <ele>169</ele>
        <time>2018-10-28T11:08:45Z</time>
      </trkpt>
      <trkpt lat="45.92687" lon="4.72867">
        <ele>169</ele>
        <time>2018-10-28T11:08:46Z</time>
      </trkpt>
      <trkpt lat="45.92681" lon="4.72871">
        <ele>169</ele>
        <time>2018-10-28T11:08:47Z</time>
      </trkpt>
      <trkpt lat="45.92675" lon="4.72875">
        <ele>170</ele>
        <time>2018-10-28T11:08:48Z</time>
      </trkpt>
      <trkpt lat="45.92669" lon="4.7288">
        <ele>170</ele>
        <time>2018-10-28T11:08:49Z</time>
      </trkpt>
      <trkpt lat="45.92664" lon="4.72885">
        <ele>169</ele>
        <time>2018-10-28T11:08:50Z</time>
      </trkpt>
      <trkpt lat="45.92659" lon="4.7289">
        <ele>169</ele>
        <time>2018-10-28T11:08:51Z</time>
      </trkpt>
      <trkpt lat="45.92653" lon="4.72894">
        <ele>169</ele>
        <time>2018-10-28T11:08:52Z</time>
      </trkpt>
      <trkpt lat="45.92647" lon="4.72899">
        <ele>169</ele>
        <time>2018-10-28T11:08:53Z</time>
      </trkpt>
      <trkpt lat="45.92643" lon="4.72904">
        <ele>169</ele>
        <time>2018-10-28T11:08:54Z</time>
      </trkpt>
      <trkpt lat="45.92638" lon="4.72908">
        <ele>169</ele>
        <time>2018-10-28T11:08:55Z</time>
      </trkpt>
      <trkpt lat="45.92633" lon="4.72912">
        <ele>169</ele>
        <time>2018-10-28T11:08:56Z</time>
      </trkpt>
      <trkpt lat="45.92628" lon="4.72915">
        <ele>169</ele>
        <time>2018-10-28T11:08:57Z</time>
      </trkpt>
      <trkpt lat="45.92623" lon="4.72919">
        <ele>169</ele>
        <time>2018-10-28T11:08:58Z</time>
      </trkpt>
      <trkpt lat="45.92618" lon="4.72924">
        <ele>169</ele>
        <time>2018-10-28T11:08:59Z</time>
      </trkpt>
      <trkpt lat="45.92612" lon="4.72929">
        <ele>169</ele>
        <time>2018-10-28T11:09:00Z</time>
      </trkpt>
      <trkpt lat="45.92607" lon="4.72934">
        <ele>169</ele>
        <time>2018-10-28T11:09:01Z</time>
      </trkpt>
      <trkpt lat="45.92602" lon="4.72939">
        <ele>169</ele>
        <time>2018-10-28T11:09:02Z</time>
      </trkpt>
      <trkpt lat="45.92597" lon="4.72944">
        <ele>169</ele>
        <time>2018-10-28T11:09:03Z</time>
      </trkpt>
      <trkpt lat="45.92593" lon="4.7295">
        <ele>169</ele>
        <time>2018-10-28T11:09:04Z</time>
      </trkpt>
      <trkpt lat="45.92588" lon="4.72953">
        <ele>169</ele>
        <time>2018-10-28T11:09:05Z</time>
      </trkpt>
      <trkpt lat="45.92583" lon="4.72957">
        <ele>169</ele>
        <time>2018-10-28T11:09:06Z</time>
      </trkpt>
      <trkpt lat="45.92579" lon="4.72962">
        <ele>169</ele>
        <time>2018-10-28T11:09:07Z</time>
      </trkpt>
      <trkpt lat="45.92574" lon="4.72967">
        <ele>169</ele>
        <time>2018-10-28T11:09:08Z</time>
      </trkpt>
      <trkpt lat="45.9257" lon="4.72972">
        <ele>169</ele>
        <time>2018-10-28T11:09:09Z</time>
      </trkpt>
      <trkpt lat="45.92565" lon="4.72976">
        <ele>169</ele>
        <time>2018-10-28T11:09:10Z</time>
      </trkpt>
      <trkpt lat="45.9256" lon="4.7298">
        <ele>169</ele>
        <time>2018-10-28T11:09:11Z</time>
      </trkpt>
      <trkpt lat="45.92556" lon="4.72985">
        <ele>169</ele>
        <time>2018-10-28T11:09:12Z</time>
      </trkpt>
      <trkpt lat="45.92551" lon="4.7299">
        <ele>169</ele>
        <time>2018-10-28T11:09:13Z</time>
      </trkpt>
      <trkpt lat="45.92546" lon="4.72995">
        <ele>169</ele>
        <time>2018-10-28T11:09:14Z</time>
      </trkpt>
      <trkpt lat="45.92541" lon="4.73">
        <ele>169</ele>
        <time>2018-10-28T11:09:15Z</time>
      </trkpt>
      <trkpt lat="45.92536" lon="4.73005">
        <ele>169</ele>
        <time>2018-10-28T11:09:16Z</time>
      </trkpt>
      <trkpt lat="45.92531" lon="4.7301">
        <ele>169</ele>
        <time>2018-10-28T11:09:17Z</time>
      </trkpt>
      <trkpt lat="45.92526" lon="4.73015">
        <ele>169</ele>
        <time>2018-10-28T11:09:18Z</time>
      </trkpt>
      <trkpt lat="45.92521" lon="4.7302">
        <ele>169</ele>
        <time>2018-10-28T11:09:19Z</time>
      </trkpt>
      <trkpt lat="45.92517" lon="4.73024">
        <ele>169</ele>
        <time>2018-10-28T11:09:20Z</time>
      </trkpt>
      <trkpt lat="45.92511" lon="4.73028">
        <ele>169</ele>
        <time>2018-10-28T11:09:21Z</time>
      </trkpt>
      <trkpt lat="45.92506" lon="4.73032">
        <ele>169</ele>
        <time>2018-10-28T11:09:22Z</time>
      </trkpt>
      <trkpt lat="45.92501" lon="4.73036">
        <ele>169</ele>
        <time>2018-10-28T11:09:23Z</time>
      </trkpt>
      <trkpt lat="45.92496" lon="4.73041">
        <ele>170</ele>
        <time>2018-10-28T11:09:24Z</time>
      </trkpt>
      <trkpt lat="45.92491" lon="4.73045">
        <ele>170</ele>
        <time>2018-10-28T11:09:25Z</time>
      </trkpt>
      <trkpt lat="45.92485" lon="4.7305">
        <ele>170</ele>
        <time>2018-10-28T11:09:26Z</time>
      </trkpt>
      <trkpt lat="45.92479" lon="4.73055">
        <ele>170</ele>
        <time>2018-10-28T11:09:27Z</time>
      </trkpt>
      <trkpt lat="45.92475" lon="4.73061">
        <ele>170</ele>
        <time>2018-10-28T11:09:28Z</time>
      </trkpt>
      <trkpt lat="45.92469" lon="4.73065">
        <ele>170</ele>
        <time>2018-10-28T11:09:29Z</time>
      </trkpt>
      <trkpt lat="45.92465" lon="4.7307">
        <ele>170</ele>
        <time>2018-10-28T11:09:30Z</time>
      </trkpt>
      <trkpt lat="45.9246" lon="4.73073">
        <ele>170</ele>
        <time>2018-10-28T11:09:31Z</time>
      </trkpt>
      <trkpt lat="45.92455" lon="4.73077">
        <ele>170</ele>
        <time>2018-10-28T11:09:32Z</time>
      </trkpt>
      <trkpt lat="45.9245" lon="4.73081">
        <ele>170</ele>
        <time>2018-10-28T11:09:33Z</time>
      </trkpt>
      <trkpt lat="45.92446" lon="4.73085">
        <ele>170</ele>
        <time>2018-10-28T11:09:34Z</time>
      </trkpt>
      <trkpt lat="45.92441" lon="4.73088">
        <ele>171</ele>
        <time>2018-10-28T11:09:35Z</time>
      </trkpt>
      <trkpt lat="45.92437" lon="4.73091">
        <ele>171</ele>
        <time>2018-10-28T11:09:36Z</time>
      </trkpt>
      <trkpt lat="45.92433" lon="4.73096">
        <ele>171</ele>
        <time>2018-10-28T11:09:37Z</time>
      </trkpt>
      <trkpt lat="45.9243" lon="4.73101">
        <ele>171</ele>
        <time>2018-10-28T11:09:38Z</time>
      </trkpt>
      <trkpt lat="45.92426" lon="4.73104">
        <ele>171</ele>
        <time>2018-10-28T11:09:39Z</time>
      </trkpt>
      <trkpt lat="45.92421" lon="4.73107">
        <ele>171</ele>
        <time>2018-10-28T11:09:40Z</time>
      </trkpt>
      <trkpt lat="45.92417" lon="4.73111">
        <ele>170</ele>
        <time>2018-10-28T11:09:41Z</time>
      </trkpt>
      <trkpt lat="45.92414" lon="4.73117">
        <ele>171</ele>
        <time>2018-10-28T11:09:42Z</time>
      </trkpt>
      <trkpt lat="45.92411" lon="4.73122">
        <ele>171</ele>
        <time>2018-10-28T11:09:43Z</time>
      </trkpt>
      <trkpt lat="45.92408" lon="4.73129">
        <ele>171</ele>
        <time>2018-10-28T11:09:44Z</time>
      </trkpt>
      <trkpt lat="45.92407" lon="4.73136">
        <ele>171</ele>
        <time>2018-10-28T11:09:45Z</time>
      </trkpt>
      <trkpt lat="45.92407" lon="4.73144">
        <ele>171</ele>
        <time>2018-10-28T11:09:46Z</time>
      </trkpt>
      <trkpt lat="45.92406" lon="4.73152">
        <ele>171</ele>
        <time>2018-10-28T11:09:47Z</time>
      </trkpt>
      <trkpt lat="45.92406" lon="4.73159">
        <ele>170</ele>
        <time>2018-10-28T11:09:48Z</time>
      </trkpt>
      <trkpt lat="45.92406" lon="4.73168">
        <ele>170</ele>
        <time>2018-10-28T11:09:49Z</time>
      </trkpt>
      <trkpt lat="45.92406" lon="4.73176">
        <ele>171</ele>
        <time>2018-10-28T11:09:50Z</time>
      </trkpt>
      <trkpt lat="45.92407" lon="4.73184">
        <ele>171</ele>
        <time>2018-10-28T11:09:51Z</time>
      </trkpt>
      <trkpt lat="45.92407" lon="4.73193">
        <ele>171</ele>
        <time>2018-10-28T11:09:52Z</time>
      </trkpt>
      <trkpt lat="45.92407" lon="4.732">
        <ele>171</ele>
        <time>2018-10-28T11:09:53Z</time>
      </trkpt>
      <trkpt lat="45.92407" lon="4.73209">
        <ele>171</ele>
        <time>2018-10-28T11:09:54Z</time>
      </trkpt>
      <trkpt lat="45.92406" lon="4.73218">
        <ele>171</ele>
        <time>2018-10-28T11:09:55Z</time>
      </trkpt>
      <trkpt lat="45.92406" lon="4.73226">
        <ele>171</ele>
        <time>2018-10-28T11:09:56Z</time>
      </trkpt>
      <trkpt lat="45.92407" lon="4.73235">
        <ele>171</ele>
        <time>2018-10-28T11:09:57Z</time>
      </trkpt>
      <trkpt lat="45.92407" lon="4.73242">
        <ele>171</ele>
        <time>2018-10-28T11:09:58Z</time>
      </trkpt>
      <trkpt lat="45.92408" lon="4.73251">
        <ele>171</ele>
        <time>2018-10-28T11:09:59Z</time>
      </trkpt>
      <trkpt lat="45.92408" lon="4.7326">
        <ele>171</ele>
        <time>2018-10-28T11:10:00Z</time>
      </trkpt>
      <trkpt lat="45.92409" lon="4.73266">
        <ele>171</ele>
        <time>2018-10-28T11:10:01Z</time>
      </trkpt>
      <trkpt lat="45.9241" lon="4.73275">
        <ele>171</ele>
        <time>2018-10-28T11:10:02Z</time>
      </trkpt>
      <trkpt lat="45.9241" lon="4.73283">
        <ele>171</ele>
        <time>2018-10-28T11:10:03Z</time>
      </trkpt>
      <trkpt lat="45.92411" lon="4.7329">
        <ele>171</ele>
        <time>2018-10-28T11:10:04Z</time>
      </trkpt>
      <trkpt lat="45.92411" lon="4.73299">
        <ele>171</ele>
        <time>2018-10-28T11:10:05Z</time>
      </trkpt>
      <trkpt lat="45.92412" lon="4.73307">
        <ele>171</ele>
        <time>2018-10-28T11:10:06Z</time>
      </trkpt>
      <trkpt lat="45.92413" lon="4.73315">
        <ele>171</ele>
        <time>2018-10-28T11:10:07Z</time>
      </trkpt>
      <trkpt lat="45.92414" lon="4.73323">
        <ele>171</ele>
        <time>2018-10-28T11:10:08Z</time>
      </trkpt>
      <trkpt lat="45.92414" lon="4.73331">
        <ele>171</ele>
        <time>2018-10-28T11:10:09Z</time>
      </trkpt>
      <trkpt lat="45.92415" lon="4.73339">
        <ele>171</ele>
        <time>2018-10-28T11:10:10Z</time>
      </trkpt>
      <trkpt lat="45.92416" lon="4.73346">
        <ele>171</ele>
        <time>2018-10-28T11:10:11Z</time>
      </trkpt>
      <trkpt lat="45.92417" lon="4.73355">
        <ele>171</ele>
        <time>2018-10-28T11:10:12Z</time>
      </trkpt>
      <trkpt lat="45.92418" lon="4.73363">
        <ele>172</ele>
        <time>2018-10-28T11:10:13Z</time>
      </trkpt>
      <trkpt lat="45.92419" lon="4.73372">
        <ele>172</ele>
        <time>2018-10-28T11:10:14Z</time>
      </trkpt>
      <trkpt lat="45.92421" lon="4.73381">
        <ele>172</ele>
        <time>2018-10-28T11:10:15Z</time>
      </trkpt>
      <trkpt lat="45.92422" lon="4.73389">
        <ele>172</ele>
        <time>2018-10-28T11:10:16Z</time>
      </trkpt>
      <trkpt lat="45.92425" lon="4.73397">
        <ele>172</ele>
        <time>2018-10-28T11:10:17Z</time>
      </trkpt>
      <trkpt lat="45.92428" lon="4.73404">
        <ele>172</ele>
        <time>2018-10-28T11:10:18Z</time>
      </trkpt>
      <trkpt lat="45.92432" lon="4.7341">
        <ele>172</ele>
        <time>2018-10-28T11:10:19Z</time>
      </trkpt>
      <trkpt lat="45.92436" lon="4.73414">
        <ele>172</ele>
        <time>2018-10-28T11:10:20Z</time>
      </trkpt>
      <trkpt lat="45.9244" lon="4.73418">
        <ele>173</ele>
        <time>2018-10-28T11:10:21Z</time>
      </trkpt>
      <trkpt lat="45.92446" lon="4.7342">
        <ele>173</ele>
        <time>2018-10-28T11:10:22Z</time>
      </trkpt>
      <trkpt lat="45.9245" lon="4.73423">
        <ele>173</ele>
        <time>2018-10-28T11:10:23Z</time>
      </trkpt>
      <trkpt lat="45.92454" lon="4.73427">
        <ele>173</ele>
        <time>2018-10-28T11:10:24Z</time>
      </trkpt>
      <trkpt lat="45.92459" lon="4.73433">
        <ele>173</ele>
        <time>2018-10-28T11:10:25Z</time>
      </trkpt>
      <trkpt lat="45.92462" lon="4.73439">
        <ele>173</ele>
        <time>2018-10-28T11:10:26Z</time>
      </trkpt>
      <trkpt lat="45.92465" lon="4.73447">
        <ele>173</ele>
        <time>2018-10-28T11:10:27Z</time>
      </trkpt>
      <trkpt lat="45.92466" lon="4.73455">
        <ele>173</ele>
        <time>2018-10-28T11:10:28Z</time>
      </trkpt>
      <trkpt lat="45.92467" lon="4.73461">
        <ele>173</ele>
        <time>2018-10-28T11:10:29Z</time>
      </trkpt>
      <trkpt lat="45.92467" lon="4.73468">
        <ele>173</ele>
        <time>2018-10-28T11:10:30Z</time>
      </trkpt>
      <trkpt lat="45.92466" lon="4.73475">
        <ele>173</ele>
        <time>2018-10-28T11:10:31Z</time>
      </trkpt>
      <trkpt lat="45.92467" lon="4.73482">
        <ele>173</ele>
        <time>2018-10-28T11:10:32Z</time>
      </trkpt>
      <trkpt lat="45.92466" lon="4.73489">
        <ele>173</ele>
        <time>2018-10-28T11:10:33Z</time>
      </trkpt>
      <trkpt lat="45.92466" lon="4.73497">
        <ele>173</ele>
        <time>2018-10-28T11:10:34Z</time>
      </trkpt>
      <trkpt lat="45.92467" lon="4.73504">
        <ele>174</ele>
        <time>2018-10-28T11:10:35Z</time>
      </trkpt>
      <trkpt lat="45.92467" lon="4.73517">
        <ele>174</ele>
        <time>2018-10-28T11:10:37Z</time>
      </trkpt>
      <trkpt lat="45.92467" lon="4.73524">
        <ele>174</ele>
        <time>2018-10-28T11:10:38Z</time>
      </trkpt>
      <trkpt lat="45.92467" lon="4.73534">
        <ele>174</ele>
        <time>2018-10-28T11:10:40Z</time>
      </trkpt>
      <trkpt lat="45.92467" lon="4.73542">
        <ele>173</ele>
        <time>2018-10-28T11:10:41Z</time>
      </trkpt>
      <trkpt lat="45.92466" lon="4.73552">
        <ele>173</ele>
        <time>2018-10-28T11:10:43Z</time>
      </trkpt>
      <trkpt lat="45.92465" lon="4.7356">
        <ele>173</ele>
        <time>2018-10-28T11:10:44Z</time>
      </trkpt>
      <trkpt lat="45.92466" lon="4.73567">
        <ele>173</ele>
        <time>2018-10-28T11:10:45Z</time>
      </trkpt>
      <trkpt lat="45.92466" lon="4.73574">
        <ele>173</ele>
        <time>2018-10-28T11:10:46Z</time>
      </trkpt>
      <trkpt lat="45.92466" lon="4.73581">
        <ele>173</ele>
        <time>2018-10-28T11:10:47Z</time>
      </trkpt>
      <trkpt lat="45.92466" lon="4.73588">
        <ele>174</ele>
        <time>2018-10-28T11:10:48Z</time>
      </trkpt>
      <trkpt lat="45.92467" lon="4.73595">
        <ele>174</ele>
        <time>2018-10-28T11:10:49Z</time>
      </trkpt>
      <trkpt lat="45.92467" lon="4.73602">
        <ele>174</ele>
        <time>2018-10-28T11:10:50Z</time>
      </trkpt>
      <trkpt lat="45.92467" lon="4.7361">
        <ele>174</ele>
        <time>2018-10-28T11:10:51Z</time>
      </trkpt>
      <trkpt lat="45.92467" lon="4.73616">
        <ele>174</ele>
        <time>2018-10-28T11:10:52Z</time>
      </trkpt>
      <trkpt lat="45.92468" lon="4.73622">
        <ele>174</ele>
        <time>2018-10-28T11:10:53Z</time>
      </trkpt>
      <trkpt lat="45.92468" lon="4.7363">
        <ele>174</ele>
        <time>2018-10-28T11:10:54Z</time>
      </trkpt>
      <trkpt lat="45.92467" lon="4.73638">
        <ele>174</ele>
        <time>2018-10-28T11:10:55Z</time>
      </trkpt>
      <trkpt lat="45.92467" lon="4.73646">
        <ele>174</ele>
        <time>2018-10-28T11:10:56Z</time>
      </trkpt>
      <trkpt lat="45.92467" lon="4.73652">
        <ele>174</ele>
        <time>2018-10-28T11:10:57Z</time>
      </trkpt>
      <trkpt lat="45.92467" lon="4.73659">
        <ele>174</ele>
        <time>2018-10-28T11:10:58Z</time>
      </trkpt>
      <trkpt lat="45.92466" lon="4.73666">
        <ele>174</ele>
        <time>2018-10-28T11:10:59Z</time>
      </trkpt>
      <trkpt lat="45.92466" lon="4.73672">
        <ele>174</ele>
        <time>2018-10-28T11:11:00Z</time>
      </trkpt>
      <trkpt lat="45.92466" lon="4.73684">
        <ele>174</ele>
        <time>2018-10-28T11:11:02Z</time>
      </trkpt>
      <trkpt lat="45.92465" lon="4.7369">
        <ele>174</ele>
        <time>2018-10-28T11:11:03Z</time>
      </trkpt>
      <trkpt lat="45.92463" lon="4.73701">
        <ele>174</ele>
        <time>2018-10-28T11:11:06Z</time>
      </trkpt>
      <trkpt lat="45.92462" lon="4.73702">
        <ele>174</ele>
        <time>2018-10-28T11:11:07Z</time>
      </trkpt>
      <trkpt lat="45.92459" lon="4.73709">
        <ele>174</ele>
        <time>2018-10-28T11:11:40.148Z</time>
      </trkpt>
    </trkseg>
  </trk>
</gpx>